<?xml version='1.0' encoding='UTF-8'?><gpx version="1.1" creator="JPX - https://github.com/jenetics/jpx" xmlns="http://www.topografix.com/GPX/1/1"><trk><trkseg><trkpt lat="45.10829855299463" lon="10.07679395513832"><ele>41.0</ele><time>2026-04-26T04:54:15.999Z</time></trkpt><trkpt lat="45.108381435903446" lon="10.076804254748893"><ele>41.0</ele><time>2026-04-26T04:54:18.999Z</time></trkpt><trkpt lat="45.108450780159345" lon="10.076817488884013"><ele>41.0</ele><time>2026-04-26T04:54:22.999Z</time></trkpt><trkpt lat="45.10851705795487" lon="10.07675832009275"><ele>41.0</ele><time>2026-04-26T04:54:27.999Z</time></trkpt><trkpt lat="45.10859495603211" lon="10.076762909915765"><ele>41.0</ele><time>2026-04-26T04:54:32.999Z</time></trkpt><trkpt lat="45.10866219372763" lon="10.0767325746085"><ele>41.0</ele><time>2026-04-26T04:54:37.999Z</time></trkpt><trkpt lat="45.10850819069369" lon="10.076857010436788"><ele>41.0</ele><time>2026-04-26T04:54:46.999Z</time></trkpt><trkpt lat="45.108648766147894" lon="10.076739981215368"><ele>41.0</ele><time>2026-04-26T04:54:49.999Z</time></trkpt><trkpt lat="45.10871404884093" lon="10.076804361791663"><ele>41.0</ele><time>2026-04-26T04:55:24.999Z</time></trkpt><trkpt lat="45.108779903951685" lon="10.076870123198015"><ele>41.0</ele><time>2026-04-26T04:55:27.999Z</time></trkpt><trkpt lat="45.10882570099255" lon="10.076938589875223"><ele>41.0</ele><time>2026-04-26T04:55:29.999Z</time></trkpt><trkpt lat="45.10884637022095" lon="10.077033987651268"><ele>41.0</ele><time>2026-04-26T04:55:32.001Z</time></trkpt><trkpt lat="45.10885145265" lon="10.077144835843978"><ele>41.0</ele><time>2026-04-26T04:55:34.001Z</time></trkpt><trkpt lat="45.10883427135506" lon="10.077258459066691"><ele>41.0</ele><time>2026-04-26T04:55:36.001Z</time></trkpt><trkpt lat="45.1088288259211" lon="10.077377150190154"><ele>41.0</ele><time>2026-04-26T04:55:38.001Z</time></trkpt><trkpt lat="45.1088125975845" lon="10.07749047529456"><ele>41.0</ele><time>2026-04-26T04:55:40.001Z</time></trkpt><trkpt lat="45.108786407177995" lon="10.077602362055194"><ele>41.0</ele><time>2026-04-26T04:55:42.001Z</time></trkpt><trkpt lat="45.10875551868791" lon="10.077717699130648"><ele>41.199999999999996</ele><time>2026-04-26T04:55:44Z</time></trkpt><trkpt lat="45.108710780616" lon="10.0778271589021"><ele>41.4</ele><time>2026-04-26T04:55:46Z</time></trkpt><trkpt lat="45.108621339204625" lon="10.077888396177176"><ele>41.6</ele><time>2026-04-26T04:55:48Z</time></trkpt><trkpt lat="45.10852521311291" lon="10.077868040053367"><ele>41.8</ele><time>2026-04-26T04:55:50Z</time></trkpt><trkpt lat="45.10842648604287" lon="10.077833426004542"><ele>42.0</ele><time>2026-04-26T04:55:52Z</time></trkpt><trkpt lat="45.10832043175349" lon="10.077790112986015"><ele>41.8</ele><time>2026-04-26T04:55:54Z</time></trkpt><trkpt lat="45.10820884768568" lon="10.07776416064338"><ele>41.6</ele><time>2026-04-26T04:55:56Z</time></trkpt><trkpt lat="45.10814322810189" lon="10.07775594127495"><ele>41.4</ele><time>2026-04-26T04:55:57Z</time></trkpt><trkpt lat="45.108023413104874" lon="10.07772695823447"><ele>41.199999999999996</ele><time>2026-04-26T04:55:59Z</time></trkpt><trkpt lat="45.107902975129186" lon="10.077688743283979"><ele>41.0</ele><time>2026-04-26T04:56:01Z</time></trkpt><trkpt lat="45.10778299633535" lon="10.077650220767612"><ele>41.0</ele><time>2026-04-26T04:56:03Z</time></trkpt><trkpt lat="45.1077172846889" lon="10.077630227261514"><ele>41.0</ele><time>2026-04-26T04:56:04Z</time></trkpt><trkpt lat="45.10765506352923" lon="10.077608947233731"><ele>41.0</ele><time>2026-04-26T04:56:05Z</time></trkpt><trkpt lat="45.1075334246915" lon="10.077570524493696"><ele>41.0</ele><time>2026-04-26T04:56:07Z</time></trkpt><trkpt lat="45.107474083346595" lon="10.077539922752173"><ele>41.0</ele><time>2026-04-26T04:56:08Z</time></trkpt><trkpt lat="45.10735768309633" lon="10.07748258700482"><ele>41.0</ele><time>2026-04-26T04:56:10Z</time></trkpt><trkpt lat="45.10726144365482" lon="10.077450316439242"><ele>40.75</ele><time>2026-04-26T04:56:12Z</time></trkpt><trkpt lat="45.10729199445403" lon="10.077257762466242"><ele>40.5</ele><time>2026-04-26T04:56:16Z</time></trkpt><trkpt lat="45.107374702639916" lon="10.077148732643122"><ele>40.25</ele><time>2026-04-26T04:56:18Z</time></trkpt><trkpt lat="45.10745213351968" lon="10.0770249440516"><ele>40.0</ele><time>2026-04-26T04:56:20Z</time></trkpt><trkpt lat="45.107530859467964" lon="10.076891039495315"><ele>40.0</ele><time>2026-04-26T04:56:21.999Z</time></trkpt><trkpt lat="45.10757299689674" lon="10.0768244261406"><ele>40.0</ele><time>2026-04-26T04:56:22.999Z</time></trkpt><trkpt lat="45.10761418506651" lon="10.07675548471334"><ele>40.0</ele><time>2026-04-26T04:56:23.999Z</time></trkpt><trkpt lat="45.107658131347534" lon="10.076690105434817"><ele>40.0</ele><time>2026-04-26T04:56:24.999Z</time></trkpt><trkpt lat="45.10775230227803" lon="10.0765627743329"><ele>40.0</ele><time>2026-04-26T04:56:26.999Z</time></trkpt><trkpt lat="45.107812453757234" lon="10.076507734909633"><ele>40.0</ele><time>2026-04-26T04:56:27.999Z</time></trkpt><trkpt lat="45.10786361424649" lon="10.076449353807163"><ele>40.0</ele><time>2026-04-26T04:56:28.999Z</time></trkpt><trkpt lat="45.10792291222464" lon="10.076393973048637"><ele>40.0</ele><time>2026-04-26T04:56:29.999Z</time></trkpt><trkpt lat="45.10798176307338" lon="10.076348045749839"><ele>40.0</ele><time>2026-04-26T04:56:30.999Z</time></trkpt><trkpt lat="45.10805091056717" lon="10.076309356122948"><ele>40.0</ele><time>2026-04-26T04:56:31.999Z</time></trkpt><trkpt lat="45.10811725353026" lon="10.076275102120103"><ele>40.0</ele><time>2026-04-26T04:56:32.999Z</time></trkpt><trkpt lat="45.108184393002944" lon="10.076240128578178"><ele>40.0</ele><time>2026-04-26T04:56:33.999Z</time></trkpt><trkpt lat="45.10824888154568" lon="10.076203878315598"><ele>40.0</ele><time>2026-04-26T04:56:34.999Z</time></trkpt><trkpt lat="45.10831498313426" lon="10.076168844117912"><ele>40.0</ele><time>2026-04-26T04:56:35.999Z</time></trkpt><trkpt lat="45.10837906591204" lon="10.07613271428024"><ele>40.0</ele><time>2026-04-26T04:56:36.999Z</time></trkpt><trkpt lat="45.10844345630902" lon="10.076093137375802"><ele>40.0</ele><time>2026-04-26T04:56:37.999Z</time></trkpt><trkpt lat="45.10850848197009" lon="10.07605627127664"><ele>40.0</ele><time>2026-04-26T04:56:38.999Z</time></trkpt><trkpt lat="45.10857074414874" lon="10.076017354053722"><ele>40.0</ele><time>2026-04-26T04:56:39.999Z</time></trkpt><trkpt lat="45.10863147733919" lon="10.075968114147532"><ele>40.0</ele><time>2026-04-26T04:56:40.999Z</time></trkpt><trkpt lat="45.108689546046655" lon="10.07590788945378"><ele>40.0</ele><time>2026-04-26T04:56:41.999Z</time></trkpt><trkpt lat="45.10874398552566" lon="10.075838176396928"><ele>40.0</ele><time>2026-04-26T04:56:42.999Z</time></trkpt><trkpt lat="45.10879105335806" lon="10.075773536774795"><ele>40.0</ele><time>2026-04-26T04:56:43.999Z</time></trkpt><trkpt lat="45.108834306375954" lon="10.075696218203154"><ele>40.0</ele><time>2026-04-26T04:56:44.999Z</time></trkpt><trkpt lat="45.10888516622466" lon="10.075617014148913"><ele>40.0</ele><time>2026-04-26T04:56:45.999Z</time></trkpt><trkpt lat="45.108926048888975" lon="10.07552498822527"><ele>40.0</ele><time>2026-04-26T04:56:46.999Z</time></trkpt><trkpt lat="45.10895819733416" lon="10.075433649742983"><ele>40.0</ele><time>2026-04-26T04:56:47.999Z</time></trkpt><trkpt lat="45.1089812180378" lon="10.075336594414512"><ele>40.0</ele><time>2026-04-26T04:56:48.999Z</time></trkpt><trkpt lat="45.1090042917964" lon="10.075238960504747"><ele>39.857142857142854</ele><time>2026-04-26T04:56:49.999Z</time></trkpt><trkpt lat="45.109027399150136" lon="10.075138907272375"><ele>39.714285714285715</ele><time>2026-04-26T04:56:50.999Z</time></trkpt><trkpt lat="45.109045360206615" lon="10.075049326827662"><ele>39.57142857142857</ele><time>2026-04-26T04:56:51.999Z</time></trkpt><trkpt lat="45.109068149915515" lon="10.074948919857016"><ele>39.42857142857143</ele><time>2026-04-26T04:56:52.999Z</time></trkpt><trkpt lat="45.10909112870688" lon="10.074852326994321"><ele>39.285714285714285</ele><time>2026-04-26T04:56:53.999Z</time></trkpt><trkpt lat="45.109122195636424" lon="10.074768155152801"><ele>39.142857142857146</ele><time>2026-04-26T04:56:54.999Z</time></trkpt><trkpt lat="45.109145561113266" lon="10.074675654136074"><ele>39.0</ele><time>2026-04-26T04:56:55.999Z</time></trkpt><trkpt lat="45.109173470938565" lon="10.074586381811782"><ele>39.0</ele><time>2026-04-26T04:56:56.999Z</time></trkpt><trkpt lat="45.10920057623809" lon="10.074497697517723"><ele>39.0</ele><time>2026-04-26T04:56:57.999Z</time></trkpt><trkpt lat="45.10923051361254" lon="10.074408963227677"><ele>39.0</ele><time>2026-04-26T04:56:58.999Z</time></trkpt><trkpt lat="45.10926116089266" lon="10.074323304580565"><ele>39.0</ele><time>2026-04-26T04:56:59.999Z</time></trkpt><trkpt lat="45.109298244214855" lon="10.074243902666778"><ele>39.0</ele><time>2026-04-26T04:57:00.999Z</time></trkpt><trkpt lat="45.10933795652803" lon="10.074166016295688"><ele>39.0</ele><time>2026-04-26T04:57:01.999Z</time></trkpt><trkpt lat="45.10937956079778" lon="10.074089502273626"><ele>39.0</ele><time>2026-04-26T04:57:02.999Z</time></trkpt><trkpt lat="45.109420966143496" lon="10.074009940304354"><ele>39.285714285714285</ele><time>2026-04-26T04:57:03.999Z</time></trkpt><trkpt lat="45.109463480476386" lon="10.073932343516365"><ele>39.57142857142857</ele><time>2026-04-26T04:57:04.999Z</time></trkpt><trkpt lat="45.10950190633552" lon="10.073854033427674"><ele>39.857142857142854</ele><time>2026-04-26T04:57:05.999Z</time></trkpt><trkpt lat="45.10954458866476" lon="10.073777362643407"><ele>40.14285714285714</ele><time>2026-04-26T04:57:06.999Z</time></trkpt><trkpt lat="45.109584470009224" lon="10.073697656869022"><ele>40.42857142857143</ele><time>2026-04-26T04:57:07.999Z</time></trkpt><trkpt lat="45.109626843592565" lon="10.073619564796331"><ele>40.71428571428571</ele><time>2026-04-26T04:57:08.999Z</time></trkpt><trkpt lat="45.10966811490479" lon="10.073544592228993"><ele>41.0</ele><time>2026-04-26T04:57:09.999Z</time></trkpt><trkpt lat="45.10971342536571" lon="10.073468196705525"><ele>40.99999999999999</ele><time>2026-04-26T04:57:10.999Z</time></trkpt><trkpt lat="45.109756762562114" lon="10.073391863779014"><ele>41.0</ele><time>2026-04-26T04:57:11.999Z</time></trkpt><trkpt lat="45.109799364340724" lon="10.073313244882412"><ele>41.0</ele><time>2026-04-26T04:57:12.999Z</time></trkpt><trkpt lat="45.109842710377805" lon="10.073238020913559"><ele>41.0</ele><time>2026-04-26T04:57:13.999Z</time></trkpt><trkpt lat="45.10988461028826" lon="10.073159632925865"><ele>41.0</ele><time>2026-04-26T04:57:14.999Z</time></trkpt><trkpt lat="45.10992540222499" lon="10.073081451244574"><ele>40.99999999999999</ele><time>2026-04-26T04:57:15.999Z</time></trkpt><trkpt lat="45.10996850934015" lon="10.07300344304007"><ele>41.0</ele><time>2026-04-26T04:57:16.999Z</time></trkpt><trkpt lat="45.11001302928388" lon="10.072929136268124"><ele>40.99999999999999</ele><time>2026-04-26T04:57:17.999Z</time></trkpt><trkpt lat="45.11005589928645" lon="10.0728516749617"><ele>41.0</ele><time>2026-04-26T04:57:18.998Z</time></trkpt><trkpt lat="45.110097184436235" lon="10.0727720396832"><ele>41.0</ele><time>2026-04-26T04:57:19.998Z</time></trkpt><trkpt lat="45.11013834865336" lon="10.07269393610411"><ele>41.0</ele><time>2026-04-26T04:57:20.998Z</time></trkpt><trkpt lat="45.110178291253725" lon="10.072614057801033"><ele>41.0</ele><time>2026-04-26T04:57:21.998Z</time></trkpt><trkpt lat="45.110217564518386" lon="10.072535327857915"><ele>40.99999999999999</ele><time>2026-04-26T04:57:22.998Z</time></trkpt><trkpt lat="45.110255161481795" lon="10.072457466191981"><ele>41.0</ele><time>2026-04-26T04:57:23.998Z</time></trkpt><trkpt lat="45.110281620448944" lon="10.07236608332581"><ele>40.99999999999999</ele><time>2026-04-26T04:57:24.998Z</time></trkpt><trkpt lat="45.110314579560665" lon="10.072284881504544"><ele>41.0</ele><time>2026-04-26T04:57:25.998Z</time></trkpt><trkpt lat="45.11034754255305" lon="10.072201001881526"><ele>41.0</ele><time>2026-04-26T04:57:26.998Z</time></trkpt><trkpt lat="45.11037811421038" lon="10.072118487682593"><ele>41.0</ele><time>2026-04-26T04:57:27.998Z</time></trkpt><trkpt lat="45.1104061121606" lon="10.072034485554056"><ele>41.0</ele><time>2026-04-26T04:57:28.998Z</time></trkpt><trkpt lat="45.110437977575195" lon="10.071948085045742"><ele>40.99999999999999</ele><time>2026-04-26T04:57:29.998Z</time></trkpt><trkpt lat="45.11046768314845" lon="10.071863058457776"><ele>41.0</ele><time>2026-04-26T04:57:30.998Z</time></trkpt><trkpt lat="45.11049652720553" lon="10.071776455786893"><ele>40.99999999999999</ele><time>2026-04-26T04:57:31.998Z</time></trkpt><trkpt lat="45.11052503882117" lon="10.07168878814665"><ele>41.0</ele><time>2026-04-26T04:57:32.998Z</time></trkpt><trkpt lat="45.110555310702495" lon="10.071602697141206"><ele>41.0</ele><time>2026-04-26T04:57:33.998Z</time></trkpt><trkpt lat="45.110587232688275" lon="10.071516194477114"><ele>41.0</ele><time>2026-04-26T04:57:34.998Z</time></trkpt><trkpt lat="45.11061241079272" lon="10.07142967135255"><ele>41.0</ele><time>2026-04-26T04:57:35.998Z</time></trkpt><trkpt lat="45.11064455103869" lon="10.071344814886071"><ele>40.99999999999999</ele><time>2026-04-26T04:57:37Z</time></trkpt><trkpt lat="45.11067799233957" lon="10.071266187115793"><ele>41.0</ele><time>2026-04-26T04:57:38Z</time></trkpt><trkpt lat="45.11074487275645" lon="10.07111683073759"><ele>41.0</ele><time>2026-04-26T04:57:40Z</time></trkpt><trkpt lat="45.110797519486034" lon="10.071008506739746"><ele>41.0</ele><time>2026-04-26T04:57:42Z</time></trkpt><trkpt lat="45.11068386580068" lon="10.070889694735431"><ele>41.0</ele><time>2026-04-26T04:57:43Z</time></trkpt><trkpt lat="45.110603971194664" lon="10.070854878252977"><ele>41.0</ele><time>2026-04-26T04:57:44Z</time></trkpt><trkpt lat="45.11055316598622" lon="10.070796549081711"><ele>41.0</ele><time>2026-04-26T04:57:45Z</time></trkpt><trkpt lat="45.110490429116545" lon="10.070770748253922"><ele>41.0</ele><time>2026-04-26T04:57:46Z</time></trkpt><trkpt lat="45.11042734367396" lon="10.070724505050745"><ele>40.33333333333333</ele><time>2026-04-26T04:57:47Z</time></trkpt><trkpt lat="45.11036169957988" lon="10.070680476341819"><ele>39.666666666666664</ele><time>2026-04-26T04:57:48Z</time></trkpt><trkpt lat="45.11029640944914" lon="10.070630176513378"><ele>39.0</ele><time>2026-04-26T04:57:49Z</time></trkpt><trkpt lat="45.11022735222352" lon="10.070580711715145"><ele>38.333333333333336</ele><time>2026-04-26T04:57:50Z</time></trkpt><trkpt lat="45.11016856909046" lon="10.070507930136412"><ele>37.66666666666667</ele><time>2026-04-26T04:57:51Z</time></trkpt><trkpt lat="45.11011348926482" lon="10.070433798383851"><ele>37.0</ele><time>2026-04-26T04:57:52Z</time></trkpt><trkpt lat="45.110064703442085" lon="10.07035379606376"><ele>37.0</ele><time>2026-04-26T04:57:53Z</time></trkpt><trkpt lat="45.11002711749126" lon="10.070253408900378"><ele>37.0</ele><time>2026-04-26T04:57:54Z</time></trkpt><trkpt lat="45.10999045055384" lon="10.070150986793202"><ele>37.0</ele><time>2026-04-26T04:57:55Z</time></trkpt><trkpt lat="45.10996173038186" lon="10.070051669709487"><ele>37.0</ele><time>2026-04-26T04:57:56Z</time></trkpt><trkpt lat="45.109927827808555" lon="10.069955397847355"><ele>37.0</ele><time>2026-04-26T04:57:57Z</time></trkpt><trkpt lat="45.10989570565868" lon="10.069862135009789"><ele>37.0</ele><time>2026-04-26T04:57:58Z</time></trkpt><trkpt lat="45.10986294484121" lon="10.069766413388223"><ele>36.42857142857143</ele><time>2026-04-26T04:57:59Z</time></trkpt><trkpt lat="45.1098315608254" lon="10.069674417623958"><ele>35.857142857142854</ele><time>2026-04-26T04:58:00Z</time></trkpt><trkpt lat="45.1098009678955" lon="10.069581831137931"><ele>35.285714285714285</ele><time>2026-04-26T04:58:01Z</time></trkpt><trkpt lat="45.109767815391514" lon="10.069492150042992"><ele>34.714285714285715</ele><time>2026-04-26T04:58:02Z</time></trkpt><trkpt lat="45.109730260490764" lon="10.069408372567407"><ele>34.142857142857146</ele><time>2026-04-26T04:58:03Z</time></trkpt><trkpt lat="45.10969494850108" lon="10.069321204974523"><ele>33.57142857142857</ele><time>2026-04-26T04:58:04Z</time></trkpt><trkpt lat="45.10966058458569" lon="10.069231135946195"><ele>33.0</ele><time>2026-04-26T04:58:05Z</time></trkpt><trkpt lat="45.109625840907185" lon="10.069147466804726"><ele>33.0</ele><time>2026-04-26T04:58:06Z</time></trkpt><trkpt lat="45.109587201486804" lon="10.069066292551595"><ele>33.0</ele><time>2026-04-26T04:58:07Z</time></trkpt><trkpt lat="45.1095465269852" lon="10.068986961812634"><ele>33.0</ele><time>2026-04-26T04:58:08Z</time></trkpt><trkpt lat="45.109501292695654" lon="10.068910960091333"><ele>33.0</ele><time>2026-04-26T04:58:09Z</time></trkpt><trkpt lat="45.10945489563989" lon="10.06883638256154"><ele>33.0</ele><time>2026-04-26T04:58:10Z</time></trkpt><trkpt lat="45.10941065942355" lon="10.068758094588567"><ele>33.0</ele><time>2026-04-26T04:58:11Z</time></trkpt><trkpt lat="45.109366330814936" lon="10.068680940003912"><ele>33.0</ele><time>2026-04-26T04:58:12Z</time></trkpt><trkpt lat="45.10932097579919" lon="10.068605054672211"><ele>33.0</ele><time>2026-04-26T04:58:13Z</time></trkpt><trkpt lat="45.10927665194989" lon="10.068530789670454"><ele>33.0</ele><time>2026-04-26T04:58:14Z</time></trkpt><trkpt lat="45.10923164109639" lon="10.06845609363654"><ele>33.0</ele><time>2026-04-26T04:58:15Z</time></trkpt><trkpt lat="45.109185493159636" lon="10.06838461957258"><ele>33.0</ele><time>2026-04-26T04:58:16Z</time></trkpt><trkpt lat="45.1091419490986" lon="10.068311896395027"><ele>33.0</ele><time>2026-04-26T04:58:17Z</time></trkpt><trkpt lat="45.109097482050046" lon="10.068237881628045"><ele>33.0</ele><time>2026-04-26T04:58:18Z</time></trkpt><trkpt lat="45.109053575499864" lon="10.068165916882496"><ele>33.0</ele><time>2026-04-26T04:58:19Z</time></trkpt><trkpt lat="45.10901024124598" lon="10.068091854660455"><ele>33.14285714285714</ele><time>2026-04-26T04:58:20Z</time></trkpt><trkpt lat="45.10896752854883" lon="10.068016712563036"><ele>33.285714285714285</ele><time>2026-04-26T04:58:21Z</time></trkpt><trkpt lat="45.10892374256215" lon="10.067939706459354"><ele>33.42857142857143</ele><time>2026-04-26T04:58:22Z</time></trkpt><trkpt lat="45.10888016682867" lon="10.067867751725982"><ele>33.57142857142857</ele><time>2026-04-26T04:58:22.999Z</time></trkpt><trkpt lat="45.10883581691558" lon="10.067794597756597"><ele>33.714285714285715</ele><time>2026-04-26T04:58:23.999Z</time></trkpt><trkpt lat="45.108791920990576" lon="10.067722357187735"><ele>33.857142857142854</ele><time>2026-04-26T04:58:24.999Z</time></trkpt><trkpt lat="45.10874805135327" lon="10.067649603714337"><ele>34.0</ele><time>2026-04-26T04:58:25.999Z</time></trkpt><trkpt lat="45.108705040247585" lon="10.067576570651063"><ele>33.99999999999999</ele><time>2026-04-26T04:58:26.999Z</time></trkpt><trkpt lat="45.10866039179929" lon="10.067502702417052"><ele>34.0</ele><time>2026-04-26T04:58:27.999Z</time></trkpt><trkpt lat="45.108615654906444" lon="10.06742724994537"><ele>34.0</ele><time>2026-04-26T04:58:28.999Z</time></trkpt><trkpt lat="45.10857085873054" lon="10.06735206882761"><ele>34.0</ele><time>2026-04-26T04:58:29.999Z</time></trkpt><trkpt lat="45.10852662826462" lon="10.067277221167503"><ele>34.0</ele><time>2026-04-26T04:58:30.999Z</time></trkpt><trkpt lat="45.10848289883542" lon="10.067201951043783"><ele>33.99999999999999</ele><time>2026-04-26T04:58:31.999Z</time></trkpt><trkpt lat="45.10843965166542" lon="10.067127580764026"><ele>34.0</ele><time>2026-04-26T04:58:32.999Z</time></trkpt><trkpt lat="45.108395800330605" lon="10.067053146909357"><ele>33.857142857142854</ele><time>2026-04-26T04:58:33.999Z</time></trkpt><trkpt lat="45.10835256060021" lon="10.066979852082142"><ele>33.714285714285715</ele><time>2026-04-26T04:58:34.999Z</time></trkpt><trkpt lat="45.10830559886412" lon="10.066907055785721"><ele>33.57142857142857</ele><time>2026-04-26T04:58:35.999Z</time></trkpt><trkpt lat="45.10825918792987" lon="10.066834676570062"><ele>33.42857142857143</ele><time>2026-04-26T04:58:36.999Z</time></trkpt><trkpt lat="45.10821303913874" lon="10.066761505721953"><ele>33.285714285714285</ele><time>2026-04-26T04:58:37.999Z</time></trkpt><trkpt lat="45.108167029046776" lon="10.066687051709447"><ele>33.14285714285714</ele><time>2026-04-26T04:58:38.999Z</time></trkpt><trkpt lat="45.10812546188304" lon="10.066610968585776"><ele>33.0</ele><time>2026-04-26T04:58:39.999Z</time></trkpt><trkpt lat="45.108082653063654" lon="10.066535771804405"><ele>33.0</ele><time>2026-04-26T04:58:40.999Z</time></trkpt><trkpt lat="45.108039140083775" lon="10.066460934472577"><ele>33.0</ele><time>2026-04-26T04:58:41.999Z</time></trkpt><trkpt lat="45.10799398313739" lon="10.066390562586093"><ele>33.0</ele><time>2026-04-26T04:58:42.999Z</time></trkpt><trkpt lat="45.107949825299976" lon="10.066317437777363"><ele>33.0</ele><time>2026-04-26T04:58:43.999Z</time></trkpt><trkpt lat="45.10790629030505" lon="10.066246404999404"><ele>33.0</ele><time>2026-04-26T04:58:44.999Z</time></trkpt><trkpt lat="45.10786471556055" lon="10.066175716243949"><ele>33.0</ele><time>2026-04-26T04:58:45.999Z</time></trkpt><trkpt lat="45.10782154908179" lon="10.066105403335293"><ele>33.0</ele><time>2026-04-26T04:58:46.999Z</time></trkpt><trkpt lat="45.10777764610619" lon="10.066034833194754"><ele>33.0</ele><time>2026-04-26T04:58:47.999Z</time></trkpt><trkpt lat="45.10773400097225" lon="10.065963298135006"><ele>33.0</ele><time>2026-04-26T04:58:48.999Z</time></trkpt><trkpt lat="45.10768894837098" lon="10.065891330914543"><ele>33.0</ele><time>2026-04-26T04:58:49.999Z</time></trkpt><trkpt lat="45.107644536691" lon="10.065817887607654"><ele>33.0</ele><time>2026-04-26T04:58:50.999Z</time></trkpt><trkpt lat="45.10759841408395" lon="10.065745684971734"><ele>33.0</ele><time>2026-04-26T04:58:51.999Z</time></trkpt><trkpt lat="45.107553371779616" lon="10.06567278856559"><ele>33.0</ele><time>2026-04-26T04:58:52.999Z</time></trkpt><trkpt lat="45.10750624862623" lon="10.06559909137478"><ele>33.0</ele><time>2026-04-26T04:58:53.999Z</time></trkpt><trkpt lat="45.107460509507455" lon="10.065524980447757"><ele>33.0</ele><time>2026-04-26T04:58:54.999Z</time></trkpt><trkpt lat="45.10741545867527" lon="10.065449450776248"><ele>33.0</ele><time>2026-04-26T04:58:55.999Z</time></trkpt><trkpt lat="45.10736838023901" lon="10.065376720651969"><ele>33.0</ele><time>2026-04-26T04:58:56.999Z</time></trkpt><trkpt lat="45.10732134331186" lon="10.065304284962787"><ele>33.0</ele><time>2026-04-26T04:58:57.999Z</time></trkpt><trkpt lat="45.107274914720634" lon="10.065232976772847"><ele>33.0</ele><time>2026-04-26T04:58:58.999Z</time></trkpt><trkpt lat="45.10723032259828" lon="10.065156487149226"><ele>33.0</ele><time>2026-04-26T04:58:59.999Z</time></trkpt><trkpt lat="45.10718572835963" lon="10.065083571771881"><ele>33.0</ele><time>2026-04-26T04:59:00.999Z</time></trkpt><trkpt lat="45.10714068644277" lon="10.065010775448275"><ele>33.0</ele><time>2026-04-26T04:59:01.999Z</time></trkpt><trkpt lat="45.107094565919674" lon="10.06493794609615"><ele>33.0</ele><time>2026-04-26T04:59:02.999Z</time></trkpt><trkpt lat="45.107046695997106" lon="10.064866775678981"><ele>33.0</ele><time>2026-04-26T04:59:03.999Z</time></trkpt><trkpt lat="45.10699883120626" lon="10.064793505686348"><ele>33.0</ele><time>2026-04-26T04:59:04.999Z</time></trkpt><trkpt lat="45.106953867331406" lon="10.064720123246147"><ele>33.0</ele><time>2026-04-26T04:59:05.999Z</time></trkpt><trkpt lat="45.10690882601749" lon="10.064645064265788"><ele>33.0</ele><time>2026-04-26T04:59:06.999Z</time></trkpt><trkpt lat="45.106863779951674" lon="10.064570642276774"><ele>33.0</ele><time>2026-04-26T04:59:07.999Z</time></trkpt><trkpt lat="45.10681856156699" lon="10.064494869935327"><ele>33.0</ele><time>2026-04-26T04:59:08.999Z</time></trkpt><trkpt lat="45.106773717615866" lon="10.06442043465731"><ele>33.0</ele><time>2026-04-26T04:59:09.999Z</time></trkpt><trkpt lat="45.10672959154489" lon="10.064344092534915"><ele>33.0</ele><time>2026-04-26T04:59:10.999Z</time></trkpt><trkpt lat="45.106685449641105" lon="10.064271361629135"><ele>33.0</ele><time>2026-04-26T04:59:11.999Z</time></trkpt><trkpt lat="45.106640702034525" lon="10.064198761537822"><ele>33.0</ele><time>2026-04-26T04:59:12.999Z</time></trkpt><trkpt lat="45.106595341918585" lon="10.064129819951484"><ele>33.0</ele><time>2026-04-26T04:59:13.999Z</time></trkpt><trkpt lat="45.10655001083633" lon="10.06406049597628"><ele>33.0</ele><time>2026-04-26T04:59:14.999Z</time></trkpt><trkpt lat="45.106506175313456" lon="10.063991897523382"><ele>33.333333333333336</ele><time>2026-04-26T04:59:15.999Z</time></trkpt><trkpt lat="45.106462336328995" lon="10.063923211973547"><ele>33.666666666666664</ele><time>2026-04-26T04:59:16.998Z</time></trkpt><trkpt lat="45.106419339952936" lon="10.063853002146585"><ele>34.0</ele><time>2026-04-26T04:59:17.998Z</time></trkpt><trkpt lat="45.10637712371712" lon="10.063783294571818"><ele>34.33333333333333</ele><time>2026-04-26T04:59:18.998Z</time></trkpt><trkpt lat="45.1062926940172" lon="10.063653598600133"><ele>34.666666666666664</ele><time>2026-04-26T04:59:20.998Z</time></trkpt><trkpt lat="45.10621311793782" lon="10.063525510753948"><ele>35.0</ele><time>2026-04-26T04:59:22.998Z</time></trkpt><trkpt lat="45.106135478635395" lon="10.063397035743996"><ele>34.75</ele><time>2026-04-26T04:59:24.998Z</time></trkpt><trkpt lat="45.10605970132215" lon="10.063264514917837"><ele>34.5</ele><time>2026-04-26T04:59:26.998Z</time></trkpt><trkpt lat="45.10598313078829" lon="10.063139907036946"><ele>34.25</ele><time>2026-04-26T04:59:28.998Z</time></trkpt><trkpt lat="45.105903117350145" lon="10.06301957831344"><ele>34.0</ele><time>2026-04-26T04:59:30.998Z</time></trkpt><trkpt lat="45.10581424425864" lon="10.06289547774607"><ele>33.99999999999999</ele><time>2026-04-26T04:59:32.998Z</time></trkpt><trkpt lat="45.105768552179875" lon="10.062825929424402"><ele>34.0</ele><time>2026-04-26T04:59:33.998Z</time></trkpt><trkpt lat="45.10572290520104" lon="10.06275482815632"><ele>34.0</ele><time>2026-04-26T04:59:34.998Z</time></trkpt><trkpt lat="45.1056746825703" lon="10.062681142903314"><ele>34.0</ele><time>2026-04-26T04:59:35.998Z</time></trkpt><trkpt lat="45.105627271723584" lon="10.06260689774641"><ele>34.0</ele><time>2026-04-26T04:59:36.998Z</time></trkpt><trkpt lat="45.10557771314984" lon="10.062529050506763"><ele>33.99999999999999</ele><time>2026-04-26T04:59:37.998Z</time></trkpt><trkpt lat="45.10552713805366" lon="10.062453091329141"><ele>34.0</ele><time>2026-04-26T04:59:38.998Z</time></trkpt><trkpt lat="45.105474713773475" lon="10.062374496457757"><ele>33.66666666666667</ele><time>2026-04-26T04:59:39.998Z</time></trkpt><trkpt lat="45.105418002457306" lon="10.062299563955316"><ele>33.333333333333336</ele><time>2026-04-26T04:59:40.998Z</time></trkpt><trkpt lat="45.1053563831202" lon="10.062232255310192"><ele>33.0</ele><time>2026-04-26T04:59:41.998Z</time></trkpt><trkpt lat="45.10528870948573" lon="10.062174441808807"><ele>32.666666666666664</ele><time>2026-04-26T04:59:43Z</time></trkpt><trkpt lat="45.105220389351786" lon="10.062122171828648"><ele>32.33333333333333</ele><time>2026-04-26T04:59:44Z</time></trkpt><trkpt lat="45.10515215139606" lon="10.062071984886488"><ele>32.0</ele><time>2026-04-26T04:59:45Z</time></trkpt><trkpt lat="45.10508418554564" lon="10.062030302577977"><ele>32.0</ele><time>2026-04-26T04:59:46Z</time></trkpt><trkpt lat="45.10501507500057" lon="10.061997681522175"><ele>31.999999999999996</ele><time>2026-04-26T04:59:47Z</time></trkpt><trkpt lat="45.10494930286853" lon="10.06197370831107"><ele>32.0</ele><time>2026-04-26T04:59:48Z</time></trkpt><trkpt lat="45.10488207179514" lon="10.061961887220644"><ele>32.0</ele><time>2026-04-26T04:59:49Z</time></trkpt><trkpt lat="45.10481588391227" lon="10.061962491799331"><ele>31.999999999999996</ele><time>2026-04-26T04:59:50Z</time></trkpt><trkpt lat="45.10475113384114" lon="10.061972765027628"><ele>32.0</ele><time>2026-04-26T04:59:51Z</time></trkpt><trkpt lat="45.104686880729616" lon="10.06199412019604"><ele>32.0</ele><time>2026-04-26T04:59:52Z</time></trkpt><trkpt lat="45.10462497370253" lon="10.062021856875662"><ele>32.0</ele><time>2026-04-26T04:59:53Z</time></trkpt><trkpt lat="45.10456287991896" lon="10.062055355095646"><ele>31.999999999999996</ele><time>2026-04-26T04:59:54Z</time></trkpt><trkpt lat="45.10450406675222" lon="10.062089966193737"><ele>32.0</ele><time>2026-04-26T04:59:55Z</time></trkpt><trkpt lat="45.10443755453924" lon="10.062102701428786"><ele>32.0</ele><time>2026-04-26T04:59:56Z</time></trkpt><trkpt lat="45.104377094520466" lon="10.06213672421434"><ele>31.999999999999996</ele><time>2026-04-26T04:59:57Z</time></trkpt><trkpt lat="45.1043170715022" lon="10.062171497017427"><ele>32.0</ele><time>2026-04-26T04:59:58Z</time></trkpt><trkpt lat="45.104256949417575" lon="10.062206327212884"><ele>32.0</ele><time>2026-04-26T04:59:59Z</time></trkpt><trkpt lat="45.10419652949307" lon="10.06224133161265"><ele>32.0</ele><time>2026-04-26T05:00:00Z</time></trkpt><trkpt lat="45.10413430316699" lon="10.062277380977104"><ele>31.999999999999996</ele><time>2026-04-26T05:00:01Z</time></trkpt><trkpt lat="45.10407421992264" lon="10.0623121886292"><ele>32.0</ele><time>2026-04-26T05:00:02Z</time></trkpt><trkpt lat="45.104011963483345" lon="10.06234825542281"><ele>32.0</ele><time>2026-04-26T05:00:03Z</time></trkpt><trkpt lat="45.10395636886354" lon="10.062404049813173"><ele>31.999999999999996</ele><time>2026-04-26T05:00:04Z</time></trkpt><trkpt lat="45.10389252717027" lon="10.062438158616873"><ele>32.0</ele><time>2026-04-26T05:00:05Z</time></trkpt><trkpt lat="45.103830226700005" lon="10.06247471609525"><ele>32.0</ele><time>2026-04-26T05:00:06Z</time></trkpt><trkpt lat="45.1037686522431" lon="10.062513237304412"><ele>32.285714285714285</ele><time>2026-04-26T05:00:07Z</time></trkpt><trkpt lat="45.10370175690727" lon="10.06252595390738"><ele>32.57142857142857</ele><time>2026-04-26T05:00:08Z</time></trkpt><trkpt lat="45.10364011094705" lon="10.062561013409512"><ele>32.857142857142854</ele><time>2026-04-26T05:00:09Z</time></trkpt><trkpt lat="45.103578897039235" lon="10.06259597204917"><ele>33.14285714285714</ele><time>2026-04-26T05:00:10Z</time></trkpt><trkpt lat="45.10352302722804" lon="10.062651663696322"><ele>33.42857142857143</ele><time>2026-04-26T05:00:11Z</time></trkpt><trkpt lat="45.10346152622785" lon="10.062685120648148"><ele>33.71428571428571</ele><time>2026-04-26T05:00:12Z</time></trkpt><trkpt lat="45.103400229970866" lon="10.062714574994635"><ele>34.0</ele><time>2026-04-26T05:00:13Z</time></trkpt><trkpt lat="45.10328281363497" lon="10.06271020248835"><ele>34.14285714285714</ele><time>2026-04-26T05:00:15Z</time></trkpt><trkpt lat="45.103242987642474" lon="10.062637390073538"><ele>34.285714285714285</ele><time>2026-04-26T05:00:16Z</time></trkpt><trkpt lat="45.1032343519907" lon="10.06253881847858"><ele>34.42857142857143</ele><time>2026-04-26T05:00:17Z</time></trkpt><trkpt lat="45.10326632759234" lon="10.062445157794677"><ele>34.57142857142857</ele><time>2026-04-26T05:00:18Z</time></trkpt><trkpt lat="45.103259718621246" lon="10.06235190693426"><ele>34.714285714285715</ele><time>2026-04-26T05:00:19Z</time></trkpt><trkpt lat="45.10326330037974" lon="10.062260729280377"><ele>34.857142857142854</ele><time>2026-04-26T05:00:20Z</time></trkpt><trkpt lat="45.1032825196191" lon="10.062166924317424"><ele>35.0</ele><time>2026-04-26T05:00:21Z</time></trkpt><trkpt lat="45.10327221470642" lon="10.062072779393375"><ele>35.0</ele><time>2026-04-26T05:00:22Z</time></trkpt><trkpt lat="45.10327973606447" lon="10.061978297090127"><ele>35.0</ele><time>2026-04-26T05:00:23Z</time></trkpt><trkpt lat="45.103283078541175" lon="10.061885625473234"><ele>35.0</ele><time>2026-04-26T05:00:24Z</time></trkpt><trkpt lat="45.103281954322135" lon="10.061788193795705"><ele>35.0</ele><time>2026-04-26T05:00:24.999Z</time></trkpt><trkpt lat="45.10328148998494" lon="10.061694185509067"><ele>35.0</ele><time>2026-04-26T05:00:25.999Z</time></trkpt><trkpt lat="45.10328467140191" lon="10.061597992630746"><ele>35.0</ele><time>2026-04-26T05:00:26.999Z</time></trkpt><trkpt lat="45.10328482944723" lon="10.061502471040415"><ele>35.0</ele><time>2026-04-26T05:00:27.999Z</time></trkpt><trkpt lat="45.10328709021386" lon="10.061404886272559"><ele>35.142857142857146</ele><time>2026-04-26T05:00:28.999Z</time></trkpt><trkpt lat="45.10328897946921" lon="10.061308520175697"><ele>35.285714285714285</ele><time>2026-04-26T05:00:29.999Z</time></trkpt><trkpt lat="45.10329080342239" lon="10.061212447817386"><ele>35.42857142857143</ele><time>2026-04-26T05:00:30.999Z</time></trkpt><trkpt lat="45.10329141669885" lon="10.061116864423404"><ele>35.57142857142857</ele><time>2026-04-26T05:00:31.999Z</time></trkpt><trkpt lat="45.1032925338718" lon="10.061020396200401"><ele>35.714285714285715</ele><time>2026-04-26T05:00:32.999Z</time></trkpt><trkpt lat="45.10329370892693" lon="10.060923120224071"><ele>35.85714285714286</ele><time>2026-04-26T05:00:33.999Z</time></trkpt><trkpt lat="45.10329543730255" lon="10.060824851185995"><ele>36.0</ele><time>2026-04-26T05:00:34.999Z</time></trkpt><trkpt lat="45.10329707019988" lon="10.060726904011918"><ele>35.714285714285715</ele><time>2026-04-26T05:00:35.999Z</time></trkpt><trkpt lat="45.103300995361245" lon="10.060627770215206"><ele>35.42857142857143</ele><time>2026-04-26T05:00:36.999Z</time></trkpt><trkpt lat="45.10330209297116" lon="10.060529556430565"><ele>35.14285714285714</ele><time>2026-04-26T05:00:37.999Z</time></trkpt><trkpt lat="45.103304616953984" lon="10.060430425650964"><ele>34.85714285714286</ele><time>2026-04-26T05:00:38.999Z</time></trkpt><trkpt lat="45.10330718065624" lon="10.060332257664463"><ele>34.57142857142857</ele><time>2026-04-26T05:00:39.999Z</time></trkpt><trkpt lat="45.10330926944121" lon="10.06023425421186"><ele>34.285714285714285</ele><time>2026-04-26T05:00:40.999Z</time></trkpt><trkpt lat="45.10331049517245" lon="10.06013479678424"><ele>34.0</ele><time>2026-04-26T05:00:41.999Z</time></trkpt><trkpt lat="45.103312384825024" lon="10.060035024441913"><ele>34.14285714285714</ele><time>2026-04-26T05:00:42.999Z</time></trkpt><trkpt lat="45.103314469188405" lon="10.05993634087571"><ele>34.285714285714285</ele><time>2026-04-26T05:00:43.999Z</time></trkpt><trkpt lat="45.103317216294606" lon="10.05983725561789"><ele>34.42857142857143</ele><time>2026-04-26T05:00:44.999Z</time></trkpt><trkpt lat="45.10331789798918" lon="10.059735860123581"><ele>34.57142857142857</ele><time>2026-04-26T05:00:45.999Z</time></trkpt><trkpt lat="45.10331711775615" lon="10.05963732232408"><ele>34.714285714285715</ele><time>2026-04-26T05:00:46.999Z</time></trkpt><trkpt lat="45.103316566303334" lon="10.059538395686207"><ele>34.857142857142854</ele><time>2026-04-26T05:00:47.999Z</time></trkpt><trkpt lat="45.10331228248357" lon="10.059441232764785"><ele>35.0</ele><time>2026-04-26T05:00:48.999Z</time></trkpt><trkpt lat="45.1032965590273" lon="10.059348237755515"><ele>35.0</ele><time>2026-04-26T05:00:49.999Z</time></trkpt><trkpt lat="45.10326545591968" lon="10.059259644005616"><ele>35.0</ele><time>2026-04-26T05:00:50.999Z</time></trkpt><trkpt lat="45.10321394321132" lon="10.05919226372283"><ele>35.0</ele><time>2026-04-26T05:00:51.999Z</time></trkpt><trkpt lat="45.10315126325869" lon="10.059142220219153"><ele>35.0</ele><time>2026-04-26T05:00:52.999Z</time></trkpt><trkpt lat="45.103083008049595" lon="10.059119672830683"><ele>35.0</ele><time>2026-04-26T05:00:53.999Z</time></trkpt><trkpt lat="45.103011207193326" lon="10.05910990657629"><ele>35.0</ele><time>2026-04-26T05:00:54.999Z</time></trkpt><trkpt lat="45.102944285271484" lon="10.059101477975117"><ele>35.0</ele><time>2026-04-26T05:00:55.999Z</time></trkpt><trkpt lat="45.102879089653946" lon="10.059077163436896"><ele>35.285714285714285</ele><time>2026-04-26T05:00:56.999Z</time></trkpt><trkpt lat="45.10282130163003" lon="10.059022459643186"><ele>35.57142857142857</ele><time>2026-04-26T05:00:57.999Z</time></trkpt><trkpt lat="45.102783525211834" lon="10.058935686212157"><ele>35.85714285714286</ele><time>2026-04-26T05:00:58.999Z</time></trkpt><trkpt lat="45.1027680879513" lon="10.058831173189711"><ele>36.14285714285714</ele><time>2026-04-26T05:00:59.999Z</time></trkpt><trkpt lat="45.10275946835594" lon="10.058728201912594"><ele>36.42857142857143</ele><time>2026-04-26T05:01:00.999Z</time></trkpt><trkpt lat="45.10274637957538" lon="10.058629213348338"><ele>36.714285714285715</ele><time>2026-04-26T05:01:01.999Z</time></trkpt><trkpt lat="45.10273029145258" lon="10.058529490450102"><ele>37.0</ele><time>2026-04-26T05:01:02.999Z</time></trkpt><trkpt lat="45.10271237281071" lon="10.058431345732245"><ele>37.0</ele><time>2026-04-26T05:01:03.999Z</time></trkpt><trkpt lat="45.102694255127105" lon="10.058334078793473"><ele>37.0</ele><time>2026-04-26T05:01:04.999Z</time></trkpt><trkpt lat="45.10267523311221" lon="10.058237915230324"><ele>37.0</ele><time>2026-04-26T05:01:05.999Z</time></trkpt><trkpt lat="45.10265372043474" lon="10.058145422419868"><ele>37.0</ele><time>2026-04-26T05:01:06.999Z</time></trkpt><trkpt lat="45.1026300854661" lon="10.05805274537855"><ele>37.0</ele><time>2026-04-26T05:01:07.999Z</time></trkpt><trkpt lat="45.10261041581815" lon="10.057959846644856"><ele>37.0</ele><time>2026-04-26T05:01:08.999Z</time></trkpt><trkpt lat="45.10258997470664" lon="10.057870007445617"><ele>37.0</ele><time>2026-04-26T05:01:09.999Z</time></trkpt><trkpt lat="45.10256877562449" lon="10.057774379705519"><ele>37.142857142857146</ele><time>2026-04-26T05:01:10.999Z</time></trkpt><trkpt lat="45.102542891057034" lon="10.057683127098654"><ele>37.285714285714285</ele><time>2026-04-26T05:01:11.999Z</time></trkpt><trkpt lat="45.10251045098364" lon="10.057592655528362"><ele>37.42857142857143</ele><time>2026-04-26T05:01:12.999Z</time></trkpt><trkpt lat="45.10248036759539" lon="10.057505649299618"><ele>37.57142857142857</ele><time>2026-04-26T05:01:13.999Z</time></trkpt><trkpt lat="45.102446630981554" lon="10.057415513762374"><ele>37.714285714285715</ele><time>2026-04-26T05:01:14.999Z</time></trkpt><trkpt lat="45.10241697579122" lon="10.057326106735413"><ele>37.857142857142854</ele><time>2026-04-26T05:01:15.999Z</time></trkpt><trkpt lat="45.102388123465786" lon="10.057235424563732"><ele>38.0</ele><time>2026-04-26T05:01:16.999Z</time></trkpt><trkpt lat="45.10235927024977" lon="10.057144866191086"><ele>38.0</ele><time>2026-04-26T05:01:17.998Z</time></trkpt><trkpt lat="45.10232805476406" lon="10.057056613404807"><ele>38.0</ele><time>2026-04-26T05:01:18.998Z</time></trkpt><trkpt lat="45.102296752594874" lon="10.056967470833362"><ele>38.0</ele><time>2026-04-26T05:01:19.998Z</time></trkpt><trkpt lat="45.102266555652015" lon="10.05687784802118"><ele>38.0</ele><time>2026-04-26T05:01:20.998Z</time></trkpt><trkpt lat="45.10223383699996" lon="10.056787554900763"><ele>38.0</ele><time>2026-04-26T05:01:21.998Z</time></trkpt><trkpt lat="45.10220328511927" lon="10.056696232382423"><ele>38.0</ele><time>2026-04-26T05:01:22.998Z</time></trkpt><trkpt lat="45.10217104791211" lon="10.05660589168198"><ele>38.0</ele><time>2026-04-26T05:01:23.998Z</time></trkpt><trkpt lat="45.10214017115289" lon="10.056513967531803"><ele>37.714285714285715</ele><time>2026-04-26T05:01:24.998Z</time></trkpt><trkpt lat="45.10210864830553" lon="10.05642553610213"><ele>37.42857142857143</ele><time>2026-04-26T05:01:25.998Z</time></trkpt><trkpt lat="45.10207802739157" lon="10.05633434330515"><ele>37.142857142857146</ele><time>2026-04-26T05:01:26.998Z</time></trkpt><trkpt lat="45.102045693405934" lon="10.05624602428579"><ele>36.85714285714286</ele><time>2026-04-26T05:01:27.998Z</time></trkpt><trkpt lat="45.10201445825378" lon="10.05615788531533"><ele>36.57142857142857</ele><time>2026-04-26T05:01:28.998Z</time></trkpt><trkpt lat="45.10198157138443" lon="10.056066425816692"><ele>36.28571428571429</ele><time>2026-04-26T05:01:29.998Z</time></trkpt><trkpt lat="45.1019498890344" lon="10.055976494922422"><ele>36.0</ele><time>2026-04-26T05:01:30.998Z</time></trkpt><trkpt lat="45.10192181653671" lon="10.055882688564939"><ele>36.00000000000001</ele><time>2026-04-26T05:01:31.998Z</time></trkpt><trkpt lat="45.10189273986859" lon="10.055790175628696"><ele>36.0</ele><time>2026-04-26T05:01:32.998Z</time></trkpt><trkpt lat="45.101866810994075" lon="10.05569655755266"><ele>36.0</ele><time>2026-04-26T05:01:33.998Z</time></trkpt><trkpt lat="45.101833367276534" lon="10.055606850460832"><ele>36.0</ele><time>2026-04-26T05:01:34.998Z</time></trkpt><trkpt lat="45.10180439649107" lon="10.055514580495121"><ele>36.0</ele><time>2026-04-26T05:01:35.998Z</time></trkpt><trkpt lat="45.10177596733795" lon="10.055421092321307"><ele>36.00000000000001</ele><time>2026-04-26T05:01:36.998Z</time></trkpt><trkpt lat="45.10174487661015" lon="10.055330019856422"><ele>36.0</ele><time>2026-04-26T05:01:37.998Z</time></trkpt><trkpt lat="45.101715407142066" lon="10.055241148406553"><ele>35.85714285714286</ele><time>2026-04-26T05:01:38.998Z</time></trkpt><trkpt lat="45.10168553804321" lon="10.055147423809894"><ele>35.714285714285715</ele><time>2026-04-26T05:01:39.998Z</time></trkpt><trkpt lat="45.1016548840861" lon="10.055056670286818"><ele>35.57142857142857</ele><time>2026-04-26T05:01:40.998Z</time></trkpt><trkpt lat="45.10162453952849" lon="10.054964185930073"><ele>35.42857142857143</ele><time>2026-04-26T05:01:41.998Z</time></trkpt><trkpt lat="45.10159477362634" lon="10.054875661566552"><ele>35.285714285714285</ele><time>2026-04-26T05:01:42.998Z</time></trkpt><trkpt lat="45.101564767707" lon="10.054780782051965"><ele>35.142857142857146</ele><time>2026-04-26T05:01:43.998Z</time></trkpt><trkpt lat="45.10153540757483" lon="10.054688763761163"><ele>35.0</ele><time>2026-04-26T05:01:44.998Z</time></trkpt><trkpt lat="45.10150772962483" lon="10.05459251825068"><ele>35.0</ele><time>2026-04-26T05:01:45.998Z</time></trkpt><trkpt lat="45.101477019410325" lon="10.054497476546768"><ele>35.0</ele><time>2026-04-26T05:01:46.998Z</time></trkpt><trkpt lat="45.10144852313104" lon="10.054403035405576"><ele>35.0</ele><time>2026-04-26T05:01:48Z</time></trkpt><trkpt lat="45.1014196476892" lon="10.054307397487465"><ele>35.0</ele><time>2026-04-26T05:01:49Z</time></trkpt><trkpt lat="45.1013921680211" lon="10.054212475384206"><ele>35.0</ele><time>2026-04-26T05:01:50Z</time></trkpt><trkpt lat="45.101373150745616" lon="10.054114026496704"><ele>35.0</ele><time>2026-04-26T05:01:51Z</time></trkpt><trkpt lat="45.10136908630242" lon="10.054013707466675"><ele>35.0</ele><time>2026-04-26T05:01:52Z</time></trkpt><trkpt lat="45.10137576203117" lon="10.053911655360114"><ele>35.0</ele><time>2026-04-26T05:01:53Z</time></trkpt><trkpt lat="45.10138503331704" lon="10.053809394969555"><ele>35.0</ele><time>2026-04-26T05:01:54Z</time></trkpt><trkpt lat="45.10139177083393" lon="10.053710286334477"><ele>35.0</ele><time>2026-04-26T05:01:55Z</time></trkpt><trkpt lat="45.101396399184715" lon="10.053611295168123"><ele>35.0</ele><time>2026-04-26T05:01:56Z</time></trkpt><trkpt lat="45.101401371865904" lon="10.053510833898414"><ele>35.0</ele><time>2026-04-26T05:01:57Z</time></trkpt><trkpt lat="45.10140468946671" lon="10.053412549292608"><ele>35.0</ele><time>2026-04-26T05:01:58Z</time></trkpt><trkpt lat="45.101409225488915" lon="10.053314618834525"><ele>35.0</ele><time>2026-04-26T05:01:59Z</time></trkpt><trkpt lat="45.10141591713487" lon="10.05321557290375"><ele>35.0</ele><time>2026-04-26T05:02:00Z</time></trkpt><trkpt lat="45.10142397450688" lon="10.05311704172025"><ele>35.0</ele><time>2026-04-26T05:02:01Z</time></trkpt><trkpt lat="45.101433083149914" lon="10.053018575895097"><ele>35.0</ele><time>2026-04-26T05:02:02Z</time></trkpt><trkpt lat="45.10144048523056" lon="10.052920677171054"><ele>35.0</ele><time>2026-04-26T05:02:03Z</time></trkpt><trkpt lat="45.10144980274047" lon="10.052820699905906"><ele>35.0</ele><time>2026-04-26T05:02:04Z</time></trkpt><trkpt lat="45.101458243361215" lon="10.052722759454866"><ele>35.0</ele><time>2026-04-26T05:02:05Z</time></trkpt><trkpt lat="45.10146967334355" lon="10.052624399491435"><ele>35.0</ele><time>2026-04-26T05:02:06Z</time></trkpt><trkpt lat="45.101478436798715" lon="10.052527374618993"><ele>35.142857142857146</ele><time>2026-04-26T05:02:07Z</time></trkpt><trkpt lat="45.101485699091135" lon="10.052429912928847"><ele>35.285714285714285</ele><time>2026-04-26T05:02:08Z</time></trkpt><trkpt lat="45.10149136410962" lon="10.052331387970204"><ele>35.42857142857143</ele><time>2026-04-26T05:02:09Z</time></trkpt><trkpt lat="45.10149816709492" lon="10.052234092163152"><ele>35.57142857142857</ele><time>2026-04-26T05:02:10Z</time></trkpt><trkpt lat="45.10150653226203" lon="10.052137798164877"><ele>35.714285714285715</ele><time>2026-04-26T05:02:11Z</time></trkpt><trkpt lat="45.101515081790616" lon="10.052040494943165"><ele>35.85714285714286</ele><time>2026-04-26T05:02:12Z</time></trkpt><trkpt lat="45.10152370013801" lon="10.051942080244372"><ele>36.0</ele><time>2026-04-26T05:02:13Z</time></trkpt><trkpt lat="45.101532811440144" lon="10.051846317945433"><ele>36.00000000000001</ele><time>2026-04-26T05:02:14Z</time></trkpt><trkpt lat="45.10154149725804" lon="10.051748877937426"><ele>36.0</ele><time>2026-04-26T05:02:15Z</time></trkpt><trkpt lat="45.10154829814182" lon="10.051654418672278"><ele>36.0</ele><time>2026-04-26T05:02:16Z</time></trkpt><trkpt lat="45.10155636168866" lon="10.051556658505195"><ele>36.0</ele><time>2026-04-26T05:02:17Z</time></trkpt><trkpt lat="45.10156265846577" lon="10.051464435147205"><ele>36.0</ele><time>2026-04-26T05:02:18Z</time></trkpt><trkpt lat="45.10156843866705" lon="10.05136869612013"><ele>36.00000000000001</ele><time>2026-04-26T05:02:19Z</time></trkpt><trkpt lat="45.101572619900914" lon="10.051277065632119"><ele>36.0</ele><time>2026-04-26T05:02:20Z</time></trkpt><trkpt lat="45.10158299480311" lon="10.051188368401863"><ele>36.166666666666664</ele><time>2026-04-26T05:02:21Z</time></trkpt><trkpt lat="45.101609350308074" lon="10.051107058031697"><ele>36.333333333333336</ele><time>2026-04-26T05:02:22Z</time></trkpt><trkpt lat="45.10171087399579" lon="10.051010660302923"><ele>36.5</ele><time>2026-04-26T05:02:24Z</time></trkpt><trkpt lat="45.101778330649104" lon="10.051022226461695"><ele>36.66666666666667</ele><time>2026-04-26T05:02:25Z</time></trkpt><trkpt lat="45.101842425024564" lon="10.051047670947582"><ele>36.833333333333336</ele><time>2026-04-26T05:02:26Z</time></trkpt><trkpt lat="45.10190828298757" lon="10.051065399342262"><ele>37.0</ele><time>2026-04-26T05:02:26.999Z</time></trkpt><trkpt lat="45.10197427992848" lon="10.051071834451356"><ele>37.0</ele><time>2026-04-26T05:02:27.999Z</time></trkpt><trkpt lat="45.10204254783343" lon="10.051080637119256"><ele>37.0</ele><time>2026-04-26T05:02:28.999Z</time></trkpt><trkpt lat="45.10211072187662" lon="10.051086348380434"><ele>37.0</ele><time>2026-04-26T05:02:29.999Z</time></trkpt><trkpt lat="45.10218155732589" lon="10.051093367352113"><ele>37.0</ele><time>2026-04-26T05:02:30.999Z</time></trkpt><trkpt lat="45.10225056395552" lon="10.051099043951538"><ele>37.0</ele><time>2026-04-26T05:02:31.999Z</time></trkpt><trkpt lat="45.10232125260093" lon="10.051105187607332"><ele>37.0</ele><time>2026-04-26T05:02:32.999Z</time></trkpt><trkpt lat="45.10239016993185" lon="10.051111806222409"><ele>37.0</ele><time>2026-04-26T05:02:33.999Z</time></trkpt><trkpt lat="45.1024599614143" lon="10.051117212202445"><ele>36.714285714285715</ele><time>2026-04-26T05:02:34.999Z</time></trkpt><trkpt lat="45.10253071897311" lon="10.051126378427094"><ele>36.42857142857143</ele><time>2026-04-26T05:02:35.999Z</time></trkpt><trkpt lat="45.10259983113903" lon="10.051135851131725"><ele>36.14285714285714</ele><time>2026-04-26T05:02:36.999Z</time></trkpt><trkpt lat="45.10266866156421" lon="10.051144049022943"><ele>35.85714285714286</ele><time>2026-04-26T05:02:37.999Z</time></trkpt><trkpt lat="45.10273820906016" lon="10.051152754463965"><ele>35.57142857142857</ele><time>2026-04-26T05:02:38.999Z</time></trkpt><trkpt lat="45.102807270362995" lon="10.05115945732719"><ele>35.285714285714285</ele><time>2026-04-26T05:02:39.999Z</time></trkpt><trkpt lat="45.10287682253078" lon="10.05116652696915"><ele>35.0</ele><time>2026-04-26T05:02:40.999Z</time></trkpt><trkpt lat="45.10294444428093" lon="10.051173419428292"><ele>35.0</ele><time>2026-04-26T05:02:41.999Z</time></trkpt><trkpt lat="45.10301171917409" lon="10.051182078840728"><ele>35.0</ele><time>2026-04-26T05:02:42.999Z</time></trkpt><trkpt lat="45.10307819171524" lon="10.051193051532717"><ele>35.0</ele><time>2026-04-26T05:02:43.999Z</time></trkpt><trkpt lat="45.10314556423168" lon="10.051205336257478"><ele>35.0</ele><time>2026-04-26T05:02:44.999Z</time></trkpt><trkpt lat="45.10321254028261" lon="10.05121588429511"><ele>35.0</ele><time>2026-04-26T05:02:45.999Z</time></trkpt><trkpt lat="45.103280117308316" lon="10.051229262723663"><ele>35.0</ele><time>2026-04-26T05:02:46.999Z</time></trkpt><trkpt lat="45.103346529080355" lon="10.051241525734431"><ele>35.0</ele><time>2026-04-26T05:02:47.999Z</time></trkpt><trkpt lat="45.10341271902089" lon="10.051254729435144"><ele>34.857142857142854</ele><time>2026-04-26T05:02:48.999Z</time></trkpt><trkpt lat="45.103479566803884" lon="10.051266856460726"><ele>34.714285714285715</ele><time>2026-04-26T05:02:49.999Z</time></trkpt><trkpt lat="45.10354416258058" lon="10.051276248086657"><ele>34.57142857142857</ele><time>2026-04-26T05:02:50.999Z</time></trkpt><trkpt lat="45.10360888122047" lon="10.051286427550153"><ele>34.42857142857143</ele><time>2026-04-26T05:02:51.999Z</time></trkpt><trkpt lat="45.10367801356459" lon="10.051300985911539"><ele>34.285714285714285</ele><time>2026-04-26T05:02:52.999Z</time></trkpt><trkpt lat="45.103746393251484" lon="10.051316610674082"><ele>34.14285714285714</ele><time>2026-04-26T05:02:53.999Z</time></trkpt><trkpt lat="45.10381439016725" lon="10.051324973420936"><ele>34.0</ele><time>2026-04-26T05:02:54.999Z</time></trkpt><trkpt lat="45.103881800674486" lon="10.051335565403184"><ele>33.99999999999999</ele><time>2026-04-26T05:02:55.999Z</time></trkpt><trkpt lat="45.103948270526224" lon="10.051348700977817"><ele>34.0</ele><time>2026-04-26T05:02:56.999Z</time></trkpt><trkpt lat="45.10401507056085" lon="10.05136282645514"><ele>34.0</ele><time>2026-04-26T05:02:57.999Z</time></trkpt><trkpt lat="45.10408206096433" lon="10.05137660643168"><ele>34.0</ele><time>2026-04-26T05:02:58.999Z</time></trkpt><trkpt lat="45.10414781425062" lon="10.0513913138305"><ele>34.0</ele><time>2026-04-26T05:02:59.999Z</time></trkpt><trkpt lat="45.10421592796313" lon="10.051404342893894"><ele>33.99999999999999</ele><time>2026-04-26T05:03:00.999Z</time></trkpt><trkpt lat="45.10428252307361" lon="10.051419013630548"><ele>34.0</ele><time>2026-04-26T05:03:01.999Z</time></trkpt><trkpt lat="45.10434978222621" lon="10.051432242555697"><ele>33.833333333333336</ele><time>2026-04-26T05:03:02.999Z</time></trkpt><trkpt lat="45.10441771141746" lon="10.051444884805765"><ele>33.66666666666667</ele><time>2026-04-26T05:03:03.999Z</time></trkpt><trkpt lat="45.10448563527034" lon="10.051458106457783"><ele>33.5</ele><time>2026-04-26T05:03:04.999Z</time></trkpt><trkpt lat="45.10455263911986" lon="10.051472037018154"><ele>33.333333333333336</ele><time>2026-04-26T05:03:05.999Z</time></trkpt><trkpt lat="45.10462027613247" lon="10.051482642060073"><ele>33.166666666666664</ele><time>2026-04-26T05:03:06.999Z</time></trkpt><trkpt lat="45.10474708317076" lon="10.051469592355017"><ele>33.0</ele><time>2026-04-26T05:03:08.999Z</time></trkpt><trkpt lat="45.10481396154849" lon="10.05148221302423"><ele>33.0</ele><time>2026-04-26T05:03:09.999Z</time></trkpt><trkpt lat="45.10487870028614" lon="10.051483121149975"><ele>33.0</ele><time>2026-04-26T05:03:10.999Z</time></trkpt><trkpt lat="45.10494452737242" lon="10.051483605951777"><ele>33.0</ele><time>2026-04-26T05:03:11.999Z</time></trkpt><trkpt lat="45.10500814828227" lon="10.051483534356418"><ele>33.0</ele><time>2026-04-26T05:03:12.999Z</time></trkpt><trkpt lat="45.105072463324476" lon="10.051473242101043"><ele>33.0</ele><time>2026-04-26T05:03:13.999Z</time></trkpt><trkpt lat="45.10519077897218" lon="10.051432359605851"><ele>33.0</ele><time>2026-04-26T05:03:15.999Z</time></trkpt><trkpt lat="45.10523149745167" lon="10.051349185189878"><ele>33.0</ele><time>2026-04-26T05:03:16.999Z</time></trkpt><trkpt lat="45.10524556919346" lon="10.051243036788472"><ele>33.0</ele><time>2026-04-26T05:03:17.999Z</time></trkpt><trkpt lat="45.105242516687284" lon="10.051137314486018"><ele>33.0</ele><time>2026-04-26T05:03:18.998Z</time></trkpt><trkpt lat="45.1052365701239" lon="10.051032544550981"><ele>33.0</ele><time>2026-04-26T05:03:19.998Z</time></trkpt><trkpt lat="45.10523303271446" lon="10.050929891154302"><ele>33.0</ele><time>2026-04-26T05:03:20.998Z</time></trkpt><trkpt lat="45.10522883084284" lon="10.050827868106424"><ele>33.0</ele><time>2026-04-26T05:03:21.998Z</time></trkpt><trkpt lat="45.1052288875525" lon="10.050724090889577"><ele>33.0</ele><time>2026-04-26T05:03:22.998Z</time></trkpt><trkpt lat="45.10522897361198" lon="10.050623099001198"><ele>33.0</ele><time>2026-04-26T05:03:23.998Z</time></trkpt><trkpt lat="45.105231654478935" lon="10.050525764505027"><ele>33.0</ele><time>2026-04-26T05:03:24.998Z</time></trkpt><trkpt lat="45.10523280827713" lon="10.050428645689504"><ele>33.0</ele><time>2026-04-26T05:03:25.998Z</time></trkpt><trkpt lat="45.105233821454995" lon="10.050332048914573"><ele>33.0</ele><time>2026-04-26T05:03:26.998Z</time></trkpt><trkpt lat="45.1052327471555" lon="10.05023690217076"><ele>33.0</ele><time>2026-04-26T05:03:27.998Z</time></trkpt><trkpt lat="45.105232854515464" lon="10.050136855342993"><ele>33.0</ele><time>2026-04-26T05:03:28.998Z</time></trkpt><trkpt lat="45.10523415422687" lon="10.050039568586081"><ele>33.0</ele><time>2026-04-26T05:03:29.998Z</time></trkpt><trkpt lat="45.10523422298521" lon="10.049941706170856"><ele>33.0</ele><time>2026-04-26T05:03:30.998Z</time></trkpt><trkpt lat="45.10523332833745" lon="10.049843986118407"><ele>33.0</ele><time>2026-04-26T05:03:31.998Z</time></trkpt><trkpt lat="45.105231210778655" lon="10.049747211255287"><ele>33.0</ele><time>2026-04-26T05:03:32.998Z</time></trkpt><trkpt lat="45.10522887671168" lon="10.049648579587378"><ele>33.0</ele><time>2026-04-26T05:03:33.998Z</time></trkpt><trkpt lat="45.105224755859496" lon="10.049548549010941"><ele>33.0</ele><time>2026-04-26T05:03:34.998Z</time></trkpt><trkpt lat="45.105220528775455" lon="10.049451937437658"><ele>33.0</ele><time>2026-04-26T05:03:35.998Z</time></trkpt><trkpt lat="45.10521610679841" lon="10.049352425541866"><ele>33.0</ele><time>2026-04-26T05:03:36.998Z</time></trkpt><trkpt lat="45.10521245434737" lon="10.049254617594201"><ele>33.0</ele><time>2026-04-26T05:03:37.998Z</time></trkpt><trkpt lat="45.10520946531519" lon="10.049156094876697"><ele>33.0</ele><time>2026-04-26T05:03:38.998Z</time></trkpt><trkpt lat="45.10520380839361" lon="10.049060140281682"><ele>33.0</ele><time>2026-04-26T05:03:39.998Z</time></trkpt><trkpt lat="45.10519311725002" lon="10.048961489139439"><ele>33.0</ele><time>2026-04-26T05:03:40.998Z</time></trkpt><trkpt lat="45.10518315241002" lon="10.048864630746555"><ele>33.0</ele><time>2026-04-26T05:03:41.998Z</time></trkpt><trkpt lat="45.10517506492776" lon="10.048766031921508"><ele>33.0</ele><time>2026-04-26T05:03:42.998Z</time></trkpt><trkpt lat="45.1051656804546" lon="10.048667916652864"><ele>33.0</ele><time>2026-04-26T05:03:43.998Z</time></trkpt><trkpt lat="45.10515393173139" lon="10.048568946990637"><ele>33.285714285714285</ele><time>2026-04-26T05:03:44.998Z</time></trkpt><trkpt lat="45.10514159058221" lon="10.048471509670433"><ele>33.57142857142857</ele><time>2026-04-26T05:03:45.998Z</time></trkpt><trkpt lat="45.105130779458634" lon="10.04837484457258"><ele>33.85714285714286</ele><time>2026-04-26T05:03:46.998Z</time></trkpt><trkpt lat="45.10511831387103" lon="10.04827585596745"><ele>34.14285714285714</ele><time>2026-04-26T05:03:47.998Z</time></trkpt><trkpt lat="45.10510438989127" lon="10.048180245902913"><ele>34.42857142857143</ele><time>2026-04-26T05:03:48.998Z</time></trkpt><trkpt lat="45.10508974338737" lon="10.048085790877131"><ele>34.714285714285715</ele><time>2026-04-26T05:03:49.998Z</time></trkpt><trkpt lat="45.10508005182361" lon="10.047990914973012"><ele>35.0</ele><time>2026-04-26T05:03:50.998Z</time></trkpt><trkpt lat="45.105067455994" lon="10.047893293435713"><ele>35.0</ele><time>2026-04-26T05:03:51.998Z</time></trkpt><trkpt lat="45.10505264937454" lon="10.047798990563882"><ele>35.0</ele><time>2026-04-26T05:03:52.998Z</time></trkpt><trkpt lat="45.10502975050104" lon="10.047706529865243"><ele>35.0</ele><time>2026-04-26T05:03:54Z</time></trkpt><trkpt lat="45.10500507619495" lon="10.047617667529165"><ele>35.0</ele><time>2026-04-26T05:03:55Z</time></trkpt><trkpt lat="45.104980505160135" lon="10.04752848114792"><ele>35.0</ele><time>2026-04-26T05:03:56Z</time></trkpt><trkpt lat="45.10495647926236" lon="10.047441723389651"><ele>35.0</ele><time>2026-04-26T05:03:57Z</time></trkpt><trkpt lat="45.10493460692324" lon="10.047353586922815"><ele>35.0</ele><time>2026-04-26T05:03:58Z</time></trkpt><trkpt lat="45.10491235081779" lon="10.04726278171077"><ele>34.714285714285715</ele><time>2026-04-26T05:03:59Z</time></trkpt><trkpt lat="45.10488938276079" lon="10.047171542838553"><ele>34.42857142857143</ele><time>2026-04-26T05:04:00Z</time></trkpt><trkpt lat="45.10486852923635" lon="10.04707882190161"><ele>34.14285714285714</ele><time>2026-04-26T05:04:01Z</time></trkpt><trkpt lat="45.10484929962204" lon="10.046985931402107"><ele>33.85714285714286</ele><time>2026-04-26T05:04:02Z</time></trkpt><trkpt lat="45.10482990282682" lon="10.046891010369468"><ele>33.57142857142857</ele><time>2026-04-26T05:04:03Z</time></trkpt><trkpt lat="45.10481216206601" lon="10.046798673172233"><ele>33.285714285714285</ele><time>2026-04-26T05:04:04Z</time></trkpt><trkpt lat="45.10479254423711" lon="10.046705675552651"><ele>33.0</ele><time>2026-04-26T05:04:05Z</time></trkpt><trkpt lat="45.10477275432623" lon="10.04661428405018"><ele>33.0</ele><time>2026-04-26T05:04:06Z</time></trkpt><trkpt lat="45.10475024733255" lon="10.046522120363928"><ele>33.0</ele><time>2026-04-26T05:04:07Z</time></trkpt><trkpt lat="45.1047274880771" lon="10.04642864846825"><ele>33.0</ele><time>2026-04-26T05:04:08Z</time></trkpt><trkpt lat="45.10470558883638" lon="10.046334118981214"><ele>33.0</ele><time>2026-04-26T05:04:09Z</time></trkpt><trkpt lat="45.1046841625007" lon="10.046241133221177"><ele>33.0</ele><time>2026-04-26T05:04:10Z</time></trkpt><trkpt lat="45.104662659109" lon="10.046149607116458"><ele>33.0</ele><time>2026-04-26T05:04:11Z</time></trkpt><trkpt lat="45.10464054659296" lon="10.04605632275439"><ele>33.0</ele><time>2026-04-26T05:04:12Z</time></trkpt><trkpt lat="45.10461927656058" lon="10.045965478367885"><ele>33.0</ele><time>2026-04-26T05:04:13Z</time></trkpt><trkpt lat="45.1045979460967" lon="10.045873284316299"><ele>33.0</ele><time>2026-04-26T05:04:14Z</time></trkpt><trkpt lat="45.104576410371735" lon="10.045781175725985"><ele>33.0</ele><time>2026-04-26T05:04:15Z</time></trkpt><trkpt lat="45.104555630239716" lon="10.045691535423165"><ele>33.0</ele><time>2026-04-26T05:04:16Z</time></trkpt><trkpt lat="45.104534321456484" lon="10.045598638452143"><ele>33.0</ele><time>2026-04-26T05:04:17Z</time></trkpt><trkpt lat="45.104514604604745" lon="10.04550815117427"><ele>33.0</ele><time>2026-04-26T05:04:18Z</time></trkpt><trkpt lat="45.10449435774838" lon="10.0454160349578"><ele>33.0</ele><time>2026-04-26T05:04:19Z</time></trkpt><trkpt lat="45.10447419872904" lon="10.045326811613402"><ele>33.285714285714285</ele><time>2026-04-26T05:04:20Z</time></trkpt><trkpt lat="45.104453760278474" lon="10.045235748741767"><ele>33.57142857142857</ele><time>2026-04-26T05:04:21Z</time></trkpt><trkpt lat="45.104434748158354" lon="10.045145341076264"><ele>33.85714285714286</ele><time>2026-04-26T05:04:22Z</time></trkpt><trkpt lat="45.10441310143801" lon="10.045056077226546"><ele>34.14285714285714</ele><time>2026-04-26T05:04:23Z</time></trkpt><trkpt lat="45.10439030027929" lon="10.044966518760841"><ele>34.42857142857143</ele><time>2026-04-26T05:04:24Z</time></trkpt><trkpt lat="45.10437011801064" lon="10.044878899005342"><ele>34.714285714285715</ele><time>2026-04-26T05:04:25Z</time></trkpt><trkpt lat="45.10434858063171" lon="10.044788785550368"><ele>35.0</ele><time>2026-04-26T05:04:26Z</time></trkpt><trkpt lat="45.10432983081096" lon="10.044697616635231"><ele>35.142857142857146</ele><time>2026-04-26T05:04:27Z</time></trkpt><trkpt lat="45.1043098451183" lon="10.044611135191195"><ele>35.285714285714285</ele><time>2026-04-26T05:04:27.999Z</time></trkpt><trkpt lat="45.104291993473026" lon="10.04452106630847"><ele>35.42857142857143</ele><time>2026-04-26T05:04:28.999Z</time></trkpt><trkpt lat="45.10427230990578" lon="10.044433057019441"><ele>35.57142857142857</ele><time>2026-04-26T05:04:29.999Z</time></trkpt><trkpt lat="45.104252212059656" lon="10.04434513747785"><ele>35.714285714285715</ele><time>2026-04-26T05:04:30.999Z</time></trkpt><trkpt lat="45.10422974307494" lon="10.044258674215902"><ele>35.85714285714286</ele><time>2026-04-26T05:04:31.999Z</time></trkpt><trkpt lat="45.10420514713765" lon="10.04417125761691"><ele>36.0</ele><time>2026-04-26T05:04:32.999Z</time></trkpt><trkpt lat="45.10417848192037" lon="10.044087442778478"><ele>36.00000000000001</ele><time>2026-04-26T05:04:33.999Z</time></trkpt><trkpt lat="45.104151488115015" lon="10.04400411999226"><ele>36.0</ele><time>2026-04-26T05:04:34.999Z</time></trkpt><trkpt lat="45.10412467836855" lon="10.043922938176948"><ele>36.0</ele><time>2026-04-26T05:04:35.999Z</time></trkpt><trkpt lat="45.104094288208145" lon="10.043841936902005"><ele>36.0</ele><time>2026-04-26T05:04:36.999Z</time></trkpt><trkpt lat="45.10406311299693" lon="10.043762423392124"><ele>36.0</ele><time>2026-04-26T05:04:37.999Z</time></trkpt><trkpt lat="45.10403177276282" lon="10.04368130523638"><ele>36.00000000000001</ele><time>2026-04-26T05:04:38.999Z</time></trkpt><trkpt lat="45.10397271781824" lon="10.043528089995966"><ele>36.0</ele><time>2026-04-26T05:04:40.999Z</time></trkpt><trkpt lat="45.10391795620604" lon="10.043385605518115"><ele>36.0</ele><time>2026-04-26T05:04:42.999Z</time></trkpt><trkpt lat="45.10391108518924" lon="10.043256410142964"><ele>36.0</ele><time>2026-04-26T05:04:44.999Z</time></trkpt><trkpt lat="45.103989064042764" lon="10.043171020513508"><ele>36.0</ele><time>2026-04-26T05:04:45.999Z</time></trkpt><trkpt lat="45.10405927874449" lon="10.04306773989457"><ele>36.0</ele><time>2026-04-26T05:04:47.999Z</time></trkpt><trkpt lat="45.10413374396562" lon="10.042944997394281"><ele>36.0</ele><time>2026-04-26T05:04:49.999Z</time></trkpt><trkpt lat="45.104209071981636" lon="10.042814450616728"><ele>36.2</ele><time>2026-04-26T05:04:51.999Z</time></trkpt><trkpt lat="45.10427899699052" lon="10.042692327895766"><ele>36.400000000000006</ele><time>2026-04-26T05:04:53.999Z</time></trkpt><trkpt lat="45.104354576781056" lon="10.042571473746888"><ele>36.6</ele><time>2026-04-26T05:04:55.999Z</time></trkpt><trkpt lat="45.10442941120686" lon="10.042443294165846"><ele>36.800000000000004</ele><time>2026-04-26T05:04:57.999Z</time></trkpt><trkpt lat="45.10447011800021" lon="10.04237256141356"><ele>37.0</ele><time>2026-04-26T05:04:58.999Z</time></trkpt><trkpt lat="45.104511122248844" lon="10.0422991791"><ele>37.0</ele><time>2026-04-26T05:04:59.999Z</time></trkpt><trkpt lat="45.10455081101295" lon="10.042226777931957"><ele>37.0</ele><time>2026-04-26T05:05:00.999Z</time></trkpt><trkpt lat="45.1045902124372" lon="10.042153197991613"><ele>37.0</ele><time>2026-04-26T05:05:01.999Z</time></trkpt><trkpt lat="45.10463229275921" lon="10.04208078835012"><ele>37.0</ele><time>2026-04-26T05:05:02.999Z</time></trkpt><trkpt lat="45.10467258421844" lon="10.042010223759123"><ele>37.0</ele><time>2026-04-26T05:05:03.999Z</time></trkpt><trkpt lat="45.10471599654495" lon="10.041937998207327"><ele>37.0</ele><time>2026-04-26T05:05:04.999Z</time></trkpt><trkpt lat="45.104757763649864" lon="10.041865518121606"><ele>37.0</ele><time>2026-04-26T05:05:05.999Z</time></trkpt><trkpt lat="45.10480021345285" lon="10.041794228206935"><ele>37.0</ele><time>2026-04-26T05:05:06.999Z</time></trkpt><trkpt lat="45.10483938765132" lon="10.041723476079392"><ele>37.0</ele><time>2026-04-26T05:05:07.999Z</time></trkpt><trkpt lat="45.10487996855873" lon="10.041653752049738"><ele>37.0</ele><time>2026-04-26T05:05:08.999Z</time></trkpt><trkpt lat="45.10495980313738" lon="10.04153241346301"><ele>37.0</ele><time>2026-04-26T05:05:10.999Z</time></trkpt><trkpt lat="45.10502810219957" lon="10.041411463090716"><ele>37.0</ele><time>2026-04-26T05:05:12.999Z</time></trkpt><trkpt lat="45.105098939503314" lon="10.041287385318052"><ele>37.2</ele><time>2026-04-26T05:05:14.999Z</time></trkpt><trkpt lat="45.10517659268314" lon="10.041152675653569"><ele>37.400000000000006</ele><time>2026-04-26T05:05:16.999Z</time></trkpt><trkpt lat="45.10523668661001" lon="10.041059841224222"><ele>37.599999999999994</ele><time>2026-04-26T05:05:18.999Z</time></trkpt><trkpt lat="45.105135197830485" lon="10.040943473786456"><ele>37.8</ele><time>2026-04-26T05:05:19.998Z</time></trkpt><trkpt lat="45.10507009109486" lon="10.04091735629906"><ele>38.0</ele><time>2026-04-26T05:05:20.998Z</time></trkpt><trkpt lat="45.104945434295246" lon="10.040890442123503"><ele>38.14285714285714</ele><time>2026-04-26T05:05:22.998Z</time></trkpt><trkpt lat="45.10488962587237" lon="10.040846133233412"><ele>38.28571428571429</ele><time>2026-04-26T05:05:23.998Z</time></trkpt><trkpt lat="45.10482242138162" lon="10.040846777799876"><ele>38.42857142857143</ele><time>2026-04-26T05:05:24.998Z</time></trkpt><trkpt lat="45.10476190810109" lon="10.040819621677413"><ele>38.57142857142857</ele><time>2026-04-26T05:05:25.998Z</time></trkpt><trkpt lat="45.10469851874366" lon="10.040800251371989"><ele>38.71428571428571</ele><time>2026-04-26T05:05:26.998Z</time></trkpt><trkpt lat="45.1046337923542" lon="10.04078230758247"><ele>38.85714285714286</ele><time>2026-04-26T05:05:27.998Z</time></trkpt><trkpt lat="45.10457297078198" lon="10.04073774598458"><ele>39.0</ele><time>2026-04-26T05:05:28.998Z</time></trkpt><trkpt lat="45.104508263308404" lon="10.040715251804826"><ele>39.0</ele><time>2026-04-26T05:05:29.998Z</time></trkpt><trkpt lat="45.1044470954568" lon="10.040693816186097"><ele>39.0</ele><time>2026-04-26T05:05:30.998Z</time></trkpt><trkpt lat="45.10438028063469" lon="10.040670401663782"><ele>39.0</ele><time>2026-04-26T05:05:31.998Z</time></trkpt><trkpt lat="45.104316705918635" lon="10.040648122585235"><ele>39.0</ele><time>2026-04-26T05:05:32.998Z</time></trkpt><trkpt lat="45.1042538549098" lon="10.040626097126866"><ele>39.0</ele><time>2026-04-26T05:05:33.998Z</time></trkpt><trkpt lat="45.104188154239026" lon="10.04060307303201"><ele>39.0</ele><time>2026-04-26T05:05:34.998Z</time></trkpt><trkpt lat="45.104124923992046" lon="10.040580914676656"><ele>39.0</ele><time>2026-04-26T05:05:35.998Z</time></trkpt><trkpt lat="45.104059715125636" lon="10.040558909853571"><ele>38.714285714285715</ele><time>2026-04-26T05:05:36.998Z</time></trkpt><trkpt lat="45.103995452838845" lon="10.040537329561818"><ele>38.42857142857142</ele><time>2026-04-26T05:05:37.998Z</time></trkpt><trkpt lat="45.103927363273144" lon="10.040537238814506"><ele>38.14285714285714</ele><time>2026-04-26T05:05:38.998Z</time></trkpt><trkpt lat="45.10386150463903" lon="10.040505854935384"><ele>37.85714285714286</ele><time>2026-04-26T05:05:39.998Z</time></trkpt><trkpt lat="45.10379710934301" lon="10.040478958325428"><ele>37.57142857142857</ele><time>2026-04-26T05:05:40.998Z</time></trkpt><trkpt lat="45.103731160867" lon="10.040452161302834"><ele>37.285714285714285</ele><time>2026-04-26T05:05:41.998Z</time></trkpt><trkpt lat="45.103664691754915" lon="10.040426447624357"><ele>37.0</ele><time>2026-04-26T05:05:42.998Z</time></trkpt><trkpt lat="45.103598410849465" lon="10.04040796133771"><ele>37.0</ele><time>2026-04-26T05:05:43.998Z</time></trkpt><trkpt lat="45.10353005147077" lon="10.040387802927375"><ele>37.0</ele><time>2026-04-26T05:05:44.998Z</time></trkpt><trkpt lat="45.10346463882798" lon="10.040369247850716"><ele>37.0</ele><time>2026-04-26T05:05:45.998Z</time></trkpt><trkpt lat="45.103399841061794" lon="10.04034697759102"><ele>37.0</ele><time>2026-04-26T05:05:46.998Z</time></trkpt><trkpt lat="45.10333406897156" lon="10.040323984422754"><ele>37.0</ele><time>2026-04-26T05:05:47.998Z</time></trkpt><trkpt lat="45.10326898481989" lon="10.040301069447022"><ele>37.0</ele><time>2026-04-26T05:05:48.998Z</time></trkpt><trkpt lat="45.10320409957481" lon="10.040278714719628"><ele>37.0</ele><time>2026-04-26T05:05:49.998Z</time></trkpt><trkpt lat="45.103139495296055" lon="10.04025243077825"><ele>36.714285714285715</ele><time>2026-04-26T05:05:50.998Z</time></trkpt><trkpt lat="45.10307481257996" lon="10.040225155619254"><ele>36.42857142857143</ele><time>2026-04-26T05:05:51.998Z</time></trkpt><trkpt lat="45.103009971742814" lon="10.040200029805439"><ele>36.14285714285714</ele><time>2026-04-26T05:05:52.998Z</time></trkpt><trkpt lat="45.102945441653425" lon="10.040172124421456"><ele>35.85714285714286</ele><time>2026-04-26T05:05:53.998Z</time></trkpt><trkpt lat="45.1028801404885" lon="10.040140254081647"><ele>35.57142857142857</ele><time>2026-04-26T05:05:54.998Z</time></trkpt><trkpt lat="45.102814196979466" lon="10.040110754673988"><ele>35.285714285714285</ele><time>2026-04-26T05:05:55.998Z</time></trkpt><trkpt lat="45.10274722594168" lon="10.04008810044439"><ele>35.0</ele><time>2026-04-26T05:05:56.998Z</time></trkpt><trkpt lat="45.10268016538938" lon="10.040059568085656"><ele>35.0</ele><time>2026-04-26T05:05:57.998Z</time></trkpt><trkpt lat="45.10261316548188" lon="10.040026812271751"><ele>35.0</ele><time>2026-04-26T05:05:58.998Z</time></trkpt><trkpt lat="45.102547922230706" lon="10.039997818484222"><ele>35.0</ele><time>2026-04-26T05:06:00Z</time></trkpt><trkpt lat="45.10248303947835" lon="10.039967841413715"><ele>35.0</ele><time>2026-04-26T05:06:01Z</time></trkpt><trkpt lat="45.10241738100038" lon="10.03993549162937"><ele>35.0</ele><time>2026-04-26T05:06:02Z</time></trkpt><trkpt lat="45.10235150205291" lon="10.039904114557476"><ele>35.0</ele><time>2026-04-26T05:06:03Z</time></trkpt><trkpt lat="45.10228550400747" lon="10.039874676000125"><ele>35.0</ele><time>2026-04-26T05:06:04Z</time></trkpt><trkpt lat="45.102220113982455" lon="10.039846207606669"><ele>35.142857142857146</ele><time>2026-04-26T05:06:05Z</time></trkpt><trkpt lat="45.10215600640779" lon="10.039821466302302"><ele>35.285714285714285</ele><time>2026-04-26T05:06:06Z</time></trkpt><trkpt lat="45.10209301904319" lon="10.039786057290465"><ele>35.42857142857143</ele><time>2026-04-26T05:06:07Z</time></trkpt><trkpt lat="45.10202902859863" lon="10.039747964366956"><ele>35.57142857142857</ele><time>2026-04-26T05:06:08Z</time></trkpt><trkpt lat="45.101967522336004" lon="10.039713216011965"><ele>35.714285714285715</ele><time>2026-04-26T05:06:09Z</time></trkpt><trkpt lat="45.101899736614676" lon="10.039664326466898"><ele>35.85714285714286</ele><time>2026-04-26T05:06:10Z</time></trkpt><trkpt lat="45.10183630042872" lon="10.039649868620753"><ele>36.0</ele><time>2026-04-26T05:06:11Z</time></trkpt><trkpt lat="45.10178348269944" lon="10.039592052591244"><ele>36.00000000000001</ele><time>2026-04-26T05:06:12Z</time></trkpt><trkpt lat="45.101716541798076" lon="10.039572330027653"><ele>36.0</ele><time>2026-04-26T05:06:13Z</time></trkpt><trkpt lat="45.10165872077101" lon="10.03951448937818"><ele>36.0</ele><time>2026-04-26T05:06:14Z</time></trkpt><trkpt lat="45.1015965075327" lon="10.039475811814018"><ele>36.0</ele><time>2026-04-26T05:06:15Z</time></trkpt><trkpt lat="45.10153303450697" lon="10.039437255725028"><ele>36.0</ele><time>2026-04-26T05:06:16Z</time></trkpt><trkpt lat="45.10147308552766" lon="10.039400565024621"><ele>36.00000000000001</ele><time>2026-04-26T05:06:17Z</time></trkpt><trkpt lat="45.10140970721136" lon="10.039361775464007"><ele>36.0</ele><time>2026-04-26T05:06:18Z</time></trkpt><trkpt lat="45.10134830448" lon="10.039324195020404"><ele>36.142857142857146</ele><time>2026-04-26T05:06:19Z</time></trkpt><trkpt lat="45.101285599515506" lon="10.039285817557174"><ele>36.285714285714285</ele><time>2026-04-26T05:06:20Z</time></trkpt><trkpt lat="45.10122433180648" lon="10.03924831974949"><ele>36.42857142857143</ele><time>2026-04-26T05:06:21Z</time></trkpt><trkpt lat="45.10116430406561" lon="10.039211580839535"><ele>36.57142857142857</ele><time>2026-04-26T05:06:22Z</time></trkpt><trkpt lat="45.10110366527503" lon="10.039174467943127"><ele>36.714285714285715</ele><time>2026-04-26T05:06:23Z</time></trkpt><trkpt lat="45.10103670478728" lon="10.039158729799649"><ele>36.85714285714286</ele><time>2026-04-26T05:06:24Z</time></trkpt><trkpt lat="45.10097978141366" lon="10.039113006550842"><ele>37.0</ele><time>2026-04-26T05:06:25Z</time></trkpt><trkpt lat="45.10086087205184" lon="10.039035867104122"><ele>37.0</ele><time>2026-04-26T05:06:27Z</time></trkpt><trkpt lat="45.10079742795638" lon="10.038992754211408"><ele>37.0</ele><time>2026-04-26T05:06:28Z</time></trkpt><trkpt lat="45.10073638930551" lon="10.038953678957064"><ele>37.0</ele><time>2026-04-26T05:06:29Z</time></trkpt><trkpt lat="45.100674395903695" lon="10.038916107776563"><ele>37.0</ele><time>2026-04-26T05:06:30Z</time></trkpt><trkpt lat="45.10061269589124" lon="10.038874816673438"><ele>37.0</ele><time>2026-04-26T05:06:31Z</time></trkpt><trkpt lat="45.10054898772711" lon="10.03883671846998"><ele>37.0</ele><time>2026-04-26T05:06:32Z</time></trkpt><trkpt lat="45.10048827252586" lon="10.038797159756834"><ele>37.0</ele><time>2026-04-26T05:06:32.999Z</time></trkpt><trkpt lat="45.1004285282798" lon="10.038759004136653"><ele>37.16666666666667</ele><time>2026-04-26T05:06:33.999Z</time></trkpt><trkpt lat="45.10037012074531" lon="10.038718727807769"><ele>37.333333333333336</ele><time>2026-04-26T05:06:34.999Z</time></trkpt><trkpt lat="45.10031127114129" lon="10.038681958732676"><ele>37.5</ele><time>2026-04-26T05:06:35.999Z</time></trkpt><trkpt lat="45.10019967057905" lon="10.038602320353164"><ele>37.666666666666664</ele><time>2026-04-26T05:06:37.999Z</time></trkpt><trkpt lat="45.1001417806339" lon="10.03855736579492"><ele>37.83333333333333</ele><time>2026-04-26T05:06:38.999Z</time></trkpt><trkpt lat="45.1000830017484" lon="10.038508922246697"><ele>38.0</ele><time>2026-04-26T05:06:39.999Z</time></trkpt><trkpt lat="45.1000210710392" lon="10.038456158893185"><ele>38.0</ele><time>2026-04-26T05:06:40.999Z</time></trkpt><trkpt lat="45.099961882620185" lon="10.038406027519372"><ele>38.0</ele><time>2026-04-26T05:06:41.999Z</time></trkpt><trkpt lat="45.09990658011197" lon="10.03835297830813"><ele>38.0</ele><time>2026-04-26T05:06:42.999Z</time></trkpt><trkpt lat="45.09985080625982" lon="10.038307117563088"><ele>38.0</ele><time>2026-04-26T05:06:43.999Z</time></trkpt><trkpt lat="45.099796217203824" lon="10.038259109248932"><ele>38.0</ele><time>2026-04-26T05:06:44.999Z</time></trkpt><trkpt lat="45.09973871041889" lon="10.038209860903887"><ele>38.0</ele><time>2026-04-26T05:06:45.999Z</time></trkpt><trkpt lat="45.09968104085135" lon="10.038159303920583"><ele>38.0</ele><time>2026-04-26T05:06:46.999Z</time></trkpt><trkpt lat="45.09961899883755" lon="10.038111632835793"><ele>37.714285714285715</ele><time>2026-04-26T05:06:47.999Z</time></trkpt><trkpt lat="45.09956024066887" lon="10.03806678786692"><ele>37.42857142857143</ele><time>2026-04-26T05:06:48.999Z</time></trkpt><trkpt lat="45.09950033632377" lon="10.038011857949757"><ele>37.142857142857146</ele><time>2026-04-26T05:06:49.999Z</time></trkpt><trkpt lat="45.09944294796075" lon="10.03795453053279"><ele>36.85714285714286</ele><time>2026-04-26T05:06:50.999Z</time></trkpt><trkpt lat="45.099384431083585" lon="10.037903081762902"><ele>36.57142857142857</ele><time>2026-04-26T05:06:51.999Z</time></trkpt><trkpt lat="45.09932460149859" lon="10.037852250805726"><ele>36.28571428571429</ele><time>2026-04-26T05:06:52.999Z</time></trkpt><trkpt lat="45.09926400114196" lon="10.037801298744235"><ele>36.0</ele><time>2026-04-26T05:06:53.999Z</time></trkpt><trkpt lat="45.09920449207151" lon="10.03774687038748"><ele>36.00000000000001</ele><time>2026-04-26T05:06:54.999Z</time></trkpt><trkpt lat="45.09914639345331" lon="10.03768740798272"><ele>36.0</ele><time>2026-04-26T05:06:55.999Z</time></trkpt><trkpt lat="45.099088870313615" lon="10.037630405931626"><ele>36.0</ele><time>2026-04-26T05:06:56.999Z</time></trkpt><trkpt lat="45.09903469478935" lon="10.03756641249517"><ele>36.0</ele><time>2026-04-26T05:06:57.999Z</time></trkpt><trkpt lat="45.098980801161765" lon="10.037501774937235"><ele>36.0</ele><time>2026-04-26T05:06:58.999Z</time></trkpt><trkpt lat="45.09892731037689" lon="10.037438166841676"><ele>36.00000000000001</ele><time>2026-04-26T05:06:59.999Z</time></trkpt><trkpt lat="45.09887232301321" lon="10.037374671701267"><ele>36.0</ele><time>2026-04-26T05:07:00.999Z</time></trkpt><trkpt lat="45.09882133307882" lon="10.037311995816534"><ele>35.714285714285715</ele><time>2026-04-26T05:07:01.999Z</time></trkpt><trkpt lat="45.09876348551158" lon="10.037253245860333"><ele>35.42857142857143</ele><time>2026-04-26T05:07:02.999Z</time></trkpt><trkpt lat="45.09871308606908" lon="10.037190551073305"><ele>35.14285714285714</ele><time>2026-04-26T05:07:03.999Z</time></trkpt><trkpt lat="45.09865835573266" lon="10.037127871707755"><ele>34.85714285714286</ele><time>2026-04-26T05:07:04.999Z</time></trkpt><trkpt lat="45.09860702892001" lon="10.037067101752983"><ele>34.57142857142857</ele><time>2026-04-26T05:07:05.999Z</time></trkpt><trkpt lat="45.09855283615785" lon="10.03700209512868"><ele>34.285714285714285</ele><time>2026-04-26T05:07:06.999Z</time></trkpt><trkpt lat="45.09849946219852" lon="10.036939803969439"><ele>34.0</ele><time>2026-04-26T05:07:07.999Z</time></trkpt><trkpt lat="45.09844628206936" lon="10.036882566867604"><ele>33.99999999999999</ele><time>2026-04-26T05:07:08.999Z</time></trkpt><trkpt lat="45.09839104726667" lon="10.036821742075723"><ele>34.0</ele><time>2026-04-26T05:07:09.999Z</time></trkpt><trkpt lat="45.09833705799479" lon="10.036764839214202"><ele>34.0</ele><time>2026-04-26T05:07:10.999Z</time></trkpt><trkpt lat="45.09827787670462" lon="10.036713335716039"><ele>34.0</ele><time>2026-04-26T05:07:11.999Z</time></trkpt><trkpt lat="45.098219208991836" lon="10.03666956989939"><ele>34.0</ele><time>2026-04-26T05:07:12.999Z</time></trkpt><trkpt lat="45.09815934451987" lon="10.0366311357796"><ele>33.99999999999999</ele><time>2026-04-26T05:07:13.999Z</time></trkpt><trkpt lat="45.098098212045755" lon="10.036598780613817"><ele>34.0</ele><time>2026-04-26T05:07:14.999Z</time></trkpt><trkpt lat="45.09803865881262" lon="10.036567496793595"><ele>34.57142857142857</ele><time>2026-04-26T05:07:15.999Z</time></trkpt><trkpt lat="45.09797995430352" lon="10.036532899429806"><ele>35.14285714285714</ele><time>2026-04-26T05:07:16.999Z</time></trkpt><trkpt lat="45.097922842768725" lon="10.03649066313379"><ele>35.71428571428571</ele><time>2026-04-26T05:07:17.999Z</time></trkpt><trkpt lat="45.09786581212134" lon="10.036449950247398"><ele>36.285714285714285</ele><time>2026-04-26T05:07:18.999Z</time></trkpt><trkpt lat="45.097811607099786" lon="10.036398760663607"><ele>36.85714285714286</ele><time>2026-04-26T05:07:19.999Z</time></trkpt><trkpt lat="45.09776089507256" lon="10.036342464719926"><ele>37.42857142857142</ele><time>2026-04-26T05:07:20.999Z</time></trkpt><trkpt lat="45.09771194486262" lon="10.0362775348015"><ele>38.0</ele><time>2026-04-26T05:07:21.999Z</time></trkpt><trkpt lat="45.09766449562873" lon="10.03621446928229"><ele>38.0</ele><time>2026-04-26T05:07:22.999Z</time></trkpt><trkpt lat="45.09761680056968" lon="10.036148289626142"><ele>38.0</ele><time>2026-04-26T05:07:23.999Z</time></trkpt><trkpt lat="45.09757194279857" lon="10.036081758587292"><ele>38.0</ele><time>2026-04-26T05:07:24.999Z</time></trkpt><trkpt lat="45.09752159576405" lon="10.0360170382983"><ele>38.0</ele><time>2026-04-26T05:07:25.998Z</time></trkpt><trkpt lat="45.09747622805988" lon="10.035953770565445"><ele>38.0</ele><time>2026-04-26T05:07:26.998Z</time></trkpt><trkpt lat="45.09742822702351" lon="10.035885486343815"><ele>38.0</ele><time>2026-04-26T05:07:27.998Z</time></trkpt><trkpt lat="45.09738739726454" lon="10.035812303495959"><ele>38.0</ele><time>2026-04-26T05:07:28.998Z</time></trkpt><trkpt lat="45.09734461782194" lon="10.035741105673658"><ele>37.4</ele><time>2026-04-26T05:07:29.998Z</time></trkpt><trkpt lat="45.097303075841864" lon="10.035668042390926"><ele>36.8</ele><time>2026-04-26T05:07:30.998Z</time></trkpt><trkpt lat="45.0972662187307" lon="10.035594045790152"><ele>36.2</ele><time>2026-04-26T05:07:31.998Z</time></trkpt><trkpt lat="45.09720676750109" lon="10.03544224255122"><ele>35.6</ele><time>2026-04-26T05:07:33.998Z</time></trkpt><trkpt lat="45.097145367326846" lon="10.035305629744983"><ele>35.0</ele><time>2026-04-26T05:07:35.998Z</time></trkpt><trkpt lat="45.097083682074334" lon="10.035179239077094"><ele>35.0</ele><time>2026-04-26T05:07:37.998Z</time></trkpt><trkpt lat="45.097054463393206" lon="10.035070589202585"><ele>35.0</ele><time>2026-04-26T05:07:39.998Z</time></trkpt><trkpt lat="45.09714483305617" lon="10.034992899221427"><ele>35.0</ele><time>2026-04-26T05:07:42.998Z</time></trkpt><trkpt lat="45.097242241395946" lon="10.034973393219113"><ele>35.0</ele><time>2026-04-26T05:07:44.998Z</time></trkpt><trkpt lat="45.09735246911025" lon="10.03496066493355"><ele>35.0</ele><time>2026-04-26T05:07:46.998Z</time></trkpt><trkpt lat="45.097471770093925" lon="10.034944638521793"><ele>35.166666666666664</ele><time>2026-04-26T05:07:48.998Z</time></trkpt><trkpt lat="45.09759690548583" lon="10.034930986185586"><ele>35.33333333333333</ele><time>2026-04-26T05:07:50.998Z</time></trkpt><trkpt lat="45.09766315742209" lon="10.034920509311931"><ele>35.5</ele><time>2026-04-26T05:07:51.998Z</time></trkpt><trkpt lat="45.09773032089066" lon="10.034916608609707"><ele>35.666666666666664</ele><time>2026-04-26T05:07:52.998Z</time></trkpt><trkpt lat="45.09779573203607" lon="10.034906535873672"><ele>35.833333333333336</ele><time>2026-04-26T05:07:53.998Z</time></trkpt><trkpt lat="45.09785952040578" lon="10.034872361896412"><ele>36.0</ele><time>2026-04-26T05:07:54.998Z</time></trkpt><trkpt lat="45.097924115267986" lon="10.034860831008329"><ele>36.00000000000001</ele><time>2026-04-26T05:07:55.998Z</time></trkpt><trkpt lat="45.09799296344274" lon="10.034852583745545"><ele>36.0</ele><time>2026-04-26T05:07:56.998Z</time></trkpt><trkpt lat="45.09805688358772" lon="10.034860318821536"><ele>36.0</ele><time>2026-04-26T05:07:57.998Z</time></trkpt><trkpt lat="45.098126581040184" lon="10.034860760347366"><ele>36.0</ele><time>2026-04-26T05:07:58.998Z</time></trkpt><trkpt lat="45.09819708070359" lon="10.03486019971406"><ele>36.0</ele><time>2026-04-26T05:07:59.998Z</time></trkpt><trkpt lat="45.09826679945907" lon="10.03484976538285"><ele>36.00000000000001</ele><time>2026-04-26T05:08:00.998Z</time></trkpt><trkpt lat="45.098336566538585" lon="10.034839727632653"><ele>36.0</ele><time>2026-04-26T05:08:01.998Z</time></trkpt><trkpt lat="45.098406762002845" lon="10.034828086064575"><ele>35.57142857142858</ele><time>2026-04-26T05:08:02.998Z</time></trkpt><trkpt lat="45.09847662933247" lon="10.03481605120328"><ele>35.142857142857146</ele><time>2026-04-26T05:08:03.998Z</time></trkpt><trkpt lat="45.098545912073654" lon="10.034804586058046"><ele>34.714285714285715</ele><time>2026-04-26T05:08:04.998Z</time></trkpt><trkpt lat="45.09861676647592" lon="10.034793328108151"><ele>34.28571428571429</ele><time>2026-04-26T05:08:06Z</time></trkpt><trkpt lat="45.09868730819358" lon="10.034779120965283"><ele>33.85714285714286</ele><time>2026-04-26T05:08:07Z</time></trkpt><trkpt lat="45.09875704978608" lon="10.034766574501756"><ele>33.42857142857143</ele><time>2026-04-26T05:08:08Z</time></trkpt><trkpt lat="45.09882650541026" lon="10.034756814155443"><ele>33.0</ele><time>2026-04-26T05:08:09Z</time></trkpt><trkpt lat="45.09889717027768" lon="10.034746950484225"><ele>33.0</ele><time>2026-04-26T05:08:10Z</time></trkpt><trkpt lat="45.09896711297846" lon="10.034735055767076"><ele>33.0</ele><time>2026-04-26T05:08:11Z</time></trkpt><trkpt lat="45.099035304217225" lon="10.034723023212681"><ele>33.0</ele><time>2026-04-26T05:08:12Z</time></trkpt><trkpt lat="45.0991037443261" lon="10.034711714847898"><ele>33.0</ele><time>2026-04-26T05:08:13Z</time></trkpt><trkpt lat="45.09917451445961" lon="10.034704300638218"><ele>33.0</ele><time>2026-04-26T05:08:14Z</time></trkpt><trkpt lat="45.099244104502745" lon="10.034695887910928"><ele>33.0</ele><time>2026-04-26T05:08:15Z</time></trkpt><trkpt lat="45.099314957252034" lon="10.0346878678032"><ele>33.0</ele><time>2026-04-26T05:08:16Z</time></trkpt><trkpt lat="45.099384432471524" lon="10.034679860897606"><ele>32.714285714285715</ele><time>2026-04-26T05:08:17Z</time></trkpt><trkpt lat="45.09945392413973" lon="10.034670285017018"><ele>32.42857142857143</ele><time>2026-04-26T05:08:18Z</time></trkpt><trkpt lat="45.09952371578738" lon="10.034658777938231"><ele>32.142857142857146</ele><time>2026-04-26T05:08:19Z</time></trkpt><trkpt lat="45.099592811924495" lon="10.03464871804471"><ele>31.857142857142858</ele><time>2026-04-26T05:08:20Z</time></trkpt><trkpt lat="45.09966051384873" lon="10.034634126799723"><ele>31.571428571428577</ele><time>2026-04-26T05:08:21Z</time></trkpt><trkpt lat="45.09972830906753" lon="10.034615548660783"><ele>31.28571428571429</ele><time>2026-04-26T05:08:22Z</time></trkpt><trkpt lat="45.09979506937038" lon="10.034590469081811"><ele>31.0</ele><time>2026-04-26T05:08:23Z</time></trkpt><trkpt lat="45.09986005052191" lon="10.034554801322319"><ele>31.42857142857143</ele><time>2026-04-26T05:08:24Z</time></trkpt><trkpt lat="45.09992339060913" lon="10.034513275657453"><ele>31.85714285714286</ele><time>2026-04-26T05:08:25Z</time></trkpt><trkpt lat="45.099987197597606" lon="10.034469066584428"><ele>32.285714285714285</ele><time>2026-04-26T05:08:26Z</time></trkpt><trkpt lat="45.1000520151149" lon="10.034426545098016"><ele>32.714285714285715</ele><time>2026-04-26T05:08:27Z</time></trkpt><trkpt lat="45.10011744295489" lon="10.034387411755775"><ele>33.14285714285714</ele><time>2026-04-26T05:08:28Z</time></trkpt><trkpt lat="45.10018223578649" lon="10.03434734626663"><ele>33.57142857142857</ele><time>2026-04-26T05:08:29Z</time></trkpt><trkpt lat="45.10024685039435" lon="10.034307777585324"><ele>34.0</ele><time>2026-04-26T05:08:30Z</time></trkpt><trkpt lat="45.100310773935824" lon="10.034266112837319"><ele>33.99999999999999</ele><time>2026-04-26T05:08:31Z</time></trkpt><trkpt lat="45.10037421053422" lon="10.034223333887683"><ele>34.0</ele><time>2026-04-26T05:08:32Z</time></trkpt><trkpt lat="45.10043823259138" lon="10.03418240488132"><ele>34.0</ele><time>2026-04-26T05:08:33Z</time></trkpt><trkpt lat="45.10050284697945" lon="10.034141250336251"><ele>34.0</ele><time>2026-04-26T05:08:34Z</time></trkpt><trkpt lat="45.10056646585969" lon="10.03410001257958"><ele>34.0</ele><time>2026-04-26T05:08:35Z</time></trkpt><trkpt lat="45.10063188409175" lon="10.03406000098191"><ele>33.99999999999999</ele><time>2026-04-26T05:08:36Z</time></trkpt><trkpt lat="45.100694858535014" lon="10.034018884545363"><ele>34.0</ele><time>2026-04-26T05:08:36.999Z</time></trkpt><trkpt lat="45.10075773740054" lon="10.033979531877733"><ele>33.857142857142854</ele><time>2026-04-26T05:08:37.999Z</time></trkpt><trkpt lat="45.100822812721844" lon="10.033940917625719"><ele>33.714285714285715</ele><time>2026-04-26T05:08:38.999Z</time></trkpt><trkpt lat="45.10088689251838" lon="10.033902737170575"><ele>33.57142857142857</ele><time>2026-04-26T05:08:39.999Z</time></trkpt><trkpt lat="45.10095109472984" lon="10.033863464890079"><ele>33.42857142857143</ele><time>2026-04-26T05:08:40.999Z</time></trkpt><trkpt lat="45.101015360312616" lon="10.033824760913793"><ele>33.285714285714285</ele><time>2026-04-26T05:08:41.999Z</time></trkpt><trkpt lat="45.10107906822062" lon="10.03378566122342"><ele>33.14285714285714</ele><time>2026-04-26T05:08:42.999Z</time></trkpt><trkpt lat="45.101142572164235" lon="10.033744755379749"><ele>33.0</ele><time>2026-04-26T05:08:43.999Z</time></trkpt><trkpt lat="45.101204933262" lon="10.033704123212324"><ele>33.0</ele><time>2026-04-26T05:08:44.999Z</time></trkpt><trkpt lat="45.10126884672216" lon="10.033666464756344"><ele>33.0</ele><time>2026-04-26T05:08:45.999Z</time></trkpt><trkpt lat="45.10133230121045" lon="10.03362757467678"><ele>33.0</ele><time>2026-04-26T05:08:46.999Z</time></trkpt><trkpt lat="45.10139530824333" lon="10.033590282936945"><ele>33.0</ele><time>2026-04-26T05:08:47.999Z</time></trkpt><trkpt lat="45.10145765084764" lon="10.033553125564294"><ele>33.0</ele><time>2026-04-26T05:08:48.999Z</time></trkpt><trkpt lat="45.10151911624219" lon="10.033515150484932"><ele>33.0</ele><time>2026-04-26T05:08:49.999Z</time></trkpt><trkpt lat="45.101582213018936" lon="10.033477574449728"><ele>33.0</ele><time>2026-04-26T05:08:50.999Z</time></trkpt><trkpt lat="45.10164427226978" lon="10.033438655924517"><ele>33.0</ele><time>2026-04-26T05:08:51.999Z</time></trkpt><trkpt lat="45.101706511220854" lon="10.033398890666797"><ele>33.0</ele><time>2026-04-26T05:08:52.999Z</time></trkpt><trkpt lat="45.1017685555771" lon="10.033360407071584"><ele>33.0</ele><time>2026-04-26T05:08:53.999Z</time></trkpt><trkpt lat="45.101831690059775" lon="10.033322655937782"><ele>33.0</ele><time>2026-04-26T05:08:54.999Z</time></trkpt><trkpt lat="45.10189486643788" lon="10.033284088324383"><ele>33.0</ele><time>2026-04-26T05:08:55.999Z</time></trkpt><trkpt lat="45.10195761307082" lon="10.033245509759665"><ele>33.0</ele><time>2026-04-26T05:08:56.999Z</time></trkpt><trkpt lat="45.102020518964885" lon="10.033206169233027"><ele>33.0</ele><time>2026-04-26T05:08:57.999Z</time></trkpt><trkpt lat="45.10208203108928" lon="10.033162728401864"><ele>33.0</ele><time>2026-04-26T05:08:58.999Z</time></trkpt><trkpt lat="45.10214328207663" lon="10.033117051861636"><ele>33.0</ele><time>2026-04-26T05:08:59.999Z</time></trkpt><trkpt lat="45.10220171867296" lon="10.033064800169461"><ele>33.0</ele><time>2026-04-26T05:09:00.999Z</time></trkpt><trkpt lat="45.102257471736436" lon="10.033005634999279"><ele>33.0</ele><time>2026-04-26T05:09:01.999Z</time></trkpt><trkpt lat="45.102311308342045" lon="10.032941295094998"><ele>33.0</ele><time>2026-04-26T05:09:02.999Z</time></trkpt><trkpt lat="45.10236194083818" lon="10.032873321410472"><ele>33.0</ele><time>2026-04-26T05:09:03.999Z</time></trkpt><trkpt lat="45.102409911876826" lon="10.032803228511478"><ele>33.0</ele><time>2026-04-26T05:09:04.999Z</time></trkpt><trkpt lat="45.102457823034115" lon="10.032733068467929"><ele>33.14285714285714</ele><time>2026-04-26T05:09:05.999Z</time></trkpt><trkpt lat="45.10250460139104" lon="10.032660899047807"><ele>33.285714285714285</ele><time>2026-04-26T05:09:06.999Z</time></trkpt><trkpt lat="45.1025499878312" lon="10.032587942812947"><ele>33.42857142857143</ele><time>2026-04-26T05:09:07.999Z</time></trkpt><trkpt lat="45.10259518366569" lon="10.032518360557624"><ele>33.57142857142857</ele><time>2026-04-26T05:09:08.999Z</time></trkpt><trkpt lat="45.10264300071289" lon="10.032447462821242"><ele>33.714285714285715</ele><time>2026-04-26T05:09:09.999Z</time></trkpt><trkpt lat="45.10268837109188" lon="10.032375295417886"><ele>33.857142857142854</ele><time>2026-04-26T05:09:10.999Z</time></trkpt><trkpt lat="45.102733031039485" lon="10.032301543177647"><ele>34.0</ele><time>2026-04-26T05:09:11.999Z</time></trkpt><trkpt lat="45.10277770469985" lon="10.032229793432164"><ele>33.99999999999999</ele><time>2026-04-26T05:09:12.999Z</time></trkpt><trkpt lat="45.10282339019043" lon="10.032154972173315"><ele>34.0</ele><time>2026-04-26T05:09:13.999Z</time></trkpt><trkpt lat="45.102867253046796" lon="10.032080457263971"><ele>34.0</ele><time>2026-04-26T05:09:14.999Z</time></trkpt><trkpt lat="45.10290918832079" lon="10.032004591515888"><ele>34.0</ele><time>2026-04-26T05:09:15.999Z</time></trkpt><trkpt lat="45.10294950090529" lon="10.031926016123691"><ele>34.0</ele><time>2026-04-26T05:09:16.999Z</time></trkpt><trkpt lat="45.10299311261272" lon="10.031848535063158"><ele>33.99999999999999</ele><time>2026-04-26T05:09:17.999Z</time></trkpt><trkpt lat="45.10303586917792" lon="10.031771559653956"><ele>34.0</ele><time>2026-04-26T05:09:18.999Z</time></trkpt><trkpt lat="45.10308010201473" lon="10.031695446855567"><ele>33.99999999999999</ele><time>2026-04-26T05:09:19.999Z</time></trkpt><trkpt lat="45.103123952541225" lon="10.031620261915927"><ele>34.0</ele><time>2026-04-26T05:09:20.999Z</time></trkpt><trkpt lat="45.10316811488058" lon="10.031544150058949"><ele>34.0</ele><time>2026-04-26T05:09:21.999Z</time></trkpt><trkpt lat="45.103212714172756" lon="10.031468356745787"><ele>34.0</ele><time>2026-04-26T05:09:22.999Z</time></trkpt><trkpt lat="45.10325989971864" lon="10.031387230433346"><ele>34.0</ele><time>2026-04-26T05:09:23.999Z</time></trkpt><trkpt lat="45.103308293187744" lon="10.031304558630012"><ele>33.99999999999999</ele><time>2026-04-26T05:09:24.999Z</time></trkpt><trkpt lat="45.10335607748606" lon="10.0312182864925"><ele>34.0</ele><time>2026-04-26T05:09:25.999Z</time></trkpt><trkpt lat="45.103404448744456" lon="10.03112934428937"><ele>34.333333333333336</ele><time>2026-04-26T05:09:26.999Z</time></trkpt><trkpt lat="45.103466344321326" lon="10.031053132548555"><ele>34.66666666666667</ele><time>2026-04-26T05:09:27.999Z</time></trkpt><trkpt lat="45.10352003199235" lon="10.03096280594838"><ele>35.0</ele><time>2026-04-26T05:09:28.998Z</time></trkpt><trkpt lat="45.103575542070786" lon="10.030877316278275"><ele>35.333333333333336</ele><time>2026-04-26T05:09:29.998Z</time></trkpt><trkpt lat="45.10364144116853" lon="10.030801910592322"><ele>35.666666666666664</ele><time>2026-04-26T05:09:30.998Z</time></trkpt><trkpt lat="45.10371467724328" lon="10.030740524356657"><ele>36.0</ele><time>2026-04-26T05:09:31.998Z</time></trkpt><trkpt lat="45.10379533358741" lon="10.030677604598207"><ele>36.333333333333336</ele><time>2026-04-26T05:09:32.998Z</time></trkpt><trkpt lat="45.10386667492656" lon="10.030620111708677"><ele>36.666666666666664</ele><time>2026-04-26T05:09:33.998Z</time></trkpt><trkpt lat="45.10393968988516" lon="10.030555908910703"><ele>37.0</ele><time>2026-04-26T05:09:34.998Z</time></trkpt><trkpt lat="45.10400796310683" lon="10.030497858643091"><ele>37.33333333333333</ele><time>2026-04-26T05:09:35.998Z</time></trkpt><trkpt lat="45.10408185533984" lon="10.030422060509848"><ele>37.666666666666664</ele><time>2026-04-26T05:09:36.998Z</time></trkpt><trkpt lat="45.104144402951725" lon="10.030347776453151"><ele>38.0</ele><time>2026-04-26T05:09:37.998Z</time></trkpt><trkpt lat="45.10420220025966" lon="10.030256136985658"><ele>38.0</ele><time>2026-04-26T05:09:38.998Z</time></trkpt><trkpt lat="45.10426117447051" lon="10.030105141331722"><ele>38.0</ele><time>2026-04-26T05:09:40.998Z</time></trkpt><trkpt lat="45.104280481780776" lon="10.030016055902601"><ele>38.0</ele><time>2026-04-26T05:09:41.998Z</time></trkpt><trkpt lat="45.10427578650147" lon="10.029916897398957"><ele>38.0</ele><time>2026-04-26T05:09:42.998Z</time></trkpt><trkpt lat="45.10427328196744" lon="10.029824834762907"><ele>38.0</ele><time>2026-04-26T05:09:43.998Z</time></trkpt><trkpt lat="45.10427191291462" lon="10.02973524585266"><ele>38.0</ele><time>2026-04-26T05:09:44.998Z</time></trkpt><trkpt lat="45.104270320375306" lon="10.029644179322935"><ele>38.0</ele><time>2026-04-26T05:09:45.998Z</time></trkpt><trkpt lat="45.1042751505201" lon="10.02947119347577"><ele>38.0</ele><time>2026-04-26T05:09:47.998Z</time></trkpt><trkpt lat="45.10429766494884" lon="10.029309037543811"><ele>38.0</ele><time>2026-04-26T05:09:49.998Z</time></trkpt><trkpt lat="45.10433502938612" lon="10.02915262071381"><ele>38.0</ele><time>2026-04-26T05:09:51.998Z</time></trkpt><trkpt lat="45.10437893173737" lon="10.029008594776144"><ele>37.83333333333333</ele><time>2026-04-26T05:09:53.998Z</time></trkpt><trkpt lat="45.10446809569876" lon="10.028904218631363"><ele>37.666666666666664</ele><time>2026-04-26T05:09:55.998Z</time></trkpt><trkpt lat="45.10457338492679" lon="10.02883452075423"><ele>37.5</ele><time>2026-04-26T05:09:57.998Z</time></trkpt><trkpt lat="45.10463009158052" lon="10.028788431392877"><ele>37.333333333333336</ele><time>2026-04-26T05:09:58.998Z</time></trkpt><trkpt lat="45.10468435821275" lon="10.02874128215092"><ele>37.16666666666667</ele><time>2026-04-26T05:09:59.998Z</time></trkpt><trkpt lat="45.10474023563371" lon="10.028694971747477"><ele>37.0</ele><time>2026-04-26T05:10:00.998Z</time></trkpt><trkpt lat="45.10479735700865" lon="10.028649588804955"><ele>37.0</ele><time>2026-04-26T05:10:01.998Z</time></trkpt><trkpt lat="45.10485542565654" lon="10.028605083008525"><ele>37.0</ele><time>2026-04-26T05:10:02.998Z</time></trkpt><trkpt lat="45.104914397277305" lon="10.028559791049368"><ele>37.0</ele><time>2026-04-26T05:10:03.998Z</time></trkpt><trkpt lat="45.10497239875375" lon="10.028518979167307"><ele>37.0</ele><time>2026-04-26T05:10:04.998Z</time></trkpt><trkpt lat="45.10503307420825" lon="10.028478671753879"><ele>37.0</ele><time>2026-04-26T05:10:05.998Z</time></trkpt><trkpt lat="45.10509396009469" lon="10.028439704763533"><ele>37.0</ele><time>2026-04-26T05:10:06.998Z</time></trkpt><trkpt lat="45.10515596319329" lon="10.028405142332701"><ele>37.0</ele><time>2026-04-26T05:10:07.998Z</time></trkpt><trkpt lat="45.105218603418365" lon="10.028370337908614"><ele>36.714285714285715</ele><time>2026-04-26T05:10:08.998Z</time></trkpt><trkpt lat="45.105280665145344" lon="10.028336319305213"><ele>36.42857142857143</ele><time>2026-04-26T05:10:09.998Z</time></trkpt><trkpt lat="45.105344858424694" lon="10.028301890885363"><ele>36.14285714285714</ele><time>2026-04-26T05:10:10.998Z</time></trkpt><trkpt lat="45.10540978529363" lon="10.028267068953287"><ele>35.85714285714286</ele><time>2026-04-26T05:10:12Z</time></trkpt><trkpt lat="45.105462927663616" lon="10.028193937542754"><ele>35.57142857142857</ele><time>2026-04-26T05:10:13Z</time></trkpt><trkpt lat="45.10552857354603" lon="10.02816196500021"><ele>35.285714285714285</ele><time>2026-04-26T05:10:14Z</time></trkpt><trkpt lat="45.10560182845807" lon="10.028164524276683"><ele>35.0</ele><time>2026-04-26T05:10:15Z</time></trkpt><trkpt lat="45.105666905984485" lon="10.028131273448562"><ele>34.714285714285715</ele><time>2026-04-26T05:10:16Z</time></trkpt><trkpt lat="45.10573200391852" lon="10.028099403983314"><ele>34.42857142857143</ele><time>2026-04-26T05:10:17Z</time></trkpt><trkpt lat="45.105798266300944" lon="10.02806768265887"><ele>34.14285714285714</ele><time>2026-04-26T05:10:18Z</time></trkpt><trkpt lat="45.105863870849426" lon="10.028039280009466"><ele>33.85714285714286</ele><time>2026-04-26T05:10:19Z</time></trkpt><trkpt lat="45.10593018115784" lon="10.028013804383157"><ele>33.57142857142857</ele><time>2026-04-26T05:10:20Z</time></trkpt><trkpt lat="45.105996536526575" lon="10.027994566630298"><ele>33.285714285714285</ele><time>2026-04-26T05:10:21Z</time></trkpt><trkpt lat="45.106063313994945" lon="10.027983653602707"><ele>33.0</ele><time>2026-04-26T05:10:22Z</time></trkpt><trkpt lat="45.10612956438836" lon="10.027980100367877"><ele>33.0</ele><time>2026-04-26T05:10:23Z</time></trkpt><trkpt lat="45.106198063695345" lon="10.02798010849697"><ele>33.0</ele><time>2026-04-26T05:10:24Z</time></trkpt><trkpt lat="45.10626811352573" lon="10.02798222758717"><ele>33.0</ele><time>2026-04-26T05:10:25Z</time></trkpt><trkpt lat="45.10633941160878" lon="10.027984384433305"><ele>33.0</ele><time>2026-04-26T05:10:26Z</time></trkpt><trkpt lat="45.10640802467486" lon="10.027987437193497"><ele>33.0</ele><time>2026-04-26T05:10:27Z</time></trkpt><trkpt lat="45.10647806686431" lon="10.027990667561115"><ele>33.0</ele><time>2026-04-26T05:10:28Z</time></trkpt><trkpt lat="45.10654791242321" lon="10.027993888856477"><ele>33.0</ele><time>2026-04-26T05:10:29Z</time></trkpt><trkpt lat="45.106617803547145" lon="10.027997112253582"><ele>33.285714285714285</ele><time>2026-04-26T05:10:30Z</time></trkpt><trkpt lat="45.10668762436259" lon="10.0280001896451"><ele>33.57142857142857</ele><time>2026-04-26T05:10:31Z</time></trkpt><trkpt lat="45.106757991041924" lon="10.028002940748065"><ele>33.85714285714286</ele><time>2026-04-26T05:10:32Z</time></trkpt><trkpt lat="45.10682882165165" lon="10.028005709991843"><ele>34.14285714285714</ele><time>2026-04-26T05:10:33Z</time></trkpt><trkpt lat="45.10690064887595" lon="10.028008518192228"><ele>34.42857142857143</ele><time>2026-04-26T05:10:34Z</time></trkpt><trkpt lat="45.10697066284926" lon="10.028011255505774"><ele>34.714285714285715</ele><time>2026-04-26T05:10:35Z</time></trkpt><trkpt lat="45.1070410169351" lon="10.028014006112405"><ele>35.0</ele><time>2026-04-26T05:10:36Z</time></trkpt><trkpt lat="45.107111061071464" lon="10.028016536585705"><ele>35.0</ele><time>2026-04-26T05:10:37Z</time></trkpt><trkpt lat="45.10718079864497" lon="10.028018808097203"><ele>35.0</ele><time>2026-04-26T05:10:38Z</time></trkpt><trkpt lat="45.10725117921719" lon="10.028021100555312"><ele>35.0</ele><time>2026-04-26T05:10:39Z</time></trkpt><trkpt lat="45.107320952405296" lon="10.028023373229956"><ele>35.0</ele><time>2026-04-26T05:10:39.999Z</time></trkpt><trkpt lat="45.10739003183669" lon="10.02802562330556"><ele>35.0</ele><time>2026-04-26T05:10:40.999Z</time></trkpt><trkpt lat="45.107460248437825" lon="10.028027598011148"><ele>35.0</ele><time>2026-04-26T05:10:41.999Z</time></trkpt><trkpt lat="45.10752954419055" lon="10.028029442758136"><ele>35.0</ele><time>2026-04-26T05:10:42.999Z</time></trkpt><trkpt lat="45.107599480257555" lon="10.028031304551766"><ele>34.57142857142857</ele><time>2026-04-26T05:10:43.999Z</time></trkpt><trkpt lat="45.10766774688356" lon="10.028033121902457"><ele>34.14285714285714</ele><time>2026-04-26T05:10:44.999Z</time></trkpt><trkpt lat="45.10773867208729" lon="10.02803501002331"><ele>33.714285714285715</ele><time>2026-04-26T05:10:45.999Z</time></trkpt><trkpt lat="45.10780837977433" lon="10.028036865739626"><ele>33.285714285714285</ele><time>2026-04-26T05:10:46.999Z</time></trkpt><trkpt lat="45.10787834676679" lon="10.028038728356565"><ele>32.857142857142854</ele><time>2026-04-26T05:10:47.999Z</time></trkpt><trkpt lat="45.107947026632594" lon="10.028040558589847"><ele>32.42857142857143</ele><time>2026-04-26T05:10:48.999Z</time></trkpt><trkpt lat="45.108017138415306" lon="10.028042425060095"><ele>32.0</ele><time>2026-04-26T05:10:49.999Z</time></trkpt><trkpt lat="45.10808658157532" lon="10.028044273730906"><ele>32.0</ele><time>2026-04-26T05:10:50.999Z</time></trkpt><trkpt lat="45.10815627931105" lon="10.028045528103224"><ele>31.999999999999996</ele><time>2026-04-26T05:10:51.999Z</time></trkpt><trkpt lat="45.108227008381306" lon="10.028046076752348"><ele>32.0</ele><time>2026-04-26T05:10:52.999Z</time></trkpt><trkpt lat="45.108295455457736" lon="10.028043979055475"><ele>32.0</ele><time>2026-04-26T05:10:53.999Z</time></trkpt><trkpt lat="45.10836460292502" lon="10.028041339193809"><ele>31.999999999999996</ele><time>2026-04-26T05:10:54.999Z</time></trkpt><trkpt lat="45.10843549657075" lon="10.028032581635522"><ele>32.0</ele><time>2026-04-26T05:10:55.999Z</time></trkpt><trkpt lat="45.108506370365674" lon="10.028017342907924"><ele>32.0</ele><time>2026-04-26T05:10:56.999Z</time></trkpt><trkpt lat="45.108577312116594" lon="10.0280009543197"><ele>32.14285714285714</ele><time>2026-04-26T05:10:57.999Z</time></trkpt><trkpt lat="45.10864652890878" lon="10.027982459704557"><ele>32.285714285714285</ele><time>2026-04-26T05:10:58.999Z</time></trkpt><trkpt lat="45.10871541111325" lon="10.027961918389975"><ele>32.42857142857143</ele><time>2026-04-26T05:10:59.999Z</time></trkpt><trkpt lat="45.10878456372143" lon="10.027940987926847"><ele>32.57142857142857</ele><time>2026-04-26T05:11:00.999Z</time></trkpt><trkpt lat="45.108852789180226" lon="10.027919976507347"><ele>32.714285714285715</ele><time>2026-04-26T05:11:01.999Z</time></trkpt><trkpt lat="45.10892153453622" lon="10.027898307163126"><ele>32.857142857142854</ele><time>2026-04-26T05:11:02.999Z</time></trkpt><trkpt lat="45.10898882001174" lon="10.027877097995397"><ele>33.0</ele><time>2026-04-26T05:11:03.999Z</time></trkpt><trkpt lat="45.1090564940107" lon="10.027854995707369"><ele>32.857142857142854</ele><time>2026-04-26T05:11:04.999Z</time></trkpt><trkpt lat="45.10912345646426" lon="10.027832631699765"><ele>32.714285714285715</ele><time>2026-04-26T05:11:05.999Z</time></trkpt><trkpt lat="45.109191032855186" lon="10.027810062647628"><ele>32.57142857142857</ele><time>2026-04-26T05:11:06.999Z</time></trkpt><trkpt lat="45.10925756690885" lon="10.027787841716345"><ele>32.42857142857143</ele><time>2026-04-26T05:11:07.999Z</time></trkpt><trkpt lat="45.10932421644857" lon="10.027765582214817"><ele>32.285714285714285</ele><time>2026-04-26T05:11:08.999Z</time></trkpt><trkpt lat="45.10939143579811" lon="10.027743132411072"><ele>32.14285714285714</ele><time>2026-04-26T05:11:09.999Z</time></trkpt><trkpt lat="45.109458020844386" lon="10.027720894446508"><ele>32.0</ele><time>2026-04-26T05:11:10.999Z</time></trkpt><trkpt lat="45.109527257460925" lon="10.027697770913546"><ele>32.0</ele><time>2026-04-26T05:11:11.999Z</time></trkpt><trkpt lat="45.1095959043416" lon="10.027674844345036"><ele>31.999999999999996</ele><time>2026-04-26T05:11:12.999Z</time></trkpt><trkpt lat="45.10966359549819" lon="10.02765223696583"><ele>32.0</ele><time>2026-04-26T05:11:13.999Z</time></trkpt><trkpt lat="45.109731324483135" lon="10.02762961695366"><ele>32.0</ele><time>2026-04-26T05:11:14.999Z</time></trkpt><trkpt lat="45.1097998630162" lon="10.027606677445755"><ele>31.999999999999996</ele><time>2026-04-26T05:11:15.999Z</time></trkpt><trkpt lat="45.10986811925816" lon="10.027583512984645"><ele>32.0</ele><time>2026-04-26T05:11:16.999Z</time></trkpt><trkpt lat="45.10993692318175" lon="10.027560162651984"><ele>32.0</ele><time>2026-04-26T05:11:17.999Z</time></trkpt><trkpt lat="45.110005212880594" lon="10.027536986835672"><ele>32.14285714285714</ele><time>2026-04-26T05:11:18.999Z</time></trkpt><trkpt lat="45.11007280966884" lon="10.027514046172602"><ele>32.285714285714285</ele><time>2026-04-26T05:11:19.999Z</time></trkpt><trkpt lat="45.110142202038396" lon="10.027489553050767"><ele>32.42857142857143</ele><time>2026-04-26T05:11:20.999Z</time></trkpt><trkpt lat="45.11020964072275" lon="10.02746463079426"><ele>32.57142857142857</ele><time>2026-04-26T05:11:21.999Z</time></trkpt><trkpt lat="45.110276705076494" lon="10.027439846874328"><ele>32.714285714285715</ele><time>2026-04-26T05:11:22.999Z</time></trkpt><trkpt lat="45.110343181068316" lon="10.02741465225556"><ele>32.857142857142854</ele><time>2026-04-26T05:11:23.999Z</time></trkpt><trkpt lat="45.11041064813502" lon="10.02738840600543"><ele>33.0</ele><time>2026-04-26T05:11:24.999Z</time></trkpt><trkpt lat="45.11047373827861" lon="10.027339658464532"><ele>33.0</ele><time>2026-04-26T05:11:25.999Z</time></trkpt><trkpt lat="45.110539453176884" lon="10.027315132156605"><ele>33.0</ele><time>2026-04-26T05:11:26.999Z</time></trkpt><trkpt lat="45.11060782520386" lon="10.027288014921304"><ele>33.0</ele><time>2026-04-26T05:11:27.999Z</time></trkpt><trkpt lat="45.11067394346656" lon="10.027261558056637"><ele>33.0</ele><time>2026-04-26T05:11:28.999Z</time></trkpt><trkpt lat="45.11074175097929" lon="10.02723108923185"><ele>33.0</ele><time>2026-04-26T05:11:29.999Z</time></trkpt><trkpt lat="45.11080647168203" lon="10.027198468760272"><ele>33.0</ele><time>2026-04-26T05:11:30.999Z</time></trkpt><trkpt lat="45.110877141876976" lon="10.027188005502378"><ele>33.0</ele><time>2026-04-26T05:11:31.999Z</time></trkpt><trkpt lat="45.11094340592695" lon="10.027153873618094"><ele>33.285714285714285</ele><time>2026-04-26T05:11:32.998Z</time></trkpt><trkpt lat="45.11101064432351" lon="10.02711914880499"><ele>33.57142857142857</ele><time>2026-04-26T05:11:33.998Z</time></trkpt><trkpt lat="45.11107709763482" lon="10.027084180372295"><ele>33.85714285714286</ele><time>2026-04-26T05:11:34.998Z</time></trkpt><trkpt lat="45.111141725926736" lon="10.027050172289604"><ele>34.14285714285714</ele><time>2026-04-26T05:11:35.998Z</time></trkpt><trkpt lat="45.11120780211713" lon="10.027015402306583"><ele>34.42857142857143</ele><time>2026-04-26T05:11:36.998Z</time></trkpt><trkpt lat="45.11127418730792" lon="10.026980214008413"><ele>34.714285714285715</ele><time>2026-04-26T05:11:37.998Z</time></trkpt><trkpt lat="45.111339219565814" lon="10.026945227629662"><ele>35.0</ele><time>2026-04-26T05:11:38.998Z</time></trkpt><trkpt lat="45.1114051951452" lon="10.026909733756247"><ele>35.0</ele><time>2026-04-26T05:11:39.998Z</time></trkpt><trkpt lat="45.11147075102875" lon="10.026874465672767"><ele>35.0</ele><time>2026-04-26T05:11:40.998Z</time></trkpt><trkpt lat="45.1115357125959" lon="10.026839517325142"><ele>35.0</ele><time>2026-04-26T05:11:41.998Z</time></trkpt><trkpt lat="45.11160171998107" lon="10.026803595317311"><ele>35.0</ele><time>2026-04-26T05:11:42.998Z</time></trkpt><trkpt lat="45.11166589560871" lon="10.026768448371014"><ele>35.0</ele><time>2026-04-26T05:11:43.998Z</time></trkpt><trkpt lat="45.11173109505018" lon="10.026732740709292"><ele>35.0</ele><time>2026-04-26T05:11:44.998Z</time></trkpt><trkpt lat="45.11179561702912" lon="10.02669740407666"><ele>35.0</ele><time>2026-04-26T05:11:45.998Z</time></trkpt><trkpt lat="45.111860889531116" lon="10.026660869943788"><ele>34.57142857142857</ele><time>2026-04-26T05:11:46.998Z</time></trkpt><trkpt lat="45.111925614241365" lon="10.026624562518233"><ele>34.14285714285714</ele><time>2026-04-26T05:11:47.998Z</time></trkpt><trkpt lat="45.1119911473494" lon="10.026587801627187"><ele>33.714285714285715</ele><time>2026-04-26T05:11:48.998Z</time></trkpt><trkpt lat="45.11205658016697" lon="10.026551096999277"><ele>33.285714285714285</ele><time>2026-04-26T05:11:49.998Z</time></trkpt><trkpt lat="45.112121366087216" lon="10.026514755240859"><ele>32.857142857142854</ele><time>2026-04-26T05:11:50.998Z</time></trkpt><trkpt lat="45.11218610734718" lon="10.026478438539591"><ele>32.42857142857143</ele><time>2026-04-26T05:11:51.998Z</time></trkpt><trkpt lat="45.11225089609108" lon="10.026442095198187"><ele>32.0</ele><time>2026-04-26T05:11:52.998Z</time></trkpt><trkpt lat="45.11231617351215" lon="10.026405682746104"><ele>32.0</ele><time>2026-04-26T05:11:53.998Z</time></trkpt><trkpt lat="45.11238090183401" lon="10.026370696950975"><ele>31.999999999999996</ele><time>2026-04-26T05:11:54.998Z</time></trkpt><trkpt lat="45.11244633653254" lon="10.026335329359158"><ele>32.0</ele><time>2026-04-26T05:11:55.998Z</time></trkpt><trkpt lat="45.11251161468569" lon="10.026300046376925"><ele>32.0</ele><time>2026-04-26T05:11:56.998Z</time></trkpt><trkpt lat="45.11257724936788" lon="10.026266863513664"><ele>31.999999999999996</ele><time>2026-04-26T05:11:57.998Z</time></trkpt><trkpt lat="45.11264174993813" lon="10.026235858483863"><ele>32.0</ele><time>2026-04-26T05:11:58.998Z</time></trkpt><trkpt lat="45.112707180352444" lon="10.02620771251372"><ele>32.0</ele><time>2026-04-26T05:11:59.998Z</time></trkpt><trkpt lat="45.112772669018185" lon="10.026182743338858"><ele>32.0</ele><time>2026-04-26T05:12:00.998Z</time></trkpt><trkpt lat="45.11283931204321" lon="10.026157794476946"><ele>31.999999999999996</ele><time>2026-04-26T05:12:01.998Z</time></trkpt><trkpt lat="45.11290638891005" lon="10.026134514182264"><ele>32.0</ele><time>2026-04-26T05:12:02.998Z</time></trkpt><trkpt lat="45.112974847082995" lon="10.026110754511565"><ele>32.0</ele><time>2026-04-26T05:12:03.998Z</time></trkpt><trkpt lat="45.11304242342556" lon="10.026087833205239"><ele>31.999999999999996</ele><time>2026-04-26T05:12:04.998Z</time></trkpt><trkpt lat="45.113109481148406" lon="10.02606585022654"><ele>32.0</ele><time>2026-04-26T05:12:05.998Z</time></trkpt><trkpt lat="45.113176488409785" lon="10.026044300100297"><ele>32.0</ele><time>2026-04-26T05:12:06.998Z</time></trkpt><trkpt lat="45.11324481752892" lon="10.026023152107742"><ele>32.14285714285714</ele><time>2026-04-26T05:12:07.998Z</time></trkpt><trkpt lat="45.113312468817064" lon="10.026002213911415"><ele>32.285714285714285</ele><time>2026-04-26T05:12:08.998Z</time></trkpt><trkpt lat="45.11338018723078" lon="10.02598142267471"><ele>32.42857142857143</ele><time>2026-04-26T05:12:09.998Z</time></trkpt><trkpt lat="45.11344751493554" lon="10.025961734904318"><ele>32.57142857142857</ele><time>2026-04-26T05:12:10.998Z</time></trkpt><trkpt lat="45.11351543531644" lon="10.025941873826497"><ele>32.714285714285715</ele><time>2026-04-26T05:12:11.998Z</time></trkpt><trkpt lat="45.113580480172196" lon="10.025922908928946"><ele>32.857142857142854</ele><time>2026-04-26T05:12:12.998Z</time></trkpt><trkpt lat="45.11364426559729" lon="10.025900980142012"><ele>33.0</ele><time>2026-04-26T05:12:13.998Z</time></trkpt><trkpt lat="45.11370738434213" lon="10.02587928054729"><ele>33.0</ele><time>2026-04-26T05:12:14.998Z</time></trkpt><trkpt lat="45.11377575346574" lon="10.025856885435365"><ele>33.0</ele><time>2026-04-26T05:12:15.998Z</time></trkpt><trkpt lat="45.113845968811326" lon="10.025834802966552"><ele>33.0</ele><time>2026-04-26T05:12:16.998Z</time></trkpt><trkpt lat="45.11391634559557" lon="10.025812669730103"><ele>33.0</ele><time>2026-04-26T05:12:18Z</time></trkpt><trkpt lat="45.11398536838113" lon="10.02579096231519"><ele>33.0</ele><time>2026-04-26T05:12:19Z</time></trkpt><trkpt lat="45.114055495842464" lon="10.025768907488535"><ele>33.0</ele><time>2026-04-26T05:12:20Z</time></trkpt><trkpt lat="45.11412569903857" lon="10.025746828841685"><ele>33.0</ele><time>2026-04-26T05:12:21Z</time></trkpt><trkpt lat="45.114195648852686" lon="10.025724829884242"><ele>32.714285714285715</ele><time>2026-04-26T05:12:22Z</time></trkpt><trkpt lat="45.11426570971382" lon="10.025702796003172"><ele>32.42857142857143</ele><time>2026-04-26T05:12:23Z</time></trkpt><trkpt lat="45.11433558023363" lon="10.025680821979863"><ele>32.142857142857146</ele><time>2026-04-26T05:12:24Z</time></trkpt><trkpt lat="45.114404245827366" lon="10.025659226903155"><ele>31.857142857142858</ele><time>2026-04-26T05:12:25Z</time></trkpt><trkpt lat="45.11447403271359" lon="10.025637279183705"><ele>31.571428571428577</ele><time>2026-04-26T05:12:26Z</time></trkpt><trkpt lat="45.11454270517791" lon="10.025615681947954"><ele>31.28571428571429</ele><time>2026-04-26T05:12:27Z</time></trkpt><trkpt lat="45.11461049527937" lon="10.025594362209869"><ele>31.0</ele><time>2026-04-26T05:12:28Z</time></trkpt><trkpt lat="45.114680139821985" lon="10.025570612084055"><ele>31.0</ele><time>2026-04-26T05:12:29Z</time></trkpt><trkpt lat="45.114748616685944" lon="10.02554637398381"><ele>31.000000000000004</ele><time>2026-04-26T05:12:30Z</time></trkpt><trkpt lat="45.11481686994271" lon="10.025521061194585"><ele>31.0</ele><time>2026-04-26T05:12:31Z</time></trkpt><trkpt lat="45.114886200942344" lon="10.02549526010525"><ele>31.0</ele><time>2026-04-26T05:12:32Z</time></trkpt><trkpt lat="45.114954139844706" lon="10.025469055107804"><ele>31.000000000000004</ele><time>2026-04-26T05:12:33Z</time></trkpt><trkpt lat="45.115020904884325" lon="10.025443302878609"><ele>31.0</ele><time>2026-04-26T05:12:34Z</time></trkpt><trkpt lat="45.11508942761992" lon="10.025416872680516"><ele>31.0</ele><time>2026-04-26T05:12:35Z</time></trkpt><trkpt lat="45.11515720920194" lon="10.02539072835451"><ele>31.0</ele><time>2026-04-26T05:12:36Z</time></trkpt><trkpt lat="45.115222726438425" lon="10.025365457418447"><ele>31.000000000000004</ele><time>2026-04-26T05:12:37Z</time></trkpt><trkpt lat="45.115291028786714" lon="10.025339112228126"><ele>31.0</ele><time>2026-04-26T05:12:38Z</time></trkpt><trkpt lat="45.11535775104073" lon="10.025313376502456"><ele>31.0</ele><time>2026-04-26T05:12:39Z</time></trkpt><trkpt lat="45.11542552153167" lon="10.025287119061435"><ele>31.000000000000004</ele><time>2026-04-26T05:12:40Z</time></trkpt><trkpt lat="45.1154931223027" lon="10.025259428129058"><ele>31.0</ele><time>2026-04-26T05:12:41Z</time></trkpt><trkpt lat="45.11555886009727" lon="10.025231132284874"><ele>31.0</ele><time>2026-04-26T05:12:42Z</time></trkpt><trkpt lat="45.115625589420425" lon="10.025199357464123"><ele>31.0</ele><time>2026-04-26T05:12:43Z</time></trkpt><trkpt lat="45.115689907696535" lon="10.025157040226869"><ele>31.000000000000004</ele><time>2026-04-26T05:12:43.999Z</time></trkpt><trkpt lat="45.11575294370108" lon="10.025103575380186"><ele>31.0</ele><time>2026-04-26T05:12:44.999Z</time></trkpt><trkpt lat="45.11579881758266" lon="10.025024148626297"><ele>31.0</ele><time>2026-04-26T05:12:45.999Z</time></trkpt><trkpt lat="45.1158504261808" lon="10.024954549201157"><ele>31.000000000000004</ele><time>2026-04-26T05:12:46.999Z</time></trkpt><trkpt lat="45.11589305853815" lon="10.024876479578772"><ele>31.0</ele><time>2026-04-26T05:12:47.999Z</time></trkpt><trkpt lat="45.11593035521632" lon="10.024789576895012"><ele>31.0</ele><time>2026-04-26T05:12:48.999Z</time></trkpt><trkpt lat="45.11596190493357" lon="10.024699464700713"><ele>31.142857142857146</ele><time>2026-04-26T05:12:49.999Z</time></trkpt><trkpt lat="45.11600716530853" lon="10.024620710941576"><ele>31.28571428571429</ele><time>2026-04-26T05:12:50.999Z</time></trkpt><trkpt lat="45.11603968655783" lon="10.024533164847808"><ele>31.42857142857143</ele><time>2026-04-26T05:12:51.999Z</time></trkpt><trkpt lat="45.11607255134187" lon="10.02444469398598"><ele>31.57142857142857</ele><time>2026-04-26T05:12:52.999Z</time></trkpt><trkpt lat="45.11610543901212" lon="10.024356161497654"><ele>31.71428571428571</ele><time>2026-04-26T05:12:53.999Z</time></trkpt><trkpt lat="45.11613902077331" lon="10.024265760526182"><ele>31.857142857142854</ele><time>2026-04-26T05:12:54.999Z</time></trkpt><trkpt lat="45.11617086133996" lon="10.02418004683072"><ele>32.0</ele><time>2026-04-26T05:12:55.999Z</time></trkpt><trkpt lat="45.11620370419328" lon="10.024091634978364"><ele>32.0</ele><time>2026-04-26T05:12:56.999Z</time></trkpt><trkpt lat="45.116236821051935" lon="10.024002485530435"><ele>31.999999999999996</ele><time>2026-04-26T05:12:57.999Z</time></trkpt><trkpt lat="45.11626955857386" lon="10.023914357237441"><ele>32.0</ele><time>2026-04-26T05:12:58.999Z</time></trkpt><trkpt lat="45.11630287035132" lon="10.023825413167934"><ele>32.0</ele><time>2026-04-26T05:12:59.999Z</time></trkpt><trkpt lat="45.11633714560968" lon="10.023738035389183"><ele>31.999999999999996</ele><time>2026-04-26T05:13:00.999Z</time></trkpt><trkpt lat="45.11637091945583" lon="10.02365193590316"><ele>32.0</ele><time>2026-04-26T05:13:01.999Z</time></trkpt><trkpt lat="45.11640737225428" lon="10.023567433218702"><ele>32.0</ele><time>2026-04-26T05:13:02.999Z</time></trkpt><trkpt lat="45.11644624922849" lon="10.023485110427709"><ele>32.0</ele><time>2026-04-26T05:13:03.999Z</time></trkpt><trkpt lat="45.11648525282939" lon="10.023404149267883"><ele>31.999999999999996</ele><time>2026-04-26T05:13:04.999Z</time></trkpt><trkpt lat="45.116526696201525" lon="10.023324226148503"><ele>32.0</ele><time>2026-04-26T05:13:05.999Z</time></trkpt><trkpt lat="45.11656865866821" lon="10.023246044730515"><ele>32.0</ele><time>2026-04-26T05:13:06.999Z</time></trkpt><trkpt lat="45.116611977586174" lon="10.023168199245458"><ele>31.999999999999996</ele><time>2026-04-26T05:13:07.999Z</time></trkpt><trkpt lat="45.11665539850062" lon="10.023090170478037"><ele>32.0</ele><time>2026-04-26T05:13:08.999Z</time></trkpt><trkpt lat="45.116697808572624" lon="10.023013958231209"><ele>32.0</ele><time>2026-04-26T05:13:09.999Z</time></trkpt><trkpt lat="45.116741528250095" lon="10.022935392573235"><ele>32.0</ele><time>2026-04-26T05:13:10.999Z</time></trkpt><trkpt lat="45.11678399952776" lon="10.02285907034077"><ele>31.999999999999996</ele><time>2026-04-26T05:13:11.999Z</time></trkpt><trkpt lat="45.11682781983618" lon="10.0227828066144"><ele>32.0</ele><time>2026-04-26T05:13:12.999Z</time></trkpt><trkpt lat="45.11687173713031" lon="10.022710340098888"><ele>32.0</ele><time>2026-04-26T05:13:13.999Z</time></trkpt><trkpt lat="45.116918108946926" lon="10.022637833656802"><ele>31.999999999999996</ele><time>2026-04-26T05:13:14.999Z</time></trkpt><trkpt lat="45.1169661633945" lon="10.022569062604475"><ele>32.0</ele><time>2026-04-26T05:13:15.999Z</time></trkpt><trkpt lat="45.11701701647047" lon="10.022501515047527"><ele>32.0</ele><time>2026-04-26T05:13:16.999Z</time></trkpt><trkpt lat="45.11706759758884" lon="10.022435172723226"><ele>32.0</ele><time>2026-04-26T05:13:17.999Z</time></trkpt><trkpt lat="45.11712040157255" lon="10.022377143657135"><ele>31.999999999999996</ele><time>2026-04-26T05:13:18.999Z</time></trkpt><trkpt lat="45.1171743127361" lon="10.022315430665907"><ele>32.0</ele><time>2026-04-26T05:13:19.999Z</time></trkpt><trkpt lat="45.11722783627193" lon="10.022254161401099"><ele>32.0</ele><time>2026-04-26T05:13:20.999Z</time></trkpt><trkpt lat="45.11728153372197" lon="10.022191325890292"><ele>31.999999999999996</ele><time>2026-04-26T05:13:21.999Z</time></trkpt><trkpt lat="45.11733377142581" lon="10.022129579868997"><ele>32.0</ele><time>2026-04-26T05:13:22.999Z</time></trkpt><trkpt lat="45.11738721232419" lon="10.022066411654919"><ele>32.0</ele><time>2026-04-26T05:13:23.999Z</time></trkpt><trkpt lat="45.117440154872014" lon="10.022003832518227"><ele>32.0</ele><time>2026-04-26T05:13:24.999Z</time></trkpt><trkpt lat="45.11749183931212" lon="10.021942740468342"><ele>31.999999999999996</ele><time>2026-04-26T05:13:25.999Z</time></trkpt><trkpt lat="45.11754438103899" lon="10.02188063635099"><ele>32.0</ele><time>2026-04-26T05:13:26.999Z</time></trkpt><trkpt lat="45.11759728229903" lon="10.021818106324403"><ele>32.0</ele><time>2026-04-26T05:13:27.999Z</time></trkpt><trkpt lat="45.117649374975166" lon="10.0217565316251"><ele>31.999999999999996</ele><time>2026-04-26T05:13:28.999Z</time></trkpt><trkpt lat="45.1177012607445" lon="10.021695328364403"><ele>32.0</ele><time>2026-04-26T05:13:29.999Z</time></trkpt><trkpt lat="45.11775535602656" lon="10.021632562123832"><ele>32.0</ele><time>2026-04-26T05:13:30.999Z</time></trkpt><trkpt lat="45.1178086931773" lon="10.02157067508227"><ele>32.0</ele><time>2026-04-26T05:13:31.999Z</time></trkpt><trkpt lat="45.117862601033714" lon="10.021508848734994"><ele>31.999999999999996</ele><time>2026-04-26T05:13:32.999Z</time></trkpt><trkpt lat="45.117916420431655" lon="10.021447078841955"><ele>32.0</ele><time>2026-04-26T05:13:33.999Z</time></trkpt><trkpt lat="45.117970513382694" lon="10.021384460449571"><ele>32.0</ele><time>2026-04-26T05:13:34.999Z</time></trkpt><trkpt lat="45.11802345438557" lon="10.02132189921966"><ele>31.999999999999996</ele><time>2026-04-26T05:13:35.999Z</time></trkpt><trkpt lat="45.118076861497876" lon="10.021257427413369"><ele>32.0</ele><time>2026-04-26T05:13:36.998Z</time></trkpt><trkpt lat="45.11812895732016" lon="10.021193584388977"><ele>32.0</ele><time>2026-04-26T05:13:37.998Z</time></trkpt><trkpt lat="45.11818023610463" lon="10.021130076444784"><ele>32.0</ele><time>2026-04-26T05:13:38.998Z</time></trkpt><trkpt lat="45.118230936026954" lon="10.021065675984731"><ele>31.999999999999996</ele><time>2026-04-26T05:13:39.998Z</time></trkpt><trkpt lat="45.11828389281293" lon="10.020997531546822"><ele>32.0</ele><time>2026-04-26T05:13:40.998Z</time></trkpt><trkpt lat="45.11833457934883" lon="10.02092843887801"><ele>32.0</ele><time>2026-04-26T05:13:41.998Z</time></trkpt><trkpt lat="45.11838465189901" lon="10.020857598901024"><ele>31.999999999999996</ele><time>2026-04-26T05:13:42.998Z</time></trkpt><trkpt lat="45.11843425305835" lon="10.020786064806561"><ele>32.0</ele><time>2026-04-26T05:13:43.998Z</time></trkpt><trkpt lat="45.118482831665816" lon="10.020714950183894"><ele>32.0</ele><time>2026-04-26T05:13:44.998Z</time></trkpt><trkpt lat="45.118531230184516" lon="10.020644099189045"><ele>32.14285714285714</ele><time>2026-04-26T05:13:45.998Z</time></trkpt><trkpt lat="45.118581088490565" lon="10.020570934895616"><ele>32.285714285714285</ele><time>2026-04-26T05:13:46.998Z</time></trkpt><trkpt lat="45.11863036911046" lon="10.020498602486732"><ele>32.42857142857143</ele><time>2026-04-26T05:13:47.998Z</time></trkpt><trkpt lat="45.11867989668964" lon="10.020425877129536"><ele>32.57142857142857</ele><time>2026-04-26T05:13:48.998Z</time></trkpt><trkpt lat="45.11872866208856" lon="10.020354167129778"><ele>32.714285714285715</ele><time>2026-04-26T05:13:49.998Z</time></trkpt><trkpt lat="45.118777314032535" lon="10.020282623948713"><ele>32.857142857142854</ele><time>2026-04-26T05:13:50.998Z</time></trkpt><trkpt lat="45.118826338945844" lon="10.02021053236091"><ele>33.0</ele><time>2026-04-26T05:13:51.998Z</time></trkpt><trkpt lat="45.11887483462303" lon="10.020139218978622"><ele>33.0</ele><time>2026-04-26T05:13:52.998Z</time></trkpt><trkpt lat="45.11892367826961" lon="10.020067393927915"><ele>33.0</ele><time>2026-04-26T05:13:53.998Z</time></trkpt><trkpt lat="45.11897266738025" lon="10.019995207370302"><ele>33.0</ele><time>2026-04-26T05:13:54.998Z</time></trkpt><trkpt lat="45.1190206873799" lon="10.019922302209054"><ele>33.0</ele><time>2026-04-26T05:13:55.998Z</time></trkpt><trkpt lat="45.11906857693642" lon="10.019849202456562"><ele>33.0</ele><time>2026-04-26T05:13:56.998Z</time></trkpt><trkpt lat="45.119116434992044" lon="10.01977525105467"><ele>33.0</ele><time>2026-04-26T05:13:57.998Z</time></trkpt><trkpt lat="45.11916365610732" lon="10.019701092400242"><ele>33.0</ele><time>2026-04-26T05:13:58.998Z</time></trkpt><trkpt lat="45.11921070916676" lon="10.019624285130627"><ele>33.0</ele><time>2026-04-26T05:13:59.998Z</time></trkpt><trkpt lat="45.119254872430766" lon="10.019545575373956"><ele>33.0</ele><time>2026-04-26T05:14:00.998Z</time></trkpt><trkpt lat="45.11929705088028" lon="10.019463654774986"><ele>33.0</ele><time>2026-04-26T05:14:01.998Z</time></trkpt><trkpt lat="45.11933721747145" lon="10.01938017830716"><ele>33.0</ele><time>2026-04-26T05:14:02.998Z</time></trkpt><trkpt lat="45.11937625616597" lon="10.019295230431617"><ele>33.0</ele><time>2026-04-26T05:14:03.998Z</time></trkpt><trkpt lat="45.11941344527607" lon="10.019209283479992"><ele>33.0</ele><time>2026-04-26T05:14:04.998Z</time></trkpt><trkpt lat="45.11944860251628" lon="10.019124008421917"><ele>33.0</ele><time>2026-04-26T05:14:05.998Z</time></trkpt><trkpt lat="45.11947112131293" lon="10.019023743335802"><ele>32.857142857142854</ele><time>2026-04-26T05:14:06.998Z</time></trkpt><trkpt lat="45.11950672339082" lon="10.018937195329311"><ele>32.714285714285715</ele><time>2026-04-26T05:14:07.998Z</time></trkpt><trkpt lat="45.119542099840295" lon="10.018851898913182"><ele>32.57142857142857</ele><time>2026-04-26T05:14:08.998Z</time></trkpt><trkpt lat="45.11959268346271" lon="10.01877802613578"><ele>32.42857142857143</ele><time>2026-04-26T05:14:09.998Z</time></trkpt><trkpt lat="45.11962882569911" lon="10.018692559288715"><ele>32.285714285714285</ele><time>2026-04-26T05:14:10.998Z</time></trkpt><trkpt lat="45.119664947226745" lon="10.018607141435002"><ele>32.14285714285714</ele><time>2026-04-26T05:14:11.998Z</time></trkpt><trkpt lat="45.11970116071372" lon="10.018521506104012"><ele>32.0</ele><time>2026-04-26T05:14:12.998Z</time></trkpt><trkpt lat="45.119737006980564" lon="10.01843673913813"><ele>32.0</ele><time>2026-04-26T05:14:13.998Z</time></trkpt><trkpt lat="45.1197729827846" lon="10.018351194520426"><ele>31.999999999999996</ele><time>2026-04-26T05:14:14.998Z</time></trkpt><trkpt lat="45.11980892043879" lon="10.018266758374581"><ele>32.0</ele><time>2026-04-26T05:14:15.998Z</time></trkpt><trkpt lat="45.119844896988575" lon="10.018183056811937"><ele>32.0</ele><time>2026-04-26T05:14:16.998Z</time></trkpt><trkpt lat="45.1198813056926" lon="10.018097915611365"><ele>31.999999999999996</ele><time>2026-04-26T05:14:17.998Z</time></trkpt><trkpt lat="45.11991689804744" lon="10.018014279538717"><ele>32.0</ele><time>2026-04-26T05:14:18.998Z</time></trkpt><trkpt lat="45.11995316284083" lon="10.017929063340214"><ele>32.0</ele><time>2026-04-26T05:14:19.998Z</time></trkpt><trkpt lat="45.11998925206927" lon="10.017844259661711"><ele>32.285714285714285</ele><time>2026-04-26T05:14:20.998Z</time></trkpt><trkpt lat="45.12002534196712" lon="10.017759454455684"><ele>32.57142857142857</ele><time>2026-04-26T05:14:21.998Z</time></trkpt><trkpt lat="45.12006156001529" lon="10.017674507914021"><ele>32.857142857142854</ele><time>2026-04-26T05:14:23Z</time></trkpt><trkpt lat="45.12009735398666" lon="10.017590375054885"><ele>33.14285714285714</ele><time>2026-04-26T05:14:24Z</time></trkpt><trkpt lat="45.1201333976562" lon="10.017505596276614"><ele>33.42857142857143</ele><time>2026-04-26T05:14:25Z</time></trkpt><trkpt lat="45.12016934652126" lon="10.017421040532087"><ele>33.71428571428571</ele><time>2026-04-26T05:14:26Z</time></trkpt><trkpt lat="45.12020491823736" lon="10.017337371779895"><ele>34.0</ele><time>2026-04-26T05:14:27Z</time></trkpt><trkpt lat="45.12024107375422" lon="10.017252364624923"><ele>33.99999999999999</ele><time>2026-04-26T05:14:28Z</time></trkpt><trkpt lat="45.12027739529209" lon="10.017166971532056"><ele>34.0</ele><time>2026-04-26T05:14:29Z</time></trkpt><trkpt lat="45.120313215238845" lon="10.017082757737306"><ele>34.0</ele><time>2026-04-26T05:14:30Z</time></trkpt><trkpt lat="45.12034917813816" lon="10.016998207780173"><ele>34.0</ele><time>2026-04-26T05:14:31Z</time></trkpt><trkpt lat="45.120384848403184" lon="10.016914345946999"><ele>34.0</ele><time>2026-04-26T05:14:32Z</time></trkpt><trkpt lat="45.12042151828077" lon="10.016829565323372"><ele>33.99999999999999</ele><time>2026-04-26T05:14:33Z</time></trkpt><trkpt lat="45.12045840897025" lon="10.016745686607942"><ele>34.0</ele><time>2026-04-26T05:14:34Z</time></trkpt><trkpt lat="45.12049490731989" lon="10.016662699958191"><ele>33.857142857142854</ele><time>2026-04-26T05:14:35Z</time></trkpt><trkpt lat="45.12053196401407" lon="10.016578443749374"><ele>33.714285714285715</ele><time>2026-04-26T05:14:36Z</time></trkpt><trkpt lat="45.120569041632194" lon="10.016494139974126"><ele>33.57142857142857</ele><time>2026-04-26T05:14:37Z</time></trkpt><trkpt lat="45.12060559618853" lon="10.016411025561299"><ele>33.42857142857143</ele><time>2026-04-26T05:14:38Z</time></trkpt><trkpt lat="45.120644496096546" lon="10.016327543990332"><ele>33.285714285714285</ele><time>2026-04-26T05:14:39Z</time></trkpt><trkpt lat="45.12068588330844" lon="10.016246151687437"><ele>33.14285714285714</ele><time>2026-04-26T05:14:40Z</time></trkpt><trkpt lat="45.12072818884253" lon="10.016167301014963"><ele>33.0</ele><time>2026-04-26T05:14:41Z</time></trkpt><trkpt lat="45.12077060837135" lon="10.0160888593927"><ele>33.0</ele><time>2026-04-26T05:14:42Z</time></trkpt><trkpt lat="45.1208135379666" lon="10.016009474514602"><ele>33.0</ele><time>2026-04-26T05:14:43Z</time></trkpt><trkpt lat="45.120856430641744" lon="10.01593015794603"><ele>33.0</ele><time>2026-04-26T05:14:44Z</time></trkpt><trkpt lat="45.12089973946408" lon="10.015850071822369"><ele>33.0</ele><time>2026-04-26T05:14:45Z</time></trkpt><trkpt lat="45.12094179699763" lon="10.015772299624762"><ele>33.0</ele><time>2026-04-26T05:14:46Z</time></trkpt><trkpt lat="45.12098548863692" lon="10.015691505578388"><ele>33.0</ele><time>2026-04-26T05:14:46.999Z</time></trkpt><trkpt lat="45.12102849402523" lon="10.015612144122917"><ele>33.0</ele><time>2026-04-26T05:14:47.999Z</time></trkpt><trkpt lat="45.12107240360765" lon="10.015532228666196"><ele>33.42857142857143</ele><time>2026-04-26T05:14:48.999Z</time></trkpt><trkpt lat="45.12111613498973" lon="10.015453428879434"><ele>33.85714285714286</ele><time>2026-04-26T05:14:49.999Z</time></trkpt><trkpt lat="45.121160067166315" lon="10.015374962378171"><ele>34.28571428571429</ele><time>2026-04-26T05:14:50.999Z</time></trkpt><trkpt lat="45.121203456660126" lon="10.015297465162526"><ele>34.714285714285715</ele><time>2026-04-26T05:14:51.999Z</time></trkpt><trkpt lat="45.121246319367536" lon="10.015220908813836"><ele>35.142857142857146</ele><time>2026-04-26T05:14:52.999Z</time></trkpt><trkpt lat="45.12129062853529" lon="10.015141769009347"><ele>35.57142857142858</ele><time>2026-04-26T05:14:53.999Z</time></trkpt><trkpt lat="45.121333349591495" lon="10.01506585807486"><ele>36.0</ele><time>2026-04-26T05:14:54.999Z</time></trkpt><trkpt lat="45.121377778072926" lon="10.014988722304098"><ele>36.142857142857146</ele><time>2026-04-26T05:14:55.999Z</time></trkpt><trkpt lat="45.12142179942859" lon="10.014912293357519"><ele>36.285714285714285</ele><time>2026-04-26T05:14:56.999Z</time></trkpt><trkpt lat="45.121466821664434" lon="10.01483412666199"><ele>36.42857142857143</ele><time>2026-04-26T05:14:57.999Z</time></trkpt><trkpt lat="45.121511784749714" lon="10.014757873328037"><ele>36.57142857142857</ele><time>2026-04-26T05:14:58.999Z</time></trkpt><trkpt lat="45.121556891808176" lon="10.014682256688557"><ele>36.714285714285715</ele><time>2026-04-26T05:14:59.999Z</time></trkpt><trkpt lat="45.12160284340913" lon="10.014607750662913"><ele>36.85714285714286</ele><time>2026-04-26T05:15:00.999Z</time></trkpt><trkpt lat="45.1216489593278" lon="10.014532978224095"><ele>37.0</ele><time>2026-04-26T05:15:01.999Z</time></trkpt><trkpt lat="45.12169454323096" lon="10.014459068388861"><ele>37.0</ele><time>2026-04-26T05:15:02.999Z</time></trkpt><trkpt lat="45.12174087335686" lon="10.014383948643577"><ele>37.0</ele><time>2026-04-26T05:15:03.999Z</time></trkpt><trkpt lat="45.121774404405585" lon="10.014294713097433"><ele>37.0</ele><time>2026-04-26T05:15:04.999Z</time></trkpt><trkpt lat="45.12182050078649" lon="10.014220289055517"><ele>37.0</ele><time>2026-04-26T05:15:05.999Z</time></trkpt><trkpt lat="45.121879444890965" lon="10.01416133866121"><ele>37.0</ele><time>2026-04-26T05:15:06.999Z</time></trkpt><trkpt lat="45.12192556889372" lon="10.014089021442283"><ele>37.0</ele><time>2026-04-26T05:15:07.999Z</time></trkpt><trkpt lat="45.12197213847799" lon="10.014016005617146"><ele>37.0</ele><time>2026-04-26T05:15:08.999Z</time></trkpt><trkpt lat="45.12201903716941" lon="10.013941862813471"><ele>36.285714285714285</ele><time>2026-04-26T05:15:09.999Z</time></trkpt><trkpt lat="45.1220651987422" lon="10.013866299890275"><ele>35.57142857142857</ele><time>2026-04-26T05:15:10.999Z</time></trkpt><trkpt lat="45.12211058507047" lon="10.013792005943419"><ele>34.857142857142854</ele><time>2026-04-26T05:15:11.999Z</time></trkpt><trkpt lat="45.12215599070162" lon="10.01371768042802"><ele>34.14285714285714</ele><time>2026-04-26T05:15:12.999Z</time></trkpt><trkpt lat="45.12220168937166" lon="10.013642875240896"><ele>33.42857142857142</ele><time>2026-04-26T05:15:13.999Z</time></trkpt><trkpt lat="45.12224709152118" lon="10.013570250013975"><ele>32.714285714285715</ele><time>2026-04-26T05:15:14.999Z</time></trkpt><trkpt lat="45.122294734858286" lon="10.013494190509368"><ele>32.0</ele><time>2026-04-26T05:15:15.999Z</time></trkpt><trkpt lat="45.122340547034916" lon="10.013421054324958"><ele>32.0</ele><time>2026-04-26T05:15:16.999Z</time></trkpt><trkpt lat="45.122385811103356" lon="10.013346710863166"><ele>31.999999999999996</ele><time>2026-04-26T05:15:17.999Z</time></trkpt><trkpt lat="45.122431844573974" lon="10.013269124094096"><ele>32.0</ele><time>2026-04-26T05:15:18.999Z</time></trkpt><trkpt lat="45.12247717567913" lon="10.013192721123438"><ele>32.0</ele><time>2026-04-26T05:15:19.999Z</time></trkpt><trkpt lat="45.12252094310703" lon="10.013112858784654"><ele>31.999999999999996</ele><time>2026-04-26T05:15:20.999Z</time></trkpt><trkpt lat="45.12256244449657" lon="10.013030389406158"><ele>32.0</ele><time>2026-04-26T05:15:21.999Z</time></trkpt><trkpt lat="45.12260045032166" lon="10.01294566103559"><ele>32.0</ele><time>2026-04-26T05:15:22.999Z</time></trkpt><trkpt lat="45.12263703096181" lon="10.01285901733038"><ele>31.857142857142854</ele><time>2026-04-26T05:15:23.999Z</time></trkpt><trkpt lat="45.122660435228" lon="10.012763460761121"><ele>31.71428571428571</ele><time>2026-04-26T05:15:24.999Z</time></trkpt><trkpt lat="45.12269549666213" lon="10.012675499251754"><ele>31.57142857142857</ele><time>2026-04-26T05:15:25.999Z</time></trkpt><trkpt lat="45.12272894094811" lon="10.012588256035826"><ele>31.42857142857143</ele><time>2026-04-26T05:15:26.999Z</time></trkpt><trkpt lat="45.12277678197236" lon="10.01251309003074"><ele>31.28571428571429</ele><time>2026-04-26T05:15:27.999Z</time></trkpt><trkpt lat="45.12280969175999" lon="10.012422513927397"><ele>31.142857142857146</ele><time>2026-04-26T05:15:28.999Z</time></trkpt><trkpt lat="45.122840513428834" lon="10.01233435317488"><ele>31.0</ele><time>2026-04-26T05:15:29.999Z</time></trkpt><trkpt lat="45.12287077020707" lon="10.012242854198991"><ele>31.42857142857143</ele><time>2026-04-26T05:15:30.999Z</time></trkpt><trkpt lat="45.12290070795896" lon="10.012151936974274"><ele>31.85714285714286</ele><time>2026-04-26T05:15:31.999Z</time></trkpt><trkpt lat="45.122930493287086" lon="10.012061910346041"><ele>32.285714285714285</ele><time>2026-04-26T05:15:32.999Z</time></trkpt><trkpt lat="45.12296047809035" lon="10.011972258885477"><ele>32.714285714285715</ele><time>2026-04-26T05:15:33.999Z</time></trkpt><trkpt lat="45.12299077084541" lon="10.011881686639493"><ele>33.14285714285714</ele><time>2026-04-26T05:15:34.999Z</time></trkpt><trkpt lat="45.12302070976319" lon="10.011792172223778"><ele>33.57142857142857</ele><time>2026-04-26T05:15:35.999Z</time></trkpt><trkpt lat="45.123050894839174" lon="10.011701921971545"><ele>34.0</ele><time>2026-04-26T05:15:36.999Z</time></trkpt><trkpt lat="45.1230812835092" lon="10.011611098102543"><ele>33.99999999999999</ele><time>2026-04-26T05:15:37.999Z</time></trkpt><trkpt lat="45.1231115895213" lon="10.011520580563165"><ele>34.0</ele><time>2026-04-26T05:15:38.999Z</time></trkpt><trkpt lat="45.12314172942351" lon="10.011430607558744"><ele>34.0</ele><time>2026-04-26T05:15:39.998Z</time></trkpt><trkpt lat="45.12317206842581" lon="10.01134006966835"><ele>34.0</ele><time>2026-04-26T05:15:40.998Z</time></trkpt><trkpt lat="45.12320208359221" lon="10.011250498332242"><ele>34.0</ele><time>2026-04-26T05:15:41.998Z</time></trkpt><trkpt lat="45.12323192785585" lon="10.011161436770601"><ele>33.99999999999999</ele><time>2026-04-26T05:15:42.998Z</time></trkpt><trkpt lat="45.12326194457619" lon="10.011071861156523"><ele>34.0</ele><time>2026-04-26T05:15:43.998Z</time></trkpt><trkpt lat="45.12329238606163" lon="10.010981017576027"><ele>33.99999999999999</ele><time>2026-04-26T05:15:44.998Z</time></trkpt><trkpt lat="45.123322292363454" lon="10.010891770869412"><ele>34.0</ele><time>2026-04-26T05:15:45.998Z</time></trkpt><trkpt lat="45.12335310371634" lon="10.010799823311034"><ele>34.0</ele><time>2026-04-26T05:15:46.998Z</time></trkpt><trkpt lat="45.1233833074203" lon="10.010709689562473"><ele>34.0</ele><time>2026-04-26T05:15:47.998Z</time></trkpt><trkpt lat="45.12341311070949" lon="10.010620749996155"><ele>34.0</ele><time>2026-04-26T05:15:48.998Z</time></trkpt><trkpt lat="45.12344343905804" lon="10.010530244471562"><ele>33.99999999999999</ele><time>2026-04-26T05:15:49.998Z</time></trkpt><trkpt lat="45.12347381511316" lon="10.010439595597743"><ele>34.0</ele><time>2026-04-26T05:15:50.998Z</time></trkpt><trkpt lat="45.12350370143758" lon="10.010350145918462"><ele>33.99999999999999</ele><time>2026-04-26T05:15:51.998Z</time></trkpt><trkpt lat="45.12353297123768" lon="10.010262234087616"><ele>34.0</ele><time>2026-04-26T05:15:52.998Z</time></trkpt><trkpt lat="45.12356269506956" lon="10.01017295858075"><ele>34.0</ele><time>2026-04-26T05:15:53.998Z</time></trkpt><trkpt lat="45.12357777809349" lon="10.010074081236915"><ele>34.0</ele><time>2026-04-26T05:15:54.998Z</time></trkpt><trkpt lat="45.12360750519972" lon="10.009986142832558"><ele>34.0</ele><time>2026-04-26T05:15:55.998Z</time></trkpt><trkpt lat="45.123636936846374" lon="10.009896446331892"><ele>33.99999999999999</ele><time>2026-04-26T05:15:56.998Z</time></trkpt><trkpt lat="45.12366704979194" lon="10.009808376447"><ele>34.0</ele><time>2026-04-26T05:15:57.998Z</time></trkpt><trkpt lat="45.123696653423245" lon="10.009719547866156"><ele>33.99999999999999</ele><time>2026-04-26T05:15:58.998Z</time></trkpt><trkpt lat="45.123740798349935" lon="10.009640612333648"><ele>34.0</ele><time>2026-04-26T05:15:59.998Z</time></trkpt><trkpt lat="45.12377054352093" lon="10.00955198622969"><ele>34.0</ele><time>2026-04-26T05:16:00.998Z</time></trkpt><trkpt lat="45.123801067630545" lon="10.009461075130849"><ele>34.0</ele><time>2026-04-26T05:16:01.998Z</time></trkpt><trkpt lat="45.12383159744046" lon="10.009370203108613"><ele>34.0</ele><time>2026-04-26T05:16:02.998Z</time></trkpt><trkpt lat="45.12386123956139" lon="10.009281973341718"><ele>33.99999999999999</ele><time>2026-04-26T05:16:03.998Z</time></trkpt><trkpt lat="45.123892297569434" lon="10.00918812745321"><ele>34.0</ele><time>2026-04-26T05:16:04.998Z</time></trkpt><trkpt lat="45.12392203752535" lon="10.009097679263895"><ele>33.99999999999999</ele><time>2026-04-26T05:16:05.998Z</time></trkpt><trkpt lat="45.123936955664554" lon="10.008996670208196"><ele>34.0</ele><time>2026-04-26T05:16:06.998Z</time></trkpt><trkpt lat="45.12396768515618" lon="10.008904665046439"><ele>34.0</ele><time>2026-04-26T05:16:07.998Z</time></trkpt><trkpt lat="45.12399830621673" lon="10.008816047009805"><ele>34.0</ele><time>2026-04-26T05:16:08.998Z</time></trkpt><trkpt lat="45.12404283719955" lon="10.00873426931315"><ele>34.0</ele><time>2026-04-26T05:16:09.998Z</time></trkpt><trkpt lat="45.124073812149355" lon="10.008643964551077"><ele>33.99999999999999</ele><time>2026-04-26T05:16:10.998Z</time></trkpt><trkpt lat="45.12410542165815" lon="10.008554445951464"><ele>34.0</ele><time>2026-04-26T05:16:11.998Z</time></trkpt><trkpt lat="45.124135930963625" lon="10.008464983627627"><ele>34.16666666666667</ele><time>2026-04-26T05:16:12.998Z</time></trkpt><trkpt lat="45.124165983512015" lon="10.008376860562523"><ele>34.333333333333336</ele><time>2026-04-26T05:16:13.998Z</time></trkpt><trkpt lat="45.12419484748179" lon="10.008290912219463"><ele>34.5</ele><time>2026-04-26T05:16:14.998Z</time></trkpt><trkpt lat="45.12422285185983" lon="10.008206834033215"><ele>34.666666666666664</ele><time>2026-04-26T05:16:15.998Z</time></trkpt><trkpt lat="45.124276237245354" lon="10.008046268227742"><ele>34.83333333333333</ele><time>2026-04-26T05:16:17.998Z</time></trkpt><trkpt lat="45.12430357591685" lon="10.00796362532581"><ele>35.0</ele><time>2026-04-26T05:16:18.998Z</time></trkpt><trkpt lat="45.124331031296215" lon="10.007880629598903"><ele>35.4</ele><time>2026-04-26T05:16:19.998Z</time></trkpt><trkpt lat="45.12435797241521" lon="10.007799188472667"><ele>35.8</ele><time>2026-04-26T05:16:20.998Z</time></trkpt><trkpt lat="45.12440833209289" lon="10.007640238837483"><ele>36.2</ele><time>2026-04-26T05:16:22.998Z</time></trkpt><trkpt lat="45.12444180987564" lon="10.007481276357607"><ele>36.6</ele><time>2026-04-26T05:16:24.998Z</time></trkpt><trkpt lat="45.12449118810712" lon="10.007340072723727"><ele>37.0</ele><time>2026-04-26T05:16:26.998Z</time></trkpt><trkpt lat="45.12453548878439" lon="10.007204927965738"><ele>37.8</ele><time>2026-04-26T05:16:29Z</time></trkpt><trkpt lat="45.12457774532304" lon="10.007083455497423"><ele>38.6</ele><time>2026-04-26T05:16:31Z</time></trkpt><trkpt lat="45.12460583169495" lon="10.006996737989889"><ele>39.4</ele><time>2026-04-26T05:16:33Z</time></trkpt><trkpt lat="45.12451929468417" lon="10.006874840625018"><ele>40.199999999999996</ele><time>2026-04-26T05:16:35Z</time></trkpt><trkpt lat="45.1244333597454" lon="10.006784364428265"><ele>41.0</ele><time>2026-04-26T05:16:37Z</time></trkpt><trkpt lat="45.12433841390847" lon="10.006684401107584"><ele>41.0</ele><time>2026-04-26T05:16:39Z</time></trkpt><trkpt lat="45.12423347751224" lon="10.00657354721637"><ele>41.0</ele><time>2026-04-26T05:16:41Z</time></trkpt><trkpt lat="45.1241299728648" lon="10.006463860833707"><ele>41.0</ele><time>2026-04-26T05:16:43Z</time></trkpt><trkpt lat="45.12407483529035" lon="10.006405430174434"><ele>41.0</ele><time>2026-04-26T05:16:44Z</time></trkpt><trkpt lat="45.12401795357498" lon="10.00634515123837"><ele>41.0</ele><time>2026-04-26T05:16:45Z</time></trkpt><trkpt lat="45.123961257490144" lon="10.006285069054165"><ele>41.285714285714285</ele><time>2026-04-26T05:16:46Z</time></trkpt><trkpt lat="45.12390425920995" lon="10.006225451522413"><ele>41.57142857142857</ele><time>2026-04-26T05:16:47Z</time></trkpt><trkpt lat="45.12384874449639" lon="10.006167388559454"><ele>41.85714285714286</ele><time>2026-04-26T05:16:48Z</time></trkpt><trkpt lat="45.1237951327799" lon="10.006111315997027"><ele>42.14285714285714</ele><time>2026-04-26T05:16:49Z</time></trkpt><trkpt lat="45.123738581522545" lon="10.006052168958812"><ele>42.42857142857143</ele><time>2026-04-26T05:16:50Z</time></trkpt><trkpt lat="45.12368337993717" lon="10.005994337095624"><ele>42.714285714285715</ele><time>2026-04-26T05:16:50.999Z</time></trkpt><trkpt lat="45.123629601861836" lon="10.00593647830463"><ele>43.0</ele><time>2026-04-26T05:16:51.999Z</time></trkpt><trkpt lat="45.123577809243436" lon="10.005880755628638"><ele>43.0</ele><time>2026-04-26T05:16:52.999Z</time></trkpt><trkpt lat="45.12352562990873" lon="10.00582461687122"><ele>43.0</ele><time>2026-04-26T05:16:53.999Z</time></trkpt><trkpt lat="45.123471824842724" lon="10.005766729459296"><ele>43.0</ele><time>2026-04-26T05:16:54.999Z</time></trkpt><trkpt lat="45.12342002119339" lon="10.005710995603582"><ele>43.0</ele><time>2026-04-26T05:16:55.999Z</time></trkpt><trkpt lat="45.123366187247136" lon="10.005655649302092"><ele>43.0</ele><time>2026-04-26T05:16:56.999Z</time></trkpt><trkpt lat="45.123264092342225" lon="10.005547740247266"><ele>43.0</ele><time>2026-04-26T05:16:58.999Z</time></trkpt><trkpt lat="45.123210444198236" lon="10.005491817394894"><ele>42.0</ele><time>2026-04-26T05:16:59.999Z</time></trkpt><trkpt lat="45.12315770840939" lon="10.005439443304756"><ele>41.0</ele><time>2026-04-26T05:17:00.999Z</time></trkpt><trkpt lat="45.123103594531926" lon="10.005388813371836"><ele>40.0</ele><time>2026-04-26T05:17:01.999Z</time></trkpt><trkpt lat="45.122995085181145" lon="10.005311571937883"><ele>39.0</ele><time>2026-04-26T05:17:03.999Z</time></trkpt><trkpt lat="45.12292885558806" lon="10.005222549840646"><ele>38.0</ele><time>2026-04-26T05:17:05.999Z</time></trkpt><trkpt lat="45.1229648965142" lon="10.005077997612396"><ele>38.25</ele><time>2026-04-26T05:17:06.999Z</time></trkpt><trkpt lat="45.12305525307563" lon="10.004977796746049"><ele>38.5</ele><time>2026-04-26T05:17:08.999Z</time></trkpt><trkpt lat="45.12313297295357" lon="10.00485924103533"><ele>38.75</ele><time>2026-04-26T05:17:10.999Z</time></trkpt><trkpt lat="45.12322217352277" lon="10.004751279127246"><ele>39.0</ele><time>2026-04-26T05:17:12.999Z</time></trkpt><trkpt lat="45.12332031103083" lon="10.004666795932124"><ele>39.0</ele><time>2026-04-26T05:17:14.999Z</time></trkpt><trkpt lat="45.12340269390933" lon="10.004548640196422"><ele>39.0</ele><time>2026-04-26T05:17:16.999Z</time></trkpt><trkpt lat="45.12349755345284" lon="10.004450458926755"><ele>39.0</ele><time>2026-04-26T05:17:18.999Z</time></trkpt><trkpt lat="45.12358916074404" lon="10.004343052155134"><ele>39.0</ele><time>2026-04-26T05:17:20.999Z</time></trkpt><trkpt lat="45.12368908544509" lon="10.004253901386177"><ele>36.75</ele><time>2026-04-26T05:17:22.999Z</time></trkpt><trkpt lat="45.12378268740934" lon="10.004148948860466"><ele>34.5</ele><time>2026-04-26T05:17:24.999Z</time></trkpt><trkpt lat="45.123874386699356" lon="10.00404246125465"><ele>32.25</ele><time>2026-04-26T05:17:26.999Z</time></trkpt><trkpt lat="45.12395702724404" lon="10.003922636687383"><ele>30.0</ele><time>2026-04-26T05:17:28.999Z</time></trkpt><trkpt lat="45.12404706173293" lon="10.003817878614539"><ele>31.5</ele><time>2026-04-26T05:17:30.999Z</time></trkpt><trkpt lat="45.124136580883984" lon="10.003713072799295"><ele>33.0</ele><time>2026-04-26T05:17:32.999Z</time></trkpt><trkpt lat="45.12422260055984" lon="10.003603043139993"><ele>34.5</ele><time>2026-04-26T05:17:34.999Z</time></trkpt><trkpt lat="45.12430686281503" lon="10.003489556043231"><ele>36.0</ele><time>2026-04-26T05:17:36.999Z</time></trkpt><trkpt lat="45.12439164509118" lon="10.003374314507266"><ele>34.5</ele><time>2026-04-26T05:17:38.999Z</time></trkpt><trkpt lat="45.12447665383658" lon="10.003253823794246"><ele>33.0</ele><time>2026-04-26T05:17:40.999Z</time></trkpt><trkpt lat="45.12455259930867" lon="10.003118882436308"><ele>31.5</ele><time>2026-04-26T05:17:42.999Z</time></trkpt><trkpt lat="45.12463012139438" lon="10.00298493146379"><ele>30.0</ele><time>2026-04-26T05:17:44.998Z</time></trkpt><trkpt lat="45.12471141447212" lon="10.002860551116774"><ele>30.0</ele><time>2026-04-26T05:17:46.998Z</time></trkpt><trkpt lat="45.12478931923782" lon="10.002733284607856"><ele>30.0</ele><time>2026-04-26T05:17:48.998Z</time></trkpt><trkpt lat="45.124868271964154" lon="10.00260791252817"><ele>30.0</ele><time>2026-04-26T05:17:50.998Z</time></trkpt><trkpt lat="45.124950456304916" lon="10.002486313358233"><ele>30.0</ele><time>2026-04-26T05:17:52.998Z</time></trkpt><trkpt lat="45.12503641608544" lon="10.002369549731355"><ele>30.5</ele><time>2026-04-26T05:17:54.998Z</time></trkpt><trkpt lat="45.12512664082394" lon="10.002253193234036"><ele>31.0</ele><time>2026-04-26T05:17:56.998Z</time></trkpt><trkpt lat="45.12521804035627" lon="10.00214294899886"><ele>31.5</ele><time>2026-04-26T05:17:58.998Z</time></trkpt><trkpt lat="45.125309005012525" lon="10.002034611391123"><ele>32.0</ele><time>2026-04-26T05:18:00.998Z</time></trkpt><trkpt lat="45.12540176954778" lon="10.001934436587318"><ele>32.0</ele><time>2026-04-26T05:18:02.998Z</time></trkpt><trkpt lat="45.125486766928844" lon="10.001829135368343"><ele>32.0</ele><time>2026-04-26T05:18:04.998Z</time></trkpt><trkpt lat="45.1255780194911" lon="10.00172388708891"><ele>32.0</ele><time>2026-04-26T05:18:06.998Z</time></trkpt><trkpt lat="45.12567772008024" lon="10.001638518054817"><ele>32.0</ele><time>2026-04-26T05:18:08.998Z</time></trkpt><trkpt lat="45.125763283176035" lon="10.001516249625482"><ele>31.25</ele><time>2026-04-26T05:18:10.998Z</time></trkpt><trkpt lat="45.12585417652369" lon="10.001408525763091"><ele>30.5</ele><time>2026-04-26T05:18:12.998Z</time></trkpt><trkpt lat="45.12594553458332" lon="10.0012981815686"><ele>29.75</ele><time>2026-04-26T05:18:14.998Z</time></trkpt><trkpt lat="45.12603434864886" lon="10.001187506027234"><ele>29.0</ele><time>2026-04-26T05:18:16.998Z</time></trkpt><trkpt lat="45.12612030359186" lon="10.001075946363255"><ele>29.0</ele><time>2026-04-26T05:18:18.998Z</time></trkpt><trkpt lat="45.12620864466791" lon="10.000963180986734"><ele>29.0</ele><time>2026-04-26T05:18:20.998Z</time></trkpt><trkpt lat="45.126287205684235" lon="10.0008525936939"><ele>29.0</ele><time>2026-04-26T05:18:22.998Z</time></trkpt><trkpt lat="45.12637331265248" lon="10.000755602044135"><ele>29.0</ele><time>2026-04-26T05:18:24.998Z</time></trkpt><trkpt lat="45.12645594709817" lon="10.00065614517913"><ele>29.0</ele><time>2026-04-26T05:18:26.998Z</time></trkpt><trkpt lat="45.12654320708135" lon="10.000550211903116"><ele>29.0</ele><time>2026-04-26T05:18:28.998Z</time></trkpt><trkpt lat="45.12659326749879" lon="10.00049346929217"><ele>29.0</ele><time>2026-04-26T05:18:29.998Z</time></trkpt><trkpt lat="45.12668994912283" lon="10.000407524621105"><ele>29.0</ele><time>2026-04-26T05:18:31.998Z</time></trkpt><trkpt lat="45.1267800182676" lon="10.000307317868728"><ele>29.0</ele><time>2026-04-26T05:18:33.998Z</time></trkpt><trkpt lat="45.12687273140275" lon="10.000218657242103"><ele>29.0</ele><time>2026-04-26T05:18:36Z</time></trkpt><trkpt lat="45.1269704480972" lon="10.000128679438284"><ele>29.0</ele><time>2026-04-26T05:18:38Z</time></trkpt><trkpt lat="45.12706358979277" lon="10.000044123275785"><ele>29.0</ele><time>2026-04-26T05:18:40Z</time></trkpt><trkpt lat="45.12715978584104" lon="9.999957924791097"><ele>29.0</ele><time>2026-04-26T05:18:42Z</time></trkpt><trkpt lat="45.12726001390915" lon="9.999888058133905"><ele>29.0</ele><time>2026-04-26T05:18:44Z</time></trkpt><trkpt lat="45.127361379256975" lon="9.999818450602067"><ele>29.0</ele><time>2026-04-26T05:18:46Z</time></trkpt><trkpt lat="45.12746717565411" lon="9.999759913273454"><ele>31.0</ele><time>2026-04-26T05:18:48Z</time></trkpt><trkpt lat="45.12756207046351" lon="9.999683035733685"><ele>33.0</ele><time>2026-04-26T05:18:50Z</time></trkpt><trkpt lat="45.127530991976585" lon="9.999504045642093"><ele>35.0</ele><time>2026-04-26T05:18:52Z</time></trkpt><trkpt lat="45.12755296980703" lon="9.999343103489696"><ele>37.0</ele><time>2026-04-26T05:18:54Z</time></trkpt><trkpt lat="45.12758945493403" lon="9.999255539896987"><ele>39.0</ele><time>2026-04-26T05:18:54.999Z</time></trkpt><trkpt lat="45.12763740577381" lon="9.9991950224218"><ele>38.8</ele><time>2026-04-26T05:18:55.999Z</time></trkpt><trkpt lat="45.12770674142096" lon="9.999074939181048"><ele>38.599999999999994</ele><time>2026-04-26T05:18:57.999Z</time></trkpt><trkpt lat="45.12777198200469" lon="9.998977640684208"><ele>38.4</ele><time>2026-04-26T05:18:59.999Z</time></trkpt><trkpt lat="45.12783613937067" lon="9.998864825915554"><ele>38.199999999999996</ele><time>2026-04-26T05:19:01.999Z</time></trkpt><trkpt lat="45.12790200209866" lon="9.998755356316785"><ele>38.0</ele><time>2026-04-26T05:19:03.999Z</time></trkpt><trkpt lat="45.127969220057615" lon="9.998649530641643"><ele>38.0</ele><time>2026-04-26T05:19:05.999Z</time></trkpt><trkpt lat="45.128033263090046" lon="9.998537151373919"><ele>38.0</ele><time>2026-04-26T05:19:07.999Z</time></trkpt><trkpt lat="45.12808647916451" lon="9.998414902378183"><ele>38.0</ele><time>2026-04-26T05:19:09.999Z</time></trkpt><trkpt lat="45.128110732778914" lon="9.99830567010607"><ele>38.0</ele><time>2026-04-26T05:19:11.999Z</time></trkpt><trkpt lat="45.12804584201053" lon="9.998223974875822"><ele>38.0</ele><time>2026-04-26T05:19:12.999Z</time></trkpt><trkpt lat="45.12794810289279" lon="9.998145229342136"><ele>37.199999999999996</ele><time>2026-04-26T05:19:14.999Z</time></trkpt><trkpt lat="45.12786669801593" lon="9.998014580707235"><ele>36.4</ele><time>2026-04-26T05:19:16.999Z</time></trkpt><trkpt lat="45.127849742420565" lon="9.997869221419979"><ele>35.599999999999994</ele><time>2026-04-26T05:19:18.999Z</time></trkpt><trkpt lat="45.12793870225476" lon="9.997791527126147"><ele>34.8</ele><time>2026-04-26T05:19:20.999Z</time></trkpt><trkpt lat="45.12800326175467" lon="9.997690835935584"><ele>34.0</ele><time>2026-04-26T05:19:22.999Z</time></trkpt><trkpt lat="45.12807313224131" lon="9.997590593810465"><ele>34.0</ele><time>2026-04-26T05:19:24.999Z</time></trkpt><trkpt lat="45.128155649736186" lon="9.997479829430056"><ele>34.0</ele><time>2026-04-26T05:19:26.999Z</time></trkpt><trkpt lat="45.128247840945996" lon="9.997387060219577"><ele>34.0</ele><time>2026-04-26T05:19:28.999Z</time></trkpt><trkpt lat="45.128314802287655" lon="9.997270505947643"><ele>34.0</ele><time>2026-04-26T05:19:30.999Z</time></trkpt><trkpt lat="45.12838907039628" lon="9.997179025210745"><ele>34.0</ele><time>2026-04-26T05:19:32.999Z</time></trkpt><trkpt lat="45.128455189310586" lon="9.997088188134153"><ele>34.2</ele><time>2026-04-26T05:19:34.999Z</time></trkpt><trkpt lat="45.128520202773075" lon="9.997004932306659"><ele>34.4</ele><time>2026-04-26T05:19:36.999Z</time></trkpt><trkpt lat="45.12858409285484" lon="9.996914067966191"><ele>34.6</ele><time>2026-04-26T05:19:38.999Z</time></trkpt><trkpt lat="45.12865614015282" lon="9.996810913098944"><ele>34.8</ele><time>2026-04-26T05:19:40.999Z</time></trkpt><trkpt lat="45.12873434363684" lon="9.996710277602254"><ele>35.0</ele><time>2026-04-26T05:19:42.999Z</time></trkpt><trkpt lat="45.12880934122257" lon="9.996606879940277"><ele>35.0</ele><time>2026-04-26T05:19:44.999Z</time></trkpt><trkpt lat="45.128880997682536" lon="9.996506042974039"><ele>35.0</ele><time>2026-04-26T05:19:46.999Z</time></trkpt><trkpt lat="45.128954605154085" lon="9.996405904269023"><ele>35.0</ele><time>2026-04-26T05:19:48.999Z</time></trkpt><trkpt lat="45.12902787520556" lon="9.9963085298404"><ele>35.0</ele><time>2026-04-26T05:19:50.998Z</time></trkpt><trkpt lat="45.12909475057287" lon="9.996210941792274"><ele>35.0</ele><time>2026-04-26T05:19:52.998Z</time></trkpt><trkpt lat="45.129166177683906" lon="9.996116025571604"><ele>35.6</ele><time>2026-04-26T05:19:54.998Z</time></trkpt><trkpt lat="45.12923802906874" lon="9.996018062630778"><ele>36.2</ele><time>2026-04-26T05:19:56.998Z</time></trkpt><trkpt lat="45.129318495442014" lon="9.995934764255049"><ele>36.8</ele><time>2026-04-26T05:19:58.998Z</time></trkpt><trkpt lat="45.12935578740839" lon="9.995850853355414"><ele>37.4</ele><time>2026-04-26T05:20:00.998Z</time></trkpt><trkpt lat="45.12945748125592" lon="9.995950223222195"><ele>38.0</ele><time>2026-04-26T05:20:01.998Z</time></trkpt><trkpt lat="45.12954653404578" lon="9.995981640548726"><ele>38.0</ele><time>2026-04-26T05:20:03.998Z</time></trkpt><trkpt lat="45.12962424145026" lon="9.996046787087884"><ele>38.0</ele><time>2026-04-26T05:20:05.998Z</time></trkpt><trkpt lat="45.129677165604804" lon="9.996161241148204"><ele>38.0</ele><time>2026-04-26T05:20:07.998Z</time></trkpt><trkpt lat="45.12974678603042" lon="9.996238208384765"><ele>38.0</ele><time>2026-04-26T05:20:09.998Z</time></trkpt><trkpt lat="45.12982998042283" lon="9.996293977475524"><ele>38.0</ele><time>2026-04-26T05:20:11.998Z</time></trkpt><trkpt lat="45.12985713199272" lon="9.99639857392727"><ele>38.0</ele><time>2026-04-26T05:20:13.998Z</time></trkpt><trkpt lat="45.12988274821581" lon="9.99649696636795"><ele>38.4</ele><time>2026-04-26T05:20:16.998Z</time></trkpt><trkpt lat="45.129950913116616" lon="9.996679158589345"><ele>38.8</ele><time>2026-04-26T05:20:18.998Z</time></trkpt><trkpt lat="45.12996109308434" lon="9.996814345536633"><ele>39.2</ele><time>2026-04-26T05:20:20.998Z</time></trkpt><trkpt lat="45.129984299180954" lon="9.996935150587055"><ele>39.6</ele><time>2026-04-26T05:20:22.998Z</time></trkpt><trkpt lat="45.13002108104191" lon="9.997055467042065"><ele>40.0</ele><time>2026-04-26T05:20:24.998Z</time></trkpt><trkpt lat="45.13006360771208" lon="9.99716249586721"><ele>40.0</ele><time>2026-04-26T05:20:26.998Z</time></trkpt><trkpt lat="45.13009885579945" lon="9.997278410132035"><ele>40.0</ele><time>2026-04-26T05:20:28.998Z</time></trkpt><trkpt lat="45.13011821001925" lon="9.99742959356427"><ele>40.0</ele><time>2026-04-26T05:20:30.998Z</time></trkpt><trkpt lat="45.13013099745301" lon="9.997572551494194"><ele>40.0</ele><time>2026-04-26T05:20:32.998Z</time></trkpt><trkpt lat="45.13014586143552" lon="9.997716814030765"><ele>40.0</ele><time>2026-04-26T05:20:34.998Z</time></trkpt><trkpt lat="45.13016159190956" lon="9.997862381927186"><ele>40.0</ele><time>2026-04-26T05:20:36.998Z</time></trkpt><trkpt lat="45.13015950204053" lon="9.998005016330945"><ele>40.0</ele><time>2026-04-26T05:20:38.998Z</time></trkpt><trkpt lat="45.13017427115171" lon="9.998153363846331"><ele>40.0</ele><time>2026-04-26T05:20:41Z</time></trkpt><trkpt lat="45.1301863723426" lon="9.998305709350992"><ele>40.0</ele><time>2026-04-26T05:20:43Z</time></trkpt><trkpt lat="45.130199158353385" lon="9.998457777967072"><ele>40.0</ele><time>2026-04-26T05:20:45Z</time></trkpt><trkpt lat="45.130219344030806" lon="9.9986082647176"><ele>40.2</ele><time>2026-04-26T05:20:47Z</time></trkpt><trkpt lat="45.13023178787837" lon="9.998761244373602"><ele>40.4</ele><time>2026-04-26T05:20:49Z</time></trkpt><trkpt lat="45.1302516131689" lon="9.99890900355724"><ele>40.599999999999994</ele><time>2026-04-26T05:20:51Z</time></trkpt><trkpt lat="45.13026407067409" lon="9.999068515567782"><ele>40.8</ele><time>2026-04-26T05:20:53Z</time></trkpt><trkpt lat="45.13027907520453" lon="9.999223906797855"><ele>41.0</ele><time>2026-04-26T05:20:55Z</time></trkpt><trkpt lat="45.13030072428509" lon="9.999380582941145"><ele>41.0</ele><time>2026-04-26T05:20:57Z</time></trkpt><trkpt lat="45.130323992149926" lon="9.999534760772683"><ele>41.0</ele><time>2026-04-26T05:20:58.999Z</time></trkpt><trkpt lat="45.13034484350569" lon="9.999690802516369"><ele>41.0</ele><time>2026-04-26T05:21:00.999Z</time></trkpt><trkpt lat="45.1303601131544" lon="9.999847488938045"><ele>41.0</ele><time>2026-04-26T05:21:02.999Z</time></trkpt><trkpt lat="45.130375943662635" lon="10.000004253401869"><ele>41.0</ele><time>2026-04-26T05:21:04.999Z</time></trkpt><trkpt lat="45.13039440274352" lon="10.000158345945108"><ele>41.0</ele><time>2026-04-26T05:21:06.999Z</time></trkpt><trkpt lat="45.13041236883" lon="10.000310930421042"><ele>41.0</ele><time>2026-04-26T05:21:08.999Z</time></trkpt><trkpt lat="45.13044812798593" lon="10.000463536590516"><ele>41.0</ele><time>2026-04-26T05:21:10.999Z</time></trkpt><trkpt lat="45.13043510509338" lon="10.000620077493158"><ele>41.0</ele><time>2026-04-26T05:21:12.999Z</time></trkpt><trkpt lat="45.1304041177221" lon="10.000774325216929"><ele>41.0</ele><time>2026-04-26T05:21:14.999Z</time></trkpt><trkpt lat="45.130363377337886" lon="10.000914715829644"><ele>40.8</ele><time>2026-04-26T05:21:16.999Z</time></trkpt><trkpt lat="45.130322790464106" lon="10.001048601696047"><ele>40.599999999999994</ele><time>2026-04-26T05:21:18.999Z</time></trkpt><trkpt lat="45.130265205445994" lon="10.001178465229215"><ele>40.4</ele><time>2026-04-26T05:21:20.999Z</time></trkpt><trkpt lat="45.13021462643139" lon="10.001302773589488"><ele>40.2</ele><time>2026-04-26T05:21:22.999Z</time></trkpt><trkpt lat="45.130171008580575" lon="10.001409972850517"><ele>40.0</ele><time>2026-04-26T05:21:24.999Z</time></trkpt><trkpt lat="45.130030113603496" lon="10.001334323148825"><ele>40.0</ele><time>2026-04-26T05:21:25.999Z</time></trkpt><trkpt lat="45.12993875457036" lon="10.001244583130656"><ele>40.0</ele><time>2026-04-26T05:21:27.999Z</time></trkpt><trkpt lat="45.129841773808735" lon="10.001173334632341"><ele>40.0</ele><time>2026-04-26T05:21:29.999Z</time></trkpt><trkpt lat="45.129742681571216" lon="10.001097374226424"><ele>40.0</ele><time>2026-04-26T05:21:31.999Z</time></trkpt><trkpt lat="45.129646825637565" lon="10.001024597897542"><ele>40.0</ele><time>2026-04-26T05:21:33.999Z</time></trkpt><trkpt lat="45.129538410304086" lon="10.000975497915931"><ele>39.75</ele><time>2026-04-26T05:21:35.999Z</time></trkpt><trkpt lat="45.12943761146681" lon="10.000905623604798"><ele>39.5</ele><time>2026-04-26T05:21:37.999Z</time></trkpt><trkpt lat="45.12933543206623" lon="10.000834792293274"><ele>39.25</ele><time>2026-04-26T05:21:39.999Z</time></trkpt><trkpt lat="45.12923726786358" lon="10.000741780004258"><ele>39.0</ele><time>2026-04-26T05:21:41.999Z</time></trkpt><trkpt lat="45.129137043329564" lon="10.000675568910241"><ele>39.0</ele><time>2026-04-26T05:21:43.999Z</time></trkpt><trkpt lat="45.12903812513052" lon="10.000607921736837"><ele>39.0</ele><time>2026-04-26T05:21:45.999Z</time></trkpt><trkpt lat="45.12894172079992" lon="10.00053688288705"><ele>39.0</ele><time>2026-04-26T05:21:47.999Z</time></trkpt><trkpt lat="45.128843828125" lon="10.00047008617108"><ele>39.0</ele><time>2026-04-26T05:21:49.999Z</time></trkpt><trkpt lat="45.128745746423014" lon="10.000400292450088"><ele>39.0</ele><time>2026-04-26T05:21:51.999Z</time></trkpt><trkpt lat="45.12868277061518" lon="10.000383005189438"><ele>39.0</ele><time>2026-04-26T05:21:52.999Z</time></trkpt><trkpt lat="45.12858048799864" lon="10.000312609098378"><ele>39.0</ele><time>2026-04-26T05:21:54.998Z</time></trkpt><trkpt lat="45.12847606201599" lon="10.000240737822615"><ele>39.0</ele><time>2026-04-26T05:21:56.998Z</time></trkpt><trkpt lat="45.12837238040209" lon="10.000169378870076"><ele>39.0</ele><time>2026-04-26T05:21:58.998Z</time></trkpt><trkpt lat="45.128271752730264" lon="10.000100121965154"><ele>39.0</ele><time>2026-04-26T05:22:00.998Z</time></trkpt><trkpt lat="45.12816722134209" lon="10.000028981267015"><ele>39.0</ele><time>2026-04-26T05:22:02.998Z</time></trkpt><trkpt lat="45.12806288079307" lon="9.999959233198753"><ele>39.0</ele><time>2026-04-26T05:22:04.998Z</time></trkpt><trkpt lat="45.127960620510386" lon="9.999890940561162"><ele>39.0</ele><time>2026-04-26T05:22:06.998Z</time></trkpt><trkpt lat="45.12785908192058" lon="9.999823129952944"><ele>39.0</ele><time>2026-04-26T05:22:08.998Z</time></trkpt><trkpt lat="45.12776413815736" lon="9.999735903282245"><ele>39.0</ele><time>2026-04-26T05:22:10.998Z</time></trkpt><trkpt lat="45.1276646080706" lon="9.99969180636858"><ele>39.0</ele><time>2026-04-26T05:22:12.998Z</time></trkpt><trkpt lat="45.1275709454493" lon="9.999594942521094"><ele>39.0</ele><time>2026-04-26T05:22:14.998Z</time></trkpt><trkpt lat="45.12751072528413" lon="9.999632996081473"><ele>39.0</ele><time>2026-04-26T05:22:15.998Z</time></trkpt><trkpt lat="45.12739910971102" lon="9.999644944908756"><ele>37.0</ele><time>2026-04-26T05:22:17.998Z</time></trkpt><trkpt lat="45.127316171083876" lon="9.999749450298694"><ele>35.0</ele><time>2026-04-26T05:22:19.998Z</time></trkpt><trkpt lat="45.12721295263199" lon="9.999843870299841"><ele>33.0</ele><time>2026-04-26T05:22:21.998Z</time></trkpt><trkpt lat="45.127110302106985" lon="9.999949551215572"><ele>31.0</ele><time>2026-04-26T05:22:23.998Z</time></trkpt><trkpt lat="45.12705725691143" lon="10.000002650117802"><ele>29.0</ele><time>2026-04-26T05:22:24.998Z</time></trkpt><trkpt lat="45.12700325260572" lon="10.000055284013957"><ele>28.999999999999996</ele><time>2026-04-26T05:22:25.998Z</time></trkpt><trkpt lat="45.12689530714417" lon="10.000151371505103"><ele>29.0</ele><time>2026-04-26T05:22:27.998Z</time></trkpt><trkpt lat="45.12684181474502" lon="10.000202468210063"><ele>29.0</ele><time>2026-04-26T05:22:28.998Z</time></trkpt><trkpt lat="45.1267416325424" lon="10.000304980765742"><ele>29.0</ele><time>2026-04-26T05:22:30.998Z</time></trkpt><trkpt lat="45.126689376689676" lon="10.000360603280543"><ele>28.999999999999996</ele><time>2026-04-26T05:22:31.998Z</time></trkpt><trkpt lat="45.12664059049905" lon="10.000417173237349"><ele>29.0</ele><time>2026-04-26T05:22:32.998Z</time></trkpt><trkpt lat="45.126591031585384" lon="10.000474319443821"><ele>28.999999999999996</ele><time>2026-04-26T05:22:33.998Z</time></trkpt><trkpt lat="45.12653959091052" lon="10.000530624926654"><ele>29.0</ele><time>2026-04-26T05:22:34.998Z</time></trkpt><trkpt lat="45.12647878839697" lon="10.0005706180103"><ele>29.0</ele><time>2026-04-26T05:22:35.998Z</time></trkpt><trkpt lat="45.12638270750644" lon="10.000688662273237"><ele>29.0</ele><time>2026-04-26T05:22:37.998Z</time></trkpt><trkpt lat="45.12633610050722" lon="10.000749537285516"><ele>28.999999999999996</ele><time>2026-04-26T05:22:38.998Z</time></trkpt><trkpt lat="45.126288058933625" lon="10.000812286178322"><ele>29.0</ele><time>2026-04-26T05:22:39.998Z</time></trkpt><trkpt lat="45.1262466472262" lon="10.00089074683979"><ele>29.000000000000004</ele><time>2026-04-26T05:22:40.998Z</time></trkpt><trkpt lat="45.12619285140298" lon="10.000952738380938"><ele>29.0</ele><time>2026-04-26T05:22:41.998Z</time></trkpt><trkpt lat="45.126143415771736" lon="10.001015386409595"><ele>29.000000000000004</ele><time>2026-04-26T05:22:42.998Z</time></trkpt><trkpt lat="45.126089531180504" lon="10.001085164869343"><ele>29.000000000000004</ele><time>2026-04-26T05:22:43.998Z</time></trkpt><trkpt lat="45.12603367913641" lon="10.001148103353948"><ele>29.0</ele><time>2026-04-26T05:22:44.998Z</time></trkpt><trkpt lat="45.125978020684606" lon="10.001216340797619"><ele>29.000000000000004</ele><time>2026-04-26T05:22:46Z</time></trkpt><trkpt lat="45.12592387861916" lon="10.00127935408413"><ele>29.000000000000004</ele><time>2026-04-26T05:22:47Z</time></trkpt><trkpt lat="45.125868538041885" lon="10.001344708917287"><ele>29.000000000000004</ele><time>2026-04-26T05:22:48Z</time></trkpt><trkpt lat="45.12581486469237" lon="10.001403995788259"><ele>29.0</ele><time>2026-04-26T05:22:49Z</time></trkpt><trkpt lat="45.12576461550095" lon="10.001465309375883"><ele>29.000000000000004</ele><time>2026-04-26T05:22:50Z</time></trkpt><trkpt lat="45.12571381048761" lon="10.001527492195782"><ele>29.000000000000004</ele><time>2026-04-26T05:22:51Z</time></trkpt><trkpt lat="45.12565719116956" lon="10.001586524264644"><ele>29.0</ele><time>2026-04-26T05:22:52Z</time></trkpt><trkpt lat="45.12560590597273" lon="10.001647660890514"><ele>29.000000000000004</ele><time>2026-04-26T05:22:53Z</time></trkpt><trkpt lat="45.12555500060824" lon="10.001711650912055"><ele>29.000000000000004</ele><time>2026-04-26T05:22:54Z</time></trkpt><trkpt lat="45.12550410927616" lon="10.001770951440603"><ele>29.42857142857143</ele><time>2026-04-26T05:22:55Z</time></trkpt><trkpt lat="45.12545275215187" lon="10.001832932919507"><ele>29.857142857142858</ele><time>2026-04-26T05:22:56Z</time></trkpt><trkpt lat="45.12540199295196" lon="10.001891790371754"><ele>30.285714285714285</ele><time>2026-04-26T05:22:57Z</time></trkpt><trkpt lat="45.125349172671775" lon="10.00195036271761"><ele>30.714285714285715</ele><time>2026-04-26T05:22:58Z</time></trkpt><trkpt lat="45.12529735754361" lon="10.002009006805421"><ele>31.14285714285714</ele><time>2026-04-26T05:22:59Z</time></trkpt><trkpt lat="45.125245683581596" lon="10.00206645956301"><ele>31.57142857142857</ele><time>2026-04-26T05:23:00Z</time></trkpt><trkpt lat="45.1251936017487" lon="10.002126845460053"><ele>32.0</ele><time>2026-04-26T05:23:01Z</time></trkpt><trkpt lat="45.12514192181073" lon="10.002186220246978"><ele>32.0</ele><time>2026-04-26T05:23:02Z</time></trkpt><trkpt lat="45.12509251492458" lon="10.002249707460603"><ele>31.999999999999996</ele><time>2026-04-26T05:23:02.999Z</time></trkpt><trkpt lat="45.12504391131289" lon="10.002312556905315"><ele>32.0</ele><time>2026-04-26T05:23:03.999Z</time></trkpt><trkpt lat="45.12499769478626" lon="10.00237606322964"><ele>32.0</ele><time>2026-04-26T05:23:04.999Z</time></trkpt><trkpt lat="45.12494980647814" lon="10.002439743093886"><ele>31.999999999999996</ele><time>2026-04-26T05:23:05.999Z</time></trkpt><trkpt lat="45.12490518168308" lon="10.002505597956256"><ele>32.0</ele><time>2026-04-26T05:23:06.999Z</time></trkpt><trkpt lat="45.124862786132084" lon="10.002572887952878"><ele>32.0</ele><time>2026-04-26T05:23:07.999Z</time></trkpt><trkpt lat="45.12481984099841" lon="10.00264264151189"><ele>31.71428571428571</ele><time>2026-04-26T05:23:08.999Z</time></trkpt><trkpt lat="45.124777492073754" lon="10.002709823162665"><ele>31.428571428571423</ele><time>2026-04-26T05:23:09.999Z</time></trkpt><trkpt lat="45.12473600556945" lon="10.002780599619186"><ele>31.142857142857142</ele><time>2026-04-26T05:23:10.999Z</time></trkpt><trkpt lat="45.1246948652244" lon="10.002851855475313"><ele>30.857142857142854</ele><time>2026-04-26T05:23:11.999Z</time></trkpt><trkpt lat="45.124652206922256" lon="10.002921546403208"><ele>30.57142857142857</ele><time>2026-04-26T05:23:12.999Z</time></trkpt><trkpt lat="45.12460905753944" lon="10.00298944084166"><ele>30.285714285714285</ele><time>2026-04-26T05:23:13.999Z</time></trkpt><trkpt lat="45.12456598918691" lon="10.003057977652357"><ele>30.0</ele><time>2026-04-26T05:23:14.999Z</time></trkpt><trkpt lat="45.12452199771202" lon="10.00312670707435"><ele>30.0</ele><time>2026-04-26T05:23:15.999Z</time></trkpt><trkpt lat="45.12447927557101" lon="10.003196142434572"><ele>30.0</ele><time>2026-04-26T05:23:16.999Z</time></trkpt><trkpt lat="45.12443623014438" lon="10.003264974280329"><ele>30.0</ele><time>2026-04-26T05:23:17.999Z</time></trkpt><trkpt lat="45.124392050285934" lon="10.003334493474494"><ele>30.0</ele><time>2026-04-26T05:23:18.999Z</time></trkpt><trkpt lat="45.12434525388635" lon="10.003398044376246"><ele>30.0</ele><time>2026-04-26T05:23:19.999Z</time></trkpt><trkpt lat="45.124297927396356" lon="10.003461539856612"><ele>30.0</ele><time>2026-04-26T05:23:20.999Z</time></trkpt><trkpt lat="45.12425125217484" lon="10.003527489716468"><ele>30.0</ele><time>2026-04-26T05:23:21.999Z</time></trkpt><trkpt lat="45.124203299698024" lon="10.003592476047512"><ele>30.0</ele><time>2026-04-26T05:23:22.999Z</time></trkpt><trkpt lat="45.12415322824039" lon="10.003654016844763"><ele>30.0</ele><time>2026-04-26T05:23:23.999Z</time></trkpt><trkpt lat="45.124100961944265" lon="10.003714893758945"><ele>30.0</ele><time>2026-04-26T05:23:24.999Z</time></trkpt><trkpt lat="45.12405008864187" lon="10.003772177061412"><ele>30.0</ele><time>2026-04-26T05:23:25.999Z</time></trkpt><trkpt lat="45.123998772237556" lon="10.003832715037447"><ele>30.0</ele><time>2026-04-26T05:23:26.999Z</time></trkpt><trkpt lat="45.123945330582785" lon="10.003892966526376"><ele>30.0</ele><time>2026-04-26T05:23:27.999Z</time></trkpt><trkpt lat="45.12389374829388" lon="10.003949914555845"><ele>30.0</ele><time>2026-04-26T05:23:28.999Z</time></trkpt><trkpt lat="45.12379592603026" lon="10.004060661740548"><ele>30.0</ele><time>2026-04-26T05:23:30.999Z</time></trkpt><trkpt lat="45.12371194359241" lon="10.004155887937985"><ele>30.0</ele><time>2026-04-26T05:23:32.999Z</time></trkpt><trkpt lat="45.12365291088812" lon="10.00421776418898"><ele>30.0</ele><time>2026-04-26T05:23:34.999Z</time></trkpt><trkpt lat="45.12372258361494" lon="10.004156942260886"><ele>30.0</ele><time>2026-04-26T05:23:40.999Z</time></trkpt><trkpt lat="45.12379505974249" lon="10.004074485968712"><ele>30.0</ele><time>2026-04-26T05:23:42.999Z</time></trkpt><trkpt lat="45.1238807374351" lon="10.003973613076573"><ele>30.0</ele><time>2026-04-26T05:23:44.999Z</time></trkpt><trkpt lat="45.12397032880634" lon="10.003867658111082"><ele>30.0</ele><time>2026-04-26T05:23:46.999Z</time></trkpt><trkpt lat="45.12406280796348" lon="10.003762496284997"><ele>30.0</ele><time>2026-04-26T05:23:48.999Z</time></trkpt><trkpt lat="45.12413750126797" lon="10.003716384500288"><ele>30.0</ele><time>2026-04-26T05:23:49.999Z</time></trkpt><trkpt lat="45.12421177276403" lon="10.003619871306682"><ele>30.0</ele><time>2026-04-26T05:23:51.999Z</time></trkpt><trkpt lat="45.12427982532026" lon="10.003535716882858"><ele>30.0</ele><time>2026-04-26T05:23:53.999Z</time></trkpt><trkpt lat="45.12434958345396" lon="10.0034388321488"><ele>30.0</ele><time>2026-04-26T05:23:55.999Z</time></trkpt><trkpt lat="45.124419756296774" lon="10.003331361483045"><ele>30.0</ele><time>2026-04-26T05:23:57.998Z</time></trkpt><trkpt lat="45.12449068299765" lon="10.003221207441186"><ele>30.0</ele><time>2026-04-26T05:23:59.998Z</time></trkpt><trkpt lat="45.124559447104126" lon="10.00311064330477"><ele>30.0</ele><time>2026-04-26T05:24:01.998Z</time></trkpt><trkpt lat="45.12462666162307" lon="10.002998369524827"><ele>30.0</ele><time>2026-04-26T05:24:03.998Z</time></trkpt><trkpt lat="45.12469167952794" lon="10.002883902743754"><ele>30.0</ele><time>2026-04-26T05:24:05.998Z</time></trkpt><trkpt lat="45.12476004764893" lon="10.002776506484667"><ele>30.0</ele><time>2026-04-26T05:24:07.998Z</time></trkpt><trkpt lat="45.124831151688376" lon="10.002667183973262"><ele>30.0</ele><time>2026-04-26T05:24:09.998Z</time></trkpt><trkpt lat="45.12489930888182" lon="10.002550116395748"><ele>30.0</ele><time>2026-04-26T05:24:11.998Z</time></trkpt><trkpt lat="45.1249754104805" lon="10.002441673171582"><ele>30.4</ele><time>2026-04-26T05:24:13.998Z</time></trkpt><trkpt lat="45.12505872742965" lon="10.0023394893063"><ele>30.8</ele><time>2026-04-26T05:24:15.998Z</time></trkpt><trkpt lat="45.12514371178357" lon="10.002233647307065"><ele>31.200000000000003</ele><time>2026-04-26T05:24:17.998Z</time></trkpt><trkpt lat="45.125229862361834" lon="10.002127921146863"><ele>31.6</ele><time>2026-04-26T05:24:19.998Z</time></trkpt><trkpt lat="45.12531563710663" lon="10.002025590950854"><ele>32.0</ele><time>2026-04-26T05:24:21.998Z</time></trkpt><trkpt lat="45.12539892759538" lon="10.001928354367369"><ele>32.0</ele><time>2026-04-26T05:24:23.998Z</time></trkpt><trkpt lat="45.12549045515508" lon="10.00184999704238"><ele>32.0</ele><time>2026-04-26T05:24:25.998Z</time></trkpt><trkpt lat="45.125576672791404" lon="10.001752631899327"><ele>32.0</ele><time>2026-04-26T05:24:27.998Z</time></trkpt><trkpt lat="45.1256630889596" lon="10.001655042345226"><ele>32.0</ele><time>2026-04-26T05:24:29.998Z</time></trkpt><trkpt lat="45.12574640377778" lon="10.001557314468359"><ele>32.0</ele><time>2026-04-26T05:24:31.998Z</time></trkpt><trkpt lat="45.12582178927165" lon="10.001443168009072"><ele>31.400000000000002</ele><time>2026-04-26T05:24:33.998Z</time></trkpt><trkpt lat="45.12590843268998" lon="10.001345981342771"><ele>30.800000000000004</ele><time>2026-04-26T05:24:35.998Z</time></trkpt><trkpt lat="45.12599339583709" lon="10.001243665814739"><ele>30.2</ele><time>2026-04-26T05:24:37.998Z</time></trkpt><trkpt lat="45.12607266902743" lon="10.001141435950524"><ele>29.6</ele><time>2026-04-26T05:24:39.998Z</time></trkpt><trkpt lat="45.126152336325866" lon="10.001035245658452"><ele>29.0</ele><time>2026-04-26T05:24:41.998Z</time></trkpt><trkpt lat="45.12622040260549" lon="10.000948870622192"><ele>29.0</ele><time>2026-04-26T05:24:43.998Z</time></trkpt><trkpt lat="45.12627895987426" lon="10.000861666793606"><ele>29.0</ele><time>2026-04-26T05:24:45.998Z</time></trkpt><trkpt lat="45.12635629865771" lon="10.000772018828005"><ele>29.0</ele><time>2026-04-26T05:24:47.998Z</time></trkpt><trkpt lat="45.12644922114476" lon="10.000672968248024"><ele>29.0</ele><time>2026-04-26T05:24:49.998Z</time></trkpt><trkpt lat="45.126530323037436" lon="10.000574285580075"><ele>29.0</ele><time>2026-04-26T05:24:52Z</time></trkpt><trkpt lat="45.126609526921406" lon="10.000485338693847"><ele>29.0</ele><time>2026-04-26T05:24:54Z</time></trkpt><trkpt lat="45.12668799599252" lon="10.000399680715242"><ele>29.0</ele><time>2026-04-26T05:24:56Z</time></trkpt><trkpt lat="45.12677326332131" lon="10.000309510159473"><ele>29.0</ele><time>2026-04-26T05:24:58Z</time></trkpt><trkpt lat="45.1268568457953" lon="10.000227303599347"><ele>29.0</ele><time>2026-04-26T05:25:00Z</time></trkpt><trkpt lat="45.12694255826096" lon="10.000149317693452"><ele>29.0</ele><time>2026-04-26T05:25:02Z</time></trkpt><trkpt lat="45.12702458502239" lon="10.000064669065234"><ele>29.0</ele><time>2026-04-26T05:25:04Z</time></trkpt><trkpt lat="45.12711922356028" lon="9.999990474175913"><ele>29.0</ele><time>2026-04-26T05:25:06Z</time></trkpt><trkpt lat="45.12721180387117" lon="9.999922051073323"><ele>29.0</ele><time>2026-04-26T05:25:07.999Z</time></trkpt><trkpt lat="45.12730015273811" lon="9.999862405912612"><ele>29.0</ele><time>2026-04-26T05:25:09.999Z</time></trkpt><trkpt lat="45.127398095099956" lon="9.999815063553463"><ele>29.0</ele><time>2026-04-26T05:25:11.999Z</time></trkpt><trkpt lat="45.127493987137804" lon="9.999781498395958"><ele>31.0</ele><time>2026-04-26T05:25:13.999Z</time></trkpt><trkpt lat="45.12759572762071" lon="9.999767549776701"><ele>33.0</ele><time>2026-04-26T05:25:15.999Z</time></trkpt><trkpt lat="45.12769617608067" lon="9.999801567898105"><ele>35.0</ele><time>2026-04-26T05:25:17.999Z</time></trkpt><trkpt lat="45.12779315658619" lon="9.999865486200159"><ele>37.0</ele><time>2026-04-26T05:25:19.999Z</time></trkpt><trkpt lat="45.12788788587294" lon="9.999931859863276"><ele>39.0</ele><time>2026-04-26T05:25:21.999Z</time></trkpt><trkpt lat="45.12798054955836" lon="9.999998903319753"><ele>39.0</ele><time>2026-04-26T05:25:23.999Z</time></trkpt><trkpt lat="45.12807470916396" lon="10.000063457413871"><ele>39.0</ele><time>2026-04-26T05:25:25.999Z</time></trkpt><trkpt lat="45.128171726501165" lon="10.000129906404927"><ele>39.0</ele><time>2026-04-26T05:25:27.999Z</time></trkpt><trkpt lat="45.12826789521284" lon="10.000193334673886"><ele>39.0</ele><time>2026-04-26T05:25:29.999Z</time></trkpt><trkpt lat="45.128362233366886" lon="10.000259140830064"><ele>39.0</ele><time>2026-04-26T05:25:31.999Z</time></trkpt><trkpt lat="45.12845450016235" lon="10.000326886730559"><ele>39.0</ele><time>2026-04-26T05:25:33.999Z</time></trkpt><trkpt lat="45.12855063858179" lon="10.00039268221768"><ele>39.0</ele><time>2026-04-26T05:25:35.999Z</time></trkpt><trkpt lat="45.12864637467761" lon="10.000455121767468"><ele>39.0</ele><time>2026-04-26T05:25:37.999Z</time></trkpt><trkpt lat="45.128739123451005" lon="10.00052128021954"><ele>39.0</ele><time>2026-04-26T05:25:39.999Z</time></trkpt><trkpt lat="45.128830687108504" lon="10.00058911276863"><ele>39.0</ele><time>2026-04-26T05:25:41.999Z</time></trkpt><trkpt lat="45.12892334824477" lon="10.000650685050152"><ele>39.0</ele><time>2026-04-26T05:25:43.999Z</time></trkpt><trkpt lat="45.12901461340287" lon="10.000712832722012"><ele>39.0</ele><time>2026-04-26T05:25:45.999Z</time></trkpt><trkpt lat="45.12910423584612" lon="10.000774856803254"><ele>39.0</ele><time>2026-04-26T05:25:47.999Z</time></trkpt><trkpt lat="45.12919379937846" lon="10.000839041933398"><ele>39.0</ele><time>2026-04-26T05:25:49.999Z</time></trkpt><trkpt lat="45.12928414771058" lon="10.000902173955751"><ele>39.0</ele><time>2026-04-26T05:25:51.999Z</time></trkpt><trkpt lat="45.129371708243816" lon="10.00096520325974"><ele>39.0</ele><time>2026-04-26T05:25:53.999Z</time></trkpt><trkpt lat="45.12945653108363" lon="10.001026950158955"><ele>39.0</ele><time>2026-04-26T05:25:55.999Z</time></trkpt><trkpt lat="45.12954071691339" lon="10.001085581374847"><ele>39.0</ele><time>2026-04-26T05:25:57.999Z</time></trkpt><trkpt lat="45.12961915541461" lon="10.00113432718299"><ele>39.0</ele><time>2026-04-26T05:25:59.999Z</time></trkpt><trkpt lat="45.129694782963725" lon="10.001184432175332"><ele>39.0</ele><time>2026-04-26T05:26:01.998Z</time></trkpt><trkpt lat="45.12976515416368" lon="10.001235422289598"><ele>39.0</ele><time>2026-04-26T05:26:03.998Z</time></trkpt><trkpt lat="45.1298322546755" lon="10.001284528855281"><ele>39.0</ele><time>2026-04-26T05:26:05.998Z</time></trkpt><trkpt lat="45.12989069700487" lon="10.001331033148855"><ele>39.0</ele><time>2026-04-26T05:26:07.998Z</time></trkpt><trkpt lat="45.12995989224842" lon="10.001385494409838"><ele>39.0</ele><time>2026-04-26T05:26:10.998Z</time></trkpt><trkpt lat="45.13001323604325" lon="10.001437788288815"><ele>39.0</ele><time>2026-04-26T05:26:13.998Z</time></trkpt><trkpt lat="45.130031923860194" lon="10.001523524619685"><ele>39.0</ele><time>2026-04-26T05:26:17.998Z</time></trkpt><trkpt lat="45.13005351597345" lon="10.001409804125103"><ele>39.0</ele><time>2026-04-26T05:30:53.999Z</time></trkpt><trkpt lat="45.13010069955274" lon="10.001332821285137"><ele>39.0</ele><time>2026-04-26T05:30:56.999Z</time></trkpt><trkpt lat="45.13017834588511" lon="10.001268014423664"><ele>39.166666666666664</ele><time>2026-04-26T05:30:58.999Z</time></trkpt><trkpt lat="45.13022751731243" lon="10.001176929305931"><ele>39.333333333333336</ele><time>2026-04-26T05:31:00.999Z</time></trkpt><trkpt lat="45.130263227750575" lon="10.001069792857708"><ele>39.5</ele><time>2026-04-26T05:31:02.999Z</time></trkpt><trkpt lat="45.13030099716268" lon="10.000954358483797"><ele>39.66666666666667</ele><time>2026-04-26T05:31:04.999Z</time></trkpt><trkpt lat="45.130336930248916" lon="10.000847584436169"><ele>39.833333333333336</ele><time>2026-04-26T05:31:06.998Z</time></trkpt><trkpt lat="45.13036898697784" lon="10.000749703381691"><ele>40.0</ele><time>2026-04-26T05:31:08.998Z</time></trkpt><trkpt lat="45.13038919797001" lon="10.000647091658058"><ele>40.2</ele><time>2026-04-26T05:31:11Z</time></trkpt><trkpt lat="45.130419375299766" lon="10.000526620278102"><ele>40.4</ele><time>2026-04-26T05:31:13Z</time></trkpt><trkpt lat="45.13043158863069" lon="10.000388585161893"><ele>40.599999999999994</ele><time>2026-04-26T05:31:15Z</time></trkpt><trkpt lat="45.13042059467473" lon="10.000258658104936"><ele>40.8</ele><time>2026-04-26T05:31:17Z</time></trkpt><trkpt lat="45.13040305019479" lon="10.000130280094703"><ele>41.0</ele><time>2026-04-26T05:31:19Z</time></trkpt><trkpt lat="45.1303872413468" lon="9.999998216356689"><ele>41.0</ele><time>2026-04-26T05:31:21Z</time></trkpt><trkpt lat="45.13037774187826" lon="9.999863034845498"><ele>41.0</ele><time>2026-04-26T05:31:23Z</time></trkpt><trkpt lat="45.1303627325488" lon="9.999733789991957"><ele>41.0</ele><time>2026-04-26T05:31:25Z</time></trkpt><trkpt lat="45.13035213654104" lon="9.999596168506734"><ele>41.0</ele><time>2026-04-26T05:31:27Z</time></trkpt><trkpt lat="45.130329822044466" lon="9.999467630846965"><ele>41.0</ele><time>2026-04-26T05:31:29Z</time></trkpt><trkpt lat="45.130322384856775" lon="9.999336456408587"><ele>41.0</ele><time>2026-04-26T05:31:31Z</time></trkpt><trkpt lat="45.130306618970955" lon="9.999204093027489"><ele>41.0</ele><time>2026-04-26T05:31:33Z</time></trkpt><trkpt lat="45.130290703133646" lon="9.999064416725568"><ele>41.0</ele><time>2026-04-26T05:31:35Z</time></trkpt><trkpt lat="45.13027503768737" lon="9.998937390682729"><ele>41.0</ele><time>2026-04-26T05:31:37Z</time></trkpt><trkpt lat="45.13025937154431" lon="9.998797343636243"><ele>41.0</ele><time>2026-04-26T05:31:39Z</time></trkpt><trkpt lat="45.13024157161914" lon="9.99866619141788"><ele>41.0</ele><time>2026-04-26T05:31:41Z</time></trkpt><trkpt lat="45.130230070032844" lon="9.998537000126088"><ele>41.0</ele><time>2026-04-26T05:31:43Z</time></trkpt><trkpt lat="45.13021439855844" lon="9.99840299849029"><ele>41.0</ele><time>2026-04-26T05:31:45Z</time></trkpt><trkpt lat="45.130198141363444" lon="9.998255202907362"><ele>41.0</ele><time>2026-04-26T05:31:47Z</time></trkpt><trkpt lat="45.13017808205669" lon="9.99811845607314"><ele>41.0</ele><time>2026-04-26T05:31:49Z</time></trkpt><trkpt lat="45.13025100593594" lon="9.99803597776447"><ele>40.8</ele><time>2026-04-26T05:31:50Z</time></trkpt><trkpt lat="45.13023621028831" lon="9.997899399546796"><ele>40.599999999999994</ele><time>2026-04-26T05:31:52Z</time></trkpt><trkpt lat="45.130221651448764" lon="9.99776483034968"><ele>40.4</ele><time>2026-04-26T05:31:54Z</time></trkpt><trkpt lat="45.13020599647335" lon="9.997620129412612"><ele>40.2</ele><time>2026-04-26T05:31:56Z</time></trkpt><trkpt lat="45.13019045459941" lon="9.997476021946373"><ele>40.0</ele><time>2026-04-26T05:31:58Z</time></trkpt><trkpt lat="45.130174741097434" lon="9.997329944451634"><ele>40.0</ele><time>2026-04-26T05:32:00Z</time></trkpt><trkpt lat="45.13015943328302" lon="9.997187638478115"><ele>40.0</ele><time>2026-04-26T05:32:02Z</time></trkpt><trkpt lat="45.13005944991595" lon="9.997063544471626"><ele>40.0</ele><time>2026-04-26T05:32:04Z</time></trkpt><trkpt lat="45.13003559014938" lon="9.996916799146698"><ele>40.0</ele><time>2026-04-26T05:32:06Z</time></trkpt><trkpt lat="45.130018863816304" lon="9.996760879976323"><ele>39.5</ele><time>2026-04-26T05:32:08Z</time></trkpt><trkpt lat="45.13000126824475" lon="9.996597841629264"><ele>39.0</ele><time>2026-04-26T05:32:10Z</time></trkpt><trkpt lat="45.129977764733056" lon="9.99643761681362"><ele>38.5</ele><time>2026-04-26T05:32:12Z</time></trkpt><trkpt lat="45.12992978626579" lon="9.996286893355641"><ele>38.0</ele><time>2026-04-26T05:32:14Z</time></trkpt><trkpt lat="45.12986490769589" lon="9.996153248990261"><ele>38.0</ele><time>2026-04-26T05:32:15.999Z</time></trkpt><trkpt lat="45.12978763151467" lon="9.996032600688004"><ele>38.0</ele><time>2026-04-26T05:32:17.999Z</time></trkpt><trkpt lat="45.129697684050775" lon="9.995942376018833"><ele>38.0</ele><time>2026-04-26T05:32:19.999Z</time></trkpt><trkpt lat="45.12960673270313" lon="9.995875838846558"><ele>38.0</ele><time>2026-04-26T05:32:21.999Z</time></trkpt><trkpt lat="45.12952040108573" lon="9.995798285297463"><ele>38.0</ele><time>2026-04-26T05:32:23.999Z</time></trkpt><trkpt lat="45.129417303282835" lon="9.99570609536538"><ele>37.25</ele><time>2026-04-26T05:32:25.999Z</time></trkpt><trkpt lat="45.1293493169734" lon="9.995532438991338"><ele>36.5</ele><time>2026-04-26T05:32:27.999Z</time></trkpt><trkpt lat="45.129244090574105" lon="9.9954421960877"><ele>35.75</ele><time>2026-04-26T05:32:29.999Z</time></trkpt><trkpt lat="45.12913935570731" lon="9.99535237469274"><ele>35.0</ele><time>2026-04-26T05:32:31.999Z</time></trkpt><trkpt lat="45.12903191823318" lon="9.995260235489582"><ele>34.666666666666664</ele><time>2026-04-26T05:32:33.999Z</time></trkpt><trkpt lat="45.12892720308794" lon="9.99517043099951"><ele>34.33333333333333</ele><time>2026-04-26T05:32:35.999Z</time></trkpt><trkpt lat="45.1288724459339" lon="9.99512347091504"><ele>34.0</ele><time>2026-04-26T05:32:36.999Z</time></trkpt><trkpt lat="45.12876281473971" lon="9.9950294503794"><ele>33.666666666666664</ele><time>2026-04-26T05:32:38.999Z</time></trkpt><trkpt lat="45.12870815142855" lon="9.994982312494782"><ele>33.333333333333336</ele><time>2026-04-26T05:32:39.999Z</time></trkpt><trkpt lat="45.128653481780695" lon="9.994934811709289"><ele>33.0</ele><time>2026-04-26T05:32:40.999Z</time></trkpt><trkpt lat="45.128599680127856" lon="9.99488806507816"><ele>32.166666666666664</ele><time>2026-04-26T05:32:41.999Z</time></trkpt><trkpt lat="45.128544479901464" lon="9.994840103257737"><ele>31.333333333333336</ele><time>2026-04-26T05:32:42.999Z</time></trkpt><trkpt lat="45.128489487396386" lon="9.99479232194285"><ele>30.5</ele><time>2026-04-26T05:32:43.999Z</time></trkpt><trkpt lat="45.12838040921632" lon="9.994697547250649"><ele>29.666666666666668</ele><time>2026-04-26T05:32:45.999Z</time></trkpt><trkpt lat="45.12827338805178" lon="9.994605186431967"><ele>28.833333333333336</ele><time>2026-04-26T05:32:47.999Z</time></trkpt><trkpt lat="45.12821749907462" lon="9.994557084605706"><ele>28.0</ele><time>2026-04-26T05:32:48.999Z</time></trkpt><trkpt lat="45.128161908079946" lon="9.994509239242813"><ele>28.0</ele><time>2026-04-26T05:32:49.999Z</time></trkpt><trkpt lat="45.12810747178844" lon="9.994462387678384"><ele>28.0</ele><time>2026-04-26T05:32:50.999Z</time></trkpt><trkpt lat="45.12805140452708" lon="9.99441413243247"><ele>28.0</ele><time>2026-04-26T05:32:51.999Z</time></trkpt><trkpt lat="45.1279966986894" lon="9.994367068187726"><ele>28.0</ele><time>2026-04-26T05:32:52.999Z</time></trkpt><trkpt lat="45.12794118823446" lon="9.994319417641202"><ele>28.0</ele><time>2026-04-26T05:32:53.999Z</time></trkpt><trkpt lat="45.12788686188495" lon="9.994272783505565"><ele>28.0</ele><time>2026-04-26T05:32:54.999Z</time></trkpt><trkpt lat="45.12783106756494" lon="9.99422488929555"><ele>28.0</ele><time>2026-04-26T05:32:55.999Z</time></trkpt><trkpt lat="45.12772276264747" lon="9.994131558509691"><ele>28.0</ele><time>2026-04-26T05:32:57.999Z</time></trkpt><trkpt lat="45.12766639470673" lon="9.994082946777395"><ele>28.0</ele><time>2026-04-26T05:32:58.999Z</time></trkpt><trkpt lat="45.127611362943256" lon="9.994035487361687"><ele>28.0</ele><time>2026-04-26T05:32:59.999Z</time></trkpt><trkpt lat="45.12755586837449" lon="9.993987628817845"><ele>28.0</ele><time>2026-04-26T05:33:00.999Z</time></trkpt><trkpt lat="45.12750014486875" lon="9.993939572807045"><ele>28.0</ele><time>2026-04-26T05:33:01.999Z</time></trkpt><trkpt lat="45.12744436571243" lon="9.99389146883416"><ele>28.0</ele><time>2026-04-26T05:33:02.999Z</time></trkpt><trkpt lat="45.127388633788115" lon="9.993843405514907"><ele>28.0</ele><time>2026-04-26T05:33:03.999Z</time></trkpt><trkpt lat="45.12733365679678" lon="9.99379599338155"><ele>29.799999999999997</ele><time>2026-04-26T05:33:04.999Z</time></trkpt><trkpt lat="45.12727787132459" lon="9.993747883945499"><ele>31.599999999999998</ele><time>2026-04-26T05:33:05.999Z</time></trkpt><trkpt lat="45.12716721010084" lon="9.993652449635647"><ele>33.400000000000006</ele><time>2026-04-26T05:33:07.999Z</time></trkpt><trkpt lat="45.12711211329092" lon="9.993605087335983"><ele>35.2</ele><time>2026-04-26T05:33:08.999Z</time></trkpt><trkpt lat="45.12700314772225" lon="9.993511476411715"><ele>37.0</ele><time>2026-04-26T05:33:10.998Z</time></trkpt><trkpt lat="45.126948376653736" lon="9.993464423260729"><ele>37.0</ele><time>2026-04-26T05:33:11.998Z</time></trkpt><trkpt lat="45.12689284134866" lon="9.993416542669292"><ele>37.0</ele><time>2026-04-26T05:33:12.998Z</time></trkpt><trkpt lat="45.126836091599976" lon="9.99336717366387"><ele>37.0</ele><time>2026-04-26T05:33:13.998Z</time></trkpt><trkpt lat="45.12678121199841" lon="9.993319431573397"><ele>37.0</ele><time>2026-04-26T05:33:14.998Z</time></trkpt><trkpt lat="45.12672567254784" lon="9.993271115465117"><ele>37.0</ele><time>2026-04-26T05:33:16Z</time></trkpt><trkpt lat="45.126671459791275" lon="9.993223953515985"><ele>37.0</ele><time>2026-04-26T05:33:17Z</time></trkpt><trkpt lat="45.1266151338134" lon="9.993174953138467"><ele>37.0</ele><time>2026-04-26T05:33:18Z</time></trkpt><trkpt lat="45.12656066900741" lon="9.993128042784566"><ele>37.285714285714285</ele><time>2026-04-26T05:33:19Z</time></trkpt><trkpt lat="45.126505871616295" lon="9.993081078933221"><ele>37.57142857142857</ele><time>2026-04-26T05:33:20Z</time></trkpt><trkpt lat="45.12644734765297" lon="9.993030921098367"><ele>37.85714285714286</ele><time>2026-04-26T05:33:21Z</time></trkpt><trkpt lat="45.12639251545466" lon="9.992983927329913"><ele>38.14285714285714</ele><time>2026-04-26T05:33:22Z</time></trkpt><trkpt lat="45.1263377895915" lon="9.99293702473636"><ele>38.42857142857142</ele><time>2026-04-26T05:33:23Z</time></trkpt><trkpt lat="45.126280657146914" lon="9.992888059569692"><ele>38.714285714285715</ele><time>2026-04-26T05:33:24Z</time></trkpt><trkpt lat="45.12622558811564" lon="9.992840862843256"><ele>39.0</ele><time>2026-04-26T05:33:25Z</time></trkpt><trkpt lat="45.126169349491015" lon="9.992792663711747"><ele>39.0</ele><time>2026-04-26T05:33:26Z</time></trkpt><trkpt lat="45.126113123775994" lon="9.992744475656805"><ele>39.0</ele><time>2026-04-26T05:33:27Z</time></trkpt><trkpt lat="45.12605743218155" lon="9.992696745368711"><ele>39.0</ele><time>2026-04-26T05:33:28Z</time></trkpt><trkpt lat="45.126002026005736" lon="9.99264925968044"><ele>39.0</ele><time>2026-04-26T05:33:29Z</time></trkpt><trkpt lat="45.125946403631964" lon="9.992601588734829"><ele>39.0</ele><time>2026-04-26T05:33:30Z</time></trkpt><trkpt lat="45.12589084582989" lon="9.992553973136229"><ele>39.0</ele><time>2026-04-26T05:33:31Z</time></trkpt><trkpt lat="45.12583271337301" lon="9.9925041508899"><ele>39.0</ele><time>2026-04-26T05:33:32Z</time></trkpt><trkpt lat="45.125776482980505" lon="9.992455958814544"><ele>39.285714285714285</ele><time>2026-04-26T05:33:33Z</time></trkpt><trkpt lat="45.125718761296376" lon="9.992406488662068"><ele>39.57142857142857</ele><time>2026-04-26T05:33:34Z</time></trkpt><trkpt lat="45.12566053195003" lon="9.992356830457744"><ele>39.857142857142854</ele><time>2026-04-26T05:33:35Z</time></trkpt><trkpt lat="45.12560143971073" lon="9.992306502205647"><ele>40.14285714285714</ele><time>2026-04-26T05:33:36Z</time></trkpt><trkpt lat="45.12554463396421" lon="9.992258121469579"><ele>40.42857142857143</ele><time>2026-04-26T05:33:37Z</time></trkpt><trkpt lat="45.12548835848886" lon="9.992210192358975"><ele>40.71428571428571</ele><time>2026-04-26T05:33:38Z</time></trkpt><trkpt lat="45.125432812022794" lon="9.992161721003406"><ele>41.0</ele><time>2026-04-26T05:33:39Z</time></trkpt><trkpt lat="45.12537531276893" lon="9.992111375507713"><ele>40.99999999999999</ele><time>2026-04-26T05:33:40Z</time></trkpt><trkpt lat="45.12531799364366" lon="9.99206118774432"><ele>41.0</ele><time>2026-04-26T05:33:41Z</time></trkpt><trkpt lat="45.125260277311725" lon="9.992010652125632"><ele>41.0</ele><time>2026-04-26T05:33:42Z</time></trkpt><trkpt lat="45.12520385627112" lon="9.991961250684595"><ele>41.0</ele><time>2026-04-26T05:33:43Z</time></trkpt><trkpt lat="45.12514643918817" lon="9.991910977132056"><ele>41.0</ele><time>2026-04-26T05:33:44Z</time></trkpt><trkpt lat="45.12508895078449" lon="9.9918617700013"><ele>40.99999999999999</ele><time>2026-04-26T05:33:45Z</time></trkpt><trkpt lat="45.12503151902973" lon="9.99181275647728"><ele>41.0</ele><time>2026-04-26T05:33:46Z</time></trkpt><trkpt lat="45.1249760052057" lon="9.991765379746848"><ele>41.0</ele><time>2026-04-26T05:33:47Z</time></trkpt><trkpt lat="45.12491888957658" lon="9.991716635964623"><ele>41.0</ele><time>2026-04-26T05:33:48Z</time></trkpt><trkpt lat="45.12480885657191" lon="9.991621683977868"><ele>41.0</ele><time>2026-04-26T05:33:50Z</time></trkpt><trkpt lat="45.12475062358792" lon="9.991571006324474"><ele>41.0</ele><time>2026-04-26T05:33:51Z</time></trkpt><trkpt lat="45.12469488172098" lon="9.991522496554143"><ele>41.0</ele><time>2026-04-26T05:33:52Z</time></trkpt><trkpt lat="45.12460789100022" lon="9.991549570893605"><ele>41.0</ele><time>2026-04-26T05:33:53Z</time></trkpt><trkpt lat="45.12458348988399" lon="9.991426010289217"><ele>40.71428571428571</ele><time>2026-04-26T05:33:54Z</time></trkpt><trkpt lat="45.124523109870914" lon="9.991374108248078"><ele>40.42857142857143</ele><time>2026-04-26T05:33:55Z</time></trkpt><trkpt lat="45.12446574060437" lon="9.991324794029046"><ele>40.14285714285714</ele><time>2026-04-26T05:33:56Z</time></trkpt><trkpt lat="45.1244064641727" lon="9.991273840543656"><ele>39.857142857142854</ele><time>2026-04-26T05:33:57Z</time></trkpt><trkpt lat="45.12434970461763" lon="9.991225050548339"><ele>39.57142857142857</ele><time>2026-04-26T05:33:58Z</time></trkpt><trkpt lat="45.124294550994655" lon="9.991177640959773"><ele>39.285714285714285</ele><time>2026-04-26T05:33:59Z</time></trkpt><trkpt lat="45.124240618469116" lon="9.991131281033333"><ele>39.0</ele><time>2026-04-26T05:34:00Z</time></trkpt><trkpt lat="45.12418102375472" lon="9.991079996345457"><ele>39.0</ele><time>2026-04-26T05:34:01Z</time></trkpt><trkpt lat="45.124072536375955" lon="9.990986413539703"><ele>39.0</ele><time>2026-04-26T05:34:03Z</time></trkpt><trkpt lat="45.12401624737489" lon="9.990937857644443"><ele>39.0</ele><time>2026-04-26T05:34:04Z</time></trkpt><trkpt lat="45.123960590257575" lon="9.990889846792621"><ele>39.0</ele><time>2026-04-26T05:34:05Z</time></trkpt><trkpt lat="45.12390271148166" lon="9.990839919770188"><ele>39.0</ele><time>2026-04-26T05:34:06Z</time></trkpt><trkpt lat="45.123844809252866" lon="9.990789972442583"><ele>39.0</ele><time>2026-04-26T05:34:07Z</time></trkpt><trkpt lat="45.12378670260466" lon="9.990739848764314"><ele>39.166666666666664</ele><time>2026-04-26T05:34:08Z</time></trkpt><trkpt lat="45.12372955957252" lon="9.990690556239374"><ele>39.333333333333336</ele><time>2026-04-26T05:34:09Z</time></trkpt><trkpt lat="45.12367485490974" lon="9.990643367093007"><ele>39.5</ele><time>2026-04-26T05:34:10Z</time></trkpt><trkpt lat="45.123565249606074" lon="9.990548819632933"><ele>39.66666666666667</ele><time>2026-04-26T05:34:12Z</time></trkpt><trkpt lat="45.123510780965056" lon="9.990501834446876"><ele>39.833333333333336</ele><time>2026-04-26T05:34:13Z</time></trkpt><trkpt lat="45.12345493984515" lon="9.990453664797721"><ele>40.0</ele><time>2026-04-26T05:34:14Z</time></trkpt><trkpt lat="45.123398743171215" lon="9.990405116010423"><ele>40.0</ele><time>2026-04-26T05:34:15Z</time></trkpt><trkpt lat="45.12334029112498" lon="9.990354368249179"><ele>40.0</ele><time>2026-04-26T05:34:16Z</time></trkpt><trkpt lat="45.12328213566191" lon="9.990303879488282"><ele>40.0</ele><time>2026-04-26T05:34:17Z</time></trkpt><trkpt lat="45.12322379968741" lon="9.990253232471664"><ele>40.0</ele><time>2026-04-26T05:34:18Z</time></trkpt><trkpt lat="45.12316657427589" lon="9.990203549611397"><ele>40.0</ele><time>2026-04-26T05:34:19Z</time></trkpt><trkpt lat="45.12310803344689" lon="9.990152724736072"><ele>40.0</ele><time>2026-04-26T05:34:19.999Z</time></trkpt><trkpt lat="45.123052019971574" lon="9.990104094060717"><ele>40.0</ele><time>2026-04-26T05:34:20.999Z</time></trkpt><trkpt lat="45.12299441699232" lon="9.990054083457967"><ele>40.0</ele><time>2026-04-26T05:34:21.999Z</time></trkpt><trkpt lat="45.122938569506225" lon="9.990005650908145"><ele>40.0</ele><time>2026-04-26T05:34:22.999Z</time></trkpt><trkpt lat="45.12288177489015" lon="9.989956804685761"><ele>40.0</ele><time>2026-04-26T05:34:23.999Z</time></trkpt><trkpt lat="45.12282437828635" lon="9.989907440834443"><ele>40.0</ele><time>2026-04-26T05:34:24.999Z</time></trkpt><trkpt lat="45.12277029950017" lon="9.98986093044848"><ele>40.0</ele><time>2026-04-26T05:34:25.999Z</time></trkpt><trkpt lat="45.122712956255896" lon="9.989811612458391"><ele>40.0</ele><time>2026-04-26T05:34:26.999Z</time></trkpt><trkpt lat="45.1226536787747" lon="9.989760630968975"><ele>40.0</ele><time>2026-04-26T05:34:27.999Z</time></trkpt><trkpt lat="45.12259679682023" lon="9.989711709701906"><ele>40.0</ele><time>2026-04-26T05:34:28.999Z</time></trkpt><trkpt lat="45.122539924688134" lon="9.98966279689252"><ele>40.0</ele><time>2026-04-26T05:34:29.999Z</time></trkpt><trkpt lat="45.12248445997976" lon="9.989614906340968"><ele>40.0</ele><time>2026-04-26T05:34:30.999Z</time></trkpt><trkpt lat="45.122429054668466" lon="9.989566024921393"><ele>40.0</ele><time>2026-04-26T05:34:31.999Z</time></trkpt><trkpt lat="45.12237456718379" lon="9.989517953348322"><ele>40.0</ele><time>2026-04-26T05:34:32.999Z</time></trkpt><trkpt lat="45.12226288352929" lon="9.98942153499347"><ele>40.0</ele><time>2026-04-26T05:34:34.999Z</time></trkpt><trkpt lat="45.12215479757654" lon="9.989337271603405"><ele>39.833333333333336</ele><time>2026-04-26T05:34:36.999Z</time></trkpt><trkpt lat="45.122053044134674" lon="9.989262090443956"><ele>39.66666666666667</ele><time>2026-04-26T05:34:38.999Z</time></trkpt><trkpt lat="45.12198840488157" lon="9.98921984870941"><ele>39.5</ele><time>2026-04-26T05:34:39.999Z</time></trkpt><trkpt lat="45.1219209216064" lon="9.98919093992491"><ele>39.333333333333336</ele><time>2026-04-26T05:34:40.999Z</time></trkpt><trkpt lat="45.12185558691001" lon="9.98917143772312"><ele>39.166666666666664</ele><time>2026-04-26T05:34:41.999Z</time></trkpt><trkpt lat="45.1217859027288" lon="9.98915844957527"><ele>39.0</ele><time>2026-04-26T05:34:42.999Z</time></trkpt><trkpt lat="45.12171751821793" lon="9.989152710720795"><ele>39.0</ele><time>2026-04-26T05:34:43.999Z</time></trkpt><trkpt lat="45.12164088515138" lon="9.98916049554412"><ele>39.0</ele><time>2026-04-26T05:34:44.999Z</time></trkpt><trkpt lat="45.12156844346921" lon="9.989179468632743"><ele>39.0</ele><time>2026-04-26T05:34:45.999Z</time></trkpt><trkpt lat="45.12150218319899" lon="9.989204530786479"><ele>39.0</ele><time>2026-04-26T05:34:46.999Z</time></trkpt><trkpt lat="45.121433103478836" lon="9.989243378713516"><ele>39.0</ele><time>2026-04-26T05:34:47.999Z</time></trkpt><trkpt lat="45.121370478244216" lon="9.989279498976497"><ele>39.0</ele><time>2026-04-26T05:34:48.999Z</time></trkpt><trkpt lat="45.121309824597276" lon="9.989315269117181"><ele>39.0</ele><time>2026-04-26T05:34:49.999Z</time></trkpt><trkpt lat="45.12125061089207" lon="9.98935019000854"><ele>38.4</ele><time>2026-04-26T05:34:50.999Z</time></trkpt><trkpt lat="45.121189990523064" lon="9.989386416653145"><ele>37.8</ele><time>2026-04-26T05:34:51.999Z</time></trkpt><trkpt lat="45.121131986934515" lon="9.989421642503542"><ele>37.2</ele><time>2026-04-26T05:34:52.999Z</time></trkpt><trkpt lat="45.12101911049426" lon="9.989490192866894"><ele>36.6</ele><time>2026-04-26T05:34:54.999Z</time></trkpt><trkpt lat="45.12091121409335" lon="9.989555718832545"><ele>36.0</ele><time>2026-04-26T05:34:56.999Z</time></trkpt><trkpt lat="45.120821996911054" lon="9.989609387329486"><ele>36.0</ele><time>2026-04-26T05:34:58.999Z</time></trkpt><trkpt lat="45.120733313761725" lon="9.989662530780427"><ele>36.0</ele><time>2026-04-26T05:35:00.999Z</time></trkpt><trkpt lat="45.120646115646274" lon="9.989714784323882"><ele>36.0</ele><time>2026-04-26T05:35:02.999Z</time></trkpt><trkpt lat="45.120564109702755" lon="9.989763926448974"><ele>36.0</ele><time>2026-04-26T05:35:04.999Z</time></trkpt><trkpt lat="45.12047113616072" lon="9.989804422832849"><ele>36.0</ele><time>2026-04-26T05:35:06.999Z</time></trkpt><trkpt lat="45.12035432713061" lon="9.989860348514984"><ele>36.0</ele><time>2026-04-26T05:35:08.999Z</time></trkpt><trkpt lat="45.12024687318198" lon="9.989934374037725"><ele>36.0</ele><time>2026-04-26T05:35:10.999Z</time></trkpt><trkpt lat="45.12012948484643" lon="9.99000182298683"><ele>36.0</ele><time>2026-04-26T05:35:12.999Z</time></trkpt><trkpt lat="45.12006919182209" lon="9.990036330504754"><ele>36.0</ele><time>2026-04-26T05:35:13.999Z</time></trkpt><trkpt lat="45.12001014875793" lon="9.990073549034328"><ele>36.0</ele><time>2026-04-26T05:35:14.998Z</time></trkpt><trkpt lat="45.11994794302228" lon="9.990110605152386"><ele>36.0</ele><time>2026-04-26T05:35:15.998Z</time></trkpt><trkpt lat="45.11988669960546" lon="9.990148314026175"><ele>36.00000000000001</ele><time>2026-04-26T05:35:16.998Z</time></trkpt><trkpt lat="45.11982369431941" lon="9.990186070400206"><ele>36.0</ele><time>2026-04-26T05:35:17.998Z</time></trkpt><trkpt lat="45.11976073780362" lon="9.990225119393907"><ele>36.0</ele><time>2026-04-26T05:35:18.998Z</time></trkpt><trkpt lat="45.119695047387054" lon="9.99026341036335"><ele>36.0</ele><time>2026-04-26T05:35:19.998Z</time></trkpt><trkpt lat="45.119631360712425" lon="9.990302179130262"><ele>36.0</ele><time>2026-04-26T05:35:20.998Z</time></trkpt><trkpt lat="45.11956531469672" lon="9.990340580643496"><ele>36.00000000000001</ele><time>2026-04-26T05:35:22Z</time></trkpt><trkpt lat="45.11950102080136" lon="9.990381200792187"><ele>36.0</ele><time>2026-04-26T05:35:23Z</time></trkpt><trkpt lat="45.11943663270229" lon="9.990422758547451"><ele>36.00000000000001</ele><time>2026-04-26T05:35:24Z</time></trkpt><trkpt lat="45.11937159472902" lon="9.990461293004122"><ele>36.0</ele><time>2026-04-26T05:35:25Z</time></trkpt><trkpt lat="45.11930627000963" lon="9.99050013029402"><ele>36.0</ele><time>2026-04-26T05:35:26Z</time></trkpt><trkpt lat="45.11924224508716" lon="9.990540805926813"><ele>36.0</ele><time>2026-04-26T05:35:27Z</time></trkpt><trkpt lat="45.119178739441104" lon="9.990580994062581"><ele>36.0</ele><time>2026-04-26T05:35:28Z</time></trkpt><trkpt lat="45.11911474169776" lon="9.990618587175735"><ele>36.00000000000001</ele><time>2026-04-26T05:35:29Z</time></trkpt><trkpt lat="45.11905100077644" lon="9.990655408595277"><ele>36.0</ele><time>2026-04-26T05:35:30Z</time></trkpt><trkpt lat="45.11898749797824" lon="9.990693612409897"><ele>36.00000000000001</ele><time>2026-04-26T05:35:31Z</time></trkpt><trkpt lat="45.118924809609915" lon="9.99073231042015"><ele>36.0</ele><time>2026-04-26T05:35:32Z</time></trkpt><trkpt lat="45.118861356267594" lon="9.990770034384616"><ele>36.0</ele><time>2026-04-26T05:35:33Z</time></trkpt><trkpt lat="45.11879782099047" lon="9.990808164689238"><ele>36.0</ele><time>2026-04-26T05:35:34Z</time></trkpt><trkpt lat="45.11873376613348" lon="9.990846467792599"><ele>36.0</ele><time>2026-04-26T05:35:35Z</time></trkpt><trkpt lat="45.11867052059511" lon="9.990886258858772"><ele>36.00000000000001</ele><time>2026-04-26T05:35:36Z</time></trkpt><trkpt lat="45.11860536098866" lon="9.990927077483192"><ele>36.0</ele><time>2026-04-26T05:35:37Z</time></trkpt><trkpt lat="45.118538654395046" lon="9.99096753769591"><ele>35.714285714285715</ele><time>2026-04-26T05:35:38Z</time></trkpt><trkpt lat="45.118472469750884" lon="9.99100748588581"><ele>35.42857142857143</ele><time>2026-04-26T05:35:39Z</time></trkpt><trkpt lat="45.118404612710044" lon="9.991049676675127"><ele>35.14285714285714</ele><time>2026-04-26T05:35:40Z</time></trkpt><trkpt lat="45.118336902655386" lon="9.991090183000425"><ele>34.85714285714286</ele><time>2026-04-26T05:35:41Z</time></trkpt><trkpt lat="45.118269549090826" lon="9.991129990442571"><ele>34.57142857142857</ele><time>2026-04-26T05:35:42Z</time></trkpt><trkpt lat="45.11820189222114" lon="9.9911714981658"><ele>34.285714285714285</ele><time>2026-04-26T05:35:43Z</time></trkpt><trkpt lat="45.11813359791828" lon="9.991212131333798"><ele>34.0</ele><time>2026-04-26T05:35:44Z</time></trkpt><trkpt lat="45.11806588370722" lon="9.991253388943466"><ele>34.833333333333336</ele><time>2026-04-26T05:35:45Z</time></trkpt><trkpt lat="45.11799724681884" lon="9.991294839765304"><ele>35.66666666666667</ele><time>2026-04-26T05:35:46Z</time></trkpt><trkpt lat="45.11792878822157" lon="9.9913357552357"><ele>36.5</ele><time>2026-04-26T05:35:47Z</time></trkpt><trkpt lat="45.117859641639946" lon="9.991377594675146"><ele>37.333333333333336</ele><time>2026-04-26T05:35:48Z</time></trkpt><trkpt lat="45.117789203717464" lon="9.991420541765708"><ele>38.166666666666664</ele><time>2026-04-26T05:35:49Z</time></trkpt><trkpt lat="45.11771700900267" lon="9.991462589307545"><ele>39.0</ele><time>2026-04-26T05:35:50Z</time></trkpt><trkpt lat="45.11764511767301" lon="9.991504997390374"><ele>39.0</ele><time>2026-04-26T05:35:51Z</time></trkpt><trkpt lat="45.11757233528206" lon="9.991546349847747"><ele>39.0</ele><time>2026-04-26T05:35:52Z</time></trkpt><trkpt lat="45.117499920253294" lon="9.991591919781301"><ele>39.0</ele><time>2026-04-26T05:35:53Z</time></trkpt><trkpt lat="45.117426241104624" lon="9.991638111412218"><ele>39.0</ele><time>2026-04-26T05:35:54Z</time></trkpt><trkpt lat="45.117351210398446" lon="9.991682467829046"><ele>39.0</ele><time>2026-04-26T05:35:55Z</time></trkpt><trkpt lat="45.11727537198647" lon="9.99172701961297"><ele>39.0</ele><time>2026-04-26T05:35:56Z</time></trkpt><trkpt lat="45.117201237493234" lon="9.991771302355305"><ele>39.0</ele><time>2026-04-26T05:35:57Z</time></trkpt><trkpt lat="45.11712687868359" lon="9.991815283638841"><ele>39.0</ele><time>2026-04-26T05:35:58Z</time></trkpt><trkpt lat="45.11705180676147" lon="9.991859181210568"><ele>39.0</ele><time>2026-04-26T05:35:59Z</time></trkpt><trkpt lat="45.11697932538586" lon="9.991904128495625"><ele>39.0</ele><time>2026-04-26T05:36:00Z</time></trkpt><trkpt lat="45.11690551778468" lon="9.991951635694317"><ele>39.0</ele><time>2026-04-26T05:36:01Z</time></trkpt><trkpt lat="45.116833113102665" lon="9.991995724437631"><ele>39.0</ele><time>2026-04-26T05:36:02Z</time></trkpt><trkpt lat="45.11675998276668" lon="9.992039428913822"><ele>39.0</ele><time>2026-04-26T05:36:03Z</time></trkpt><trkpt lat="45.11668861209217" lon="9.992080940877742"><ele>39.0</ele><time>2026-04-26T05:36:04Z</time></trkpt><trkpt lat="45.11661646961744" lon="9.992123640322514"><ele>39.0</ele><time>2026-04-26T05:36:05Z</time></trkpt><trkpt lat="45.11654800445327" lon="9.992167560437048"><ele>39.0</ele><time>2026-04-26T05:36:06Z</time></trkpt><trkpt lat="45.11648000719557" lon="9.99220928535173"><ele>39.0</ele><time>2026-04-26T05:36:07Z</time></trkpt><trkpt lat="45.116409196237285" lon="9.992249211755018"><ele>39.0</ele><time>2026-04-26T05:36:08Z</time></trkpt><trkpt lat="45.11633943276599" lon="9.992290679957122"><ele>39.0</ele><time>2026-04-26T05:36:09Z</time></trkpt><trkpt lat="45.116271479594396" lon="9.992336155807102"><ele>39.0</ele><time>2026-04-26T05:36:10Z</time></trkpt><trkpt lat="45.11620380800369" lon="9.992378367631826"><ele>39.0</ele><time>2026-04-26T05:36:11Z</time></trkpt><trkpt lat="45.11613579042083" lon="9.992416074148807"><ele>39.0</ele><time>2026-04-26T05:36:12Z</time></trkpt><trkpt lat="45.116067699558045" lon="9.992457168036944"><ele>39.0</ele><time>2026-04-26T05:36:13Z</time></trkpt><trkpt lat="45.11599669707876" lon="9.99249796619827"><ele>39.0</ele><time>2026-04-26T05:36:14Z</time></trkpt><trkpt lat="45.115925519211395" lon="9.992540991964061"><ele>39.0</ele><time>2026-04-26T05:36:15Z</time></trkpt><trkpt lat="45.11585204156999" lon="9.99258396033105"><ele>39.0</ele><time>2026-04-26T05:36:16Z</time></trkpt><trkpt lat="45.11578032911541" lon="9.992627377583242"><ele>39.0</ele><time>2026-04-26T05:36:17Z</time></trkpt><trkpt lat="45.11570672698897" lon="9.992671435703446"><ele>39.0</ele><time>2026-04-26T05:36:18Z</time></trkpt><trkpt lat="45.11563470143433" lon="9.992713280334929"><ele>39.0</ele><time>2026-04-26T05:36:19Z</time></trkpt><trkpt lat="45.115561417857" lon="9.99275689766142"><ele>39.0</ele><time>2026-04-26T05:36:20Z</time></trkpt><trkpt lat="45.115488608347846" lon="9.992802084874334"><ele>39.166666666666664</ele><time>2026-04-26T05:36:21Z</time></trkpt><trkpt lat="45.11541422314915" lon="9.992848699078092"><ele>39.333333333333336</ele><time>2026-04-26T05:36:22Z</time></trkpt><trkpt lat="45.115339963976034" lon="9.992894990409013"><ele>39.5</ele><time>2026-04-26T05:36:23Z</time></trkpt><trkpt lat="45.11526462533726" lon="9.992939322722078"><ele>39.66666666666667</ele><time>2026-04-26T05:36:24Z</time></trkpt><trkpt lat="45.11518925185471" lon="9.992984453202851"><ele>39.833333333333336</ele><time>2026-04-26T05:36:25Z</time></trkpt><trkpt lat="45.11511320770177" lon="9.993031470815334"><ele>40.0</ele><time>2026-04-26T05:36:26Z</time></trkpt><trkpt lat="45.11503855051136" lon="9.993077274211576"><ele>40.0</ele><time>2026-04-26T05:36:26.999Z</time></trkpt><trkpt lat="45.114962134174654" lon="9.993120370036792"><ele>40.0</ele><time>2026-04-26T05:36:27.999Z</time></trkpt><trkpt lat="45.11488685684135" lon="9.993164682679454"><ele>40.0</ele><time>2026-04-26T05:36:28.999Z</time></trkpt><trkpt lat="45.114809385000385" lon="9.99320966878466"><ele>40.0</ele><time>2026-04-26T05:36:29.999Z</time></trkpt><trkpt lat="45.114733393230495" lon="9.993256856027802"><ele>40.0</ele><time>2026-04-26T05:36:30.999Z</time></trkpt><trkpt lat="45.1146570422559" lon="9.993302920081389"><ele>40.0</ele><time>2026-04-26T05:36:31.999Z</time></trkpt><trkpt lat="45.11458127323489" lon="9.993348562497115"><ele>39.833333333333336</ele><time>2026-04-26T05:36:32.999Z</time></trkpt><trkpt lat="45.114505969705924" lon="9.993392464249775"><ele>39.66666666666667</ele><time>2026-04-26T05:36:33.999Z</time></trkpt><trkpt lat="45.11442900551109" lon="9.993438117150351"><ele>39.5</ele><time>2026-04-26T05:36:34.999Z</time></trkpt><trkpt lat="45.11435283633071" lon="9.993481894070399"><ele>39.333333333333336</ele><time>2026-04-26T05:36:35.999Z</time></trkpt><trkpt lat="45.11427822873377" lon="9.993528940383285"><ele>39.166666666666664</ele><time>2026-04-26T05:36:36.999Z</time></trkpt><trkpt lat="45.114202557552964" lon="9.993574557633108"><ele>39.0</ele><time>2026-04-26T05:36:37.999Z</time></trkpt><trkpt lat="45.11412803826653" lon="9.993619898190525"><ele>39.0</ele><time>2026-04-26T05:36:38.999Z</time></trkpt><trkpt lat="45.11405220292562" lon="9.993664896886546"><ele>39.0</ele><time>2026-04-26T05:36:39.999Z</time></trkpt><trkpt lat="45.11397602407165" lon="9.99370988344766"><ele>39.0</ele><time>2026-04-26T05:36:40.999Z</time></trkpt><trkpt lat="45.113902412933214" lon="9.99375673339583"><ele>39.0</ele><time>2026-04-26T05:36:41.999Z</time></trkpt><trkpt lat="45.113827937642476" lon="9.99380122211491"><ele>39.0</ele><time>2026-04-26T05:36:42.999Z</time></trkpt><trkpt lat="45.11375458819714" lon="9.993844376417252"><ele>39.0</ele><time>2026-04-26T05:36:43.999Z</time></trkpt><trkpt lat="45.11367955644776" lon="9.993890168774776"><ele>39.0</ele><time>2026-04-26T05:36:44.999Z</time></trkpt><trkpt lat="45.1136041636984" lon="9.993931095584507"><ele>39.0</ele><time>2026-04-26T05:36:45.999Z</time></trkpt><trkpt lat="45.113528797194896" lon="9.993973257474488"><ele>39.0</ele><time>2026-04-26T05:36:46.999Z</time></trkpt><trkpt lat="45.11345272023243" lon="9.994016400270421"><ele>39.0</ele><time>2026-04-26T05:36:47.999Z</time></trkpt><trkpt lat="45.113377281644055" lon="9.994061902299936"><ele>39.0</ele><time>2026-04-26T05:36:48.999Z</time></trkpt><trkpt lat="45.11330168474389" lon="9.99410696873303"><ele>39.0</ele><time>2026-04-26T05:36:49.999Z</time></trkpt><trkpt lat="45.113226512016794" lon="9.994151443510134"><ele>39.166666666666664</ele><time>2026-04-26T05:36:50.999Z</time></trkpt><trkpt lat="45.11315123980191" lon="9.994193951023593"><ele>39.333333333333336</ele><time>2026-04-26T05:36:51.999Z</time></trkpt><trkpt lat="45.113076566994756" lon="9.994239275731294"><ele>39.5</ele><time>2026-04-26T05:36:52.999Z</time></trkpt><trkpt lat="45.113002063801694" lon="9.994284464059254"><ele>39.66666666666667</ele><time>2026-04-26T05:36:53.999Z</time></trkpt><trkpt lat="45.112928552301014" lon="9.994331704509964"><ele>39.833333333333336</ele><time>2026-04-26T05:36:54.999Z</time></trkpt><trkpt lat="45.11285310115226" lon="9.994377865580976"><ele>40.0</ele><time>2026-04-26T05:36:55.999Z</time></trkpt><trkpt lat="45.112777188366536" lon="9.994425061473752"><ele>40.0</ele><time>2026-04-26T05:36:56.999Z</time></trkpt><trkpt lat="45.112700516621146" lon="9.99447094613555"><ele>40.0</ele><time>2026-04-26T05:36:57.999Z</time></trkpt><trkpt lat="45.11262479913637" lon="9.994517734414517"><ele>40.0</ele><time>2026-04-26T05:36:58.999Z</time></trkpt><trkpt lat="45.11254652118465" lon="9.994558940483662"><ele>40.0</ele><time>2026-04-26T05:36:59.999Z</time></trkpt><trkpt lat="45.11246525052947" lon="9.994589662463408"><ele>40.0</ele><time>2026-04-26T05:37:00.999Z</time></trkpt><trkpt lat="45.112383553956526" lon="9.994603762493977"><ele>40.0</ele><time>2026-04-26T05:37:01.999Z</time></trkpt><trkpt lat="45.1122994466894" lon="9.994602025296091"><ele>39.833333333333336</ele><time>2026-04-26T05:37:02.999Z</time></trkpt><trkpt lat="45.11221673531338" lon="9.994595207855323"><ele>39.66666666666667</ele><time>2026-04-26T05:37:03.999Z</time></trkpt><trkpt lat="45.1121361607359" lon="9.994572623347628"><ele>39.5</ele><time>2026-04-26T05:37:04.999Z</time></trkpt><trkpt lat="45.11205884007947" lon="9.99453015933091"><ele>39.333333333333336</ele><time>2026-04-26T05:37:05.999Z</time></trkpt><trkpt lat="45.111985487485185" lon="9.994474698611388"><ele>39.166666666666664</ele><time>2026-04-26T05:37:06.999Z</time></trkpt><trkpt lat="45.11191483078474" lon="9.994415457486822"><ele>39.0</ele><time>2026-04-26T05:37:07.999Z</time></trkpt><trkpt lat="45.11184904336428" lon="9.994359237698866"><ele>39.0</ele><time>2026-04-26T05:37:08.999Z</time></trkpt><trkpt lat="45.11178452391116" lon="9.994288185449296"><ele>39.0</ele><time>2026-04-26T05:37:09.999Z</time></trkpt><trkpt lat="45.11171962377393" lon="9.994219857511272"><ele>39.0</ele><time>2026-04-26T05:37:10.999Z</time></trkpt><trkpt lat="45.11165661704244" lon="9.994148105148193"><ele>39.0</ele><time>2026-04-26T05:37:11.999Z</time></trkpt><trkpt lat="45.11159335395702" lon="9.994079388962508"><ele>39.0</ele><time>2026-04-26T05:37:12.999Z</time></trkpt><trkpt lat="45.111528507117775" lon="9.994010291038578"><ele>39.0</ele><time>2026-04-26T05:37:13.999Z</time></trkpt><trkpt lat="45.111465383559555" lon="9.993939268272007"><ele>38.666666666666664</ele><time>2026-04-26T05:37:14.999Z</time></trkpt><trkpt lat="45.11140195026967" lon="9.99386765944646"><ele>38.333333333333336</ele><time>2026-04-26T05:37:15.999Z</time></trkpt><trkpt lat="45.111338260123944" lon="9.993797415264657"><ele>38.0</ele><time>2026-04-26T05:37:16.999Z</time></trkpt><trkpt lat="45.111274155582066" lon="9.993727404859841"><ele>37.66666666666667</ele><time>2026-04-26T05:37:17.999Z</time></trkpt><trkpt lat="45.11121082010936" lon="9.993655374824904"><ele>37.333333333333336</ele><time>2026-04-26T05:37:18.999Z</time></trkpt><trkpt lat="45.111146048279295" lon="9.993582693700779"><ele>37.0</ele><time>2026-04-26T05:37:19.999Z</time></trkpt><trkpt lat="45.11108057237935" lon="9.993513811440511"><ele>37.0</ele><time>2026-04-26T05:37:20.998Z</time></trkpt><trkpt lat="45.11101537636373" lon="9.993443447822168"><ele>37.0</ele><time>2026-04-26T05:37:21.998Z</time></trkpt><trkpt lat="45.11095083737965" lon="9.993371682135505"><ele>37.0</ele><time>2026-04-26T05:37:22.998Z</time></trkpt><trkpt lat="45.11088671144191" lon="9.993301462102355"><ele>37.0</ele><time>2026-04-26T05:37:23.998Z</time></trkpt><trkpt lat="45.110822618519315" lon="9.993233069223937"><ele>37.0</ele><time>2026-04-26T05:37:24.998Z</time></trkpt><trkpt lat="45.110757972769385" lon="9.993163811538976"><ele>37.0</ele><time>2026-04-26T05:37:25.998Z</time></trkpt><trkpt lat="45.110694041753305" lon="9.993092932981202"><ele>37.0</ele><time>2026-04-26T05:37:26.998Z</time></trkpt><trkpt lat="45.11063043170597" lon="9.99301948249524"><ele>37.0</ele><time>2026-04-26T05:37:28Z</time></trkpt><trkpt lat="45.11056774390249" lon="9.992948619994012"><ele>37.0</ele><time>2026-04-26T05:37:29Z</time></trkpt><trkpt lat="45.11050369423478" lon="9.992877267471375"><ele>37.0</ele><time>2026-04-26T05:37:30Z</time></trkpt><trkpt lat="45.11043870100195" lon="9.992808592149807"><ele>37.0</ele><time>2026-04-26T05:37:31Z</time></trkpt><trkpt lat="45.110376417980625" lon="9.99273822075791"><ele>37.0</ele><time>2026-04-26T05:37:32Z</time></trkpt><trkpt lat="45.110312122041755" lon="9.992665860626758"><ele>37.0</ele><time>2026-04-26T05:37:33Z</time></trkpt><trkpt lat="45.11024849640619" lon="9.992595950910669"><ele>37.0</ele><time>2026-04-26T05:37:34Z</time></trkpt><trkpt lat="45.11018643396035" lon="9.992525882004578"><ele>37.0</ele><time>2026-04-26T05:37:35Z</time></trkpt><trkpt lat="45.11012355701088" lon="9.99245566148081"><ele>37.0</ele><time>2026-04-26T05:37:36Z</time></trkpt><trkpt lat="45.11006201246426" lon="9.992388952597034"><ele>37.0</ele><time>2026-04-26T05:37:37Z</time></trkpt><trkpt lat="45.10999946761971" lon="9.992322756190692"><ele>37.0</ele><time>2026-04-26T05:37:38Z</time></trkpt><trkpt lat="45.1099385521632" lon="9.99225609590874"><ele>36.833333333333336</ele><time>2026-04-26T05:37:39Z</time></trkpt><trkpt lat="45.10987894151247" lon="9.992189457655295"><ele>36.66666666666667</ele><time>2026-04-26T05:37:40Z</time></trkpt><trkpt lat="45.1098212936855" lon="9.992121746956299"><ele>36.5</ele><time>2026-04-26T05:37:41Z</time></trkpt><trkpt lat="45.109762420063014" lon="9.992053376289226"><ele>36.333333333333336</ele><time>2026-04-26T05:37:42Z</time></trkpt><trkpt lat="45.109701453070436" lon="9.991988007971692"><ele>36.166666666666664</ele><time>2026-04-26T05:37:43Z</time></trkpt><trkpt lat="45.10964272629149" lon="9.991925293424021"><ele>36.0</ele><time>2026-04-26T05:37:44Z</time></trkpt><trkpt lat="45.109581644563896" lon="9.991859541786367"><ele>36.0</ele><time>2026-04-26T05:37:45Z</time></trkpt><trkpt lat="45.10952198157975" lon="9.99179264019107"><ele>36.0</ele><time>2026-04-26T05:37:46Z</time></trkpt><trkpt lat="45.109461612526566" lon="9.991724255363414"><ele>36.0</ele><time>2026-04-26T05:37:47Z</time></trkpt><trkpt lat="45.1094011659656" lon="9.991654460609373"><ele>36.0</ele><time>2026-04-26T05:37:48Z</time></trkpt><trkpt lat="45.1093382962084" lon="9.991583381710365"><ele>36.0</ele><time>2026-04-26T05:37:49Z</time></trkpt><trkpt lat="45.10927573536335" lon="9.991512169243924"><ele>36.0</ele><time>2026-04-26T05:37:50Z</time></trkpt><trkpt lat="45.10921143527811" lon="9.991438370600724"><ele>36.5</ele><time>2026-04-26T05:37:51Z</time></trkpt><trkpt lat="45.1091483124529" lon="9.99136467356988"><ele>37.0</ele><time>2026-04-26T05:37:52Z</time></trkpt><trkpt lat="45.10908459614648" lon="9.99129227556535"><ele>37.5</ele><time>2026-04-26T05:37:53Z</time></trkpt><trkpt lat="45.109021252542476" lon="9.991216562209777"><ele>38.0</ele><time>2026-04-26T05:37:54Z</time></trkpt><trkpt lat="45.108958680937626" lon="9.991142109108768"><ele>38.5</ele><time>2026-04-26T05:37:55Z</time></trkpt><trkpt lat="45.10889487975268" lon="9.991064275724062"><ele>39.0</ele><time>2026-04-26T05:37:56Z</time></trkpt><trkpt lat="45.10882898814655" lon="9.990991909389882"><ele>39.0</ele><time>2026-04-26T05:37:57Z</time></trkpt><trkpt lat="45.10876364905709" lon="9.990916709511227"><ele>39.0</ele><time>2026-04-26T05:37:58Z</time></trkpt><trkpt lat="45.108698441372496" lon="9.990840363022564"><ele>39.0</ele><time>2026-04-26T05:37:59Z</time></trkpt><trkpt lat="45.10863343549751" lon="9.990766238290862"><ele>39.0</ele><time>2026-04-26T05:38:00Z</time></trkpt><trkpt lat="45.10856931824261" lon="9.99068904978195"><ele>39.0</ele><time>2026-04-26T05:38:01Z</time></trkpt><trkpt lat="45.108504658034214" lon="9.990615211350653"><ele>39.0</ele><time>2026-04-26T05:38:02Z</time></trkpt><trkpt lat="45.10843913725785" lon="9.990543212093414"><ele>39.0</ele><time>2026-04-26T05:38:03Z</time></trkpt><trkpt lat="45.10837403330075" lon="9.990470136724303"><ele>39.0</ele><time>2026-04-26T05:38:04Z</time></trkpt><trkpt lat="45.10831004650923" lon="9.990392959105842"><ele>39.0</ele><time>2026-04-26T05:38:05Z</time></trkpt><trkpt lat="45.1082469052163" lon="9.990318859008655"><ele>39.0</ele><time>2026-04-26T05:38:06Z</time></trkpt><trkpt lat="45.10818314443646" lon="9.990246219309485"><ele>39.0</ele><time>2026-04-26T05:38:07Z</time></trkpt><trkpt lat="45.10812029430023" lon="9.990172049787004"><ele>39.0</ele><time>2026-04-26T05:38:08Z</time></trkpt><trkpt lat="45.108058705413654" lon="9.990099734300474"><ele>39.0</ele><time>2026-04-26T05:38:09Z</time></trkpt><trkpt lat="45.10799602654068" lon="9.990028630873686"><ele>39.0</ele><time>2026-04-26T05:38:10Z</time></trkpt><trkpt lat="45.10793443286919" lon="9.989960786489686"><ele>39.0</ele><time>2026-04-26T05:38:11Z</time></trkpt><trkpt lat="45.107871001324035" lon="9.989889638365767"><ele>39.0</ele><time>2026-04-26T05:38:12Z</time></trkpt><trkpt lat="45.1078077958278" lon="9.989816295901056"><ele>39.0</ele><time>2026-04-26T05:38:13Z</time></trkpt><trkpt lat="45.10774474078947" lon="9.98974313126312"><ele>39.0</ele><time>2026-04-26T05:38:14Z</time></trkpt><trkpt lat="45.1076796303059" lon="9.989668698288586"><ele>38.833333333333336</ele><time>2026-04-26T05:38:15Z</time></trkpt><trkpt lat="45.10761554236452" lon="9.989594484169192"><ele>38.666666666666664</ele><time>2026-04-26T05:38:16Z</time></trkpt><trkpt lat="45.107551551591655" lon="9.98952278752671"><ele>38.5</ele><time>2026-04-26T05:38:17Z</time></trkpt><trkpt lat="45.107487217185444" lon="9.989451569531854"><ele>38.33333333333333</ele><time>2026-04-26T05:38:18Z</time></trkpt><trkpt lat="45.10742317323895" lon="9.989381233291818"><ele>38.166666666666664</ele><time>2026-04-26T05:38:19Z</time></trkpt><trkpt lat="45.10735873985114" lon="9.98930708427981"><ele>38.0</ele><time>2026-04-26T05:38:20Z</time></trkpt><trkpt lat="45.107296222730454" lon="9.98923392537746"><ele>38.5</ele><time>2026-04-26T05:38:21Z</time></trkpt><trkpt lat="45.10723095831478" lon="9.989162800312558"><ele>39.0</ele><time>2026-04-26T05:38:22Z</time></trkpt><trkpt lat="45.10716767769778" lon="9.98909143341847"><ele>39.5</ele><time>2026-04-26T05:38:23Z</time></trkpt><trkpt lat="45.10710329124695" lon="9.989021110432288"><ele>40.0</ele><time>2026-04-26T05:38:24Z</time></trkpt><trkpt lat="45.10704261914715" lon="9.988948313623878"><ele>40.5</ele><time>2026-04-26T05:38:25Z</time></trkpt><trkpt lat="45.10697701666875" lon="9.98887367147202"><ele>41.0</ele><time>2026-04-26T05:38:26Z</time></trkpt><trkpt lat="45.106912909958155" lon="9.988801137276496"><ele>41.0</ele><time>2026-04-26T05:38:27Z</time></trkpt><trkpt lat="45.10684626470292" lon="9.988730244201545"><ele>41.0</ele><time>2026-04-26T05:38:28Z</time></trkpt><trkpt lat="45.106780044023786" lon="9.988659161440243"><ele>41.0</ele><time>2026-04-26T05:38:29Z</time></trkpt><trkpt lat="45.10671293998223" lon="9.988585458856669"><ele>41.0</ele><time>2026-04-26T05:38:29.999Z</time></trkpt><trkpt lat="45.106648370485345" lon="9.988510916913407"><ele>41.0</ele><time>2026-04-26T05:38:30.999Z</time></trkpt><trkpt lat="45.106581752773934" lon="9.988437232461372"><ele>41.0</ele><time>2026-04-26T05:38:31.999Z</time></trkpt><trkpt lat="45.10651648817366" lon="9.988364653651997"><ele>40.666666666666664</ele><time>2026-04-26T05:38:32.999Z</time></trkpt><trkpt lat="45.106450004886256" lon="9.988293567859197"><ele>40.33333333333333</ele><time>2026-04-26T05:38:33.999Z</time></trkpt><trkpt lat="45.10638532190768" lon="9.988221320538283"><ele>40.0</ele><time>2026-04-26T05:38:34.999Z</time></trkpt><trkpt lat="45.10632062336306" lon="9.988149293098843"><ele>39.666666666666664</ele><time>2026-04-26T05:38:35.999Z</time></trkpt><trkpt lat="45.10625473051748" lon="9.988077089240743"><ele>39.333333333333336</ele><time>2026-04-26T05:38:36.999Z</time></trkpt><trkpt lat="45.10618930959614" lon="9.988004512338001"><ele>39.0</ele><time>2026-04-26T05:38:37.999Z</time></trkpt><trkpt lat="45.1061227709549" lon="9.987932639777544"><ele>39.0</ele><time>2026-04-26T05:38:38.999Z</time></trkpt><trkpt lat="45.10605584253916" lon="9.987858702242542"><ele>39.0</ele><time>2026-04-26T05:38:39.999Z</time></trkpt><trkpt lat="45.10598982390405" lon="9.987786549361395"><ele>39.0</ele><time>2026-04-26T05:38:40.999Z</time></trkpt><trkpt lat="45.10592404000826" lon="9.987712070817965"><ele>39.0</ele><time>2026-04-26T05:38:41.999Z</time></trkpt><trkpt lat="45.10585800843924" lon="9.987638087009401"><ele>39.0</ele><time>2026-04-26T05:38:42.999Z</time></trkpt><trkpt lat="45.10579082557132" lon="9.987567378052834"><ele>39.0</ele><time>2026-04-26T05:38:43.999Z</time></trkpt><trkpt lat="45.10572547681328" lon="9.987491920768495"><ele>38.833333333333336</ele><time>2026-04-26T05:38:44.999Z</time></trkpt><trkpt lat="45.10566076900048" lon="9.987415602579537"><ele>38.666666666666664</ele><time>2026-04-26T05:38:45.999Z</time></trkpt><trkpt lat="45.10559492831312" lon="9.987342012414553"><ele>38.5</ele><time>2026-04-26T05:38:46.999Z</time></trkpt><trkpt lat="45.10553143962939" lon="9.987264941850698"><ele>38.33333333333333</ele><time>2026-04-26T05:38:47.999Z</time></trkpt><trkpt lat="45.10546680705552" lon="9.987188064874385"><ele>38.166666666666664</ele><time>2026-04-26T05:38:48.999Z</time></trkpt><trkpt lat="45.10540262553748" lon="9.987111230792623"><ele>38.0</ele><time>2026-04-26T05:38:49.999Z</time></trkpt><trkpt lat="45.10533802708828" lon="9.987031829747478"><ele>38.0</ele><time>2026-04-26T05:38:50.999Z</time></trkpt><trkpt lat="45.105277047024174" lon="9.986950396609423"><ele>38.0</ele><time>2026-04-26T05:38:51.999Z</time></trkpt><trkpt lat="45.105218508410395" lon="9.986865315055107"><ele>38.0</ele><time>2026-04-26T05:38:52.999Z</time></trkpt><trkpt lat="45.105161580186945" lon="9.986778072277094"><ele>38.0</ele><time>2026-04-26T05:38:53.999Z</time></trkpt><trkpt lat="45.10511058201672" lon="9.986685991554385"><ele>38.0</ele><time>2026-04-26T05:38:54.999Z</time></trkpt><trkpt lat="45.10506373870066" lon="9.98659167824087"><ele>38.0</ele><time>2026-04-26T05:38:55.999Z</time></trkpt><trkpt lat="45.105018889354085" lon="9.986486106096105"><ele>38.0</ele><time>2026-04-26T05:38:56.999Z</time></trkpt><trkpt lat="45.104975139279965" lon="9.986391291502228"><ele>38.0</ele><time>2026-04-26T05:38:57.999Z</time></trkpt><trkpt lat="45.10493327067793" lon="9.986290030726273"><ele>38.0</ele><time>2026-04-26T05:38:58.999Z</time></trkpt><trkpt lat="45.10489207898057" lon="9.986188870094564"><ele>38.0</ele><time>2026-04-26T05:38:59.999Z</time></trkpt><trkpt lat="45.10485421835198" lon="9.986089514654306"><ele>38.0</ele><time>2026-04-26T05:39:00.999Z</time></trkpt><trkpt lat="45.1048159013995" lon="9.985988693524204"><ele>38.0</ele><time>2026-04-26T05:39:01.999Z</time></trkpt><trkpt lat="45.10477601177693" lon="9.985894998974697"><ele>37.83333333333333</ele><time>2026-04-26T05:39:02.999Z</time></trkpt><trkpt lat="45.10473600822288" lon="9.9857969172469"><ele>37.666666666666664</ele><time>2026-04-26T05:39:03.999Z</time></trkpt><trkpt lat="45.10469782071984" lon="9.985702568600828"><ele>37.5</ele><time>2026-04-26T05:39:04.999Z</time></trkpt><trkpt lat="45.10465758687359" lon="9.985611161436626"><ele>37.333333333333336</ele><time>2026-04-26T05:39:05.999Z</time></trkpt><trkpt lat="45.10461555668157" lon="9.985517306695309"><ele>37.16666666666667</ele><time>2026-04-26T05:39:06.999Z</time></trkpt><trkpt lat="45.10457681656929" lon="9.985422151722728"><ele>37.0</ele><time>2026-04-26T05:39:07.999Z</time></trkpt><trkpt lat="45.104539559430364" lon="9.985327408827564"><ele>37.0</ele><time>2026-04-26T05:39:08.999Z</time></trkpt><trkpt lat="45.104500525788204" lon="9.985233606485277"><ele>37.0</ele><time>2026-04-26T05:39:09.999Z</time></trkpt><trkpt lat="45.10446025069843" lon="9.985140137673616"><ele>37.0</ele><time>2026-04-26T05:39:10.999Z</time></trkpt><trkpt lat="45.10442070254922" lon="9.985046373133638"><ele>37.0</ele><time>2026-04-26T05:39:11.999Z</time></trkpt><trkpt lat="45.10438306806862" lon="9.98495187255259"><ele>37.0</ele><time>2026-04-26T05:39:12.999Z</time></trkpt><trkpt lat="45.10434456509308" lon="9.984860631446463"><ele>37.0</ele><time>2026-04-26T05:39:13.999Z</time></trkpt><trkpt lat="45.104307191111225" lon="9.984770554292963"><ele>37.0</ele><time>2026-04-26T05:39:14.999Z</time></trkpt><trkpt lat="45.10426775292795" lon="9.984682798577452"><ele>37.0</ele><time>2026-04-26T05:39:15.999Z</time></trkpt><trkpt lat="45.10423226568443" lon="9.984588190264681"><ele>37.0</ele><time>2026-04-26T05:39:16.999Z</time></trkpt><trkpt lat="45.10419379976897" lon="9.984498112854151"><ele>37.0</ele><time>2026-04-26T05:39:17.999Z</time></trkpt><trkpt lat="45.10415624775092" lon="9.984405046451494"><ele>37.0</ele><time>2026-04-26T05:39:18.999Z</time></trkpt><trkpt lat="45.10411536575565" lon="9.984313337642748"><ele>37.0</ele><time>2026-04-26T05:39:19.999Z</time></trkpt><trkpt lat="45.10407926573108" lon="9.984221287023132"><ele>37.285714285714285</ele><time>2026-04-26T05:39:20.999Z</time></trkpt><trkpt lat="45.104040778460856" lon="9.984131801372984"><ele>37.57142857142857</ele><time>2026-04-26T05:39:21.999Z</time></trkpt><trkpt lat="45.10400409205246" lon="9.984040875468192"><ele>37.85714285714286</ele><time>2026-04-26T05:39:22.999Z</time></trkpt><trkpt lat="45.10396643643911" lon="9.98394897942599"><ele>38.14285714285714</ele><time>2026-04-26T05:39:23.998Z</time></trkpt><trkpt lat="45.103928920841064" lon="9.983857758531832"><ele>38.42857142857142</ele><time>2026-04-26T05:39:24.998Z</time></trkpt><trkpt lat="45.103891034669694" lon="9.98376743399276"><ele>38.714285714285715</ele><time>2026-04-26T05:39:25.998Z</time></trkpt><trkpt lat="45.1038552218443" lon="9.98367593197887"><ele>39.0</ele><time>2026-04-26T05:39:26.998Z</time></trkpt><trkpt lat="45.10381589648822" lon="9.983586341982209"><ele>39.0</ele><time>2026-04-26T05:39:27.998Z</time></trkpt><trkpt lat="45.10377827229845" lon="9.98349574771354"><ele>39.0</ele><time>2026-04-26T05:39:28.998Z</time></trkpt><trkpt lat="45.103741160241086" lon="9.98340507515569"><ele>39.0</ele><time>2026-04-26T05:39:29.998Z</time></trkpt><trkpt lat="45.10370472889205" lon="9.983313370820367"><ele>39.0</ele><time>2026-04-26T05:39:30.998Z</time></trkpt><trkpt lat="45.10366676734538" lon="9.983223063706669"><ele>39.0</ele><time>2026-04-26T05:39:31.998Z</time></trkpt><trkpt lat="45.10362849555423" lon="9.983134049963013"><ele>39.0</ele><time>2026-04-26T05:39:32.998Z</time></trkpt><trkpt lat="45.10358951324848" lon="9.983042552050977"><ele>39.0</ele><time>2026-04-26T05:39:34Z</time></trkpt><trkpt lat="45.10355340314467" lon="9.982950011372079"><ele>38.666666666666664</ele><time>2026-04-26T05:39:35Z</time></trkpt><trkpt lat="45.10351704231992" lon="9.98285453109268"><ele>38.333333333333336</ele><time>2026-04-26T05:39:36Z</time></trkpt><trkpt lat="45.1034804173946" lon="9.98276197914923"><ele>38.0</ele><time>2026-04-26T05:39:37Z</time></trkpt><trkpt lat="45.103440471486856" lon="9.982670043842424"><ele>37.66666666666667</ele><time>2026-04-26T05:39:38Z</time></trkpt><trkpt lat="45.10340356495261" lon="9.98257648274637"><ele>37.333333333333336</ele><time>2026-04-26T05:39:39Z</time></trkpt><trkpt lat="45.103365992566886" lon="9.98248568499452"><ele>37.0</ele><time>2026-04-26T05:39:40Z</time></trkpt><trkpt lat="45.10332772228297" lon="9.982392686866548"><ele>36.833333333333336</ele><time>2026-04-26T05:39:41Z</time></trkpt><trkpt lat="45.10329050919387" lon="9.98229833036505"><ele>36.66666666666667</ele><time>2026-04-26T05:39:42Z</time></trkpt><trkpt lat="45.10325097653698" lon="9.982202640117062"><ele>36.5</ele><time>2026-04-26T05:39:43Z</time></trkpt><trkpt lat="45.10320926481282" lon="9.982105589286824"><ele>36.333333333333336</ele><time>2026-04-26T05:39:44Z</time></trkpt><trkpt lat="45.10316514966482" lon="9.98200769504502"><ele>36.166666666666664</ele><time>2026-04-26T05:39:45Z</time></trkpt><trkpt lat="45.103122171109085" lon="9.981912006807582"><ele>36.0</ele><time>2026-04-26T05:39:46Z</time></trkpt><trkpt lat="45.10307631292914" lon="9.981813577977753"><ele>36.5</ele><time>2026-04-26T05:39:47Z</time></trkpt><trkpt lat="45.103028617062925" lon="9.981720139633055"><ele>37.0</ele><time>2026-04-26T05:39:48Z</time></trkpt><trkpt lat="45.10297661857536" lon="9.981627178228429"><ele>37.5</ele><time>2026-04-26T05:39:49Z</time></trkpt><trkpt lat="45.10292242345613" lon="9.981533572882556"><ele>38.0</ele><time>2026-04-26T05:39:50Z</time></trkpt><trkpt lat="45.102861479451576" lon="9.981444125384716"><ele>38.5</ele><time>2026-04-26T05:39:51Z</time></trkpt><trkpt lat="45.10279878522238" lon="9.981354830311096"><ele>39.0</ele><time>2026-04-26T05:39:52Z</time></trkpt><trkpt lat="45.10273399545628" lon="9.981264161050145"><ele>39.0</ele><time>2026-04-26T05:39:53Z</time></trkpt><trkpt lat="45.10266870620661" lon="9.981177120397927"><ele>39.0</ele><time>2026-04-26T05:39:54Z</time></trkpt><trkpt lat="45.102600099982524" lon="9.981091568590658"><ele>39.0</ele><time>2026-04-26T05:39:55Z</time></trkpt><trkpt lat="45.10252910689245" lon="9.98101098116102"><ele>39.0</ele><time>2026-04-26T05:39:56Z</time></trkpt><trkpt lat="45.10245501054046" lon="9.980932825158131"><ele>39.0</ele><time>2026-04-26T05:39:57Z</time></trkpt><trkpt lat="45.10238089298653" lon="9.980858682736004"><ele>39.0</ele><time>2026-04-26T05:39:58Z</time></trkpt><trkpt lat="45.10230344541386" lon="9.980785481323972"><ele>39.0</ele><time>2026-04-26T05:39:59Z</time></trkpt><trkpt lat="45.10222265390922" lon="9.980716818734464"><ele>39.0</ele><time>2026-04-26T05:40:00Z</time></trkpt><trkpt lat="45.10213972186733" lon="9.980653967756677"><ele>39.0</ele><time>2026-04-26T05:40:01Z</time></trkpt><trkpt lat="45.10205472904763" lon="9.980593804355104"><ele>39.0</ele><time>2026-04-26T05:40:02Z</time></trkpt><trkpt lat="45.10196584231708" lon="9.98053872701683"><ele>39.0</ele><time>2026-04-26T05:40:03Z</time></trkpt><trkpt lat="45.10187705555462" lon="9.980484289686906"><ele>39.0</ele><time>2026-04-26T05:40:04Z</time></trkpt><trkpt lat="45.101787067948734" lon="9.980433728102529"><ele>39.0</ele><time>2026-04-26T05:40:05Z</time></trkpt><trkpt lat="45.101693308019755" lon="9.980389073471649"><ele>39.0</ele><time>2026-04-26T05:40:06Z</time></trkpt><trkpt lat="45.101599892797516" lon="9.980344353406716"><ele>39.0</ele><time>2026-04-26T05:40:07Z</time></trkpt><trkpt lat="45.10150502845297" lon="9.980302364470855"><ele>39.0</ele><time>2026-04-26T05:40:08Z</time></trkpt><trkpt lat="45.101409803642426" lon="9.98025945194626"><ele>39.0</ele><time>2026-04-26T05:40:09Z</time></trkpt><trkpt lat="45.10131418159797" lon="9.980216128459896"><ele>39.0</ele><time>2026-04-26T05:40:10Z</time></trkpt><trkpt lat="45.10121953024153" lon="9.98017276039964"><ele>39.0</ele><time>2026-04-26T05:40:11Z</time></trkpt><trkpt lat="45.101125175081734" lon="9.980131134541073"><ele>39.0</ele><time>2026-04-26T05:40:12Z</time></trkpt><trkpt lat="45.101031181710184" lon="9.980089846385166"><ele>39.0</ele><time>2026-04-26T05:40:13Z</time></trkpt><trkpt lat="45.100937469883135" lon="9.980047100676979"><ele>39.0</ele><time>2026-04-26T05:40:14Z</time></trkpt><trkpt lat="45.100844876688335" lon="9.980002848886699"><ele>39.0</ele><time>2026-04-26T05:40:15Z</time></trkpt><trkpt lat="45.100752796807335" lon="9.979962012195674"><ele>39.0</ele><time>2026-04-26T05:40:16Z</time></trkpt><trkpt lat="45.10066075241698" lon="9.979922935373391"><ele>39.0</ele><time>2026-04-26T05:40:17Z</time></trkpt><trkpt lat="45.10056894476744" lon="9.979886172609005"><ele>38.4</ele><time>2026-04-26T05:40:18Z</time></trkpt><trkpt lat="45.10047757961259" lon="9.979842125346414"><ele>37.8</ele><time>2026-04-26T05:40:19Z</time></trkpt><trkpt lat="45.10038590248053" lon="9.979799678468995"><ele>37.2</ele><time>2026-04-26T05:40:20Z</time></trkpt><trkpt lat="45.100295518791576" lon="9.979758236706088"><ele>36.6</ele><time>2026-04-26T05:40:21Z</time></trkpt><trkpt lat="45.10020532989133" lon="9.979719691418271"><ele>36.0</ele><time>2026-04-26T05:40:22Z</time></trkpt><trkpt lat="45.100115176392194" lon="9.979678625686804"><ele>36.0</ele><time>2026-04-26T05:40:23Z</time></trkpt><trkpt lat="45.100022931326" lon="9.979638554161884"><ele>36.0</ele><time>2026-04-26T05:40:24Z</time></trkpt><trkpt lat="45.099935195072604" lon="9.979600602549697"><ele>36.0</ele><time>2026-04-26T05:40:25Z</time></trkpt><trkpt lat="45.09984598316584" lon="9.979557977976901"><ele>36.0</ele><time>2026-04-26T05:40:26Z</time></trkpt><trkpt lat="45.09975946912145" lon="9.97951795914025"><ele>36.0</ele><time>2026-04-26T05:40:27Z</time></trkpt><trkpt lat="45.09967102486331" lon="9.979479436163844"><ele>36.0</ele><time>2026-04-26T05:40:28Z</time></trkpt><trkpt lat="45.09958167541347" lon="9.979441663984268"><ele>36.0</ele><time>2026-04-26T05:40:29Z</time></trkpt><trkpt lat="45.099494032777066" lon="9.979402678119536"><ele>36.0</ele><time>2026-04-26T05:40:30Z</time></trkpt><trkpt lat="45.09940797901611" lon="9.979363675794836"><ele>36.0</ele><time>2026-04-26T05:40:31Z</time></trkpt><trkpt lat="45.099323131532955" lon="9.979325185774666"><ele>36.0</ele><time>2026-04-26T05:40:32Z</time></trkpt><trkpt lat="45.09923473082296" lon="9.97928350232786"><ele>36.0</ele><time>2026-04-26T05:40:33Z</time></trkpt><trkpt lat="45.09914931798366" lon="9.97924079248213"><ele>36.0</ele><time>2026-04-26T05:40:34Z</time></trkpt><trkpt lat="45.09906573036642" lon="9.979196289519123"><ele>36.0</ele><time>2026-04-26T05:40:34.999Z</time></trkpt><trkpt lat="45.098980991412766" lon="9.979148667233"><ele>36.0</ele><time>2026-04-26T05:40:35.999Z</time></trkpt><trkpt lat="45.09889667800173" lon="9.979100312680295"><ele>36.0</ele><time>2026-04-26T05:40:36.999Z</time></trkpt><trkpt lat="45.09881341974265" lon="9.979047962976704"><ele>36.2</ele><time>2026-04-26T05:40:37.999Z</time></trkpt><trkpt lat="45.098730128902154" lon="9.978990980188788"><ele>36.400000000000006</ele><time>2026-04-26T05:40:38.999Z</time></trkpt><trkpt lat="45.0986493851005" lon="9.978931417797257"><ele>36.6</ele><time>2026-04-26T05:40:39.999Z</time></trkpt><trkpt lat="45.09856952735043" lon="9.978866845620878"><ele>36.800000000000004</ele><time>2026-04-26T05:40:40.999Z</time></trkpt><trkpt lat="45.09849250566783" lon="9.97880043951507"><ele>37.0</ele><time>2026-04-26T05:40:41.999Z</time></trkpt><trkpt lat="45.09841670256359" lon="9.978728885086054"><ele>37.0</ele><time>2026-04-26T05:40:42.999Z</time></trkpt><trkpt lat="45.09834503414201" lon="9.978652662759702"><ele>37.0</ele><time>2026-04-26T05:40:43.999Z</time></trkpt><trkpt lat="45.09827530516278" lon="9.97857227605873"><ele>37.0</ele><time>2026-04-26T05:40:44.999Z</time></trkpt><trkpt lat="45.0982063105605" lon="9.978490637155957"><ele>37.0</ele><time>2026-04-26T05:40:45.999Z</time></trkpt><trkpt lat="45.09814095065849" lon="9.978404727623577"><ele>37.0</ele><time>2026-04-26T05:40:46.999Z</time></trkpt><trkpt lat="45.098077046577835" lon="9.978314383712142"><ele>37.0</ele><time>2026-04-26T05:40:47.999Z</time></trkpt><trkpt lat="45.09801467283467" lon="9.978226595287618"><ele>37.0</ele><time>2026-04-26T05:40:48.999Z</time></trkpt><trkpt lat="45.09795102998938" lon="9.978137944353564"><ele>37.0</ele><time>2026-04-26T05:40:49.999Z</time></trkpt><trkpt lat="45.09789030229232" lon="9.978047953998079"><ele>37.0</ele><time>2026-04-26T05:40:50.999Z</time></trkpt><trkpt lat="45.09783165130266" lon="9.977958047194576"><ele>37.0</ele><time>2026-04-26T05:40:51.999Z</time></trkpt><trkpt lat="45.09777322939615" lon="9.977868110953493"><ele>37.0</ele><time>2026-04-26T05:40:52.999Z</time></trkpt><trkpt lat="45.09771561763731" lon="9.97778121590913"><ele>37.0</ele><time>2026-04-26T05:40:53.999Z</time></trkpt><trkpt lat="45.097657391267695" lon="9.977693752017567"><ele>37.0</ele><time>2026-04-26T05:40:54.999Z</time></trkpt><trkpt lat="45.097600230869695" lon="9.977603172752607"><ele>37.0</ele><time>2026-04-26T05:40:55.999Z</time></trkpt><trkpt lat="45.097541887219144" lon="9.977514824327317"><ele>37.0</ele><time>2026-04-26T05:40:56.999Z</time></trkpt><trkpt lat="45.09748385023155" lon="9.977426858007881"><ele>37.0</ele><time>2026-04-26T05:40:57.999Z</time></trkpt><trkpt lat="45.09742669241419" lon="9.977338176117376"><ele>37.0</ele><time>2026-04-26T05:40:58.999Z</time></trkpt><trkpt lat="45.097369834849815" lon="9.977250305545647"><ele>37.0</ele><time>2026-04-26T05:40:59.999Z</time></trkpt><trkpt lat="45.097311381982024" lon="9.977164653684062"><ele>37.16666666666667</ele><time>2026-04-26T05:41:00.999Z</time></trkpt><trkpt lat="45.09725308428536" lon="9.97707940913412"><ele>37.333333333333336</ele><time>2026-04-26T05:41:01.999Z</time></trkpt><trkpt lat="45.09719540345071" lon="9.976994998057823"><ele>37.5</ele><time>2026-04-26T05:41:02.999Z</time></trkpt><trkpt lat="45.09713752045155" lon="9.976910158649416"><ele>37.666666666666664</ele><time>2026-04-26T05:41:03.999Z</time></trkpt><trkpt lat="45.09707922429549" lon="9.976825329775906"><ele>37.83333333333333</ele><time>2026-04-26T05:41:04.999Z</time></trkpt><trkpt lat="45.09702086067588" lon="9.976739657090599"><ele>38.0</ele><time>2026-04-26T05:41:05.999Z</time></trkpt><trkpt lat="45.09696368936566" lon="9.97665280790664"><ele>38.0</ele><time>2026-04-26T05:41:06.999Z</time></trkpt><trkpt lat="45.09690602023134" lon="9.976561943747567"><ele>38.0</ele><time>2026-04-26T05:41:07.999Z</time></trkpt><trkpt lat="45.09684951609956" lon="9.976474313921466"><ele>38.0</ele><time>2026-04-26T05:41:08.999Z</time></trkpt><trkpt lat="45.09679568979384" lon="9.976383158779148"><ele>38.0</ele><time>2026-04-26T05:41:09.999Z</time></trkpt><trkpt lat="45.09674158633202" lon="9.976289630671758"><ele>38.0</ele><time>2026-04-26T05:41:10.999Z</time></trkpt><trkpt lat="45.096682679932975" lon="9.976202950016384"><ele>38.0</ele><time>2026-04-26T05:41:11.999Z</time></trkpt><trkpt lat="45.09662562790412" lon="9.976115611928579"><ele>38.0</ele><time>2026-04-26T05:41:12.999Z</time></trkpt><trkpt lat="45.09656970251189" lon="9.976028794302378"><ele>38.0</ele><time>2026-04-26T05:41:13.999Z</time></trkpt><trkpt lat="45.096514033718385" lon="9.975941853998622"><ele>38.0</ele><time>2026-04-26T05:41:14.999Z</time></trkpt><trkpt lat="45.09645780133425" lon="9.97585620486254"><ele>38.0</ele><time>2026-04-26T05:41:15.999Z</time></trkpt><trkpt lat="45.096402108146115" lon="9.975770692521262"><ele>38.0</ele><time>2026-04-26T05:41:16.999Z</time></trkpt><trkpt lat="45.096348444170594" lon="9.975684233785108"><ele>38.0</ele><time>2026-04-26T05:41:17.999Z</time></trkpt><trkpt lat="45.0962959029935" lon="9.975597400023794"><ele>38.0</ele><time>2026-04-26T05:41:18.999Z</time></trkpt><trkpt lat="45.096242536992804" lon="9.975506805059645"><ele>38.0</ele><time>2026-04-26T05:41:19.999Z</time></trkpt><trkpt lat="45.096190874631546" lon="9.975416156367237"><ele>38.0</ele><time>2026-04-26T05:41:20.999Z</time></trkpt><trkpt lat="45.09614246731721" lon="9.975321683178949"><ele>38.0</ele><time>2026-04-26T05:41:21.999Z</time></trkpt><trkpt lat="45.096097335774665" lon="9.97522527766625"><ele>38.0</ele><time>2026-04-26T05:41:22.999Z</time></trkpt><trkpt lat="45.09605225078637" lon="9.975126813474164"><ele>38.0</ele><time>2026-04-26T05:41:23.999Z</time></trkpt><trkpt lat="45.09600684717215" lon="9.975030755074602"><ele>38.0</ele><time>2026-04-26T05:41:24.999Z</time></trkpt><trkpt lat="45.095962458310936" lon="9.97493354889297"><ele>38.0</ele><time>2026-04-26T05:41:25.999Z</time></trkpt><trkpt lat="45.09592006091452" lon="9.97483325827253"><ele>38.0</ele><time>2026-04-26T05:41:26.999Z</time></trkpt><trkpt lat="45.09587838783015" lon="9.974733130708287"><ele>38.0</ele><time>2026-04-26T05:41:27.999Z</time></trkpt><trkpt lat="45.09583543825306" lon="9.974634835366464"><ele>38.0</ele><time>2026-04-26T05:41:28.999Z</time></trkpt><trkpt lat="45.09579465083381" lon="9.974535208927012"><ele>38.0</ele><time>2026-04-26T05:41:29.998Z</time></trkpt><trkpt lat="45.09575335116768" lon="9.974435762796729"><ele>38.0</ele><time>2026-04-26T05:41:30.998Z</time></trkpt><trkpt lat="45.0957133605562" lon="9.974334523022454"><ele>38.0</ele><time>2026-04-26T05:41:31.998Z</time></trkpt><trkpt lat="45.09567258145801" lon="9.97423131325145"><ele>38.0</ele><time>2026-04-26T05:41:32.998Z</time></trkpt><trkpt lat="45.09562963649037" lon="9.974130886633349"><ele>38.0</ele><time>2026-04-26T05:41:33.998Z</time></trkpt><trkpt lat="45.09558759422738" lon="9.974028985321388"><ele>38.0</ele><time>2026-04-26T05:41:34.998Z</time></trkpt><trkpt lat="45.09554734859059" lon="9.973928149978105"><ele>38.0</ele><time>2026-04-26T05:41:35.998Z</time></trkpt><trkpt lat="45.095506941608654" lon="9.973824329097269"><ele>38.0</ele><time>2026-04-26T05:41:36.998Z</time></trkpt><trkpt lat="45.09546756894475" lon="9.973719114830915"><ele>38.0</ele><time>2026-04-26T05:41:37.998Z</time></trkpt><trkpt lat="45.09542628736578" lon="9.973617432843188"><ele>38.0</ele><time>2026-04-26T05:41:38.998Z</time></trkpt><trkpt lat="45.095384691936424" lon="9.973515418971933"><ele>38.0</ele><time>2026-04-26T05:41:40Z</time></trkpt><trkpt lat="45.095343784119294" lon="9.973412289176055"><ele>38.0</ele><time>2026-04-26T05:41:41Z</time></trkpt><trkpt lat="45.09530309239408" lon="9.973308219303544"><ele>38.0</ele><time>2026-04-26T05:41:42Z</time></trkpt><trkpt lat="45.0952629869662" lon="9.97320464679129"><ele>37.83333333333333</ele><time>2026-04-26T05:41:43Z</time></trkpt><trkpt lat="45.095222515352184" lon="9.973102480212784"><ele>37.666666666666664</ele><time>2026-04-26T05:41:44Z</time></trkpt><trkpt lat="45.095181283852895" lon="9.973000670257937"><ele>37.5</ele><time>2026-04-26T05:41:45Z</time></trkpt><trkpt lat="45.095138130913455" lon="9.972897667649196"><ele>37.333333333333336</ele><time>2026-04-26T05:41:46Z</time></trkpt><trkpt lat="45.09509699179151" lon="9.97279398935198"><ele>37.16666666666667</ele><time>2026-04-26T05:41:47Z</time></trkpt><trkpt lat="45.09505413354939" lon="9.972689990271085"><ele>37.0</ele><time>2026-04-26T05:41:48Z</time></trkpt><trkpt lat="45.09501243746223" lon="9.972585745976705"><ele>36.833333333333336</ele><time>2026-04-26T05:41:49Z</time></trkpt><trkpt lat="45.094967972924614" lon="9.972482551393588"><ele>36.66666666666667</ele><time>2026-04-26T05:41:50Z</time></trkpt><trkpt lat="45.094926065041285" lon="9.97237968566317"><ele>36.5</ele><time>2026-04-26T05:41:51Z</time></trkpt><trkpt lat="45.09488635359451" lon="9.972275284465178"><ele>36.333333333333336</ele><time>2026-04-26T05:41:52Z</time></trkpt><trkpt lat="45.09484717513812" lon="9.972172517476464"><ele>36.166666666666664</ele><time>2026-04-26T05:41:53Z</time></trkpt><trkpt lat="45.09480545876488" lon="9.972070759117027"><ele>36.0</ele><time>2026-04-26T05:41:54Z</time></trkpt><trkpt lat="45.094763394366886" lon="9.971968730837201"><ele>35.833333333333336</ele><time>2026-04-26T05:41:55Z</time></trkpt><trkpt lat="45.09472175483563" lon="9.971864367380444"><ele>35.666666666666664</ele><time>2026-04-26T05:41:56Z</time></trkpt><trkpt lat="45.09468010309013" lon="9.971761677003876"><ele>35.5</ele><time>2026-04-26T05:41:57Z</time></trkpt><trkpt lat="45.09463928751999" lon="9.971656063863389"><ele>35.33333333333333</ele><time>2026-04-26T05:41:58Z</time></trkpt><trkpt lat="45.09459883928144" lon="9.9715512780345"><ele>35.166666666666664</ele><time>2026-04-26T05:41:59Z</time></trkpt><trkpt lat="45.094555334356485" lon="9.971451862870028"><ele>35.0</ele><time>2026-04-26T05:42:00Z</time></trkpt><trkpt lat="45.094513800326936" lon="9.971349566550023"><ele>35.0</ele><time>2026-04-26T05:42:01Z</time></trkpt><trkpt lat="45.09447333651621" lon="9.971245847633673"><ele>35.0</ele><time>2026-04-26T05:42:02Z</time></trkpt><trkpt lat="45.094433361799666" lon="9.97114277691401"><ele>35.0</ele><time>2026-04-26T05:42:03Z</time></trkpt><trkpt lat="45.09439339651226" lon="9.971039458780128"><ele>35.0</ele><time>2026-04-26T05:42:04Z</time></trkpt><trkpt lat="45.09435317601353" lon="9.970939270891234"><ele>35.0</ele><time>2026-04-26T05:42:05Z</time></trkpt><trkpt lat="45.09431234729589" lon="9.970836751103805"><ele>35.0</ele><time>2026-04-26T05:42:06Z</time></trkpt><trkpt lat="45.0942721284847" lon="9.9707339593576"><ele>35.0</ele><time>2026-04-26T05:42:07Z</time></trkpt><trkpt lat="45.09423158872365" lon="9.970629452954741"><ele>35.0</ele><time>2026-04-26T05:42:08Z</time></trkpt><trkpt lat="45.094190545762366" lon="9.970526037006964"><ele>35.0</ele><time>2026-04-26T05:42:09Z</time></trkpt><trkpt lat="45.094149290738805" lon="9.970422739151882"><ele>35.0</ele><time>2026-04-26T05:42:10Z</time></trkpt><trkpt lat="45.09410824267026" lon="9.970318330525089"><ele>35.0</ele><time>2026-04-26T05:42:11Z</time></trkpt><trkpt lat="45.09406709677156" lon="9.970215392641734"><ele>35.0</ele><time>2026-04-26T05:42:12Z</time></trkpt><trkpt lat="45.09402609431142" lon="9.970110910810332"><ele>35.0</ele><time>2026-04-26T05:42:13Z</time></trkpt><trkpt lat="45.09398661045344" lon="9.970005731222555"><ele>35.0</ele><time>2026-04-26T05:42:14Z</time></trkpt><trkpt lat="45.0939464042594" lon="9.96990289709164"><ele>35.0</ele><time>2026-04-26T05:42:15Z</time></trkpt><trkpt lat="45.09390632110231" lon="9.9697988803465"><ele>35.0</ele><time>2026-04-26T05:42:16Z</time></trkpt><trkpt lat="45.09386724334757" lon="9.969695718969323"><ele>35.0</ele><time>2026-04-26T05:42:17Z</time></trkpt><trkpt lat="45.09382753932926" lon="9.96959387287001"><ele>35.0</ele><time>2026-04-26T05:42:18Z</time></trkpt><trkpt lat="45.09378854960245" lon="9.969490195482019"><ele>35.0</ele><time>2026-04-26T05:42:19Z</time></trkpt><trkpt lat="45.09374992031541" lon="9.969386694604891"><ele>35.0</ele><time>2026-04-26T05:42:20Z</time></trkpt><trkpt lat="45.093712590078255" lon="9.969284804662507"><ele>35.0</ele><time>2026-04-26T05:42:21Z</time></trkpt><trkpt lat="45.09367310305469" lon="9.969182996576432"><ele>35.0</ele><time>2026-04-26T05:42:22Z</time></trkpt><trkpt lat="45.09363311127101" lon="9.969081061630371"><ele>35.0</ele><time>2026-04-26T05:42:23Z</time></trkpt><trkpt lat="45.0935926459119" lon="9.968978982721165"><ele>35.0</ele><time>2026-04-26T05:42:24Z</time></trkpt><trkpt lat="45.09355229964908" lon="9.968876482406122"><ele>35.166666666666664</ele><time>2026-04-26T05:42:25Z</time></trkpt><trkpt lat="45.09351138173526" lon="9.968773296439855"><ele>35.33333333333333</ele><time>2026-04-26T05:42:26Z</time></trkpt><trkpt lat="45.09347153784293" lon="9.968669979058506"><ele>35.5</ele><time>2026-04-26T05:42:27Z</time></trkpt><trkpt lat="45.09343164174359" lon="9.968563280443172"><ele>35.666666666666664</ele><time>2026-04-26T05:42:28Z</time></trkpt><trkpt lat="45.09339197180569" lon="9.968458831512757"><ele>35.833333333333336</ele><time>2026-04-26T05:42:29Z</time></trkpt><trkpt lat="45.09334979360733" lon="9.96835552856956"><ele>36.0</ele><time>2026-04-26T05:42:30Z</time></trkpt><trkpt lat="45.09330998263953" lon="9.968251352642133"><ele>36.0</ele><time>2026-04-26T05:42:31Z</time></trkpt><trkpt lat="45.09326960737869" lon="9.968147972208502"><ele>36.0</ele><time>2026-04-26T05:42:32Z</time></trkpt><trkpt lat="45.093230744737895" lon="9.968042489013213"><ele>36.0</ele><time>2026-04-26T05:42:33Z</time></trkpt><trkpt lat="45.09319088378632" lon="9.96793804088682"><ele>36.0</ele><time>2026-04-26T05:42:34Z</time></trkpt><trkpt lat="45.09315218275407" lon="9.96783206314316"><ele>36.0</ele><time>2026-04-26T05:42:35Z</time></trkpt><trkpt lat="45.09311148054383" lon="9.967726997667617"><ele>36.0</ele><time>2026-04-26T05:42:36Z</time></trkpt><trkpt lat="45.0930689093036" lon="9.967621123067628"><ele>36.166666666666664</ele><time>2026-04-26T05:42:37Z</time></trkpt><trkpt lat="45.09302776015467" lon="9.967514806840057"><ele>36.333333333333336</ele><time>2026-04-26T05:42:37.999Z</time></trkpt><trkpt lat="45.092987426070884" lon="9.967409534752962"><ele>36.5</ele><time>2026-04-26T05:42:38.999Z</time></trkpt><trkpt lat="45.09294592405486" lon="9.967302571714635"><ele>36.66666666666667</ele><time>2026-04-26T05:42:39.999Z</time></trkpt><trkpt lat="45.09290480050747" lon="9.967194242965604"><ele>36.833333333333336</ele><time>2026-04-26T05:42:40.999Z</time></trkpt><trkpt lat="45.092862460507966" lon="9.967089912168307"><ele>37.0</ele><time>2026-04-26T05:42:41.999Z</time></trkpt><trkpt lat="45.092823418087555" lon="9.966985693910974"><ele>37.0</ele><time>2026-04-26T05:42:42.999Z</time></trkpt><trkpt lat="45.0927839465418" lon="9.966881162759845"><ele>37.0</ele><time>2026-04-26T05:42:43.999Z</time></trkpt><trkpt lat="45.09274622046083" lon="9.966776000513757"><ele>37.0</ele><time>2026-04-26T05:42:44.999Z</time></trkpt><trkpt lat="45.092708279689035" lon="9.96667429908013"><ele>37.0</ele><time>2026-04-26T05:42:45.999Z</time></trkpt><trkpt lat="45.092669937823956" lon="9.966570862495095"><ele>37.0</ele><time>2026-04-26T05:42:46.999Z</time></trkpt><trkpt lat="45.092632609767755" lon="9.966466557250282"><ele>37.0</ele><time>2026-04-26T05:42:47.999Z</time></trkpt><trkpt lat="45.09259875967882" lon="9.966363376141306"><ele>37.16666666666667</ele><time>2026-04-26T05:42:48.999Z</time></trkpt><trkpt lat="45.09256763199972" lon="9.966253346867662"><ele>37.333333333333336</ele><time>2026-04-26T05:42:49.999Z</time></trkpt><trkpt lat="45.09253836653135" lon="9.96614792049107"><ele>37.5</ele><time>2026-04-26T05:42:50.999Z</time></trkpt><trkpt lat="45.09251199540811" lon="9.966038244241219"><ele>37.666666666666664</ele><time>2026-04-26T05:42:51.999Z</time></trkpt><trkpt lat="45.09248685847295" lon="9.96592792113076"><ele>37.83333333333333</ele><time>2026-04-26T05:42:52.999Z</time></trkpt><trkpt lat="45.092463010850096" lon="9.965816522972947"><ele>38.0</ele><time>2026-04-26T05:42:53.999Z</time></trkpt><trkpt lat="45.09243969119797" lon="9.965704373997758"><ele>37.666666666666664</ele><time>2026-04-26T05:42:54.999Z</time></trkpt><trkpt lat="45.09241659022677" lon="9.965593761499019"><ele>37.33333333333333</ele><time>2026-04-26T05:42:55.999Z</time></trkpt><trkpt lat="45.09239414537602" lon="9.96548230106316"><ele>37.0</ele><time>2026-04-26T05:42:56.999Z</time></trkpt><trkpt lat="45.09237257060274" lon="9.965370043241636"><ele>36.666666666666664</ele><time>2026-04-26T05:42:57.999Z</time></trkpt><trkpt lat="45.09235188786518" lon="9.965259059403902"><ele>36.333333333333336</ele><time>2026-04-26T05:42:58.999Z</time></trkpt><trkpt lat="45.092346811215755" lon="9.965145333266232"><ele>36.0</ele><time>2026-04-26T05:42:59.999Z</time></trkpt><trkpt lat="45.09233458164304" lon="9.965035218388847"><ele>36.166666666666664</ele><time>2026-04-26T05:43:00.999Z</time></trkpt><trkpt lat="45.092321909828186" lon="9.96492112156991"><ele>36.333333333333336</ele><time>2026-04-26T05:43:01.999Z</time></trkpt><trkpt lat="45.09230930960026" lon="9.964807669315435"><ele>36.5</ele><time>2026-04-26T05:43:02.999Z</time></trkpt><trkpt lat="45.09229745142465" lon="9.964693995663417"><ele>36.66666666666667</ele><time>2026-04-26T05:43:03.999Z</time></trkpt><trkpt lat="45.092286896574386" lon="9.96458111178969"><ele>36.833333333333336</ele><time>2026-04-26T05:43:04.999Z</time></trkpt><trkpt lat="45.092274358458845" lon="9.964468218797004"><ele>37.0</ele><time>2026-04-26T05:43:05.999Z</time></trkpt><trkpt lat="45.09226250454627" lon="9.964361486356779"><ele>37.0</ele><time>2026-04-26T05:43:06.999Z</time></trkpt><trkpt lat="45.09225078798214" lon="9.96425599059902"><ele>37.0</ele><time>2026-04-26T05:43:07.999Z</time></trkpt><trkpt lat="45.092238888053366" lon="9.964148843830591"><ele>37.0</ele><time>2026-04-26T05:43:08.999Z</time></trkpt><trkpt lat="45.092228313747874" lon="9.964053632923372"><ele>37.0</ele><time>2026-04-26T05:43:09.999Z</time></trkpt><trkpt lat="45.09205635621647" lon="9.964015179805763"><ele>37.0</ele><time>2026-04-26T05:43:10.999Z</time></trkpt><trkpt lat="45.091970853469356" lon="9.963977411579936"><ele>37.0</ele><time>2026-04-26T05:43:11.999Z</time></trkpt><trkpt lat="45.09188487154854" lon="9.963951076608783"><ele>37.0</ele><time>2026-04-26T05:43:12.999Z</time></trkpt><trkpt lat="45.09180144454947" lon="9.963925332624086"><ele>37.0</ele><time>2026-04-26T05:43:13.999Z</time></trkpt><trkpt lat="45.09172120970644" lon="9.96388642903244"><ele>37.0</ele><time>2026-04-26T05:43:14.999Z</time></trkpt><trkpt lat="45.09165138448833" lon="9.963827137621386"><ele>37.0</ele><time>2026-04-26T05:43:15.999Z</time></trkpt><trkpt lat="45.091590507271" lon="9.963751197796489"><ele>37.0</ele><time>2026-04-26T05:43:16.999Z</time></trkpt><trkpt lat="45.0915405166855" lon="9.963658202938152"><ele>37.0</ele><time>2026-04-26T05:43:17.999Z</time></trkpt><trkpt lat="45.09149420323842" lon="9.963557499061464"><ele>37.0</ele><time>2026-04-26T05:43:18.999Z</time></trkpt><trkpt lat="45.09144231270725" lon="9.963466666223079"><ele>37.0</ele><time>2026-04-26T05:43:19.999Z</time></trkpt><trkpt lat="45.091383740048" lon="9.963384797334113"><ele>37.0</ele><time>2026-04-26T05:43:20.999Z</time></trkpt><trkpt lat="45.09132316522619" lon="9.96330772137085"><ele>37.0</ele><time>2026-04-26T05:43:21.999Z</time></trkpt><trkpt lat="45.091261012954156" lon="9.963232422174174"><ele>37.0</ele><time>2026-04-26T05:43:22.999Z</time></trkpt><trkpt lat="45.09119536991209" lon="9.96316223669096"><ele>37.0</ele><time>2026-04-26T05:43:23.999Z</time></trkpt><trkpt lat="45.09112648789503" lon="9.963095086556013"><ele>37.0</ele><time>2026-04-26T05:43:24.999Z</time></trkpt><trkpt lat="45.09105764816601" lon="9.963028040864426"><ele>37.0</ele><time>2026-04-26T05:43:25.999Z</time></trkpt><trkpt lat="45.090991323405014" lon="9.962964677237476"><ele>37.0</ele><time>2026-04-26T05:43:26.999Z</time></trkpt><trkpt lat="45.09092493850937" lon="9.962896187461805"><ele>37.0</ele><time>2026-04-26T05:43:27.999Z</time></trkpt><trkpt lat="45.090858467472316" lon="9.962830268915827"><ele>37.0</ele><time>2026-04-26T05:43:28.999Z</time></trkpt><trkpt lat="45.09079222277268" lon="9.962764237390413"><ele>37.0</ele><time>2026-04-26T05:43:29.999Z</time></trkpt><trkpt lat="45.09072484646453" lon="9.962696618010959"><ele>37.0</ele><time>2026-04-26T05:43:30.999Z</time></trkpt><trkpt lat="45.090658187071114" lon="9.962631461304648"><ele>37.0</ele><time>2026-04-26T05:43:31.998Z</time></trkpt><trkpt lat="45.09059049160582" lon="9.96256308639045"><ele>37.0</ele><time>2026-04-26T05:43:32.998Z</time></trkpt><trkpt lat="45.090522811669345" lon="9.962496695106099"><ele>37.0</ele><time>2026-04-26T05:43:33.998Z</time></trkpt><trkpt lat="45.09045294134509" lon="9.96243350647942"><ele>37.0</ele><time>2026-04-26T05:43:34.998Z</time></trkpt><trkpt lat="45.09038210758886" lon="9.962372350736816"><ele>37.0</ele><time>2026-04-26T05:43:35.998Z</time></trkpt><trkpt lat="45.090315298976016" lon="9.962308194634058"><ele>37.0</ele><time>2026-04-26T05:43:36.998Z</time></trkpt><trkpt lat="45.09024806410532" lon="9.962244636512894"><ele>37.0</ele><time>2026-04-26T05:43:37.998Z</time></trkpt><trkpt lat="45.0901816473179" lon="9.962178221036135"><ele>37.0</ele><time>2026-04-26T05:43:38.998Z</time></trkpt><trkpt lat="45.09011394700449" lon="9.962111357823758"><ele>37.0</ele><time>2026-04-26T05:43:39.998Z</time></trkpt><trkpt lat="45.090045229579296" lon="9.96204691544182"><ele>37.0</ele><time>2026-04-26T05:43:40.998Z</time></trkpt><trkpt lat="45.08997524540999" lon="9.961987233828339"><ele>36.833333333333336</ele><time>2026-04-26T05:43:41.998Z</time></trkpt><trkpt lat="45.089903461025365" lon="9.961930031149373"><ele>36.66666666666667</ele><time>2026-04-26T05:43:42.998Z</time></trkpt><trkpt lat="45.08983026143105" lon="9.96187417323737"><ele>36.5</ele><time>2026-04-26T05:43:43.998Z</time></trkpt><trkpt lat="45.089753984922844" lon="9.961822622223169"><ele>36.333333333333336</ele><time>2026-04-26T05:43:44.998Z</time></trkpt><trkpt lat="45.08967701735845" lon="9.96177783399571"><ele>36.166666666666664</ele><time>2026-04-26T05:43:46Z</time></trkpt><trkpt lat="45.0895975048122" lon="9.961739883257446"><ele>36.0</ele><time>2026-04-26T05:43:47Z</time></trkpt><trkpt lat="45.08951807632057" lon="9.9617065253883"><ele>36.0</ele><time>2026-04-26T05:43:48Z</time></trkpt><trkpt lat="45.08943721133565" lon="9.961679890863515"><ele>36.0</ele><time>2026-04-26T05:43:49Z</time></trkpt><trkpt lat="45.089355037583786" lon="9.961657205887736"><ele>36.0</ele><time>2026-04-26T05:43:50Z</time></trkpt><trkpt lat="45.089273118124545" lon="9.961638874135993"><ele>36.0</ele><time>2026-04-26T05:43:51Z</time></trkpt><trkpt lat="45.089189666576914" lon="9.961625911378212"><ele>36.0</ele><time>2026-04-26T05:43:52Z</time></trkpt><trkpt lat="45.089106604013026" lon="9.961621109575301"><ele>36.0</ele><time>2026-04-26T05:43:53Z</time></trkpt><trkpt lat="45.08902210535307" lon="9.961619094179177"><ele>36.0</ele><time>2026-04-26T05:43:54Z</time></trkpt><trkpt lat="45.08893813596988" lon="9.961612240141283"><ele>36.0</ele><time>2026-04-26T05:43:55Z</time></trkpt><trkpt lat="45.08885555712215" lon="9.961605779010979"><ele>36.0</ele><time>2026-04-26T05:43:56Z</time></trkpt><trkpt lat="45.08877300549055" lon="9.961601166496456"><ele>36.0</ele><time>2026-04-26T05:43:57Z</time></trkpt><trkpt lat="45.088690105890095" lon="9.96159565044978"><ele>36.0</ele><time>2026-04-26T05:43:58Z</time></trkpt><trkpt lat="45.08861034166015" lon="9.961588112910789"><ele>36.0</ele><time>2026-04-26T05:43:59Z</time></trkpt><trkpt lat="45.088529716779156" lon="9.961581692332556"><ele>36.0</ele><time>2026-04-26T05:44:00Z</time></trkpt><trkpt lat="45.08844896782803" lon="9.961574544939685"><ele>36.0</ele><time>2026-04-26T05:44:01Z</time></trkpt><trkpt lat="45.08836534982656" lon="9.961564147222383"><ele>36.0</ele><time>2026-04-26T05:44:02Z</time></trkpt><trkpt lat="45.08828393398462" lon="9.961553648428117"><ele>36.0</ele><time>2026-04-26T05:44:03Z</time></trkpt><trkpt lat="45.0882043452745" lon="9.96154810589791"><ele>36.0</ele><time>2026-04-26T05:44:04Z</time></trkpt><trkpt lat="45.08812317015939" lon="9.96153556089635"><ele>36.0</ele><time>2026-04-26T05:44:05Z</time></trkpt><trkpt lat="45.088040609178805" lon="9.961522888894445"><ele>36.333333333333336</ele><time>2026-04-26T05:44:06Z</time></trkpt><trkpt lat="45.08795648450095" lon="9.961513286481702"><ele>36.666666666666664</ele><time>2026-04-26T05:44:07Z</time></trkpt><trkpt lat="45.08787540644447" lon="9.961501796733394"><ele>37.0</ele><time>2026-04-26T05:44:08Z</time></trkpt><trkpt lat="45.087792817786095" lon="9.961488486221041"><ele>37.33333333333333</ele><time>2026-04-26T05:44:09Z</time></trkpt><trkpt lat="45.087712743398896" lon="9.96147295581634"><ele>37.666666666666664</ele><time>2026-04-26T05:44:10Z</time></trkpt><trkpt lat="45.08763228555261" lon="9.961453255203542"><ele>38.0</ele><time>2026-04-26T05:44:11Z</time></trkpt><trkpt lat="45.08754927954238" lon="9.961431617116249"><ele>38.0</ele><time>2026-04-26T05:44:12Z</time></trkpt><trkpt lat="45.08746645098221" lon="9.961410095728883"><ele>38.0</ele><time>2026-04-26T05:44:13Z</time></trkpt><trkpt lat="45.087383381551525" lon="9.961394116853985"><ele>38.0</ele><time>2026-04-26T05:44:14Z</time></trkpt><trkpt lat="45.08730181386486" lon="9.961374632171273"><ele>38.0</ele><time>2026-04-26T05:44:15Z</time></trkpt><trkpt lat="45.087220243938155" lon="9.96135589369139"><ele>38.0</ele><time>2026-04-26T05:44:16Z</time></trkpt><trkpt lat="45.087138202416675" lon="9.96133719524763"><ele>38.0</ele><time>2026-04-26T05:44:17Z</time></trkpt><trkpt lat="45.08705495802363" lon="9.961323132732783"><ele>37.83333333333333</ele><time>2026-04-26T05:44:18Z</time></trkpt><trkpt lat="45.0869721656879" lon="9.961315535086543"><ele>37.666666666666664</ele><time>2026-04-26T05:44:19Z</time></trkpt><trkpt lat="45.08688785975163" lon="9.961309969774538"><ele>37.5</ele><time>2026-04-26T05:44:20Z</time></trkpt><trkpt lat="45.086804187933225" lon="9.961305027211049"><ele>37.333333333333336</ele><time>2026-04-26T05:44:21Z</time></trkpt><trkpt lat="45.086720881965384" lon="9.961297669508165"><ele>37.16666666666667</ele><time>2026-04-26T05:44:22Z</time></trkpt><trkpt lat="45.08663552813487" lon="9.961288849112032"><ele>37.0</ele><time>2026-04-26T05:44:23Z</time></trkpt><trkpt lat="45.08654913811905" lon="9.961289672961222"><ele>37.0</ele><time>2026-04-26T05:44:24Z</time></trkpt><trkpt lat="45.08646409382819" lon="9.961291675753694"><ele>37.0</ele><time>2026-04-26T05:44:25Z</time></trkpt><trkpt lat="45.086380296724464" lon="9.961296575498235"><ele>37.0</ele><time>2026-04-26T05:44:26Z</time></trkpt><trkpt lat="45.086295449391876" lon="9.961296774809403"><ele>37.0</ele><time>2026-04-26T05:44:27Z</time></trkpt><trkpt lat="45.086210959611826" lon="9.961299400700936"><ele>37.0</ele><time>2026-04-26T05:44:28Z</time></trkpt><trkpt lat="45.08612835632779" lon="9.96130320359543"><ele>37.0</ele><time>2026-04-26T05:44:29Z</time></trkpt><trkpt lat="45.086045312495415" lon="9.961308539582411"><ele>37.0</ele><time>2026-04-26T05:44:30Z</time></trkpt><trkpt lat="45.08596204732187" lon="9.961315477497536"><ele>37.0</ele><time>2026-04-26T05:44:31Z</time></trkpt><trkpt lat="45.08587808084342" lon="9.9613209959505"><ele>37.0</ele><time>2026-04-26T05:44:32Z</time></trkpt><trkpt lat="45.08579382215598" lon="9.96133469133814"><ele>37.0</ele><time>2026-04-26T05:44:33Z</time></trkpt><trkpt lat="45.085712648985165" lon="9.961361814246725"><ele>37.0</ele><time>2026-04-26T05:44:34Z</time></trkpt><trkpt lat="45.08563050196293" lon="9.96139498242218"><ele>37.0</ele><time>2026-04-26T05:44:35Z</time></trkpt><trkpt lat="45.08554890238144" lon="9.96142655658551"><ele>37.16666666666667</ele><time>2026-04-26T05:44:36Z</time></trkpt><trkpt lat="45.08546767434935" lon="9.961458432504465"><ele>37.333333333333336</ele><time>2026-04-26T05:44:37Z</time></trkpt><trkpt lat="45.085386767996425" lon="9.961489974300813"><ele>37.5</ele><time>2026-04-26T05:44:38Z</time></trkpt><trkpt lat="45.08530690366186" lon="9.961518629415593"><ele>37.666666666666664</ele><time>2026-04-26T05:44:39Z</time></trkpt><trkpt lat="45.085225909023386" lon="9.961544528767986"><ele>37.83333333333333</ele><time>2026-04-26T05:44:40Z</time></trkpt><trkpt lat="45.08514545074396" lon="9.96156857573357"><ele>38.0</ele><time>2026-04-26T05:44:41Z</time></trkpt><trkpt lat="45.08506541138566" lon="9.961595892861805"><ele>38.0</ele><time>2026-04-26T05:44:41.999Z</time></trkpt><trkpt lat="45.084985550097564" lon="9.961630016055027"><ele>38.0</ele><time>2026-04-26T05:44:42.999Z</time></trkpt><trkpt lat="45.08490584877878" lon="9.961662479035535"><ele>38.0</ele><time>2026-04-26T05:44:43.999Z</time></trkpt><trkpt lat="45.084825385460505" lon="9.96169052479087"><ele>38.0</ele><time>2026-04-26T05:44:44.999Z</time></trkpt><trkpt lat="45.08474550219169" lon="9.961717904619828"><ele>38.0</ele><time>2026-04-26T05:44:45.999Z</time></trkpt><trkpt lat="45.08466650439322" lon="9.961746816011692"><ele>38.0</ele><time>2026-04-26T05:44:46.999Z</time></trkpt><trkpt lat="45.08458669321382" lon="9.961772880312637"><ele>37.83333333333333</ele><time>2026-04-26T05:44:47.999Z</time></trkpt><trkpt lat="45.08451164716457" lon="9.961797404817192"><ele>37.666666666666664</ele><time>2026-04-26T05:44:48.999Z</time></trkpt><trkpt lat="45.08443427988654" lon="9.961826304468424"><ele>37.5</ele><time>2026-04-26T05:44:49.999Z</time></trkpt><trkpt lat="45.084357323901266" lon="9.961854874959046"><ele>37.333333333333336</ele><time>2026-04-26T05:44:50.999Z</time></trkpt><trkpt lat="45.084280178695955" lon="9.96188505485706"><ele>37.16666666666667</ele><time>2026-04-26T05:44:51.999Z</time></trkpt><trkpt lat="45.08420488609607" lon="9.961920040421989"><ele>37.0</ele><time>2026-04-26T05:44:52.999Z</time></trkpt><trkpt lat="45.08412862896873" lon="9.961957269171778"><ele>37.333333333333336</ele><time>2026-04-26T05:44:53.999Z</time></trkpt><trkpt lat="45.084055328530965" lon="9.962004821086154"><ele>37.66666666666667</ele><time>2026-04-26T05:44:54.999Z</time></trkpt><trkpt lat="45.08398013242375" lon="9.962054453972886"><ele>38.0</ele><time>2026-04-26T05:44:55.999Z</time></trkpt><trkpt lat="45.083904919210404" lon="9.962103297589348"><ele>38.333333333333336</ele><time>2026-04-26T05:44:56.999Z</time></trkpt><trkpt lat="45.083830322206644" lon="9.96215311307328"><ele>38.666666666666664</ele><time>2026-04-26T05:44:57.999Z</time></trkpt><trkpt lat="45.08375730249443" lon="9.962203950741474"><ele>39.0</ele><time>2026-04-26T05:44:58.999Z</time></trkpt><trkpt lat="45.08368802970637" lon="9.962257679312541"><ele>39.0</ele><time>2026-04-26T05:44:59.999Z</time></trkpt><trkpt lat="45.08362028689805" lon="9.962312729516876"><ele>39.0</ele><time>2026-04-26T05:45:00.999Z</time></trkpt><trkpt lat="45.08355874766279" lon="9.962374113283863"><ele>39.0</ele><time>2026-04-26T05:45:01.999Z</time></trkpt><trkpt lat="45.083496896830006" lon="9.962433337378185"><ele>39.0</ele><time>2026-04-26T05:45:02.999Z</time></trkpt><trkpt lat="45.08343438420744" lon="9.96249001978986"><ele>39.0</ele><time>2026-04-26T05:45:03.999Z</time></trkpt><trkpt lat="45.08337216253571" lon="9.962550607988414"><ele>39.0</ele><time>2026-04-26T05:45:04.999Z</time></trkpt><trkpt lat="45.08330908739056" lon="9.962602777199502"><ele>39.166666666666664</ele><time>2026-04-26T05:45:05.999Z</time></trkpt><trkpt lat="45.08324665224741" lon="9.962660707633283"><ele>39.333333333333336</ele><time>2026-04-26T05:45:06.999Z</time></trkpt><trkpt lat="45.08318431776495" lon="9.962719859856112"><ele>39.5</ele><time>2026-04-26T05:45:07.999Z</time></trkpt><trkpt lat="45.08312058214102" lon="9.962774581970631"><ele>39.66666666666667</ele><time>2026-04-26T05:45:08.999Z</time></trkpt><trkpt lat="45.08305803887248" lon="9.96283313241778"><ele>39.833333333333336</ele><time>2026-04-26T05:45:09.999Z</time></trkpt><trkpt lat="45.08299015730717" lon="9.962889839993327"><ele>40.0</ele><time>2026-04-26T05:45:10.999Z</time></trkpt><trkpt lat="45.082925050376744" lon="9.962943467590453"><ele>40.0</ele><time>2026-04-26T05:45:11.999Z</time></trkpt><trkpt lat="45.08285750930749" lon="9.962999522685683"><ele>40.0</ele><time>2026-04-26T05:45:12.999Z</time></trkpt><trkpt lat="45.08279099157903" lon="9.963054288585651"><ele>40.0</ele><time>2026-04-26T05:45:13.999Z</time></trkpt><trkpt lat="45.08272697126372" lon="9.963113384599293"><ele>40.0</ele><time>2026-04-26T05:45:14.999Z</time></trkpt><trkpt lat="45.0826639691691" lon="9.963170520067559"><ele>40.0</ele><time>2026-04-26T05:45:15.999Z</time></trkpt><trkpt lat="45.082598157932615" lon="9.963227645219071"><ele>40.0</ele><time>2026-04-26T05:45:16.999Z</time></trkpt><trkpt lat="45.08253246708662" lon="9.963282989968642"><ele>40.0</ele><time>2026-04-26T05:45:17.999Z</time></trkpt><trkpt lat="45.0824714525715" lon="9.963345027835233"><ele>40.0</ele><time>2026-04-26T05:45:18.999Z</time></trkpt><trkpt lat="45.082406084606504" lon="9.963400310712508"><ele>40.0</ele><time>2026-04-26T05:45:19.999Z</time></trkpt><trkpt lat="45.082344427113206" lon="9.963459489872534"><ele>40.0</ele><time>2026-04-26T05:45:20.999Z</time></trkpt><trkpt lat="45.082278596098284" lon="9.963516985972023"><ele>40.0</ele><time>2026-04-26T05:45:21.999Z</time></trkpt><trkpt lat="45.08221652490368" lon="9.963567694207779"><ele>40.0</ele><time>2026-04-26T05:45:22.999Z</time></trkpt><trkpt lat="45.082153645706015" lon="9.963623129828703"><ele>40.0</ele><time>2026-04-26T05:45:23.999Z</time></trkpt><trkpt lat="45.082091177038045" lon="9.963676890358633"><ele>39.833333333333336</ele><time>2026-04-26T05:45:24.999Z</time></trkpt><trkpt lat="45.082022430677455" lon="9.96373270915772"><ele>39.66666666666667</ele><time>2026-04-26T05:45:25.999Z</time></trkpt><trkpt lat="45.08194962531268" lon="9.963787369934405"><ele>39.5</ele><time>2026-04-26T05:45:26.999Z</time></trkpt><trkpt lat="45.081874136966164" lon="9.963834793105677"><ele>39.333333333333336</ele><time>2026-04-26T05:45:27.999Z</time></trkpt><trkpt lat="45.08179751951376" lon="9.963876014711492"><ele>39.166666666666664</ele><time>2026-04-26T05:45:28.999Z</time></trkpt><trkpt lat="45.081715162707894" lon="9.963905510944379"><ele>39.0</ele><time>2026-04-26T05:45:29.999Z</time></trkpt><trkpt lat="45.08162942046344" lon="9.963923140824669"><ele>39.0</ele><time>2026-04-26T05:45:30.999Z</time></trkpt><trkpt lat="45.081539864168285" lon="9.9639376704136"><ele>39.0</ele><time>2026-04-26T05:45:31.999Z</time></trkpt><trkpt lat="45.08145389739592" lon="9.963952648338902"><ele>39.0</ele><time>2026-04-26T05:45:32.999Z</time></trkpt><trkpt lat="45.081364173617864" lon="9.963970510568764"><ele>39.0</ele><time>2026-04-26T05:45:33.999Z</time></trkpt><trkpt lat="45.081276540677166" lon="9.963985682509502"><ele>39.0</ele><time>2026-04-26T05:45:34.999Z</time></trkpt><trkpt lat="45.08118516998022" lon="9.964006052759169"><ele>39.0</ele><time>2026-04-26T05:45:35.999Z</time></trkpt><trkpt lat="45.0810953536544" lon="9.964021332213846"><ele>39.0</ele><time>2026-04-26T05:45:36.998Z</time></trkpt><trkpt lat="45.081011258825654" lon="9.964041791557836"><ele>39.0</ele><time>2026-04-26T05:45:37.998Z</time></trkpt><trkpt lat="45.08092220327026" lon="9.964056297591544"><ele>39.0</ele><time>2026-04-26T05:45:38.998Z</time></trkpt><trkpt lat="45.08083307296866" lon="9.964075908987935"><ele>39.0</ele><time>2026-04-26T05:45:39.998Z</time></trkpt><trkpt lat="45.08074409658037" lon="9.964092695765762"><ele>39.0</ele><time>2026-04-26T05:45:40.998Z</time></trkpt><trkpt lat="45.080653219719046" lon="9.964112944138368"><ele>39.0</ele><time>2026-04-26T05:45:41.998Z</time></trkpt><trkpt lat="45.08056055496019" lon="9.964133436388654"><ele>38.6</ele><time>2026-04-26T05:45:42.998Z</time></trkpt><trkpt lat="45.080473036684374" lon="9.9641523285552"><ele>38.2</ele><time>2026-04-26T05:45:43.998Z</time></trkpt><trkpt lat="45.08037956333569" lon="9.964171140744428"><ele>37.800000000000004</ele><time>2026-04-26T05:45:44.998Z</time></trkpt><trkpt lat="45.0802865385479" lon="9.964187591748916"><ele>37.4</ele><time>2026-04-26T05:45:45.998Z</time></trkpt><trkpt lat="45.080194151812215" lon="9.964192661942755"><ele>37.0</ele><time>2026-04-26T05:45:46.998Z</time></trkpt><trkpt lat="45.08010180475308" lon="9.964181771002954"><ele>37.0</ele><time>2026-04-26T05:45:47.998Z</time></trkpt><trkpt lat="45.080009508100254" lon="9.964162315816866"><ele>37.0</ele><time>2026-04-26T05:45:48.998Z</time></trkpt><trkpt lat="45.079922357766215" lon="9.964126400288995"><ele>37.0</ele><time>2026-04-26T05:45:49.998Z</time></trkpt><trkpt lat="45.079836544907316" lon="9.964081259697304"><ele>37.0</ele><time>2026-04-26T05:45:50.998Z</time></trkpt><trkpt lat="45.079754230847335" lon="9.96402450208814"><ele>37.0</ele><time>2026-04-26T05:45:52Z</time></trkpt><trkpt lat="45.079678675856144" lon="9.9639570317207"><ele>36.833333333333336</ele><time>2026-04-26T05:45:53Z</time></trkpt><trkpt lat="45.079604737443745" lon="9.963887265866386"><ele>36.66666666666667</ele><time>2026-04-26T05:45:54Z</time></trkpt><trkpt lat="45.07953319605553" lon="9.963815785649427"><ele>36.5</ele><time>2026-04-26T05:45:55Z</time></trkpt><trkpt lat="45.079460736506206" lon="9.9637465857651"><ele>36.333333333333336</ele><time>2026-04-26T05:45:56Z</time></trkpt><trkpt lat="45.07938616455037" lon="9.963676272215233"><ele>36.166666666666664</ele><time>2026-04-26T05:45:57Z</time></trkpt><trkpt lat="45.0793128476364" lon="9.963605629813578"><ele>36.0</ele><time>2026-04-26T05:45:58Z</time></trkpt><trkpt lat="45.079243379155145" lon="9.963533035103596"><ele>36.0</ele><time>2026-04-26T05:45:59Z</time></trkpt><trkpt lat="45.07917161553267" lon="9.963461628810384"><ele>36.0</ele><time>2026-04-26T05:46:00Z</time></trkpt><trkpt lat="45.07909898323341" lon="9.963391673723129"><ele>36.0</ele><time>2026-04-26T05:46:01Z</time></trkpt><trkpt lat="45.07902683220189" lon="9.963323321940548"><ele>36.0</ele><time>2026-04-26T05:46:02Z</time></trkpt><trkpt lat="45.078953870572896" lon="9.963253505497876"><ele>36.0</ele><time>2026-04-26T05:46:03Z</time></trkpt><trkpt lat="45.078880379375654" lon="9.963183456086734"><ele>36.0</ele><time>2026-04-26T05:46:04Z</time></trkpt><trkpt lat="45.07880526236573" lon="9.96311479609247"><ele>36.0</ele><time>2026-04-26T05:46:05Z</time></trkpt><trkpt lat="45.07872765788648" lon="9.963050405656277"><ele>36.0</ele><time>2026-04-26T05:46:06Z</time></trkpt><trkpt lat="45.07864623531243" lon="9.962992720051577"><ele>36.0</ele><time>2026-04-26T05:46:07Z</time></trkpt><trkpt lat="45.078563916477535" lon="9.96294229931794"><ele>36.0</ele><time>2026-04-26T05:46:08Z</time></trkpt><trkpt lat="45.078480258072354" lon="9.962897019185737"><ele>36.0</ele><time>2026-04-26T05:46:09Z</time></trkpt><trkpt lat="45.0783946702172" lon="9.962857314834531"><ele>36.0</ele><time>2026-04-26T05:46:10Z</time></trkpt><trkpt lat="45.07830989221485" lon="9.962818818886607"><ele>36.0</ele><time>2026-04-26T05:46:11Z</time></trkpt><trkpt lat="45.078224433434215" lon="9.962784925872908"><ele>36.0</ele><time>2026-04-26T05:46:12Z</time></trkpt><trkpt lat="45.07814087846009" lon="9.962750038429784"><ele>36.0</ele><time>2026-04-26T05:46:13Z</time></trkpt><trkpt lat="45.07805746693037" lon="9.962715099053172"><ele>36.0</ele><time>2026-04-26T05:46:14Z</time></trkpt><trkpt lat="45.077976156726145" lon="9.962682452224607"><ele>36.0</ele><time>2026-04-26T05:46:15Z</time></trkpt><trkpt lat="45.07789560857129" lon="9.962649754042772"><ele>36.166666666666664</ele><time>2026-04-26T05:46:16Z</time></trkpt><trkpt lat="45.077814481814336" lon="9.96261302625283"><ele>36.333333333333336</ele><time>2026-04-26T05:46:17Z</time></trkpt><trkpt lat="45.077732193983714" lon="9.962578173615567"><ele>36.5</ele><time>2026-04-26T05:46:18Z</time></trkpt><trkpt lat="45.07764988600554" lon="9.96254510246364"><ele>36.66666666666667</ele><time>2026-04-26T05:46:19Z</time></trkpt><trkpt lat="45.07756685572255" lon="9.962509922355872"><ele>36.833333333333336</ele><time>2026-04-26T05:46:20Z</time></trkpt><trkpt lat="45.077485762588445" lon="9.962476559778803"><ele>37.0</ele><time>2026-04-26T05:46:21Z</time></trkpt><trkpt lat="45.077405359041805" lon="9.962442152544261"><ele>37.16666666666667</ele><time>2026-04-26T05:46:22Z</time></trkpt><trkpt lat="45.077324660597114" lon="9.96240640129186"><ele>37.333333333333336</ele><time>2026-04-26T05:46:23Z</time></trkpt><trkpt lat="45.07724530550583" lon="9.962372647155352"><ele>37.5</ele><time>2026-04-26T05:46:24Z</time></trkpt><trkpt lat="45.0771634828837" lon="9.962336828937955"><ele>37.666666666666664</ele><time>2026-04-26T05:46:25Z</time></trkpt><trkpt lat="45.07708182791517" lon="9.962300200180664"><ele>37.83333333333333</ele><time>2026-04-26T05:46:26Z</time></trkpt><trkpt lat="45.07700155055688" lon="9.962261975163837"><ele>38.0</ele><time>2026-04-26T05:46:27Z</time></trkpt><trkpt lat="45.07692057233942" lon="9.962221135436081"><ele>38.0</ele><time>2026-04-26T05:46:28Z</time></trkpt><trkpt lat="45.07684123210528" lon="9.962175088324626"><ele>38.0</ele><time>2026-04-26T05:46:29Z</time></trkpt><trkpt lat="45.076762784221806" lon="9.962126873499813"><ele>38.0</ele><time>2026-04-26T05:46:30Z</time></trkpt><trkpt lat="45.076686287761284" lon="9.962075445114564"><ele>38.0</ele><time>2026-04-26T05:46:31Z</time></trkpt><trkpt lat="45.07661061822427" lon="9.962021521335915"><ele>38.0</ele><time>2026-04-26T05:46:32Z</time></trkpt><trkpt lat="45.07653734691702" lon="9.961963203589818"><ele>38.0</ele><time>2026-04-26T05:46:33Z</time></trkpt><trkpt lat="45.07646585972328" lon="9.961903044248377"><ele>38.0</ele><time>2026-04-26T05:46:34Z</time></trkpt><trkpt lat="45.07639620509508" lon="9.961839847168934"><ele>38.0</ele><time>2026-04-26T05:46:35Z</time></trkpt><trkpt lat="45.076325309617694" lon="9.961776494535687"><ele>38.0</ele><time>2026-04-26T05:46:36Z</time></trkpt><trkpt lat="45.07625498953995" lon="9.961711779554399"><ele>38.0</ele><time>2026-04-26T05:46:37Z</time></trkpt><trkpt lat="45.076188089616345" lon="9.961642749015226"><ele>38.0</ele><time>2026-04-26T05:46:38Z</time></trkpt><trkpt lat="45.076121992584014" lon="9.96156311269671"><ele>38.0</ele><time>2026-04-26T05:46:39Z</time></trkpt><trkpt lat="45.076059179359895" lon="9.961478356944843"><ele>38.0</ele><time>2026-04-26T05:46:40Z</time></trkpt><trkpt lat="45.07599833153196" lon="9.961391683178427"><ele>38.0</ele><time>2026-04-26T05:46:41Z</time></trkpt><trkpt lat="45.075939457486704" lon="9.961303785605898"><ele>38.0</ele><time>2026-04-26T05:46:42Z</time></trkpt><trkpt lat="45.07587964629857" lon="9.961214543167682"><ele>38.0</ele><time>2026-04-26T05:46:43Z</time></trkpt><trkpt lat="45.07582619425567" lon="9.961121482713803"><ele>38.0</ele><time>2026-04-26T05:46:44Z</time></trkpt><trkpt lat="45.07577251415454" lon="9.961027284392584"><ele>38.0</ele><time>2026-04-26T05:46:45Z</time></trkpt><trkpt lat="45.07571942216136" lon="9.960935632428441"><ele>38.166666666666664</ele><time>2026-04-26T05:46:45.999Z</time></trkpt><trkpt lat="45.075666942982245" lon="9.960844553893967"><ele>38.33333333333333</ele><time>2026-04-26T05:46:46.999Z</time></trkpt><trkpt lat="45.07561762178141" lon="9.960750074100304"><ele>38.5</ele><time>2026-04-26T05:46:47.999Z</time></trkpt><trkpt lat="45.07556604383551" lon="9.960653904815029"><ele>38.666666666666664</ele><time>2026-04-26T05:46:48.999Z</time></trkpt><trkpt lat="45.07551590170143" lon="9.960559992995792"><ele>38.833333333333336</ele><time>2026-04-26T05:46:49.999Z</time></trkpt><trkpt lat="45.07546509734973" lon="9.960466871466906"><ele>39.0</ele><time>2026-04-26T05:46:50.999Z</time></trkpt><trkpt lat="45.07541676552435" lon="9.960371844458821"><ele>39.0</ele><time>2026-04-26T05:46:51.999Z</time></trkpt><trkpt lat="45.075369827653006" lon="9.960276379498278"><ele>39.0</ele><time>2026-04-26T05:46:52.999Z</time></trkpt><trkpt lat="45.07532216406151" lon="9.960179488975756"><ele>39.0</ele><time>2026-04-26T05:46:53.999Z</time></trkpt><trkpt lat="45.075279849786476" lon="9.960078806368537"><ele>39.0</ele><time>2026-04-26T05:46:54.999Z</time></trkpt><trkpt lat="45.075236333633015" lon="9.95997786038103"><ele>39.0</ele><time>2026-04-26T05:46:55.999Z</time></trkpt><trkpt lat="45.075196552110654" lon="9.959874500742155"><ele>39.0</ele><time>2026-04-26T05:46:56.999Z</time></trkpt><trkpt lat="45.07515779615583" lon="9.959771758713368"><ele>39.0</ele><time>2026-04-26T05:46:57.999Z</time></trkpt><trkpt lat="45.075119701698185" lon="9.959670401108605"><ele>39.0</ele><time>2026-04-26T05:46:58.999Z</time></trkpt><trkpt lat="45.07508081258176" lon="9.959566058510575"><ele>39.0</ele><time>2026-04-26T05:46:59.999Z</time></trkpt><trkpt lat="45.07504284297977" lon="9.959460702582591"><ele>39.0</ele><time>2026-04-26T05:47:00.999Z</time></trkpt><trkpt lat="45.07500548283219" lon="9.959354115154307"><ele>39.0</ele><time>2026-04-26T05:47:01.999Z</time></trkpt><trkpt lat="45.074966721742726" lon="9.959246493906047"><ele>39.0</ele><time>2026-04-26T05:47:02.999Z</time></trkpt><trkpt lat="45.07492624809295" lon="9.959143283143362"><ele>38.833333333333336</ele><time>2026-04-26T05:47:03.999Z</time></trkpt><trkpt lat="45.07488966107807" lon="9.959036371977254"><ele>38.666666666666664</ele><time>2026-04-26T05:47:04.999Z</time></trkpt><trkpt lat="45.07484930638251" lon="9.958933000917156"><ele>38.5</ele><time>2026-04-26T05:47:05.999Z</time></trkpt><trkpt lat="45.0748128210213" lon="9.958830774946431"><ele>38.33333333333333</ele><time>2026-04-26T05:47:06.999Z</time></trkpt><trkpt lat="45.0747746694641" lon="9.958725803710825"><ele>38.166666666666664</ele><time>2026-04-26T05:47:07.999Z</time></trkpt><trkpt lat="45.07473269918826" lon="9.95862534852807"><ele>38.0</ele><time>2026-04-26T05:47:08.999Z</time></trkpt><trkpt lat="45.07468586236373" lon="9.958529228952134"><ele>38.0</ele><time>2026-04-26T05:47:09.999Z</time></trkpt><trkpt lat="45.07464517654913" lon="9.958426680927397"><ele>38.0</ele><time>2026-04-26T05:47:10.999Z</time></trkpt><trkpt lat="45.07460151008086" lon="9.95832648113326"><ele>38.0</ele><time>2026-04-26T05:47:11.999Z</time></trkpt><trkpt lat="45.07455563158204" lon="9.958227032242252"><ele>38.0</ele><time>2026-04-26T05:47:12.999Z</time></trkpt><trkpt lat="45.074510421967524" lon="9.95812938592264"><ele>38.0</ele><time>2026-04-26T05:47:13.999Z</time></trkpt><trkpt lat="45.07446205780261" lon="9.958032666902495"><ele>38.0</ele><time>2026-04-26T05:47:14.999Z</time></trkpt><trkpt lat="45.074413286502995" lon="9.957937809960088"><ele>38.0</ele><time>2026-04-26T05:47:15.999Z</time></trkpt><trkpt lat="45.074362211200516" lon="9.957845225164304"><ele>38.0</ele><time>2026-04-26T05:47:16.999Z</time></trkpt><trkpt lat="45.07430798970599" lon="9.957751676276555"><ele>38.0</ele><time>2026-04-26T05:47:17.999Z</time></trkpt><trkpt lat="45.07425124274707" lon="9.957666831055336"><ele>38.0</ele><time>2026-04-26T05:47:18.999Z</time></trkpt><trkpt lat="45.0741913630089" lon="9.957586838158583"><ele>38.0</ele><time>2026-04-26T05:47:19.999Z</time></trkpt><trkpt lat="45.074129712110924" lon="9.957506891217486"><ele>38.0</ele><time>2026-04-26T05:47:20.999Z</time></trkpt><trkpt lat="45.07406567659924" lon="9.957429117278085"><ele>37.666666666666664</ele><time>2026-04-26T05:47:21.999Z</time></trkpt><trkpt lat="45.0740000939554" lon="9.957351992832958"><ele>37.33333333333333</ele><time>2026-04-26T05:47:22.999Z</time></trkpt><trkpt lat="45.07393344729789" lon="9.95727481577842"><ele>37.0</ele><time>2026-04-26T05:47:23.999Z</time></trkpt><trkpt lat="45.07386632354394" lon="9.957202361353994"><ele>36.666666666666664</ele><time>2026-04-26T05:47:24.999Z</time></trkpt><trkpt lat="45.07379682031628" lon="9.957129537552419"><ele>36.333333333333336</ele><time>2026-04-26T05:47:25.999Z</time></trkpt><trkpt lat="45.07373197048941" lon="9.957054202374824"><ele>36.0</ele><time>2026-04-26T05:47:26.999Z</time></trkpt><trkpt lat="45.07366666932946" lon="9.956980667220506"><ele>36.0</ele><time>2026-04-26T05:47:27.999Z</time></trkpt><trkpt lat="45.07360202990063" lon="9.956906163254816"><ele>36.0</ele><time>2026-04-26T05:47:28.999Z</time></trkpt><trkpt lat="45.073537111310635" lon="9.956832900771937"><ele>36.0</ele><time>2026-04-26T05:47:29.999Z</time></trkpt><trkpt lat="45.07347240119618" lon="9.956756631637266"><ele>36.0</ele><time>2026-04-26T05:47:30.999Z</time></trkpt><trkpt lat="45.07340561171931" lon="9.956684191437994"><ele>36.0</ele><time>2026-04-26T05:47:31.999Z</time></trkpt><trkpt lat="45.07333777345494" lon="9.95661697730312"><ele>36.0</ele><time>2026-04-26T05:47:32.999Z</time></trkpt><trkpt lat="45.073271071132794" lon="9.956545857582393"><ele>35.833333333333336</ele><time>2026-04-26T05:47:33.999Z</time></trkpt><trkpt lat="45.07320728327813" lon="9.956466710559816"><ele>35.666666666666664</ele><time>2026-04-26T05:47:34.999Z</time></trkpt><trkpt lat="45.073144096980215" lon="9.956391649146713"><ele>35.5</ele><time>2026-04-26T05:47:35.999Z</time></trkpt><trkpt lat="45.07307956614317" lon="9.956318868714172"><ele>35.33333333333333</ele><time>2026-04-26T05:47:36.999Z</time></trkpt><trkpt lat="45.073013745678814" lon="9.956242587440498"><ele>35.166666666666664</ele><time>2026-04-26T05:47:37.999Z</time></trkpt><trkpt lat="45.072949733156506" lon="9.956170262473076"><ele>35.0</ele><time>2026-04-26T05:47:38.999Z</time></trkpt><trkpt lat="45.07288594653242" lon="9.956092964238207"><ele>35.0</ele><time>2026-04-26T05:47:39.999Z</time></trkpt><trkpt lat="45.07282224719779" lon="9.956016411051927"><ele>35.0</ele><time>2026-04-26T05:47:40.998Z</time></trkpt><trkpt lat="45.072759961793786" lon="9.955937400647299"><ele>35.0</ele><time>2026-04-26T05:47:41.998Z</time></trkpt><trkpt lat="45.0726984308851" lon="9.95585756974273"><ele>35.0</ele><time>2026-04-26T05:47:42.998Z</time></trkpt><trkpt lat="45.0726339184973" lon="9.955783468508926"><ele>35.0</ele><time>2026-04-26T05:47:43.998Z</time></trkpt><trkpt lat="45.07256986795565" lon="9.955713689880007"><ele>35.0</ele><time>2026-04-26T05:47:44.998Z</time></trkpt><trkpt lat="45.07250651727013" lon="9.955641286128877"><ele>35.0</ele><time>2026-04-26T05:47:45.998Z</time></trkpt><trkpt lat="45.0724443681792" lon="9.955567197308053"><ele>35.0</ele><time>2026-04-26T05:47:46.998Z</time></trkpt><trkpt lat="45.0723813854597" lon="9.95548853574082"><ele>35.0</ele><time>2026-04-26T05:47:47.998Z</time></trkpt><trkpt lat="45.0723203154265" lon="9.955413484167774"><ele>35.0</ele><time>2026-04-26T05:47:48.998Z</time></trkpt><trkpt lat="45.07225579513593" lon="9.955338906102352"><ele>35.0</ele><time>2026-04-26T05:47:49.998Z</time></trkpt><trkpt lat="45.07219146804681" lon="9.955264788372121"><ele>35.0</ele><time>2026-04-26T05:47:50.998Z</time></trkpt><trkpt lat="45.07212864852104" lon="9.955189914798941"><ele>35.0</ele><time>2026-04-26T05:47:51.998Z</time></trkpt><trkpt lat="45.07206759546819" lon="9.955116672138"><ele>35.0</ele><time>2026-04-26T05:47:52.998Z</time></trkpt><trkpt lat="45.07200491370795" lon="9.955042018123011"><ele>35.0</ele><time>2026-04-26T05:47:53.998Z</time></trkpt><trkpt lat="45.07194196556327" lon="9.954969047096757"><ele>35.0</ele><time>2026-04-26T05:47:54.998Z</time></trkpt><trkpt lat="45.07187737746858" lon="9.954897523936015"><ele>35.0</ele><time>2026-04-26T05:47:55.998Z</time></trkpt><trkpt lat="45.07181529056627" lon="9.954822871290165"><ele>35.0</ele><time>2026-04-26T05:47:57Z</time></trkpt><trkpt lat="45.07175197186136" lon="9.954746175108944"><ele>34.83333333333333</ele><time>2026-04-26T05:47:58Z</time></trkpt><trkpt lat="45.07168750074493" lon="9.954671131798431"><ele>34.666666666666664</ele><time>2026-04-26T05:47:59Z</time></trkpt><trkpt lat="45.071624367790776" lon="9.954592454033508"><ele>34.5</ele><time>2026-04-26T05:48:00Z</time></trkpt><trkpt lat="45.071561617824166" lon="9.954515908820364"><ele>34.333333333333336</ele><time>2026-04-26T05:48:01Z</time></trkpt><trkpt lat="45.07149756820741" lon="9.954441882308931"><ele>34.16666666666667</ele><time>2026-04-26T05:48:02Z</time></trkpt><trkpt lat="45.071432479131516" lon="9.954367957900063"><ele>34.0</ele><time>2026-04-26T05:48:03Z</time></trkpt><trkpt lat="45.0713668818416" lon="9.954295652695764"><ele>34.5</ele><time>2026-04-26T05:48:04Z</time></trkpt><trkpt lat="45.07130279847412" lon="9.95422221951781"><ele>35.0</ele><time>2026-04-26T05:48:05Z</time></trkpt><trkpt lat="45.07124038662929" lon="9.9541455109086"><ele>35.5</ele><time>2026-04-26T05:48:06Z</time></trkpt><trkpt lat="45.07117909509462" lon="9.954071178604908"><ele>36.0</ele><time>2026-04-26T05:48:07Z</time></trkpt><trkpt lat="45.071115343241374" lon="9.953997990946702"><ele>36.5</ele><time>2026-04-26T05:48:08Z</time></trkpt><trkpt lat="45.071051181069045" lon="9.953925619998333"><ele>37.0</ele><time>2026-04-26T05:48:09Z</time></trkpt><trkpt lat="45.07098794929582" lon="9.953851725925082"><ele>37.16666666666667</ele><time>2026-04-26T05:48:10Z</time></trkpt><trkpt lat="45.07092568732149" lon="9.953776821957787"><ele>37.333333333333336</ele><time>2026-04-26T05:48:11Z</time></trkpt><trkpt lat="45.07086420495144" lon="9.953701115649931"><ele>37.5</ele><time>2026-04-26T05:48:12Z</time></trkpt><trkpt lat="45.07080255706956" lon="9.953628598881412"><ele>37.666666666666664</ele><time>2026-04-26T05:48:13Z</time></trkpt><trkpt lat="45.07073764161636" lon="9.953551706383646"><ele>37.83333333333333</ele><time>2026-04-26T05:48:14Z</time></trkpt><trkpt lat="45.07067308525749" lon="9.953473486521753"><ele>38.0</ele><time>2026-04-26T05:48:15Z</time></trkpt><trkpt lat="45.070611959190245" lon="9.953401115218998"><ele>37.83333333333333</ele><time>2026-04-26T05:48:16Z</time></trkpt><trkpt lat="45.070547972951424" lon="9.953327101582415"><ele>37.666666666666664</ele><time>2026-04-26T05:48:17Z</time></trkpt><trkpt lat="45.07048590172138" lon="9.953253436498343"><ele>37.5</ele><time>2026-04-26T05:48:18Z</time></trkpt><trkpt lat="45.07042246810099" lon="9.953182815053863"><ele>37.333333333333336</ele><time>2026-04-26T05:48:19Z</time></trkpt><trkpt lat="45.07035714203354" lon="9.953110460077514"><ele>37.16666666666667</ele><time>2026-04-26T05:48:20Z</time></trkpt><trkpt lat="45.07029258706552" lon="9.953036905582541"><ele>37.0</ele><time>2026-04-26T05:48:21Z</time></trkpt><trkpt lat="45.07023119993033" lon="9.952963338321323"><ele>37.0</ele><time>2026-04-26T05:48:22Z</time></trkpt><trkpt lat="45.07017058109969" lon="9.952889114051498"><ele>37.0</ele><time>2026-04-26T05:48:23Z</time></trkpt><trkpt lat="45.07010887957485" lon="9.952815044065538"><ele>37.0</ele><time>2026-04-26T05:48:24Z</time></trkpt><trkpt lat="45.07004595103692" lon="9.952740924287937"><ele>37.0</ele><time>2026-04-26T05:48:25Z</time></trkpt><trkpt lat="45.069985193023946" lon="9.95266939677851"><ele>37.0</ele><time>2026-04-26T05:48:26Z</time></trkpt><trkpt lat="45.069922084896035" lon="9.95259665338917"><ele>37.0</ele><time>2026-04-26T05:48:27Z</time></trkpt><trkpt lat="45.0698600323289" lon="9.952525295173858"><ele>37.0</ele><time>2026-04-26T05:48:28Z</time></trkpt><trkpt lat="45.06979820298812" lon="9.952450738587274"><ele>37.0</ele><time>2026-04-26T05:48:29Z</time></trkpt><trkpt lat="45.06973719403041" lon="9.952376696070893"><ele>37.0</ele><time>2026-04-26T05:48:30Z</time></trkpt><trkpt lat="45.06967561325985" lon="9.9523047923033"><ele>37.0</ele><time>2026-04-26T05:48:31Z</time></trkpt><trkpt lat="45.06961184384081" lon="9.95223060295961"><ele>37.0</ele><time>2026-04-26T05:48:32Z</time></trkpt><trkpt lat="45.06954863099025" lon="9.952156379987905"><ele>37.0</ele><time>2026-04-26T05:48:33Z</time></trkpt><trkpt lat="45.069486882599065" lon="9.952084777126116"><ele>37.0</ele><time>2026-04-26T05:48:34Z</time></trkpt><trkpt lat="45.06942521725385" lon="9.952012165456985"><ele>37.0</ele><time>2026-04-26T05:48:35Z</time></trkpt><trkpt lat="45.06936485510068" lon="9.951937199603371"><ele>37.0</ele><time>2026-04-26T05:48:36Z</time></trkpt><trkpt lat="45.069304161228665" lon="9.951863984162198"><ele>37.0</ele><time>2026-04-26T05:48:37Z</time></trkpt><trkpt lat="45.069242277706635" lon="9.951790453627655"><ele>37.0</ele><time>2026-04-26T05:48:38Z</time></trkpt><trkpt lat="45.06918122155735" lon="9.951716892650573"><ele>37.0</ele><time>2026-04-26T05:48:39Z</time></trkpt><trkpt lat="45.06911959372706" lon="9.951642767218956"><ele>36.5</ele><time>2026-04-26T05:48:40Z</time></trkpt><trkpt lat="45.069055788894715" lon="9.951569042586476"><ele>36.0</ele><time>2026-04-26T05:48:41Z</time></trkpt><trkpt lat="45.068992487034976" lon="9.951499600117765"><ele>35.5</ele><time>2026-04-26T05:48:42Z</time></trkpt><trkpt lat="45.068930914596" lon="9.95142844053173"><ele>35.0</ele><time>2026-04-26T05:48:43Z</time></trkpt><trkpt lat="45.06887203218229" lon="9.951354844127382"><ele>34.5</ele><time>2026-04-26T05:48:44Z</time></trkpt><trkpt lat="45.06880918090042" lon="9.951282348648213"><ele>34.0</ele><time>2026-04-26T05:48:45Z</time></trkpt><trkpt lat="45.06874691354493" lon="9.951209794254629"><ele>34.0</ele><time>2026-04-26T05:48:46Z</time></trkpt><trkpt lat="45.068683498815" lon="9.951136232889354"><ele>34.0</ele><time>2026-04-26T05:48:47Z</time></trkpt><trkpt lat="45.06862025292225" lon="9.951058888098938"><ele>34.0</ele><time>2026-04-26T05:48:48Z</time></trkpt><trkpt lat="45.06855973041601" lon="9.950985393795744"><ele>34.0</ele><time>2026-04-26T05:48:49Z</time></trkpt><trkpt lat="45.06849757416398" lon="9.950911268698915"><ele>34.0</ele><time>2026-04-26T05:48:49.999Z</time></trkpt><trkpt lat="45.06843446063666" lon="9.950835891080127"><ele>34.0</ele><time>2026-04-26T05:48:50.999Z</time></trkpt><trkpt lat="45.068370102678635" lon="9.950761092695508"><ele>34.0</ele><time>2026-04-26T05:48:51.999Z</time></trkpt><trkpt lat="45.06830357538618" lon="9.950686161579554"><ele>34.0</ele><time>2026-04-26T05:48:52.999Z</time></trkpt><trkpt lat="45.068237932271344" lon="9.950613546019875"><ele>34.0</ele><time>2026-04-26T05:48:53.999Z</time></trkpt><trkpt lat="45.068171220054126" lon="9.950548847975528"><ele>34.0</ele><time>2026-04-26T05:48:54.999Z</time></trkpt><trkpt lat="45.068102536585606" lon="9.950485013893111"><ele>34.0</ele><time>2026-04-26T05:48:55.999Z</time></trkpt><trkpt lat="45.06803427771299" lon="9.95042492015994"><ele>34.0</ele><time>2026-04-26T05:48:56.999Z</time></trkpt><trkpt lat="45.06796336764688" lon="9.950369161822472"><ele>34.333333333333336</ele><time>2026-04-26T05:48:57.999Z</time></trkpt><trkpt lat="45.0678921835645" lon="9.950311366576218"><ele>34.66666666666667</ele><time>2026-04-26T05:48:58.999Z</time></trkpt><trkpt lat="45.067822119385895" lon="9.950253072508369"><ele>35.0</ele><time>2026-04-26T05:48:59.999Z</time></trkpt><trkpt lat="45.06775299399604" lon="9.950197585106695"><ele>35.333333333333336</ele><time>2026-04-26T05:49:00.999Z</time></trkpt><trkpt lat="45.06767896579043" lon="9.950149386507608"><ele>35.666666666666664</ele><time>2026-04-26T05:49:01.999Z</time></trkpt><trkpt lat="45.06760340243008" lon="9.950102735715255"><ele>36.0</ele><time>2026-04-26T05:49:02.999Z</time></trkpt><trkpt lat="45.067528658282534" lon="9.95005591705273"><ele>35.833333333333336</ele><time>2026-04-26T05:49:03.999Z</time></trkpt><trkpt lat="45.06745395046417" lon="9.950007324416053"><ele>35.666666666666664</ele><time>2026-04-26T05:49:04.999Z</time></trkpt><trkpt lat="45.06737940427219" lon="9.949962351009539"><ele>35.5</ele><time>2026-04-26T05:49:05.999Z</time></trkpt><trkpt lat="45.06730349555709" lon="9.949916873677703"><ele>35.33333333333333</ele><time>2026-04-26T05:49:06.999Z</time></trkpt><trkpt lat="45.06722710404877" lon="9.949872130820342"><ele>35.166666666666664</ele><time>2026-04-26T05:49:07.999Z</time></trkpt><trkpt lat="45.06714961022496" lon="9.949823378244579"><ele>35.0</ele><time>2026-04-26T05:49:08.999Z</time></trkpt><trkpt lat="45.067074147778904" lon="9.94977315136207"><ele>35.666666666666664</ele><time>2026-04-26T05:49:09.999Z</time></trkpt><trkpt lat="45.06699942248202" lon="9.949725067406183"><ele>36.33333333333333</ele><time>2026-04-26T05:49:10.999Z</time></trkpt><trkpt lat="45.06692509254604" lon="9.949675102586246"><ele>37.0</ele><time>2026-04-26T05:49:11.999Z</time></trkpt><trkpt lat="45.06685184304425" lon="9.949627733417348"><ele>37.666666666666664</ele><time>2026-04-26T05:49:12.999Z</time></trkpt><trkpt lat="45.06677899517869" lon="9.949581844185632"><ele>38.333333333333336</ele><time>2026-04-26T05:49:13.999Z</time></trkpt><trkpt lat="45.06670547633" lon="9.949534740236"><ele>39.0</ele><time>2026-04-26T05:49:14.999Z</time></trkpt><trkpt lat="45.06663195872218" lon="9.949490735244831"><ele>39.0</ele><time>2026-04-26T05:49:15.999Z</time></trkpt><trkpt lat="45.06655708970297" lon="9.949443505836749"><ele>39.0</ele><time>2026-04-26T05:49:16.999Z</time></trkpt><trkpt lat="45.066483119708415" lon="9.949398324856103"><ele>39.0</ele><time>2026-04-26T05:49:17.999Z</time></trkpt><trkpt lat="45.06640814637312" lon="9.949356389382492"><ele>39.0</ele><time>2026-04-26T05:49:18.999Z</time></trkpt><trkpt lat="45.066333756704495" lon="9.949313090030282"><ele>39.0</ele><time>2026-04-26T05:49:19.999Z</time></trkpt><trkpt lat="45.06625758866825" lon="9.949272985917105"><ele>39.0</ele><time>2026-04-26T05:49:20.999Z</time></trkpt><trkpt lat="45.06618442596442" lon="9.94922959221082"><ele>39.166666666666664</ele><time>2026-04-26T05:49:21.999Z</time></trkpt><trkpt lat="45.0661109453862" lon="9.949189977947803"><ele>39.333333333333336</ele><time>2026-04-26T05:49:22.999Z</time></trkpt><trkpt lat="45.06603893446391" lon="9.949153578750224"><ele>39.5</ele><time>2026-04-26T05:49:23.999Z</time></trkpt><trkpt lat="45.065966983425646" lon="9.949112117366996"><ele>39.66666666666667</ele><time>2026-04-26T05:49:24.999Z</time></trkpt><trkpt lat="45.06589668012046" lon="9.949068658612669"><ele>39.833333333333336</ele><time>2026-04-26T05:49:25.999Z</time></trkpt><trkpt lat="45.06582293722355" lon="9.94902937857377"><ele>40.0</ele><time>2026-04-26T05:49:26.999Z</time></trkpt><trkpt lat="45.065749318960385" lon="9.948987078883162"><ele>40.0</ele><time>2026-04-26T05:49:27.999Z</time></trkpt><trkpt lat="45.06567438007391" lon="9.948948322529121"><ele>40.0</ele><time>2026-04-26T05:49:28.999Z</time></trkpt><trkpt lat="45.06560290719796" lon="9.948908426061328"><ele>40.0</ele><time>2026-04-26T05:49:29.999Z</time></trkpt><trkpt lat="45.06552964582763" lon="9.948872186152288"><ele>40.0</ele><time>2026-04-26T05:49:30.999Z</time></trkpt><trkpt lat="45.06545430329353" lon="9.948833609094669"><ele>40.0</ele><time>2026-04-26T05:49:31.999Z</time></trkpt><trkpt lat="45.065379567232576" lon="9.948793238299443"><ele>40.0</ele><time>2026-04-26T05:49:32.999Z</time></trkpt><trkpt lat="45.06530611134782" lon="9.948758606593767"><ele>40.0</ele><time>2026-04-26T05:49:33.999Z</time></trkpt><trkpt lat="45.065230329637345" lon="9.94872230843181"><ele>40.0</ele><time>2026-04-26T05:49:34.999Z</time></trkpt><trkpt lat="45.06515479494957" lon="9.9486847561155"><ele>40.0</ele><time>2026-04-26T05:49:35.999Z</time></trkpt><trkpt lat="45.065080458024745" lon="9.948647419495122"><ele>40.0</ele><time>2026-04-26T05:49:36.999Z</time></trkpt><trkpt lat="45.06500585311217" lon="9.948610895283641"><ele>40.0</ele><time>2026-04-26T05:49:37.999Z</time></trkpt><trkpt lat="45.06493173539097" lon="9.948574936045"><ele>40.0</ele><time>2026-04-26T05:49:38.999Z</time></trkpt><trkpt lat="45.06485649905266" lon="9.948539559252103"><ele>40.0</ele><time>2026-04-26T05:49:39.999Z</time></trkpt><trkpt lat="45.064783292499285" lon="9.948506169397145"><ele>40.0</ele><time>2026-04-26T05:49:40.999Z</time></trkpt><trkpt lat="45.06470858984334" lon="9.948473195334632"><ele>40.0</ele><time>2026-04-26T05:49:41.999Z</time></trkpt><trkpt lat="45.06463573639045" lon="9.94844086050928"><ele>40.0</ele><time>2026-04-26T05:49:42.999Z</time></trkpt><trkpt lat="45.06456284777156" lon="9.948406112889618"><ele>40.0</ele><time>2026-04-26T05:49:43.999Z</time></trkpt><trkpt lat="45.06449072964668" lon="9.948375408297094"><ele>40.0</ele><time>2026-04-26T05:49:44.998Z</time></trkpt><trkpt lat="45.064418456567765" lon="9.948340823732513"><ele>40.0</ele><time>2026-04-26T05:49:45.998Z</time></trkpt><trkpt lat="45.06434665328041" lon="9.948306639594918"><ele>40.0</ele><time>2026-04-26T05:49:46.998Z</time></trkpt><trkpt lat="45.06427635366489" lon="9.94827171768461"><ele>40.0</ele><time>2026-04-26T05:49:47.998Z</time></trkpt><trkpt lat="45.06420420792635" lon="9.948239513122488"><ele>40.0</ele><time>2026-04-26T05:49:48.998Z</time></trkpt><trkpt lat="45.06413080418115" lon="9.948210177168082"><ele>40.0</ele><time>2026-04-26T05:49:49.998Z</time></trkpt><trkpt lat="45.0640586354685" lon="9.948177253602392"><ele>40.0</ele><time>2026-04-26T05:49:50.998Z</time></trkpt><trkpt lat="45.06398687164187" lon="9.948143393696679"><ele>40.14285714285714</ele><time>2026-04-26T05:49:51.998Z</time></trkpt><trkpt lat="45.06391396448292" lon="9.948109855685388"><ele>40.285714285714285</ele><time>2026-04-26T05:49:52.998Z</time></trkpt><trkpt lat="45.063844232410624" lon="9.948075655585946"><ele>40.42857142857143</ele><time>2026-04-26T05:49:53.998Z</time></trkpt><trkpt lat="45.063772989024315" lon="9.948043113457363"><ele>40.57142857142857</ele><time>2026-04-26T05:49:54.998Z</time></trkpt><trkpt lat="45.06370277402595" lon="9.94801091867462"><ele>40.714285714285715</ele><time>2026-04-26T05:49:55.998Z</time></trkpt><trkpt lat="45.063631281965776" lon="9.94798118758943"><ele>40.857142857142854</ele><time>2026-04-26T05:49:56.998Z</time></trkpt><trkpt lat="45.063559560298145" lon="9.947951178381158"><ele>41.0</ele><time>2026-04-26T05:49:57.998Z</time></trkpt><trkpt lat="45.06348917056057" lon="9.94791932976268"><ele>41.0</ele><time>2026-04-26T05:49:58.998Z</time></trkpt><trkpt lat="45.06341672164938" lon="9.947884859564702"><ele>41.0</ele><time>2026-04-26T05:49:59.998Z</time></trkpt><trkpt lat="45.06334550782526" lon="9.947855894325262"><ele>41.0</ele><time>2026-04-26T05:50:00.998Z</time></trkpt><trkpt lat="45.06327405171337" lon="9.947825926803212"><ele>41.0</ele><time>2026-04-26T05:50:02Z</time></trkpt><trkpt lat="45.063201604606284" lon="9.947798586711265"><ele>41.0</ele><time>2026-04-26T05:50:03Z</time></trkpt><trkpt lat="45.063131045382534" lon="9.94777205443279"><ele>41.0</ele><time>2026-04-26T05:50:04Z</time></trkpt><trkpt lat="45.0630560046532" lon="9.947744418668579"><ele>41.0</ele><time>2026-04-26T05:50:05Z</time></trkpt><trkpt lat="45.062979292416735" lon="9.94771889231863"><ele>41.0</ele><time>2026-04-26T05:50:06Z</time></trkpt><trkpt lat="45.06290459174993" lon="9.947689553597742"><ele>41.0</ele><time>2026-04-26T05:50:07Z</time></trkpt><trkpt lat="45.062829899110874" lon="9.94766504133822"><ele>41.0</ele><time>2026-04-26T05:50:08Z</time></trkpt><trkpt lat="45.06275576592396" lon="9.947637487225713"><ele>41.0</ele><time>2026-04-26T05:50:09Z</time></trkpt><trkpt lat="45.06267791312878" lon="9.947610204890854"><ele>41.0</ele><time>2026-04-26T05:50:10Z</time></trkpt><trkpt lat="45.06260245077385" lon="9.947584156817994"><ele>41.0</ele><time>2026-04-26T05:50:11Z</time></trkpt><trkpt lat="45.062526606238094" lon="9.947555800393381"><ele>41.0</ele><time>2026-04-26T05:50:12Z</time></trkpt><trkpt lat="45.0624476897416" lon="9.947531651817632"><ele>41.0</ele><time>2026-04-26T05:50:13Z</time></trkpt><trkpt lat="45.062369648965166" lon="9.947506762914188"><ele>41.0</ele><time>2026-04-26T05:50:14Z</time></trkpt><trkpt lat="45.06228986971411" lon="9.947478936991937"><ele>41.0</ele><time>2026-04-26T05:50:15Z</time></trkpt><trkpt lat="45.06220926348525" lon="9.947445121064987"><ele>41.0</ele><time>2026-04-26T05:50:16Z</time></trkpt><trkpt lat="45.062130708038445" lon="9.947411991768444"><ele>40.33333333333333</ele><time>2026-04-26T05:50:17Z</time></trkpt><trkpt lat="45.06204829591891" lon="9.94737537736909"><ele>39.666666666666664</ele><time>2026-04-26T05:50:18Z</time></trkpt><trkpt lat="45.0619669734285" lon="9.947342339182782"><ele>39.0</ele><time>2026-04-26T05:50:19Z</time></trkpt><trkpt lat="45.06188419448791" lon="9.947304347438676"><ele>38.333333333333336</ele><time>2026-04-26T05:50:20Z</time></trkpt><trkpt lat="45.061800399677274" lon="9.947268040836072"><ele>37.66666666666667</ele><time>2026-04-26T05:50:21Z</time></trkpt><trkpt lat="45.06171825251815" lon="9.947228055025892"><ele>37.0</ele><time>2026-04-26T05:50:22Z</time></trkpt><trkpt lat="45.061634505618564" lon="9.947188412973407"><ele>36.833333333333336</ele><time>2026-04-26T05:50:23Z</time></trkpt><trkpt lat="45.061551047624505" lon="9.94714946822176"><ele>36.66666666666667</ele><time>2026-04-26T05:50:24Z</time></trkpt><trkpt lat="45.061468049284535" lon="9.947111070080489"><ele>36.5</ele><time>2026-04-26T05:50:25Z</time></trkpt><trkpt lat="45.06138445003995" lon="9.947068227203713"><ele>36.333333333333336</ele><time>2026-04-26T05:50:26Z</time></trkpt><trkpt lat="45.06130187819264" lon="9.94702374021202"><ele>36.166666666666664</ele><time>2026-04-26T05:50:27Z</time></trkpt><trkpt lat="45.061217380074105" lon="9.94698617389605"><ele>36.0</ele><time>2026-04-26T05:50:28Z</time></trkpt><trkpt lat="45.06113398538328" lon="9.94694516197216"><ele>36.0</ele><time>2026-04-26T05:50:29Z</time></trkpt><trkpt lat="45.06104985290553" lon="9.946904893976596"><ele>36.0</ele><time>2026-04-26T05:50:30Z</time></trkpt><trkpt lat="45.06096579544847" lon="9.946862014844433"><ele>36.0</ele><time>2026-04-26T05:50:31Z</time></trkpt><trkpt lat="45.06088137839285" lon="9.946824713738849"><ele>36.0</ele><time>2026-04-26T05:50:32Z</time></trkpt><trkpt lat="45.06079836243862" lon="9.946783612997937"><ele>36.0</ele><time>2026-04-26T05:50:33Z</time></trkpt><trkpt lat="45.060715051569666" lon="9.946742793510685"><ele>36.0</ele><time>2026-04-26T05:50:34Z</time></trkpt><trkpt lat="45.06063143851944" lon="9.946703132074484"><ele>36.0</ele><time>2026-04-26T05:50:35Z</time></trkpt><trkpt lat="45.06054697811018" lon="9.946667421100964"><ele>36.0</ele><time>2026-04-26T05:50:36Z</time></trkpt><trkpt lat="45.060462847546276" lon="9.94662929433942"><ele>36.0</ele><time>2026-04-26T05:50:37Z</time></trkpt><trkpt lat="45.06037659560715" lon="9.946589527445001"><ele>36.0</ele><time>2026-04-26T05:50:38Z</time></trkpt><trkpt lat="45.0602918489602" lon="9.946550717689469"><ele>36.0</ele><time>2026-04-26T05:50:39Z</time></trkpt><trkpt lat="45.060206018268445" lon="9.946513461867081"><ele>36.0</ele><time>2026-04-26T05:50:40Z</time></trkpt><trkpt lat="45.060121065576716" lon="9.94647764290274"><ele>36.0</ele><time>2026-04-26T05:50:41Z</time></trkpt><trkpt lat="45.060035321011256" lon="9.946446239632708"><ele>36.0</ele><time>2026-04-26T05:50:42Z</time></trkpt><trkpt lat="45.059948772590225" lon="9.946414856386069"><ele>36.0</ele><time>2026-04-26T05:50:43Z</time></trkpt><trkpt lat="45.05986126876165" lon="9.946383270798759"><ele>36.0</ele><time>2026-04-26T05:50:44Z</time></trkpt><trkpt lat="45.05977223240907" lon="9.946354043095043"><ele>36.0</ele><time>2026-04-26T05:50:45Z</time></trkpt><trkpt lat="45.05968106719466" lon="9.94632565666718"><ele>36.2</ele><time>2026-04-26T05:50:46Z</time></trkpt><trkpt lat="45.05959063582273" lon="9.946298353158612"><ele>36.400000000000006</ele><time>2026-04-26T05:50:47Z</time></trkpt><trkpt lat="45.05949961614686" lon="9.94627170571421"><ele>36.6</ele><time>2026-04-26T05:50:48Z</time></trkpt><trkpt lat="45.05940836113972" lon="9.94625183128974"><ele>36.800000000000004</ele><time>2026-04-26T05:50:49Z</time></trkpt><trkpt lat="45.05931687737007" lon="9.946231509638652"><ele>37.0</ele><time>2026-04-26T05:50:50Z</time></trkpt><trkpt lat="45.0592263106544" lon="9.946211687394372"><ele>37.0</ele><time>2026-04-26T05:50:51Z</time></trkpt><trkpt lat="45.059134931404955" lon="9.946193324947044"><ele>37.0</ele><time>2026-04-26T05:50:52Z</time></trkpt><trkpt lat="45.05904476446753" lon="9.946179729651414"><ele>37.0</ele><time>2026-04-26T05:50:52.999Z</time></trkpt><trkpt lat="45.0589554122701" lon="9.946163506236646"><ele>37.0</ele><time>2026-04-26T05:50:53.999Z</time></trkpt><trkpt lat="45.0588659161058" lon="9.946149588249813"><ele>37.0</ele><time>2026-04-26T05:50:54.999Z</time></trkpt><trkpt lat="45.058775674329524" lon="9.946138792918756"><ele>37.0</ele><time>2026-04-26T05:50:55.999Z</time></trkpt><trkpt lat="45.05868500783457" lon="9.946130029336109"><ele>37.0</ele><time>2026-04-26T05:50:56.999Z</time></trkpt><trkpt lat="45.05859738682108" lon="9.946122082296565"><ele>37.0</ele><time>2026-04-26T05:50:57.999Z</time></trkpt><trkpt lat="45.05850969146882" lon="9.946116742131915"><ele>37.0</ele><time>2026-04-26T05:50:58.999Z</time></trkpt><trkpt lat="45.05842130791039" lon="9.946114078122285"><ele>37.0</ele><time>2026-04-26T05:50:59.999Z</time></trkpt><trkpt lat="45.05833604020699" lon="9.946113504511624"><ele>37.0</ele><time>2026-04-26T05:51:00.999Z</time></trkpt><trkpt lat="45.058248253740274" lon="9.946112648320673"><ele>36.833333333333336</ele><time>2026-04-26T05:51:01.999Z</time></trkpt><trkpt lat="45.05815912998959" lon="9.946113637715696"><ele>36.66666666666667</ele><time>2026-04-26T05:51:02.999Z</time></trkpt><trkpt lat="45.05807204686592" lon="9.946118238416654"><ele>36.5</ele><time>2026-04-26T05:51:03.999Z</time></trkpt><trkpt lat="45.0579858433135" lon="9.9461241375205"><ele>36.333333333333336</ele><time>2026-04-26T05:51:04.999Z</time></trkpt><trkpt lat="45.05790201899451" lon="9.946127963314105"><ele>36.166666666666664</ele><time>2026-04-26T05:51:05.999Z</time></trkpt><trkpt lat="45.05781531980045" lon="9.946131735684078"><ele>36.0</ele><time>2026-04-26T05:51:06.999Z</time></trkpt><trkpt lat="45.05772918729217" lon="9.946134370244685"><ele>36.0</ele><time>2026-04-26T05:51:07.999Z</time></trkpt><trkpt lat="45.057643741739156" lon="9.946135463558203"><ele>36.0</ele><time>2026-04-26T05:51:08.999Z</time></trkpt><trkpt lat="45.0575593333739" lon="9.946143077198856"><ele>36.0</ele><time>2026-04-26T05:51:09.999Z</time></trkpt><trkpt lat="45.057473658836784" lon="9.946148275807476"><ele>36.0</ele><time>2026-04-26T05:51:10.999Z</time></trkpt><trkpt lat="45.05738883612647" lon="9.946153245432404"><ele>36.0</ele><time>2026-04-26T05:51:11.999Z</time></trkpt><trkpt lat="45.0573046562818" lon="9.946157835782108"><ele>36.0</ele><time>2026-04-26T05:51:12.999Z</time></trkpt><trkpt lat="45.05722141555652" lon="9.946161762672448"><ele>36.0</ele><time>2026-04-26T05:51:13.999Z</time></trkpt><trkpt lat="45.0571379176895" lon="9.946165137307709"><ele>36.0</ele><time>2026-04-26T05:51:14.999Z</time></trkpt><trkpt lat="45.05705448934624" lon="9.94616503681747"><ele>36.0</ele><time>2026-04-26T05:51:15.999Z</time></trkpt><trkpt lat="45.05697218453065" lon="9.946165790547212"><ele>36.0</ele><time>2026-04-26T05:51:16.999Z</time></trkpt><trkpt lat="45.0568911342042" lon="9.946165762878511"><ele>36.0</ele><time>2026-04-26T05:51:17.999Z</time></trkpt><trkpt lat="45.056809020622" lon="9.946161323737744"><ele>36.0</ele><time>2026-04-26T05:51:18.999Z</time></trkpt><trkpt lat="45.0567278708716" lon="9.946154851783314"><ele>36.0</ele><time>2026-04-26T05:51:19.999Z</time></trkpt><trkpt lat="45.05664840947882" lon="9.946145638853416"><ele>36.0</ele><time>2026-04-26T05:51:20.999Z</time></trkpt><trkpt lat="45.05657078706113" lon="9.94613646617358"><ele>36.0</ele><time>2026-04-26T05:51:21.999Z</time></trkpt><trkpt lat="45.05649334240926" lon="9.94612555681514"><ele>36.0</ele><time>2026-04-26T05:51:22.999Z</time></trkpt><trkpt lat="45.056419977363284" lon="9.94611134687237"><ele>36.0</ele><time>2026-04-26T05:51:23.999Z</time></trkpt><trkpt lat="45.056342467448616" lon="9.946095089152237"><ele>36.0</ele><time>2026-04-26T05:51:24.999Z</time></trkpt><trkpt lat="45.05626647267377" lon="9.946076214272395"><ele>36.333333333333336</ele><time>2026-04-26T05:51:25.999Z</time></trkpt><trkpt lat="45.0561891225445" lon="9.946055502126255"><ele>36.666666666666664</ele><time>2026-04-26T05:51:26.999Z</time></trkpt><trkpt lat="45.05611328589652" lon="9.946032865806734"><ele>37.0</ele><time>2026-04-26T05:51:27.999Z</time></trkpt><trkpt lat="45.05603647387633" lon="9.946009590382763"><ele>37.33333333333333</ele><time>2026-04-26T05:51:28.999Z</time></trkpt><trkpt lat="45.0559641883223" lon="9.945981473886896"><ele>37.666666666666664</ele><time>2026-04-26T05:51:29.999Z</time></trkpt><trkpt lat="45.05588850720065" lon="9.945951902541589"><ele>38.0</ele><time>2026-04-26T05:51:30.999Z</time></trkpt><trkpt lat="45.05581712194997" lon="9.94592592243153"><ele>38.0</ele><time>2026-04-26T05:51:31.999Z</time></trkpt><trkpt lat="45.055741235349544" lon="9.945897236253176"><ele>38.0</ele><time>2026-04-26T05:51:32.999Z</time></trkpt><trkpt lat="45.05566136650765" lon="9.945860727133834"><ele>38.0</ele><time>2026-04-26T05:51:33.999Z</time></trkpt><trkpt lat="45.055588064639764" lon="9.945825673014484"><ele>38.0</ele><time>2026-04-26T05:51:34.999Z</time></trkpt><trkpt lat="45.05551133746213" lon="9.945783938376765"><ele>38.0</ele><time>2026-04-26T05:51:35.999Z</time></trkpt><trkpt lat="45.055429163775564" lon="9.945740223966634"><ele>38.0</ele><time>2026-04-26T05:51:36.999Z</time></trkpt><trkpt lat="45.055348908335205" lon="9.945697605996331"><ele>38.0</ele><time>2026-04-26T05:51:37.999Z</time></trkpt><trkpt lat="45.055266690943554" lon="9.945655029412958"><ele>38.0</ele><time>2026-04-26T05:51:38.999Z</time></trkpt><trkpt lat="45.05518522593183" lon="9.945610669463003"><ele>38.0</ele><time>2026-04-26T05:51:39.999Z</time></trkpt><trkpt lat="45.0551045102004" lon="9.945565352339601"><ele>38.0</ele><time>2026-04-26T05:51:40.999Z</time></trkpt><trkpt lat="45.05502393105632" lon="9.945520458591199"><ele>38.0</ele><time>2026-04-26T05:51:41.999Z</time></trkpt><trkpt lat="45.05494303206179" lon="9.945479303079786"><ele>38.0</ele><time>2026-04-26T05:51:42.999Z</time></trkpt><trkpt lat="45.054862214593555" lon="9.945434746781215"><ele>37.83333333333333</ele><time>2026-04-26T05:51:43.999Z</time></trkpt><trkpt lat="45.05478226980149" lon="9.945392487768201"><ele>37.666666666666664</ele><time>2026-04-26T05:51:44.999Z</time></trkpt><trkpt lat="45.054698412649174" lon="9.945349656877658"><ele>37.5</ele><time>2026-04-26T05:51:45.999Z</time></trkpt><trkpt lat="45.05461651081118" lon="9.945304795899348"><ele>37.333333333333336</ele><time>2026-04-26T05:51:46.999Z</time></trkpt><trkpt lat="45.05453483165214" lon="9.945258552900464"><ele>37.16666666666667</ele><time>2026-04-26T05:51:47.998Z</time></trkpt><trkpt lat="45.05445466704902" lon="9.945214086348933"><ele>37.0</ele><time>2026-04-26T05:51:48.998Z</time></trkpt><trkpt lat="45.054373434140054" lon="9.945167816657937"><ele>37.0</ele><time>2026-04-26T05:51:49.998Z</time></trkpt><trkpt lat="45.05429118763089" lon="9.945122737745258"><ele>37.0</ele><time>2026-04-26T05:51:50.998Z</time></trkpt><trkpt lat="45.05421040774295" lon="9.945077432530228"><ele>37.0</ele><time>2026-04-26T05:51:51.998Z</time></trkpt><trkpt lat="45.05412951005092" lon="9.945031893695106"><ele>37.0</ele><time>2026-04-26T05:51:52.998Z</time></trkpt><trkpt lat="45.05404770497052" lon="9.94498862016316"><ele>37.0</ele><time>2026-04-26T05:51:53.998Z</time></trkpt><trkpt lat="45.053965161776894" lon="9.944946647421633"><ele>37.0</ele><time>2026-04-26T05:51:54.998Z</time></trkpt><trkpt lat="45.05388420604586" lon="9.9449058331964"><ele>37.16666666666667</ele><time>2026-04-26T05:51:55.998Z</time></trkpt><trkpt lat="45.053801863004345" lon="9.944860525956168"><ele>37.333333333333336</ele><time>2026-04-26T05:51:56.998Z</time></trkpt><trkpt lat="45.05372032031808" lon="9.944813714989836"><ele>37.5</ele><time>2026-04-26T05:51:57.998Z</time></trkpt><trkpt lat="45.05363873842049" lon="9.944770271287874"><ele>37.666666666666664</ele><time>2026-04-26T05:51:58.998Z</time></trkpt><trkpt lat="45.05355795696157" lon="9.944726245956003"><ele>37.83333333333333</ele><time>2026-04-26T05:51:59.998Z</time></trkpt><trkpt lat="45.053476938442635" lon="9.944680145680389"><ele>38.0</ele><time>2026-04-26T05:52:00.998Z</time></trkpt><trkpt lat="45.05339717591935" lon="9.944638396368086"><ele>38.0</ele><time>2026-04-26T05:52:01.998Z</time></trkpt><trkpt lat="45.05331757799571" lon="9.944594788273042"><ele>38.0</ele><time>2026-04-26T05:52:02.998Z</time></trkpt><trkpt lat="45.053237243090635" lon="9.944552432396181"><ele>38.0</ele><time>2026-04-26T05:52:03.998Z</time></trkpt><trkpt lat="45.05315872934689" lon="9.94450670022614"><ele>38.0</ele><time>2026-04-26T05:52:04.998Z</time></trkpt><trkpt lat="45.05307686256929" lon="9.944461416635182"><ele>38.0</ele><time>2026-04-26T05:52:05.998Z</time></trkpt><trkpt lat="45.05299900786453" lon="9.9444188838375"><ele>38.0</ele><time>2026-04-26T05:52:06.998Z</time></trkpt><trkpt lat="45.05292057521338" lon="9.944374842153916"><ele>38.0</ele><time>2026-04-26T05:52:08Z</time></trkpt><trkpt lat="45.05284304154453" lon="9.944330014578671"><ele>38.0</ele><time>2026-04-26T05:52:09Z</time></trkpt><trkpt lat="45.052763277430095" lon="9.944289045546508"><ele>38.0</ele><time>2026-04-26T05:52:10Z</time></trkpt><trkpt lat="45.05268504303859" lon="9.944248420897157"><ele>38.0</ele><time>2026-04-26T05:52:11Z</time></trkpt><trkpt lat="45.05260599219619" lon="9.944204754644183"><ele>38.0</ele><time>2026-04-26T05:52:12Z</time></trkpt><trkpt lat="45.05252695503832" lon="9.944162726050928"><ele>38.0</ele><time>2026-04-26T05:52:13Z</time></trkpt><trkpt lat="45.052448003479036" lon="9.9441198798382"><ele>38.0</ele><time>2026-04-26T05:52:14Z</time></trkpt><trkpt lat="45.052370409159934" lon="9.944079429860935"><ele>38.0</ele><time>2026-04-26T05:52:15Z</time></trkpt><trkpt lat="45.0522932135543" lon="9.94403628743462"><ele>38.0</ele><time>2026-04-26T05:52:16Z</time></trkpt><trkpt lat="45.052214178893365" lon="9.943993378864988"><ele>38.0</ele><time>2026-04-26T05:52:17Z</time></trkpt><trkpt lat="45.052135006962445" lon="9.943949763850574"><ele>38.0</ele><time>2026-04-26T05:52:18Z</time></trkpt><trkpt lat="45.05205550240622" lon="9.94390697309774"><ele>38.0</ele><time>2026-04-26T05:52:19Z</time></trkpt><trkpt lat="45.05197710463476" lon="9.943865478551086"><ele>38.0</ele><time>2026-04-26T05:52:20Z</time></trkpt><trkpt lat="45.051896857670236" lon="9.943824552459505"><ele>38.0</ele><time>2026-04-26T05:52:21Z</time></trkpt><trkpt lat="45.05181737809908" lon="9.943783812081243"><ele>38.0</ele><time>2026-04-26T05:52:22Z</time></trkpt><trkpt lat="45.05173922057722" lon="9.943740722789263"><ele>38.0</ele><time>2026-04-26T05:52:23Z</time></trkpt><trkpt lat="45.05166063146688" lon="9.943696849029152"><ele>38.0</ele><time>2026-04-26T05:52:24Z</time></trkpt><trkpt lat="45.05158252507686" lon="9.943655507126818"><ele>38.0</ele><time>2026-04-26T05:52:25Z</time></trkpt><trkpt lat="45.051504630921904" lon="9.943614998400452"><ele>37.83333333333333</ele><time>2026-04-26T05:52:26Z</time></trkpt><trkpt lat="45.051425708147136" lon="9.943575866851274"><ele>37.666666666666664</ele><time>2026-04-26T05:52:27Z</time></trkpt><trkpt lat="45.051347411992204" lon="9.94353945033112"><ele>37.5</ele><time>2026-04-26T05:52:28Z</time></trkpt><trkpt lat="45.051267815509064" lon="9.943504797224156"><ele>37.333333333333336</ele><time>2026-04-26T05:52:29Z</time></trkpt><trkpt lat="45.051187246962854" lon="9.943474815153815"><ele>37.16666666666667</ele><time>2026-04-26T05:52:30Z</time></trkpt><trkpt lat="45.05110490623758" lon="9.943453239034584"><ele>37.0</ele><time>2026-04-26T05:52:31Z</time></trkpt><trkpt lat="45.05102147924249" lon="9.943432100923221"><ele>37.0</ele><time>2026-04-26T05:52:32Z</time></trkpt><trkpt lat="45.05094036286861" lon="9.943411003541396"><ele>37.0</ele><time>2026-04-26T05:52:33Z</time></trkpt><trkpt lat="45.05085774034841" lon="9.9433919295362"><ele>37.0</ele><time>2026-04-26T05:52:34Z</time></trkpt><trkpt lat="45.0507750948259" lon="9.94336912648399"><ele>37.0</ele><time>2026-04-26T05:52:35Z</time></trkpt><trkpt lat="45.05069137871955" lon="9.943353725340152"><ele>37.0</ele><time>2026-04-26T05:52:36Z</time></trkpt><trkpt lat="45.05060662801974" lon="9.943342532939559"><ele>37.0</ele><time>2026-04-26T05:52:37Z</time></trkpt><trkpt lat="45.0505221814427" lon="9.943330761938519"><ele>37.16666666666667</ele><time>2026-04-26T05:52:38Z</time></trkpt><trkpt lat="45.050436830779226" lon="9.943319587975616"><ele>37.333333333333336</ele><time>2026-04-26T05:52:39Z</time></trkpt><trkpt lat="45.05035307596639" lon="9.943312686287376"><ele>37.5</ele><time>2026-04-26T05:52:40Z</time></trkpt><trkpt lat="45.05026880532829" lon="9.943309121538423"><ele>37.666666666666664</ele><time>2026-04-26T05:52:41Z</time></trkpt><trkpt lat="45.05018534137174" lon="9.943304455002785"><ele>37.83333333333333</ele><time>2026-04-26T05:52:42Z</time></trkpt><trkpt lat="45.05010058866183" lon="9.943299924810885"><ele>38.0</ele><time>2026-04-26T05:52:43Z</time></trkpt><trkpt lat="45.05001523766011" lon="9.943298408023228"><ele>37.83333333333333</ele><time>2026-04-26T05:52:44Z</time></trkpt><trkpt lat="45.049931389772354" lon="9.943295079443333"><ele>37.666666666666664</ele><time>2026-04-26T05:52:45Z</time></trkpt><trkpt lat="45.04984738238709" lon="9.943293808691704"><ele>37.5</ele><time>2026-04-26T05:52:46Z</time></trkpt><trkpt lat="45.04976461002744" lon="9.94328884508833"><ele>37.333333333333336</ele><time>2026-04-26T05:52:47Z</time></trkpt><trkpt lat="45.049680732710165" lon="9.943285173437465"><ele>37.16666666666667</ele><time>2026-04-26T05:52:48Z</time></trkpt><trkpt lat="45.04959789600095" lon="9.943281200044485"><ele>37.0</ele><time>2026-04-26T05:52:49Z</time></trkpt><trkpt lat="45.04951524910628" lon="9.943278792082868"><ele>37.0</ele><time>2026-04-26T05:52:50Z</time></trkpt><trkpt lat="45.04943125404276" lon="9.943276428492574"><ele>37.0</ele><time>2026-04-26T05:52:51Z</time></trkpt><trkpt lat="45.04934765956416" lon="9.94327492015063"><ele>37.0</ele><time>2026-04-26T05:52:52Z</time></trkpt><trkpt lat="45.04926437770856" lon="9.943270110359796"><ele>37.0</ele><time>2026-04-26T05:52:53Z</time></trkpt><trkpt lat="45.04918148087167" lon="9.943266297938287"><ele>37.0</ele><time>2026-04-26T05:52:54Z</time></trkpt><trkpt lat="45.04909923932318" lon="9.94326318625909"><ele>37.0</ele><time>2026-04-26T05:52:55Z</time></trkpt><trkpt lat="45.049018242790474" lon="9.94326065400666"><ele>37.0</ele><time>2026-04-26T05:52:56Z</time></trkpt><trkpt lat="45.048937119796406" lon="9.943257936616329"><ele>37.0</ele><time>2026-04-26T05:52:56.999Z</time></trkpt><trkpt lat="45.048855689205716" lon="9.943252807579782"><ele>37.0</ele><time>2026-04-26T05:52:57.999Z</time></trkpt><trkpt lat="45.04877504674848" lon="9.943249901285839"><ele>37.0</ele><time>2026-04-26T05:52:58.999Z</time></trkpt><trkpt lat="45.04869361658416" lon="9.943246318927581"><ele>37.0</ele><time>2026-04-26T05:52:59.999Z</time></trkpt><trkpt lat="45.04861187840678" lon="9.943242426599046"><ele>37.0</ele><time>2026-04-26T05:53:00.999Z</time></trkpt><trkpt lat="45.048532027895654" lon="9.943240364929649"><ele>37.0</ele><time>2026-04-26T05:53:01.999Z</time></trkpt><trkpt lat="45.048450537659484" lon="9.943238849676826"><ele>37.0</ele><time>2026-04-26T05:53:02.999Z</time></trkpt><trkpt lat="45.04837073959841" lon="9.943235543809537"><ele>37.0</ele><time>2026-04-26T05:53:03.999Z</time></trkpt><trkpt lat="45.04828962957323" lon="9.943232894835054"><ele>37.0</ele><time>2026-04-26T05:53:04.999Z</time></trkpt><trkpt lat="45.04821024697275" lon="9.943230053700603"><ele>37.0</ele><time>2026-04-26T05:53:05.999Z</time></trkpt><trkpt lat="45.04812924198539" lon="9.94322417429286"><ele>37.0</ele><time>2026-04-26T05:53:06.999Z</time></trkpt><trkpt lat="45.04804990117278" lon="9.943220722311901"><ele>37.16666666666667</ele><time>2026-04-26T05:53:07.999Z</time></trkpt><trkpt lat="45.04796804210777" lon="9.943218619170207"><ele>37.333333333333336</ele><time>2026-04-26T05:53:08.999Z</time></trkpt><trkpt lat="45.04788719733348" lon="9.943219021505172"><ele>37.5</ele><time>2026-04-26T05:53:09.999Z</time></trkpt><trkpt lat="45.04780753796224" lon="9.943219679500656"><ele>37.666666666666664</ele><time>2026-04-26T05:53:10.999Z</time></trkpt><trkpt lat="45.04772297385059" lon="9.943223869399201"><ele>37.83333333333333</ele><time>2026-04-26T05:53:11.999Z</time></trkpt><trkpt lat="45.047641973044286" lon="9.94322441881655"><ele>38.0</ele><time>2026-04-26T05:53:12.999Z</time></trkpt><trkpt lat="45.047559448927544" lon="9.943223295170089"><ele>38.0</ele><time>2026-04-26T05:53:13.999Z</time></trkpt><trkpt lat="45.04747798695357" lon="9.943220667980274"><ele>38.0</ele><time>2026-04-26T05:53:14.999Z</time></trkpt><trkpt lat="45.04739766878627" lon="9.943213723168723"><ele>38.0</ele><time>2026-04-26T05:53:15.999Z</time></trkpt><trkpt lat="45.04731630744587" lon="9.9432017763535"><ele>38.0</ele><time>2026-04-26T05:53:16.999Z</time></trkpt><trkpt lat="45.047236952887175" lon="9.943190137759094"><ele>38.0</ele><time>2026-04-26T05:53:17.999Z</time></trkpt><trkpt lat="45.04715439508365" lon="9.943181691229595"><ele>38.0</ele><time>2026-04-26T05:53:18.999Z</time></trkpt><trkpt lat="45.047070996910676" lon="9.943178794608624"><ele>38.0</ele><time>2026-04-26T05:53:19.999Z</time></trkpt><trkpt lat="45.04698730532573" lon="9.943179222260067"><ele>38.0</ele><time>2026-04-26T05:53:20.999Z</time></trkpt><trkpt lat="45.04690453858528" lon="9.943178085099738"><ele>38.0</ele><time>2026-04-26T05:53:21.999Z</time></trkpt><trkpt lat="45.046822365148955" lon="9.943173235929072"><ele>38.0</ele><time>2026-04-26T05:53:22.999Z</time></trkpt><trkpt lat="45.04673954328619" lon="9.943168690026011"><ele>38.0</ele><time>2026-04-26T05:53:23.999Z</time></trkpt><trkpt lat="45.04665744203058" lon="9.943165082328237"><ele>38.0</ele><time>2026-04-26T05:53:24.999Z</time></trkpt><trkpt lat="45.0465758677759" lon="9.943161546736548"><ele>38.0</ele><time>2026-04-26T05:53:25.999Z</time></trkpt><trkpt lat="45.04649418374816" lon="9.94315906071548"><ele>38.0</ele><time>2026-04-26T05:53:26.999Z</time></trkpt><trkpt lat="45.04641122852011" lon="9.943157179189669"><ele>38.0</ele><time>2026-04-26T05:53:27.999Z</time></trkpt><trkpt lat="45.046327624842235" lon="9.943151916708866"><ele>38.0</ele><time>2026-04-26T05:53:28.999Z</time></trkpt><trkpt lat="45.046245723338785" lon="9.943150585686915"><ele>38.0</ele><time>2026-04-26T05:53:29.999Z</time></trkpt><trkpt lat="45.046163088795545" lon="9.943147249222449"><ele>38.0</ele><time>2026-04-26T05:53:30.999Z</time></trkpt><trkpt lat="45.046081010633245" lon="9.94314561666115"><ele>38.0</ele><time>2026-04-26T05:53:31.999Z</time></trkpt><trkpt lat="45.045999013110965" lon="9.943143324459236"><ele>38.0</ele><time>2026-04-26T05:53:32.999Z</time></trkpt><trkpt lat="45.04591635327279" lon="9.943141671827956"><ele>38.0</ele><time>2026-04-26T05:53:33.999Z</time></trkpt><trkpt lat="45.04583585343182" lon="9.94313790634172"><ele>38.0</ele><time>2026-04-26T05:53:34.999Z</time></trkpt><trkpt lat="45.04575295802551" lon="9.943133409044153"><ele>38.0</ele><time>2026-04-26T05:53:35.999Z</time></trkpt><trkpt lat="45.04567167789214" lon="9.943129408839846"><ele>38.0</ele><time>2026-04-26T05:53:36.999Z</time></trkpt><trkpt lat="45.045590404259556" lon="9.94312889559574"><ele>38.0</ele><time>2026-04-26T05:53:37.999Z</time></trkpt><trkpt lat="45.04550862898327" lon="9.943126896888726"><ele>38.0</ele><time>2026-04-26T05:53:38.999Z</time></trkpt><trkpt lat="45.04542588664029" lon="9.943121911730385"><ele>38.0</ele><time>2026-04-26T05:53:39.999Z</time></trkpt><trkpt lat="45.04534350084497" lon="9.943118818878053"><ele>38.0</ele><time>2026-04-26T05:53:40.999Z</time></trkpt><trkpt lat="45.04526086805458" lon="9.943114561148548"><ele>38.0</ele><time>2026-04-26T05:53:41.999Z</time></trkpt><trkpt lat="45.04518121940465" lon="9.943112692558893"><ele>38.0</ele><time>2026-04-26T05:53:42.999Z</time></trkpt><trkpt lat="45.04509941064134" lon="9.943106140351839"><ele>38.0</ele><time>2026-04-26T05:53:43.999Z</time></trkpt><trkpt lat="45.04501772622241" lon="9.94310501877762"><ele>38.0</ele><time>2026-04-26T05:53:44.999Z</time></trkpt><trkpt lat="45.04493483852346" lon="9.943100641428584"><ele>38.0</ele><time>2026-04-26T05:53:45.999Z</time></trkpt><trkpt lat="45.04485385619164" lon="9.94309759230407"><ele>38.0</ele><time>2026-04-26T05:53:46.999Z</time></trkpt><trkpt lat="45.04477211473631" lon="9.943095837504295"><ele>38.0</ele><time>2026-04-26T05:53:47.999Z</time></trkpt><trkpt lat="45.04468905616804" lon="9.943092989409173"><ele>38.0</ele><time>2026-04-26T05:53:48.999Z</time></trkpt><trkpt lat="45.044605985517535" lon="9.943089610546988"><ele>38.166666666666664</ele><time>2026-04-26T05:53:49.999Z</time></trkpt><trkpt lat="45.04452271787826" lon="9.943084434857449"><ele>38.33333333333333</ele><time>2026-04-26T05:53:50.999Z</time></trkpt><trkpt lat="45.044441487481215" lon="9.943079846719698"><ele>38.5</ele><time>2026-04-26T05:53:51.998Z</time></trkpt><trkpt lat="45.044359716214196" lon="9.943073263157432"><ele>38.666666666666664</ele><time>2026-04-26T05:53:52.998Z</time></trkpt><trkpt lat="45.04427598017426" lon="9.94307384690851"><ele>38.833333333333336</ele><time>2026-04-26T05:53:53.998Z</time></trkpt><trkpt lat="45.04419401393263" lon="9.943070248221789"><ele>39.0</ele><time>2026-04-26T05:53:54.998Z</time></trkpt><trkpt lat="45.044112736951824" lon="9.943067914925757"><ele>39.0</ele><time>2026-04-26T05:53:55.998Z</time></trkpt><trkpt lat="45.04403123402121" lon="9.943064556245744"><ele>39.0</ele><time>2026-04-26T05:53:56.998Z</time></trkpt><trkpt lat="45.04395090955006" lon="9.943062104541859"><ele>39.0</ele><time>2026-04-26T05:53:57.998Z</time></trkpt><trkpt lat="45.043867360590724" lon="9.943055806392158"><ele>39.0</ele><time>2026-04-26T05:53:58.998Z</time></trkpt><trkpt lat="45.04378603094963" lon="9.943055899509005"><ele>39.0</ele><time>2026-04-26T05:53:59.998Z</time></trkpt><trkpt lat="45.04370520831911" lon="9.94305406439743"><ele>39.0</ele><time>2026-04-26T05:54:00.998Z</time></trkpt><trkpt lat="45.043622563353864" lon="9.943054940076365"><ele>39.0</ele><time>2026-04-26T05:54:01.998Z</time></trkpt><trkpt lat="45.04354058147287" lon="9.943051082919077"><ele>39.0</ele><time>2026-04-26T05:54:02.998Z</time></trkpt><trkpt lat="45.043458518637074" lon="9.943045850046214"><ele>39.0</ele><time>2026-04-26T05:54:03.998Z</time></trkpt><trkpt lat="45.043375128892215" lon="9.943042855129347"><ele>39.0</ele><time>2026-04-26T05:54:04.998Z</time></trkpt><trkpt lat="45.04329310257587" lon="9.943040193753289"><ele>39.0</ele><time>2026-04-26T05:54:05.998Z</time></trkpt><trkpt lat="45.04321032421853" lon="9.943034700905091"><ele>39.0</ele><time>2026-04-26T05:54:06.998Z</time></trkpt><trkpt lat="45.043128139799016" lon="9.943032860030414"><ele>39.0</ele><time>2026-04-26T05:54:07.998Z</time></trkpt><trkpt lat="45.04304554415623" lon="9.943032407870037"><ele>39.0</ele><time>2026-04-26T05:54:08.998Z</time></trkpt><trkpt lat="45.042963685226226" lon="9.94302819247878"><ele>39.0</ele><time>2026-04-26T05:54:09.998Z</time></trkpt><trkpt lat="45.042881157550305" lon="9.943023573252837"><ele>39.0</ele><time>2026-04-26T05:54:10.998Z</time></trkpt><trkpt lat="45.04279944905698" lon="9.943020710092748"><ele>39.0</ele><time>2026-04-26T05:54:11.998Z</time></trkpt><trkpt lat="45.042718088797834" lon="9.943017979184845"><ele>39.0</ele><time>2026-04-26T05:54:12.998Z</time></trkpt><trkpt lat="45.04263764919178" lon="9.94301556791361"><ele>39.0</ele><time>2026-04-26T05:54:14Z</time></trkpt><trkpt lat="45.04255538745645" lon="9.94301077086654"><ele>39.0</ele><time>2026-04-26T05:54:15Z</time></trkpt><trkpt lat="45.04247443276381" lon="9.943006935922973"><ele>39.0</ele><time>2026-04-26T05:54:16Z</time></trkpt><trkpt lat="45.04239196744322" lon="9.943003472948917"><ele>39.0</ele><time>2026-04-26T05:54:17Z</time></trkpt><trkpt lat="45.042313490400396" lon="9.943001431108154"><ele>39.0</ele><time>2026-04-26T05:54:18Z</time></trkpt><trkpt lat="45.0422316063848" lon="9.94300042423991"><ele>39.0</ele><time>2026-04-26T05:54:19Z</time></trkpt><trkpt lat="45.04215132105313" lon="9.942990859122348"><ele>39.0</ele><time>2026-04-26T05:54:20Z</time></trkpt><trkpt lat="45.04206992721131" lon="9.942988407343384"><ele>39.0</ele><time>2026-04-26T05:54:21Z</time></trkpt><trkpt lat="45.04199017589673" lon="9.942988355796329"><ele>39.0</ele><time>2026-04-26T05:54:22Z</time></trkpt><trkpt lat="45.04190934844495" lon="9.942985519932586"><ele>39.0</ele><time>2026-04-26T05:54:23Z</time></trkpt><trkpt lat="45.0418296932508" lon="9.942982438406208"><ele>39.0</ele><time>2026-04-26T05:54:24Z</time></trkpt><trkpt lat="45.041749808035085" lon="9.942974323435115"><ele>39.0</ele><time>2026-04-26T05:54:25Z</time></trkpt><trkpt lat="45.04166788931656" lon="9.942976499068587"><ele>38.833333333333336</ele><time>2026-04-26T05:54:26Z</time></trkpt><trkpt lat="45.041587047100236" lon="9.942974606796938"><ele>38.666666666666664</ele><time>2026-04-26T05:54:27Z</time></trkpt><trkpt lat="45.04150499477824" lon="9.942970958335014"><ele>38.5</ele><time>2026-04-26T05:54:28Z</time></trkpt><trkpt lat="45.04142476581758" lon="9.942967743941669"><ele>38.33333333333333</ele><time>2026-04-26T05:54:29Z</time></trkpt><trkpt lat="45.04134454312036" lon="9.942966452714186"><ele>38.166666666666664</ele><time>2026-04-26T05:54:30Z</time></trkpt><trkpt lat="45.041264805408844" lon="9.942965245737485"><ele>38.0</ele><time>2026-04-26T05:54:31Z</time></trkpt><trkpt lat="45.04118372340097" lon="9.942964178536624"><ele>38.0</ele><time>2026-04-26T05:54:32Z</time></trkpt><trkpt lat="45.04110079064992" lon="9.942965850223867"><ele>38.0</ele><time>2026-04-26T05:54:33Z</time></trkpt><trkpt lat="45.04101914269707" lon="9.942965928049407"><ele>38.0</ele><time>2026-04-26T05:54:34Z</time></trkpt><trkpt lat="45.04093479261985" lon="9.942965169539862"><ele>38.0</ele><time>2026-04-26T05:54:35Z</time></trkpt><trkpt lat="45.0408532329951" lon="9.942961923260096"><ele>38.0</ele><time>2026-04-26T05:54:36Z</time></trkpt><trkpt lat="45.04077276868917" lon="9.942957414799842"><ele>38.0</ele><time>2026-04-26T05:54:37Z</time></trkpt><trkpt lat="45.04069252536132" lon="9.942953653592538"><ele>38.166666666666664</ele><time>2026-04-26T05:54:38Z</time></trkpt><trkpt lat="45.040611509589795" lon="9.94294703409009"><ele>38.33333333333333</ele><time>2026-04-26T05:54:39Z</time></trkpt><trkpt lat="45.04053091940522" lon="9.94294422070875"><ele>38.5</ele><time>2026-04-26T05:54:40Z</time></trkpt><trkpt lat="45.040449813873096" lon="9.942941628925672"><ele>38.666666666666664</ele><time>2026-04-26T05:54:41Z</time></trkpt><trkpt lat="45.04036906016438" lon="9.94293661853341"><ele>38.833333333333336</ele><time>2026-04-26T05:54:42Z</time></trkpt><trkpt lat="45.04028709230425" lon="9.942937290421515"><ele>39.0</ele><time>2026-04-26T05:54:43Z</time></trkpt><trkpt lat="45.04020715527422" lon="9.942937888530277"><ele>39.0</ele><time>2026-04-26T05:54:44Z</time></trkpt><trkpt lat="45.0401257427916" lon="9.942930469493705"><ele>39.0</ele><time>2026-04-26T05:54:45Z</time></trkpt><trkpt lat="45.040046402688404" lon="9.942924147787968"><ele>39.0</ele><time>2026-04-26T05:54:46Z</time></trkpt><trkpt lat="45.03996375245753" lon="9.942919868297908"><ele>39.0</ele><time>2026-04-26T05:54:47Z</time></trkpt><trkpt lat="45.0398815971135" lon="9.942917628028763"><ele>39.0</ele><time>2026-04-26T05:54:48Z</time></trkpt><trkpt lat="45.03980165460053" lon="9.942917200471847"><ele>39.0</ele><time>2026-04-26T05:54:49Z</time></trkpt><trkpt lat="45.0397218947095" lon="9.942914881654117"><ele>39.166666666666664</ele><time>2026-04-26T05:54:50Z</time></trkpt><trkpt lat="45.03964073737485" lon="9.942909026627241"><ele>39.333333333333336</ele><time>2026-04-26T05:54:51Z</time></trkpt><trkpt lat="45.03956085514857" lon="9.942908194130167"><ele>39.5</ele><time>2026-04-26T05:54:52Z</time></trkpt><trkpt lat="45.0394809169272" lon="9.942906004461355"><ele>39.66666666666667</ele><time>2026-04-26T05:54:53Z</time></trkpt><trkpt lat="45.039401075934734" lon="9.942903593922297"><ele>39.833333333333336</ele><time>2026-04-26T05:54:54Z</time></trkpt><trkpt lat="45.03932041540066" lon="9.942900515111488"><ele>40.0</ele><time>2026-04-26T05:54:55Z</time></trkpt><trkpt lat="45.03923958109194" lon="9.942898912190657"><ele>40.0</ele><time>2026-04-26T05:54:56Z</time></trkpt><trkpt lat="45.0391589844523" lon="9.942895148029846"><ele>40.0</ele><time>2026-04-26T05:54:57Z</time></trkpt><trkpt lat="45.0390785651134" lon="9.942892641294765"><ele>40.0</ele><time>2026-04-26T05:54:58Z</time></trkpt><trkpt lat="45.03899762601044" lon="9.942886062081984"><ele>40.0</ele><time>2026-04-26T05:54:59Z</time></trkpt><trkpt lat="45.038917739767236" lon="9.942880640509694"><ele>40.0</ele><time>2026-04-26T05:55:00Z</time></trkpt><trkpt lat="45.03883726716023" lon="9.942878134573483"><ele>40.0</ele><time>2026-04-26T05:55:01Z</time></trkpt><trkpt lat="45.03875888952659" lon="9.942877012191724"><ele>40.16666666666667</ele><time>2026-04-26T05:55:01.999Z</time></trkpt><trkpt lat="45.03868112465639" lon="9.942870712819097"><ele>40.333333333333336</ele><time>2026-04-26T05:55:02.999Z</time></trkpt><trkpt lat="45.038599865749916" lon="9.942864380691773"><ele>40.5</ele><time>2026-04-26T05:55:03.999Z</time></trkpt><trkpt lat="45.038519455347426" lon="9.94285973122473"><ele>40.666666666666664</ele><time>2026-04-26T05:55:04.999Z</time></trkpt><trkpt lat="45.038439645182095" lon="9.942854932886627"><ele>40.83333333333333</ele><time>2026-04-26T05:55:05.999Z</time></trkpt><trkpt lat="45.038361513891125" lon="9.942845961705071"><ele>41.0</ele><time>2026-04-26T05:55:06.999Z</time></trkpt><trkpt lat="45.0382820792917" lon="9.942839633697632"><ele>41.0</ele><time>2026-04-26T05:55:07.999Z</time></trkpt><trkpt lat="45.03820372713885" lon="9.942840931518528"><ele>41.0</ele><time>2026-04-26T05:55:08.999Z</time></trkpt><trkpt lat="45.03812288265587" lon="9.942837945052313"><ele>41.0</ele><time>2026-04-26T05:55:09.999Z</time></trkpt><trkpt lat="45.038042427040615" lon="9.942837240599962"><ele>41.0</ele><time>2026-04-26T05:55:10.999Z</time></trkpt><trkpt lat="45.03796364249677" lon="9.942834736075197"><ele>41.0</ele><time>2026-04-26T05:55:11.999Z</time></trkpt><trkpt lat="45.03788358240863" lon="9.942832402427129"><ele>41.0</ele><time>2026-04-26T05:55:12.999Z</time></trkpt><trkpt lat="45.03780377988429" lon="9.942830117740531"><ele>41.0</ele><time>2026-04-26T05:55:13.999Z</time></trkpt><trkpt lat="45.03772186391843" lon="9.94282417069915"><ele>41.0</ele><time>2026-04-26T05:55:14.999Z</time></trkpt><trkpt lat="45.03763946059268" lon="9.942821176342044"><ele>41.0</ele><time>2026-04-26T05:55:15.999Z</time></trkpt><trkpt lat="45.03755671145672" lon="9.942817794830251"><ele>41.0</ele><time>2026-04-26T05:55:16.999Z</time></trkpt><trkpt lat="45.03747559088156" lon="9.942813944418003"><ele>41.0</ele><time>2026-04-26T05:55:17.999Z</time></trkpt><trkpt lat="45.03739236977384" lon="9.942809782094121"><ele>41.0</ele><time>2026-04-26T05:55:18.999Z</time></trkpt><trkpt lat="45.037310702534775" lon="9.942807230063154"><ele>40.83333333333333</ele><time>2026-04-26T05:55:19.999Z</time></trkpt><trkpt lat="45.03722864361368" lon="9.942806606210292"><ele>40.666666666666664</ele><time>2026-04-26T05:55:20.999Z</time></trkpt><trkpt lat="45.03714733494073" lon="9.942801994835369"><ele>40.5</ele><time>2026-04-26T05:55:21.999Z</time></trkpt><trkpt lat="45.03706502713891" lon="9.94279804902834"><ele>40.333333333333336</ele><time>2026-04-26T05:55:22.999Z</time></trkpt><trkpt lat="45.03698172159798" lon="9.942792160123627"><ele>40.16666666666667</ele><time>2026-04-26T05:55:23.999Z</time></trkpt><trkpt lat="45.036899465133175" lon="9.942786220820427"><ele>40.0</ele><time>2026-04-26T05:55:24.999Z</time></trkpt><trkpt lat="45.03681772359914" lon="9.942784107142213"><ele>40.0</ele><time>2026-04-26T05:55:25.999Z</time></trkpt><trkpt lat="45.03673372242035" lon="9.942781236200078"><ele>40.0</ele><time>2026-04-26T05:55:26.999Z</time></trkpt><trkpt lat="45.036652846725254" lon="9.942777040014215"><ele>40.0</ele><time>2026-04-26T05:55:27.999Z</time></trkpt><trkpt lat="45.03656957151479" lon="9.942772474918039"><ele>40.0</ele><time>2026-04-26T05:55:28.999Z</time></trkpt><trkpt lat="45.036485315043" lon="9.942767940332134"><ele>40.0</ele><time>2026-04-26T05:55:29.999Z</time></trkpt><trkpt lat="45.036402238413736" lon="9.942765670598405"><ele>40.0</ele><time>2026-04-26T05:55:30.999Z</time></trkpt><trkpt lat="45.03631995713463" lon="9.942762518010232"><ele>40.333333333333336</ele><time>2026-04-26T05:55:31.999Z</time></trkpt><trkpt lat="45.03623775997136" lon="9.942759681050749"><ele>40.66666666666667</ele><time>2026-04-26T05:55:32.999Z</time></trkpt><trkpt lat="45.03615612698437" lon="9.942758338053997"><ele>41.0</ele><time>2026-04-26T05:55:33.999Z</time></trkpt><trkpt lat="45.03607445864914" lon="9.942754764920426"><ele>41.333333333333336</ele><time>2026-04-26T05:55:34.999Z</time></trkpt><trkpt lat="45.035994757480914" lon="9.942752946476684"><ele>41.666666666666664</ele><time>2026-04-26T05:55:35.999Z</time></trkpt><trkpt lat="45.03591422737914" lon="9.942751790398312"><ele>42.0</ele><time>2026-04-26T05:55:36.999Z</time></trkpt><trkpt lat="45.03583377218725" lon="9.942749716032996"><ele>41.666666666666664</ele><time>2026-04-26T05:55:37.999Z</time></trkpt><trkpt lat="45.03575179477518" lon="9.94274703186744"><ele>41.333333333333336</ele><time>2026-04-26T05:55:38.999Z</time></trkpt><trkpt lat="45.0356695551366" lon="9.942743763848714"><ele>41.0</ele><time>2026-04-26T05:55:39.999Z</time></trkpt><trkpt lat="45.03558927405957" lon="9.942739937317048"><ele>40.66666666666667</ele><time>2026-04-26T05:55:40.999Z</time></trkpt><trkpt lat="45.035508479439045" lon="9.942733600819315"><ele>40.333333333333336</ele><time>2026-04-26T05:55:41.999Z</time></trkpt><trkpt lat="45.03542744917191" lon="9.942728503883771"><ele>40.0</ele><time>2026-04-26T05:55:42.999Z</time></trkpt><trkpt lat="45.03534752862253" lon="9.942725681420198"><ele>40.0</ele><time>2026-04-26T05:55:43.999Z</time></trkpt><trkpt lat="45.03526695472726" lon="9.942722251657283"><ele>40.0</ele><time>2026-04-26T05:55:44.999Z</time></trkpt><trkpt lat="45.03518684965364" lon="9.942718867450404"><ele>40.0</ele><time>2026-04-26T05:55:45.999Z</time></trkpt><trkpt lat="45.03510711100594" lon="9.942714813563958"><ele>40.0</ele><time>2026-04-26T05:55:46.999Z</time></trkpt><trkpt lat="45.035026556902814" lon="9.942711921163756"><ele>40.0</ele><time>2026-04-26T05:55:47.999Z</time></trkpt><trkpt lat="45.034946512614155" lon="9.942707638292092"><ele>40.0</ele><time>2026-04-26T05:55:48.999Z</time></trkpt><trkpt lat="45.034865367120155" lon="9.942703757613168"><ele>40.0</ele><time>2026-04-26T05:55:49.999Z</time></trkpt><trkpt lat="45.03478347883259" lon="9.942700246534109"><ele>40.0</ele><time>2026-04-26T05:55:50.999Z</time></trkpt><trkpt lat="45.03470105400594" lon="9.942694862816214"><ele>40.0</ele><time>2026-04-26T05:55:51.999Z</time></trkpt><trkpt lat="45.034620622037735" lon="9.942690687779093"><ele>40.0</ele><time>2026-04-26T05:55:52.999Z</time></trkpt><trkpt lat="45.03454011333519" lon="9.942687181253074"><ele>40.0</ele><time>2026-04-26T05:55:53.999Z</time></trkpt><trkpt lat="45.03445838976086" lon="9.942682753019914"><ele>40.0</ele><time>2026-04-26T05:55:54.999Z</time></trkpt><trkpt lat="45.03437947966018" lon="9.942678956208121"><ele>40.0</ele><time>2026-04-26T05:55:55.999Z</time></trkpt><trkpt lat="45.03430098655172" lon="9.942676496818278"><ele>40.0</ele><time>2026-04-26T05:55:56.998Z</time></trkpt><trkpt lat="45.034222709690596" lon="9.942674261500692"><ele>40.0</ele><time>2026-04-26T05:55:57.998Z</time></trkpt><trkpt lat="45.034144955448134" lon="9.942669614503586"><ele>40.0</ele><time>2026-04-26T05:55:58.998Z</time></trkpt><trkpt lat="45.03406658467666" lon="9.942666788995895"><ele>40.0</ele><time>2026-04-26T05:55:59.998Z</time></trkpt><trkpt lat="45.03398770214328" lon="9.94266303551544"><ele>40.0</ele><time>2026-04-26T05:56:00.998Z</time></trkpt><trkpt lat="45.03390832542831" lon="9.942658630341938"><ele>40.0</ele><time>2026-04-26T05:56:01.998Z</time></trkpt><trkpt lat="45.03383173033436" lon="9.942654952669267"><ele>40.0</ele><time>2026-04-26T05:56:02.998Z</time></trkpt><trkpt lat="45.03375389746925" lon="9.942653255953827"><ele>40.0</ele><time>2026-04-26T05:56:03.998Z</time></trkpt><trkpt lat="45.033676278909425" lon="9.942651153733792"><ele>40.0</ele><time>2026-04-26T05:56:04.998Z</time></trkpt><trkpt lat="45.03359825136567" lon="9.942650191224676"><ele>40.0</ele><time>2026-04-26T05:56:05.998Z</time></trkpt><trkpt lat="45.033520940367254" lon="9.94264475731891"><ele>40.0</ele><time>2026-04-26T05:56:06.998Z</time></trkpt><trkpt lat="45.033445931258925" lon="9.942629001739178"><ele>40.0</ele><time>2026-04-26T05:56:07.998Z</time></trkpt><trkpt lat="45.033370089696604" lon="9.942601142268593"><ele>40.0</ele><time>2026-04-26T05:56:08.998Z</time></trkpt><trkpt lat="45.03330375706552" lon="9.942558156207356"><ele>40.0</ele><time>2026-04-26T05:56:09.998Z</time></trkpt><trkpt lat="45.03323737589316" lon="9.94251402370541"><ele>40.0</ele><time>2026-04-26T05:56:10.998Z</time></trkpt><trkpt lat="45.03316367578879" lon="9.942520645551784"><ele>40.0</ele><time>2026-04-26T05:56:11.998Z</time></trkpt><trkpt lat="45.033102735119094" lon="9.94259395315663"><ele>40.0</ele><time>2026-04-26T05:56:12.998Z</time></trkpt><trkpt lat="45.03307567300416" lon="9.942705121770702"><ele>40.16666666666667</ele><time>2026-04-26T05:56:13.998Z</time></trkpt><trkpt lat="45.03311612656682" lon="9.942817563517316"><ele>40.333333333333336</ele><time>2026-04-26T05:56:14.998Z</time></trkpt><trkpt lat="45.03312689854528" lon="9.942934305204222"><ele>40.5</ele><time>2026-04-26T05:56:15.998Z</time></trkpt><trkpt lat="45.03312713910308" lon="9.943050514966975"><ele>40.666666666666664</ele><time>2026-04-26T05:56:16.998Z</time></trkpt><trkpt lat="45.03312106202859" lon="9.943164145363376"><ele>40.83333333333333</ele><time>2026-04-26T05:56:17.998Z</time></trkpt><trkpt lat="45.03311530564917" lon="9.943279429535519"><ele>41.0</ele><time>2026-04-26T05:56:18.998Z</time></trkpt><trkpt lat="45.03305909751051" lon="9.943389878496875"><ele>41.33333333333333</ele><time>2026-04-26T05:56:20Z</time></trkpt><trkpt lat="45.0330386785185" lon="9.943503698084962"><ele>41.666666666666664</ele><time>2026-04-26T05:56:21Z</time></trkpt><trkpt lat="45.0330184128629" lon="9.943619942864737"><ele>42.0</ele><time>2026-04-26T05:56:22Z</time></trkpt><trkpt lat="45.03299790888757" lon="9.943733280044045"><ele>42.333333333333336</ele><time>2026-04-26T05:56:23Z</time></trkpt><trkpt lat="45.03297886706163" lon="9.943846828552363"><ele>42.66666666666667</ele><time>2026-04-26T05:56:24Z</time></trkpt><trkpt lat="45.03295872288641" lon="9.94396154707889"><ele>43.0</ele><time>2026-04-26T05:56:25Z</time></trkpt><trkpt lat="45.03293897271691" lon="9.944078487674924"><ele>43.0</ele><time>2026-04-26T05:56:26Z</time></trkpt><trkpt lat="45.0329197422733" lon="9.944193276001542"><ele>43.0</ele><time>2026-04-26T05:56:27Z</time></trkpt><trkpt lat="45.03289981422259" lon="9.944304375534108"><ele>43.0</ele><time>2026-04-26T05:56:28Z</time></trkpt><trkpt lat="45.03287971249406" lon="9.944414449456056"><ele>43.0</ele><time>2026-04-26T05:56:29Z</time></trkpt><trkpt lat="45.03285854239454" lon="9.944524608609818"><ele>43.0</ele><time>2026-04-26T05:56:30Z</time></trkpt><trkpt lat="45.03283562348883" lon="9.94463532117848"><ele>43.0</ele><time>2026-04-26T05:56:31Z</time></trkpt><trkpt lat="45.032807500690964" lon="9.944744373096606"><ele>43.0</ele><time>2026-04-26T05:56:32Z</time></trkpt><trkpt lat="45.03276673994771" lon="9.944847271726163"><ele>43.0</ele><time>2026-04-26T05:56:33Z</time></trkpt><trkpt lat="45.03271690233624" lon="9.944943429403645"><ele>43.0</ele><time>2026-04-26T05:56:34Z</time></trkpt><trkpt lat="45.03265329981687" lon="9.945020229090806"><ele>43.0</ele><time>2026-04-26T05:56:35Z</time></trkpt><trkpt lat="45.0325813546634" lon="9.945071314472548"><ele>43.0</ele><time>2026-04-26T05:56:36Z</time></trkpt><trkpt lat="45.03250090793865" lon="9.945094231481693"><ele>43.0</ele><time>2026-04-26T05:56:37Z</time></trkpt><trkpt lat="45.032415884910236" lon="9.945098916529588"><ele>43.0</ele><time>2026-04-26T05:56:38Z</time></trkpt><trkpt lat="45.032331620455885" lon="9.945089436075078"><ele>43.0</ele><time>2026-04-26T05:56:39Z</time></trkpt><trkpt lat="45.03225290537757" lon="9.94506342880813"><ele>43.0</ele><time>2026-04-26T05:56:40Z</time></trkpt><trkpt lat="45.032171556785784" lon="9.945020801685295"><ele>43.0</ele><time>2026-04-26T05:56:41Z</time></trkpt><trkpt lat="45.03209725030592" lon="9.944989017341436"><ele>43.0</ele><time>2026-04-26T05:56:42Z</time></trkpt><trkpt lat="45.03201891701352" lon="9.944958057720038"><ele>43.0</ele><time>2026-04-26T05:56:43Z</time></trkpt><trkpt lat="45.03194276034249" lon="9.944926880746682"><ele>43.0</ele><time>2026-04-26T05:56:44Z</time></trkpt><trkpt lat="45.03186197359774" lon="9.944893003381301"><ele>43.0</ele><time>2026-04-26T05:56:45Z</time></trkpt><trkpt lat="45.03178493180198" lon="9.944861701994157"><ele>43.0</ele><time>2026-04-26T05:56:46Z</time></trkpt><trkpt lat="45.03170801482312" lon="9.944832637380035"><ele>43.0</ele><time>2026-04-26T05:56:47Z</time></trkpt><trkpt lat="45.031629259389206" lon="9.944806664465792"><ele>43.0</ele><time>2026-04-26T05:56:48Z</time></trkpt><trkpt lat="45.03155147517099" lon="9.944774902662623"><ele>43.0</ele><time>2026-04-26T05:56:49Z</time></trkpt><trkpt lat="45.03147672454547" lon="9.944738130180047"><ele>43.0</ele><time>2026-04-26T05:56:50Z</time></trkpt><trkpt lat="45.031397964121595" lon="9.944702531543367"><ele>43.0</ele><time>2026-04-26T05:56:51Z</time></trkpt><trkpt lat="45.031318578774076" lon="9.944670854065937"><ele>43.0</ele><time>2026-04-26T05:56:52Z</time></trkpt><trkpt lat="45.03123895589229" lon="9.94463799928259"><ele>43.0</ele><time>2026-04-26T05:56:53Z</time></trkpt><trkpt lat="45.031159634245505" lon="9.944607084876617"><ele>43.0</ele><time>2026-04-26T05:56:54Z</time></trkpt><trkpt lat="45.03108038800885" lon="9.944576699288838"><ele>43.0</ele><time>2026-04-26T05:56:55Z</time></trkpt><trkpt lat="45.031001887677654" lon="9.94454711715335"><ele>43.0</ele><time>2026-04-26T05:56:56Z</time></trkpt><trkpt lat="45.03092270439667" lon="9.944514300524034"><ele>43.0</ele><time>2026-04-26T05:56:57Z</time></trkpt><trkpt lat="45.03084261912643" lon="9.94448363442457"><ele>43.0</ele><time>2026-04-26T05:56:58Z</time></trkpt><trkpt lat="45.03076414732123" lon="9.944453708046263"><ele>43.0</ele><time>2026-04-26T05:56:59Z</time></trkpt><trkpt lat="45.0306861552438" lon="9.944425197080184"><ele>43.0</ele><time>2026-04-26T05:57:00Z</time></trkpt><trkpt lat="45.03060731539211" lon="9.944393658475411"><ele>43.0</ele><time>2026-04-26T05:57:01Z</time></trkpt><trkpt lat="45.03052895452555" lon="9.944359349748863"><ele>43.16666666666667</ele><time>2026-04-26T05:57:02Z</time></trkpt><trkpt lat="45.03045075389462" lon="9.94432731362219"><ele>43.333333333333336</ele><time>2026-04-26T05:57:03Z</time></trkpt><trkpt lat="45.03037207351651" lon="9.944295627873553"><ele>43.5</ele><time>2026-04-26T05:57:04Z</time></trkpt><trkpt lat="45.03029379055356" lon="9.944266061201834"><ele>43.666666666666664</ele><time>2026-04-26T05:57:05Z</time></trkpt><trkpt lat="45.030215207229055" lon="9.94423535126827"><ele>43.83333333333333</ele><time>2026-04-26T05:57:05.999Z</time></trkpt><trkpt lat="45.03013536308276" lon="9.944202988940138"><ele>44.0</ele><time>2026-04-26T05:57:06.999Z</time></trkpt><trkpt lat="45.03005515159434" lon="9.944171876984479"><ele>43.666666666666664</ele><time>2026-04-26T05:57:07.999Z</time></trkpt><trkpt lat="45.029974925897186" lon="9.944139396604099"><ele>43.33333333333333</ele><time>2026-04-26T05:57:08.999Z</time></trkpt><trkpt lat="45.02989494019061" lon="9.944104604044888"><ele>43.0</ele><time>2026-04-26T05:57:09.999Z</time></trkpt><trkpt lat="45.02981578845995" lon="9.944075642917937"><ele>42.666666666666664</ele><time>2026-04-26T05:57:10.999Z</time></trkpt><trkpt lat="45.02973578769253" lon="9.94404444382208"><ele>42.333333333333336</ele><time>2026-04-26T05:57:11.999Z</time></trkpt><trkpt lat="45.02965473727449" lon="9.94401097057676"><ele>42.0</ele><time>2026-04-26T05:57:12.999Z</time></trkpt><trkpt lat="45.02957618766069" lon="9.943981706210627"><ele>42.0</ele><time>2026-04-26T05:57:13.999Z</time></trkpt><trkpt lat="45.02949640787873" lon="9.943950521532571"><ele>42.0</ele><time>2026-04-26T05:57:14.999Z</time></trkpt><trkpt lat="45.02941656619459" lon="9.943917693081627"><ele>42.0</ele><time>2026-04-26T05:57:15.999Z</time></trkpt><trkpt lat="45.02933683393811" lon="9.943886431570407"><ele>42.0</ele><time>2026-04-26T05:57:16.999Z</time></trkpt><trkpt lat="45.02925792119222" lon="9.943855807213906"><ele>42.0</ele><time>2026-04-26T05:57:17.999Z</time></trkpt><trkpt lat="45.02917942771061" lon="9.94382323489183"><ele>42.0</ele><time>2026-04-26T05:57:18.999Z</time></trkpt><trkpt lat="45.029103080244994" lon="9.94379358436777"><ele>42.333333333333336</ele><time>2026-04-26T05:57:19.999Z</time></trkpt><trkpt lat="45.02902449177519" lon="9.943762754428036"><ele>42.666666666666664</ele><time>2026-04-26T05:57:20.999Z</time></trkpt><trkpt lat="45.028948096275336" lon="9.943733840158295"><ele>43.0</ele><time>2026-04-26T05:57:21.999Z</time></trkpt><trkpt lat="45.02887058013245" lon="9.943703766008086"><ele>43.33333333333333</ele><time>2026-04-26T05:57:22.999Z</time></trkpt><trkpt lat="45.0287922473784" lon="9.943672333098313"><ele>43.666666666666664</ele><time>2026-04-26T05:57:23.999Z</time></trkpt><trkpt lat="45.02871396331396" lon="9.943640380958348"><ele>44.0</ele><time>2026-04-26T05:57:24.999Z</time></trkpt><trkpt lat="45.028634924230296" lon="9.943607758854748"><ele>44.0</ele><time>2026-04-26T05:57:25.999Z</time></trkpt><trkpt lat="45.02855526502795" lon="9.943576012824009"><ele>44.0</ele><time>2026-04-26T05:57:26.999Z</time></trkpt><trkpt lat="45.02847602378802" lon="9.943543408240659"><ele>44.0</ele><time>2026-04-26T05:57:27.999Z</time></trkpt><trkpt lat="45.02839718422054" lon="9.943510512918701"><ele>44.0</ele><time>2026-04-26T05:57:28.999Z</time></trkpt><trkpt lat="45.02831937772395" lon="9.943478100940595"><ele>44.0</ele><time>2026-04-26T05:57:29.999Z</time></trkpt><trkpt lat="45.02824117235917" lon="9.943448235659162"><ele>44.0</ele><time>2026-04-26T05:57:30.999Z</time></trkpt><trkpt lat="45.02816288025728" lon="9.943422404039323"><ele>43.83333333333333</ele><time>2026-04-26T05:57:31.999Z</time></trkpt><trkpt lat="45.028084964949414" lon="9.943393869637259"><ele>43.666666666666664</ele><time>2026-04-26T05:57:32.999Z</time></trkpt><trkpt lat="45.02800670549829" lon="9.943361182621734"><ele>43.5</ele><time>2026-04-26T05:57:33.999Z</time></trkpt><trkpt lat="45.0279286977673" lon="9.943328564410601"><ele>43.333333333333336</ele><time>2026-04-26T05:57:34.999Z</time></trkpt><trkpt lat="45.027852227736076" lon="9.943298131209803"><ele>43.16666666666667</ele><time>2026-04-26T05:57:35.999Z</time></trkpt><trkpt lat="45.027772926595325" lon="9.943269569817893"><ele>43.0</ele><time>2026-04-26T05:57:36.999Z</time></trkpt><trkpt lat="45.02769702129608" lon="9.943239204721271"><ele>42.66666666666667</ele><time>2026-04-26T05:57:37.999Z</time></trkpt><trkpt lat="45.02761771927752" lon="9.943204139554464"><ele>42.333333333333336</ele><time>2026-04-26T05:57:38.999Z</time></trkpt><trkpt lat="45.02754018855134" lon="9.943172465735856"><ele>42.0</ele><time>2026-04-26T05:57:39.999Z</time></trkpt><trkpt lat="45.02746291201406" lon="9.943145820620982"><ele>41.666666666666664</ele><time>2026-04-26T05:57:40.999Z</time></trkpt><trkpt lat="45.02738407406321" lon="9.943117105960866"><ele>41.33333333333333</ele><time>2026-04-26T05:57:41.999Z</time></trkpt><trkpt lat="45.027307121045546" lon="9.943085277125336"><ele>41.0</ele><time>2026-04-26T05:57:42.999Z</time></trkpt><trkpt lat="45.02723137260646" lon="9.943055234668972"><ele>41.0</ele><time>2026-04-26T05:57:43.999Z</time></trkpt><trkpt lat="45.02715623863308" lon="9.943024237936735"><ele>41.0</ele><time>2026-04-26T05:57:44.999Z</time></trkpt><trkpt lat="45.027079081292214" lon="9.942992175302752"><ele>41.0</ele><time>2026-04-26T05:57:45.999Z</time></trkpt><trkpt lat="45.027002830493764" lon="9.942960173425556"><ele>41.0</ele><time>2026-04-26T05:57:46.999Z</time></trkpt><trkpt lat="45.026925701729624" lon="9.942929912320814"><ele>41.0</ele><time>2026-04-26T05:57:47.999Z</time></trkpt><trkpt lat="45.026847746786565" lon="9.942900038507887"><ele>41.0</ele><time>2026-04-26T05:57:48.999Z</time></trkpt><trkpt lat="45.026770978923444" lon="9.942868768275613"><ele>41.0</ele><time>2026-04-26T05:57:49.999Z</time></trkpt><trkpt lat="45.026693380938156" lon="9.942839783386791"><ele>41.0</ele><time>2026-04-26T05:57:50.999Z</time></trkpt><trkpt lat="45.02661440761272" lon="9.942810060718964"><ele>41.0</ele><time>2026-04-26T05:57:51.999Z</time></trkpt><trkpt lat="45.026536566898976" lon="9.942779016942545"><ele>41.0</ele><time>2026-04-26T05:57:52.999Z</time></trkpt><trkpt lat="45.026459220767805" lon="9.942746248244008"><ele>41.0</ele><time>2026-04-26T05:57:53.999Z</time></trkpt><trkpt lat="45.026382256178266" lon="9.942715394164509"><ele>41.0</ele><time>2026-04-26T05:57:54.999Z</time></trkpt><trkpt lat="45.026303041782235" lon="9.942684470434465"><ele>41.166666666666664</ele><time>2026-04-26T05:57:55.999Z</time></trkpt><trkpt lat="45.02622704805633" lon="9.94265417012619"><ele>41.33333333333333</ele><time>2026-04-26T05:57:56.999Z</time></trkpt><trkpt lat="45.0261490043254" lon="9.942623400930858"><ele>41.5</ele><time>2026-04-26T05:57:57.999Z</time></trkpt><trkpt lat="45.0260702317204" lon="9.94259325452817"><ele>41.666666666666664</ele><time>2026-04-26T05:57:58.999Z</time></trkpt><trkpt lat="45.02599367464166" lon="9.942560634965604"><ele>41.833333333333336</ele><time>2026-04-26T05:57:59.999Z</time></trkpt><trkpt lat="45.02591566261595" lon="9.942525209455896"><ele>42.0</ele><time>2026-04-26T05:58:00.998Z</time></trkpt><trkpt lat="45.02583982532067" lon="9.942493605515768"><ele>42.333333333333336</ele><time>2026-04-26T05:58:01.998Z</time></trkpt><trkpt lat="45.0257633224687" lon="9.942464624014933"><ele>42.666666666666664</ele><time>2026-04-26T05:58:02.998Z</time></trkpt><trkpt lat="45.02568672423752" lon="9.942435275443989"><ele>43.0</ele><time>2026-04-26T05:58:03.998Z</time></trkpt><trkpt lat="45.02560872752615" lon="9.942402976481219"><ele>43.33333333333333</ele><time>2026-04-26T05:58:04.998Z</time></trkpt><trkpt lat="45.0255311211369" lon="9.94236922158279"><ele>43.666666666666664</ele><time>2026-04-26T05:58:05.998Z</time></trkpt><trkpt lat="45.02545061412405" lon="9.942336164107882"><ele>44.0</ele><time>2026-04-26T05:58:06.998Z</time></trkpt><trkpt lat="45.025371690909616" lon="9.942304492146196"><ele>44.0</ele><time>2026-04-26T05:58:07.998Z</time></trkpt><trkpt lat="45.02529339323005" lon="9.942273474596526"><ele>44.0</ele><time>2026-04-26T05:58:08.998Z</time></trkpt><trkpt lat="45.02521351890149" lon="9.9422407395191"><ele>44.0</ele><time>2026-04-26T05:58:09.998Z</time></trkpt><trkpt lat="45.02513481559793" lon="9.942205762425255"><ele>44.0</ele><time>2026-04-26T05:58:10.998Z</time></trkpt><trkpt lat="45.025053568020034" lon="9.94217371623834"><ele>44.0</ele><time>2026-04-26T05:58:11.998Z</time></trkpt><trkpt lat="45.02497316414318" lon="9.942143557348064"><ele>44.0</ele><time>2026-04-26T05:58:12.998Z</time></trkpt><trkpt lat="45.02489452704604" lon="9.942110436313515"><ele>43.666666666666664</ele><time>2026-04-26T05:58:13.998Z</time></trkpt><trkpt lat="45.02481863423943" lon="9.942080912101064"><ele>43.33333333333333</ele><time>2026-04-26T05:58:14.998Z</time></trkpt><trkpt lat="45.02473970572109" lon="9.942054161711454"><ele>43.0</ele><time>2026-04-26T05:58:15.998Z</time></trkpt><trkpt lat="45.02466167913484" lon="9.942037675477561"><ele>42.666666666666664</ele><time>2026-04-26T05:58:16.998Z</time></trkpt><trkpt lat="45.024582041728664" lon="9.942032113354946"><ele>42.333333333333336</ele><time>2026-04-26T05:58:17.998Z</time></trkpt><trkpt lat="45.02450002498487" lon="9.9420418182302"><ele>42.0</ele><time>2026-04-26T05:58:18.998Z</time></trkpt><trkpt lat="45.024419680757426" lon="9.942067684269427"><ele>42.0</ele><time>2026-04-26T05:58:19.998Z</time></trkpt><trkpt lat="45.024340247347105" lon="9.942109367991744"><ele>42.0</ele><time>2026-04-26T05:58:20.998Z</time></trkpt><trkpt lat="45.02426444067112" lon="9.942166826992347"><ele>42.0</ele><time>2026-04-26T05:58:21.998Z</time></trkpt><trkpt lat="45.02419230922842" lon="9.942233496093419"><ele>42.0</ele><time>2026-04-26T05:58:22.998Z</time></trkpt><trkpt lat="45.02412407713933" lon="9.942309022256648"><ele>42.0</ele><time>2026-04-26T05:58:23.998Z</time></trkpt><trkpt lat="45.0240600697087" lon="9.942387229649752"><ele>42.0</ele><time>2026-04-26T05:58:24.998Z</time></trkpt><trkpt lat="45.02399740278012" lon="9.94246623285998"><ele>42.5</ele><time>2026-04-26T05:58:26Z</time></trkpt><trkpt lat="45.02393979918967" lon="9.942553150966353"><ele>43.0</ele><time>2026-04-26T05:58:27Z</time></trkpt><trkpt lat="45.023882205665224" lon="9.942644290844544"><ele>43.5</ele><time>2026-04-26T05:58:28Z</time></trkpt><trkpt lat="45.02382410050895" lon="9.94273031233615"><ele>44.0</ele><time>2026-04-26T05:58:29Z</time></trkpt><trkpt lat="45.023767368944625" lon="9.94281837778378"><ele>44.5</ele><time>2026-04-26T05:58:30Z</time></trkpt><trkpt lat="45.02370928249802" lon="9.942903320381523"><ele>45.0</ele><time>2026-04-26T05:58:31Z</time></trkpt><trkpt lat="45.02364838256279" lon="9.94298426244161"><ele>45.0</ele><time>2026-04-26T05:58:32Z</time></trkpt><trkpt lat="45.02358901597555" lon="9.943066185212622"><ele>45.0</ele><time>2026-04-26T05:58:33Z</time></trkpt><trkpt lat="45.023529467775866" lon="9.94315200766966"><ele>45.0</ele><time>2026-04-26T05:58:34Z</time></trkpt><trkpt lat="45.02347229883719" lon="9.943240173432363"><ele>45.0</ele><time>2026-04-26T05:58:35Z</time></trkpt><trkpt lat="45.02341165683379" lon="9.943325758087626"><ele>45.0</ele><time>2026-04-26T05:58:36Z</time></trkpt><trkpt lat="45.02335261902052" lon="9.943413728036392"><ele>45.0</ele><time>2026-04-26T05:58:37Z</time></trkpt><trkpt lat="45.023291001466575" lon="9.943502804388558"><ele>44.666666666666664</ele><time>2026-04-26T05:58:38Z</time></trkpt><trkpt lat="45.023231027348345" lon="9.943587089742056"><ele>44.333333333333336</ele><time>2026-04-26T05:58:39Z</time></trkpt><trkpt lat="45.023171379308195" lon="9.94367701724951"><ele>44.0</ele><time>2026-04-26T05:58:40Z</time></trkpt><trkpt lat="45.0231096738498" lon="9.94376642761481"><ele>43.66666666666667</ele><time>2026-04-26T05:58:41Z</time></trkpt><trkpt lat="45.02304914231867" lon="9.943855711703412"><ele>43.333333333333336</ele><time>2026-04-26T05:58:42Z</time></trkpt><trkpt lat="45.02298914048692" lon="9.943943790487234"><ele>43.0</ele><time>2026-04-26T05:58:43Z</time></trkpt><trkpt lat="45.02293059397314" lon="9.94403225960374"><ele>43.0</ele><time>2026-04-26T05:58:44Z</time></trkpt><trkpt lat="45.02287046465962" lon="9.94411957588704"><ele>43.0</ele><time>2026-04-26T05:58:45Z</time></trkpt><trkpt lat="45.02281185121152" lon="9.944204009048455"><ele>43.0</ele><time>2026-04-26T05:58:46Z</time></trkpt><trkpt lat="45.02275357089981" lon="9.944290500561166"><ele>43.0</ele><time>2026-04-26T05:58:47Z</time></trkpt><trkpt lat="45.02269740476217" lon="9.944379531534022"><ele>43.0</ele><time>2026-04-26T05:58:48Z</time></trkpt><trkpt lat="45.02265005255407" lon="9.944472660429758"><ele>43.0</ele><time>2026-04-26T05:58:49Z</time></trkpt><trkpt lat="45.02260326841067" lon="9.944574342397914"><ele>43.0</ele><time>2026-04-26T05:58:50Z</time></trkpt><trkpt lat="45.022564773785014" lon="9.944676160776174"><ele>43.0</ele><time>2026-04-26T05:58:51Z</time></trkpt><trkpt lat="45.022530645259764" lon="9.944785043330873"><ele>43.0</ele><time>2026-04-26T05:58:52Z</time></trkpt><trkpt lat="45.02249345578525" lon="9.944895610602694"><ele>43.0</ele><time>2026-04-26T05:58:53Z</time></trkpt><trkpt lat="45.02245718469717" lon="9.94500405864248"><ele>43.0</ele><time>2026-04-26T05:58:54Z</time></trkpt><trkpt lat="45.02242487281529" lon="9.945115086907293"><ele>43.0</ele><time>2026-04-26T05:58:55Z</time></trkpt><trkpt lat="45.02239177072424" lon="9.945225815498748"><ele>43.16666666666667</ele><time>2026-04-26T05:58:56Z</time></trkpt><trkpt lat="45.02235951935427" lon="9.94533486500984"><ele>43.333333333333336</ele><time>2026-04-26T05:58:57Z</time></trkpt><trkpt lat="45.022325886893185" lon="9.945444527680449"><ele>43.5</ele><time>2026-04-26T05:58:58Z</time></trkpt><trkpt lat="45.02229141277426" lon="9.945553166797426"><ele>43.666666666666664</ele><time>2026-04-26T05:58:59Z</time></trkpt><trkpt lat="45.0222578137226" lon="9.94565991995524"><ele>43.83333333333333</ele><time>2026-04-26T05:59:00Z</time></trkpt><trkpt lat="45.022224269662296" lon="9.945770110014323"><ele>44.0</ele><time>2026-04-26T05:59:01Z</time></trkpt><trkpt lat="45.022191810925314" lon="9.94587992369552"><ele>44.166666666666664</ele><time>2026-04-26T05:59:02Z</time></trkpt><trkpt lat="45.02216007632341" lon="9.94599034884418"><ele>44.33333333333333</ele><time>2026-04-26T05:59:03Z</time></trkpt><trkpt lat="45.022127929858996" lon="9.946100880743504"><ele>44.5</ele><time>2026-04-26T05:59:04Z</time></trkpt><trkpt lat="45.02209628216611" lon="9.946210708342663"><ele>44.666666666666664</ele><time>2026-04-26T05:59:05Z</time></trkpt><trkpt lat="45.02206374702352" lon="9.946318828345188"><ele>44.833333333333336</ele><time>2026-04-26T05:59:06Z</time></trkpt><trkpt lat="45.022029732858684" lon="9.946425433465558"><ele>45.0</ele><time>2026-04-26T05:59:07Z</time></trkpt><trkpt lat="45.021997436582865" lon="9.946532538222046"><ele>45.0</ele><time>2026-04-26T05:59:07.999Z</time></trkpt><trkpt lat="45.0219669027458" lon="9.946639046659243"><ele>45.0</ele><time>2026-04-26T05:59:08.999Z</time></trkpt><trkpt lat="45.0219355715189" lon="9.946746391536028"><ele>45.0</ele><time>2026-04-26T05:59:09.999Z</time></trkpt><trkpt lat="45.02190341701829" lon="9.946853475890217"><ele>45.0</ele><time>2026-04-26T05:59:10.999Z</time></trkpt><trkpt lat="45.021872119990356" lon="9.94696048091661"><ele>45.0</ele><time>2026-04-26T05:59:11.999Z</time></trkpt><trkpt lat="45.021840238266286" lon="9.947067317213078"><ele>45.0</ele><time>2026-04-26T05:59:12.999Z</time></trkpt><trkpt lat="45.021810057599026" lon="9.947175547051758"><ele>45.166666666666664</ele><time>2026-04-26T05:59:13.999Z</time></trkpt><trkpt lat="45.02178114987687" lon="9.947285984848724"><ele>45.333333333333336</ele><time>2026-04-26T05:59:14.999Z</time></trkpt><trkpt lat="45.02175097911423" lon="9.94739699449558"><ele>45.5</ele><time>2026-04-26T05:59:15.999Z</time></trkpt><trkpt lat="45.02172018980346" lon="9.947507133133062"><ele>45.66666666666667</ele><time>2026-04-26T05:59:16.999Z</time></trkpt><trkpt lat="45.02168943217464" lon="9.947619579078943"><ele>45.833333333333336</ele><time>2026-04-26T05:59:17.999Z</time></trkpt><trkpt lat="45.021661759947456" lon="9.947734156050961"><ele>46.0</ele><time>2026-04-26T05:59:18.999Z</time></trkpt><trkpt lat="45.02163531857544" lon="9.947851565232432"><ele>46.333333333333336</ele><time>2026-04-26T05:59:19.999Z</time></trkpt><trkpt lat="45.02161167643565" lon="9.947965997083816"><ele>46.66666666666667</ele><time>2026-04-26T05:59:20.999Z</time></trkpt><trkpt lat="45.021582999998714" lon="9.948079297485553"><ele>47.0</ele><time>2026-04-26T05:59:21.999Z</time></trkpt><trkpt lat="45.0215470904149" lon="9.948185378994106"><ele>47.333333333333336</ele><time>2026-04-26T05:59:22.999Z</time></trkpt><trkpt lat="45.021514838371225" lon="9.94829475778277"><ele>47.666666666666664</ele><time>2026-04-26T05:59:23.999Z</time></trkpt><trkpt lat="45.021476768127506" lon="9.948395458898213"><ele>48.0</ele><time>2026-04-26T05:59:24.999Z</time></trkpt><trkpt lat="45.02143864252168" lon="9.948494619532394"><ele>48.833333333333336</ele><time>2026-04-26T05:59:25.999Z</time></trkpt><trkpt lat="45.021393149230704" lon="9.948575934742193"><ele>49.66666666666667</ele><time>2026-04-26T05:59:26.999Z</time></trkpt><trkpt lat="45.021321693941985" lon="9.948603661538565"><ele>50.5</ele><time>2026-04-26T05:59:27.999Z</time></trkpt><trkpt lat="45.02124887619884" lon="9.948597879052922"><ele>51.333333333333336</ele><time>2026-04-26T05:59:28.999Z</time></trkpt><trkpt lat="45.02116818781965" lon="9.948515241022989"><ele>52.16666666666667</ele><time>2026-04-26T05:59:29.999Z</time></trkpt><trkpt lat="45.02110178483978" lon="9.948464244925582"><ele>53.0</ele><time>2026-04-26T05:59:30.999Z</time></trkpt><trkpt lat="45.021028119153314" lon="9.948429467273089"><ele>53.00000000000001</ele><time>2026-04-26T05:59:31.999Z</time></trkpt><trkpt lat="45.02095073286454" lon="9.948413316743641"><ele>53.0</ele><time>2026-04-26T05:59:32.999Z</time></trkpt><trkpt lat="45.02087293480079" lon="9.948406542847554"><ele>53.0</ele><time>2026-04-26T05:59:33.999Z</time></trkpt><trkpt lat="45.020798887917536" lon="9.948411147430956"><ele>53.0</ele><time>2026-04-26T05:59:34.999Z</time></trkpt><trkpt lat="45.02072102631107" lon="9.94839705557806"><ele>53.00000000000001</ele><time>2026-04-26T05:59:35.999Z</time></trkpt><trkpt lat="45.02064379410795" lon="9.948373851473514"><ele>53.0</ele><time>2026-04-26T05:59:36.999Z</time></trkpt><trkpt lat="45.02056258318263" lon="9.948351595728374"><ele>52.16666666666667</ele><time>2026-04-26T05:59:37.999Z</time></trkpt><trkpt lat="45.020484553180246" lon="9.948338188567792"><ele>51.333333333333336</ele><time>2026-04-26T05:59:38.999Z</time></trkpt><trkpt lat="45.02040593589374" lon="9.948330028060221"><ele>50.5</ele><time>2026-04-26T05:59:39.999Z</time></trkpt><trkpt lat="45.02032641898565" lon="9.948315261484298"><ele>49.66666666666667</ele><time>2026-04-26T05:59:40.999Z</time></trkpt><trkpt lat="45.02024352128694" lon="9.94830204650843"><ele>48.833333333333336</ele><time>2026-04-26T05:59:41.999Z</time></trkpt><trkpt lat="45.020161156681695" lon="9.948292767152921"><ele>48.0</ele><time>2026-04-26T05:59:42.999Z</time></trkpt><trkpt lat="45.02007828120713" lon="9.948286350784821"><ele>48.0</ele><time>2026-04-26T05:59:43.999Z</time></trkpt><trkpt lat="45.01999710396001" lon="9.948280425815176"><ele>48.0</ele><time>2026-04-26T05:59:44.999Z</time></trkpt><trkpt lat="45.019912302359" lon="9.948274731422504"><ele>48.0</ele><time>2026-04-26T05:59:45.999Z</time></trkpt><trkpt lat="45.01983251473572" lon="9.94826649653479"><ele>48.0</ele><time>2026-04-26T05:59:46.999Z</time></trkpt><trkpt lat="45.01975213914585" lon="9.948268767914687"><ele>48.0</ele><time>2026-04-26T05:59:47.999Z</time></trkpt><trkpt lat="45.019673058677355" lon="9.948266303175544"><ele>48.0</ele><time>2026-04-26T05:59:48.999Z</time></trkpt><trkpt lat="45.01959478958181" lon="9.948256664571314"><ele>47.666666666666664</ele><time>2026-04-26T05:59:49.999Z</time></trkpt><trkpt lat="45.01951545970113" lon="9.948244430967431"><ele>47.333333333333336</ele><time>2026-04-26T05:59:50.999Z</time></trkpt><trkpt lat="45.019434193702075" lon="9.948230257605589"><ele>47.0</ele><time>2026-04-26T05:59:51.999Z</time></trkpt><trkpt lat="45.01935345710037" lon="9.948221247535589"><ele>46.66666666666667</ele><time>2026-04-26T05:59:52.999Z</time></trkpt><trkpt lat="45.01927424070996" lon="9.948212497735208"><ele>46.333333333333336</ele><time>2026-04-26T05:59:53.999Z</time></trkpt><trkpt lat="45.01919272646563" lon="9.948199895941153"><ele>46.0</ele><time>2026-04-26T05:59:54.999Z</time></trkpt><trkpt lat="45.019115096350205" lon="9.94818757742676"><ele>46.0</ele><time>2026-04-26T05:59:55.999Z</time></trkpt><trkpt lat="45.019033024623745" lon="9.948182561815425"><ele>46.0</ele><time>2026-04-26T05:59:56.999Z</time></trkpt><trkpt lat="45.01895046892787" lon="9.948172389913013"><ele>46.0</ele><time>2026-04-26T05:59:57.999Z</time></trkpt><trkpt lat="45.018865966149704" lon="9.948170577466428"><ele>46.0</ele><time>2026-04-26T05:59:58.999Z</time></trkpt><trkpt lat="45.01878690802939" lon="9.948135994590537"><ele>46.0</ele><time>2026-04-26T05:59:59.999Z</time></trkpt><trkpt lat="45.0187078576473" lon="9.948100009953194"><ele>46.0</ele><time>2026-04-26T06:00:00.999Z</time></trkpt><trkpt lat="45.01863150094344" lon="9.948052360691197"><ele>46.0</ele><time>2026-04-26T06:00:01.999Z</time></trkpt><trkpt lat="45.018555684371265" lon="9.948003271647428"><ele>46.0</ele><time>2026-04-26T06:00:02.998Z</time></trkpt><trkpt lat="45.01848183578811" lon="9.947950404573074"><ele>46.0</ele><time>2026-04-26T06:00:03.998Z</time></trkpt><trkpt lat="45.01840904813611" lon="9.947898096873814"><ele>46.0</ele><time>2026-04-26T06:00:04.998Z</time></trkpt><trkpt lat="45.018331704017804" lon="9.947848641071172"><ele>46.0</ele><time>2026-04-26T06:00:05.998Z</time></trkpt><trkpt lat="45.01825304957286" lon="9.947806145267487"><ele>46.0</ele><time>2026-04-26T06:00:06.998Z</time></trkpt><trkpt lat="45.01817686339217" lon="9.947765774670394"><ele>46.0</ele><time>2026-04-26T06:00:07.998Z</time></trkpt><trkpt lat="45.01809706798321" lon="9.947729656805988"><ele>46.0</ele><time>2026-04-26T06:00:08.998Z</time></trkpt><trkpt lat="45.01801612475058" lon="9.947693999514994"><ele>46.0</ele><time>2026-04-26T06:00:09.998Z</time></trkpt><trkpt lat="45.0179361894102" lon="9.947657663309204"><ele>46.0</ele><time>2026-04-26T06:00:10.998Z</time></trkpt><trkpt lat="45.017857594502075" lon="9.947621747790976"><ele>46.0</ele><time>2026-04-26T06:00:11.998Z</time></trkpt><trkpt lat="45.01777691819191" lon="9.947583729988096"><ele>46.0</ele><time>2026-04-26T06:00:12.998Z</time></trkpt><trkpt lat="45.01769627376112" lon="9.947549680587127"><ele>45.833333333333336</ele><time>2026-04-26T06:00:13.998Z</time></trkpt><trkpt lat="45.01761418614851" lon="9.94751465082608"><ele>45.66666666666667</ele><time>2026-04-26T06:00:14.998Z</time></trkpt><trkpt lat="45.017533672882784" lon="9.94748205881747"><ele>45.5</ele><time>2026-04-26T06:00:15.998Z</time></trkpt><trkpt lat="45.01745314128628" lon="9.947451801166013"><ele>45.333333333333336</ele><time>2026-04-26T06:00:16.998Z</time></trkpt><trkpt lat="45.01737278093834" lon="9.94741976952221"><ele>45.166666666666664</ele><time>2026-04-26T06:00:17.998Z</time></trkpt><trkpt lat="45.017291657117866" lon="9.94738978084722"><ele>45.0</ele><time>2026-04-26T06:00:18.998Z</time></trkpt><trkpt lat="45.01721170551571" lon="9.947360960017466"><ele>45.0</ele><time>2026-04-26T06:00:19.998Z</time></trkpt><trkpt lat="45.01713122762749" lon="9.947332387783916"><ele>45.0</ele><time>2026-04-26T06:00:20.998Z</time></trkpt><trkpt lat="45.01704995250672" lon="9.947303613946016"><ele>45.0</ele><time>2026-04-26T06:00:21.998Z</time></trkpt><trkpt lat="45.01697030675973" lon="9.94727379751672"><ele>45.0</ele><time>2026-04-26T06:00:22.998Z</time></trkpt><trkpt lat="45.0168912478883" lon="9.947240153818184"><ele>45.0</ele><time>2026-04-26T06:00:23.998Z</time></trkpt><trkpt lat="45.01681258364638" lon="9.947206016173718"><ele>45.0</ele><time>2026-04-26T06:00:24.998Z</time></trkpt><trkpt lat="45.016733976434004" lon="9.947170648878458"><ele>45.0</ele><time>2026-04-26T06:00:25.998Z</time></trkpt><trkpt lat="45.01665508319069" lon="9.947132484679832"><ele>45.0</ele><time>2026-04-26T06:00:26.998Z</time></trkpt><trkpt lat="45.01657783089303" lon="9.947092986907112"><ele>45.0</ele><time>2026-04-26T06:00:27.998Z</time></trkpt><trkpt lat="45.016501191186244" lon="9.947049438511412"><ele>45.0</ele><time>2026-04-26T06:00:28.998Z</time></trkpt><trkpt lat="45.01642393536825" lon="9.94700377654394"><ele>45.0</ele><time>2026-04-26T06:00:29.998Z</time></trkpt><trkpt lat="45.0163481024561" lon="9.946958855025223"><ele>45.0</ele><time>2026-04-26T06:00:30.998Z</time></trkpt><trkpt lat="45.016275597816566" lon="9.946909949052008"><ele>45.0</ele><time>2026-04-26T06:00:32Z</time></trkpt><trkpt lat="45.01620278210259" lon="9.946855597353126"><ele>45.0</ele><time>2026-04-26T06:00:33Z</time></trkpt><trkpt lat="45.01613135350533" lon="9.946803214516635"><ele>45.0</ele><time>2026-04-26T06:00:34Z</time></trkpt><trkpt lat="45.016060956370914" lon="9.946745249736948"><ele>45.0</ele><time>2026-04-26T06:00:35Z</time></trkpt><trkpt lat="45.01598749892216" lon="9.94668842061812"><ele>45.0</ele><time>2026-04-26T06:00:36Z</time></trkpt><trkpt lat="45.015918495205845" lon="9.946629319661064"><ele>45.0</ele><time>2026-04-26T06:00:37Z</time></trkpt><trkpt lat="45.01584983602125" lon="9.946570779715346"><ele>45.166666666666664</ele><time>2026-04-26T06:00:38Z</time></trkpt><trkpt lat="45.01577906798325" lon="9.946513765347666"><ele>45.333333333333336</ele><time>2026-04-26T06:00:39Z</time></trkpt><trkpt lat="45.01570748519673" lon="9.946455463582327"><ele>45.5</ele><time>2026-04-26T06:00:40Z</time></trkpt><trkpt lat="45.01563576737093" lon="9.94639581779111"><ele>45.66666666666667</ele><time>2026-04-26T06:00:41Z</time></trkpt><trkpt lat="45.015565352452" lon="9.946336779064545"><ele>45.833333333333336</ele><time>2026-04-26T06:00:42Z</time></trkpt><trkpt lat="45.01549492436936" lon="9.94627804790627"><ele>46.0</ele><time>2026-04-26T06:00:43Z</time></trkpt><trkpt lat="45.01542500553031" lon="9.946221001800147"><ele>46.0</ele><time>2026-04-26T06:00:44Z</time></trkpt><trkpt lat="45.01535218835199" lon="9.94616270333563"><ele>46.0</ele><time>2026-04-26T06:00:45Z</time></trkpt><trkpt lat="45.015279086562934" lon="9.946106684096536"><ele>46.0</ele><time>2026-04-26T06:00:46Z</time></trkpt><trkpt lat="45.015207112459805" lon="9.946046670732443"><ele>46.0</ele><time>2026-04-26T06:00:47Z</time></trkpt><trkpt lat="45.01513706231482" lon="9.945986725141987"><ele>46.0</ele><time>2026-04-26T06:00:48Z</time></trkpt><trkpt lat="45.01506586763108" lon="9.94592553711852"><ele>46.0</ele><time>2026-04-26T06:00:49Z</time></trkpt><trkpt lat="45.0149953531359" lon="9.945867441491128"><ele>45.66666666666667</ele><time>2026-04-26T06:00:50Z</time></trkpt><trkpt lat="45.014923389018364" lon="9.945810118861736"><ele>45.333333333333336</ele><time>2026-04-26T06:00:51Z</time></trkpt><trkpt lat="45.014851128114756" lon="9.945749439181494"><ele>45.0</ele><time>2026-04-26T06:00:52Z</time></trkpt><trkpt lat="45.01477830559809" lon="9.94569004629426"><ele>44.666666666666664</ele><time>2026-04-26T06:00:53Z</time></trkpt><trkpt lat="45.01470748480997" lon="9.94563065898886"><ele>44.33333333333333</ele><time>2026-04-26T06:00:54Z</time></trkpt><trkpt lat="45.014636274914096" lon="9.945571505306926"><ele>44.0</ele><time>2026-04-26T06:00:55Z</time></trkpt><trkpt lat="45.01456330186397" lon="9.945510963478615"><ele>44.0</ele><time>2026-04-26T06:00:56Z</time></trkpt><trkpt lat="45.014490496060255" lon="9.945453926376727"><ele>44.0</ele><time>2026-04-26T06:00:57Z</time></trkpt><trkpt lat="45.01441938746103" lon="9.945396712996661"><ele>44.0</ele><time>2026-04-26T06:00:58Z</time></trkpt><trkpt lat="45.01434782135105" lon="9.945338696403022"><ele>44.0</ele><time>2026-04-26T06:00:59Z</time></trkpt><trkpt lat="45.01427567604533" lon="9.945282180692343"><ele>44.0</ele><time>2026-04-26T06:01:00Z</time></trkpt><trkpt lat="45.0142035916328" lon="9.945221295862595"><ele>44.0</ele><time>2026-04-26T06:01:01Z</time></trkpt><trkpt lat="45.014130533129446" lon="9.945162500964724"><ele>44.0</ele><time>2026-04-26T06:01:02Z</time></trkpt><trkpt lat="45.01405995112832" lon="9.94510472154488"><ele>44.0</ele><time>2026-04-26T06:01:03Z</time></trkpt><trkpt lat="45.01398886840392" lon="9.945046115759984"><ele>44.0</ele><time>2026-04-26T06:01:04Z</time></trkpt><trkpt lat="45.013917502074925" lon="9.944990815468682"><ele>44.0</ele><time>2026-04-26T06:01:05Z</time></trkpt><trkpt lat="45.01384422891137" lon="9.944932963368046"><ele>44.0</ele><time>2026-04-26T06:01:06Z</time></trkpt><trkpt lat="45.013771477387905" lon="9.944876916844738"><ele>44.0</ele><time>2026-04-26T06:01:07Z</time></trkpt><trkpt lat="45.01369941014493" lon="9.94482180766057"><ele>44.0</ele><time>2026-04-26T06:01:08Z</time></trkpt><trkpt lat="45.01362721338198" lon="9.944768157620917"><ele>44.0</ele><time>2026-04-26T06:01:09Z</time></trkpt><trkpt lat="45.013553600777506" lon="9.944715373305883"><ele>44.0</ele><time>2026-04-26T06:01:10Z</time></trkpt><trkpt lat="45.01347899870586" lon="9.944663816331097"><ele>44.0</ele><time>2026-04-26T06:01:11Z</time></trkpt><trkpt lat="45.01340432199597" lon="9.944615235273082"><ele>44.0</ele><time>2026-04-26T06:01:12Z</time></trkpt><trkpt lat="45.01332882046727" lon="9.944570284485023"><ele>44.0</ele><time>2026-04-26T06:01:12.999Z</time></trkpt><trkpt lat="45.01325337516127" lon="9.944524130324655"><ele>44.0</ele><time>2026-04-26T06:01:13.999Z</time></trkpt><trkpt lat="45.01317681010325" lon="9.944480283358445"><ele>44.0</ele><time>2026-04-26T06:01:14.999Z</time></trkpt><trkpt lat="45.01309949727737" lon="9.944441088226204"><ele>44.0</ele><time>2026-04-26T06:01:15.999Z</time></trkpt><trkpt lat="45.013021550135335" lon="9.944406545481081"><ele>44.0</ele><time>2026-04-26T06:01:16.999Z</time></trkpt><trkpt lat="45.012941082423836" lon="9.94437750954036"><ele>44.0</ele><time>2026-04-26T06:01:17.999Z</time></trkpt><trkpt lat="45.0128605581265" lon="9.944352332829885"><ele>44.0</ele><time>2026-04-26T06:01:18.999Z</time></trkpt><trkpt lat="45.01277913597" lon="9.944328905277073"><ele>44.0</ele><time>2026-04-26T06:01:19.999Z</time></trkpt><trkpt lat="45.0126963787228" lon="9.944303908784919"><ele>44.0</ele><time>2026-04-26T06:01:20.999Z</time></trkpt><trkpt lat="45.012614873523056" lon="9.944282345647368"><ele>44.0</ele><time>2026-04-26T06:01:21.999Z</time></trkpt><trkpt lat="45.01253385793912" lon="9.944263989271468"><ele>44.0</ele><time>2026-04-26T06:01:22.999Z</time></trkpt><trkpt lat="45.01245236310997" lon="9.94424604262049"><ele>44.0</ele><time>2026-04-26T06:01:23.999Z</time></trkpt><trkpt lat="45.01237156787299" lon="9.944224407317511"><ele>44.0</ele><time>2026-04-26T06:01:24.999Z</time></trkpt><trkpt lat="45.01229008784799" lon="9.944203156763656"><ele>44.33333333333333</ele><time>2026-04-26T06:01:25.999Z</time></trkpt><trkpt lat="45.01220911899987" lon="9.944181817937674"><ele>44.666666666666664</ele><time>2026-04-26T06:01:26.999Z</time></trkpt><trkpt lat="45.01212743436277" lon="9.94416124570772"><ele>45.0</ele><time>2026-04-26T06:01:27.999Z</time></trkpt><trkpt lat="45.012048023153824" lon="9.944142160602862"><ele>45.333333333333336</ele><time>2026-04-26T06:01:28.999Z</time></trkpt><trkpt lat="45.011966353740235" lon="9.944120271102909"><ele>45.66666666666667</ele><time>2026-04-26T06:01:29.999Z</time></trkpt><trkpt lat="45.01188408024989" lon="9.944096763965831"><ele>46.0</ele><time>2026-04-26T06:01:30.999Z</time></trkpt><trkpt lat="45.01180132254668" lon="9.944073143725591"><ele>46.0</ele><time>2026-04-26T06:01:31.999Z</time></trkpt><trkpt lat="45.01171791541019" lon="9.944049174015026"><ele>46.0</ele><time>2026-04-26T06:01:32.999Z</time></trkpt><trkpt lat="45.011636320704845" lon="9.94402431222239"><ele>46.0</ele><time>2026-04-26T06:01:33.999Z</time></trkpt><trkpt lat="45.01155389483427" lon="9.943997858788284"><ele>46.0</ele><time>2026-04-26T06:01:34.999Z</time></trkpt><trkpt lat="45.01147252276901" lon="9.943970498067884"><ele>46.0</ele><time>2026-04-26T06:01:35.999Z</time></trkpt><trkpt lat="45.01139094898475" lon="9.943944477437263"><ele>46.0</ele><time>2026-04-26T06:01:36.999Z</time></trkpt><trkpt lat="45.01130905386301" lon="9.943919639147696"><ele>46.0</ele><time>2026-04-26T06:01:37.999Z</time></trkpt><trkpt lat="45.01122811338751" lon="9.943894077610377"><ele>46.0</ele><time>2026-04-26T06:01:38.999Z</time></trkpt><trkpt lat="45.011146047009916" lon="9.943866740283623"><ele>46.0</ele><time>2026-04-26T06:01:39.999Z</time></trkpt><trkpt lat="45.01106282567731" lon="9.9438403017543"><ele>46.0</ele><time>2026-04-26T06:01:40.999Z</time></trkpt><trkpt lat="45.01098019446884" lon="9.943815360454897"><ele>46.0</ele><time>2026-04-26T06:01:41.999Z</time></trkpt><trkpt lat="45.01089739556917" lon="9.94379117734311"><ele>46.0</ele><time>2026-04-26T06:01:42.999Z</time></trkpt><trkpt lat="45.01081377754331" lon="9.943764308548495"><ele>46.0</ele><time>2026-04-26T06:01:43.999Z</time></trkpt><trkpt lat="45.01073119354689" lon="9.943736442804878"><ele>46.0</ele><time>2026-04-26T06:01:44.999Z</time></trkpt><trkpt lat="45.01064863229143" lon="9.943710146133935"><ele>46.0</ele><time>2026-04-26T06:01:45.999Z</time></trkpt><trkpt lat="45.01056618076603" lon="9.9436843985798"><ele>46.0</ele><time>2026-04-26T06:01:46.999Z</time></trkpt><trkpt lat="45.01048297181073" lon="9.943658628433875"><ele>46.0</ele><time>2026-04-26T06:01:47.999Z</time></trkpt><trkpt lat="45.0103995767683" lon="9.943630765407185"><ele>46.0</ele><time>2026-04-26T06:01:48.999Z</time></trkpt><trkpt lat="45.010317908853516" lon="9.943604312871287"><ele>46.0</ele><time>2026-04-26T06:01:49.999Z</time></trkpt><trkpt lat="45.01023497823961" lon="9.943574473681684"><ele>46.0</ele><time>2026-04-26T06:01:50.999Z</time></trkpt><trkpt lat="45.01015329710969" lon="9.943544341241841"><ele>46.0</ele><time>2026-04-26T06:01:51.999Z</time></trkpt><trkpt lat="45.01007146202879" lon="9.943516357295474"><ele>46.0</ele><time>2026-04-26T06:01:52.999Z</time></trkpt><trkpt lat="45.009990909186925" lon="9.943486051243825"><ele>46.0</ele><time>2026-04-26T06:01:53.999Z</time></trkpt><trkpt lat="45.00990880406923" lon="9.943458352742534"><ele>46.0</ele><time>2026-04-26T06:01:54.999Z</time></trkpt><trkpt lat="45.009828252790534" lon="9.943430502995371"><ele>45.833333333333336</ele><time>2026-04-26T06:01:55.999Z</time></trkpt><trkpt lat="45.009748097853276" lon="9.943401432207729"><ele>45.66666666666667</ele><time>2026-04-26T06:01:56.999Z</time></trkpt><trkpt lat="45.00966801292956" lon="9.943371656523944"><ele>45.5</ele><time>2026-04-26T06:01:57.999Z</time></trkpt><trkpt lat="45.00958679474958" lon="9.94334146980656"><ele>45.333333333333336</ele><time>2026-04-26T06:01:58.999Z</time></trkpt><trkpt lat="45.00950643377421" lon="9.94331268646729"><ele>45.166666666666664</ele><time>2026-04-26T06:01:59.999Z</time></trkpt><trkpt lat="45.00942537379752" lon="9.94328109838391"><ele>45.0</ele><time>2026-04-26T06:02:00.999Z</time></trkpt><trkpt lat="45.00934455323796" lon="9.943252804814493"><ele>45.0</ele><time>2026-04-26T06:02:01.999Z</time></trkpt><trkpt lat="45.00926291385844" lon="9.943221710982897"><ele>45.0</ele><time>2026-04-26T06:02:02.999Z</time></trkpt><trkpt lat="45.00918203887994" lon="9.94318864165141"><ele>45.0</ele><time>2026-04-26T06:02:03.999Z</time></trkpt><trkpt lat="45.00910022142383" lon="9.943159327148734"><ele>45.0</ele><time>2026-04-26T06:02:04.999Z</time></trkpt><trkpt lat="45.009019109376744" lon="9.943130281404674"><ele>45.0</ele><time>2026-04-26T06:02:05.999Z</time></trkpt><trkpt lat="45.00893711143817" lon="9.9431009855968"><ele>45.0</ele><time>2026-04-26T06:02:06.999Z</time></trkpt><trkpt lat="45.008856244804555" lon="9.943069396732733"><ele>44.833333333333336</ele><time>2026-04-26T06:02:07.998Z</time></trkpt><trkpt lat="45.008775450226096" lon="9.94303981109156"><ele>44.666666666666664</ele><time>2026-04-26T06:02:08.998Z</time></trkpt><trkpt lat="45.008694064828276" lon="9.943008699631774"><ele>44.5</ele><time>2026-04-26T06:02:09.998Z</time></trkpt><trkpt lat="45.00861217621544" lon="9.942976991391186"><ele>44.33333333333333</ele><time>2026-04-26T06:02:10.998Z</time></trkpt><trkpt lat="45.008529767109295" lon="9.942946763880396"><ele>44.166666666666664</ele><time>2026-04-26T06:02:11.998Z</time></trkpt><trkpt lat="45.00844836982893" lon="9.942915750112402"><ele>44.0</ele><time>2026-04-26T06:02:12.998Z</time></trkpt><trkpt lat="45.00836718217857" lon="9.942883272982202"><ele>44.5</ele><time>2026-04-26T06:02:13.998Z</time></trkpt><trkpt lat="45.008284699874366" lon="9.94285163276977"><ele>45.0</ele><time>2026-04-26T06:02:14.998Z</time></trkpt><trkpt lat="45.00820325621373" lon="9.942820617614071"><ele>45.5</ele><time>2026-04-26T06:02:15.998Z</time></trkpt><trkpt lat="45.008121727602635" lon="9.942791490512073"><ele>46.0</ele><time>2026-04-26T06:02:16.998Z</time></trkpt><trkpt lat="45.008041078885576" lon="9.942758489416468"><ele>46.5</ele><time>2026-04-26T06:02:17.998Z</time></trkpt><trkpt lat="45.007959740065566" lon="9.942726860161898"><ele>47.0</ele><time>2026-04-26T06:02:18.998Z</time></trkpt><trkpt lat="45.007879356896886" lon="9.942696057127167"><ele>47.0</ele><time>2026-04-26T06:02:19.998Z</time></trkpt><trkpt lat="45.00779738767987" lon="9.942664644443123"><ele>47.0</ele><time>2026-04-26T06:02:20.998Z</time></trkpt><trkpt lat="45.00771574212512" lon="9.9426322618623"><ele>47.0</ele><time>2026-04-26T06:02:21.998Z</time></trkpt><trkpt lat="45.00763329769851" lon="9.942601120256882"><ele>47.0</ele><time>2026-04-26T06:02:22.998Z</time></trkpt><trkpt lat="45.00755290570434" lon="9.942572487582451"><ele>47.0</ele><time>2026-04-26T06:02:23.998Z</time></trkpt><trkpt lat="45.00747065036926" lon="9.942541021278597"><ele>47.0</ele><time>2026-04-26T06:02:24.998Z</time></trkpt><trkpt lat="45.00738929539789" lon="9.942508368984631"><ele>47.166666666666664</ele><time>2026-04-26T06:02:25.998Z</time></trkpt><trkpt lat="45.00730673189972" lon="9.942479221210137"><ele>47.33333333333333</ele><time>2026-04-26T06:02:26.998Z</time></trkpt><trkpt lat="45.00722730345986" lon="9.942446459059456"><ele>47.5</ele><time>2026-04-26T06:02:27.998Z</time></trkpt><trkpt lat="45.007143939871085" lon="9.942414158274257"><ele>47.666666666666664</ele><time>2026-04-26T06:02:28.998Z</time></trkpt><trkpt lat="45.00706172910245" lon="9.942383743012313"><ele>47.833333333333336</ele><time>2026-04-26T06:02:29.998Z</time></trkpt><trkpt lat="45.00698130522143" lon="9.9423545247672"><ele>48.0</ele><time>2026-04-26T06:02:30.998Z</time></trkpt><trkpt lat="45.00689907884281" lon="9.942323107623611"><ele>48.0</ele><time>2026-04-26T06:02:31.998Z</time></trkpt><trkpt lat="45.00681734532679" lon="9.942289922317476"><ele>48.0</ele><time>2026-04-26T06:02:32.998Z</time></trkpt><trkpt lat="45.00673584672597" lon="9.942262235336996"><ele>48.0</ele><time>2026-04-26T06:02:33.998Z</time></trkpt><trkpt lat="45.006653297471665" lon="9.942230312910986"><ele>48.0</ele><time>2026-04-26T06:02:34.998Z</time></trkpt><trkpt lat="45.00657189139324" lon="9.942199182370786"><ele>48.0</ele><time>2026-04-26T06:02:35.998Z</time></trkpt><trkpt lat="45.00648838093735" lon="9.942172646997221"><ele>48.0</ele><time>2026-04-26T06:02:36.998Z</time></trkpt><trkpt lat="45.00640853784328" lon="9.942135959926603"><ele>48.166666666666664</ele><time>2026-04-26T06:02:38Z</time></trkpt><trkpt lat="45.00632823784919" lon="9.942094843066105"><ele>48.33333333333333</ele><time>2026-04-26T06:02:39Z</time></trkpt><trkpt lat="45.00625303468012" lon="9.942042972510428"><ele>48.5</ele><time>2026-04-26T06:02:40Z</time></trkpt><trkpt lat="45.00617780654307" lon="9.941986773609864"><ele>48.666666666666664</ele><time>2026-04-26T06:02:41Z</time></trkpt><trkpt lat="45.0061041754509" lon="9.941926551398867"><ele>48.83333333333333</ele><time>2026-04-26T06:02:42Z</time></trkpt><trkpt lat="45.006034739097785" lon="9.94185553134998"><ele>49.0</ele><time>2026-04-26T06:02:43Z</time></trkpt><trkpt lat="45.005966832758126" lon="9.94178295875244"><ele>48.99999999999999</ele><time>2026-04-26T06:02:44Z</time></trkpt><trkpt lat="45.00590218979856" lon="9.941706162682271"><ele>49.0</ele><time>2026-04-26T06:02:45Z</time></trkpt><trkpt lat="45.00583553008759" lon="9.941630836944775"><ele>49.0</ele><time>2026-04-26T06:02:46Z</time></trkpt><trkpt lat="45.005771291539574" lon="9.941554018127938"><ele>49.0</ele><time>2026-04-26T06:02:47Z</time></trkpt><trkpt lat="45.00570770966294" lon="9.941477353021178"><ele>48.99999999999999</ele><time>2026-04-26T06:02:48Z</time></trkpt><trkpt lat="45.00564408948378" lon="9.941399807168333"><ele>49.0</ele><time>2026-04-26T06:02:49Z</time></trkpt><trkpt lat="45.005582163500165" lon="9.941322885749551"><ele>48.99999999999999</ele><time>2026-04-26T06:02:50Z</time></trkpt><trkpt lat="45.005518902121544" lon="9.941244508196077"><ele>49.0</ele><time>2026-04-26T06:02:51Z</time></trkpt><trkpt lat="45.00545488275426" lon="9.941167008065491"><ele>49.0</ele><time>2026-04-26T06:02:52Z</time></trkpt><trkpt lat="45.005389696778174" lon="9.94109032213427"><ele>49.0</ele><time>2026-04-26T06:02:53Z</time></trkpt><trkpt lat="45.005324949900015" lon="9.941014500897278"><ele>48.99999999999999</ele><time>2026-04-26T06:02:54Z</time></trkpt><trkpt lat="45.005262928214265" lon="9.940934071980937"><ele>49.0</ele><time>2026-04-26T06:02:55Z</time></trkpt><trkpt lat="45.0051999752523" lon="9.940855816781497"><ele>48.83333333333333</ele><time>2026-04-26T06:02:56Z</time></trkpt><trkpt lat="45.00513681101708" lon="9.94077876475064"><ele>48.666666666666664</ele><time>2026-04-26T06:02:57Z</time></trkpt><trkpt lat="45.005073639274045" lon="9.94070334938386"><ele>48.5</ele><time>2026-04-26T06:02:58Z</time></trkpt><trkpt lat="45.00501146617416" lon="9.940627453084431"><ele>48.33333333333333</ele><time>2026-04-26T06:02:59Z</time></trkpt><trkpt lat="45.004948287257974" lon="9.940552834507322"><ele>48.166666666666664</ele><time>2026-04-26T06:03:00Z</time></trkpt><trkpt lat="45.004886047222186" lon="9.940476358754758"><ele>48.0</ele><time>2026-04-26T06:03:01Z</time></trkpt><trkpt lat="45.00482406798531" lon="9.940401497425254"><ele>48.0</ele><time>2026-04-26T06:03:02Z</time></trkpt><trkpt lat="45.00476196500518" lon="9.940328432059653"><ele>48.0</ele><time>2026-04-26T06:03:03Z</time></trkpt><trkpt lat="45.00470053153824" lon="9.940253648179556"><ele>48.0</ele><time>2026-04-26T06:03:04Z</time></trkpt><trkpt lat="45.0046385854908" lon="9.940180045512886"><ele>48.0</ele><time>2026-04-26T06:03:05Z</time></trkpt><trkpt lat="45.00457630340624" lon="9.9401051607382"><ele>48.0</ele><time>2026-04-26T06:03:06Z</time></trkpt><trkpt lat="45.0045135983074" lon="9.94002932810287"><ele>48.0</ele><time>2026-04-26T06:03:07Z</time></trkpt><trkpt lat="45.00445080147042" lon="9.939956304179153"><ele>48.0</ele><time>2026-04-26T06:03:08Z</time></trkpt><trkpt lat="45.0043892334017" lon="9.939883291537308"><ele>48.0</ele><time>2026-04-26T06:03:09Z</time></trkpt><trkpt lat="45.00432693128998" lon="9.939807346354243"><ele>48.0</ele><time>2026-04-26T06:03:10Z</time></trkpt><trkpt lat="45.004265716838745" lon="9.939731813181721"><ele>48.0</ele><time>2026-04-26T06:03:11Z</time></trkpt><trkpt lat="45.00420396612394" lon="9.939658089980494"><ele>48.0</ele><time>2026-04-26T06:03:12Z</time></trkpt><trkpt lat="45.00414266571163" lon="9.93958512275043"><ele>48.0</ele><time>2026-04-26T06:03:13Z</time></trkpt><trkpt lat="45.00408072737246" lon="9.939511305967027"><ele>47.833333333333336</ele><time>2026-04-26T06:03:14Z</time></trkpt><trkpt lat="45.004018322234806" lon="9.939436156218237"><ele>47.666666666666664</ele><time>2026-04-26T06:03:15Z</time></trkpt><trkpt lat="45.00395546021958" lon="9.93936492920858"><ele>47.5</ele><time>2026-04-26T06:03:16Z</time></trkpt><trkpt lat="45.003891942155384" lon="9.939292923205851"><ele>47.33333333333333</ele><time>2026-04-26T06:03:17Z</time></trkpt><trkpt lat="45.00382795860969" lon="9.939218497751428"><ele>47.166666666666664</ele><time>2026-04-26T06:03:17.999Z</time></trkpt><trkpt lat="45.00376322197588" lon="9.93914845032955"><ele>47.0</ele><time>2026-04-26T06:03:18.999Z</time></trkpt><trkpt lat="45.00369644624513" lon="9.939078317974811"><ele>47.0</ele><time>2026-04-26T06:03:19.999Z</time></trkpt><trkpt lat="45.00363084405835" lon="9.93900896348092"><ele>47.0</ele><time>2026-04-26T06:03:20.999Z</time></trkpt><trkpt lat="45.003564208516515" lon="9.938943690560787"><ele>47.0</ele><time>2026-04-26T06:03:21.999Z</time></trkpt><trkpt lat="45.00349620987192" lon="9.938877688710509"><ele>47.0</ele><time>2026-04-26T06:03:22.999Z</time></trkpt><trkpt lat="45.0034280528655" lon="9.938813328080355"><ele>47.0</ele><time>2026-04-26T06:03:23.999Z</time></trkpt><trkpt lat="45.00336055742601" lon="9.938749264076158"><ele>47.0</ele><time>2026-04-26T06:03:24.999Z</time></trkpt><trkpt lat="45.00329143574463" lon="9.938687229951146"><ele>47.5</ele><time>2026-04-26T06:03:25.999Z</time></trkpt><trkpt lat="45.00322057184639" lon="9.938629151553902"><ele>48.0</ele><time>2026-04-26T06:03:26.999Z</time></trkpt><trkpt lat="45.00315084965069" lon="9.938569415231687"><ele>48.5</ele><time>2026-04-26T06:03:27.999Z</time></trkpt><trkpt lat="45.00308113835721" lon="9.93851054476562"><ele>49.0</ele><time>2026-04-26T06:03:28.999Z</time></trkpt><trkpt lat="45.00301238006788" lon="9.93844856148408"><ele>49.50000000000001</ele><time>2026-04-26T06:03:29.999Z</time></trkpt><trkpt lat="45.0029431571703" lon="9.938388605404413"><ele>50.0</ele><time>2026-04-26T06:03:30.999Z</time></trkpt><trkpt lat="45.00287478656225" lon="9.938329700825536"><ele>49.833333333333336</ele><time>2026-04-26T06:03:31.999Z</time></trkpt><trkpt lat="45.00280750545783" lon="9.938266736700673"><ele>49.66666666666667</ele><time>2026-04-26T06:03:32.999Z</time></trkpt><trkpt lat="45.00273820701106" lon="9.938206762852868"><ele>49.5</ele><time>2026-04-26T06:03:33.999Z</time></trkpt><trkpt lat="45.00267000840466" lon="9.938145701680503"><ele>49.33333333333333</ele><time>2026-04-26T06:03:34.999Z</time></trkpt><trkpt lat="45.00260049344558" lon="9.938083400260723"><ele>49.166666666666664</ele><time>2026-04-26T06:03:35.999Z</time></trkpt><trkpt lat="45.0025325422437" lon="9.93801801790601"><ele>49.0</ele><time>2026-04-26T06:03:36.999Z</time></trkpt><trkpt lat="45.00246475217988" lon="9.937955566287132"><ele>48.99999999999999</ele><time>2026-04-26T06:03:37.999Z</time></trkpt><trkpt lat="45.0023975236543" lon="9.93789214880756"><ele>49.0</ele><time>2026-04-26T06:03:38.999Z</time></trkpt><trkpt lat="45.00232926540024" lon="9.937829015211083"><ele>49.0</ele><time>2026-04-26T06:03:39.999Z</time></trkpt><trkpt lat="45.00226157532406" lon="9.937766515310066"><ele>49.0</ele><time>2026-04-26T06:03:40.999Z</time></trkpt><trkpt lat="45.00219389926349" lon="9.937703999639622"><ele>48.99999999999999</ele><time>2026-04-26T06:03:41.999Z</time></trkpt><trkpt lat="45.002125856837715" lon="9.937640329624953"><ele>49.0</ele><time>2026-04-26T06:03:42.999Z</time></trkpt><trkpt lat="45.0020577662604" lon="9.937574884972015"><ele>48.99999999999999</ele><time>2026-04-26T06:03:43.999Z</time></trkpt><trkpt lat="45.00199055335819" lon="9.937510028439878"><ele>49.0</ele><time>2026-04-26T06:03:44.999Z</time></trkpt><trkpt lat="45.00192208701625" lon="9.937444133575896"><ele>49.0</ele><time>2026-04-26T06:03:45.999Z</time></trkpt><trkpt lat="45.00185270405866" lon="9.937378514702912"><ele>49.0</ele><time>2026-04-26T06:03:46.999Z</time></trkpt><trkpt lat="45.001783870681855" lon="9.937317064158801"><ele>48.99999999999999</ele><time>2026-04-26T06:03:47.999Z</time></trkpt><trkpt lat="45.00171642342954" lon="9.937251140483186"><ele>49.0</ele><time>2026-04-26T06:03:48.999Z</time></trkpt><trkpt lat="45.0016491222264" lon="9.937185104068533"><ele>48.99999999999999</ele><time>2026-04-26T06:03:49.999Z</time></trkpt><trkpt lat="45.00158204491645" lon="9.937119818029535"><ele>49.0</ele><time>2026-04-26T06:03:50.999Z</time></trkpt><trkpt lat="45.00151408132829" lon="9.937053557570884"><ele>49.0</ele><time>2026-04-26T06:03:51.999Z</time></trkpt><trkpt lat="45.00144705195774" lon="9.936992157582283"><ele>49.0</ele><time>2026-04-26T06:03:52.999Z</time></trkpt><trkpt lat="45.00137938377467" lon="9.936926842590879"><ele>48.99999999999999</ele><time>2026-04-26T06:03:53.999Z</time></trkpt><trkpt lat="45.001311667588325" lon="9.936863557402324"><ele>49.0</ele><time>2026-04-26T06:03:54.999Z</time></trkpt><trkpt lat="45.00124380603976" lon="9.936798552567296"><ele>48.99999999999999</ele><time>2026-04-26T06:03:55.999Z</time></trkpt><trkpt lat="45.00117715462378" lon="9.936731101888887"><ele>49.0</ele><time>2026-04-26T06:03:56.999Z</time></trkpt><trkpt lat="45.00110880443755" lon="9.93666440175428"><ele>49.0</ele><time>2026-04-26T06:03:57.999Z</time></trkpt><trkpt lat="45.001041707950016" lon="9.936597785177364"><ele>49.0</ele><time>2026-04-26T06:03:58.999Z</time></trkpt><trkpt lat="45.00097461630326" lon="9.936535289059979"><ele>48.99999999999999</ele><time>2026-04-26T06:03:59.999Z</time></trkpt><trkpt lat="45.00090671706195" lon="9.936472645979"><ele>49.0</ele><time>2026-04-26T06:04:00.999Z</time></trkpt><trkpt lat="45.000838951249875" lon="9.93640968125385"><ele>48.666666666666664</ele><time>2026-04-26T06:04:01.999Z</time></trkpt><trkpt lat="45.000770603112926" lon="9.936342811424154"><ele>48.33333333333333</ele><time>2026-04-26T06:04:02.999Z</time></trkpt><trkpt lat="45.00070141431493" lon="9.936282919818524"><ele>48.0</ele><time>2026-04-26T06:04:03.999Z</time></trkpt><trkpt lat="45.000632571346" lon="9.936223110557394"><ele>47.666666666666664</ele><time>2026-04-26T06:04:04.999Z</time></trkpt><trkpt lat="45.00056133454011" lon="9.936167513005058"><ele>47.33333333333333</ele><time>2026-04-26T06:04:05.999Z</time></trkpt><trkpt lat="45.00048910319511" lon="9.936114776606685"><ele>47.0</ele><time>2026-04-26T06:04:06.999Z</time></trkpt><trkpt lat="45.00041758597899" lon="9.93606284181811"><ele>47.0</ele><time>2026-04-26T06:04:07.999Z</time></trkpt><trkpt lat="45.00034561499112" lon="9.936011133214778"><ele>47.0</ele><time>2026-04-26T06:04:08.999Z</time></trkpt><trkpt lat="45.000273361620614" lon="9.935956739683176"><ele>47.0</ele><time>2026-04-26T06:04:09.999Z</time></trkpt><trkpt lat="45.00020170915739" lon="9.935905049625424"><ele>47.0</ele><time>2026-04-26T06:04:10.999Z</time></trkpt><trkpt lat="45.000129037011924" lon="9.935856607543034"><ele>47.0</ele><time>2026-04-26T06:04:11.999Z</time></trkpt><trkpt lat="45.00005803092356" lon="9.935803910769238"><ele>47.0</ele><time>2026-04-26T06:04:12.998Z</time></trkpt><trkpt lat="44.99998610527072" lon="9.93575305372666"><ele>47.0</ele><time>2026-04-26T06:04:13.998Z</time></trkpt><trkpt lat="44.99991453538894" lon="9.93570544840082"><ele>47.0</ele><time>2026-04-26T06:04:14.998Z</time></trkpt><trkpt lat="44.999841423987725" lon="9.935653624692476"><ele>47.0</ele><time>2026-04-26T06:04:15.998Z</time></trkpt><trkpt lat="44.9997703494015" lon="9.935605617366857"><ele>47.0</ele><time>2026-04-26T06:04:16.998Z</time></trkpt><trkpt lat="44.99969887456109" lon="9.935555386749511"><ele>47.0</ele><time>2026-04-26T06:04:17.998Z</time></trkpt><trkpt lat="44.99962874460506" lon="9.935504507012647"><ele>47.0</ele><time>2026-04-26T06:04:18.998Z</time></trkpt><trkpt lat="44.99955465318734" lon="9.935455557824776"><ele>47.0</ele><time>2026-04-26T06:04:19.998Z</time></trkpt><trkpt lat="44.9994815616823" lon="9.935405163956089"><ele>47.0</ele><time>2026-04-26T06:04:20.998Z</time></trkpt><trkpt lat="44.999409690407376" lon="9.935360204418384"><ele>47.0</ele><time>2026-04-26T06:04:21.998Z</time></trkpt><trkpt lat="44.999335920441744" lon="9.935312908201649"><ele>47.0</ele><time>2026-04-26T06:04:22.998Z</time></trkpt><trkpt lat="44.99925995695141" lon="9.935269144649704"><ele>47.0</ele><time>2026-04-26T06:04:23.998Z</time></trkpt><trkpt lat="44.99918532779728" lon="9.935235925203568"><ele>47.0</ele><time>2026-04-26T06:04:24.998Z</time></trkpt><trkpt lat="44.99910995053679" lon="9.935194741233131"><ele>47.5</ele><time>2026-04-26T06:04:25.998Z</time></trkpt><trkpt lat="44.9990326598836" lon="9.93515831665246"><ele>48.0</ele><time>2026-04-26T06:04:26.998Z</time></trkpt><trkpt lat="44.99895799030939" lon="9.935123773707312"><ele>48.5</ele><time>2026-04-26T06:04:27.998Z</time></trkpt><trkpt lat="44.99888129775121" lon="9.935078481314168"><ele>49.0</ele><time>2026-04-26T06:04:28.998Z</time></trkpt><trkpt lat="44.998811632654025" lon="9.93502568130467"><ele>49.50000000000001</ele><time>2026-04-26T06:04:29.998Z</time></trkpt><trkpt lat="44.9987481681741" lon="9.93495483586844"><ele>50.0</ele><time>2026-04-26T06:04:30.998Z</time></trkpt><trkpt lat="44.99870448885035" lon="9.934859994945588"><ele>50.00000000000001</ele><time>2026-04-26T06:04:31.998Z</time></trkpt><trkpt lat="44.998681395184036" lon="9.93474452671624"><ele>50.0</ele><time>2026-04-26T06:04:32.998Z</time></trkpt><trkpt lat="44.99867314521177" lon="9.934627696135236"><ele>50.0</ele><time>2026-04-26T06:04:33.998Z</time></trkpt><trkpt lat="44.99867895691026" lon="9.934511904411519"><ele>50.0</ele><time>2026-04-26T06:04:34.998Z</time></trkpt><trkpt lat="44.99869397670443" lon="9.934397289531711"><ele>50.00000000000001</ele><time>2026-04-26T06:04:35.998Z</time></trkpt><trkpt lat="44.99871415763131" lon="9.93428539675272"><ele>50.0</ele><time>2026-04-26T06:04:36.998Z</time></trkpt><trkpt lat="44.99873700743313" lon="9.934175629997105"><ele>49.833333333333336</ele><time>2026-04-26T06:04:37.998Z</time></trkpt><trkpt lat="44.99876095726107" lon="9.934064792202618"><ele>49.66666666666667</ele><time>2026-04-26T06:04:38.998Z</time></trkpt><trkpt lat="44.99878028199638" lon="9.933952677074682"><ele>49.5</ele><time>2026-04-26T06:04:39.998Z</time></trkpt><trkpt lat="44.998801133021146" lon="9.933838649026784"><ele>49.33333333333333</ele><time>2026-04-26T06:04:40.998Z</time></trkpt><trkpt lat="44.99882070311053" lon="9.933731118201544"><ele>49.166666666666664</ele><time>2026-04-26T06:04:41.998Z</time></trkpt><trkpt lat="44.998840832369225" lon="9.93361820038472"><ele>49.0</ele><time>2026-04-26T06:04:42.998Z</time></trkpt><trkpt lat="44.99886114536883" lon="9.933506902817713"><ele>48.99999999999999</ele><time>2026-04-26T06:04:44Z</time></trkpt><trkpt lat="44.99888231416173" lon="9.9333952176303"><ele>49.0</ele><time>2026-04-26T06:04:45Z</time></trkpt><trkpt lat="44.99890332322844" lon="9.933284360073818"><ele>49.0</ele><time>2026-04-26T06:04:46Z</time></trkpt><trkpt lat="44.9989262296336" lon="9.933177220166353"><ele>49.0</ele><time>2026-04-26T06:04:47Z</time></trkpt><trkpt lat="44.99894693907097" lon="9.933067905608826"><ele>48.99999999999999</ele><time>2026-04-26T06:04:48Z</time></trkpt><trkpt lat="44.99896809146737" lon="9.93296001512777"><ele>49.0</ele><time>2026-04-26T06:04:49Z</time></trkpt><trkpt lat="44.998987468293286" lon="9.932850945064475"><ele>48.99999999999999</ele><time>2026-04-26T06:04:50Z</time></trkpt><trkpt lat="44.99900083086464" lon="9.9327397567301"><ele>49.0</ele><time>2026-04-26T06:04:51Z</time></trkpt><trkpt lat="44.9989980758727" lon="9.932629961124409"><ele>49.0</ele><time>2026-04-26T06:04:52Z</time></trkpt><trkpt lat="44.998966737679176" lon="9.93252300639562"><ele>49.0</ele><time>2026-04-26T06:04:53Z</time></trkpt><trkpt lat="44.99890512340653" lon="9.932441584532382"><ele>48.99999999999999</ele><time>2026-04-26T06:04:54Z</time></trkpt><trkpt lat="44.9988278211261" lon="9.932383239052193"><ele>49.0</ele><time>2026-04-26T06:04:55Z</time></trkpt><trkpt lat="44.99874581451343" lon="9.93235832469465"><ele>48.99999999999999</ele><time>2026-04-26T06:04:56Z</time></trkpt><trkpt lat="44.99866131750902" lon="9.932336554154144"><ele>49.0</ele><time>2026-04-26T06:04:57Z</time></trkpt><trkpt lat="44.998580346727984" lon="9.93230648236089"><ele>49.0</ele><time>2026-04-26T06:04:58Z</time></trkpt><trkpt lat="44.99850158685432" lon="9.932277061949085"><ele>49.0</ele><time>2026-04-26T06:04:59Z</time></trkpt><trkpt lat="44.998421888992574" lon="9.932245133057677"><ele>48.99999999999999</ele><time>2026-04-26T06:05:00Z</time></trkpt><trkpt lat="44.998343809332326" lon="9.932212804345998"><ele>49.0</ele><time>2026-04-26T06:05:01Z</time></trkpt><trkpt lat="44.99826598251028" lon="9.93218068051077"><ele>49.666666666666664</ele><time>2026-04-26T06:05:02Z</time></trkpt><trkpt lat="44.99818789471845" lon="9.932144909276465"><ele>50.33333333333333</ele><time>2026-04-26T06:05:03Z</time></trkpt><trkpt lat="44.99810977503384" lon="9.932109803389514"><ele>51.0</ele><time>2026-04-26T06:05:04Z</time></trkpt><trkpt lat="44.998033591432765" lon="9.93207997438658"><ele>51.66666666666667</ele><time>2026-04-26T06:05:05Z</time></trkpt><trkpt lat="44.99795523578823" lon="9.932048464246629"><ele>52.333333333333336</ele><time>2026-04-26T06:05:06Z</time></trkpt><trkpt lat="44.9978783228518" lon="9.932014455855144"><ele>53.0</ele><time>2026-04-26T06:05:07Z</time></trkpt><trkpt lat="44.997799197369666" lon="9.931984108235435"><ele>53.00000000000001</ele><time>2026-04-26T06:05:08Z</time></trkpt><trkpt lat="44.99772170086636" lon="9.931952153219443"><ele>53.0</ele><time>2026-04-26T06:05:09Z</time></trkpt><trkpt lat="44.99764612297282" lon="9.931918262599996"><ele>53.0</ele><time>2026-04-26T06:05:10Z</time></trkpt><trkpt lat="44.997569941907486" lon="9.931886835154252"><ele>53.0</ele><time>2026-04-26T06:05:11Z</time></trkpt><trkpt lat="44.99749284990312" lon="9.931852551134442"><ele>53.00000000000001</ele><time>2026-04-26T06:05:12Z</time></trkpt><trkpt lat="44.99741511032593" lon="9.931820027152567"><ele>53.0</ele><time>2026-04-26T06:05:13Z</time></trkpt><trkpt lat="44.99733847047511" lon="9.931788054510838"><ele>53.16666666666667</ele><time>2026-04-26T06:05:14Z</time></trkpt><trkpt lat="44.99726025831157" lon="9.931755358266608"><ele>53.333333333333336</ele><time>2026-04-26T06:05:15Z</time></trkpt><trkpt lat="44.99718027185432" lon="9.93172322522128"><ele>53.5</ele><time>2026-04-26T06:05:16Z</time></trkpt><trkpt lat="44.99710494650023" lon="9.931686800957104"><ele>53.66666666666667</ele><time>2026-04-26T06:05:17Z</time></trkpt><trkpt lat="44.99702616025245" lon="9.931655394025048"><ele>53.833333333333336</ele><time>2026-04-26T06:05:18Z</time></trkpt><trkpt lat="44.99694754223009" lon="9.931625876406896"><ele>54.0</ele><time>2026-04-26T06:05:19Z</time></trkpt><trkpt lat="44.99687076591701" lon="9.931594204748583"><ele>54.0</ele><time>2026-04-26T06:05:20Z</time></trkpt><trkpt lat="44.99679268922351" lon="9.931563258293412"><ele>54.0</ele><time>2026-04-26T06:05:21Z</time></trkpt><trkpt lat="44.99671453006687" lon="9.9315325358237"><ele>54.0</ele><time>2026-04-26T06:05:22Z</time></trkpt><trkpt lat="44.99663855822539" lon="9.931499443365242"><ele>54.0</ele><time>2026-04-26T06:05:22.999Z</time></trkpt><trkpt lat="44.99656276886233" lon="9.931469040887992"><ele>54.0</ele><time>2026-04-26T06:05:23.999Z</time></trkpt><trkpt lat="44.996488110823094" lon="9.9314356444488"><ele>54.0</ele><time>2026-04-26T06:05:24.999Z</time></trkpt><trkpt lat="44.996411867278695" lon="9.9314068558791"><ele>54.0</ele><time>2026-04-26T06:05:25.999Z</time></trkpt><trkpt lat="44.9963362498407" lon="9.931374980691968"><ele>54.0</ele><time>2026-04-26T06:05:26.999Z</time></trkpt><trkpt lat="44.996259782224996" lon="9.931348720722644"><ele>54.0</ele><time>2026-04-26T06:05:27.999Z</time></trkpt><trkpt lat="44.99618098137598" lon="9.931317537410191"><ele>54.0</ele><time>2026-04-26T06:05:28.999Z</time></trkpt><trkpt lat="44.99610429995483" lon="9.931286000507477"><ele>54.0</ele><time>2026-04-26T06:05:29.999Z</time></trkpt><trkpt lat="44.996025004777906" lon="9.931254598264768"><ele>54.0</ele><time>2026-04-26T06:05:30.999Z</time></trkpt><trkpt lat="44.99594752141117" lon="9.931228459134148"><ele>54.0</ele><time>2026-04-26T06:05:31.999Z</time></trkpt><trkpt lat="44.99587145022118" lon="9.931198303012641"><ele>54.0</ele><time>2026-04-26T06:05:32.999Z</time></trkpt><trkpt lat="44.99579317403684" lon="9.931168820744604"><ele>54.0</ele><time>2026-04-26T06:05:33.999Z</time></trkpt><trkpt lat="44.99571586562002" lon="9.931137442985145"><ele>54.0</ele><time>2026-04-26T06:05:34.999Z</time></trkpt><trkpt lat="44.99563778504963" lon="9.931106113200368"><ele>54.0</ele><time>2026-04-26T06:05:35.999Z</time></trkpt><trkpt lat="44.995562318717184" lon="9.931072204637829"><ele>54.0</ele><time>2026-04-26T06:05:36.999Z</time></trkpt><trkpt lat="44.99548496402854" lon="9.931036636498003"><ele>54.333333333333336</ele><time>2026-04-26T06:05:37.999Z</time></trkpt><trkpt lat="44.99541147133006" lon="9.93100080272578"><ele>54.66666666666667</ele><time>2026-04-26T06:05:38.999Z</time></trkpt><trkpt lat="44.995335343494624" lon="9.930962550639174"><ele>55.0</ele><time>2026-04-26T06:05:39.999Z</time></trkpt><trkpt lat="44.99526030067115" lon="9.930926347915209"><ele>55.333333333333336</ele><time>2026-04-26T06:05:40.999Z</time></trkpt><trkpt lat="44.9951837197957" lon="9.930894941395737"><ele>55.66666666666667</ele><time>2026-04-26T06:05:41.999Z</time></trkpt><trkpt lat="44.9951052561039" lon="9.930865902671185"><ele>56.0</ele><time>2026-04-26T06:05:42.999Z</time></trkpt><trkpt lat="44.9950276565052" lon="9.9308393413735"><ele>55.833333333333336</ele><time>2026-04-26T06:05:43.999Z</time></trkpt><trkpt lat="44.9949488468955" lon="9.930811362792427"><ele>55.66666666666667</ele><time>2026-04-26T06:05:44.999Z</time></trkpt><trkpt lat="44.99486824090929" lon="9.930778876325329"><ele>55.5</ele><time>2026-04-26T06:05:45.999Z</time></trkpt><trkpt lat="44.99479048385889" lon="9.930750285287251"><ele>55.33333333333333</ele><time>2026-04-26T06:05:46.999Z</time></trkpt><trkpt lat="44.99471268749238" lon="9.930719569518187"><ele>55.166666666666664</ele><time>2026-04-26T06:05:47.999Z</time></trkpt><trkpt lat="44.99463399488361" lon="9.930687432420536"><ele>55.0</ele><time>2026-04-26T06:05:48.999Z</time></trkpt><trkpt lat="44.99455538916996" lon="9.930656390443042"><ele>54.99999999999999</ele><time>2026-04-26T06:05:49.999Z</time></trkpt><trkpt lat="44.994476564244806" lon="9.930628053866934"><ele>55.0</ele><time>2026-04-26T06:05:50.999Z</time></trkpt><trkpt lat="44.994399033378066" lon="9.93059831657771"><ele>55.0</ele><time>2026-04-26T06:05:51.999Z</time></trkpt><trkpt lat="44.994322131529835" lon="9.93057020759073"><ele>55.0</ele><time>2026-04-26T06:05:52.999Z</time></trkpt><trkpt lat="44.99424002090837" lon="9.93053252433682"><ele>54.99999999999999</ele><time>2026-04-26T06:05:53.999Z</time></trkpt><trkpt lat="44.99416155715369" lon="9.930510634043284"><ele>55.0</ele><time>2026-04-26T06:05:54.999Z</time></trkpt><trkpt lat="44.994088027853905" lon="9.930476171966449"><ele>55.14285714285714</ele><time>2026-04-26T06:05:55.999Z</time></trkpt><trkpt lat="44.99400755271089" lon="9.930463355996084"><ele>55.285714285714285</ele><time>2026-04-26T06:05:56.999Z</time></trkpt><trkpt lat="44.99394863969407" lon="9.930402831080894"><ele>55.42857142857143</ele><time>2026-04-26T06:05:57.999Z</time></trkpt><trkpt lat="44.99387797484387" lon="9.930374562376551"><ele>55.57142857142857</ele><time>2026-04-26T06:05:58.999Z</time></trkpt><trkpt lat="44.993816156412755" lon="9.930307478027602"><ele>55.714285714285715</ele><time>2026-04-26T06:05:59.999Z</time></trkpt><trkpt lat="44.99375859388607" lon="9.930242455963532"><ele>55.857142857142854</ele><time>2026-04-26T06:06:00.999Z</time></trkpt><trkpt lat="44.993694724746" lon="9.9302031249699"><ele>56.0</ele><time>2026-04-26T06:06:01.999Z</time></trkpt><trkpt lat="44.99361224352952" lon="9.930247948101668"><ele>56.00000000000001</ele><time>2026-04-26T06:06:02.999Z</time></trkpt><trkpt lat="44.99353573337903" lon="9.93022556050596"><ele>56.0</ele><time>2026-04-26T06:06:03.999Z</time></trkpt><trkpt lat="44.99345583411681" lon="9.93021618526695"><ele>56.0</ele><time>2026-04-26T06:06:04.999Z</time></trkpt><trkpt lat="44.99337727899573" lon="9.93022011914432"><ele>56.0</ele><time>2026-04-26T06:06:05.999Z</time></trkpt><trkpt lat="44.99330430607742" lon="9.930158549385267"><ele>56.00000000000001</ele><time>2026-04-26T06:06:06.999Z</time></trkpt><trkpt lat="44.99322862936403" lon="9.930129484803984"><ele>56.0</ele><time>2026-04-26T06:06:07.999Z</time></trkpt><trkpt lat="44.993154187736614" lon="9.930095607407022"><ele>55.66666666666667</ele><time>2026-04-26T06:06:08.999Z</time></trkpt><trkpt lat="44.99308122602673" lon="9.930065194156816"><ele>55.333333333333336</ele><time>2026-04-26T06:06:09.999Z</time></trkpt><trkpt lat="44.99300735516946" lon="9.930032500436285"><ele>55.0</ele><time>2026-04-26T06:06:10.999Z</time></trkpt><trkpt lat="44.99293374509299" lon="9.930002535055463"><ele>54.66666666666667</ele><time>2026-04-26T06:06:11.999Z</time></trkpt><trkpt lat="44.99285809679725" lon="9.929972412415225"><ele>54.333333333333336</ele><time>2026-04-26T06:06:12.999Z</time></trkpt><trkpt lat="44.99278324534546" lon="9.92994720879546"><ele>54.0</ele><time>2026-04-26T06:06:13.999Z</time></trkpt><trkpt lat="44.99270916288131" lon="9.929918248109473"><ele>54.0</ele><time>2026-04-26T06:06:14.999Z</time></trkpt><trkpt lat="44.992636102839114" lon="9.929889231951483"><ele>54.0</ele><time>2026-04-26T06:06:15.999Z</time></trkpt><trkpt lat="44.99256729582036" lon="9.929860048373083"><ele>54.0</ele><time>2026-04-26T06:06:16.999Z</time></trkpt><trkpt lat="44.9924945586386" lon="9.92983118877606"><ele>54.0</ele><time>2026-04-26T06:06:17.999Z</time></trkpt><trkpt lat="44.992423290429585" lon="9.929801382317374"><ele>54.0</ele><time>2026-04-26T06:06:18.998Z</time></trkpt><trkpt lat="44.9923538048549" lon="9.929774553051868"><ele>54.0</ele><time>2026-04-26T06:06:19.998Z</time></trkpt><trkpt lat="44.99228221657782" lon="9.929748527571075"><ele>54.0</ele><time>2026-04-26T06:06:20.998Z</time></trkpt><trkpt lat="44.992212580403525" lon="9.929719509143956"><ele>54.0</ele><time>2026-04-26T06:06:21.998Z</time></trkpt><trkpt lat="44.992135055260405" lon="9.929691112292934"><ele>54.0</ele><time>2026-04-26T06:06:22.998Z</time></trkpt><trkpt lat="44.99205994780726" lon="9.929659473327774"><ele>54.0</ele><time>2026-04-26T06:06:23.998Z</time></trkpt><trkpt lat="44.991982139462905" lon="9.929631200251501"><ele>54.0</ele><time>2026-04-26T06:06:24.998Z</time></trkpt><trkpt lat="44.99190424258104" lon="9.929601794058808"><ele>54.0</ele><time>2026-04-26T06:06:25.998Z</time></trkpt><trkpt lat="44.9918262248664" lon="9.929572925774293"><ele>54.0</ele><time>2026-04-26T06:06:26.998Z</time></trkpt><trkpt lat="44.99174994579102" lon="9.929540825346672"><ele>54.166666666666664</ele><time>2026-04-26T06:06:27.998Z</time></trkpt><trkpt lat="44.991671002620436" lon="9.929511896204238"><ele>54.33333333333333</ele><time>2026-04-26T06:06:28.998Z</time></trkpt><trkpt lat="44.99159385261072" lon="9.929481796259944"><ele>54.5</ele><time>2026-04-26T06:06:29.998Z</time></trkpt><trkpt lat="44.99151474514164" lon="9.929448319374966"><ele>54.666666666666664</ele><time>2026-04-26T06:06:30.998Z</time></trkpt><trkpt lat="44.99143472006542" lon="9.92941706437319"><ele>54.83333333333333</ele><time>2026-04-26T06:06:31.998Z</time></trkpt><trkpt lat="44.99135588975106" lon="9.929386722054723"><ele>55.0</ele><time>2026-04-26T06:06:32.998Z</time></trkpt><trkpt lat="44.99127665488732" lon="9.929356423652099"><ele>54.99999999999999</ele><time>2026-04-26T06:06:33.998Z</time></trkpt><trkpt lat="44.991197537976255" lon="9.929324850293233"><ele>55.0</ele><time>2026-04-26T06:06:34.998Z</time></trkpt><trkpt lat="44.99111886322707" lon="9.929292913728364"><ele>55.0</ele><time>2026-04-26T06:06:35.998Z</time></trkpt><trkpt lat="44.991039839706296" lon="9.929262275596994"><ele>55.0</ele><time>2026-04-26T06:06:36.998Z</time></trkpt><trkpt lat="44.990960917198024" lon="9.929229528366252"><ele>54.99999999999999</ele><time>2026-04-26T06:06:37.998Z</time></trkpt><trkpt lat="44.990881225671075" lon="9.929197536824603"><ele>55.0</ele><time>2026-04-26T06:06:38.998Z</time></trkpt><trkpt lat="44.99080101707053" lon="9.929167766113718"><ele>54.83333333333333</ele><time>2026-04-26T06:06:39.998Z</time></trkpt><trkpt lat="44.99072238446776" lon="9.929137052504935"><ele>54.666666666666664</ele><time>2026-04-26T06:06:40.998Z</time></trkpt><trkpt lat="44.99064117269848" lon="9.929106762895215"><ele>54.5</ele><time>2026-04-26T06:06:41.998Z</time></trkpt><trkpt lat="44.990563006310204" lon="9.929073941295508"><ele>54.33333333333333</ele><time>2026-04-26T06:06:42.998Z</time></trkpt><trkpt lat="44.99048367774187" lon="9.929042999021624"><ele>54.166666666666664</ele><time>2026-04-26T06:06:43.998Z</time></trkpt><trkpt lat="44.99040380217306" lon="9.92900967932676"><ele>54.0</ele><time>2026-04-26T06:06:44.998Z</time></trkpt><trkpt lat="44.99032500331554" lon="9.928977978154554"><ele>54.0</ele><time>2026-04-26T06:06:45.998Z</time></trkpt><trkpt lat="44.99024486887063" lon="9.928945794093375"><ele>54.0</ele><time>2026-04-26T06:06:46.998Z</time></trkpt><trkpt lat="44.990164985260805" lon="9.928915409875328"><ele>54.0</ele><time>2026-04-26T06:06:47.998Z</time></trkpt><trkpt lat="44.99008524210895" lon="9.928883986671085"><ele>54.0</ele><time>2026-04-26T06:06:48.998Z</time></trkpt><trkpt lat="44.99000467908083" lon="9.928851272772528"><ele>54.0</ele><time>2026-04-26T06:06:50Z</time></trkpt><trkpt lat="44.98992456540086" lon="9.928818712159222"><ele>54.0</ele><time>2026-04-26T06:06:51Z</time></trkpt><trkpt lat="44.98984690256205" lon="9.928787168983261"><ele>54.0</ele><time>2026-04-26T06:06:52Z</time></trkpt><trkpt lat="44.98976724772814" lon="9.928755835448737"><ele>54.0</ele><time>2026-04-26T06:06:53Z</time></trkpt><trkpt lat="44.989687898357964" lon="9.928725249267218"><ele>54.0</ele><time>2026-04-26T06:06:54Z</time></trkpt><trkpt lat="44.989610589187656" lon="9.928691789320183"><ele>54.0</ele><time>2026-04-26T06:06:55Z</time></trkpt><trkpt lat="44.989529992564584" lon="9.92866009272916"><ele>54.0</ele><time>2026-04-26T06:06:56Z</time></trkpt><trkpt lat="44.98945118027948" lon="9.92863052970911"><ele>54.0</ele><time>2026-04-26T06:06:57Z</time></trkpt><trkpt lat="44.98937399029771" lon="9.928597971504036"><ele>54.0</ele><time>2026-04-26T06:06:58Z</time></trkpt><trkpt lat="44.989296154673724" lon="9.928564272448991"><ele>54.0</ele><time>2026-04-26T06:06:59Z</time></trkpt><trkpt lat="44.989217379562504" lon="9.928531562681373"><ele>54.0</ele><time>2026-04-26T06:07:00Z</time></trkpt><trkpt lat="44.98913862459056" lon="9.92849816420451"><ele>54.0</ele><time>2026-04-26T06:07:01Z</time></trkpt><trkpt lat="44.98905932922318" lon="9.928468002535121"><ele>54.0</ele><time>2026-04-26T06:07:02Z</time></trkpt><trkpt lat="44.98898071187764" lon="9.928439199296168"><ele>54.0</ele><time>2026-04-26T06:07:03Z</time></trkpt><trkpt lat="44.98890230605216" lon="9.92840855396749"><ele>53.833333333333336</ele><time>2026-04-26T06:07:04Z</time></trkpt><trkpt lat="44.98882403042168" lon="9.928378854258906"><ele>53.66666666666667</ele><time>2026-04-26T06:07:05Z</time></trkpt><trkpt lat="44.98874662918597" lon="9.92834748058564"><ele>53.5</ele><time>2026-04-26T06:07:06Z</time></trkpt><trkpt lat="44.98866784522414" lon="9.92831678499035"><ele>53.333333333333336</ele><time>2026-04-26T06:07:07Z</time></trkpt><trkpt lat="44.98859017565897" lon="9.928285521427764"><ele>53.16666666666667</ele><time>2026-04-26T06:07:08Z</time></trkpt><trkpt lat="44.988509772361944" lon="9.928250691370154"><ele>53.0</ele><time>2026-04-26T06:07:09Z</time></trkpt><trkpt lat="44.988431617706226" lon="9.928218309592381"><ele>53.00000000000001</ele><time>2026-04-26T06:07:10Z</time></trkpt><trkpt lat="44.98835444766934" lon="9.928186571546695"><ele>53.0</ele><time>2026-04-26T06:07:11Z</time></trkpt><trkpt lat="44.988276472481964" lon="9.928155974862626"><ele>53.0</ele><time>2026-04-26T06:07:12Z</time></trkpt><trkpt lat="44.988197703807494" lon="9.928123741389967"><ele>53.0</ele><time>2026-04-26T06:07:13Z</time></trkpt><trkpt lat="44.98812034513387" lon="9.928090598190973"><ele>53.00000000000001</ele><time>2026-04-26T06:07:14Z</time></trkpt><trkpt lat="44.98804157929486" lon="9.928057451828996"><ele>53.0</ele><time>2026-04-26T06:07:15Z</time></trkpt><trkpt lat="44.98796251855906" lon="9.928025621334049"><ele>53.00000000000001</ele><time>2026-04-26T06:07:16Z</time></trkpt><trkpt lat="44.98788295225706" lon="9.92799464121697"><ele>53.0</ele><time>2026-04-26T06:07:17Z</time></trkpt><trkpt lat="44.98780493148979" lon="9.927963277662993"><ele>53.0</ele><time>2026-04-26T06:07:18Z</time></trkpt><trkpt lat="44.98772503708288" lon="9.927929994426679"><ele>53.0</ele><time>2026-04-26T06:07:19Z</time></trkpt><trkpt lat="44.987647081992556" lon="9.927900831569774"><ele>53.00000000000001</ele><time>2026-04-26T06:07:20Z</time></trkpt><trkpt lat="44.987567732548676" lon="9.927868651731746"><ele>53.0</ele><time>2026-04-26T06:07:21Z</time></trkpt><trkpt lat="44.987487899225556" lon="9.927836731012716"><ele>53.00000000000001</ele><time>2026-04-26T06:07:22Z</time></trkpt><trkpt lat="44.987406401572194" lon="9.927807879245133"><ele>53.0</ele><time>2026-04-26T06:07:23Z</time></trkpt><trkpt lat="44.987328036080214" lon="9.92777645949452"><ele>53.0</ele><time>2026-04-26T06:07:24Z</time></trkpt><trkpt lat="44.987249879341455" lon="9.927744689375945"><ele>53.0</ele><time>2026-04-26T06:07:25Z</time></trkpt><trkpt lat="44.987170716559696" lon="9.927711123541764"><ele>53.00000000000001</ele><time>2026-04-26T06:07:26Z</time></trkpt><trkpt lat="44.98709106356186" lon="9.927679288840205"><ele>53.0</ele><time>2026-04-26T06:07:27Z</time></trkpt><trkpt lat="44.98701037343378" lon="9.927646919116617"><ele>53.00000000000001</ele><time>2026-04-26T06:07:27.999Z</time></trkpt><trkpt lat="44.986931328111005" lon="9.927611896999311"><ele>53.0</ele><time>2026-04-26T06:07:28.999Z</time></trkpt><trkpt lat="44.98685257227531" lon="9.927578583511824"><ele>53.0</ele><time>2026-04-26T06:07:29.999Z</time></trkpt><trkpt lat="44.986769650107" lon="9.927549047607771"><ele>53.0</ele><time>2026-04-26T06:07:30.999Z</time></trkpt><trkpt lat="44.9866897813305" lon="9.927517621106547"><ele>53.00000000000001</ele><time>2026-04-26T06:07:31.999Z</time></trkpt><trkpt lat="44.98660859111736" lon="9.927484892570334"><ele>53.0</ele><time>2026-04-26T06:07:32.999Z</time></trkpt><trkpt lat="44.98652797722139" lon="9.927454017357826"><ele>52.833333333333336</ele><time>2026-04-26T06:07:33.999Z</time></trkpt><trkpt lat="44.98644809380118" lon="9.92742285910729"><ele>52.66666666666667</ele><time>2026-04-26T06:07:34.999Z</time></trkpt><trkpt lat="44.9863711432305" lon="9.92739242335718"><ele>52.5</ele><time>2026-04-26T06:07:35.999Z</time></trkpt><trkpt lat="44.986292090602866" lon="9.927356925486905"><ele>52.33333333333333</ele><time>2026-04-26T06:07:36.999Z</time></trkpt><trkpt lat="44.98621348269116" lon="9.927326756402376"><ele>52.166666666666664</ele><time>2026-04-26T06:07:37.999Z</time></trkpt><trkpt lat="44.98613284241213" lon="9.927296231441165"><ele>52.0</ele><time>2026-04-26T06:07:38.999Z</time></trkpt><trkpt lat="44.98605359705336" lon="9.927265992681257"><ele>51.99999999999999</ele><time>2026-04-26T06:07:39.999Z</time></trkpt><trkpt lat="44.985975077876994" lon="9.927235835055459"><ele>52.0</ele><time>2026-04-26T06:07:40.999Z</time></trkpt><trkpt lat="44.985897578325584" lon="9.927203774090534"><ele>52.0</ele><time>2026-04-26T06:07:41.999Z</time></trkpt><trkpt lat="44.985819567039414" lon="9.927171299102262"><ele>52.0</ele><time>2026-04-26T06:07:42.999Z</time></trkpt><trkpt lat="44.98574248632438" lon="9.927141654420263"><ele>51.99999999999999</ele><time>2026-04-26T06:07:43.999Z</time></trkpt><trkpt lat="44.985663375979065" lon="9.927109990855145"><ele>52.0</ele><time>2026-04-26T06:07:44.999Z</time></trkpt><trkpt lat="44.98558580332887" lon="9.927078986416564"><ele>52.666666666666664</ele><time>2026-04-26T06:07:45.999Z</time></trkpt><trkpt lat="44.98550923792479" lon="9.927046310045176"><ele>53.33333333333333</ele><time>2026-04-26T06:07:46.999Z</time></trkpt><trkpt lat="44.98542834952438" lon="9.927013232212088"><ele>54.0</ele><time>2026-04-26T06:07:47.999Z</time></trkpt><trkpt lat="44.98535068281428" lon="9.926981199985148"><ele>54.66666666666667</ele><time>2026-04-26T06:07:48.999Z</time></trkpt><trkpt lat="44.9852714338528" lon="9.926943189737475"><ele>55.333333333333336</ele><time>2026-04-26T06:07:49.999Z</time></trkpt><trkpt lat="44.985195931256555" lon="9.92689929200465"><ele>56.0</ele><time>2026-04-26T06:07:50.999Z</time></trkpt><trkpt lat="44.985118329693705" lon="9.926858255627318"><ele>56.00000000000001</ele><time>2026-04-26T06:07:51.999Z</time></trkpt><trkpt lat="44.985041589902195" lon="9.926812050421312"><ele>56.0</ele><time>2026-04-26T06:07:52.999Z</time></trkpt><trkpt lat="44.98496642075059" lon="9.926768520693894"><ele>56.0</ele><time>2026-04-26T06:07:53.999Z</time></trkpt><trkpt lat="44.984893097469275" lon="9.926722235922808"><ele>56.0</ele><time>2026-04-26T06:07:54.999Z</time></trkpt><trkpt lat="44.984818800379216" lon="9.926671946125968"><ele>56.00000000000001</ele><time>2026-04-26T06:07:55.999Z</time></trkpt><trkpt lat="44.98474664465916" lon="9.926622032130071"><ele>56.0</ele><time>2026-04-26T06:07:56.999Z</time></trkpt><trkpt lat="44.9846732409503" lon="9.926570002763404"><ele>55.66666666666667</ele><time>2026-04-26T06:07:57.999Z</time></trkpt><trkpt lat="44.9845999391168" lon="9.92651918797241"><ele>55.333333333333336</ele><time>2026-04-26T06:07:58.999Z</time></trkpt><trkpt lat="44.98452531217505" lon="9.926468940600007"><ele>55.0</ele><time>2026-04-26T06:07:59.999Z</time></trkpt><trkpt lat="44.98445090951924" lon="9.926418573049387"><ele>54.66666666666667</ele><time>2026-04-26T06:08:00.999Z</time></trkpt><trkpt lat="44.98437672792704" lon="9.926369124939596"><ele>54.333333333333336</ele><time>2026-04-26T06:08:01.999Z</time></trkpt><trkpt lat="44.98430343655341" lon="9.92631691941768"><ele>54.0</ele><time>2026-04-26T06:08:02.999Z</time></trkpt><trkpt lat="44.98423292268871" lon="9.926267468527303"><ele>53.666666666666664</ele><time>2026-04-26T06:08:03.999Z</time></trkpt><trkpt lat="44.98415918397376" lon="9.926216998762799"><ele>53.33333333333333</ele><time>2026-04-26T06:08:04.999Z</time></trkpt><trkpt lat="44.98408474244666" lon="9.926165737760384"><ele>53.0</ele><time>2026-04-26T06:08:05.999Z</time></trkpt><trkpt lat="44.98400882112381" lon="9.926118055315317"><ele>52.666666666666664</ele><time>2026-04-26T06:08:06.999Z</time></trkpt><trkpt lat="44.98393332661957" lon="9.926074516179629"><ele>52.33333333333333</ele><time>2026-04-26T06:08:07.999Z</time></trkpt><trkpt lat="44.98385977658719" lon="9.926031118567114"><ele>52.0</ele><time>2026-04-26T06:08:08.999Z</time></trkpt><trkpt lat="44.9837851496886" lon="9.925984799300931"><ele>51.99999999999999</ele><time>2026-04-26T06:08:09.999Z</time></trkpt><trkpt lat="44.98370979769218" lon="9.92593230346734"><ele>52.0</ele><time>2026-04-26T06:08:10.999Z</time></trkpt><trkpt lat="44.9836355432756" lon="9.925882661336788"><ele>52.0</ele><time>2026-04-26T06:08:11.999Z</time></trkpt><trkpt lat="44.98356164850603" lon="9.925832003118774"><ele>52.0</ele><time>2026-04-26T06:08:12.999Z</time></trkpt><trkpt lat="44.983491238597786" lon="9.925780550029598"><ele>51.99999999999999</ele><time>2026-04-26T06:08:13.999Z</time></trkpt><trkpt lat="44.98341918384157" lon="9.925727075005046"><ele>52.0</ele><time>2026-04-26T06:08:14.999Z</time></trkpt><trkpt lat="44.983346822881025" lon="9.925674538924188"><ele>52.33333333333333</ele><time>2026-04-26T06:08:15.999Z</time></trkpt><trkpt lat="44.98327444088923" lon="9.92562065636837"><ele>52.666666666666664</ele><time>2026-04-26T06:08:16.999Z</time></trkpt><trkpt lat="44.98320172498115" lon="9.925567655670315"><ele>53.0</ele><time>2026-04-26T06:08:17.999Z</time></trkpt><trkpt lat="44.98312955374593" lon="9.925516689137158"><ele>53.33333333333333</ele><time>2026-04-26T06:08:18.999Z</time></trkpt><trkpt lat="44.9830556655322" lon="9.925461997878458"><ele>53.666666666666664</ele><time>2026-04-26T06:08:19.999Z</time></trkpt><trkpt lat="44.98298293798697" lon="9.925408482397371"><ele>54.0</ele><time>2026-04-26T06:08:20.999Z</time></trkpt><trkpt lat="44.982911128019076" lon="9.925355574319958"><ele>54.0</ele><time>2026-04-26T06:08:21.999Z</time></trkpt><trkpt lat="44.982839613077985" lon="9.925300922315543"><ele>54.0</ele><time>2026-04-26T06:08:22.998Z</time></trkpt><trkpt lat="44.982767536285415" lon="9.925247201668776"><ele>54.0</ele><time>2026-04-26T06:08:23.998Z</time></trkpt><trkpt lat="44.98269390502869" lon="9.92519474084497"><ele>54.0</ele><time>2026-04-26T06:08:24.998Z</time></trkpt><trkpt lat="44.98262115705685" lon="9.925140387828145"><ele>54.0</ele><time>2026-04-26T06:08:25.998Z</time></trkpt><trkpt lat="44.982550582433745" lon="9.925085668833882"><ele>54.0</ele><time>2026-04-26T06:08:26.998Z</time></trkpt><trkpt lat="44.98247955059035" lon="9.925030503135103"><ele>53.5</ele><time>2026-04-26T06:08:27.998Z</time></trkpt><trkpt lat="44.98240741658767" lon="9.924977290246844"><ele>53.0</ele><time>2026-04-26T06:08:28.998Z</time></trkpt><trkpt lat="44.98233473088982" lon="9.924922199166"><ele>52.5</ele><time>2026-04-26T06:08:29.998Z</time></trkpt><trkpt lat="44.98226219619334" lon="9.924869809937228"><ele>52.0</ele><time>2026-04-26T06:08:30.998Z</time></trkpt><trkpt lat="44.98218924188869" lon="9.924818264367566"><ele>51.5</ele><time>2026-04-26T06:08:31.998Z</time></trkpt><trkpt lat="44.98211613362138" lon="9.924768638033525"><ele>51.0</ele><time>2026-04-26T06:08:32.998Z</time></trkpt><trkpt lat="44.982043405952254" lon="9.9247157531258"><ele>51.0</ele><time>2026-04-26T06:08:33.998Z</time></trkpt><trkpt lat="44.981970702102615" lon="9.924663883370703"><ele>51.0</ele><time>2026-04-26T06:08:34.998Z</time></trkpt><trkpt lat="44.981899416825726" lon="9.924613844705693"><ele>51.0</ele><time>2026-04-26T06:08:35.998Z</time></trkpt><trkpt lat="44.9818278073507" lon="9.924564689053812"><ele>51.0</ele><time>2026-04-26T06:08:36.998Z</time></trkpt><trkpt lat="44.981755237263464" lon="9.924513626204174"><ele>51.0</ele><time>2026-04-26T06:08:37.998Z</time></trkpt><trkpt lat="44.98168370974587" lon="9.924463812821816"><ele>51.0</ele><time>2026-04-26T06:08:38.998Z</time></trkpt><trkpt lat="44.98160942973458" lon="9.924411758533022"><ele>51.166666666666664</ele><time>2026-04-26T06:08:39.998Z</time></trkpt><trkpt lat="44.981536375522474" lon="9.924361852239779"><ele>51.33333333333333</ele><time>2026-04-26T06:08:40.998Z</time></trkpt><trkpt lat="44.9814617266152" lon="9.92431311508584"><ele>51.5</ele><time>2026-04-26T06:08:41.998Z</time></trkpt><trkpt lat="44.981386019052486" lon="9.92426849161505"><ele>51.666666666666664</ele><time>2026-04-26T06:08:42.998Z</time></trkpt><trkpt lat="44.981311126887014" lon="9.924221686233981"><ele>51.83333333333333</ele><time>2026-04-26T06:08:43.998Z</time></trkpt><trkpt lat="44.98123535845267" lon="9.924174290857897"><ele>52.0</ele><time>2026-04-26T06:08:44.998Z</time></trkpt><trkpt lat="44.981160542456564" lon="9.924124286690743"><ele>51.99999999999999</ele><time>2026-04-26T06:08:45.998Z</time></trkpt><trkpt lat="44.98108512125863" lon="9.924078017050777"><ele>52.0</ele><time>2026-04-26T06:08:46.998Z</time></trkpt><trkpt lat="44.98100990265566" lon="9.924033008237448"><ele>52.0</ele><time>2026-04-26T06:08:47.998Z</time></trkpt><trkpt lat="44.980933877731154" lon="9.923986854550634"><ele>52.0</ele><time>2026-04-26T06:08:48.998Z</time></trkpt><trkpt lat="44.9808587003235" lon="9.923935285843926"><ele>51.99999999999999</ele><time>2026-04-26T06:08:49.998Z</time></trkpt><trkpt lat="44.980785967785856" lon="9.923884759170809"><ele>52.0</ele><time>2026-04-26T06:08:50.998Z</time></trkpt><trkpt lat="44.98071272865289" lon="9.92382997887837"><ele>52.166666666666664</ele><time>2026-04-26T06:08:51.998Z</time></trkpt><trkpt lat="44.98063903014629" lon="9.923778663373529"><ele>52.33333333333333</ele><time>2026-04-26T06:08:52.998Z</time></trkpt><trkpt lat="44.98056587697543" lon="9.923724944143121"><ele>52.5</ele><time>2026-04-26T06:08:53.998Z</time></trkpt><trkpt lat="44.98049095427575" lon="9.923674868040548"><ele>52.66666666666667</ele><time>2026-04-26T06:08:54.998Z</time></trkpt><trkpt lat="44.98041705446837" lon="9.923624297839048"><ele>52.833333333333336</ele><time>2026-04-26T06:08:56Z</time></trkpt><trkpt lat="44.98034308057792" lon="9.923570334438795"><ele>53.0</ele><time>2026-04-26T06:08:57Z</time></trkpt><trkpt lat="44.98026884372927" lon="9.923516766315155"><ele>53.00000000000001</ele><time>2026-04-26T06:08:58Z</time></trkpt><trkpt lat="44.980195443742474" lon="9.92346457441187"><ele>53.0</ele><time>2026-04-26T06:08:59Z</time></trkpt><trkpt lat="44.980121119337745" lon="9.923412348368998"><ele>53.0</ele><time>2026-04-26T06:09:00Z</time></trkpt><trkpt lat="44.98004901942072" lon="9.923359909882294"><ele>53.0</ele><time>2026-04-26T06:09:01Z</time></trkpt><trkpt lat="44.979975671080936" lon="9.923308241170028"><ele>53.00000000000001</ele><time>2026-04-26T06:09:02Z</time></trkpt><trkpt lat="44.97990291683967" lon="9.923256991200642"><ele>53.0</ele><time>2026-04-26T06:09:03Z</time></trkpt><trkpt lat="44.97982864951116" lon="9.923202110689575"><ele>52.833333333333336</ele><time>2026-04-26T06:09:04Z</time></trkpt><trkpt lat="44.97975486811414" lon="9.923149146211912"><ele>52.66666666666667</ele><time>2026-04-26T06:09:05Z</time></trkpt><trkpt lat="44.97968319079474" lon="9.92309770309957"><ele>52.5</ele><time>2026-04-26T06:09:06Z</time></trkpt><trkpt lat="44.97960957950277" lon="9.923043784936343"><ele>52.33333333333333</ele><time>2026-04-26T06:09:07Z</time></trkpt><trkpt lat="44.97953522913554" lon="9.922992737911013"><ele>52.166666666666664</ele><time>2026-04-26T06:09:08Z</time></trkpt><trkpt lat="44.979462386346896" lon="9.92293913590418"><ele>52.0</ele><time>2026-04-26T06:09:09Z</time></trkpt><trkpt lat="44.97938796842525" lon="9.922888231724464"><ele>51.99999999999999</ele><time>2026-04-26T06:09:10Z</time></trkpt><trkpt lat="44.97931386873292" lon="9.92283575751641"><ele>52.0</ele><time>2026-04-26T06:09:11Z</time></trkpt><trkpt lat="44.97923975013095" lon="9.92278253975377"><ele>52.0</ele><time>2026-04-26T06:09:12Z</time></trkpt><trkpt lat="44.979166313552376" lon="9.922730725651725"><ele>52.0</ele><time>2026-04-26T06:09:13Z</time></trkpt><trkpt lat="44.97909363094568" lon="9.922678489858034"><ele>51.99999999999999</ele><time>2026-04-26T06:09:14Z</time></trkpt><trkpt lat="44.979019688603955" lon="9.922627114731393"><ele>52.0</ele><time>2026-04-26T06:09:15Z</time></trkpt><trkpt lat="44.97894590197288" lon="9.922574841997752"><ele>51.83333333333333</ele><time>2026-04-26T06:09:16Z</time></trkpt><trkpt lat="44.97887275233518" lon="9.922525353884698"><ele>51.666666666666664</ele><time>2026-04-26T06:09:17Z</time></trkpt><trkpt lat="44.978798264496476" lon="9.922471344376751"><ele>51.5</ele><time>2026-04-26T06:09:18Z</time></trkpt><trkpt lat="44.97872492664688" lon="9.92241743791336"><ele>51.33333333333333</ele><time>2026-04-26T06:09:19Z</time></trkpt><trkpt lat="44.978651778561805" lon="9.922365067143524"><ele>51.166666666666664</ele><time>2026-04-26T06:09:20Z</time></trkpt><trkpt lat="44.978577297311745" lon="9.922312583909433"><ele>51.0</ele><time>2026-04-26T06:09:21Z</time></trkpt><trkpt lat="44.97850408612839" lon="9.922260754625043"><ele>51.0</ele><time>2026-04-26T06:09:22Z</time></trkpt><trkpt lat="44.97843046509423" lon="9.922208719880711"><ele>51.0</ele><time>2026-04-26T06:09:23Z</time></trkpt><trkpt lat="44.978357721690365" lon="9.922157318275751"><ele>51.0</ele><time>2026-04-26T06:09:24Z</time></trkpt><trkpt lat="44.97828550028472" lon="9.922102819724305"><ele>51.0</ele><time>2026-04-26T06:09:25Z</time></trkpt><trkpt lat="44.97821164298477" lon="9.922049470799163"><ele>51.0</ele><time>2026-04-26T06:09:26Z</time></trkpt><trkpt lat="44.978138453434966" lon="9.921997529196473"><ele>51.0</ele><time>2026-04-26T06:09:27Z</time></trkpt><trkpt lat="44.97806691282814" lon="9.921948395322177"><ele>51.166666666666664</ele><time>2026-04-26T06:09:28Z</time></trkpt><trkpt lat="44.97799458351384" lon="9.921896370200303"><ele>51.33333333333333</ele><time>2026-04-26T06:09:29Z</time></trkpt><trkpt lat="44.97792249026038" lon="9.92184366387582"><ele>51.5</ele><time>2026-04-26T06:09:30Z</time></trkpt><trkpt lat="44.977850180898905" lon="9.921793075642913"><ele>51.666666666666664</ele><time>2026-04-26T06:09:31Z</time></trkpt><trkpt lat="44.97777745174096" lon="9.921741323614773"><ele>51.83333333333333</ele><time>2026-04-26T06:09:31.999Z</time></trkpt><trkpt lat="44.97770506902661" lon="9.921690317747627"><ele>52.0</ele><time>2026-04-26T06:09:32.999Z</time></trkpt><trkpt lat="44.97763427664264" lon="9.921640351261743"><ele>52.166666666666664</ele><time>2026-04-26T06:09:33.999Z</time></trkpt><trkpt lat="44.97756102296148" lon="9.921587631436903"><ele>52.33333333333333</ele><time>2026-04-26T06:09:34.999Z</time></trkpt><trkpt lat="44.97748963086133" lon="9.921535571479952"><ele>52.5</ele><time>2026-04-26T06:09:35.999Z</time></trkpt><trkpt lat="44.97741589582825" lon="9.921484699288039"><ele>52.66666666666667</ele><time>2026-04-26T06:09:36.999Z</time></trkpt><trkpt lat="44.977344252227724" lon="9.921434582429685"><ele>52.833333333333336</ele><time>2026-04-26T06:09:37.999Z</time></trkpt><trkpt lat="44.97727046169259" lon="9.92138169640581"><ele>53.0</ele><time>2026-04-26T06:09:38.999Z</time></trkpt><trkpt lat="44.97719818806349" lon="9.92132953198651"><ele>53.00000000000001</ele><time>2026-04-26T06:09:39.999Z</time></trkpt><trkpt lat="44.97712562392904" lon="9.92128001769078"><ele>53.0</ele><time>2026-04-26T06:09:40.999Z</time></trkpt><trkpt lat="44.977052563476356" lon="9.921227293098719"><ele>53.0</ele><time>2026-04-26T06:09:41.999Z</time></trkpt><trkpt lat="44.97697904383235" lon="9.92117516264571"><ele>53.0</ele><time>2026-04-26T06:09:42.999Z</time></trkpt><trkpt lat="44.97690666571845" lon="9.921122258026784"><ele>53.00000000000001</ele><time>2026-04-26T06:09:43.999Z</time></trkpt><trkpt lat="44.97683414756646" lon="9.921071580836546"><ele>53.0</ele><time>2026-04-26T06:09:44.999Z</time></trkpt><trkpt lat="44.976760473877704" lon="9.921018152307187"><ele>53.00000000000001</ele><time>2026-04-26T06:09:45.999Z</time></trkpt><trkpt lat="44.97668737847013" lon="9.920966864498102"><ele>53.0</ele><time>2026-04-26T06:09:46.999Z</time></trkpt><trkpt lat="44.976613293469036" lon="9.920914868127378"><ele>53.0</ele><time>2026-04-26T06:09:47.999Z</time></trkpt><trkpt lat="44.97654166064957" lon="9.920862530190504"><ele>53.0</ele><time>2026-04-26T06:09:48.999Z</time></trkpt><trkpt lat="44.97646824036658" lon="9.920810531746891"><ele>53.00000000000001</ele><time>2026-04-26T06:09:49.999Z</time></trkpt><trkpt lat="44.97639380426762" lon="9.920759633725831"><ele>53.0</ele><time>2026-04-26T06:09:50.999Z</time></trkpt><trkpt lat="44.97632090271041" lon="9.920708175892909"><ele>52.833333333333336</ele><time>2026-04-26T06:09:51.999Z</time></trkpt><trkpt lat="44.97624729133407" lon="9.920656406884792"><ele>52.66666666666667</ele><time>2026-04-26T06:09:52.999Z</time></trkpt><trkpt lat="44.976175130321465" lon="9.920606275407236"><ele>52.5</ele><time>2026-04-26T06:09:53.999Z</time></trkpt><trkpt lat="44.97610235137021" lon="9.920553626092836"><ele>52.33333333333333</ele><time>2026-04-26T06:09:54.999Z</time></trkpt><trkpt lat="44.97603080404308" lon="9.920501620315683"><ele>52.166666666666664</ele><time>2026-04-26T06:09:55.999Z</time></trkpt><trkpt lat="44.9759575542279" lon="9.920447454995129"><ele>52.0</ele><time>2026-04-26T06:09:56.999Z</time></trkpt><trkpt lat="44.97588559221253" lon="9.920394430703238"><ele>52.166666666666664</ele><time>2026-04-26T06:09:57.999Z</time></trkpt><trkpt lat="44.97581243832391" lon="9.920343621117638"><ele>52.33333333333333</ele><time>2026-04-26T06:09:58.999Z</time></trkpt><trkpt lat="44.97574067952395" lon="9.920290318298344"><ele>52.5</ele><time>2026-04-26T06:09:59.999Z</time></trkpt><trkpt lat="44.97566842278575" lon="9.920239191867061"><ele>52.66666666666667</ele><time>2026-04-26T06:10:00.999Z</time></trkpt><trkpt lat="44.975596609506" lon="9.920186881349881"><ele>52.833333333333336</ele><time>2026-04-26T06:10:01.999Z</time></trkpt><trkpt lat="44.975523090040824" lon="9.920134219222383"><ele>53.0</ele><time>2026-04-26T06:10:02.999Z</time></trkpt><trkpt lat="44.97545043166344" lon="9.92008424573364"><ele>53.00000000000001</ele><time>2026-04-26T06:10:03.999Z</time></trkpt><trkpt lat="44.97537772739704" lon="9.920032574117553"><ele>53.0</ele><time>2026-04-26T06:10:04.999Z</time></trkpt><trkpt lat="44.9753063819269" lon="9.919979036357997"><ele>53.0</ele><time>2026-04-26T06:10:05.999Z</time></trkpt><trkpt lat="44.97523372065441" lon="9.919927608656641"><ele>53.0</ele><time>2026-04-26T06:10:06.999Z</time></trkpt><trkpt lat="44.975159749441566" lon="9.919873755988403"><ele>53.00000000000001</ele><time>2026-04-26T06:10:07.999Z</time></trkpt><trkpt lat="44.97508537859636" lon="9.919820900764828"><ele>53.0</ele><time>2026-04-26T06:10:08.999Z</time></trkpt><trkpt lat="44.97501281812478" lon="9.91976703776835"><ele>53.00000000000001</ele><time>2026-04-26T06:10:09.999Z</time></trkpt><trkpt lat="44.974939903312325" lon="9.919715715136268"><ele>53.0</ele><time>2026-04-26T06:10:10.999Z</time></trkpt><trkpt lat="44.97486701919287" lon="9.919665347727541"><ele>53.0</ele><time>2026-04-26T06:10:11.999Z</time></trkpt><trkpt lat="44.9747940859406" lon="9.919612130315901"><ele>53.0</ele><time>2026-04-26T06:10:12.999Z</time></trkpt><trkpt lat="44.97472040385427" lon="9.919558069076285"><ele>53.00000000000001</ele><time>2026-04-26T06:10:13.999Z</time></trkpt><trkpt lat="44.974647248935696" lon="9.919507779533006"><ele>53.0</ele><time>2026-04-26T06:10:14.999Z</time></trkpt><trkpt lat="44.9745747341671" lon="9.919456901762443"><ele>53.00000000000001</ele><time>2026-04-26T06:10:15.999Z</time></trkpt><trkpt lat="44.974500905742914" lon="9.919403701261531"><ele>53.0</ele><time>2026-04-26T06:10:16.999Z</time></trkpt><trkpt lat="44.97443023939977" lon="9.919352266387135"><ele>53.0</ele><time>2026-04-26T06:10:17.999Z</time></trkpt><trkpt lat="44.97435663939183" lon="9.919299390691892"><ele>53.0</ele><time>2026-04-26T06:10:18.999Z</time></trkpt><trkpt lat="44.974285388757515" lon="9.919247928594022"><ele>53.00000000000001</ele><time>2026-04-26T06:10:19.999Z</time></trkpt><trkpt lat="44.97421131614236" lon="9.919196131302204"><ele>53.0</ele><time>2026-04-26T06:10:20.999Z</time></trkpt><trkpt lat="44.97413761846126" lon="9.91914328041262"><ele>52.66666666666667</ele><time>2026-04-26T06:10:21.999Z</time></trkpt><trkpt lat="44.97406456784354" lon="9.919094180748639"><ele>52.333333333333336</ele><time>2026-04-26T06:10:22.999Z</time></trkpt><trkpt lat="44.973991961563456" lon="9.919041376380974"><ele>52.0</ele><time>2026-04-26T06:10:23.999Z</time></trkpt><trkpt lat="44.97391953499057" lon="9.918991179610897"><ele>51.66666666666667</ele><time>2026-04-26T06:10:24.999Z</time></trkpt><trkpt lat="44.97384629858147" lon="9.918939641881252"><ele>51.333333333333336</ele><time>2026-04-26T06:10:25.998Z</time></trkpt><trkpt lat="44.97377364535855" lon="9.91888612073335"><ele>51.0</ele><time>2026-04-26T06:10:26.998Z</time></trkpt><trkpt lat="44.9736996696774" lon="9.918833593575934"><ele>51.0</ele><time>2026-04-26T06:10:27.998Z</time></trkpt><trkpt lat="44.97362652209341" lon="9.918782518711701"><ele>51.0</ele><time>2026-04-26T06:10:28.998Z</time></trkpt><trkpt lat="44.97355374344579" lon="9.918731054605626"><ele>51.0</ele><time>2026-04-26T06:10:29.998Z</time></trkpt><trkpt lat="44.973480518612526" lon="9.918678945285135"><ele>51.0</ele><time>2026-04-26T06:10:30.998Z</time></trkpt><trkpt lat="44.97340823161794" lon="9.91862561709431"><ele>51.0</ele><time>2026-04-26T06:10:31.998Z</time></trkpt><trkpt lat="44.973336063797575" lon="9.91857229596546"><ele>51.0</ele><time>2026-04-26T06:10:32.998Z</time></trkpt><trkpt lat="44.97326461987037" lon="9.918522322948338"><ele>51.0</ele><time>2026-04-26T06:10:33.998Z</time></trkpt><trkpt lat="44.97319111287876" lon="9.918470679757851"><ele>51.0</ele><time>2026-04-26T06:10:34.998Z</time></trkpt><trkpt lat="44.97311695287699" lon="9.918418998407228"><ele>51.0</ele><time>2026-04-26T06:10:35.998Z</time></trkpt><trkpt lat="44.97304486145038" lon="9.918374043803134"><ele>51.0</ele><time>2026-04-26T06:10:36.998Z</time></trkpt><trkpt lat="44.972975891600065" lon="9.918333874746434"><ele>51.0</ele><time>2026-04-26T06:10:37.998Z</time></trkpt><trkpt lat="44.97290943953887" lon="9.918289424300774"><ele>51.0</ele><time>2026-04-26T06:10:38.998Z</time></trkpt><trkpt lat="44.972846355390594" lon="9.918242544706104"><ele>51.0</ele><time>2026-04-26T06:10:39.998Z</time></trkpt><trkpt lat="44.97278479547048" lon="9.918198189371813"><ele>51.0</ele><time>2026-04-26T06:10:40.998Z</time></trkpt><trkpt lat="44.97272184342372" lon="9.918150013546162"><ele>51.0</ele><time>2026-04-26T06:10:41.998Z</time></trkpt><trkpt lat="44.972656823174894" lon="9.918107291244084"><ele>51.0</ele><time>2026-04-26T06:10:42.998Z</time></trkpt><trkpt lat="44.972594843243556" lon="9.918063009441516"><ele>51.0</ele><time>2026-04-26T06:10:43.998Z</time></trkpt><trkpt lat="44.972531798504065" lon="9.91801686907986"><ele>51.0</ele><time>2026-04-26T06:10:44.998Z</time></trkpt><trkpt lat="44.97246979462237" lon="9.91797298156158"><ele>51.0</ele><time>2026-04-26T06:10:45.998Z</time></trkpt><trkpt lat="44.97240653537152" lon="9.917926952785546"><ele>50.285714285714285</ele><time>2026-04-26T06:10:46.998Z</time></trkpt><trkpt lat="44.97234480485563" lon="9.917882471841576"><ele>49.57142857142857</ele><time>2026-04-26T06:10:47.998Z</time></trkpt><trkpt lat="44.97228167407321" lon="9.917831970399844"><ele>48.85714285714286</ele><time>2026-04-26T06:10:48.998Z</time></trkpt><trkpt lat="44.972218257702025" lon="9.917787353480055"><ele>48.14285714285714</ele><time>2026-04-26T06:10:49.998Z</time></trkpt><trkpt lat="44.9721540690523" lon="9.917741395119577"><ele>47.42857142857142</ele><time>2026-04-26T06:10:50.998Z</time></trkpt><trkpt lat="44.97208895887994" lon="9.917693216001283"><ele>46.714285714285715</ele><time>2026-04-26T06:10:51.998Z</time></trkpt><trkpt lat="44.97202156183112" lon="9.917641698618771"><ele>46.0</ele><time>2026-04-26T06:10:52.998Z</time></trkpt><trkpt lat="44.9719524453919" lon="9.917589599993049"><ele>46.333333333333336</ele><time>2026-04-26T06:10:53.998Z</time></trkpt><trkpt lat="44.97187859207342" lon="9.91753850972336"><ele>46.66666666666667</ele><time>2026-04-26T06:10:54.998Z</time></trkpt><trkpt lat="44.971807945915174" lon="9.91748939393143"><ele>47.0</ele><time>2026-04-26T06:10:55.998Z</time></trkpt><trkpt lat="44.971734709032674" lon="9.917435972262272"><ele>47.333333333333336</ele><time>2026-04-26T06:10:56.998Z</time></trkpt><trkpt lat="44.97166312194606" lon="9.917384272487501"><ele>47.666666666666664</ele><time>2026-04-26T06:10:57.998Z</time></trkpt><trkpt lat="44.9715900348077" lon="9.917332500968415"><ele>48.0</ele><time>2026-04-26T06:10:58.998Z</time></trkpt><trkpt lat="44.97152033688537" lon="9.9172815066158"><ele>49.5</ele><time>2026-04-26T06:10:59.998Z</time></trkpt><trkpt lat="44.971447566971015" lon="9.917230417391812"><ele>51.0</ele><time>2026-04-26T06:11:00.998Z</time></trkpt><trkpt lat="44.971376180745885" lon="9.91718262165858"><ele>52.5</ele><time>2026-04-26T06:11:02Z</time></trkpt><trkpt lat="44.971306772831355" lon="9.91713453251667"><ele>54.0</ele><time>2026-04-26T06:11:03Z</time></trkpt><trkpt lat="44.97123506487345" lon="9.917084542916655"><ele>55.5</ele><time>2026-04-26T06:11:04Z</time></trkpt><trkpt lat="44.97116332997325" lon="9.91703193210643"><ele>57.0</ele><time>2026-04-26T06:11:05Z</time></trkpt><trkpt lat="44.97109151722115" lon="9.916982015736137"><ele>57.0</ele><time>2026-04-26T06:11:06Z</time></trkpt><trkpt lat="44.97101963435714" lon="9.91692745318477"><ele>57.0</ele><time>2026-04-26T06:11:07Z</time></trkpt><trkpt lat="44.970948751812244" lon="9.916877128393827"><ele>57.0</ele><time>2026-04-26T06:11:08Z</time></trkpt><trkpt lat="44.970875581422085" lon="9.916826414702518"><ele>57.0</ele><time>2026-04-26T06:11:09Z</time></trkpt><trkpt lat="44.97080364486723" lon="9.916777004916959"><ele>57.0</ele><time>2026-04-26T06:11:10Z</time></trkpt><trkpt lat="44.970729102235715" lon="9.916724485339145"><ele>57.0</ele><time>2026-04-26T06:11:11Z</time></trkpt><trkpt lat="44.97065650292144" lon="9.91667351655029"><ele>56.833333333333336</ele><time>2026-04-26T06:11:12Z</time></trkpt><trkpt lat="44.97058193742871" lon="9.916620862603441"><ele>56.66666666666667</ele><time>2026-04-26T06:11:13Z</time></trkpt><trkpt lat="44.97050981557972" lon="9.9165694014419"><ele>56.5</ele><time>2026-04-26T06:11:14Z</time></trkpt><trkpt lat="44.97043764313022" lon="9.916514368655049"><ele>56.333333333333336</ele><time>2026-04-26T06:11:15Z</time></trkpt><trkpt lat="44.97036436852795" lon="9.916460508304478"><ele>56.16666666666667</ele><time>2026-04-26T06:11:16Z</time></trkpt><trkpt lat="44.970290042511984" lon="9.916406734305536"><ele>56.0</ele><time>2026-04-26T06:11:17Z</time></trkpt><trkpt lat="44.970215955124296" lon="9.91635522093457"><ele>56.00000000000001</ele><time>2026-04-26T06:11:18Z</time></trkpt><trkpt lat="44.97014254373067" lon="9.916304174411485"><ele>56.0</ele><time>2026-04-26T06:11:19Z</time></trkpt><trkpt lat="44.970068490591764" lon="9.916256173544836"><ele>56.0</ele><time>2026-04-26T06:11:20Z</time></trkpt><trkpt lat="44.96999751254643" lon="9.91620587186114"><ele>56.0</ele><time>2026-04-26T06:11:21Z</time></trkpt><trkpt lat="44.96992717072095" lon="9.916156919237315"><ele>56.00000000000001</ele><time>2026-04-26T06:11:22Z</time></trkpt><trkpt lat="44.96985864311027" lon="9.916106219781742"><ele>56.0</ele><time>2026-04-26T06:11:23Z</time></trkpt><trkpt lat="44.969788326719744" lon="9.916055318891642"><ele>56.16666666666667</ele><time>2026-04-26T06:11:24Z</time></trkpt><trkpt lat="44.969717771750425" lon="9.916001558331951"><ele>56.333333333333336</ele><time>2026-04-26T06:11:25Z</time></trkpt><trkpt lat="44.969645813269736" lon="9.915947495137079"><ele>56.5</ele><time>2026-04-26T06:11:26Z</time></trkpt><trkpt lat="44.96957283998484" lon="9.915898042962345"><ele>56.66666666666667</ele><time>2026-04-26T06:11:27Z</time></trkpt><trkpt lat="44.96950202978414" lon="9.91584911485537"><ele>56.833333333333336</ele><time>2026-04-26T06:11:28Z</time></trkpt><trkpt lat="44.96943120439344" lon="9.915801350966166"><ele>57.0</ele><time>2026-04-26T06:11:29Z</time></trkpt><trkpt lat="44.96936185226828" lon="9.915753326615311"><ele>57.0</ele><time>2026-04-26T06:11:30Z</time></trkpt><trkpt lat="44.969292540538596" lon="9.915703892791122"><ele>57.0</ele><time>2026-04-26T06:11:31Z</time></trkpt><trkpt lat="44.969221635403464" lon="9.91564965164958"><ele>57.0</ele><time>2026-04-26T06:11:32Z</time></trkpt><trkpt lat="44.969149143874965" lon="9.915595193784847"><ele>57.0</ele><time>2026-04-26T06:11:33Z</time></trkpt><trkpt lat="44.969075333693034" lon="9.915542419017058"><ele>57.0</ele><time>2026-04-26T06:11:34Z</time></trkpt><trkpt lat="44.9690018984772" lon="9.915493947512738"><ele>57.0</ele><time>2026-04-26T06:11:35Z</time></trkpt><trkpt lat="44.968930975689375" lon="9.915444043430874"><ele>56.333333333333336</ele><time>2026-04-26T06:11:36Z</time></trkpt><trkpt lat="44.96886011216055" lon="9.915393225888"><ele>55.66666666666667</ele><time>2026-04-26T06:11:37Z</time></trkpt><trkpt lat="44.96878861286492" lon="9.915338390806419"><ele>55.0</ele><time>2026-04-26T06:11:37.999Z</time></trkpt><trkpt lat="44.96871171617679" lon="9.915288852981114"><ele>54.333333333333336</ele><time>2026-04-26T06:11:38.999Z</time></trkpt><trkpt lat="44.9686386573236" lon="9.91524223962678"><ele>53.66666666666667</ele><time>2026-04-26T06:11:39.999Z</time></trkpt><trkpt lat="44.96856761819807" lon="9.915189269057073"><ele>53.0</ele><time>2026-04-26T06:11:40.999Z</time></trkpt><trkpt lat="44.96849608168957" lon="9.915138700653305"><ele>53.00000000000001</ele><time>2026-04-26T06:11:41.999Z</time></trkpt><trkpt lat="44.96842331561741" lon="9.915090430051526"><ele>53.0</ele><time>2026-04-26T06:11:42.999Z</time></trkpt><trkpt lat="44.96835248923179" lon="9.915038694256499"><ele>53.0</ele><time>2026-04-26T06:11:43.999Z</time></trkpt><trkpt lat="44.96827938108357" lon="9.91498506305643"><ele>53.0</ele><time>2026-04-26T06:11:44.999Z</time></trkpt><trkpt lat="44.96820615300684" lon="9.914934700782268"><ele>53.00000000000001</ele><time>2026-04-26T06:11:45.999Z</time></trkpt><trkpt lat="44.96813354548587" lon="9.914881736752443"><ele>53.0</ele><time>2026-04-26T06:11:46.999Z</time></trkpt><trkpt lat="44.968063400668235" lon="9.91483158412708"><ele>53.66666666666667</ele><time>2026-04-26T06:11:47.999Z</time></trkpt><trkpt lat="44.96799353086592" lon="9.914782158844357"><ele>54.333333333333336</ele><time>2026-04-26T06:11:48.999Z</time></trkpt><trkpt lat="44.96792543948378" lon="9.914733293416152"><ele>55.0</ele><time>2026-04-26T06:11:49.999Z</time></trkpt><trkpt lat="44.967859241583305" lon="9.914682870257899"><ele>55.66666666666667</ele><time>2026-04-26T06:11:50.999Z</time></trkpt><trkpt lat="44.967793699151215" lon="9.914635641634026"><ele>56.333333333333336</ele><time>2026-04-26T06:11:51.999Z</time></trkpt><trkpt lat="44.96772652183851" lon="9.914589498847409"><ele>57.0</ele><time>2026-04-26T06:11:52.999Z</time></trkpt><trkpt lat="44.967658773305295" lon="9.914542851533852"><ele>57.0</ele><time>2026-04-26T06:11:53.999Z</time></trkpt><trkpt lat="44.96758734523921" lon="9.914492470583186"><ele>57.0</ele><time>2026-04-26T06:11:54.999Z</time></trkpt><trkpt lat="44.96751355969774" lon="9.914442088929937"><ele>57.0</ele><time>2026-04-26T06:11:55.999Z</time></trkpt><trkpt lat="44.96744084867227" lon="9.914392241393744"><ele>57.0</ele><time>2026-04-26T06:11:56.999Z</time></trkpt><trkpt lat="44.967367187255164" lon="9.9143405336006"><ele>57.0</ele><time>2026-04-26T06:11:57.999Z</time></trkpt><trkpt lat="44.96729505170894" lon="9.914288329174077"><ele>57.0</ele><time>2026-04-26T06:11:58.999Z</time></trkpt><trkpt lat="44.96722218101375" lon="9.914234538241859"><ele>57.0</ele><time>2026-04-26T06:11:59.999Z</time></trkpt><trkpt lat="44.96714823309608" lon="9.914182920234076"><ele>57.0</ele><time>2026-04-26T06:12:00.999Z</time></trkpt><trkpt lat="44.9670743662421" lon="9.914132958965013"><ele>57.0</ele><time>2026-04-26T06:12:01.999Z</time></trkpt><trkpt lat="44.96699827598372" lon="9.9140781454187"><ele>57.0</ele><time>2026-04-26T06:12:02.999Z</time></trkpt><trkpt lat="44.9669248888064" lon="9.914024215291354"><ele>57.0</ele><time>2026-04-26T06:12:03.999Z</time></trkpt><trkpt lat="44.96685187252068" lon="9.913970549504777"><ele>57.0</ele><time>2026-04-26T06:12:04.999Z</time></trkpt><trkpt lat="44.966781513190746" lon="9.913915259898886"><ele>57.0</ele><time>2026-04-26T06:12:05.999Z</time></trkpt><trkpt lat="44.96670887947334" lon="9.913863277005332"><ele>57.0</ele><time>2026-04-26T06:12:06.999Z</time></trkpt><trkpt lat="44.96663429353533" lon="9.913811852870333"><ele>57.0</ele><time>2026-04-26T06:12:07.999Z</time></trkpt><trkpt lat="44.966564223854746" lon="9.913762933212551"><ele>57.0</ele><time>2026-04-26T06:12:08.999Z</time></trkpt><trkpt lat="44.9664960123246" lon="9.913712073701271"><ele>57.0</ele><time>2026-04-26T06:12:09.999Z</time></trkpt><trkpt lat="44.96642857239365" lon="9.913661836547789"><ele>57.0</ele><time>2026-04-26T06:12:10.999Z</time></trkpt><trkpt lat="44.96636220881386" lon="9.913614978386637"><ele>57.166666666666664</ele><time>2026-04-26T06:12:11.999Z</time></trkpt><trkpt lat="44.96629314863379" lon="9.913569540096754"><ele>57.33333333333333</ele><time>2026-04-26T06:12:12.999Z</time></trkpt><trkpt lat="44.96622379678137" lon="9.91352193867417"><ele>57.5</ele><time>2026-04-26T06:12:13.999Z</time></trkpt><trkpt lat="44.96615298836611" lon="9.913473143190119"><ele>57.666666666666664</ele><time>2026-04-26T06:12:14.999Z</time></trkpt><trkpt lat="44.966083560397934" lon="9.913421589379523"><ele>57.83333333333333</ele><time>2026-04-26T06:12:15.999Z</time></trkpt><trkpt lat="44.96601344630917" lon="9.913368848224133"><ele>58.0</ele><time>2026-04-26T06:12:16.999Z</time></trkpt><trkpt lat="44.9659435575193" lon="9.91331934295158"><ele>57.83333333333333</ele><time>2026-04-26T06:12:17.999Z</time></trkpt><trkpt lat="44.965873639119096" lon="9.913269239211076"><ele>57.666666666666664</ele><time>2026-04-26T06:12:18.999Z</time></trkpt><trkpt lat="44.965803490561896" lon="9.913218923371796"><ele>57.5</ele><time>2026-04-26T06:12:19.999Z</time></trkpt><trkpt lat="44.965735046745245" lon="9.913169026541288"><ele>57.33333333333333</ele><time>2026-04-26T06:12:20.999Z</time></trkpt><trkpt lat="44.96566517472196" lon="9.913118899021068"><ele>57.166666666666664</ele><time>2026-04-26T06:12:21.999Z</time></trkpt><trkpt lat="44.96559458198901" lon="9.913069404278886"><ele>57.0</ele><time>2026-04-26T06:12:22.999Z</time></trkpt><trkpt lat="44.9655242964106" lon="9.913020952188802"><ele>57.0</ele><time>2026-04-26T06:12:23.999Z</time></trkpt><trkpt lat="44.96545392011208" lon="9.912970298232306"><ele>57.0</ele><time>2026-04-26T06:12:24.999Z</time></trkpt><trkpt lat="44.96538455204102" lon="9.912923101590904"><ele>57.0</ele><time>2026-04-26T06:12:25.999Z</time></trkpt><trkpt lat="44.96531589613691" lon="9.912879517967857"><ele>57.0</ele><time>2026-04-26T06:12:26.999Z</time></trkpt><trkpt lat="44.96525184432898" lon="9.912832127535765"><ele>57.0</ele><time>2026-04-26T06:12:27.999Z</time></trkpt><trkpt lat="44.96518407307448" lon="9.912782837262439"><ele>57.0</ele><time>2026-04-26T06:12:28.999Z</time></trkpt><trkpt lat="44.96511686229236" lon="9.912732248875995"><ele>57.0</ele><time>2026-04-26T06:12:29.999Z</time></trkpt><trkpt lat="44.96504912143317" lon="9.912685113577979"><ele>57.0</ele><time>2026-04-26T06:12:30.999Z</time></trkpt><trkpt lat="44.964979995797584" lon="9.912636640847339"><ele>57.0</ele><time>2026-04-26T06:12:31.998Z</time></trkpt><trkpt lat="44.964910250166064" lon="9.91258737184165"><ele>57.0</ele><time>2026-04-26T06:12:32.998Z</time></trkpt><trkpt lat="44.96483873667519" lon="9.912536549324244"><ele>57.0</ele><time>2026-04-26T06:12:33.998Z</time></trkpt><trkpt lat="44.96476791261492" lon="9.912486127639474"><ele>57.0</ele><time>2026-04-26T06:12:34.998Z</time></trkpt><trkpt lat="44.96469734757399" lon="9.91243402713004"><ele>57.666666666666664</ele><time>2026-04-26T06:12:35.998Z</time></trkpt><trkpt lat="44.964628100506246" lon="9.912381888737459"><ele>58.33333333333333</ele><time>2026-04-26T06:12:36.998Z</time></trkpt><trkpt lat="44.964556464687504" lon="9.912327533318228"><ele>59.0</ele><time>2026-04-26T06:12:37.998Z</time></trkpt><trkpt lat="44.964486665412295" lon="9.912278184541348"><ele>59.666666666666664</ele><time>2026-04-26T06:12:38.998Z</time></trkpt><trkpt lat="44.96441454653133" lon="9.912228779645757"><ele>60.33333333333333</ele><time>2026-04-26T06:12:39.998Z</time></trkpt><trkpt lat="44.96434434540832" lon="9.912181865040052"><ele>61.0</ele><time>2026-04-26T06:12:40.998Z</time></trkpt><trkpt lat="44.964273031899786" lon="9.912132157237611"><ele>60.99999999999999</ele><time>2026-04-26T06:12:41.998Z</time></trkpt><trkpt lat="44.96420237707181" lon="9.912082597650892"><ele>61.0</ele><time>2026-04-26T06:12:42.998Z</time></trkpt><trkpt lat="44.96413036257227" lon="9.912033924445241"><ele>61.0</ele><time>2026-04-26T06:12:43.998Z</time></trkpt><trkpt lat="44.964058348252706" lon="9.911985280774529"><ele>61.0</ele><time>2026-04-26T06:12:44.998Z</time></trkpt><trkpt lat="44.96398745169088" lon="9.911935084934688"><ele>60.99999999999999</ele><time>2026-04-26T06:12:45.998Z</time></trkpt><trkpt lat="44.963916364684486" lon="9.911883498540986"><ele>61.0</ele><time>2026-04-26T06:12:46.998Z</time></trkpt><trkpt lat="44.96384706419574" lon="9.911829603588435"><ele>60.83333333333333</ele><time>2026-04-26T06:12:47.998Z</time></trkpt><trkpt lat="44.963777310261015" lon="9.911777447556668"><ele>60.666666666666664</ele><time>2026-04-26T06:12:48.998Z</time></trkpt><trkpt lat="44.96370600084955" lon="9.911726562753463"><ele>60.5</ele><time>2026-04-26T06:12:49.998Z</time></trkpt><trkpt lat="44.96363625506878" lon="9.911676567743276"><ele>60.33333333333333</ele><time>2026-04-26T06:12:50.998Z</time></trkpt><trkpt lat="44.963567280605844" lon="9.91162632810115"><ele>60.166666666666664</ele><time>2026-04-26T06:12:51.998Z</time></trkpt><trkpt lat="44.963495336859054" lon="9.911577390769368"><ele>60.0</ele><time>2026-04-26T06:12:52.998Z</time></trkpt><trkpt lat="44.96342245496087" lon="9.911529492903254"><ele>59.666666666666664</ele><time>2026-04-26T06:12:53.998Z</time></trkpt><trkpt lat="44.96335064399322" lon="9.911479395978176"><ele>59.33333333333333</ele><time>2026-04-26T06:12:54.998Z</time></trkpt><trkpt lat="44.96327990056477" lon="9.911428475977063"><ele>59.0</ele><time>2026-04-26T06:12:55.998Z</time></trkpt><trkpt lat="44.96320844460695" lon="9.911378699627141"><ele>58.666666666666664</ele><time>2026-04-26T06:12:56.998Z</time></trkpt><trkpt lat="44.96313726553332" lon="9.911325088629674"><ele>58.33333333333333</ele><time>2026-04-26T06:12:57.998Z</time></trkpt><trkpt lat="44.96306658409804" lon="9.911271942275446"><ele>58.0</ele><time>2026-04-26T06:12:58.998Z</time></trkpt><trkpt lat="44.96299728788843" lon="9.911221236420719"><ele>57.99999999999999</ele><time>2026-04-26T06:12:59.998Z</time></trkpt><trkpt lat="44.9629292726829" lon="9.91117214797774"><ele>58.0</ele><time>2026-04-26T06:13:00.998Z</time></trkpt><trkpt lat="44.962858858572574" lon="9.911124110493347"><ele>58.0</ele><time>2026-04-26T06:13:01.998Z</time></trkpt><trkpt lat="44.96277888688683" lon="9.911089302798953"><ele>58.0</ele><time>2026-04-26T06:13:02.998Z</time></trkpt><trkpt lat="44.962716702440076" lon="9.911028997321992"><ele>57.99999999999999</ele><time>2026-04-26T06:13:03.998Z</time></trkpt><trkpt lat="44.962650131156224" lon="9.91097689762852"><ele>58.0</ele><time>2026-04-26T06:13:04.998Z</time></trkpt><trkpt lat="44.96258236492341" lon="9.910929657427356"><ele>58.28571428571429</ele><time>2026-04-26T06:13:05.998Z</time></trkpt><trkpt lat="44.96251911584013" lon="9.910887777119466"><ele>58.57142857142857</ele><time>2026-04-26T06:13:07Z</time></trkpt><trkpt lat="44.962453469231335" lon="9.910842500196198"><ele>58.85714285714286</ele><time>2026-04-26T06:13:08Z</time></trkpt><trkpt lat="44.96239017543824" lon="9.910796021032375"><ele>59.142857142857146</ele><time>2026-04-26T06:13:09Z</time></trkpt><trkpt lat="44.962325598055465" lon="9.910753559712957"><ele>59.42857142857143</ele><time>2026-04-26T06:13:10Z</time></trkpt><trkpt lat="44.96226035340594" lon="9.910711644498214"><ele>59.714285714285715</ele><time>2026-04-26T06:13:11Z</time></trkpt><trkpt lat="44.962194711907735" lon="9.910671768829829"><ele>60.0</ele><time>2026-04-26T06:13:12Z</time></trkpt><trkpt lat="44.9621292755509" lon="9.910630802756298"><ele>60.0</ele><time>2026-04-26T06:13:13Z</time></trkpt><trkpt lat="44.96206490428486" lon="9.910586659528734"><ele>60.0</ele><time>2026-04-26T06:13:14Z</time></trkpt><trkpt lat="44.962002291943975" lon="9.910538632964743"><ele>60.0</ele><time>2026-04-26T06:13:15Z</time></trkpt><trkpt lat="44.96193788454292" lon="9.910489744526982"><ele>60.0</ele><time>2026-04-26T06:13:16Z</time></trkpt><trkpt lat="44.96187408133417" lon="9.910443500082375"><ele>60.0</ele><time>2026-04-26T06:13:17Z</time></trkpt><trkpt lat="44.96181114415358" lon="9.91039348119127"><ele>60.0</ele><time>2026-04-26T06:13:18Z</time></trkpt><trkpt lat="44.9617511867349" lon="9.910342113537224"><ele>60.0</ele><time>2026-04-26T06:13:19Z</time></trkpt><trkpt lat="44.961688479351416" lon="9.910288940772269"><ele>60.0</ele><time>2026-04-26T06:13:20Z</time></trkpt><trkpt lat="44.961627122145494" lon="9.91023789472928"><ele>60.0</ele><time>2026-04-26T06:13:21Z</time></trkpt><trkpt lat="44.96156789988652" lon="9.910187457025046"><ele>60.0</ele><time>2026-04-26T06:13:22Z</time></trkpt><trkpt lat="44.96150840947725" lon="9.910133910614912"><ele>60.0</ele><time>2026-04-26T06:13:23Z</time></trkpt><trkpt lat="44.96144863315769" lon="9.910082535493585"><ele>60.0</ele><time>2026-04-26T06:13:24Z</time></trkpt><trkpt lat="44.96138493527114" lon="9.910031854381945"><ele>60.0</ele><time>2026-04-26T06:13:25Z</time></trkpt><trkpt lat="44.961329146256396" lon="9.90998668900966"><ele>60.0</ele><time>2026-04-26T06:13:26Z</time></trkpt><trkpt lat="44.9612676161273" lon="9.909928537270517"><ele>60.28571428571429</ele><time>2026-04-26T06:13:27Z</time></trkpt><trkpt lat="44.9612108210029" lon="9.909879472232523"><ele>60.57142857142857</ele><time>2026-04-26T06:13:28Z</time></trkpt><trkpt lat="44.9611550755059" lon="9.909828587626595"><ele>60.85714285714286</ele><time>2026-04-26T06:13:29Z</time></trkpt><trkpt lat="44.961100294295896" lon="9.909776520537203"><ele>61.142857142857146</ele><time>2026-04-26T06:13:30Z</time></trkpt><trkpt lat="44.96104340103306" lon="9.909732020071836"><ele>61.42857142857143</ele><time>2026-04-26T06:13:31Z</time></trkpt><trkpt lat="44.9609891012142" lon="9.909684704174456"><ele>61.714285714285715</ele><time>2026-04-26T06:13:32Z</time></trkpt><trkpt lat="44.96092913235474" lon="9.909637687600826"><ele>62.0</ele><time>2026-04-26T06:13:33Z</time></trkpt><trkpt lat="44.96087248074064" lon="9.909585864620704"><ele>61.85714285714286</ele><time>2026-04-26T06:13:34Z</time></trkpt><trkpt lat="44.96081206984223" lon="9.90953540575576"><ele>61.71428571428572</ele><time>2026-04-26T06:13:35Z</time></trkpt><trkpt lat="44.96074977554922" lon="9.909481206964328"><ele>61.57142857142857</ele><time>2026-04-26T06:13:36Z</time></trkpt><trkpt lat="44.96068684101933" lon="9.909427103188793"><ele>61.42857142857143</ele><time>2026-04-26T06:13:37Z</time></trkpt><trkpt lat="44.960620249965245" lon="9.90936837894464"><ele>61.285714285714285</ele><time>2026-04-26T06:13:38Z</time></trkpt><trkpt lat="44.96055302589022" lon="9.909310763156414"><ele>61.14285714285714</ele><time>2026-04-26T06:13:39Z</time></trkpt><trkpt lat="44.96049007588192" lon="9.909253071416073"><ele>60.99999999999999</ele><time>2026-04-26T06:13:39.999Z</time></trkpt><trkpt lat="44.96041983018595" lon="9.909201964408926"><ele>61.666666666666664</ele><time>2026-04-26T06:13:40.999Z</time></trkpt><trkpt lat="44.96035049110234" lon="9.909150643096211"><ele>62.33333333333333</ele><time>2026-04-26T06:13:41.999Z</time></trkpt><trkpt lat="44.960278900483296" lon="9.909095669432112"><ele>63.0</ele><time>2026-04-26T06:13:42.999Z</time></trkpt><trkpt lat="44.96020488354542" lon="9.909045421299023"><ele>63.66666666666667</ele><time>2026-04-26T06:13:43.999Z</time></trkpt><trkpt lat="44.9601305157937" lon="9.908997305370047"><ele>64.33333333333334</ele><time>2026-04-26T06:13:44.999Z</time></trkpt><trkpt lat="44.960050913103075" lon="9.908950363412275"><ele>65.0</ele><time>2026-04-26T06:13:45.999Z</time></trkpt><trkpt lat="44.95997182960297" lon="9.908904714467779"><ele>65.0</ele><time>2026-04-26T06:13:46.999Z</time></trkpt><trkpt lat="44.959892388584414" lon="9.908861106816698"><ele>65.0</ele><time>2026-04-26T06:13:47.999Z</time></trkpt><trkpt lat="44.959810107656295" lon="9.908818089985953"><ele>65.0</ele><time>2026-04-26T06:13:48.999Z</time></trkpt><trkpt lat="44.95972708801371" lon="9.908776684844126"><ele>65.0</ele><time>2026-04-26T06:13:49.999Z</time></trkpt><trkpt lat="44.959640367279505" lon="9.908736290196197"><ele>65.0</ele><time>2026-04-26T06:13:50.999Z</time></trkpt><trkpt lat="44.959555096114585" lon="9.908695350866694"><ele>65.0</ele><time>2026-04-26T06:13:51.999Z</time></trkpt><trkpt lat="44.95946706976551" lon="9.908659458509735"><ele>65.0</ele><time>2026-04-26T06:13:52.999Z</time></trkpt><trkpt lat="44.95937962568857" lon="9.908622612115387"><ele>65.0</ele><time>2026-04-26T06:13:53.999Z</time></trkpt><trkpt lat="44.95929009618027" lon="9.908585129263429"><ele>65.0</ele><time>2026-04-26T06:13:54.999Z</time></trkpt><trkpt lat="44.95920636209788" lon="9.908549102599206"><ele>65.0</ele><time>2026-04-26T06:13:55.999Z</time></trkpt><trkpt lat="44.95912333236283" lon="9.908517582858087"><ele>65.0</ele><time>2026-04-26T06:13:56.999Z</time></trkpt><trkpt lat="44.95904517685165" lon="9.908482882268844"><ele>65.0</ele><time>2026-04-26T06:13:57.999Z</time></trkpt><trkpt lat="44.958967906706455" lon="9.908445002313673"><ele>64.85714285714286</ele><time>2026-04-26T06:13:58.999Z</time></trkpt><trkpt lat="44.958894329588404" lon="9.908413717383423"><ele>64.71428571428572</ele><time>2026-04-26T06:13:59.999Z</time></trkpt><trkpt lat="44.958822620248114" lon="9.908378417840575"><ele>64.57142857142857</ele><time>2026-04-26T06:14:00.999Z</time></trkpt><trkpt lat="44.95875314499206" lon="9.908342266108233"><ele>64.42857142857143</ele><time>2026-04-26T06:14:01.999Z</time></trkpt><trkpt lat="44.95868712347656" lon="9.908307945081734"><ele>64.28571428571428</ele><time>2026-04-26T06:14:02.999Z</time></trkpt><trkpt lat="44.958617948211014" lon="9.908282553463922"><ele>64.14285714285714</ele><time>2026-04-26T06:14:03.999Z</time></trkpt><trkpt lat="44.958546743672834" lon="9.908257370733606"><ele>64.0</ele><time>2026-04-26T06:14:04.999Z</time></trkpt><trkpt lat="44.958482409775804" lon="9.908232788899863"><ele>63.99999999999999</ele><time>2026-04-26T06:14:05.999Z</time></trkpt><trkpt lat="44.9584197893308" lon="9.908204445692995"><ele>64.0</ele><time>2026-04-26T06:14:06.999Z</time></trkpt><trkpt lat="44.95835537961581" lon="9.90818097539355"><ele>64.0</ele><time>2026-04-26T06:14:07.999Z</time></trkpt><trkpt lat="44.95829336068836" lon="9.908157442493703"><ele>64.0</ele><time>2026-04-26T06:14:08.999Z</time></trkpt><trkpt lat="44.95817478603349" lon="9.90810289725832"><ele>63.99999999999999</ele><time>2026-04-26T06:14:10.999Z</time></trkpt><trkpt lat="44.95805958029339" lon="9.908050493532555"><ele>64.0</ele><time>2026-04-26T06:14:12.999Z</time></trkpt><trkpt lat="44.95794459653621" lon="9.908001165510498"><ele>63.99999999999999</ele><time>2026-04-26T06:14:14.999Z</time></trkpt><trkpt lat="44.95788547083392" lon="9.907969200550047"><ele>64.0</ele><time>2026-04-26T06:14:15.999Z</time></trkpt><trkpt lat="44.95776953359038" lon="9.907926601208981"><ele>64.0</ele><time>2026-04-26T06:14:17.999Z</time></trkpt><trkpt lat="44.9576550172955" lon="9.90787685626829"><ele>64.0</ele><time>2026-04-26T06:14:19.999Z</time></trkpt><trkpt lat="44.95759435095632" lon="9.907847625725326"><ele>63.99999999999999</ele><time>2026-04-26T06:14:20.999Z</time></trkpt><trkpt lat="44.95753291333188" lon="9.907818104919638"><ele>64.0</ele><time>2026-04-26T06:14:21.999Z</time></trkpt><trkpt lat="44.95746723230363" lon="9.90778418523652"><ele>63.99999999999999</ele><time>2026-04-26T06:14:22.999Z</time></trkpt><trkpt lat="44.957399834725734" lon="9.90775461008274"><ele>64.0</ele><time>2026-04-26T06:14:23.999Z</time></trkpt><trkpt lat="44.95733199365534" lon="9.907725316434284"><ele>64.0</ele><time>2026-04-26T06:14:24.999Z</time></trkpt><trkpt lat="44.95725880209568" lon="9.907696373531143"><ele>64.0</ele><time>2026-04-26T06:14:25.999Z</time></trkpt><trkpt lat="44.95718358806657" lon="9.907666660957107"><ele>63.99999999999999</ele><time>2026-04-26T06:14:26.999Z</time></trkpt><trkpt lat="44.95710674938656" lon="9.90763418449685"><ele>64.0</ele><time>2026-04-26T06:14:27.999Z</time></trkpt><trkpt lat="44.95703009256266" lon="9.907600426639076"><ele>63.99999999999999</ele><time>2026-04-26T06:14:28.999Z</time></trkpt><trkpt lat="44.95694855870632" lon="9.907564227295492"><ele>64.0</ele><time>2026-04-26T06:14:29.999Z</time></trkpt><trkpt lat="44.956868434202605" lon="9.907528562023161"><ele>64.0</ele><time>2026-04-26T06:14:30.999Z</time></trkpt><trkpt lat="44.9567855129003" lon="9.907493864170224"><ele>64.0</ele><time>2026-04-26T06:14:31.999Z</time></trkpt><trkpt lat="44.95670161873125" lon="9.907453449403155"><ele>63.99999999999999</ele><time>2026-04-26T06:14:32.999Z</time></trkpt><trkpt lat="44.95661474276403" lon="9.907413920953786"><ele>64.0</ele><time>2026-04-26T06:14:33.998Z</time></trkpt><trkpt lat="44.956526158076635" lon="9.907377389863768"><ele>64.0</ele><time>2026-04-26T06:14:34.998Z</time></trkpt><trkpt lat="44.95643598768985" lon="9.90733839372546"><ele>64.0</ele><time>2026-04-26T06:14:35.998Z</time></trkpt><trkpt lat="44.95634519997868" lon="9.90729773650006"><ele>64.0</ele><time>2026-04-26T06:14:36.998Z</time></trkpt><trkpt lat="44.956253653322484" lon="9.907254431892651"><ele>64.0</ele><time>2026-04-26T06:14:37.998Z</time></trkpt><trkpt lat="44.95615987468635" lon="9.907213796988193"><ele>64.0</ele><time>2026-04-26T06:14:38.998Z</time></trkpt><trkpt lat="44.95606419445604" lon="9.90717701639507"><ele>64.0</ele><time>2026-04-26T06:14:39.998Z</time></trkpt><trkpt lat="44.95596652491047" lon="9.907137702786986"><ele>64.0</ele><time>2026-04-26T06:14:40.998Z</time></trkpt><trkpt lat="44.95587275840419" lon="9.907098436070099"><ele>64.0</ele><time>2026-04-26T06:14:41.998Z</time></trkpt><trkpt lat="44.95577703205555" lon="9.907058153491176"><ele>64.0</ele><time>2026-04-26T06:14:42.998Z</time></trkpt><trkpt lat="44.95569021919696" lon="9.90701310370373"><ele>64.0</ele><time>2026-04-26T06:14:43.998Z</time></trkpt><trkpt lat="44.9556050984263" lon="9.906964684001137"><ele>63.99999999999999</ele><time>2026-04-26T06:14:44.998Z</time></trkpt><trkpt lat="44.95552045610856" lon="9.906911618516594"><ele>64.0</ele><time>2026-04-26T06:14:45.998Z</time></trkpt><trkpt lat="44.9554382618171" lon="9.90686565772747"><ele>64.0</ele><time>2026-04-26T06:14:46.998Z</time></trkpt><trkpt lat="44.9553557693056" lon="9.906821621466916"><ele>64.0</ele><time>2026-04-26T06:14:47.998Z</time></trkpt><trkpt lat="44.95527589295648" lon="9.906778147553227"><ele>63.99999999999999</ele><time>2026-04-26T06:14:48.998Z</time></trkpt><trkpt lat="44.95519854058006" lon="9.906734691921692"><ele>64.0</ele><time>2026-04-26T06:14:49.998Z</time></trkpt><trkpt lat="44.95512196170771" lon="9.906691133561335"><ele>63.83333333333333</ele><time>2026-04-26T06:14:50.998Z</time></trkpt><trkpt lat="44.955046460718954" lon="9.906646887777985"><ele>63.666666666666664</ele><time>2026-04-26T06:14:51.998Z</time></trkpt><trkpt lat="44.95497162958825" lon="9.906600317622456"><ele>63.5</ele><time>2026-04-26T06:14:52.998Z</time></trkpt><trkpt lat="44.95489209458326" lon="9.906556366653247"><ele>63.33333333333333</ele><time>2026-04-26T06:14:53.998Z</time></trkpt><trkpt lat="44.9548189189183" lon="9.906515215382196"><ele>63.166666666666664</ele><time>2026-04-26T06:14:54.998Z</time></trkpt><trkpt lat="44.95474091247276" lon="9.906471484176311"><ele>63.0</ele><time>2026-04-26T06:14:55.998Z</time></trkpt><trkpt lat="44.95466495543537" lon="9.906426093415467"><ele>63.0</ele><time>2026-04-26T06:14:56.998Z</time></trkpt><trkpt lat="44.95458924138042" lon="9.906380758303886"><ele>63.0</ele><time>2026-04-26T06:14:57.998Z</time></trkpt><trkpt lat="44.95451330085283" lon="9.906337389703397"><ele>63.0</ele><time>2026-04-26T06:14:58.998Z</time></trkpt><trkpt lat="44.954436103304744" lon="9.90629344977687"><ele>63.0</ele><time>2026-04-26T06:14:59.998Z</time></trkpt><trkpt lat="44.954360825894945" lon="9.906251955935213"><ele>63.0</ele><time>2026-04-26T06:15:00.998Z</time></trkpt><trkpt lat="44.95428420220167" lon="9.906209713522871"><ele>63.0</ele><time>2026-04-26T06:15:01.998Z</time></trkpt><trkpt lat="44.95420920642281" lon="9.906167674919262"><ele>63.5</ele><time>2026-04-26T06:15:02.998Z</time></trkpt><trkpt lat="44.95413539229524" lon="9.906127388695397"><ele>64.0</ele><time>2026-04-26T06:15:03.998Z</time></trkpt><trkpt lat="44.9540621806147" lon="9.906085011399671"><ele>64.5</ele><time>2026-04-26T06:15:04.998Z</time></trkpt><trkpt lat="44.95398882226538" lon="9.906043762525039"><ele>65.0</ele><time>2026-04-26T06:15:05.998Z</time></trkpt><trkpt lat="44.95391510956995" lon="9.906002680514428"><ele>65.5</ele><time>2026-04-26T06:15:06.998Z</time></trkpt><trkpt lat="44.95384257069511" lon="9.905960775720501"><ele>66.0</ele><time>2026-04-26T06:15:07.998Z</time></trkpt><trkpt lat="44.9537692060428" lon="9.905918435512437"><ele>66.0</ele><time>2026-04-26T06:15:08.998Z</time></trkpt><trkpt lat="44.953696689685444" lon="9.90587771061182"><ele>66.0</ele><time>2026-04-26T06:15:09.998Z</time></trkpt><trkpt lat="44.95362706937839" lon="9.905838478758499"><ele>66.0</ele><time>2026-04-26T06:15:10.998Z</time></trkpt><trkpt lat="44.95355485530883" lon="9.905797283776401"><ele>66.0</ele><time>2026-04-26T06:15:12Z</time></trkpt><trkpt lat="44.9534829689344" lon="9.90575619661284"><ele>66.0</ele><time>2026-04-26T06:15:13Z</time></trkpt><trkpt lat="44.95341119880638" lon="9.905716543852963"><ele>66.0</ele><time>2026-04-26T06:15:14Z</time></trkpt><trkpt lat="44.95334023082394" lon="9.905674232854324"><ele>66.0</ele><time>2026-04-26T06:15:15Z</time></trkpt><trkpt lat="44.95326933554951" lon="9.905635656098658"><ele>66.0</ele><time>2026-04-26T06:15:16Z</time></trkpt><trkpt lat="44.953196182451165" lon="9.905598262379375"><ele>66.0</ele><time>2026-04-26T06:15:17Z</time></trkpt><trkpt lat="44.95312703312693" lon="9.905557629712574"><ele>66.0</ele><time>2026-04-26T06:15:18Z</time></trkpt><trkpt lat="44.95305651621332" lon="9.90551866024623"><ele>66.0</ele><time>2026-04-26T06:15:19Z</time></trkpt><trkpt lat="44.95298572999382" lon="9.9054780336691"><ele>66.0</ele><time>2026-04-26T06:15:20Z</time></trkpt><trkpt lat="44.95291570914157" lon="9.905436576968235"><ele>66.0</ele><time>2026-04-26T06:15:21Z</time></trkpt><trkpt lat="44.95284619031478" lon="9.905397322616246"><ele>66.0</ele><time>2026-04-26T06:15:22Z</time></trkpt><trkpt lat="44.95277476502763" lon="9.90535770998911"><ele>66.0</ele><time>2026-04-26T06:15:23Z</time></trkpt><trkpt lat="44.95270444523612" lon="9.90531676285687"><ele>66.0</ele><time>2026-04-26T06:15:24Z</time></trkpt><trkpt lat="44.952635294810456" lon="9.905274517678805"><ele>66.0</ele><time>2026-04-26T06:15:25Z</time></trkpt><trkpt lat="44.95256413264037" lon="9.905235012426814"><ele>66.0</ele><time>2026-04-26T06:15:26Z</time></trkpt><trkpt lat="44.95249329375639" lon="9.905189030477517"><ele>66.0</ele><time>2026-04-26T06:15:27Z</time></trkpt><trkpt lat="44.95242310877112" lon="9.905146875005949"><ele>66.0</ele><time>2026-04-26T06:15:28Z</time></trkpt><trkpt lat="44.952353034458426" lon="9.905103797568943"><ele>66.0</ele><time>2026-04-26T06:15:29Z</time></trkpt><trkpt lat="44.952281790747364" lon="9.905062254688424"><ele>66.0</ele><time>2026-04-26T06:15:30Z</time></trkpt><trkpt lat="44.95219889418979" lon="9.90503959238075"><ele>66.0</ele><time>2026-04-26T06:15:31Z</time></trkpt><trkpt lat="44.95214955646896" lon="9.904958604853006"><ele>66.0</ele><time>2026-04-26T06:15:32Z</time></trkpt><trkpt lat="44.95208773411901" lon="9.904892331735894"><ele>66.16666666666667</ele><time>2026-04-26T06:15:33Z</time></trkpt><trkpt lat="44.95203086507165" lon="9.904819839277815"><ele>66.33333333333333</ele><time>2026-04-26T06:15:34Z</time></trkpt><trkpt lat="44.951965804019004" lon="9.904769069009173"><ele>66.5</ele><time>2026-04-26T06:15:35Z</time></trkpt><trkpt lat="44.951916001980884" lon="9.904683152037485"><ele>66.66666666666666</ele><time>2026-04-26T06:15:36Z</time></trkpt><trkpt lat="44.95184232119605" lon="9.904641873601962"><ele>66.83333333333333</ele><time>2026-04-26T06:15:37Z</time></trkpt><trkpt lat="44.95176433800055" lon="9.904619838154611"><ele>67.0</ele><time>2026-04-26T06:15:38Z</time></trkpt><trkpt lat="44.95168148981365" lon="9.904608684462662"><ele>67.0</ele><time>2026-04-26T06:15:39Z</time></trkpt><trkpt lat="44.95160155064114" lon="9.90460361009276"><ele>67.0</ele><time>2026-04-26T06:15:40Z</time></trkpt><trkpt lat="44.95152079030577" lon="9.904591406493168"><ele>67.0</ele><time>2026-04-26T06:15:41Z</time></trkpt><trkpt lat="44.95144228126182" lon="9.904567987002954"><ele>67.0</ele><time>2026-04-26T06:15:41.999Z</time></trkpt><trkpt lat="44.95136136732111" lon="9.90457426204925"><ele>67.0</ele><time>2026-04-26T06:15:42.999Z</time></trkpt><trkpt lat="44.951284564540195" lon="9.904561589601409"><ele>67.0</ele><time>2026-04-26T06:15:43.999Z</time></trkpt><trkpt lat="44.95121464349957" lon="9.90448291147928"><ele>67.0</ele><time>2026-04-26T06:15:44.999Z</time></trkpt><trkpt lat="44.951141832920186" lon="9.904443480914788"><ele>67.0</ele><time>2026-04-26T06:15:45.999Z</time></trkpt><trkpt lat="44.951072928767545" lon="9.904400517961843"><ele>67.0</ele><time>2026-04-26T06:15:46.999Z</time></trkpt><trkpt lat="44.951000399952285" lon="9.904354710658314"><ele>67.0</ele><time>2026-04-26T06:15:47.999Z</time></trkpt><trkpt lat="44.950927131078544" lon="9.90430983457862"><ele>67.0</ele><time>2026-04-26T06:15:48.999Z</time></trkpt><trkpt lat="44.95085501900484" lon="9.90426447141468"><ele>67.0</ele><time>2026-04-26T06:15:49.999Z</time></trkpt><trkpt lat="44.95078043039397" lon="9.904219430333715"><ele>66.33333333333333</ele><time>2026-04-26T06:15:50.999Z</time></trkpt><trkpt lat="44.95070625758099" lon="9.904177112104804"><ele>65.66666666666666</ele><time>2026-04-26T06:15:51.999Z</time></trkpt><trkpt lat="44.95063413373475" lon="9.904133971444399"><ele>65.0</ele><time>2026-04-26T06:15:52.999Z</time></trkpt><trkpt lat="44.950559631436874" lon="9.90408808467778"><ele>64.33333333333333</ele><time>2026-04-26T06:15:53.999Z</time></trkpt><trkpt lat="44.95048623829332" lon="9.904045772416483"><ele>63.666666666666664</ele><time>2026-04-26T06:15:54.999Z</time></trkpt><trkpt lat="44.95041126445348" lon="9.904001260947261"><ele>63.0</ele><time>2026-04-26T06:15:55.999Z</time></trkpt><trkpt lat="44.950336937125" lon="9.90395503663984"><ele>63.0</ele><time>2026-04-26T06:15:56.999Z</time></trkpt><trkpt lat="44.95026244722114" lon="9.903911308041653"><ele>63.0</ele><time>2026-04-26T06:15:57.999Z</time></trkpt><trkpt lat="44.95018924513327" lon="9.903863690818005"><ele>63.0</ele><time>2026-04-26T06:15:58.999Z</time></trkpt><trkpt lat="44.95011545737601" lon="9.903819184968011"><ele>63.0</ele><time>2026-04-26T06:15:59.999Z</time></trkpt><trkpt lat="44.95004098450619" lon="9.903772085523173"><ele>63.0</ele><time>2026-04-26T06:16:00.999Z</time></trkpt><trkpt lat="44.94996821749051" lon="9.903725260363904"><ele>63.0</ele><time>2026-04-26T06:16:01.999Z</time></trkpt><trkpt lat="44.94989324781464" lon="9.90367602526039"><ele>63.166666666666664</ele><time>2026-04-26T06:16:02.999Z</time></trkpt><trkpt lat="44.94982020604318" lon="9.903631052044338"><ele>63.33333333333333</ele><time>2026-04-26T06:16:03.999Z</time></trkpt><trkpt lat="44.94974738519297" lon="9.903586504041234"><ele>63.5</ele><time>2026-04-26T06:16:04.999Z</time></trkpt><trkpt lat="44.94967534559847" lon="9.903541159609345"><ele>63.666666666666664</ele><time>2026-04-26T06:16:05.999Z</time></trkpt><trkpt lat="44.94960319163259" lon="9.903496226625691"><ele>63.83333333333333</ele><time>2026-04-26T06:16:06.999Z</time></trkpt><trkpt lat="44.94953060131851" lon="9.903454190047293"><ele>64.0</ele><time>2026-04-26T06:16:07.999Z</time></trkpt><trkpt lat="44.94945832333967" lon="9.903410745319114"><ele>64.16666666666666</ele><time>2026-04-26T06:16:08.999Z</time></trkpt><trkpt lat="44.94938715002475" lon="9.903363543305185"><ele>64.33333333333333</ele><time>2026-04-26T06:16:09.999Z</time></trkpt><trkpt lat="44.949314343349606" lon="9.903317132169054"><ele>64.5</ele><time>2026-04-26T06:16:10.999Z</time></trkpt><trkpt lat="44.94924420627358" lon="9.903273700604313"><ele>64.66666666666667</ele><time>2026-04-26T06:16:11.999Z</time></trkpt><trkpt lat="44.94917096571711" lon="9.903227003625792"><ele>64.83333333333334</ele><time>2026-04-26T06:16:12.999Z</time></trkpt><trkpt lat="44.94910015141989" lon="9.903183082786525"><ele>65.0</ele><time>2026-04-26T06:16:13.999Z</time></trkpt><trkpt lat="44.949027717002636" lon="9.903134920849704"><ele>65.5</ele><time>2026-04-26T06:16:14.999Z</time></trkpt><trkpt lat="44.948954591981284" lon="9.903090860185829"><ele>66.0</ele><time>2026-04-26T06:16:15.999Z</time></trkpt><trkpt lat="44.948881229055324" lon="9.903043916107743"><ele>66.5</ele><time>2026-04-26T06:16:16.999Z</time></trkpt><trkpt lat="44.94880903233308" lon="9.90299893833252"><ele>67.0</ele><time>2026-04-26T06:16:17.999Z</time></trkpt><trkpt lat="44.948736427961954" lon="9.902951295488334"><ele>67.5</ele><time>2026-04-26T06:16:18.999Z</time></trkpt><trkpt lat="44.94866419673737" lon="9.902904791378532"><ele>68.0</ele><time>2026-04-26T06:16:19.999Z</time></trkpt><trkpt lat="44.948591340322416" lon="9.902859284818337"><ele>68.0</ele><time>2026-04-26T06:16:20.999Z</time></trkpt><trkpt lat="44.948520291619495" lon="9.902811526896777"><ele>68.0</ele><time>2026-04-26T06:16:21.999Z</time></trkpt><trkpt lat="44.94844981398435" lon="9.902764363685787"><ele>68.0</ele><time>2026-04-26T06:16:22.999Z</time></trkpt><trkpt lat="44.94837762903539" lon="9.902717250637947"><ele>68.0</ele><time>2026-04-26T06:16:23.999Z</time></trkpt><trkpt lat="44.94830416407538" lon="9.902668475773572"><ele>68.0</ele><time>2026-04-26T06:16:24.999Z</time></trkpt><trkpt lat="44.94822978507765" lon="9.902624083494752"><ele>68.0</ele><time>2026-04-26T06:16:25.999Z</time></trkpt><trkpt lat="44.94815670789904" lon="9.902577534780995"><ele>67.66666666666667</ele><time>2026-04-26T06:16:26.999Z</time></trkpt><trkpt lat="44.94808285365916" lon="9.902531253220495"><ele>67.33333333333334</ele><time>2026-04-26T06:16:27.999Z</time></trkpt><trkpt lat="44.948009475775976" lon="9.902485773582535"><ele>67.0</ele><time>2026-04-26T06:16:28.999Z</time></trkpt><trkpt lat="44.94793756169453" lon="9.902440297035804"><ele>66.66666666666667</ele><time>2026-04-26T06:16:29.999Z</time></trkpt><trkpt lat="44.947865157771155" lon="9.902393487742119"><ele>66.33333333333333</ele><time>2026-04-26T06:16:30.999Z</time></trkpt><trkpt lat="44.94779357257457" lon="9.902347640800912"><ele>66.0</ele><time>2026-04-26T06:16:31.999Z</time></trkpt><trkpt lat="44.947721450745185" lon="9.902301852120607"><ele>66.0</ele><time>2026-04-26T06:16:32.999Z</time></trkpt><trkpt lat="44.94764948917853" lon="9.902259402683361"><ele>66.0</ele><time>2026-04-26T06:16:33.999Z</time></trkpt><trkpt lat="44.9475785944321" lon="9.90221357261423"><ele>66.0</ele><time>2026-04-26T06:16:34.999Z</time></trkpt><trkpt lat="44.947505450744444" lon="9.902172883636878"><ele>66.0</ele><time>2026-04-26T06:16:35.998Z</time></trkpt><trkpt lat="44.947434119789854" lon="9.90212747284331"><ele>66.0</ele><time>2026-04-26T06:16:36.998Z</time></trkpt><trkpt lat="44.94736177080857" lon="9.902081305753962"><ele>66.0</ele><time>2026-04-26T06:16:37.998Z</time></trkpt><trkpt lat="44.947287609622926" lon="9.902038028830551"><ele>66.33333333333333</ele><time>2026-04-26T06:16:38.998Z</time></trkpt><trkpt lat="44.94721478910063" lon="9.901994234570939"><ele>66.66666666666667</ele><time>2026-04-26T06:16:39.998Z</time></trkpt><trkpt lat="44.947142864719865" lon="9.90194687413061"><ele>67.0</ele><time>2026-04-26T06:16:40.998Z</time></trkpt><trkpt lat="44.94706896064001" lon="9.90189975215127"><ele>67.33333333333334</ele><time>2026-04-26T06:16:41.998Z</time></trkpt><trkpt lat="44.94699469064343" lon="9.901858160088919"><ele>67.66666666666667</ele><time>2026-04-26T06:16:42.998Z</time></trkpt><trkpt lat="44.94692131792755" lon="9.901817104817646"><ele>68.0</ele><time>2026-04-26T06:16:43.998Z</time></trkpt><trkpt lat="44.946846759960444" lon="9.90176910352989"><ele>68.0</ele><time>2026-04-26T06:16:44.998Z</time></trkpt><trkpt lat="44.94677271492572" lon="9.901723714614649"><ele>68.0</ele><time>2026-04-26T06:16:45.998Z</time></trkpt><trkpt lat="44.946699200722804" lon="9.901676837079817"><ele>68.0</ele><time>2026-04-26T06:16:46.998Z</time></trkpt><trkpt lat="44.946624003344915" lon="9.90163366566136"><ele>68.0</ele><time>2026-04-26T06:16:47.998Z</time></trkpt><trkpt lat="44.946551082987675" lon="9.90159144625716"><ele>68.0</ele><time>2026-04-26T06:16:48.998Z</time></trkpt><trkpt lat="44.94647547726796" lon="9.90154487421486"><ele>68.0</ele><time>2026-04-26T06:16:49.998Z</time></trkpt><trkpt lat="44.94640205366495" lon="9.901499292004571"><ele>68.0</ele><time>2026-04-26T06:16:50.998Z</time></trkpt><trkpt lat="44.94632655646202" lon="9.90145383671763"><ele>68.0</ele><time>2026-04-26T06:16:51.998Z</time></trkpt><trkpt lat="44.946251362895026" lon="9.901410777878171"><ele>68.0</ele><time>2026-04-26T06:16:52.998Z</time></trkpt><trkpt lat="44.94617658174878" lon="9.901367600563004"><ele>68.0</ele><time>2026-04-26T06:16:53.998Z</time></trkpt><trkpt lat="44.94610470134068" lon="9.901323060562053"><ele>68.0</ele><time>2026-04-26T06:16:54.998Z</time></trkpt><trkpt lat="44.94603006885621" lon="9.901275232801847"><ele>68.0</ele><time>2026-04-26T06:16:55.998Z</time></trkpt><trkpt lat="44.945958884115555" lon="9.901229727874574"><ele>68.0</ele><time>2026-04-26T06:16:56.998Z</time></trkpt><trkpt lat="44.94588663793754" lon="9.901180067548212"><ele>68.0</ele><time>2026-04-26T06:16:57.998Z</time></trkpt><trkpt lat="44.945813043663506" lon="9.90113973850483"><ele>68.0</ele><time>2026-04-26T06:16:58.998Z</time></trkpt><trkpt lat="44.94574050277261" lon="9.901092689162066"><ele>68.0</ele><time>2026-04-26T06:16:59.998Z</time></trkpt><trkpt lat="44.945667591877275" lon="9.901050628888205"><ele>68.0</ele><time>2026-04-26T06:17:00.998Z</time></trkpt><trkpt lat="44.94559432489654" lon="9.901010145857393"><ele>68.0</ele><time>2026-04-26T06:17:01.998Z</time></trkpt><trkpt lat="44.94552203233572" lon="9.900970670303575"><ele>68.16666666666667</ele><time>2026-04-26T06:17:02.998Z</time></trkpt><trkpt lat="44.94544894767321" lon="9.900927788486834"><ele>68.33333333333334</ele><time>2026-04-26T06:17:03.998Z</time></trkpt><trkpt lat="44.945375481358276" lon="9.900886817304112"><ele>68.5</ele><time>2026-04-26T06:17:04.998Z</time></trkpt><trkpt lat="44.945301959833444" lon="9.900844402878855"><ele>68.66666666666667</ele><time>2026-04-26T06:17:05.998Z</time></trkpt><trkpt lat="44.94523036692853" lon="9.90080773275887"><ele>68.83333333333333</ele><time>2026-04-26T06:17:06.998Z</time></trkpt><trkpt lat="44.94516009029942" lon="9.900772066386265"><ele>69.0</ele><time>2026-04-26T06:17:07.998Z</time></trkpt><trkpt lat="44.945085931496386" lon="9.90073687588189"><ele>69.16666666666667</ele><time>2026-04-26T06:17:08.998Z</time></trkpt><trkpt lat="44.945009551208514" lon="9.900701929101022"><ele>69.33333333333333</ele><time>2026-04-26T06:17:09.998Z</time></trkpt><trkpt lat="44.94493361357226" lon="9.900666654123304"><ele>69.5</ele><time>2026-04-26T06:17:10.998Z</time></trkpt><trkpt lat="44.94485758921282" lon="9.900629698880481"><ele>69.66666666666666</ele><time>2026-04-26T06:17:11.998Z</time></trkpt><trkpt lat="44.944783053081515" lon="9.900592421063122"><ele>69.83333333333333</ele><time>2026-04-26T06:17:12.998Z</time></trkpt><trkpt lat="44.94471001483083" lon="9.900556356414231"><ele>70.0</ele><time>2026-04-26T06:17:13.998Z</time></trkpt><trkpt lat="44.94463906844886" lon="9.900523915347208"><ele>70.0</ele><time>2026-04-26T06:17:14.998Z</time></trkpt><trkpt lat="44.94456834867501" lon="9.900495720630662"><ele>70.0</ele><time>2026-04-26T06:17:15.998Z</time></trkpt><trkpt lat="44.94449799767171" lon="9.900466566457286"><ele>70.0</ele><time>2026-04-26T06:17:17Z</time></trkpt><trkpt lat="44.94442651020217" lon="9.900436435323678"><ele>70.0</ele><time>2026-04-26T06:17:18Z</time></trkpt><trkpt lat="44.94435683931674" lon="9.900405412075616"><ele>70.0</ele><time>2026-04-26T06:17:19Z</time></trkpt><trkpt lat="44.94428978322002" lon="9.900374748849194"><ele>70.0</ele><time>2026-04-26T06:17:20Z</time></trkpt><trkpt lat="44.944221834067754" lon="9.900344650355088"><ele>70.0</ele><time>2026-04-26T06:17:21Z</time></trkpt><trkpt lat="44.94415308393659" lon="9.900312455681066"><ele>69.85714285714286</ele><time>2026-04-26T06:17:22Z</time></trkpt><trkpt lat="44.94408390019223" lon="9.90028089842624"><ele>69.71428571428572</ele><time>2026-04-26T06:17:23Z</time></trkpt><trkpt lat="44.94401475828369" lon="9.900250171446341"><ele>69.57142857142857</ele><time>2026-04-26T06:17:24Z</time></trkpt><trkpt lat="44.943944463489274" lon="9.900218755653414"><ele>69.42857142857143</ele><time>2026-04-26T06:17:25Z</time></trkpt><trkpt lat="44.94387702339792" lon="9.900188953337546"><ele>69.28571428571429</ele><time>2026-04-26T06:17:26Z</time></trkpt><trkpt lat="44.94380717313415" lon="9.900160062697552"><ele>69.14285714285714</ele><time>2026-04-26T06:17:27Z</time></trkpt><trkpt lat="44.94373688745674" lon="9.900126309485383"><ele>69.0</ele><time>2026-04-26T06:17:28Z</time></trkpt><trkpt lat="44.94366924187084" lon="9.90009602694023"><ele>69.14285714285714</ele><time>2026-04-26T06:17:29Z</time></trkpt><trkpt lat="44.94359936677013" lon="9.900063680179809"><ele>69.28571428571429</ele><time>2026-04-26T06:17:30Z</time></trkpt><trkpt lat="44.943530620234874" lon="9.900032182210566"><ele>69.42857142857143</ele><time>2026-04-26T06:17:31Z</time></trkpt><trkpt lat="44.94346221923274" lon="9.9000019611233"><ele>69.57142857142857</ele><time>2026-04-26T06:17:32Z</time></trkpt><trkpt lat="44.94339422148234" lon="9.899973396129559"><ele>69.71428571428572</ele><time>2026-04-26T06:17:33Z</time></trkpt><trkpt lat="44.94332746405324" lon="9.899940820172038"><ele>69.85714285714286</ele><time>2026-04-26T06:17:34Z</time></trkpt><trkpt lat="44.94326013506287" lon="9.89990581739393"><ele>70.0</ele><time>2026-04-26T06:17:35Z</time></trkpt><trkpt lat="44.94319374091198" lon="9.899874044326113"><ele>69.57142857142857</ele><time>2026-04-26T06:17:36Z</time></trkpt><trkpt lat="44.943128267452394" lon="9.899840389081188"><ele>69.14285714285714</ele><time>2026-04-26T06:17:37Z</time></trkpt><trkpt lat="44.94306429463209" lon="9.899806910865117"><ele>68.71428571428572</ele><time>2026-04-26T06:17:38Z</time></trkpt><trkpt lat="44.942998614372534" lon="9.899770186678307"><ele>68.28571428571428</ele><time>2026-04-26T06:17:39Z</time></trkpt><trkpt lat="44.94293605874474" lon="9.899734983381373"><ele>67.85714285714286</ele><time>2026-04-26T06:17:40Z</time></trkpt><trkpt lat="44.94287373286451" lon="9.89969495752144"><ele>67.42857142857143</ele><time>2026-04-26T06:17:41Z</time></trkpt><trkpt lat="44.942809824640854" lon="9.899651686197249"><ele>67.0</ele><time>2026-04-26T06:17:42Z</time></trkpt><trkpt lat="44.94274689061" lon="9.899610324013704"><ele>67.0</ele><time>2026-04-26T06:17:43Z</time></trkpt><trkpt lat="44.94268455194016" lon="9.899570621823852"><ele>67.0</ele><time>2026-04-26T06:17:43.999Z</time></trkpt><trkpt lat="44.94261945472576" lon="9.899526200148156"><ele>67.0</ele><time>2026-04-26T06:17:44.999Z</time></trkpt><trkpt lat="44.94255628867601" lon="9.899481317689366"><ele>67.0</ele><time>2026-04-26T06:17:45.999Z</time></trkpt><trkpt lat="44.9424936408015" lon="9.899434925008087"><ele>67.0</ele><time>2026-04-26T06:17:46.999Z</time></trkpt><trkpt lat="44.94243153949246" lon="9.899388788845217"><ele>67.0</ele><time>2026-04-26T06:17:47.999Z</time></trkpt><trkpt lat="44.94237378348552" lon="9.899343144553583"><ele>67.0</ele><time>2026-04-26T06:17:48.999Z</time></trkpt><trkpt lat="44.942312030774225" lon="9.899290266079772"><ele>67.57142857142857</ele><time>2026-04-26T06:17:49.999Z</time></trkpt><trkpt lat="44.94225235662369" lon="9.899237965995013"><ele>68.14285714285714</ele><time>2026-04-26T06:17:50.999Z</time></trkpt><trkpt lat="44.942193271882466" lon="9.89919046993228"><ele>68.71428571428571</ele><time>2026-04-26T06:17:51.999Z</time></trkpt><trkpt lat="44.94213452343934" lon="9.899133397905777"><ele>69.28571428571428</ele><time>2026-04-26T06:17:52.999Z</time></trkpt><trkpt lat="44.942076615061055" lon="9.899079794580205"><ele>69.85714285714285</ele><time>2026-04-26T06:17:53.999Z</time></trkpt><trkpt lat="44.942019742630926" lon="9.899021234527405"><ele>70.42857142857143</ele><time>2026-04-26T06:17:54.999Z</time></trkpt><trkpt lat="44.94196442025139" lon="9.898962609129361"><ele>71.0</ele><time>2026-04-26T06:17:55.999Z</time></trkpt><trkpt lat="44.94191058403668" lon="9.898903953871647"><ele>71.0</ele><time>2026-04-26T06:17:56.999Z</time></trkpt><trkpt lat="44.94185794833105" lon="9.898843386537525"><ele>71.0</ele><time>2026-04-26T06:17:57.999Z</time></trkpt><trkpt lat="44.941803814037364" lon="9.898780901602128"><ele>71.0</ele><time>2026-04-26T06:17:58.999Z</time></trkpt><trkpt lat="44.941751926987614" lon="9.898715941467593"><ele>71.0</ele><time>2026-04-26T06:17:59.999Z</time></trkpt><trkpt lat="44.941698956873125" lon="9.89865288034901"><ele>71.0</ele><time>2026-04-26T06:18:00.999Z</time></trkpt><trkpt lat="44.941645328024066" lon="9.898590372387686"><ele>71.0</ele><time>2026-04-26T06:18:01.999Z</time></trkpt><trkpt lat="44.94159231670008" lon="9.89852314809089"><ele>71.0</ele><time>2026-04-26T06:18:02.999Z</time></trkpt><trkpt lat="44.94154161634883" lon="9.898458406269175"><ele>71.42857142857143</ele><time>2026-04-26T06:18:03.999Z</time></trkpt><trkpt lat="44.94148813262441" lon="9.898393351542659"><ele>71.85714285714285</ele><time>2026-04-26T06:18:04.999Z</time></trkpt><trkpt lat="44.94143484025027" lon="9.898330947508288"><ele>72.28571428571428</ele><time>2026-04-26T06:18:05.999Z</time></trkpt><trkpt lat="44.94138001577889" lon="9.89826286763613"><ele>72.71428571428571</ele><time>2026-04-26T06:18:06.999Z</time></trkpt><trkpt lat="44.941326235173804" lon="9.898198452632615"><ele>73.14285714285714</ele><time>2026-04-26T06:18:07.999Z</time></trkpt><trkpt lat="44.94127151223223" lon="9.898131974911733"><ele>73.57142857142857</ele><time>2026-04-26T06:18:08.999Z</time></trkpt><trkpt lat="44.94121885723238" lon="9.89806602785242"><ele>74.0</ele><time>2026-04-26T06:18:09.999Z</time></trkpt><trkpt lat="44.941163792298504" lon="9.898000104717102"><ele>74.0</ele><time>2026-04-26T06:18:10.999Z</time></trkpt><trkpt lat="44.94110993060142" lon="9.897930451918402"><ele>74.0</ele><time>2026-04-26T06:18:11.999Z</time></trkpt><trkpt lat="44.941056143480594" lon="9.897864213903397"><ele>74.0</ele><time>2026-04-26T06:18:12.999Z</time></trkpt><trkpt lat="44.94100080638274" lon="9.897794398319832"><ele>74.0</ele><time>2026-04-26T06:18:13.999Z</time></trkpt><trkpt lat="44.94094625595125" lon="9.89772555741344"><ele>74.0</ele><time>2026-04-26T06:18:14.999Z</time></trkpt><trkpt lat="44.94089197832461" lon="9.897656565013767"><ele>74.0</ele><time>2026-04-26T06:18:15.999Z</time></trkpt><trkpt lat="44.940837453246296" lon="9.897588231093671"><ele>74.0</ele><time>2026-04-26T06:18:16.999Z</time></trkpt><trkpt lat="44.94078196220015" lon="9.89752251385099"><ele>73.71428571428572</ele><time>2026-04-26T06:18:17.999Z</time></trkpt><trkpt lat="44.94072869790731" lon="9.89745245464478"><ele>73.42857142857143</ele><time>2026-04-26T06:18:18.999Z</time></trkpt><trkpt lat="44.94067347737827" lon="9.897384815161095"><ele>73.14285714285714</ele><time>2026-04-26T06:18:19.999Z</time></trkpt><trkpt lat="44.940619452207585" lon="9.897310657854378"><ele>72.85714285714286</ele><time>2026-04-26T06:18:20.999Z</time></trkpt><trkpt lat="44.94056347581064" lon="9.897244392336217"><ele>72.57142857142857</ele><time>2026-04-26T06:18:21.999Z</time></trkpt><trkpt lat="44.940505087910395" lon="9.89717298299255"><ele>72.28571428571429</ele><time>2026-04-26T06:18:22.999Z</time></trkpt><trkpt lat="44.94045070273868" lon="9.897098909839334"><ele>72.0</ele><time>2026-04-26T06:18:23.999Z</time></trkpt><trkpt lat="44.94039358179091" lon="9.897025000075944"><ele>72.0</ele><time>2026-04-26T06:18:24.999Z</time></trkpt><trkpt lat="44.940335962747135" lon="9.896952523011512"><ele>72.0</ele><time>2026-04-26T06:18:25.999Z</time></trkpt><trkpt lat="44.94027727348059" lon="9.896879987159407"><ele>72.0</ele><time>2026-04-26T06:18:26.999Z</time></trkpt><trkpt lat="44.9402186897213" lon="9.896806368350418"><ele>72.0</ele><time>2026-04-26T06:18:27.999Z</time></trkpt><trkpt lat="44.94016122832509" lon="9.896733529854204"><ele>72.0</ele><time>2026-04-26T06:18:28.999Z</time></trkpt><trkpt lat="44.94010298282148" lon="9.896662505474545"><ele>72.0</ele><time>2026-04-26T06:18:29.999Z</time></trkpt><trkpt lat="44.94004292144426" lon="9.896588478095257"><ele>72.16666666666667</ele><time>2026-04-26T06:18:30.999Z</time></trkpt><trkpt lat="44.93998456645694" lon="9.896515460764288"><ele>72.33333333333333</ele><time>2026-04-26T06:18:31.999Z</time></trkpt><trkpt lat="44.93992516532255" lon="9.896442736991784"><ele>72.5</ele><time>2026-04-26T06:18:32.999Z</time></trkpt><trkpt lat="44.93986637242694" lon="9.896366932974562"><ele>72.66666666666666</ele><time>2026-04-26T06:18:33.999Z</time></trkpt><trkpt lat="44.939806859669886" lon="9.896294920634693"><ele>72.83333333333333</ele><time>2026-04-26T06:18:34.999Z</time></trkpt><trkpt lat="44.93974792044498" lon="9.896219739454063"><ele>73.0</ele><time>2026-04-26T06:18:35.999Z</time></trkpt><trkpt lat="44.93969070948249" lon="9.896145198891265"><ele>73.0</ele><time>2026-04-26T06:18:36.999Z</time></trkpt><trkpt lat="44.93963101071861" lon="9.896071599491323"><ele>73.0</ele><time>2026-04-26T06:18:37.998Z</time></trkpt><trkpt lat="44.93957155328936" lon="9.895998712194926"><ele>73.0</ele><time>2026-04-26T06:18:38.998Z</time></trkpt><trkpt lat="44.93951025701831" lon="9.895925045336796"><ele>73.0</ele><time>2026-04-26T06:18:39.998Z</time></trkpt><trkpt lat="44.93945217282434" lon="9.895851652800058"><ele>73.0</ele><time>2026-04-26T06:18:40.998Z</time></trkpt><trkpt lat="44.93939260882997" lon="9.895775577897322"><ele>73.0</ele><time>2026-04-26T06:18:41.998Z</time></trkpt><trkpt lat="44.93933203812755" lon="9.895701941313396"><ele>73.0</ele><time>2026-04-26T06:18:42.998Z</time></trkpt><trkpt lat="44.93927359189718" lon="9.89562580943928"><ele>73.0</ele><time>2026-04-26T06:18:43.998Z</time></trkpt><trkpt lat="44.93921182619616" lon="9.895552722625803"><ele>73.0</ele><time>2026-04-26T06:18:44.998Z</time></trkpt><trkpt lat="44.93914906688919" lon="9.895480194012913"><ele>73.0</ele><time>2026-04-26T06:18:45.998Z</time></trkpt><trkpt lat="44.939085355073516" lon="9.89540700687939"><ele>73.0</ele><time>2026-04-26T06:18:46.998Z</time></trkpt><trkpt lat="44.93902443932604" lon="9.895333768577787"><ele>73.0</ele><time>2026-04-26T06:18:47.998Z</time></trkpt><trkpt lat="44.93896320690891" lon="9.895260802017512"><ele>73.0</ele><time>2026-04-26T06:18:48.998Z</time></trkpt><trkpt lat="44.93889959875378" lon="9.89518817650665"><ele>73.0</ele><time>2026-04-26T06:18:49.998Z</time></trkpt><trkpt lat="44.938838490472904" lon="9.895117903110842"><ele>73.0</ele><time>2026-04-26T06:18:50.998Z</time></trkpt><trkpt lat="44.93877511745265" lon="9.895044543780978"><ele>73.0</ele><time>2026-04-26T06:18:51.998Z</time></trkpt><trkpt lat="44.938713545169044" lon="9.894972407236779"><ele>73.0</ele><time>2026-04-26T06:18:52.998Z</time></trkpt><trkpt lat="44.93865473574597" lon="9.894901017662457"><ele>73.0</ele><time>2026-04-26T06:18:53.998Z</time></trkpt><trkpt lat="44.93859210844487" lon="9.894832782330125"><ele>72.83333333333333</ele><time>2026-04-26T06:18:54.998Z</time></trkpt><trkpt lat="44.93853224363514" lon="9.894767046613861"><ele>72.66666666666666</ele><time>2026-04-26T06:18:55.998Z</time></trkpt><trkpt lat="44.938470521167936" lon="9.894698152827543"><ele>72.5</ele><time>2026-04-26T06:18:56.998Z</time></trkpt><trkpt lat="44.93841100137257" lon="9.894630631264059"><ele>72.33333333333333</ele><time>2026-04-26T06:18:57.998Z</time></trkpt><trkpt lat="44.93834918443064" lon="9.894565166142327"><ele>72.16666666666667</ele><time>2026-04-26T06:18:58.998Z</time></trkpt><trkpt lat="44.938289810378926" lon="9.894494691100384"><ele>72.0</ele><time>2026-04-26T06:18:59.998Z</time></trkpt><trkpt lat="44.9382274470072" lon="9.894424013932856"><ele>72.33333333333333</ele><time>2026-04-26T06:19:00.998Z</time></trkpt><trkpt lat="44.93816549437627" lon="9.894353657664752"><ele>72.66666666666667</ele><time>2026-04-26T06:19:01.998Z</time></trkpt><trkpt lat="44.93810312489336" lon="9.89428282572607"><ele>73.0</ele><time>2026-04-26T06:19:02.998Z</time></trkpt><trkpt lat="44.938039466516635" lon="9.894208025319305"><ele>73.33333333333334</ele><time>2026-04-26T06:19:03.998Z</time></trkpt><trkpt lat="44.937976453360655" lon="9.894137845491807"><ele>73.66666666666667</ele><time>2026-04-26T06:19:04.998Z</time></trkpt><trkpt lat="44.9379105350028" lon="9.894070360103992"><ele>74.0</ele><time>2026-04-26T06:19:05.998Z</time></trkpt><trkpt lat="44.93784768351479" lon="9.894003082534088"><ele>74.16666666666667</ele><time>2026-04-26T06:19:06.998Z</time></trkpt><trkpt lat="44.93778131644598" lon="9.893940040509316"><ele>74.33333333333334</ele><time>2026-04-26T06:19:07.998Z</time></trkpt><trkpt lat="44.937714458809765" lon="9.893884215349173"><ele>74.5</ele><time>2026-04-26T06:19:08.998Z</time></trkpt><trkpt lat="44.937644485217774" lon="9.893829618941293"><ele>74.66666666666667</ele><time>2026-04-26T06:19:09.998Z</time></trkpt><trkpt lat="44.937573977700524" lon="9.893771701001555"><ele>74.83333333333333</ele><time>2026-04-26T06:19:10.998Z</time></trkpt><trkpt lat="44.93750148992066" lon="9.893719574856238"><ele>75.0</ele><time>2026-04-26T06:19:11.998Z</time></trkpt><trkpt lat="44.937425515747705" lon="9.8936690130242"><ele>75.0</ele><time>2026-04-26T06:19:12.998Z</time></trkpt><trkpt lat="44.937350239510934" lon="9.893623769847048"><ele>75.0</ele><time>2026-04-26T06:19:13.998Z</time></trkpt><trkpt lat="44.93727338009074" lon="9.89357381070414"><ele>75.0</ele><time>2026-04-26T06:19:14.998Z</time></trkpt><trkpt lat="44.93719505845043" lon="9.893527925507552"><ele>75.0</ele><time>2026-04-26T06:19:15.998Z</time></trkpt><trkpt lat="44.937115931537605" lon="9.89348525576309"><ele>75.0</ele><time>2026-04-26T06:19:16.998Z</time></trkpt><trkpt lat="44.937036375959195" lon="9.893442517458093"><ele>75.0</ele><time>2026-04-26T06:19:17.998Z</time></trkpt><trkpt lat="44.93695591718811" lon="9.893396933044444"><ele>75.0</ele><time>2026-04-26T06:19:18.998Z</time></trkpt><trkpt lat="44.93687533862041" lon="9.893350107262139"><ele>75.0</ele><time>2026-04-26T06:19:19.998Z</time></trkpt><trkpt lat="44.93678990621637" lon="9.893300900698385"><ele>75.0</ele><time>2026-04-26T06:19:20.998Z</time></trkpt><trkpt lat="44.93670506676155" lon="9.893248060436397"><ele>75.0</ele><time>2026-04-26T06:19:22Z</time></trkpt><trkpt lat="44.936620134053385" lon="9.893192202255161"><ele>75.0</ele><time>2026-04-26T06:19:23Z</time></trkpt><trkpt lat="44.93653288661546" lon="9.893138856544695"><ele>75.0</ele><time>2026-04-26T06:19:24Z</time></trkpt><trkpt lat="44.93644754531707" lon="9.893084159665259"><ele>75.0</ele><time>2026-04-26T06:19:25Z</time></trkpt><trkpt lat="44.936364580927595" lon="9.893029978194757"><ele>75.0</ele><time>2026-04-26T06:19:26Z</time></trkpt><trkpt lat="44.93628091189022" lon="9.89297559493003"><ele>75.0</ele><time>2026-04-26T06:19:27Z</time></trkpt><trkpt lat="44.93619639261754" lon="9.892924095730113"><ele>75.0</ele><time>2026-04-26T06:19:28Z</time></trkpt><trkpt lat="44.93611133563054" lon="9.892872469221542"><ele>75.0</ele><time>2026-04-26T06:19:29Z</time></trkpt><trkpt lat="44.93602857170751" lon="9.892815679754124"><ele>75.0</ele><time>2026-04-26T06:19:30Z</time></trkpt><trkpt lat="44.935944565149505" lon="9.892761088425598"><ele>75.0</ele><time>2026-04-26T06:19:31Z</time></trkpt><trkpt lat="44.93586354077969" lon="9.892708109754217"><ele>75.0</ele><time>2026-04-26T06:19:32Z</time></trkpt><trkpt lat="44.93578372130395" lon="9.892654486368464"><ele>75.0</ele><time>2026-04-26T06:19:33Z</time></trkpt><trkpt lat="44.93570373497924" lon="9.892604760017809"><ele>75.0</ele><time>2026-04-26T06:19:34Z</time></trkpt><trkpt lat="44.935626621042125" lon="9.892553793386"><ele>75.0</ele><time>2026-04-26T06:19:35Z</time></trkpt><trkpt lat="44.93555184551815" lon="9.89250609823945"><ele>75.0</ele><time>2026-04-26T06:19:36Z</time></trkpt><trkpt lat="44.93547754049773" lon="9.892459282561406"><ele>75.0</ele><time>2026-04-26T06:19:37Z</time></trkpt><trkpt lat="44.93540322108385" lon="9.892412025529419"><ele>75.0</ele><time>2026-04-26T06:19:38Z</time></trkpt><trkpt lat="44.93532990587312" lon="9.892364118323094"><ele>75.0</ele><time>2026-04-26T06:19:39Z</time></trkpt><trkpt lat="44.9352563576835" lon="9.892317569010771"><ele>75.0</ele><time>2026-04-26T06:19:40Z</time></trkpt><trkpt lat="44.93518367769102" lon="9.892266739378421"><ele>75.0</ele><time>2026-04-26T06:19:41Z</time></trkpt><trkpt lat="44.93511030587323" lon="9.89222006440009"><ele>75.0</ele><time>2026-04-26T06:19:42Z</time></trkpt><trkpt lat="44.93503797112318" lon="9.89216991385692"><ele>75.0</ele><time>2026-04-26T06:19:43Z</time></trkpt><trkpt lat="44.93496533819994" lon="9.892122776272874"><ele>75.0</ele><time>2026-04-26T06:19:44Z</time></trkpt><trkpt lat="44.934891209123705" lon="9.892071784010486"><ele>75.0</ele><time>2026-04-26T06:19:45Z</time></trkpt><trkpt lat="44.934818141968165" lon="9.892020839619498"><ele>75.16666666666667</ele><time>2026-04-26T06:19:46Z</time></trkpt><trkpt lat="44.93474463060561" lon="9.891972461477168"><ele>75.33333333333333</ele><time>2026-04-26T06:19:47Z</time></trkpt><trkpt lat="44.934671811313116" lon="9.891922651072118"><ele>75.5</ele><time>2026-04-26T06:19:47.999Z</time></trkpt><trkpt lat="44.934598351562016" lon="9.891874688116742"><ele>75.66666666666666</ele><time>2026-04-26T06:19:48.999Z</time></trkpt><trkpt lat="44.934525879764635" lon="9.891825045655102"><ele>75.83333333333333</ele><time>2026-04-26T06:19:49.999Z</time></trkpt><trkpt lat="44.93445436022016" lon="9.89177559274471"><ele>76.0</ele><time>2026-04-26T06:19:50.999Z</time></trkpt><trkpt lat="44.93438221027371" lon="9.891727169662667"><ele>76.5</ele><time>2026-04-26T06:19:51.999Z</time></trkpt><trkpt lat="44.93430986395132" lon="9.89167899153564"><ele>77.0</ele><time>2026-04-26T06:19:52.999Z</time></trkpt><trkpt lat="44.93423804561076" lon="9.891628212753728"><ele>77.5</ele><time>2026-04-26T06:19:53.999Z</time></trkpt><trkpt lat="44.93416837715587" lon="9.891578869699341"><ele>78.0</ele><time>2026-04-26T06:19:54.999Z</time></trkpt><trkpt lat="44.934099232636676" lon="9.891532979401255"><ele>78.5</ele><time>2026-04-26T06:19:55.999Z</time></trkpt><trkpt lat="44.93402945878341" lon="9.89148529611948"><ele>79.0</ele><time>2026-04-26T06:19:56.999Z</time></trkpt><trkpt lat="44.93395975468973" lon="9.891438714285677"><ele>79.16666666666666</ele><time>2026-04-26T06:19:57.999Z</time></trkpt><trkpt lat="44.9338909988646" lon="9.89139166050154"><ele>79.33333333333333</ele><time>2026-04-26T06:19:58.999Z</time></trkpt><trkpt lat="44.933820089591535" lon="9.891343804732195"><ele>79.5</ele><time>2026-04-26T06:19:59.999Z</time></trkpt><trkpt lat="44.93374997242527" lon="9.891295563288596"><ele>79.66666666666667</ele><time>2026-04-26T06:20:00.999Z</time></trkpt><trkpt lat="44.93367718111045" lon="9.8912505321784"><ele>79.83333333333334</ele><time>2026-04-26T06:20:01.999Z</time></trkpt><trkpt lat="44.933608844187155" lon="9.891202458912248"><ele>80.0</ele><time>2026-04-26T06:20:02.999Z</time></trkpt><trkpt lat="44.93353846266055" lon="9.891155256241131"><ele>80.0</ele><time>2026-04-26T06:20:03.999Z</time></trkpt><trkpt lat="44.933468803604356" lon="9.8911051752467"><ele>80.0</ele><time>2026-04-26T06:20:04.999Z</time></trkpt><trkpt lat="44.933398842758564" lon="9.891060072248028"><ele>80.0</ele><time>2026-04-26T06:20:05.999Z</time></trkpt><trkpt lat="44.933328245708694" lon="9.89101364511832"><ele>80.0</ele><time>2026-04-26T06:20:06.999Z</time></trkpt><trkpt lat="44.93325981575572" lon="9.890965871472602"><ele>80.0</ele><time>2026-04-26T06:20:07.999Z</time></trkpt><trkpt lat="44.933191355153355" lon="9.89091910500945"><ele>80.0</ele><time>2026-04-26T06:20:08.999Z</time></trkpt><trkpt lat="44.93312119350141" lon="9.890872811316818"><ele>80.66666666666667</ele><time>2026-04-26T06:20:09.999Z</time></trkpt><trkpt lat="44.933053443058235" lon="9.890826365498896"><ele>81.33333333333334</ele><time>2026-04-26T06:20:10.999Z</time></trkpt><trkpt lat="44.932985466235" lon="9.890779943212"><ele>82.0</ele><time>2026-04-26T06:20:11.999Z</time></trkpt><trkpt lat="44.93291664563146" lon="9.890728450295535"><ele>82.66666666666667</ele><time>2026-04-26T06:20:12.999Z</time></trkpt><trkpt lat="44.932847245908995" lon="9.890685113485642"><ele>83.33333333333333</ele><time>2026-04-26T06:20:13.999Z</time></trkpt><trkpt lat="44.9327757372735" lon="9.890639825676017"><ele>84.0</ele><time>2026-04-26T06:20:14.999Z</time></trkpt><trkpt lat="44.93270508578415" lon="9.890591198907606"><ele>84.0</ele><time>2026-04-26T06:20:15.999Z</time></trkpt><trkpt lat="44.932634596065746" lon="9.890542286646218"><ele>84.0</ele><time>2026-04-26T06:20:16.999Z</time></trkpt><trkpt lat="44.93256314254546" lon="9.890492434491149"><ele>84.0</ele><time>2026-04-26T06:20:17.999Z</time></trkpt><trkpt lat="44.93249049951143" lon="9.890442620539783"><ele>84.0</ele><time>2026-04-26T06:20:18.999Z</time></trkpt><trkpt lat="44.93241783657603" lon="9.890395407296856"><ele>84.0</ele><time>2026-04-26T06:20:19.999Z</time></trkpt><trkpt lat="44.932344053624774" lon="9.89034542376663"><ele>84.0</ele><time>2026-04-26T06:20:20.999Z</time></trkpt><trkpt lat="44.93227239298758" lon="9.890297510543757"><ele>83.33333333333333</ele><time>2026-04-26T06:20:21.999Z</time></trkpt><trkpt lat="44.932200024928065" lon="9.890248690477238"><ele>82.66666666666667</ele><time>2026-04-26T06:20:22.999Z</time></trkpt><trkpt lat="44.93212767050183" lon="9.890199148861754"><ele>82.0</ele><time>2026-04-26T06:20:23.999Z</time></trkpt><trkpt lat="44.93205475245719" lon="9.89015021056107"><ele>81.33333333333334</ele><time>2026-04-26T06:20:24.999Z</time></trkpt><trkpt lat="44.93198599610418" lon="9.890103100877374"><ele>80.66666666666667</ele><time>2026-04-26T06:20:25.999Z</time></trkpt><trkpt lat="44.93191138249108" lon="9.890055244746362"><ele>80.0</ele><time>2026-04-26T06:20:26.999Z</time></trkpt><trkpt lat="44.9318406508786" lon="9.890005639927375"><ele>80.0</ele><time>2026-04-26T06:20:27.999Z</time></trkpt><trkpt lat="44.931768550954274" lon="9.889957725798126"><ele>80.0</ele><time>2026-04-26T06:20:28.999Z</time></trkpt><trkpt lat="44.931697108966816" lon="9.889907288773164"><ele>80.0</ele><time>2026-04-26T06:20:29.999Z</time></trkpt><trkpt lat="44.93162596913347" lon="9.889860345223868"><ele>80.0</ele><time>2026-04-26T06:20:30.999Z</time></trkpt><trkpt lat="44.93155392477038" lon="9.889812030243446"><ele>80.0</ele><time>2026-04-26T06:20:31.999Z</time></trkpt><trkpt lat="44.93148278485486" lon="9.889762672283863"><ele>80.0</ele><time>2026-04-26T06:20:32.999Z</time></trkpt><trkpt lat="44.93141145451967" lon="9.889714282643954"><ele>80.16666666666667</ele><time>2026-04-26T06:20:33.999Z</time></trkpt><trkpt lat="44.93133974514114" lon="9.889665365587526"><ele>80.33333333333334</ele><time>2026-04-26T06:20:34.999Z</time></trkpt><trkpt lat="44.93126871450326" lon="9.889616566643486"><ele>80.5</ele><time>2026-04-26T06:20:35.999Z</time></trkpt><trkpt lat="44.93119799566649" lon="9.889567391200826"><ele>80.66666666666667</ele><time>2026-04-26T06:20:36.999Z</time></trkpt><trkpt lat="44.93112912213998" lon="9.8895208739586"><ele>80.83333333333333</ele><time>2026-04-26T06:20:37.999Z</time></trkpt><trkpt lat="44.931059965991956" lon="9.889474409273387"><ele>81.0</ele><time>2026-04-26T06:20:38.999Z</time></trkpt><trkpt lat="44.930990424118335" lon="9.889426677880824"><ele>81.0</ele><time>2026-04-26T06:20:39.999Z</time></trkpt><trkpt lat="44.93092201926056" lon="9.889380947985517"><ele>81.0</ele><time>2026-04-26T06:20:40.999Z</time></trkpt><trkpt lat="44.930853888347556" lon="9.889335624039301"><ele>81.0</ele><time>2026-04-26T06:20:41.998Z</time></trkpt><trkpt lat="44.93078463824132" lon="9.889286813666736"><ele>81.0</ele><time>2026-04-26T06:20:42.998Z</time></trkpt><trkpt lat="44.93071382946009" lon="9.889240109802694"><ele>81.0</ele><time>2026-04-26T06:20:43.998Z</time></trkpt><trkpt lat="44.93064272177591" lon="9.889197983644234"><ele>81.0</ele><time>2026-04-26T06:20:44.998Z</time></trkpt><trkpt lat="44.93057400194008" lon="9.889149760167822"><ele>80.85714285714286</ele><time>2026-04-26T06:20:45.998Z</time></trkpt><trkpt lat="44.93050684871507" lon="9.889104432838442"><ele>80.71428571428571</ele><time>2026-04-26T06:20:46.998Z</time></trkpt><trkpt lat="44.93043841235749" lon="9.889059927776787"><ele>80.57142857142857</ele><time>2026-04-26T06:20:47.998Z</time></trkpt><trkpt lat="44.930371165127006" lon="9.88901752261013"><ele>80.42857142857143</ele><time>2026-04-26T06:20:48.998Z</time></trkpt><trkpt lat="44.93030533243205" lon="9.888971333627357"><ele>80.28571428571429</ele><time>2026-04-26T06:20:49.998Z</time></trkpt><trkpt lat="44.930236345790625" lon="9.88892669273808"><ele>80.14285714285714</ele><time>2026-04-26T06:20:50.998Z</time></trkpt><trkpt lat="44.93017178267498" lon="9.8888829652665"><ele>80.0</ele><time>2026-04-26T06:20:51.998Z</time></trkpt><trkpt lat="44.93010734396889" lon="9.888835807248338"><ele>80.14285714285714</ele><time>2026-04-26T06:20:52.998Z</time></trkpt><trkpt lat="44.930043773274505" lon="9.888798165297844"><ele>80.28571428571429</ele><time>2026-04-26T06:20:53.998Z</time></trkpt><trkpt lat="44.929973382587654" lon="9.888753552724282"><ele>80.42857142857143</ele><time>2026-04-26T06:20:54.998Z</time></trkpt><trkpt lat="44.92990845487907" lon="9.88870931409146"><ele>80.57142857142857</ele><time>2026-04-26T06:20:55.998Z</time></trkpt><trkpt lat="44.929843030952505" lon="9.888663803080968"><ele>80.71428571428571</ele><time>2026-04-26T06:20:56.998Z</time></trkpt><trkpt lat="44.929779899821334" lon="9.88861378503219"><ele>80.85714285714286</ele><time>2026-04-26T06:20:57.998Z</time></trkpt><trkpt lat="44.92971255492206" lon="9.88857544384638"><ele>81.0</ele><time>2026-04-26T06:20:58.998Z</time></trkpt><trkpt lat="44.92965090393799" lon="9.888534018472965"><ele>81.0</ele><time>2026-04-26T06:20:59.998Z</time></trkpt><trkpt lat="44.929589438398956" lon="9.888491260531731"><ele>81.0</ele><time>2026-04-26T06:21:00.998Z</time></trkpt><trkpt lat="44.92952349380108" lon="9.888446830008897"><ele>81.0</ele><time>2026-04-26T06:21:01.998Z</time></trkpt><trkpt lat="44.92945943951319" lon="9.888406037490297"><ele>81.0</ele><time>2026-04-26T06:21:02.998Z</time></trkpt><trkpt lat="44.92939188205959" lon="9.888363691727477"><ele>81.0</ele><time>2026-04-26T06:21:03.998Z</time></trkpt><trkpt lat="44.92932933475416" lon="9.88831577031613"><ele>81.0</ele><time>2026-04-26T06:21:04.998Z</time></trkpt><trkpt lat="44.92926565834016" lon="9.888270382441242"><ele>81.0</ele><time>2026-04-26T06:21:05.998Z</time></trkpt><trkpt lat="44.92920691814501" lon="9.888216659620065"><ele>81.28571428571429</ele><time>2026-04-26T06:21:06.998Z</time></trkpt><trkpt lat="44.929155926481215" lon="9.888156379167814"><ele>81.57142857142857</ele><time>2026-04-26T06:21:07.998Z</time></trkpt><trkpt lat="44.92909404262931" lon="9.88811217895643"><ele>81.85714285714286</ele><time>2026-04-26T06:21:08.998Z</time></trkpt><trkpt lat="44.929038121180845" lon="9.888051661884143"><ele>82.14285714285714</ele><time>2026-04-26T06:21:09.998Z</time></trkpt><trkpt lat="44.928981912351645" lon="9.887992861662928"><ele>82.42857142857143</ele><time>2026-04-26T06:21:10.998Z</time></trkpt><trkpt lat="44.928937181047196" lon="9.887909102957817"><ele>82.71428571428571</ele><time>2026-04-26T06:21:11.998Z</time></trkpt><trkpt lat="44.928878728721024" lon="9.887849117273127"><ele>83.0</ele><time>2026-04-26T06:21:12.998Z</time></trkpt><trkpt lat="44.928817026570634" lon="9.887786615199254"><ele>83.0</ele><time>2026-04-26T06:21:13.998Z</time></trkpt><trkpt lat="44.92875103203476" lon="9.88771448935414"><ele>83.0</ele><time>2026-04-26T06:21:14.998Z</time></trkpt><trkpt lat="44.92867123466106" lon="9.887660676028489"><ele>83.0</ele><time>2026-04-26T06:21:15.998Z</time></trkpt><trkpt lat="44.92859872147201" lon="9.887584574748551"><ele>83.0</ele><time>2026-04-26T06:21:16.998Z</time></trkpt><trkpt lat="44.92853576767108" lon="9.887487572030416"><ele>83.0</ele><time>2026-04-26T06:21:17.998Z</time></trkpt><trkpt lat="44.928461609367915" lon="9.887407104545124"><ele>83.0</ele><time>2026-04-26T06:21:18.998Z</time></trkpt><trkpt lat="44.92838425234637" lon="9.88732680081479"><ele>82.80000000000001</ele><time>2026-04-26T06:21:19.998Z</time></trkpt><trkpt lat="44.92830474149185" lon="9.887251053781936"><ele>82.6</ele><time>2026-04-26T06:21:20.998Z</time></trkpt><trkpt lat="44.928222195722626" lon="9.887182134843531"><ele>82.4</ele><time>2026-04-26T06:21:21.998Z</time></trkpt><trkpt lat="44.9281354418591" lon="9.8871176831763"><ele>82.19999999999999</ele><time>2026-04-26T06:21:22.998Z</time></trkpt><trkpt lat="44.92804667738052" lon="9.887061224019215"><ele>82.0</ele><time>2026-04-26T06:21:23.998Z</time></trkpt><trkpt lat="44.927961335297304" lon="9.887008345274396"><ele>82.0</ele><time>2026-04-26T06:21:24.998Z</time></trkpt><trkpt lat="44.92787908969228" lon="9.88695985397603"><ele>82.0</ele><time>2026-04-26T06:21:25.998Z</time></trkpt><trkpt lat="44.92780195585171" lon="9.886909241637149"><ele>82.0</ele><time>2026-04-26T06:21:26.998Z</time></trkpt><trkpt lat="44.927729845733545" lon="9.886860435830696"><ele>82.0</ele><time>2026-04-26T06:21:28Z</time></trkpt><trkpt lat="44.92765997741283" lon="9.886819920213597"><ele>82.0</ele><time>2026-04-26T06:21:29Z</time></trkpt><trkpt lat="44.92758690510139" lon="9.88678443782383"><ele>82.0</ele><time>2026-04-26T06:21:30Z</time></trkpt><trkpt lat="44.927512311020635" lon="9.886751453872275"><ele>82.0</ele><time>2026-04-26T06:21:31Z</time></trkpt><trkpt lat="44.92743875106614" lon="9.886717165461706"><ele>82.0</ele><time>2026-04-26T06:21:32Z</time></trkpt><trkpt lat="44.92736594496498" lon="9.886689856389856"><ele>82.0</ele><time>2026-04-26T06:21:33Z</time></trkpt><trkpt lat="44.927293555297396" lon="9.886668622516503"><ele>82.0</ele><time>2026-04-26T06:21:34Z</time></trkpt><trkpt lat="44.927220953788215" lon="9.886653778135024"><ele>82.0</ele><time>2026-04-26T06:21:35Z</time></trkpt><trkpt lat="44.92714683285146" lon="9.886641003518463"><ele>82.0</ele><time>2026-04-26T06:21:36Z</time></trkpt><trkpt lat="44.927071311754716" lon="9.886631719425628"><ele>82.0</ele><time>2026-04-26T06:21:37Z</time></trkpt><trkpt lat="44.926996400430305" lon="9.886617650196666"><ele>82.0</ele><time>2026-04-26T06:21:38Z</time></trkpt><trkpt lat="44.92692157114249" lon="9.886606185297119"><ele>82.0</ele><time>2026-04-26T06:21:39Z</time></trkpt><trkpt lat="44.926845952514924" lon="9.886597083266542"><ele>82.0</ele><time>2026-04-26T06:21:40Z</time></trkpt><trkpt lat="44.926769975064005" lon="9.886592586623408"><ele>82.0</ele><time>2026-04-26T06:21:41Z</time></trkpt><trkpt lat="44.92669309514814" lon="9.886588672632639"><ele>82.0</ele><time>2026-04-26T06:21:42Z</time></trkpt><trkpt lat="44.92661649629422" lon="9.88658434770601"><ele>82.5</ele><time>2026-04-26T06:21:43Z</time></trkpt><trkpt lat="44.92653904917628" lon="9.886579925548078"><ele>83.0</ele><time>2026-04-26T06:21:44Z</time></trkpt><trkpt lat="44.92646309583019" lon="9.886578618915866"><ele>83.5</ele><time>2026-04-26T06:21:45Z</time></trkpt><trkpt lat="44.92638507469878" lon="9.886572341160562"><ele>84.0</ele><time>2026-04-26T06:21:46Z</time></trkpt><trkpt lat="44.9263067814403" lon="9.886567878926401"><ele>84.5</ele><time>2026-04-26T06:21:47Z</time></trkpt><trkpt lat="44.926227315279924" lon="9.88656229344745"><ele>85.0</ele><time>2026-04-26T06:21:48Z</time></trkpt><trkpt lat="44.926148829528245" lon="9.886560391596454"><ele>85.0</ele><time>2026-04-26T06:21:49Z</time></trkpt><trkpt lat="44.9260702748509" lon="9.886557516993172"><ele>85.0</ele><time>2026-04-26T06:21:50Z</time></trkpt><trkpt lat="44.92599023525586" lon="9.886554134558853"><ele>85.0</ele><time>2026-04-26T06:21:51Z</time></trkpt><trkpt lat="44.925911484796046" lon="9.886549750450591"><ele>85.0</ele><time>2026-04-26T06:21:51.999Z</time></trkpt><trkpt lat="44.92583214594544" lon="9.886545383684279"><ele>85.0</ele><time>2026-04-26T06:21:52.999Z</time></trkpt><trkpt lat="44.92575295799571" lon="9.886542739846421"><ele>85.0</ele><time>2026-04-26T06:21:53.999Z</time></trkpt><trkpt lat="44.92567160723376" lon="9.88653667888403"><ele>85.16666666666666</ele><time>2026-04-26T06:21:54.999Z</time></trkpt><trkpt lat="44.925590911660485" lon="9.88653473106371"><ele>85.33333333333333</ele><time>2026-04-26T06:21:55.999Z</time></trkpt><trkpt lat="44.92550976680672" lon="9.88653138510469"><ele>85.5</ele><time>2026-04-26T06:21:56.999Z</time></trkpt><trkpt lat="44.925428112317356" lon="9.886527390645472"><ele>85.66666666666667</ele><time>2026-04-26T06:21:57.999Z</time></trkpt><trkpt lat="44.92534532867998" lon="9.886523107420864"><ele>85.83333333333334</ele><time>2026-04-26T06:21:58.999Z</time></trkpt><trkpt lat="44.92526300972122" lon="9.886517393990973"><ele>86.0</ele><time>2026-04-26T06:21:59.999Z</time></trkpt><trkpt lat="44.9251811370064" lon="9.8865139188465"><ele>86.0</ele><time>2026-04-26T06:22:00.999Z</time></trkpt><trkpt lat="44.92509801673585" lon="9.88650980955892"><ele>86.0</ele><time>2026-04-26T06:22:01.999Z</time></trkpt><trkpt lat="44.92501642851508" lon="9.88650687371902"><ele>86.0</ele><time>2026-04-26T06:22:02.999Z</time></trkpt><trkpt lat="44.92493325297013" lon="9.886505231838157"><ele>86.0</ele><time>2026-04-26T06:22:03.999Z</time></trkpt><trkpt lat="44.92484928385765" lon="9.886503555725495"><ele>86.0</ele><time>2026-04-26T06:22:04.999Z</time></trkpt><trkpt lat="44.924765394244574" lon="9.886496402988243"><ele>86.0</ele><time>2026-04-26T06:22:05.999Z</time></trkpt><trkpt lat="44.92468452495222" lon="9.88648994156325"><ele>86.0</ele><time>2026-04-26T06:22:06.999Z</time></trkpt><trkpt lat="44.92460246752496" lon="9.886480563750318"><ele>86.0</ele><time>2026-04-26T06:22:07.999Z</time></trkpt><trkpt lat="44.92452072550543" lon="9.88647063560251"><ele>86.0</ele><time>2026-04-26T06:22:08.999Z</time></trkpt><trkpt lat="44.92444030734551" lon="9.886462060422364"><ele>86.0</ele><time>2026-04-26T06:22:09.999Z</time></trkpt><trkpt lat="44.92435999903141" lon="9.886448558630853"><ele>86.0</ele><time>2026-04-26T06:22:10.999Z</time></trkpt><trkpt lat="44.9242812864637" lon="9.886436553209208"><ele>86.0</ele><time>2026-04-26T06:22:11.999Z</time></trkpt><trkpt lat="44.92420306662474" lon="9.886423584118043"><ele>86.16666666666667</ele><time>2026-04-26T06:22:12.999Z</time></trkpt><trkpt lat="44.92412251548982" lon="9.886409228195403"><ele>86.33333333333334</ele><time>2026-04-26T06:22:13.999Z</time></trkpt><trkpt lat="44.92404367287765" lon="9.886393265397052"><ele>86.5</ele><time>2026-04-26T06:22:14.999Z</time></trkpt><trkpt lat="44.923963555358974" lon="9.886374854215157"><ele>86.66666666666667</ele><time>2026-04-26T06:22:15.999Z</time></trkpt><trkpt lat="44.92388510380179" lon="9.886354396109489"><ele>86.83333333333333</ele><time>2026-04-26T06:22:16.999Z</time></trkpt><trkpt lat="44.92380737930282" lon="9.886331663894223"><ele>87.0</ele><time>2026-04-26T06:22:17.999Z</time></trkpt><trkpt lat="44.92373016096854" lon="9.886310072462662"><ele>87.0</ele><time>2026-04-26T06:22:18.999Z</time></trkpt><trkpt lat="44.9236530395661" lon="9.886290239245213"><ele>87.0</ele><time>2026-04-26T06:22:19.999Z</time></trkpt><trkpt lat="44.92357658382779" lon="9.886270600464599"><ele>87.0</ele><time>2026-04-26T06:22:20.999Z</time></trkpt><trkpt lat="44.92349856210346" lon="9.886248373324348"><ele>87.0</ele><time>2026-04-26T06:22:21.999Z</time></trkpt><trkpt lat="44.923420989689966" lon="9.886224316478705"><ele>87.0</ele><time>2026-04-26T06:22:22.999Z</time></trkpt><trkpt lat="44.92334240849398" lon="9.886202131164564"><ele>87.0</ele><time>2026-04-26T06:22:23.999Z</time></trkpt><trkpt lat="44.923265801043" lon="9.886176492849792"><ele>87.0</ele><time>2026-04-26T06:22:24.999Z</time></trkpt><trkpt lat="44.92318914660545" lon="9.886150667201349"><ele>87.0</ele><time>2026-04-26T06:22:25.999Z</time></trkpt><trkpt lat="44.923112830399184" lon="9.886122811705032"><ele>87.0</ele><time>2026-04-26T06:22:26.999Z</time></trkpt><trkpt lat="44.92303785043386" lon="9.886095865878103"><ele>87.0</ele><time>2026-04-26T06:22:27.999Z</time></trkpt><trkpt lat="44.92296033740596" lon="9.8860699012569"><ele>87.0</ele><time>2026-04-26T06:22:28.999Z</time></trkpt><trkpt lat="44.92288478499807" lon="9.88604000495133"><ele>87.0</ele><time>2026-04-26T06:22:29.999Z</time></trkpt><trkpt lat="44.92280951876053" lon="9.886011661796696"><ele>87.0</ele><time>2026-04-26T06:22:30.999Z</time></trkpt><trkpt lat="44.92273554677645" lon="9.885981050230685"><ele>87.0</ele><time>2026-04-26T06:22:31.999Z</time></trkpt><trkpt lat="44.922659798452614" lon="9.885954453426129"><ele>87.0</ele><time>2026-04-26T06:22:32.999Z</time></trkpt><trkpt lat="44.922586170360596" lon="9.8859267623973"><ele>87.0</ele><time>2026-04-26T06:22:33.999Z</time></trkpt><trkpt lat="44.92251067258364" lon="9.885901282268609"><ele>87.0</ele><time>2026-04-26T06:22:34.999Z</time></trkpt><trkpt lat="44.92243701957448" lon="9.885872469318766"><ele>87.0</ele><time>2026-04-26T06:22:35.999Z</time></trkpt><trkpt lat="44.92236187797354" lon="9.885844868627004"><ele>87.33333333333333</ele><time>2026-04-26T06:22:36.999Z</time></trkpt><trkpt lat="44.92228837440503" lon="9.885813401800428"><ele>87.66666666666667</ele><time>2026-04-26T06:22:37.999Z</time></trkpt><trkpt lat="44.92221331697657" lon="9.885783010424914"><ele>88.0</ele><time>2026-04-26T06:22:38.999Z</time></trkpt><trkpt lat="44.92214244574287" lon="9.885749503825659"><ele>88.33333333333334</ele><time>2026-04-26T06:22:39.999Z</time></trkpt><trkpt lat="44.92207354375169" lon="9.885700058379634"><ele>88.66666666666667</ele><time>2026-04-26T06:22:40.999Z</time></trkpt><trkpt lat="44.92201423751774" lon="9.885628404045315"><ele>89.0</ele><time>2026-04-26T06:22:41.999Z</time></trkpt><trkpt lat="44.92196301314691" lon="9.885543162971212"><ele>89.0</ele><time>2026-04-26T06:22:42.999Z</time></trkpt><trkpt lat="44.92189658000116" lon="9.88548529048797"><ele>89.0</ele><time>2026-04-26T06:22:43.999Z</time></trkpt><trkpt lat="44.92182022035867" lon="9.885448958982483"><ele>89.0</ele><time>2026-04-26T06:22:44.998Z</time></trkpt><trkpt lat="44.921736923804794" lon="9.885445822752166"><ele>89.0</ele><time>2026-04-26T06:22:45.998Z</time></trkpt><trkpt lat="44.92167188355097" lon="9.885363305495481"><ele>89.0</ele><time>2026-04-26T06:22:46.998Z</time></trkpt><trkpt lat="44.92160818243976" lon="9.885290307408141"><ele>89.0</ele><time>2026-04-26T06:22:47.998Z</time></trkpt><trkpt lat="44.92154732616295" lon="9.885211782690543"><ele>89.0</ele><time>2026-04-26T06:22:48.998Z</time></trkpt><trkpt lat="44.92148488386819" lon="9.885132652184152"><ele>89.0</ele><time>2026-04-26T06:22:49.998Z</time></trkpt><trkpt lat="44.92142325336071" lon="9.885053436146725"><ele>89.0</ele><time>2026-04-26T06:22:50.998Z</time></trkpt><trkpt lat="44.92136509895465" lon="9.88497013260793"><ele>89.0</ele><time>2026-04-26T06:22:51.998Z</time></trkpt><trkpt lat="44.92130778458436" lon="9.884885532593877"><ele>89.0</ele><time>2026-04-26T06:22:52.998Z</time></trkpt><trkpt lat="44.921249426890675" lon="9.884801121149627"><ele>89.0</ele><time>2026-04-26T06:22:53.998Z</time></trkpt><trkpt lat="44.92119052142307" lon="9.884720174604766"><ele>89.0</ele><time>2026-04-26T06:22:54.998Z</time></trkpt><trkpt lat="44.9211329904835" lon="9.884634205463389"><ele>89.0</ele><time>2026-04-26T06:22:55.998Z</time></trkpt><trkpt lat="44.9210748786232" lon="9.884550489676364"><ele>89.0</ele><time>2026-04-26T06:22:56.998Z</time></trkpt><trkpt lat="44.92101671495059" lon="9.884468801034734"><ele>89.0</ele><time>2026-04-26T06:22:57.998Z</time></trkpt><trkpt lat="44.9209607336794" lon="9.884387706328107"><ele>89.0</ele><time>2026-04-26T06:22:58.998Z</time></trkpt><trkpt lat="44.9209012458948" lon="9.88430500898194"><ele>89.0</ele><time>2026-04-26T06:22:59.998Z</time></trkpt><trkpt lat="44.920846277092224" lon="9.884224253850705"><ele>89.0</ele><time>2026-04-26T06:23:00.998Z</time></trkpt><trkpt lat="44.920788625018204" lon="9.884141282205588"><ele>89.0</ele><time>2026-04-26T06:23:01.998Z</time></trkpt><trkpt lat="44.920731900680686" lon="9.884064183328942"><ele>89.0</ele><time>2026-04-26T06:23:02.998Z</time></trkpt><trkpt lat="44.920677459508745" lon="9.883982755638177"><ele>89.0</ele><time>2026-04-26T06:23:03.998Z</time></trkpt><trkpt lat="44.92062002313662" lon="9.883901370194533"><ele>89.0</ele><time>2026-04-26T06:23:04.998Z</time></trkpt><trkpt lat="44.92056275279696" lon="9.88381991941421"><ele>89.0</ele><time>2026-04-26T06:23:05.998Z</time></trkpt><trkpt lat="44.920509203942736" lon="9.883739978871377"><ele>89.0</ele><time>2026-04-26T06:23:06.998Z</time></trkpt><trkpt lat="44.920452205821675" lon="9.88365776369863"><ele>89.0</ele><time>2026-04-26T06:23:07.998Z</time></trkpt><trkpt lat="44.92039551258354" lon="9.883578833931459"><ele>89.0</ele><time>2026-04-26T06:23:08.998Z</time></trkpt><trkpt lat="44.92033795342516" lon="9.883497991832948"><ele>89.0</ele><time>2026-04-26T06:23:09.998Z</time></trkpt><trkpt lat="44.92028056912061" lon="9.883417926726203"><ele>89.0</ele><time>2026-04-26T06:23:10.998Z</time></trkpt><trkpt lat="44.92022365049173" lon="9.883338549981573"><ele>89.0</ele><time>2026-04-26T06:23:11.998Z</time></trkpt><trkpt lat="44.92016619760539" lon="9.883259098869992"><ele>89.0</ele><time>2026-04-26T06:23:12.998Z</time></trkpt><trkpt lat="44.92011062751874" lon="9.883185283247203"><ele>89.0</ele><time>2026-04-26T06:23:13.998Z</time></trkpt><trkpt lat="44.92005157750782" lon="9.883111544736295"><ele>89.0</ele><time>2026-04-26T06:23:14.998Z</time></trkpt><trkpt lat="44.919990415013395" lon="9.883040019152723"><ele>89.0</ele><time>2026-04-26T06:23:15.998Z</time></trkpt><trkpt lat="44.91992962051262" lon="9.882967459133871"><ele>89.0</ele><time>2026-04-26T06:23:16.998Z</time></trkpt><trkpt lat="44.91987226665263" lon="9.882893216705494"><ele>89.0</ele><time>2026-04-26T06:23:17.998Z</time></trkpt><trkpt lat="44.91981628967172" lon="9.882813229607972"><ele>89.0</ele><time>2026-04-26T06:23:18.998Z</time></trkpt><trkpt lat="44.91975956360069" lon="9.88273600581446"><ele>89.0</ele><time>2026-04-26T06:23:19.998Z</time></trkpt><trkpt lat="44.91971207556736" lon="9.882645879933943"><ele>89.0</ele><time>2026-04-26T06:23:20.998Z</time></trkpt><trkpt lat="44.91965950500413" lon="9.882568696671935"><ele>89.0</ele><time>2026-04-26T06:23:21.998Z</time></trkpt><trkpt lat="44.91960710979317" lon="9.88249020475061"><ele>89.0</ele><time>2026-04-26T06:23:22.998Z</time></trkpt><trkpt lat="44.91956078578957" lon="9.882413408903284"><ele>89.0</ele><time>2026-04-26T06:23:23.998Z</time></trkpt><trkpt lat="44.91951311212973" lon="9.882329514454497"><ele>88.99999999999999</ele><time>2026-04-26T06:23:24.998Z</time></trkpt><trkpt lat="44.91946819009272" lon="9.882244751355309"><ele>89.0</ele><time>2026-04-26T06:23:25.998Z</time></trkpt><trkpt lat="44.91942358841649" lon="9.882158044682699"><ele>89.0</ele><time>2026-04-26T06:23:26.998Z</time></trkpt><trkpt lat="44.919382851822384" lon="9.882072680182523"><ele>89.0</ele><time>2026-04-26T06:23:27.998Z</time></trkpt><trkpt lat="44.91934572011859" lon="9.881987549226318"><ele>89.0</ele><time>2026-04-26T06:23:28.998Z</time></trkpt><trkpt lat="44.91931247154735" lon="9.881902401925133"><ele>88.99999999999999</ele><time>2026-04-26T06:23:29.998Z</time></trkpt><trkpt lat="44.919285072015406" lon="9.881818843719703"><ele>89.0</ele><time>2026-04-26T06:23:30.998Z</time></trkpt><trkpt lat="44.91925871033917" lon="9.881735135593724"><ele>89.33333333333334</ele><time>2026-04-26T06:23:31.998Z</time></trkpt><trkpt lat="44.91922866752679" lon="9.881642026530079"><ele>89.66666666666667</ele><time>2026-04-26T06:23:32.998Z</time></trkpt><trkpt lat="44.91919261040124" lon="9.881486628441623"><ele>90.0</ele><time>2026-04-26T06:23:35Z</time></trkpt><trkpt lat="44.91872357506453" lon="9.881512403723672"><ele>90.0</ele><time>2026-04-26T06:23:37Z</time></trkpt><trkpt lat="44.91866423296438" lon="9.881440447927462"><ele>90.0</ele><time>2026-04-26T06:23:38Z</time></trkpt><trkpt lat="44.91860498767093" lon="9.881367620367234"><ele>90.0</ele><time>2026-04-26T06:23:39Z</time></trkpt><trkpt lat="44.91854585253205" lon="9.881297123538783"><ele>90.0</ele><time>2026-04-26T06:23:40Z</time></trkpt><trkpt lat="44.9184857086661" lon="9.881228163729242"><ele>90.0</ele><time>2026-04-26T06:23:41Z</time></trkpt><trkpt lat="44.91842562263358" lon="9.881160110514477"><ele>90.0</ele><time>2026-04-26T06:23:42Z</time></trkpt><trkpt lat="44.91836401158617" lon="9.881092380873556"><ele>90.5</ele><time>2026-04-26T06:23:43Z</time></trkpt><trkpt lat="44.91830163658868" lon="9.881023189047623"><ele>91.0</ele><time>2026-04-26T06:23:44Z</time></trkpt><trkpt lat="44.91823824768444" lon="9.880958309959684"><ele>91.5</ele><time>2026-04-26T06:23:45Z</time></trkpt><trkpt lat="44.91817813508282" lon="9.880893472613941"><ele>92.0</ele><time>2026-04-26T06:23:46Z</time></trkpt><trkpt lat="44.918119487964255" lon="9.88082502546767"><ele>92.5</ele><time>2026-04-26T06:23:47Z</time></trkpt><trkpt lat="44.91805853421463" lon="9.880754905587802"><ele>93.0</ele><time>2026-04-26T06:23:48Z</time></trkpt><trkpt lat="44.91799613098556" lon="9.880683064219937"><ele>93.0</ele><time>2026-04-26T06:23:49Z</time></trkpt><trkpt lat="44.91793415564776" lon="9.880614096087406"><ele>93.0</ele><time>2026-04-26T06:23:50Z</time></trkpt><trkpt lat="44.917872710265584" lon="9.880543198862343"><ele>93.0</ele><time>2026-04-26T06:23:51Z</time></trkpt><trkpt lat="44.91780918078945" lon="9.880474245384516"><ele>93.0</ele><time>2026-04-26T06:23:52Z</time></trkpt><trkpt lat="44.91774745540446" lon="9.880405399686975"><ele>93.0</ele><time>2026-04-26T06:23:53Z</time></trkpt><trkpt lat="44.91768431517569" lon="9.880334695634785"><ele>93.0</ele><time>2026-04-26T06:23:54Z</time></trkpt><trkpt lat="44.91762116505748" lon="9.880266319698658"><ele>92.83333333333333</ele><time>2026-04-26T06:23:55Z</time></trkpt><trkpt lat="44.917558262155886" lon="9.88019718547936"><ele>92.66666666666667</ele><time>2026-04-26T06:23:55.999Z</time></trkpt><trkpt lat="44.91749620675903" lon="9.880123876089316"><ele>92.5</ele><time>2026-04-26T06:23:56.999Z</time></trkpt><trkpt lat="44.91743402196347" lon="9.880050960468093"><ele>92.33333333333334</ele><time>2026-04-26T06:23:57.999Z</time></trkpt><trkpt lat="44.91737248488774" lon="9.879977855282888"><ele>92.16666666666667</ele><time>2026-04-26T06:23:58.999Z</time></trkpt><trkpt lat="44.917310838834226" lon="9.879906270873517"><ele>92.0</ele><time>2026-04-26T06:23:59.999Z</time></trkpt><trkpt lat="44.91724891389757" lon="9.879834450508685"><ele>92.0</ele><time>2026-04-26T06:24:00.999Z</time></trkpt><trkpt lat="44.917186577538004" lon="9.879765012713278"><ele>92.0</ele><time>2026-04-26T06:24:01.999Z</time></trkpt><trkpt lat="44.91712454980751" lon="9.87969494112294"><ele>92.0</ele><time>2026-04-26T06:24:02.999Z</time></trkpt><trkpt lat="44.91706275485913" lon="9.879623543472906"><ele>92.0</ele><time>2026-04-26T06:24:03.999Z</time></trkpt><trkpt lat="44.91700039285218" lon="9.879554452260212"><ele>92.0</ele><time>2026-04-26T06:24:04.999Z</time></trkpt><trkpt lat="44.91693693467034" lon="9.879487476168038"><ele>92.0</ele><time>2026-04-26T06:24:05.999Z</time></trkpt><trkpt lat="44.916869875113804" lon="9.87942422512179"><ele>92.0</ele><time>2026-04-26T06:24:06.999Z</time></trkpt><trkpt lat="44.91679800314557" lon="9.879373059106102"><ele>92.0</ele><time>2026-04-26T06:24:07.999Z</time></trkpt><trkpt lat="44.916722410798585" lon="9.87933285704198"><ele>92.0</ele><time>2026-04-26T06:24:08.999Z</time></trkpt><trkpt lat="44.916643516418674" lon="9.879308275721714"><ele>92.0</ele><time>2026-04-26T06:24:09.999Z</time></trkpt><trkpt lat="44.91656521165544" lon="9.879294768133674"><ele>92.0</ele><time>2026-04-26T06:24:10.999Z</time></trkpt><trkpt lat="44.91648365665926" lon="9.879293919401265"><ele>92.0</ele><time>2026-04-26T06:24:11.999Z</time></trkpt><trkpt lat="44.9164055605283" lon="9.879272592370599"><ele>92.0</ele><time>2026-04-26T06:24:12.999Z</time></trkpt><trkpt lat="44.91632760770865" lon="9.879271841133267"><ele>92.0</ele><time>2026-04-26T06:24:13.999Z</time></trkpt><trkpt lat="44.9162501038256" lon="9.879271094222103"><ele>92.0</ele><time>2026-04-26T06:24:14.999Z</time></trkpt><trkpt lat="44.91617292000798" lon="9.879270350396759"><ele>92.0</ele><time>2026-04-26T06:24:15.999Z</time></trkpt><trkpt lat="44.9160926735623" lon="9.879291866703598"><ele>92.0</ele><time>2026-04-26T06:24:16.999Z</time></trkpt><trkpt lat="44.91601320933404" lon="9.879289796192758"><ele>92.0</ele><time>2026-04-26T06:24:17.999Z</time></trkpt><trkpt lat="44.91593439022396" lon="9.87926805166863"><ele>91.83333333333334</ele><time>2026-04-26T06:24:18.999Z</time></trkpt><trkpt lat="44.9158555569595" lon="9.879267291947988"><ele>91.66666666666667</ele><time>2026-04-26T06:24:19.999Z</time></trkpt><trkpt lat="44.91577692946856" lon="9.87926653420889"><ele>91.5</ele><time>2026-04-26T06:24:20.999Z</time></trkpt><trkpt lat="44.91570001026416" lon="9.879265792933396"><ele>91.33333333333333</ele><time>2026-04-26T06:24:21.999Z</time></trkpt><trkpt lat="44.915622841803746" lon="9.879265049254707"><ele>91.16666666666666</ele><time>2026-04-26T06:24:22.999Z</time></trkpt><trkpt lat="44.91554559976521" lon="9.879264304869702"><ele>91.0</ele><time>2026-04-26T06:24:23.999Z</time></trkpt><trkpt lat="44.915467048150994" lon="9.879263547863381"><ele>91.0</ele><time>2026-04-26T06:24:24.999Z</time></trkpt><trkpt lat="44.9153903890507" lon="9.87926189517132"><ele>91.0</ele><time>2026-04-26T06:24:25.999Z</time></trkpt><trkpt lat="44.91531219663727" lon="9.879260102978192"><ele>91.0</ele><time>2026-04-26T06:24:26.999Z</time></trkpt><trkpt lat="44.91523335969488" lon="9.879280670822359"><ele>91.0</ele><time>2026-04-26T06:24:27.999Z</time></trkpt><trkpt lat="44.915154453683925" lon="9.879256487553356"><ele>91.0</ele><time>2026-04-26T06:24:28.999Z</time></trkpt><trkpt lat="44.91507633023805" lon="9.87925571799694"><ele>91.0</ele><time>2026-04-26T06:24:29.999Z</time></trkpt><trkpt lat="44.914998899487564" lon="9.879254480040538"><ele>91.33333333333333</ele><time>2026-04-26T06:24:30.999Z</time></trkpt><trkpt lat="44.91492152522136" lon="9.879253242985303"><ele>91.66666666666666</ele><time>2026-04-26T06:24:31.999Z</time></trkpt><trkpt lat="44.9148436843104" lon="9.879252269029905"><ele>92.0</ele><time>2026-04-26T06:24:32.999Z</time></trkpt><trkpt lat="44.91476560248024" lon="9.87925145740009"><ele>92.33333333333333</ele><time>2026-04-26T06:24:33.999Z</time></trkpt><trkpt lat="44.91469017382816" lon="9.879250673348286"><ele>92.66666666666667</ele><time>2026-04-26T06:24:34.999Z</time></trkpt><trkpt lat="44.91461445190809" lon="9.879249886249104"><ele>93.0</ele><time>2026-04-26T06:24:35.999Z</time></trkpt><trkpt lat="44.91453824338889" lon="9.879249094091147"><ele>93.0</ele><time>2026-04-26T06:24:36.999Z</time></trkpt><trkpt lat="44.91446254999134" lon="9.879248307288032"><ele>93.0</ele><time>2026-04-26T06:24:37.999Z</time></trkpt><trkpt lat="44.91438726817972" lon="9.879247524762592"><ele>93.0</ele><time>2026-04-26T06:24:38.999Z</time></trkpt><trkpt lat="44.91431030060256" lon="9.879246584330916"><ele>93.0</ele><time>2026-04-26T06:24:39.999Z</time></trkpt><trkpt lat="44.91423454261636" lon="9.87924562597066"><ele>93.0</ele><time>2026-04-26T06:24:40.999Z</time></trkpt><trkpt lat="44.9141565266469" lon="9.879244639046005"><ele>93.0</ele><time>2026-04-26T06:24:41.999Z</time></trkpt><trkpt lat="44.91407806585757" lon="9.87924364649468"><ele>92.83333333333333</ele><time>2026-04-26T06:24:42.999Z</time></trkpt><trkpt lat="44.914001084223315" lon="9.879242672654906"><ele>92.66666666666667</ele><time>2026-04-26T06:24:43.999Z</time></trkpt><trkpt lat="44.91392285126751" lon="9.8792416829848"><ele>92.5</ele><time>2026-04-26T06:24:44.999Z</time></trkpt><trkpt lat="44.91384416444581" lon="9.879240687574946"><ele>92.33333333333334</ele><time>2026-04-26T06:24:45.999Z</time></trkpt><trkpt lat="44.9137668367154" lon="9.879239709356478"><ele>92.16666666666667</ele><time>2026-04-26T06:24:46.999Z</time></trkpt><trkpt lat="44.91368735299333" lon="9.87923870386504"><ele>92.0</ele><time>2026-04-26T06:24:47.999Z</time></trkpt><trkpt lat="44.913607307289645" lon="9.879237691264308"><ele>92.0</ele><time>2026-04-26T06:24:48.999Z</time></trkpt><trkpt lat="44.913529332309956" lon="9.879236704858206"><ele>92.0</ele><time>2026-04-26T06:24:49.998Z</time></trkpt><trkpt lat="44.91344870770463" lon="9.879235684933823"><ele>92.0</ele><time>2026-04-26T06:24:50.998Z</time></trkpt><trkpt lat="44.91336953050612" lon="9.879235061280683"><ele>92.0</ele><time>2026-04-26T06:24:51.998Z</time></trkpt><trkpt lat="44.913288564010095" lon="9.87925715650019"><ele>92.0</ele><time>2026-04-26T06:24:52.998Z</time></trkpt><trkpt lat="44.91320836905669" lon="9.879257345943216"><ele>92.0</ele><time>2026-04-26T06:24:53.998Z</time></trkpt><trkpt lat="44.91312853227818" lon="9.87925645397587"><ele>92.16666666666667</ele><time>2026-04-26T06:24:54.998Z</time></trkpt><trkpt lat="44.91305002957539" lon="9.879255437878456"><ele>92.33333333333334</ele><time>2026-04-26T06:24:55.998Z</time></trkpt><trkpt lat="44.91297092677359" lon="9.87925403143625"><ele>92.5</ele><time>2026-04-26T06:24:56.998Z</time></trkpt><trkpt lat="44.91289193062563" lon="9.879251483164122"><ele>92.66666666666667</ele><time>2026-04-26T06:24:57.998Z</time></trkpt><trkpt lat="44.91281252926689" lon="9.879249291238526"><ele>92.83333333333333</ele><time>2026-04-26T06:24:58.998Z</time></trkpt><trkpt lat="44.91273409758705" lon="9.879250248230212"><ele>93.0</ele><time>2026-04-26T06:24:59.998Z</time></trkpt><trkpt lat="44.91265354185377" lon="9.87925048074676"><ele>93.0</ele><time>2026-04-26T06:25:00.998Z</time></trkpt><trkpt lat="44.91257595103273" lon="9.879227132323297"><ele>93.0</ele><time>2026-04-26T06:25:01.998Z</time></trkpt><trkpt lat="44.91249821670649" lon="9.879226358420407"><ele>93.0</ele><time>2026-04-26T06:25:02.998Z</time></trkpt><trkpt lat="44.912419200468904" lon="9.879225571754423"><ele>93.0</ele><time>2026-04-26T06:25:03.998Z</time></trkpt><trkpt lat="44.91234060944195" lon="9.879224789322599"><ele>93.0</ele><time>2026-04-26T06:25:04.998Z</time></trkpt><trkpt lat="44.91226342247365" lon="9.879223076276206"><ele>93.0</ele><time>2026-04-26T06:25:05.998Z</time></trkpt><trkpt lat="44.91218541345506" lon="9.879220974237306"><ele>93.16666666666667</ele><time>2026-04-26T06:25:06.998Z</time></trkpt><trkpt lat="44.91210598079072" lon="9.87921917277946"><ele>93.33333333333333</ele><time>2026-04-26T06:25:07.998Z</time></trkpt><trkpt lat="44.9120268644789" lon="9.87924159096022"><ele>93.5</ele><time>2026-04-26T06:25:08.998Z</time></trkpt><trkpt lat="44.91194833442242" lon="9.879240890760345"><ele>93.66666666666666</ele><time>2026-04-26T06:25:09.998Z</time></trkpt><trkpt lat="44.91186868986182" lon="9.879236465969397"><ele>93.83333333333333</ele><time>2026-04-26T06:25:10.998Z</time></trkpt><trkpt lat="44.91178950432074" lon="9.87923467653316"><ele>94.0</ele><time>2026-04-26T06:25:11.998Z</time></trkpt><trkpt lat="44.91171044607885" lon="9.879233284911237"><ele>94.0</ele><time>2026-04-26T06:25:12.998Z</time></trkpt><trkpt lat="44.911630937556865" lon="9.879231162110198"><ele>94.0</ele><time>2026-04-26T06:25:13.998Z</time></trkpt><trkpt lat="44.91155032013792" lon="9.879228591202965"><ele>94.0</ele><time>2026-04-26T06:25:14.998Z</time></trkpt><trkpt lat="44.91147198570533" lon="9.879227646036437"><ele>94.0</ele><time>2026-04-26T06:25:15.998Z</time></trkpt><trkpt lat="44.9113924062677" lon="9.879225925324981"><ele>94.0</ele><time>2026-04-26T06:25:16.998Z</time></trkpt><trkpt lat="44.91131375795972" lon="9.87922531957264"><ele>94.0</ele><time>2026-04-26T06:25:17.998Z</time></trkpt><trkpt lat="44.91123532641673" lon="9.879222032499756"><ele>94.0</ele><time>2026-04-26T06:25:18.998Z</time></trkpt><trkpt lat="44.911155144233796" lon="9.879219352751017"><ele>94.0</ele><time>2026-04-26T06:25:19.998Z</time></trkpt><trkpt lat="44.91107673677137" lon="9.87921504614808"><ele>94.0</ele><time>2026-04-26T06:25:20.998Z</time></trkpt><trkpt lat="44.9109962238998" lon="9.879210876787697"><ele>94.0</ele><time>2026-04-26T06:25:21.998Z</time></trkpt><trkpt lat="44.91091701671445" lon="9.879208063762764"><ele>94.0</ele><time>2026-04-26T06:25:22.998Z</time></trkpt><trkpt lat="44.91083731587539" lon="9.879205003874995"><ele>94.0</ele><time>2026-04-26T06:25:23.998Z</time></trkpt><trkpt lat="44.910758893359876" lon="9.879205879641068"><ele>94.5</ele><time>2026-04-26T06:25:24.998Z</time></trkpt><trkpt lat="44.91068153847245" lon="9.879207660861702"><ele>95.0</ele><time>2026-04-26T06:25:25.998Z</time></trkpt><trkpt lat="44.91060408692208" lon="9.879211922924268"><ele>95.5</ele><time>2026-04-26T06:25:26.998Z</time></trkpt><trkpt lat="44.910527828937916" lon="9.87921051244342"><ele>96.0</ele><time>2026-04-26T06:25:27.998Z</time></trkpt><trkpt lat="44.910451423935115" lon="9.879209986955619"><ele>96.50000000000001</ele><time>2026-04-26T06:25:28.998Z</time></trkpt><trkpt lat="44.91037498230166" lon="9.879207009518348"><ele>97.0</ele><time>2026-04-26T06:25:29.998Z</time></trkpt><trkpt lat="44.91029826045296" lon="9.879205287249775"><ele>97.00000000000001</ele><time>2026-04-26T06:25:30.998Z</time></trkpt><trkpt lat="44.91022141767102" lon="9.87920576318704"><ele>97.0</ele><time>2026-04-26T06:25:31.998Z</time></trkpt><trkpt lat="44.910143828580665" lon="9.879203457667748"><ele>97.0</ele><time>2026-04-26T06:25:32.998Z</time></trkpt><trkpt lat="44.910065264418805" lon="9.879197204635506"><ele>97.0</ele><time>2026-04-26T06:25:33.998Z</time></trkpt><trkpt lat="44.90998843228177" lon="9.879193909705487"><ele>97.00000000000001</ele><time>2026-04-26T06:25:34.998Z</time></trkpt><trkpt lat="44.90991208932756" lon="9.879194565165863"><ele>97.0</ele><time>2026-04-26T06:25:35.998Z</time></trkpt><trkpt lat="44.90983615133778" lon="9.879196523392878"><ele>97.00000000000001</ele><time>2026-04-26T06:25:36.998Z</time></trkpt><trkpt lat="44.9097587028149" lon="9.879193953487045"><ele>97.0</ele><time>2026-04-26T06:25:37.998Z</time></trkpt><trkpt lat="44.9096818512582" lon="9.879183908165807"><ele>97.0</ele><time>2026-04-26T06:25:38.998Z</time></trkpt><trkpt lat="44.90960312294719" lon="9.879176965124985"><ele>97.0</ele><time>2026-04-26T06:25:40Z</time></trkpt><trkpt lat="44.9095267215554" lon="9.879171611940023"><ele>97.00000000000001</ele><time>2026-04-26T06:25:41Z</time></trkpt><trkpt lat="44.909447794547766" lon="9.879161921479739"><ele>97.0</ele><time>2026-04-26T06:25:42Z</time></trkpt><trkpt lat="44.90936893746874" lon="9.879155192124516"><ele>97.00000000000001</ele><time>2026-04-26T06:25:43Z</time></trkpt><trkpt lat="44.90929007087465" lon="9.879154246693025"><ele>97.0</ele><time>2026-04-26T06:25:44Z</time></trkpt><trkpt lat="44.909210700849144" lon="9.879150588176424"><ele>97.0</ele><time>2026-04-26T06:25:45Z</time></trkpt><trkpt lat="44.9091318063329" lon="9.87914213686277"><ele>97.0</ele><time>2026-04-26T06:25:46Z</time></trkpt><trkpt lat="44.9090534193804" lon="9.879132507411065"><ele>97.00000000000001</ele><time>2026-04-26T06:25:47Z</time></trkpt><trkpt lat="44.908975248869545" lon="9.879122739754235"><ele>97.0</ele><time>2026-04-26T06:25:48Z</time></trkpt><trkpt lat="44.908897045800735" lon="9.879114046390539"><ele>97.00000000000001</ele><time>2026-04-26T06:25:49Z</time></trkpt><trkpt lat="44.90881983759678" lon="9.87910970552217"><ele>97.0</ele><time>2026-04-26T06:25:50Z</time></trkpt><trkpt lat="44.90874067357132" lon="9.8791087679851"><ele>97.0</ele><time>2026-04-26T06:25:51Z</time></trkpt><trkpt lat="44.90866459933456" lon="9.879109647788871"><ele>97.0</ele><time>2026-04-26T06:25:52Z</time></trkpt><trkpt lat="44.9085882367171" lon="9.87910954281508"><ele>97.00000000000001</ele><time>2026-04-26T06:25:53Z</time></trkpt><trkpt lat="44.90851368118742" lon="9.87910227644627"><ele>97.0</ele><time>2026-04-26T06:25:54Z</time></trkpt><trkpt lat="44.90843476580013" lon="9.87909435160569"><ele>97.00000000000001</ele><time>2026-04-26T06:25:55Z</time></trkpt><trkpt lat="44.90835766961353" lon="9.879091108693606"><ele>97.0</ele><time>2026-04-26T06:25:56Z</time></trkpt><trkpt lat="44.908280921493706" lon="9.879082337236651"><ele>97.0</ele><time>2026-04-26T06:25:57Z</time></trkpt><trkpt lat="44.90820375499846" lon="9.879075902173591"><ele>97.0</ele><time>2026-04-26T06:25:58Z</time></trkpt><trkpt lat="44.908126358836284" lon="9.879074243337179"><ele>97.00000000000001</ele><time>2026-04-26T06:25:59Z</time></trkpt><trkpt lat="44.908048633628205" lon="9.879069413212655"><ele>97.0</ele><time>2026-04-26T06:25:59.999Z</time></trkpt><trkpt lat="44.907970140367944" lon="9.879062992263766"><ele>97.00000000000001</ele><time>2026-04-26T06:26:00.999Z</time></trkpt><trkpt lat="44.90789146341298" lon="9.87905449521045"><ele>97.0</ele><time>2026-04-26T06:26:01.999Z</time></trkpt><trkpt lat="44.90781404602367" lon="9.879047101083168"><ele>97.0</ele><time>2026-04-26T06:26:02.999Z</time></trkpt><trkpt lat="44.907736363674985" lon="9.87904201330963"><ele>97.0</ele><time>2026-04-26T06:26:03.999Z</time></trkpt><trkpt lat="44.90765923497483" lon="9.879035878817833"><ele>97.00000000000001</ele><time>2026-04-26T06:26:04.999Z</time></trkpt><trkpt lat="44.90758165890422" lon="9.879030102041876"><ele>97.0</ele><time>2026-04-26T06:26:05.999Z</time></trkpt><trkpt lat="44.90750253031821" lon="9.879022797449945"><ele>97.66666666666667</ele><time>2026-04-26T06:26:06.999Z</time></trkpt><trkpt lat="44.90742403783431" lon="9.879017883025517"><ele>98.33333333333334</ele><time>2026-04-26T06:26:07.999Z</time></trkpt><trkpt lat="44.907344739840624" lon="9.879009902961412"><ele>99.0</ele><time>2026-04-26T06:26:08.999Z</time></trkpt><trkpt lat="44.90726569580818" lon="9.879002664173361"><ele>99.66666666666666</ele><time>2026-04-26T06:26:09.999Z</time></trkpt><trkpt lat="44.90718627854623" lon="9.8789964563362"><ele>100.33333333333333</ele><time>2026-04-26T06:26:10.999Z</time></trkpt><trkpt lat="44.907106034919515" lon="9.878990769774648"><ele>101.0</ele><time>2026-04-26T06:26:11.999Z</time></trkpt><trkpt lat="44.90702654347116" lon="9.878980152696705"><ele>100.99999999999999</ele><time>2026-04-26T06:26:12.999Z</time></trkpt><trkpt lat="44.90694748223923" lon="9.878958566280712"><ele>101.0</ele><time>2026-04-26T06:26:13.999Z</time></trkpt><trkpt lat="44.906870111762814" lon="9.878924016388444"><ele>101.0</ele><time>2026-04-26T06:26:14.999Z</time></trkpt><trkpt lat="44.90680019918856" lon="9.87886349702931"><ele>101.0</ele><time>2026-04-26T06:26:15.999Z</time></trkpt><trkpt lat="44.90673996520064" lon="9.878785688655974"><ele>100.99999999999999</ele><time>2026-04-26T06:26:16.999Z</time></trkpt><trkpt lat="44.90668607991451" lon="9.878700337158449"><ele>101.0</ele><time>2026-04-26T06:26:17.999Z</time></trkpt><trkpt lat="44.90663373672457" lon="9.878615139802976"><ele>100.99999999999999</ele><time>2026-04-26T06:26:18.999Z</time></trkpt><trkpt lat="44.90657884774008" lon="9.878530839739401"><ele>101.0</ele><time>2026-04-26T06:26:19.999Z</time></trkpt><trkpt lat="44.906525477179876" lon="9.878445147864918"><ele>101.0</ele><time>2026-04-26T06:26:20.999Z</time></trkpt><trkpt lat="44.906471545661994" lon="9.878359695319606"><ele>101.0</ele><time>2026-04-26T06:26:21.999Z</time></trkpt><trkpt lat="44.90641764454122" lon="9.878273688746102"><ele>100.99999999999999</ele><time>2026-04-26T06:26:22.999Z</time></trkpt><trkpt lat="44.90636154153373" lon="9.878188238578392"><ele>101.0</ele><time>2026-04-26T06:26:23.999Z</time></trkpt><trkpt lat="44.906307229113345" lon="9.8781048295611"><ele>100.99999999999999</ele><time>2026-04-26T06:26:24.999Z</time></trkpt><trkpt lat="44.906254090143584" lon="9.8780190063373"><ele>101.0</ele><time>2026-04-26T06:26:25.999Z</time></trkpt><trkpt lat="44.90620035652955" lon="9.87793368338602"><ele>101.0</ele><time>2026-04-26T06:26:26.999Z</time></trkpt><trkpt lat="44.90614747153279" lon="9.877847562806483"><ele>101.0</ele><time>2026-04-26T06:26:27.999Z</time></trkpt><trkpt lat="44.90609332802759" lon="9.877761638093517"><ele>100.99999999999999</ele><time>2026-04-26T06:26:28.999Z</time></trkpt><trkpt lat="44.9060371417389" lon="9.877678895549177"><ele>101.0</ele><time>2026-04-26T06:26:29.999Z</time></trkpt><trkpt lat="44.90598235516602" lon="9.87759340469183"><ele>101.16666666666666</ele><time>2026-04-26T06:26:30.999Z</time></trkpt><trkpt lat="44.9059282202165" lon="9.877505350607596"><ele>101.33333333333333</ele><time>2026-04-26T06:26:31.999Z</time></trkpt><trkpt lat="44.90587311338284" lon="9.877422404790671"><ele>101.5</ele><time>2026-04-26T06:26:32.999Z</time></trkpt><trkpt lat="44.9058181227801" lon="9.877336549158526"><ele>101.66666666666666</ele><time>2026-04-26T06:26:33.999Z</time></trkpt><trkpt lat="44.90576514094562" lon="9.877250396252089"><ele>101.83333333333333</ele><time>2026-04-26T06:26:34.999Z</time></trkpt><trkpt lat="44.90571161784097" lon="9.877163949130603"><ele>102.0</ele><time>2026-04-26T06:26:35.999Z</time></trkpt><trkpt lat="44.90565775213011" lon="9.877077628978384"><ele>102.16666666666667</ele><time>2026-04-26T06:26:36.999Z</time></trkpt><trkpt lat="44.90560919117447" lon="9.876989987597938"><ele>102.33333333333334</ele><time>2026-04-26T06:26:37.999Z</time></trkpt><trkpt lat="44.905570722993154" lon="9.876887678263035"><ele>102.5</ele><time>2026-04-26T06:26:38.999Z</time></trkpt><trkpt lat="44.905538274194555" lon="9.876776429353907"><ele>102.66666666666667</ele><time>2026-04-26T06:26:39.999Z</time></trkpt><trkpt lat="44.9055129815238" lon="9.876662365743512"><ele>102.83333333333334</ele><time>2026-04-26T06:26:40.999Z</time></trkpt><trkpt lat="44.90549323061514" lon="9.876543025846313"><ele>103.0</ele><time>2026-04-26T06:26:41.999Z</time></trkpt><trkpt lat="44.90547604990126" lon="9.8764285072524"><ele>102.83333333333334</ele><time>2026-04-26T06:26:42.999Z</time></trkpt><trkpt lat="44.90546096889016" lon="9.876311713256205"><ele>102.66666666666667</ele><time>2026-04-26T06:26:43.999Z</time></trkpt><trkpt lat="44.90544281276673" lon="9.876199798151953"><ele>102.5</ele><time>2026-04-26T06:26:44.999Z</time></trkpt><trkpt lat="44.90542077378091" lon="9.876082526243758"><ele>102.33333333333334</ele><time>2026-04-26T06:26:45.999Z</time></trkpt><trkpt lat="44.905401911361736" lon="9.875964116410092"><ele>102.16666666666667</ele><time>2026-04-26T06:26:46.999Z</time></trkpt><trkpt lat="44.90538385610308" lon="9.875844025080697"><ele>102.0</ele><time>2026-04-26T06:26:47.999Z</time></trkpt><trkpt lat="44.90536323284232" lon="9.875727814221069"><ele>102.0</ele><time>2026-04-26T06:26:48.999Z</time></trkpt><trkpt lat="44.90534228112652" lon="9.875610496754023"><ele>102.0</ele><time>2026-04-26T06:26:49.999Z</time></trkpt><trkpt lat="44.905321728087365" lon="9.875489547284307"><ele>102.0</ele><time>2026-04-26T06:26:50.999Z</time></trkpt><trkpt lat="44.90530135714168" lon="9.875368829484104"><ele>102.0</ele><time>2026-04-26T06:26:51.999Z</time></trkpt><trkpt lat="44.905282294597" lon="9.875250134822029"><ele>102.0</ele><time>2026-04-26T06:26:52.999Z</time></trkpt><trkpt lat="44.90526212579915" lon="9.875130223716138"><ele>102.0</ele><time>2026-04-26T06:26:53.998Z</time></trkpt><trkpt lat="44.90524251663897" lon="9.875008951887894"><ele>101.83333333333333</ele><time>2026-04-26T06:26:54.998Z</time></trkpt><trkpt lat="44.90522313191048" lon="9.874886269176086"><ele>101.66666666666666</ele><time>2026-04-26T06:26:55.998Z</time></trkpt><trkpt lat="44.905202742439805" lon="9.874766792716471"><ele>101.5</ele><time>2026-04-26T06:26:56.998Z</time></trkpt><trkpt lat="44.905180254065144" lon="9.874647369971388"><ele>101.33333333333333</ele><time>2026-04-26T06:26:57.998Z</time></trkpt><trkpt lat="44.905158936538506" lon="9.874527023371378"><ele>101.16666666666666</ele><time>2026-04-26T06:26:58.998Z</time></trkpt><trkpt lat="44.905137781954544" lon="9.874408234256379"><ele>101.0</ele><time>2026-04-26T06:26:59.998Z</time></trkpt><trkpt lat="44.90511623139571" lon="9.874286433429058"><ele>100.99999999999999</ele><time>2026-04-26T06:27:00.998Z</time></trkpt><trkpt lat="44.90509377729802" lon="9.874163987183447"><ele>101.0</ele><time>2026-04-26T06:27:01.998Z</time></trkpt><trkpt lat="44.905073849097626" lon="9.874045325620818"><ele>101.0</ele><time>2026-04-26T06:27:02.998Z</time></trkpt><trkpt lat="44.90505386961703" lon="9.873922299846484"><ele>101.0</ele><time>2026-04-26T06:27:03.998Z</time></trkpt><trkpt lat="44.90503315084468" lon="9.87380579186387"><ele>100.99999999999999</ele><time>2026-04-26T06:27:04.998Z</time></trkpt><trkpt lat="44.90501222480983" lon="9.873687423594108"><ele>101.0</ele><time>2026-04-26T06:27:05.998Z</time></trkpt><trkpt lat="44.90499117603425" lon="9.873570531819492"><ele>100.83333333333333</ele><time>2026-04-26T06:27:06.998Z</time></trkpt><trkpt lat="44.90497363346944" lon="9.873454945846948"><ele>100.66666666666666</ele><time>2026-04-26T06:27:07.998Z</time></trkpt><trkpt lat="44.90495580812659" lon="9.873339947617215"><ele>100.5</ele><time>2026-04-26T06:27:08.998Z</time></trkpt><trkpt lat="44.90493684157561" lon="9.873228083025015"><ele>100.33333333333334</ele><time>2026-04-26T06:27:09.998Z</time></trkpt><trkpt lat="44.90491750666328" lon="9.873115122576944"><ele>100.16666666666667</ele><time>2026-04-26T06:27:10.998Z</time></trkpt><trkpt lat="44.90489996340017" lon="9.873005523932736"><ele>100.0</ele><time>2026-04-26T06:27:11.998Z</time></trkpt><trkpt lat="44.90488233052709" lon="9.872897149325093"><ele>99.85714285714286</ele><time>2026-04-26T06:27:12.998Z</time></trkpt><trkpt lat="44.904864692241226" lon="9.872788935568224"><ele>99.71428571428572</ele><time>2026-04-26T06:27:13.998Z</time></trkpt><trkpt lat="44.90484933237073" lon="9.87268477165858"><ele>99.57142857142858</ele><time>2026-04-26T06:27:14.998Z</time></trkpt><trkpt lat="44.90483411814412" lon="9.872583441164435"><ele>99.42857142857143</ele><time>2026-04-26T06:27:15.998Z</time></trkpt><trkpt lat="44.904816691754114" lon="9.872480638062441"><ele>99.28571428571428</ele><time>2026-04-26T06:27:16.998Z</time></trkpt><trkpt lat="44.904797854476435" lon="9.872380794989281"><ele>99.14285714285715</ele><time>2026-04-26T06:27:17.998Z</time></trkpt><trkpt lat="44.904779743220296" lon="9.872279997860714"><ele>99.0</ele><time>2026-04-26T06:27:18.998Z</time></trkpt><trkpt lat="44.90476078367204" lon="9.872177736484026"><ele>99.0</ele><time>2026-04-26T06:27:19.998Z</time></trkpt><trkpt lat="44.90474273803648" lon="9.872074851872554"><ele>99.0</ele><time>2026-04-26T06:27:20.998Z</time></trkpt><trkpt lat="44.90472533120897" lon="9.8719740785568"><ele>99.0</ele><time>2026-04-26T06:27:21.998Z</time></trkpt><trkpt lat="44.90470998457629" lon="9.871868316031529"><ele>99.0</ele><time>2026-04-26T06:27:22.998Z</time></trkpt><trkpt lat="44.904693552206034" lon="9.871761123302132"><ele>99.0</ele><time>2026-04-26T06:27:23.998Z</time></trkpt><trkpt lat="44.90467502159122" lon="9.871650672634164"><ele>99.0</ele><time>2026-04-26T06:27:24.998Z</time></trkpt><trkpt lat="44.90465551811984" lon="9.871538933711339"><ele>98.66666666666667</ele><time>2026-04-26T06:27:25.998Z</time></trkpt><trkpt lat="44.90463825290961" lon="9.871429966208968"><ele>98.33333333333334</ele><time>2026-04-26T06:27:26.998Z</time></trkpt><trkpt lat="44.90461887124173" lon="9.871321599874122"><ele>98.0</ele><time>2026-04-26T06:27:27.998Z</time></trkpt><trkpt lat="44.90460251490511" lon="9.871210614017919"><ele>97.66666666666667</ele><time>2026-04-26T06:27:28.998Z</time></trkpt><trkpt lat="44.904581794275465" lon="9.871102591211093"><ele>97.33333333333334</ele><time>2026-04-26T06:27:29.998Z</time></trkpt><trkpt lat="44.904563320303645" lon="9.870994063990404"><ele>97.0</ele><time>2026-04-26T06:27:30.998Z</time></trkpt><trkpt lat="44.90454379197392" lon="9.870884227914578"><ele>96.66666666666667</ele><time>2026-04-26T06:27:31.998Z</time></trkpt><trkpt lat="44.90452613142647" lon="9.870772302737914"><ele>96.33333333333334</ele><time>2026-04-26T06:27:32.998Z</time></trkpt><trkpt lat="44.9045081803315" lon="9.870659831648252"><ele>96.0</ele><time>2026-04-26T06:27:33.998Z</time></trkpt><trkpt lat="44.9044880254337" lon="9.870548792435219"><ele>95.66666666666667</ele><time>2026-04-26T06:27:34.998Z</time></trkpt><trkpt lat="44.90446814455508" lon="9.870435079845905"><ele>95.33333333333334</ele><time>2026-04-26T06:27:35.998Z</time></trkpt><trkpt lat="44.904449277175516" lon="9.870319618287787"><ele>95.0</ele><time>2026-04-26T06:27:36.998Z</time></trkpt><trkpt lat="44.90443108242618" lon="9.870205373885039"><ele>95.16666666666667</ele><time>2026-04-26T06:27:37.998Z</time></trkpt><trkpt lat="44.90441137875926" lon="9.870092459555243"><ele>95.33333333333334</ele><time>2026-04-26T06:27:38.998Z</time></trkpt><trkpt lat="44.90439266726494" lon="9.869980857782538"><ele>95.5</ele><time>2026-04-26T06:27:39.998Z</time></trkpt><trkpt lat="44.90437670075803" lon="9.86987078620005"><ele>95.66666666666667</ele><time>2026-04-26T06:27:40.998Z</time></trkpt><trkpt lat="44.90436256197408" lon="9.869760492347677"><ele>95.83333333333333</ele><time>2026-04-26T06:27:41.998Z</time></trkpt><trkpt lat="44.90434528715079" lon="9.869647440564819"><ele>96.0</ele><time>2026-04-26T06:27:42.998Z</time></trkpt><trkpt lat="44.9043267235419" lon="9.8695345861398"><ele>96.0</ele><time>2026-04-26T06:27:43.998Z</time></trkpt><trkpt lat="44.90430407133486" lon="9.869422003417826"><ele>96.0</ele><time>2026-04-26T06:27:45Z</time></trkpt><trkpt lat="44.90427615305358" lon="9.869311385515365"><ele>96.0</ele><time>2026-04-26T06:27:46Z</time></trkpt><trkpt lat="44.90423934101066" lon="9.869204780756618"><ele>96.0</ele><time>2026-04-26T06:27:47Z</time></trkpt><trkpt lat="44.90418969841292" lon="9.869108672471887"><ele>96.0</ele><time>2026-04-26T06:27:48Z</time></trkpt><trkpt lat="44.90413333457439" lon="9.869023699631349"><ele>96.0</ele><time>2026-04-26T06:27:49Z</time></trkpt><trkpt lat="44.904075196072526" lon="9.86894321395093"><ele>96.16666666666667</ele><time>2026-04-26T06:27:50Z</time></trkpt><trkpt lat="44.90401425919008" lon="9.868864885853188"><ele>96.33333333333334</ele><time>2026-04-26T06:27:51Z</time></trkpt><trkpt lat="44.903956466634924" lon="9.868783125643157"><ele>96.5</ele><time>2026-04-26T06:27:52Z</time></trkpt><trkpt lat="44.9038985588132" lon="9.868700440632526"><ele>96.66666666666667</ele><time>2026-04-26T06:27:53Z</time></trkpt><trkpt lat="44.903842738839664" lon="9.868621071462151"><ele>96.83333333333334</ele><time>2026-04-26T06:27:54Z</time></trkpt><trkpt lat="44.90378778197157" lon="9.868539463504023"><ele>97.0</ele><time>2026-04-26T06:27:55Z</time></trkpt><trkpt lat="44.90373276771235" lon="9.868459860294196"><ele>97.00000000000001</ele><time>2026-04-26T06:27:56Z</time></trkpt><trkpt lat="44.90367748591219" lon="9.868384271135332"><ele>97.0</ele><time>2026-04-26T06:27:57Z</time></trkpt><trkpt lat="44.90362051908886" lon="9.868307889591698"><ele>97.0</ele><time>2026-04-26T06:27:58Z</time></trkpt><trkpt lat="44.903563715660724" lon="9.868230093525895"><ele>97.0</ele><time>2026-04-26T06:27:59Z</time></trkpt><trkpt lat="44.90350784995843" lon="9.868152573161662"><ele>97.00000000000001</ele><time>2026-04-26T06:28:00Z</time></trkpt><trkpt lat="44.9034522175698" lon="9.86807234680194"><ele>97.0</ele><time>2026-04-26T06:28:01Z</time></trkpt><trkpt lat="44.903394312494505" lon="9.867991268278145"><ele>97.00000000000001</ele><time>2026-04-26T06:28:02Z</time></trkpt><trkpt lat="44.90333661312436" lon="9.86790914478873"><ele>97.0</ele><time>2026-04-26T06:28:02.999Z</time></trkpt><trkpt lat="44.903277833629744" lon="9.867829889942366"><ele>97.0</ele><time>2026-04-26T06:28:03.999Z</time></trkpt><trkpt lat="44.903219402316346" lon="9.867750552067534"><ele>97.0</ele><time>2026-04-26T06:28:04.999Z</time></trkpt><trkpt lat="44.90316184633222" lon="9.867671695371314"><ele>97.00000000000001</ele><time>2026-04-26T06:28:05.999Z</time></trkpt><trkpt lat="44.903102697172024" lon="9.867590258220794"><ele>97.0</ele><time>2026-04-26T06:28:06.999Z</time></trkpt><trkpt lat="44.903045027575786" lon="9.867510165823393"><ele>96.83333333333334</ele><time>2026-04-26T06:28:07.999Z</time></trkpt><trkpt lat="44.902984728692964" lon="9.867433136513021"><ele>96.66666666666667</ele><time>2026-04-26T06:28:08.999Z</time></trkpt><trkpt lat="44.90292509196107" lon="9.867357491619853"><ele>96.5</ele><time>2026-04-26T06:28:09.999Z</time></trkpt><trkpt lat="44.90286587603973" lon="9.867280481918499"><ele>96.33333333333334</ele><time>2026-04-26T06:28:10.999Z</time></trkpt><trkpt lat="44.902808056040385" lon="9.867203286677146"><ele>96.16666666666667</ele><time>2026-04-26T06:28:11.999Z</time></trkpt><trkpt lat="44.902750173887775" lon="9.867123575482884"><ele>96.0</ele><time>2026-04-26T06:28:12.999Z</time></trkpt><trkpt lat="44.90269204654612" lon="9.86704502933628"><ele>96.0</ele><time>2026-04-26T06:28:13.999Z</time></trkpt><trkpt lat="44.90263217029486" lon="9.866966987926414"><ele>96.0</ele><time>2026-04-26T06:28:14.999Z</time></trkpt><trkpt lat="44.902572542634694" lon="9.86688780811912"><ele>96.0</ele><time>2026-04-26T06:28:15.999Z</time></trkpt><trkpt lat="44.902511584308705" lon="9.866808231203214"><ele>96.0</ele><time>2026-04-26T06:28:16.999Z</time></trkpt><trkpt lat="44.90245072062145" lon="9.866730160005217"><ele>96.0</ele><time>2026-04-26T06:28:17.999Z</time></trkpt><trkpt lat="44.90239102184891" lon="9.866649804790926"><ele>96.0</ele><time>2026-04-26T06:28:18.999Z</time></trkpt><trkpt lat="44.90233325283975" lon="9.866564509948965"><ele>95.66666666666667</ele><time>2026-04-26T06:28:19.999Z</time></trkpt><trkpt lat="44.90227580729786" lon="9.86648179805269"><ele>95.33333333333333</ele><time>2026-04-26T06:28:20.999Z</time></trkpt><trkpt lat="44.90221983996353" lon="9.866398994045793"><ele>95.0</ele><time>2026-04-26T06:28:21.999Z</time></trkpt><trkpt lat="44.902166858117745" lon="9.86631152229224"><ele>94.66666666666666</ele><time>2026-04-26T06:28:22.999Z</time></trkpt><trkpt lat="44.90212233825125" lon="9.866217557103615"><ele>94.33333333333333</ele><time>2026-04-26T06:28:23.999Z</time></trkpt><trkpt lat="44.90208688764407" lon="9.866121018051931"><ele>94.0</ele><time>2026-04-26T06:28:24.999Z</time></trkpt><trkpt lat="44.90205735588804" lon="9.866027481041524"><ele>94.0</ele><time>2026-04-26T06:28:25.999Z</time></trkpt><trkpt lat="44.90203250953975" lon="9.865923562151329"><ele>94.0</ele><time>2026-04-26T06:28:26.999Z</time></trkpt><trkpt lat="44.90200937024115" lon="9.865823279921297"><ele>94.0</ele><time>2026-04-26T06:28:27.999Z</time></trkpt><trkpt lat="44.90198571004168" lon="9.86572104644371"><ele>94.0</ele><time>2026-04-26T06:28:28.999Z</time></trkpt><trkpt lat="44.90196109243976" lon="9.865620873598521"><ele>94.0</ele><time>2026-04-26T06:28:29.999Z</time></trkpt><trkpt lat="44.90193378461694" lon="9.865523162999379"><ele>94.0</ele><time>2026-04-26T06:28:30.999Z</time></trkpt><trkpt lat="44.90190394230325" lon="9.865428016965554"><ele>94.0</ele><time>2026-04-26T06:28:31.999Z</time></trkpt><trkpt lat="44.90187178596678" lon="9.865334721875001"><ele>94.0</ele><time>2026-04-26T06:28:32.999Z</time></trkpt><trkpt lat="44.90183855884087" lon="9.865244737598573"><ele>94.0</ele><time>2026-04-26T06:28:33.999Z</time></trkpt><trkpt lat="44.901799046629364" lon="9.865156294390147"><ele>94.0</ele><time>2026-04-26T06:28:34.999Z</time></trkpt><trkpt lat="44.90175311162114" lon="9.865069051590071"><ele>94.0</ele><time>2026-04-26T06:28:35.999Z</time></trkpt><trkpt lat="44.901700384354136" lon="9.864988932760133"><ele>94.0</ele><time>2026-04-26T06:28:36.999Z</time></trkpt><trkpt lat="44.90164014262308" lon="9.864918571196068"><ele>94.66666666666666</ele><time>2026-04-26T06:28:37.999Z</time></trkpt><trkpt lat="44.90156949137746" lon="9.86486096460091"><ele>95.33333333333333</ele><time>2026-04-26T06:28:38.999Z</time></trkpt><trkpt lat="44.90149913002692" lon="9.864813459366905"><ele>96.0</ele><time>2026-04-26T06:28:39.999Z</time></trkpt><trkpt lat="44.90142662357897" lon="9.864763747276665"><ele>96.66666666666666</ele><time>2026-04-26T06:28:40.999Z</time></trkpt><trkpt lat="44.90135571447721" lon="9.864715526665437"><ele>97.33333333333333</ele><time>2026-04-26T06:28:41.999Z</time></trkpt><trkpt lat="44.90128430206027" lon="9.864667032578941"><ele>98.0</ele><time>2026-04-26T06:28:42.999Z</time></trkpt><trkpt lat="44.90121490502621" lon="9.86461637011234"><ele>97.99999999999999</ele><time>2026-04-26T06:28:43.999Z</time></trkpt><trkpt lat="44.90114858906508" lon="9.864559186599788"><ele>98.0</ele><time>2026-04-26T06:28:44.999Z</time></trkpt><trkpt lat="44.9010815442448" lon="9.864502002355348"><ele>98.0</ele><time>2026-04-26T06:28:45.999Z</time></trkpt><trkpt lat="44.9010157854459" lon="9.864440217375547"><ele>98.0</ele><time>2026-04-26T06:28:46.999Z</time></trkpt><trkpt lat="44.90095035078756" lon="9.864378335589686"><ele>97.99999999999999</ele><time>2026-04-26T06:28:47.999Z</time></trkpt><trkpt lat="44.90088494252837" lon="9.864314511124554"><ele>98.0</ele><time>2026-04-26T06:28:48.999Z</time></trkpt><trkpt lat="44.90082080196168" lon="9.864251941945474"><ele>97.49999999999999</ele><time>2026-04-26T06:28:49.999Z</time></trkpt><trkpt lat="44.90075541910423" lon="9.864189163863468"><ele>97.0</ele><time>2026-04-26T06:28:50.999Z</time></trkpt><trkpt lat="44.90068847077369" lon="9.864128836963188"><ele>96.5</ele><time>2026-04-26T06:28:51.999Z</time></trkpt><trkpt lat="44.90062164564796" lon="9.864070251781929"><ele>96.0</ele><time>2026-04-26T06:28:52.999Z</time></trkpt><trkpt lat="44.90055685035373" lon="9.864008432865667"><ele>95.5</ele><time>2026-04-26T06:28:53.999Z</time></trkpt><trkpt lat="44.90049494541147" lon="9.863944990368028"><ele>95.0</ele><time>2026-04-26T06:28:54.999Z</time></trkpt><trkpt lat="44.900433186721884" lon="9.863878330752305"><ele>95.0</ele><time>2026-04-26T06:28:55.999Z</time></trkpt><trkpt lat="44.90037061368996" lon="9.863813169947557"><ele>95.0</ele><time>2026-04-26T06:28:56.998Z</time></trkpt><trkpt lat="44.90030288473549" lon="9.863753436932866"><ele>95.0</ele><time>2026-04-26T06:28:57.998Z</time></trkpt><trkpt lat="44.90023609947935" lon="9.863693169655958"><ele>95.0</ele><time>2026-04-26T06:28:58.998Z</time></trkpt><trkpt lat="44.90017196485372" lon="9.863630599479748"><ele>95.0</ele><time>2026-04-26T06:28:59.998Z</time></trkpt><trkpt lat="44.90010549822223" lon="9.863567886140126"><ele>95.0</ele><time>2026-04-26T06:29:00.998Z</time></trkpt><trkpt lat="44.900039843741666" lon="9.863505311418352"><ele>95.0</ele><time>2026-04-26T06:29:01.998Z</time></trkpt><trkpt lat="44.899979568071274" lon="9.863436145880412"><ele>95.0</ele><time>2026-04-26T06:29:02.998Z</time></trkpt><trkpt lat="44.89993003572179" lon="9.863349849183692"><ele>95.0</ele><time>2026-04-26T06:29:03.998Z</time></trkpt><trkpt lat="44.89988628591722" lon="9.863256525961026"><ele>95.0</ele><time>2026-04-26T06:29:04.998Z</time></trkpt><trkpt lat="44.89983219092936" lon="9.863174117278483"><ele>95.0</ele><time>2026-04-26T06:29:05.998Z</time></trkpt><trkpt lat="44.89976757629798" lon="9.863105089699252"><ele>95.0</ele><time>2026-04-26T06:29:06.998Z</time></trkpt><trkpt lat="44.899695612703134" lon="9.863050937193263"><ele>95.0</ele><time>2026-04-26T06:29:07.998Z</time></trkpt><trkpt lat="44.89962135980975" lon="9.863003045239743"><ele>95.0</ele><time>2026-04-26T06:29:08.998Z</time></trkpt><trkpt lat="44.89954831246688" lon="9.862959478465738"><ele>95.0</ele><time>2026-04-26T06:29:09.998Z</time></trkpt><trkpt lat="44.89947549351826" lon="9.862914511496166"><ele>95.0</ele><time>2026-04-26T06:29:10.998Z</time></trkpt><trkpt lat="44.899404299629694" lon="9.862871984874888"><ele>95.0</ele><time>2026-04-26T06:29:11.998Z</time></trkpt><trkpt lat="44.89933535644018" lon="9.862822795235488"><ele>95.0</ele><time>2026-04-26T06:29:12.998Z</time></trkpt><trkpt lat="44.89926528750147" lon="9.862774716377393"><ele>95.5</ele><time>2026-04-26T06:29:13.998Z</time></trkpt><trkpt lat="44.899193682342165" lon="9.862728398678694"><ele>96.0</ele><time>2026-04-26T06:29:14.998Z</time></trkpt><trkpt lat="44.89912302691707" lon="9.862685426253114"><ele>96.5</ele><time>2026-04-26T06:29:15.998Z</time></trkpt><trkpt lat="44.899051542116695" lon="9.862638600825111"><ele>97.0</ele><time>2026-04-26T06:29:16.998Z</time></trkpt><trkpt lat="44.89898109160735" lon="9.862592000496365"><ele>97.49999999999999</ele><time>2026-04-26T06:29:17.998Z</time></trkpt><trkpt lat="44.898910891163176" lon="9.862544126234603"><ele>98.0</ele><time>2026-04-26T06:29:18.998Z</time></trkpt><trkpt lat="44.89884220892944" lon="9.862497747848588"><ele>97.99999999999999</ele><time>2026-04-26T06:29:19.998Z</time></trkpt><trkpt lat="44.898772454375354" lon="9.862451559155996"><ele>98.0</ele><time>2026-04-26T06:29:20.998Z</time></trkpt><trkpt lat="44.898702467095696" lon="9.862404165953123"><ele>98.0</ele><time>2026-04-26T06:29:21.998Z</time></trkpt><trkpt lat="44.898633471730925" lon="9.862357776507482"><ele>98.0</ele><time>2026-04-26T06:29:22.998Z</time></trkpt><trkpt lat="44.89856341752322" lon="9.86231356533634"><ele>97.99999999999999</ele><time>2026-04-26T06:29:23.998Z</time></trkpt><trkpt lat="44.89849312486027" lon="9.862274147913778"><ele>98.0</ele><time>2026-04-26T06:29:24.998Z</time></trkpt><trkpt lat="44.89842139146753" lon="9.862240337601582"><ele>98.16666666666666</ele><time>2026-04-26T06:29:25.998Z</time></trkpt><trkpt lat="44.898347744247125" lon="9.862209319386988"><ele>98.33333333333333</ele><time>2026-04-26T06:29:26.998Z</time></trkpt><trkpt lat="44.898273875836125" lon="9.862187810119826"><ele>98.5</ele><time>2026-04-26T06:29:27.998Z</time></trkpt><trkpt lat="44.898198434428316" lon="9.862171785510615"><ele>98.66666666666666</ele><time>2026-04-26T06:29:28.998Z</time></trkpt><trkpt lat="44.898121701640484" lon="9.862158889368883"><ele>98.83333333333333</ele><time>2026-04-26T06:29:29.998Z</time></trkpt><trkpt lat="44.8980481144727" lon="9.86215108278655"><ele>99.0</ele><time>2026-04-26T06:29:30.998Z</time></trkpt><trkpt lat="44.89797429941677" lon="9.862140528259527"><ele>99.0</ele><time>2026-04-26T06:29:31.998Z</time></trkpt><trkpt lat="44.8979013120319" lon="9.8621254517828"><ele>99.0</ele><time>2026-04-26T06:29:32.998Z</time></trkpt><trkpt lat="44.89782936818681" lon="9.862102956168497"><ele>99.0</ele><time>2026-04-26T06:29:33.998Z</time></trkpt><trkpt lat="44.89776204369849" lon="9.86206702425958"><ele>99.0</ele><time>2026-04-26T06:29:34.998Z</time></trkpt><trkpt lat="44.89770435525282" lon="9.862001255727318"><ele>99.0</ele><time>2026-04-26T06:29:35.998Z</time></trkpt><trkpt lat="44.89767208876327" lon="9.86190371908907"><ele>99.0</ele><time>2026-04-26T06:29:36.998Z</time></trkpt><trkpt lat="44.89766837506329" lon="9.861789366052683"><ele>98.66666666666667</ele><time>2026-04-26T06:29:37.998Z</time></trkpt><trkpt lat="44.89767632543808" lon="9.861676828309594"><ele>98.33333333333334</ele><time>2026-04-26T06:29:38.998Z</time></trkpt><trkpt lat="44.897684562354556" lon="9.861572592472644"><ele>98.0</ele><time>2026-04-26T06:29:39.998Z</time></trkpt><trkpt lat="44.89768944215792" lon="9.861468387225544"><ele>97.66666666666667</ele><time>2026-04-26T06:29:40.998Z</time></trkpt><trkpt lat="44.89768898625023" lon="9.86136328357618"><ele>97.33333333333334</ele><time>2026-04-26T06:29:41.998Z</time></trkpt><trkpt lat="44.89767328341998" lon="9.861260437919167"><ele>97.0</ele><time>2026-04-26T06:29:42.998Z</time></trkpt><trkpt lat="44.89763671386668" lon="9.861163465751407"><ele>97.50000000000001</ele><time>2026-04-26T06:29:43.998Z</time></trkpt><trkpt lat="44.89758356891639" lon="9.86108322877591"><ele>98.0</ele><time>2026-04-26T06:29:44.998Z</time></trkpt><trkpt lat="44.897515850109315" lon="9.861030446927389"><ele>98.5</ele><time>2026-04-26T06:29:45.998Z</time></trkpt><trkpt lat="44.897443114230306" lon="9.860996024430122"><ele>99.0</ele><time>2026-04-26T06:29:46.998Z</time></trkpt><trkpt lat="44.89737134450646" lon="9.860965181062756"><ele>99.50000000000001</ele><time>2026-04-26T06:29:47.998Z</time></trkpt><trkpt lat="44.897300080283216" lon="9.86093482836159"><ele>100.0</ele><time>2026-04-26T06:29:48.998Z</time></trkpt><trkpt lat="44.89722871173904" lon="9.860905739701268"><ele>100.00000000000001</ele><time>2026-04-26T06:29:49.998Z</time></trkpt><trkpt lat="44.897159325074746" lon="9.860870142151756"><ele>100.0</ele><time>2026-04-26T06:29:51Z</time></trkpt><trkpt lat="44.89708871648314" lon="9.860839741162637"><ele>100.0</ele><time>2026-04-26T06:29:52Z</time></trkpt><trkpt lat="44.89701965235719" lon="9.860806076423849"><ele>100.0</ele><time>2026-04-26T06:29:53Z</time></trkpt><trkpt lat="44.89695028185851" lon="9.860776947262998"><ele>100.0</ele><time>2026-04-26T06:29:54Z</time></trkpt><trkpt lat="44.89688091077805" lon="9.860744772083526"><ele>100.00000000000001</ele><time>2026-04-26T06:29:55Z</time></trkpt><trkpt lat="44.89681225694711" lon="9.860717346266274"><ele>100.0</ele><time>2026-04-26T06:29:56Z</time></trkpt><trkpt lat="44.89674448344244" lon="9.860692231919419"><ele>100.28571428571429</ele><time>2026-04-26T06:29:57Z</time></trkpt><trkpt lat="44.896674607688134" lon="9.86066619378783"><ele>100.57142857142857</ele><time>2026-04-26T06:29:58Z</time></trkpt><trkpt lat="44.89660746484294" lon="9.860634588859387"><ele>100.85714285714286</ele><time>2026-04-26T06:29:59Z</time></trkpt><trkpt lat="44.896537306479246" lon="9.860601042444983"><ele>101.14285714285714</ele><time>2026-04-26T06:30:00Z</time></trkpt><trkpt lat="44.896469051275304" lon="9.860570098796689"><ele>101.42857142857143</ele><time>2026-04-26T06:30:01Z</time></trkpt><trkpt lat="44.896400602541675" lon="9.860542661928381"><ele>101.71428571428572</ele><time>2026-04-26T06:30:02Z</time></trkpt><trkpt lat="44.896330239159184" lon="9.8605125925635"><ele>102.0</ele><time>2026-04-26T06:30:03Z</time></trkpt><trkpt lat="44.8962601376969" lon="9.860485652592198"><ele>102.0</ele><time>2026-04-26T06:30:04Z</time></trkpt><trkpt lat="44.89618926049358" lon="9.860457047018047"><ele>102.0</ele><time>2026-04-26T06:30:05Z</time></trkpt><trkpt lat="44.89612108784346" lon="9.860420702780504"><ele>102.0</ele><time>2026-04-26T06:30:06Z</time></trkpt><trkpt lat="44.89605032736981" lon="9.860384917609865"><ele>102.0</ele><time>2026-04-26T06:30:06.999Z</time></trkpt><trkpt lat="44.89597686799031" lon="9.86035383982121"><ele>102.0</ele><time>2026-04-26T06:30:07.999Z</time></trkpt><trkpt lat="44.895906267980074" lon="9.860325268144727"><ele>102.0</ele><time>2026-04-26T06:30:08.999Z</time></trkpt><trkpt lat="44.89583752364006" lon="9.860293077392047"><ele>102.0</ele><time>2026-04-26T06:30:09.999Z</time></trkpt><trkpt lat="44.895768292033345" lon="9.86026318197377"><ele>102.0</ele><time>2026-04-26T06:30:10.999Z</time></trkpt><trkpt lat="44.895699291361666" lon="9.860229885062177"><ele>102.0</ele><time>2026-04-26T06:30:11.999Z</time></trkpt><trkpt lat="44.89562975205447" lon="9.860199433717417"><ele>102.0</ele><time>2026-04-26T06:30:12.999Z</time></trkpt><trkpt lat="44.89556041890749" lon="9.860170648931184"><ele>102.0</ele><time>2026-04-26T06:30:13.999Z</time></trkpt><trkpt lat="44.895491324034296" lon="9.860140253853768"><ele>102.0</ele><time>2026-04-26T06:30:14.999Z</time></trkpt><trkpt lat="44.89542286392551" lon="9.860108973621054"><ele>102.0</ele><time>2026-04-26T06:30:15.999Z</time></trkpt><trkpt lat="44.89535541761246" lon="9.860077412086175"><ele>102.0</ele><time>2026-04-26T06:30:16.999Z</time></trkpt><trkpt lat="44.89528676618917" lon="9.860045702298615"><ele>102.0</ele><time>2026-04-26T06:30:17.999Z</time></trkpt><trkpt lat="44.8952189856201" lon="9.860016780811769"><ele>102.0</ele><time>2026-04-26T06:30:18.999Z</time></trkpt><trkpt lat="44.89515070046856" lon="9.859986540146934"><ele>102.0</ele><time>2026-04-26T06:30:19.999Z</time></trkpt><trkpt lat="44.89508427288438" lon="9.859958566480568"><ele>102.0</ele><time>2026-04-26T06:30:20.999Z</time></trkpt><trkpt lat="44.895015311729985" lon="9.859929487283216"><ele>102.0</ele><time>2026-04-26T06:30:21.999Z</time></trkpt><trkpt lat="44.89494826934475" lon="9.859903879717363"><ele>102.0</ele><time>2026-04-26T06:30:22.999Z</time></trkpt><trkpt lat="44.89488140161319" lon="9.85987404480764"><ele>102.0</ele><time>2026-04-26T06:30:23.999Z</time></trkpt><trkpt lat="44.89481707388542" lon="9.859837874299712"><ele>102.0</ele><time>2026-04-26T06:30:24.999Z</time></trkpt><trkpt lat="44.89475814679674" lon="9.859787928614224"><ele>102.0</ele><time>2026-04-26T06:30:25.999Z</time></trkpt><trkpt lat="44.8947151205492" lon="9.859712948582876"><ele>102.0</ele><time>2026-04-26T06:30:26.999Z</time></trkpt><trkpt lat="44.894685802881156" lon="9.85962000171705"><ele>102.0</ele><time>2026-04-26T06:30:27.999Z</time></trkpt><trkpt lat="44.89466919955984" lon="9.85952363705505"><ele>102.0</ele><time>2026-04-26T06:30:28.999Z</time></trkpt><trkpt lat="44.89466572383249" lon="9.859424803563"><ele>102.0</ele><time>2026-04-26T06:30:29.999Z</time></trkpt><trkpt lat="44.894668084478084" lon="9.859327207543515"><ele>102.0</ele><time>2026-04-26T06:30:30.999Z</time></trkpt><trkpt lat="44.894668494472256" lon="9.859229892201176"><ele>102.28571428571429</ele><time>2026-04-26T06:30:31.999Z</time></trkpt><trkpt lat="44.89466625567624" lon="9.859128306126168"><ele>102.57142857142858</ele><time>2026-04-26T06:30:32.999Z</time></trkpt><trkpt lat="44.89465951359505" lon="9.859030687048879"><ele>102.85714285714286</ele><time>2026-04-26T06:30:33.999Z</time></trkpt><trkpt lat="44.89465559384654" lon="9.858933297860245"><ele>103.14285714285714</ele><time>2026-04-26T06:30:34.999Z</time></trkpt><trkpt lat="44.8946520217843" lon="9.858837058296976"><ele>103.42857142857143</ele><time>2026-04-26T06:30:35.999Z</time></trkpt><trkpt lat="44.89464996308906" lon="9.858741583243162"><ele>103.71428571428571</ele><time>2026-04-26T06:30:36.999Z</time></trkpt><trkpt lat="44.89464640927954" lon="9.858644743575745"><ele>104.0</ele><time>2026-04-26T06:30:37.999Z</time></trkpt><trkpt lat="44.89464311750336" lon="9.858549107408138"><ele>104.0</ele><time>2026-04-26T06:30:38.999Z</time></trkpt><trkpt lat="44.894637676648934" lon="9.858456141626704"><ele>104.0</ele><time>2026-04-26T06:30:39.999Z</time></trkpt><trkpt lat="44.894630420330174" lon="9.85836127551606"><ele>104.0</ele><time>2026-04-26T06:30:40.999Z</time></trkpt><trkpt lat="44.89462487186514" lon="9.858268723890179"><ele>104.0</ele><time>2026-04-26T06:30:41.999Z</time></trkpt><trkpt lat="44.89462379058341" lon="9.858176067473988"><ele>104.0</ele><time>2026-04-26T06:30:42.999Z</time></trkpt><trkpt lat="44.89462123282995" lon="9.858081111913737"><ele>104.0</ele><time>2026-04-26T06:30:43.999Z</time></trkpt><trkpt lat="44.894618032201954" lon="9.857988018943965"><ele>104.0</ele><time>2026-04-26T06:30:44.999Z</time></trkpt><trkpt lat="44.894616001930856" lon="9.857893803015262"><ele>104.57142857142857</ele><time>2026-04-26T06:30:45.999Z</time></trkpt><trkpt lat="44.89461229049619" lon="9.857798841478207"><ele>105.14285714285715</ele><time>2026-04-26T06:30:46.999Z</time></trkpt><trkpt lat="44.89461248947169" lon="9.857705078585157"><ele>105.71428571428572</ele><time>2026-04-26T06:30:47.999Z</time></trkpt><trkpt lat="44.894616124579585" lon="9.857610852860676"><ele>106.28571428571428</ele><time>2026-04-26T06:30:48.999Z</time></trkpt><trkpt lat="44.89461553903387" lon="9.857517393781228"><ele>106.85714285714286</ele><time>2026-04-26T06:30:49.999Z</time></trkpt><trkpt lat="44.89461207358501" lon="9.857424476360816"><ele>107.42857142857143</ele><time>2026-04-26T06:30:50.999Z</time></trkpt><trkpt lat="44.89460846323829" lon="9.857332672724079"><ele>108.0</ele><time>2026-04-26T06:30:51.999Z</time></trkpt><trkpt lat="44.89460588869713" lon="9.857238265121106"><ele>108.14285714285714</ele><time>2026-04-26T06:30:52.999Z</time></trkpt><trkpt lat="44.89460407951149" lon="9.857145426142214"><ele>108.28571428571428</ele><time>2026-04-26T06:30:53.999Z</time></trkpt><trkpt lat="44.89460262568768" lon="9.857053234403791"><ele>108.42857142857143</ele><time>2026-04-26T06:30:54.999Z</time></trkpt><trkpt lat="44.89459516608648" lon="9.856959228475992"><ele>108.57142857142857</ele><time>2026-04-26T06:30:55.999Z</time></trkpt><trkpt lat="44.89458418605855" lon="9.856868503051471"><ele>108.71428571428572</ele><time>2026-04-26T06:30:56.999Z</time></trkpt><trkpt lat="44.89455461189991" lon="9.856788072161955"><ele>108.85714285714286</ele><time>2026-04-26T06:30:57.999Z</time></trkpt><trkpt lat="44.89450026279431" lon="9.85672690574926"><ele>109.0</ele><time>2026-04-26T06:30:58.999Z</time></trkpt><trkpt lat="44.894432548743985" lon="9.85668920341886"><ele>109.42857142857143</ele><time>2026-04-26T06:30:59.999Z</time></trkpt><trkpt lat="44.89436588839078" lon="9.856665321748496"><ele>109.85714285714286</ele><time>2026-04-26T06:31:00.998Z</time></trkpt><trkpt lat="44.894303607652404" lon="9.85663691073515"><ele>110.28571428571428</ele><time>2026-04-26T06:31:01.998Z</time></trkpt><trkpt lat="44.894242054943724" lon="9.856605718203687"><ele>110.71428571428572</ele><time>2026-04-26T06:31:02.998Z</time></trkpt><trkpt lat="44.894182319551945" lon="9.856572413805736"><ele>111.14285714285714</ele><time>2026-04-26T06:31:03.998Z</time></trkpt><trkpt lat="44.89412163871711" lon="9.856542723911678"><ele>111.57142857142857</ele><time>2026-04-26T06:31:04.998Z</time></trkpt><trkpt lat="44.89406166334149" lon="9.856514278242773"><ele>112.0</ele><time>2026-04-26T06:31:05.998Z</time></trkpt><trkpt lat="44.89400337971715" lon="9.85647185896079"><ele>112.0</ele><time>2026-04-26T06:31:06.998Z</time></trkpt><trkpt lat="44.89395737772704" lon="9.856410487431425"><ele>112.0</ele><time>2026-04-26T06:31:07.998Z</time></trkpt><trkpt lat="44.89393441322701" lon="9.85631914399903"><ele>112.0</ele><time>2026-04-26T06:31:08.998Z</time></trkpt><trkpt lat="44.89394352587242" lon="9.856214286249712"><ele>112.0</ele><time>2026-04-26T06:31:09.998Z</time></trkpt><trkpt lat="44.89396820723822" lon="9.856114765725021"><ele>112.0</ele><time>2026-04-26T06:31:10.998Z</time></trkpt><trkpt lat="44.89398607194823" lon="9.856016857455083"><ele>112.0</ele><time>2026-04-26T06:31:11.998Z</time></trkpt><trkpt lat="44.893998442764044" lon="9.855914638862647"><ele>112.0</ele><time>2026-04-26T06:31:12.998Z</time></trkpt><trkpt lat="44.89401014801419" lon="9.855815701659564"><ele>112.0</ele><time>2026-04-26T06:31:13.998Z</time></trkpt><trkpt lat="44.89402056021625" lon="9.855712894859959"><ele>112.0</ele><time>2026-04-26T06:31:14.998Z</time></trkpt><trkpt lat="44.89403107348597" lon="9.855612978512989"><ele>112.0</ele><time>2026-04-26T06:31:15.998Z</time></trkpt><trkpt lat="44.89404239757625" lon="9.855513253117145"><ele>112.0</ele><time>2026-04-26T06:31:16.998Z</time></trkpt><trkpt lat="44.89405474521897" lon="9.855414971764173"><ele>112.0</ele><time>2026-04-26T06:31:17.998Z</time></trkpt><trkpt lat="44.89406808258162" lon="9.85531270285714"><ele>112.0</ele><time>2026-04-26T06:31:18.998Z</time></trkpt><trkpt lat="44.89408278276091" lon="9.855205776833184"><ele>112.0</ele><time>2026-04-26T06:31:19.998Z</time></trkpt><trkpt lat="44.894094852602215" lon="9.855097167424756"><ele>112.00000000000001</ele><time>2026-04-26T06:31:20.998Z</time></trkpt><trkpt lat="44.89410629326643" lon="9.854986164789393"><ele>112.0</ele><time>2026-04-26T06:31:21.998Z</time></trkpt><trkpt lat="44.894115177461856" lon="9.854872521968913"><ele>112.0</ele><time>2026-04-26T06:31:22.998Z</time></trkpt><trkpt lat="44.89412501142213" lon="9.854760703265423"><ele>112.0</ele><time>2026-04-26T06:31:23.998Z</time></trkpt><trkpt lat="44.89413913403797" lon="9.85464687706179"><ele>112.00000000000001</ele><time>2026-04-26T06:31:24.998Z</time></trkpt><trkpt lat="44.89415122341749" lon="9.854532767841109"><ele>112.0</ele><time>2026-04-26T06:31:25.998Z</time></trkpt><trkpt lat="44.89416466400201" lon="9.854419533876525"><ele>112.00000000000001</ele><time>2026-04-26T06:31:26.998Z</time></trkpt><trkpt lat="44.89417758895117" lon="9.854304664908138"><ele>112.0</ele><time>2026-04-26T06:31:27.998Z</time></trkpt><trkpt lat="44.8941917481754" lon="9.854190271094415"><ele>112.0</ele><time>2026-04-26T06:31:28.998Z</time></trkpt><trkpt lat="44.89420542429532" lon="9.854076222528972"><ele>112.0</ele><time>2026-04-26T06:31:29.998Z</time></trkpt><trkpt lat="44.894219387990425" lon="9.853962135504679"><ele>112.00000000000001</ele><time>2026-04-26T06:31:30.998Z</time></trkpt><trkpt lat="44.89423051934784" lon="9.85384874454356"><ele>112.0</ele><time>2026-04-26T06:31:31.998Z</time></trkpt><trkpt lat="44.89424367450765" lon="9.853734299007892"><ele>111.50000000000001</ele><time>2026-04-26T06:31:32.998Z</time></trkpt><trkpt lat="44.89425702562221" lon="9.853618700580084"><ele>111.0</ele><time>2026-04-26T06:31:33.998Z</time></trkpt><trkpt lat="44.894271133409035" lon="9.853501116645763"><ele>110.5</ele><time>2026-04-26T06:31:34.998Z</time></trkpt><trkpt lat="44.89428508893947" lon="9.853385625810779"><ele>110.0</ele><time>2026-04-26T06:31:35.998Z</time></trkpt><trkpt lat="44.89429771265936" lon="9.853269411949476"><ele>109.50000000000001</ele><time>2026-04-26T06:31:36.998Z</time></trkpt><trkpt lat="44.89431308198528" lon="9.853152384508295"><ele>109.0</ele><time>2026-04-26T06:31:37.998Z</time></trkpt><trkpt lat="44.89432677415284" lon="9.853037866662934"><ele>109.16666666666667</ele><time>2026-04-26T06:31:38.998Z</time></trkpt><trkpt lat="44.894337547807" lon="9.852923651145284"><ele>109.33333333333334</ele><time>2026-04-26T06:31:39.998Z</time></trkpt><trkpt lat="44.89435036089738" lon="9.852811676261142"><ele>109.5</ele><time>2026-04-26T06:31:40.998Z</time></trkpt><trkpt lat="44.89436131487013" lon="9.85270226156165"><ele>109.66666666666666</ele><time>2026-04-26T06:31:41.998Z</time></trkpt><trkpt lat="44.89437581382005" lon="9.852595612963324"><ele>109.83333333333333</ele><time>2026-04-26T06:31:42.998Z</time></trkpt><trkpt lat="44.89439218904739" lon="9.852488813691142"><ele>110.0</ele><time>2026-04-26T06:31:43.998Z</time></trkpt><trkpt lat="44.89440670668525" lon="9.852379490231183"><ele>109.99999999999999</ele><time>2026-04-26T06:31:44.998Z</time></trkpt><trkpt lat="44.89441812802221" lon="9.852271837503935"><ele>110.0</ele><time>2026-04-26T06:31:45.998Z</time></trkpt><trkpt lat="44.894430679044596" lon="9.852165085380866"><ele>110.0</ele><time>2026-04-26T06:31:46.998Z</time></trkpt><trkpt lat="44.89444456441026" lon="9.85205704979445"><ele>110.0</ele><time>2026-04-26T06:31:47.998Z</time></trkpt><trkpt lat="44.8944605244528" lon="9.8519509134907"><ele>109.99999999999999</ele><time>2026-04-26T06:31:48.998Z</time></trkpt><trkpt lat="44.89447496268021" lon="9.85184558581191"><ele>110.0</ele><time>2026-04-26T06:31:49.998Z</time></trkpt><trkpt lat="44.89448664354589" lon="9.851738698881537"><ele>110.33333333333333</ele><time>2026-04-26T06:31:50.998Z</time></trkpt><trkpt lat="44.89449894558393" lon="9.851631885355772"><ele>110.66666666666666</ele><time>2026-04-26T06:31:51.998Z</time></trkpt><trkpt lat="44.894511097269664" lon="9.851526235889411"><ele>111.0</ele><time>2026-04-26T06:31:52.998Z</time></trkpt><trkpt lat="44.89452331780134" lon="9.851421636693608"><ele>111.33333333333334</ele><time>2026-04-26T06:31:53.998Z</time></trkpt><trkpt lat="44.89453479591478" lon="9.851316167058881"><ele>111.66666666666667</ele><time>2026-04-26T06:31:54.997Z</time></trkpt><trkpt lat="44.894542480380075" lon="9.85121025149527"><ele>112.0</ele><time>2026-04-26T06:31:55.997Z</time></trkpt><trkpt lat="44.89454435422101" lon="9.851105035086896"><ele>112.00000000000001</ele><time>2026-04-26T06:31:57Z</time></trkpt><trkpt lat="44.89452625094326" lon="9.850999850819326"><ele>112.0</ele><time>2026-04-26T06:31:58Z</time></trkpt><trkpt lat="44.89448521682661" lon="9.850905566664812"><ele>112.0</ele><time>2026-04-26T06:31:59Z</time></trkpt><trkpt lat="44.8944187529406" lon="9.850833381422444"><ele>112.0</ele><time>2026-04-26T06:32:00Z</time></trkpt><trkpt lat="44.89433859106309" lon="9.850795904510662"><ele>112.00000000000001</ele><time>2026-04-26T06:32:01Z</time></trkpt><trkpt lat="44.89425772728842" lon="9.850786229910858"><ele>112.0</ele><time>2026-04-26T06:32:02Z</time></trkpt><trkpt lat="44.894179188833704" lon="9.850775347649089"><ele>112.16666666666667</ele><time>2026-04-26T06:32:03Z</time></trkpt><trkpt lat="44.89410195048177" lon="9.850772979765058"><ele>112.33333333333334</ele><time>2026-04-26T06:32:04Z</time></trkpt><trkpt lat="44.89402663779303" lon="9.850769244468735"><ele>112.5</ele><time>2026-04-26T06:32:05Z</time></trkpt><trkpt lat="44.893951927311704" lon="9.850761741584458"><ele>112.66666666666666</ele><time>2026-04-26T06:32:06Z</time></trkpt><trkpt lat="44.89387801206114" lon="9.850751709412773"><ele>112.83333333333333</ele><time>2026-04-26T06:32:07Z</time></trkpt><trkpt lat="44.8938037810848" lon="9.850743819925386"><ele>113.0</ele><time>2026-04-26T06:32:08Z</time></trkpt><trkpt lat="44.89373056946383" lon="9.850737301877919"><ele>112.99999999999999</ele><time>2026-04-26T06:32:09Z</time></trkpt><trkpt lat="44.8936584751653" lon="9.85073013350609"><ele>113.0</ele><time>2026-04-26T06:32:10Z</time></trkpt><trkpt lat="44.89358337158854" lon="9.850723475646424"><ele>113.0</ele><time>2026-04-26T06:32:11Z</time></trkpt><trkpt lat="44.89351207660683" lon="9.850708310410505"><ele>113.0</ele><time>2026-04-26T06:32:11.999Z</time></trkpt><trkpt lat="44.89345324154885" lon="9.850641717451634"><ele>112.99999999999999</ele><time>2026-04-26T06:32:12.999Z</time></trkpt><trkpt lat="44.89342471730336" lon="9.85053139974469"><ele>113.0</ele><time>2026-04-26T06:32:13.999Z</time></trkpt><trkpt lat="44.89346211454681" lon="9.850408541691735"><ele>112.99999999999999</ele><time>2026-04-26T06:32:14.999Z</time></trkpt><trkpt lat="44.89346330375274" lon="9.850287331715666"><ele>113.0</ele><time>2026-04-26T06:32:15.999Z</time></trkpt><trkpt lat="44.893484904454034" lon="9.850170593291313"><ele>113.0</ele><time>2026-04-26T06:32:16.999Z</time></trkpt><trkpt lat="44.89349524885923" lon="9.850057248950927"><ele>113.0</ele><time>2026-04-26T06:32:17.999Z</time></trkpt><trkpt lat="44.893502997312524" lon="9.849943365760694"><ele>112.99999999999999</ele><time>2026-04-26T06:32:18.999Z</time></trkpt><trkpt lat="44.89351655550748" lon="9.849835082226699"><ele>113.0</ele><time>2026-04-26T06:32:19.999Z</time></trkpt><trkpt lat="44.893519997552914" lon="9.84971701877307"><ele>112.66666666666666</ele><time>2026-04-26T06:32:20.999Z</time></trkpt><trkpt lat="44.89352670927894" lon="9.849600421165103"><ele>112.33333333333333</ele><time>2026-04-26T06:32:21.999Z</time></trkpt><trkpt lat="44.89353847972945" lon="9.849488244418124"><ele>112.0</ele><time>2026-04-26T06:32:22.999Z</time></trkpt><trkpt lat="44.89354655957891" lon="9.849376531471554"><ele>111.66666666666666</ele><time>2026-04-26T06:32:23.999Z</time></trkpt><trkpt lat="44.89355678256109" lon="9.849266174317844"><ele>111.33333333333333</ele><time>2026-04-26T06:32:24.999Z</time></trkpt><trkpt lat="44.893564787032815" lon="9.849157475314078"><ele>111.0</ele><time>2026-04-26T06:32:25.999Z</time></trkpt><trkpt lat="44.89357337433557" lon="9.849051411426993"><ele>110.5</ele><time>2026-04-26T06:32:26.999Z</time></trkpt><trkpt lat="44.893583502048905" lon="9.848942262704576"><ele>110.0</ele><time>2026-04-26T06:32:27.999Z</time></trkpt><trkpt lat="44.89359357444265" lon="9.84883026022468"><ele>109.5</ele><time>2026-04-26T06:32:28.999Z</time></trkpt><trkpt lat="44.893602887327795" lon="9.848717047212308"><ele>109.0</ele><time>2026-04-26T06:32:29.999Z</time></trkpt><trkpt lat="44.89361364449122" lon="9.848607821099067"><ele>108.5</ele><time>2026-04-26T06:32:30.999Z</time></trkpt><trkpt lat="44.89362541826248" lon="9.84849778158352"><ele>108.0</ele><time>2026-04-26T06:32:31.999Z</time></trkpt><trkpt lat="44.89363570365652" lon="9.848389518285819"><ele>107.83333333333333</ele><time>2026-04-26T06:32:32.999Z</time></trkpt><trkpt lat="44.89364616970665" lon="9.848280717060492"><ele>107.66666666666666</ele><time>2026-04-26T06:32:33.999Z</time></trkpt><trkpt lat="44.89365787390678" lon="9.848173222417204"><ele>107.5</ele><time>2026-04-26T06:32:34.999Z</time></trkpt><trkpt lat="44.893663580597284" lon="9.84806570506738"><ele>107.33333333333333</ele><time>2026-04-26T06:32:35.999Z</time></trkpt><trkpt lat="44.89366817010857" lon="9.847958778795164"><ele>107.16666666666666</ele><time>2026-04-26T06:32:36.999Z</time></trkpt><trkpt lat="44.89366536670112" lon="9.847853136106707"><ele>107.0</ele><time>2026-04-26T06:32:37.999Z</time></trkpt><trkpt lat="44.89364311885314" lon="9.847749344124516"><ele>106.99999999999999</ele><time>2026-04-26T06:32:38.999Z</time></trkpt><trkpt lat="44.89360941033319" lon="9.847654404593357"><ele>107.0</ele><time>2026-04-26T06:32:39.999Z</time></trkpt><trkpt lat="44.89357284067249" lon="9.847565218345256"><ele>107.0</ele><time>2026-04-26T06:32:40.999Z</time></trkpt><trkpt lat="44.89354053535815" lon="9.847470910543258"><ele>107.0</ele><time>2026-04-26T06:32:41.999Z</time></trkpt><trkpt lat="44.89351088449141" lon="9.847369695847808"><ele>106.99999999999999</ele><time>2026-04-26T06:32:42.999Z</time></trkpt><trkpt lat="44.89349212501535" lon="9.847269849260565"><ele>107.0</ele><time>2026-04-26T06:32:43.999Z</time></trkpt><trkpt lat="44.893490313057626" lon="9.847160325001116"><ele>107.33333333333333</ele><time>2026-04-26T06:32:44.999Z</time></trkpt><trkpt lat="44.89350057584828" lon="9.847052853012555"><ele>107.66666666666666</ele><time>2026-04-26T06:32:45.999Z</time></trkpt><trkpt lat="44.89351575718527" lon="9.846950401691291"><ele>108.0</ele><time>2026-04-26T06:32:46.999Z</time></trkpt><trkpt lat="44.89353040566479" lon="9.846848287449811"><ele>108.33333333333334</ele><time>2026-04-26T06:32:47.999Z</time></trkpt><trkpt lat="44.89354541581994" lon="9.846739635616746"><ele>108.66666666666667</ele><time>2026-04-26T06:32:48.999Z</time></trkpt><trkpt lat="44.893563991546856" lon="9.846636186347766"><ele>109.0</ele><time>2026-04-26T06:32:49.999Z</time></trkpt><trkpt lat="44.893584401889875" lon="9.84653335105665"><ele>109.66666666666667</ele><time>2026-04-26T06:32:50.999Z</time></trkpt><trkpt lat="44.89360416215737" lon="9.846430128165078"><ele>110.33333333333334</ele><time>2026-04-26T06:32:51.999Z</time></trkpt><trkpt lat="44.893626908739265" lon="9.846326604858834"><ele>111.0</ele><time>2026-04-26T06:32:52.999Z</time></trkpt><trkpt lat="44.89365092698387" lon="9.84622520466543"><ele>111.66666666666666</ele><time>2026-04-26T06:32:53.999Z</time></trkpt><trkpt lat="44.89367737925768" lon="9.846124611881532"><ele>112.33333333333333</ele><time>2026-04-26T06:32:54.999Z</time></trkpt><trkpt lat="44.89370511912603" lon="9.846024255516562"><ele>113.0</ele><time>2026-04-26T06:32:55.999Z</time></trkpt><trkpt lat="44.893735498889946" lon="9.845925401942893"><ele>112.99999999999999</ele><time>2026-04-26T06:32:56.999Z</time></trkpt><trkpt lat="44.8937646847987" lon="9.845827590597263"><ele>113.0</ele><time>2026-04-26T06:32:57.999Z</time></trkpt><trkpt lat="44.89379387508239" lon="9.845730228685506"><ele>113.0</ele><time>2026-04-26T06:32:58.999Z</time></trkpt><trkpt lat="44.89382216727545" lon="9.845631128896832"><ele>113.0</ele><time>2026-04-26T06:32:59.999Z</time></trkpt><trkpt lat="44.89385194720954" lon="9.845532656636983"><ele>112.99999999999999</ele><time>2026-04-26T06:33:00.999Z</time></trkpt><trkpt lat="44.893882682860415" lon="9.845434933328798"><ele>113.0</ele><time>2026-04-26T06:33:01.999Z</time></trkpt><trkpt lat="44.89390412618064" lon="9.84533566916301"><ele>112.99999999999999</ele><time>2026-04-26T06:33:02.999Z</time></trkpt><trkpt lat="44.89390926288163" lon="9.84523223288815"><ele>113.0</ele><time>2026-04-26T06:33:03.999Z</time></trkpt><trkpt lat="44.89388473011389" lon="9.84512438656471"><ele>113.0</ele><time>2026-04-26T06:33:04.999Z</time></trkpt><trkpt lat="44.893852970123326" lon="9.845020405523044"><ele>113.0</ele><time>2026-04-26T06:33:05.998Z</time></trkpt><trkpt lat="44.893752713507816" lon="9.844999340346277"><ele>112.99999999999999</ele><time>2026-04-26T06:33:06.998Z</time></trkpt><trkpt lat="44.893672427941375" lon="9.845000682194366"><ele>113.0</ele><time>2026-04-26T06:33:07.998Z</time></trkpt><trkpt lat="44.893594584216714" lon="9.845005714528103"><ele>112.99999999999999</ele><time>2026-04-26T06:33:08.998Z</time></trkpt><trkpt lat="44.893517897957686" lon="9.84500135024889"><ele>113.0</ele><time>2026-04-26T06:33:09.998Z</time></trkpt><trkpt lat="44.893440559938874" lon="9.844993721211061"><ele>113.0</ele><time>2026-04-26T06:33:10.998Z</time></trkpt><trkpt lat="44.89336280999946" lon="9.844990437305716"><ele>113.0</ele><time>2026-04-26T06:33:11.998Z</time></trkpt><trkpt lat="44.893284611713895" lon="9.84498689185383"><ele>112.99999999999999</ele><time>2026-04-26T06:33:12.998Z</time></trkpt><trkpt lat="44.89320678030212" lon="9.84498169253892"><ele>113.0</ele><time>2026-04-26T06:33:13.998Z</time></trkpt><trkpt lat="44.89313030733849" lon="9.84497802799678"><ele>113.14285714285714</ele><time>2026-04-26T06:33:14.998Z</time></trkpt><trkpt lat="44.89305410288707" lon="9.844978583727276"><ele>113.28571428571428</ele><time>2026-04-26T06:33:15.998Z</time></trkpt><trkpt lat="44.89297874864832" lon="9.844982265471483"><ele>113.42857142857142</ele><time>2026-04-26T06:33:16.998Z</time></trkpt><trkpt lat="44.892903449849456" lon="9.844985644269208"><ele>113.57142857142857</ele><time>2026-04-26T06:33:17.998Z</time></trkpt><trkpt lat="44.89282899754484" lon="9.844992760837314"><ele>113.7142857142857</ele><time>2026-04-26T06:33:18.998Z</time></trkpt><trkpt lat="44.892754510347245" lon="9.84500182175485"><ele>113.85714285714285</ele><time>2026-04-26T06:33:19.998Z</time></trkpt><trkpt lat="44.892682037997055" lon="9.845013230486384"><ele>114.0</ele><time>2026-04-26T06:33:20.998Z</time></trkpt><trkpt lat="44.892608872756334" lon="9.845021297361761"><ele>114.14285714285714</ele><time>2026-04-26T06:33:21.998Z</time></trkpt><trkpt lat="44.89253513679269" lon="9.845029332714551"><ele>114.28571428571428</ele><time>2026-04-26T06:33:22.998Z</time></trkpt><trkpt lat="44.89246123506147" lon="9.845038910426949"><ele>114.42857142857142</ele><time>2026-04-26T06:33:23.998Z</time></trkpt><trkpt lat="44.89239037414763" lon="9.84505518646369"><ele>114.57142857142856</ele><time>2026-04-26T06:33:24.998Z</time></trkpt><trkpt lat="44.89231847926763" lon="9.845072705058772"><ele>114.71428571428571</ele><time>2026-04-26T06:33:25.998Z</time></trkpt><trkpt lat="44.892246354059694" lon="9.845089437002047"><ele>114.85714285714283</ele><time>2026-04-26T06:33:26.998Z</time></trkpt><trkpt lat="44.89217476068098" lon="9.84510762897034"><ele>114.99999999999999</ele><time>2026-04-26T06:33:27.998Z</time></trkpt><trkpt lat="44.89210258560684" lon="9.845126655595722"><ele>114.99999999999999</ele><time>2026-04-26T06:33:28.998Z</time></trkpt><trkpt lat="44.8920303603925" lon="9.845150768632855"><ele>115.0</ele><time>2026-04-26T06:33:29.998Z</time></trkpt><trkpt lat="44.89195971980358" lon="9.845177664700472"><ele>114.99999999999999</ele><time>2026-04-26T06:33:30.998Z</time></trkpt><trkpt lat="44.891888365598284" lon="9.845204215329879"><ele>114.99999999999999</ele><time>2026-04-26T06:33:31.998Z</time></trkpt><trkpt lat="44.89181633576485" lon="9.845230475332942"><ele>115.0</ele><time>2026-04-26T06:33:32.998Z</time></trkpt><trkpt lat="44.89174417552315" lon="9.845259392384692"><ele>114.99999999999999</ele><time>2026-04-26T06:33:33.998Z</time></trkpt><trkpt lat="44.891672781147754" lon="9.845289169607952"><ele>114.99999999999999</ele><time>2026-04-26T06:33:34.998Z</time></trkpt><trkpt lat="44.891600851459835" lon="9.845312850405417"><ele>114.99999999999999</ele><time>2026-04-26T06:33:35.998Z</time></trkpt><trkpt lat="44.89153138651297" lon="9.845336190026721"><ele>115.0</ele><time>2026-04-26T06:33:36.998Z</time></trkpt><trkpt lat="44.89145868876805" lon="9.84536069599336"><ele>114.99999999999999</ele><time>2026-04-26T06:33:37.998Z</time></trkpt><trkpt lat="44.8913858056075" lon="9.845383960036399"><ele>114.99999999999999</ele><time>2026-04-26T06:33:38.998Z</time></trkpt><trkpt lat="44.89131453701551" lon="9.845412215115664"><ele>115.0</ele><time>2026-04-26T06:33:39.998Z</time></trkpt><trkpt lat="44.89124138484361" lon="9.845439266700982"><ele>114.99999999999999</ele><time>2026-04-26T06:33:40.998Z</time></trkpt><trkpt lat="44.89116938404199" lon="9.845467672225638"><ele>114.99999999999999</ele><time>2026-04-26T06:33:41.998Z</time></trkpt><trkpt lat="44.891097555259286" lon="9.845494015744066"><ele>114.99999999999999</ele><time>2026-04-26T06:33:42.998Z</time></trkpt><trkpt lat="44.891025614902375" lon="9.845518114377548"><ele>115.0</ele><time>2026-04-26T06:33:43.998Z</time></trkpt><trkpt lat="44.89095321800053" lon="9.845543987666584"><ele>114.99999999999999</ele><time>2026-04-26T06:33:44.998Z</time></trkpt><trkpt lat="44.89088053853695" lon="9.845571487540596"><ele>114.99999999999999</ele><time>2026-04-26T06:33:45.998Z</time></trkpt><trkpt lat="44.89080843953226" lon="9.845599346174476"><ele>115.0</ele><time>2026-04-26T06:33:46.998Z</time></trkpt><trkpt lat="44.89073612355286" lon="9.845625356618532"><ele>114.99999999999999</ele><time>2026-04-26T06:33:47.998Z</time></trkpt><trkpt lat="44.89066424887054" lon="9.845651907391114"><ele>114.99999999999999</ele><time>2026-04-26T06:33:48.998Z</time></trkpt><trkpt lat="44.89059404091269" lon="9.84567763579397"><ele>114.99999999999999</ele><time>2026-04-26T06:33:49.998Z</time></trkpt><trkpt lat="44.8905238569907" lon="9.84570447529352"><ele>115.0</ele><time>2026-04-26T06:33:50.998Z</time></trkpt><trkpt lat="44.89045415567389" lon="9.845730350745267"><ele>114.99999999999999</ele><time>2026-04-26T06:33:51.998Z</time></trkpt><trkpt lat="44.89038443989534" lon="9.845759180865144"><ele>114.99999999999999</ele><time>2026-04-26T06:33:52.998Z</time></trkpt><trkpt lat="44.890314672433725" lon="9.845785758936916"><ele>115.0</ele><time>2026-04-26T06:33:53.998Z</time></trkpt><trkpt lat="44.89024520221033" lon="9.84581280478659"><ele>114.99999999999999</ele><time>2026-04-26T06:33:54.998Z</time></trkpt><trkpt lat="44.890174143097155" lon="9.845839071614833"><ele>114.99999999999999</ele><time>2026-04-26T06:33:55.998Z</time></trkpt><trkpt lat="44.89010637316034" lon="9.845867721172716"><ele>115.14285714285712</ele><time>2026-04-26T06:33:56.998Z</time></trkpt><trkpt lat="44.890036472682404" lon="9.845892716741536"><ele>115.28571428571428</ele><time>2026-04-26T06:33:57.998Z</time></trkpt><trkpt lat="44.88996736065445" lon="9.845913998850182"><ele>115.42857142857143</ele><time>2026-04-26T06:33:58.997Z</time></trkpt><trkpt lat="44.88989849045972" lon="9.845931428836163"><ele>115.57142857142857</ele><time>2026-04-26T06:33:59.997Z</time></trkpt><trkpt lat="44.889826477836" lon="9.845949429444234"><ele>115.71428571428572</ele><time>2026-04-26T06:34:00.997Z</time></trkpt><trkpt lat="44.88975810278144" lon="9.84598047480654"><ele>115.85714285714288</ele><time>2026-04-26T06:34:01.997Z</time></trkpt><trkpt lat="44.88968681211491" lon="9.846007989564985"><ele>116.00000000000001</ele><time>2026-04-26T06:34:02.999Z</time></trkpt><trkpt lat="44.88961745394385" lon="9.846034966254658"><ele>116.2857142857143</ele><time>2026-04-26T06:34:03.999Z</time></trkpt><trkpt lat="44.88954722567719" lon="9.846063224182434"><ele>116.57142857142858</ele><time>2026-04-26T06:34:04.999Z</time></trkpt><trkpt lat="44.88947784442465" lon="9.846094685529382"><ele>116.85714285714286</ele><time>2026-04-26T06:34:05.999Z</time></trkpt><trkpt lat="44.889410062975735" lon="9.846126218323082"><ele>117.14285714285715</ele><time>2026-04-26T06:34:06.999Z</time></trkpt><trkpt lat="44.889340890015795" lon="9.846156737025545"><ele>117.42857142857144</ele><time>2026-04-26T06:34:07.999Z</time></trkpt><trkpt lat="44.88927156022431" lon="9.846184327103584"><ele>117.71428571428571</ele><time>2026-04-26T06:34:08.999Z</time></trkpt><trkpt lat="44.88920141526944" lon="9.846210216764566"><ele>118.0</ele><time>2026-04-26T06:34:09.999Z</time></trkpt><trkpt lat="44.88913040731416" lon="9.846230458344976"><ele>118.14285714285714</ele><time>2026-04-26T06:34:10.999Z</time></trkpt><trkpt lat="44.88905937170964" lon="9.846244286616475"><ele>118.28571428571429</ele><time>2026-04-26T06:34:11.999Z</time></trkpt><trkpt lat="44.8889872488463" lon="9.846256449888982"><ele>118.42857142857143</ele><time>2026-04-26T06:34:12.999Z</time></trkpt><trkpt lat="44.888914223033126" lon="9.846264318410773"><ele>118.57142857142857</ele><time>2026-04-26T06:34:13.999Z</time></trkpt><trkpt lat="44.88883887771156" lon="9.846262812281235"><ele>118.71428571428572</ele><time>2026-04-26T06:34:14.999Z</time></trkpt><trkpt lat="44.88876661293591" lon="9.846255758964976"><ele>118.85714285714286</ele><time>2026-04-26T06:34:15.999Z</time></trkpt><trkpt lat="44.888695283728424" lon="9.846253406468692"><ele>119.0</ele><time>2026-04-26T06:34:16.999Z</time></trkpt><trkpt lat="44.88862296486025" lon="9.846247828148813"><ele>119.0</ele><time>2026-04-26T06:34:17.999Z</time></trkpt><trkpt lat="44.888554308983416" lon="9.846245142652966"><ele>119.0</ele><time>2026-04-26T06:34:18.999Z</time></trkpt><trkpt lat="44.88848101245934" lon="9.846240372426493"><ele>119.0</ele><time>2026-04-26T06:34:19.999Z</time></trkpt><trkpt lat="44.88840981516265" lon="9.846236947075436"><ele>119.0</ele><time>2026-04-26T06:34:21Z</time></trkpt><trkpt lat="44.88833946996578" lon="9.846232358165159"><ele>119.0</ele><time>2026-04-26T06:34:22Z</time></trkpt><trkpt lat="44.888266050670445" lon="9.846231305377191"><ele>119.0</ele><time>2026-04-26T06:34:23Z</time></trkpt><trkpt lat="44.88819293692893" lon="9.846227369607991"><ele>119.0</ele><time>2026-04-26T06:34:24Z</time></trkpt><trkpt lat="44.88811883388838" lon="9.846217336341242"><ele>119.16666666666666</ele><time>2026-04-26T06:34:25Z</time></trkpt><trkpt lat="44.888045963018534" lon="9.846193411381394"><ele>119.33333333333333</ele><time>2026-04-26T06:34:26Z</time></trkpt><trkpt lat="44.887973385089246" lon="9.846160438325251"><ele>119.5</ele><time>2026-04-26T06:34:27Z</time></trkpt><trkpt lat="44.88790383059208" lon="9.846128516523164"><ele>119.66666666666666</ele><time>2026-04-26T06:34:28Z</time></trkpt><trkpt lat="44.8878312472751" lon="9.84609315448749"><ele>119.83333333333333</ele><time>2026-04-26T06:34:29Z</time></trkpt><trkpt lat="44.887760740047696" lon="9.84605959684898"><ele>120.0</ele><time>2026-04-26T06:34:30Z</time></trkpt><trkpt lat="44.88768907510093" lon="9.846028478510506"><ele>120.0</ele><time>2026-04-26T06:34:31Z</time></trkpt><trkpt lat="44.887618940609684" lon="9.845993918699186"><ele>120.0</ele><time>2026-04-26T06:34:32Z</time></trkpt><trkpt lat="44.88754697084553" lon="9.845968413324925"><ele>120.0</ele><time>2026-04-26T06:34:33Z</time></trkpt><trkpt lat="44.88747371517314" lon="9.845947260480777"><ele>120.0</ele><time>2026-04-26T06:34:34Z</time></trkpt><trkpt lat="44.88739957780338" lon="9.845932496073356"><ele>120.0</ele><time>2026-04-26T06:34:35Z</time></trkpt><trkpt lat="44.8873276839271" lon="9.845920921670754"><ele>120.0</ele><time>2026-04-26T06:34:36Z</time></trkpt><trkpt lat="44.88725447740374" lon="9.845917022192383"><ele>120.0</ele><time>2026-04-26T06:34:37Z</time></trkpt><trkpt lat="44.887181072847135" lon="9.845911228935497"><ele>119.85714285714286</ele><time>2026-04-26T06:34:38Z</time></trkpt><trkpt lat="44.8871080873665" lon="9.845903532682723"><ele>119.71428571428571</ele><time>2026-04-26T06:34:39Z</time></trkpt><trkpt lat="44.88703304257983" lon="9.845898389853017"><ele>119.57142857142857</ele><time>2026-04-26T06:34:40Z</time></trkpt><trkpt lat="44.88695888795686" lon="9.845893659237872"><ele>119.42857142857143</ele><time>2026-04-26T06:34:41Z</time></trkpt><trkpt lat="44.88688349279556" lon="9.845887122568381"><ele>119.28571428571428</ele><time>2026-04-26T06:34:42Z</time></trkpt><trkpt lat="44.886811669926395" lon="9.845897519571418"><ele>119.14285714285714</ele><time>2026-04-26T06:34:43Z</time></trkpt><trkpt lat="44.886738685825044" lon="9.845924626581228"><ele>119.0</ele><time>2026-04-26T06:34:44Z</time></trkpt><trkpt lat="44.88667305732796" lon="9.84597244852179"><ele>119.42857142857143</ele><time>2026-04-26T06:34:45Z</time></trkpt><trkpt lat="44.88662128526572" lon="9.846040301599803"><ele>119.85714285714286</ele><time>2026-04-26T06:34:46Z</time></trkpt><trkpt lat="44.88657812434169" lon="9.846117451028645"><ele>120.28571428571428</ele><time>2026-04-26T06:34:47Z</time></trkpt><trkpt lat="44.88654479019488" lon="9.846210914674279"><ele>120.71428571428571</ele><time>2026-04-26T06:34:48Z</time></trkpt><trkpt lat="44.88651829313807" lon="9.84630111994622"><ele>121.14285714285714</ele><time>2026-04-26T06:34:49Z</time></trkpt><trkpt lat="44.8864788794926" lon="9.846386711932915"><ele>121.57142857142856</ele><time>2026-04-26T06:34:50Z</time></trkpt><trkpt lat="44.88644068445937" lon="9.846469557542532"><ele>121.99999999999999</ele><time>2026-04-26T06:34:51Z</time></trkpt><trkpt lat="44.88641144670837" lon="9.846562808060348"><ele>121.99999999999999</ele><time>2026-04-26T06:34:52Z</time></trkpt><trkpt lat="44.88638533029358" lon="9.846655808978245"><ele>122.0</ele><time>2026-04-26T06:34:53Z</time></trkpt><trkpt lat="44.886359989660185" lon="9.846745148424821"><ele>121.99999999999999</ele><time>2026-04-26T06:34:54Z</time></trkpt><trkpt lat="44.88633845030393" lon="9.846840190248065"><ele>121.99999999999999</ele><time>2026-04-26T06:34:55Z</time></trkpt><trkpt lat="44.88632078090626" lon="9.846935396564106"><ele>122.0</ele><time>2026-04-26T06:34:56Z</time></trkpt><trkpt lat="44.88630166570389" lon="9.84702961854417"><ele>121.99999999999999</ele><time>2026-04-26T06:34:57Z</time></trkpt><trkpt lat="44.88628173253691" lon="9.847123368401641"><ele>121.99999999999999</ele><time>2026-04-26T06:34:58Z</time></trkpt><trkpt lat="44.88626618638878" lon="9.847222440145309"><ele>121.99999999999999</ele><time>2026-04-26T06:34:59Z</time></trkpt><trkpt lat="44.88625163659198" lon="9.847313786623829"><ele>122.0</ele><time>2026-04-26T06:35:00Z</time></trkpt><trkpt lat="44.88623251654447" lon="9.847408627033863"><ele>121.99999999999999</ele><time>2026-04-26T06:35:01Z</time></trkpt><trkpt lat="44.88621337687733" lon="9.847502385760556"><ele>121.99999999999999</ele><time>2026-04-26T06:35:02Z</time></trkpt><trkpt lat="44.8861963035284" lon="9.847599774089524"><ele>122.0</ele><time>2026-04-26T06:35:03Z</time></trkpt><trkpt lat="44.88618033674581" lon="9.847698193877095"><ele>121.99999999999999</ele><time>2026-04-26T06:35:04Z</time></trkpt><trkpt lat="44.88616699230026" lon="9.847794053752331"><ele>121.99999999999999</ele><time>2026-04-26T06:35:05Z</time></trkpt><trkpt lat="44.88615648729089" lon="9.847889700760895"><ele>121.99999999999999</ele><time>2026-04-26T06:35:06Z</time></trkpt><trkpt lat="44.886148084010124" lon="9.847988028975537"><ele>122.0</ele><time>2026-04-26T06:35:07Z</time></trkpt><trkpt lat="44.886141048520166" lon="9.848084887991845"><ele>121.99999999999999</ele><time>2026-04-26T06:35:08Z</time></trkpt><trkpt lat="44.886136781609515" lon="9.848182284886034"><ele>121.99999999999999</ele><time>2026-04-26T06:35:09Z</time></trkpt><trkpt lat="44.886130420830035" lon="9.848279842975442"><ele>122.0</ele><time>2026-04-26T06:35:09.999Z</time></trkpt><trkpt lat="44.8861270633985" lon="9.84837633471746"><ele>121.99999999999999</ele><time>2026-04-26T06:35:10.999Z</time></trkpt><trkpt lat="44.886121814837445" lon="9.848474744956484"><ele>121.99999999999999</ele><time>2026-04-26T06:35:11.999Z</time></trkpt><trkpt lat="44.88611779271389" lon="9.848569136138437"><ele>121.99999999999999</ele><time>2026-04-26T06:35:12.999Z</time></trkpt><trkpt lat="44.88611172948043" lon="9.848663753281148"><ele>122.0</ele><time>2026-04-26T06:35:13.999Z</time></trkpt><trkpt lat="44.886101079136175" lon="9.84876060385537"><ele>121.99999999999999</ele><time>2026-04-26T06:35:14.999Z</time></trkpt><trkpt lat="44.886086377174635" lon="9.848853959795127"><ele>121.99999999999999</ele><time>2026-04-26T06:35:15.999Z</time></trkpt><trkpt lat="44.886068627117034" lon="9.848946256949136"><ele>122.0</ele><time>2026-04-26T06:35:16.999Z</time></trkpt><trkpt lat="44.88604852739084" lon="9.849036682731166"><ele>121.99999999999999</ele><time>2026-04-26T06:35:17.999Z</time></trkpt><trkpt lat="44.88602462774202" lon="9.849121142297381"><ele>121.99999999999999</ele><time>2026-04-26T06:35:18.999Z</time></trkpt><trkpt lat="44.885994488011" lon="9.84920769694806"><ele>122.28571428571428</ele><time>2026-04-26T06:35:19.999Z</time></trkpt><trkpt lat="44.885965931079156" lon="9.849295389951328"><ele>122.57142857142857</ele><time>2026-04-26T06:35:20.999Z</time></trkpt><trkpt lat="44.88593534630803" lon="9.849377592301744"><ele>122.85714285714286</ele><time>2026-04-26T06:35:21.999Z</time></trkpt><trkpt lat="44.885902137363566" lon="9.849459196030098"><ele>123.14285714285714</ele><time>2026-04-26T06:35:22.999Z</time></trkpt><trkpt lat="44.885863481006254" lon="9.849538073209889"><ele>123.42857142857144</ele><time>2026-04-26T06:35:23.999Z</time></trkpt><trkpt lat="44.885825456919754" lon="9.8496139321917"><ele>123.71428571428572</ele><time>2026-04-26T06:35:24.999Z</time></trkpt><trkpt lat="44.88578975638925" lon="9.849691214801165"><ele>124.0</ele><time>2026-04-26T06:35:25.999Z</time></trkpt><trkpt lat="44.885749451276396" lon="9.849770253777036"><ele>124.2</ele><time>2026-04-26T06:35:26.999Z</time></trkpt><trkpt lat="44.88567436371554" lon="9.849922058314055"><ele>124.4</ele><time>2026-04-26T06:35:28.999Z</time></trkpt><trkpt lat="44.885595481634105" lon="9.850064183739962"><ele>124.6</ele><time>2026-04-26T06:35:30.999Z</time></trkpt><trkpt lat="44.8855549673495" lon="9.850140083733443"><ele>124.8</ele><time>2026-04-26T06:35:31.999Z</time></trkpt><trkpt lat="44.885515107882526" lon="9.850214564192315"><ele>125.0</ele><time>2026-04-26T06:35:32.999Z</time></trkpt><trkpt lat="44.885474289661985" lon="9.850294826695539"><ele>124.99999999999999</ele><time>2026-04-26T06:35:33.999Z</time></trkpt><trkpt lat="44.88543309506159" lon="9.85036794722839"><ele>125.0</ele><time>2026-04-26T06:35:34.999Z</time></trkpt><trkpt lat="44.885392917370126" lon="9.850439530938894"><ele>125.0</ele><time>2026-04-26T06:35:35.999Z</time></trkpt><trkpt lat="44.885349258833486" lon="9.850506129565876"><ele>125.0</ele><time>2026-04-26T06:35:36.999Z</time></trkpt><trkpt lat="44.88530302334975" lon="9.850569533055209"><ele>124.99999999999999</ele><time>2026-04-26T06:35:37.999Z</time></trkpt><trkpt lat="44.88520649912876" lon="9.850686336653641"><ele>125.0</ele><time>2026-04-26T06:35:39.999Z</time></trkpt><trkpt lat="44.88515357031454" lon="9.850739433912649"><ele>124.99999999999999</ele><time>2026-04-26T06:35:40.999Z</time></trkpt><trkpt lat="44.885101862869774" lon="9.850791370651484"><ele>125.0</ele><time>2026-04-26T06:35:41.999Z</time></trkpt><trkpt lat="44.885045055579624" lon="9.85083649270899"><ele>125.0</ele><time>2026-04-26T06:35:42.999Z</time></trkpt><trkpt lat="44.88493072000971" lon="9.850891599617578"><ele>125.0</ele><time>2026-04-26T06:35:44.999Z</time></trkpt><trkpt lat="44.88486740402537" lon="9.850901476492517"><ele>124.99999999999999</ele><time>2026-04-26T06:35:45.999Z</time></trkpt><trkpt lat="44.884748887618095" lon="9.850885142309657"><ele>125.0</ele><time>2026-04-26T06:35:47.999Z</time></trkpt><trkpt lat="44.884643829859016" lon="9.850823313438466"><ele>125.6</ele><time>2026-04-26T06:35:49.999Z</time></trkpt><trkpt lat="44.88454248464959" lon="9.850751094851482"><ele>126.2</ele><time>2026-04-26T06:35:51.999Z</time></trkpt><trkpt lat="44.88444143245456" lon="9.850682295711238"><ele>126.80000000000001</ele><time>2026-04-26T06:35:53.999Z</time></trkpt><trkpt lat="44.88434586938848" lon="9.85060794687461"><ele>127.4</ele><time>2026-04-26T06:35:55.999Z</time></trkpt><trkpt lat="44.884255214621874" lon="9.850527290629193"><ele>128.0</ele><time>2026-04-26T06:35:57.999Z</time></trkpt><trkpt lat="44.88417493630264" lon="9.8504501522037"><ele>128.33333333333331</ele><time>2026-04-26T06:35:59.999Z</time></trkpt><trkpt lat="44.884096762205665" lon="9.85037980093185"><ele>128.66666666666666</ele><time>2026-04-26T06:36:01.999Z</time></trkpt><trkpt lat="44.884022668546095" lon="9.850312677120472"><ele>129.0</ele><time>2026-04-26T06:36:03.998Z</time></trkpt><trkpt lat="44.88395430074049" lon="9.850243391954246"><ele>129.33333333333334</ele><time>2026-04-26T06:36:05.998Z</time></trkpt><trkpt lat="44.88390153739013" lon="9.850187890185492"><ele>129.66666666666669</ele><time>2026-04-26T06:36:08Z</time></trkpt><trkpt lat="44.88384146194538" lon="9.850135766546996"><ele>130.0</ele><time>2026-04-26T06:36:11Z</time></trkpt><trkpt lat="44.883777010374025" lon="9.850047422904703"><ele>130.0</ele><time>2026-04-26T06:36:14Z</time></trkpt><trkpt lat="44.88372020845465" lon="9.849967818545574"><ele>130.0</ele><time>2026-04-26T06:36:16Z</time></trkpt><trkpt lat="44.88362878313483" lon="9.849901901274157"><ele>130.0</ele><time>2026-04-26T06:36:18Z</time></trkpt><trkpt lat="44.88352434075207" lon="9.849855865421786"><ele>130.0</ele><time>2026-04-26T06:36:20Z</time></trkpt><trkpt lat="44.88342382204632" lon="9.849773733976336"><ele>130.0</ele><time>2026-04-26T06:36:22Z</time></trkpt><trkpt lat="44.883320265873806" lon="9.84968212241207"><ele>130.0</ele><time>2026-04-26T06:36:24Z</time></trkpt><trkpt lat="44.883219940329894" lon="9.84959169325455"><ele>130.0</ele><time>2026-04-26T06:36:26Z</time></trkpt><trkpt lat="44.88311897445735" lon="9.84950471294984"><ele>130.0</ele><time>2026-04-26T06:36:28Z</time></trkpt><trkpt lat="44.883014569135334" lon="9.849413667726349"><ele>130.0</ele><time>2026-04-26T06:36:30Z</time></trkpt><trkpt lat="44.88290716203318" lon="9.849327128453476"><ele>129.75</ele><time>2026-04-26T06:36:32Z</time></trkpt><trkpt lat="44.882803604960095" lon="9.849237864449078"><ele>129.5</ele><time>2026-04-26T06:36:34Z</time></trkpt><trkpt lat="44.882698608632026" lon="9.849149977999115"><ele>129.25</ele><time>2026-04-26T06:36:36Z</time></trkpt><trkpt lat="44.88259261675926" lon="9.849067471839927"><ele>129.0</ele><time>2026-04-26T06:36:38Z</time></trkpt><trkpt lat="44.88248940999925" lon="9.848979577011411"><ele>129.5</ele><time>2026-04-26T06:36:40Z</time></trkpt><trkpt lat="44.88238550079358" lon="9.848897576687836"><ele>130.0</ele><time>2026-04-26T06:36:42Z</time></trkpt><trkpt lat="44.88228314029386" lon="9.84881832965066"><ele>130.5</ele><time>2026-04-26T06:36:44Z</time></trkpt><trkpt lat="44.88217460647685" lon="9.84874314039523"><ele>131.0</ele><time>2026-04-26T06:36:46Z</time></trkpt><trkpt lat="44.88206408651592" lon="9.848675118823541"><ele>131.0</ele><time>2026-04-26T06:36:48Z</time></trkpt><trkpt lat="44.88195829924064" lon="9.848599504658202"><ele>131.0</ele><time>2026-04-26T06:36:50Z</time></trkpt><trkpt lat="44.88185212973961" lon="9.84853088791493"><ele>131.0</ele><time>2026-04-26T06:36:52Z</time></trkpt><trkpt lat="44.88174734565483" lon="9.84846598512045"><ele>131.0</ele><time>2026-04-26T06:36:54Z</time></trkpt><trkpt lat="44.88164230239024" lon="9.848415038294837"><ele>131.4</ele><time>2026-04-26T06:36:56Z</time></trkpt><trkpt lat="44.88154565344417" lon="9.84836201560717"><ele>131.8</ele><time>2026-04-26T06:36:58Z</time></trkpt><trkpt lat="44.8814486927692" lon="9.848333222160434"><ele>132.20000000000002</ele><time>2026-04-26T06:37:00Z</time></trkpt><trkpt lat="44.88135376666143" lon="9.848300519435261"><ele>132.6</ele><time>2026-04-26T06:37:02Z</time></trkpt><trkpt lat="44.88129345277398" lon="9.84847638916813"><ele>133.0</ele><time>2026-04-26T06:37:04Z</time></trkpt><trkpt lat="44.88127400674788" lon="9.848597990585851"><ele>133.5</ele><time>2026-04-26T06:37:06Z</time></trkpt><trkpt lat="44.881242432411234" lon="9.848720735674526"><ele>134.0</ele><time>2026-04-26T06:37:08Z</time></trkpt><trkpt lat="44.881210262624" lon="9.848840944460417"><ele>134.5</ele><time>2026-04-26T06:37:10Z</time></trkpt><trkpt lat="44.88117423076437" lon="9.84895706630034"><ele>135.0</ele><time>2026-04-26T06:37:12Z</time></trkpt><trkpt lat="44.88114845445221" lon="9.849073190829829"><ele>135.5</ele><time>2026-04-26T06:37:13.999Z</time></trkpt><trkpt lat="44.88112130854004" lon="9.84918485280381"><ele>136.0</ele><time>2026-04-26T06:37:15.999Z</time></trkpt><trkpt lat="44.881089914737835" lon="9.84929247845255"><ele>136.57142857142856</ele><time>2026-04-26T06:37:17.999Z</time></trkpt><trkpt lat="44.88106468001673" lon="9.849400277356278"><ele>137.14285714285714</ele><time>2026-04-26T06:37:19.999Z</time></trkpt><trkpt lat="44.88103902859231" lon="9.849502550041674"><ele>137.71428571428572</ele><time>2026-04-26T06:37:21.999Z</time></trkpt><trkpt lat="44.88101478195528" lon="9.849604401031476"><ele>138.28571428571428</ele><time>2026-04-26T06:37:23.999Z</time></trkpt><trkpt lat="44.880989416796275" lon="9.84970279612293"><ele>138.85714285714286</ele><time>2026-04-26T06:37:25.999Z</time></trkpt><trkpt lat="44.880953237099334" lon="9.849789793742758"><ele>139.42857142857142</ele><time>2026-04-26T06:37:27.999Z</time></trkpt><trkpt lat="44.88090947064224" lon="9.849857636997394"><ele>140.0</ele><time>2026-04-26T06:37:29.999Z</time></trkpt><trkpt lat="44.88083663378685" lon="9.84994305750297"><ele>140.16666666666666</ele><time>2026-04-26T06:37:32.999Z</time></trkpt><trkpt lat="44.88076504305301" lon="9.8500207321984"><ele>140.33333333333331</ele><time>2026-04-26T06:37:35.999Z</time></trkpt><trkpt lat="44.88069313991469" lon="9.850086058017375"><ele>140.5</ele><time>2026-04-26T06:37:38.999Z</time></trkpt><trkpt lat="44.88062570397868" lon="9.85014427306851"><ele>140.66666666666666</ele><time>2026-04-26T06:37:41.999Z</time></trkpt><trkpt lat="44.8805662080529" lon="9.850209237216337"><ele>140.83333333333334</ele><time>2026-04-26T06:37:44.999Z</time></trkpt><trkpt lat="44.88050707625199" lon="9.850272491605756"><ele>141.0</ele><time>2026-04-26T06:37:47.999Z</time></trkpt><trkpt lat="44.88044982635034" lon="9.85033180993205"><ele>141.0</ele><time>2026-04-26T06:37:50.999Z</time></trkpt><trkpt lat="44.88038720371728" lon="9.850382982198582"><ele>141.0</ele><time>2026-04-26T06:37:53.999Z</time></trkpt><trkpt lat="44.88032469530843" lon="9.850435043264303"><ele>141.0</ele><time>2026-04-26T06:37:56.999Z</time></trkpt><trkpt lat="44.88026947709985" lon="9.850498999502262"><ele>141.0</ele><time>2026-04-26T06:37:59.999Z</time></trkpt><trkpt lat="44.880214503501236" lon="9.8505610264189"><ele>141.0</ele><time>2026-04-26T06:38:02.999Z</time></trkpt><trkpt lat="44.88015993875557" lon="9.850620428970046"><ele>141.0</ele><time>2026-04-26T06:38:05.999Z</time></trkpt><trkpt lat="44.88009930708556" lon="9.850674001677367"><ele>141.0</ele><time>2026-04-26T06:38:08.998Z</time></trkpt><trkpt lat="44.88003872797697" lon="9.850734940861406"><ele>143.16666666666666</ele><time>2026-04-26T06:38:11.998Z</time></trkpt><trkpt lat="44.87997882692885" lon="9.850796838418468"><ele>145.33333333333334</ele><time>2026-04-26T06:38:15Z</time></trkpt><trkpt lat="44.8799158353279" lon="9.850846761379291"><ele>147.5</ele><time>2026-04-26T06:38:18Z</time></trkpt><trkpt lat="44.8798470041725" lon="9.850894302744349"><ele>149.66666666666669</ele><time>2026-04-26T06:38:21Z</time></trkpt><trkpt lat="44.87976714919977" lon="9.850942757206482"><ele>151.83333333333334</ele><time>2026-04-26T06:38:24Z</time></trkpt><trkpt lat="44.879689688344286" lon="9.850986969624596"><ele>154.0</ele><time>2026-04-26T06:38:27Z</time></trkpt><trkpt lat="44.879615002101424" lon="9.851029653007263"><ele>154.0</ele><time>2026-04-26T06:38:30Z</time></trkpt><trkpt lat="44.879541171752" lon="9.851075139499113"><ele>154.0</ele><time>2026-04-26T06:38:33Z</time></trkpt><trkpt lat="44.879471564276336" lon="9.851134888285824"><ele>154.0</ele><time>2026-04-26T06:38:36Z</time></trkpt><trkpt lat="44.87940768129187" lon="9.851212828756285"><ele>154.0</ele><time>2026-04-26T06:38:39Z</time></trkpt><trkpt lat="44.879345994883025" lon="9.851292052093955"><ele>154.0</ele><time>2026-04-26T06:38:42Z</time></trkpt><trkpt lat="44.879274885388476" lon="9.851365295408943"><ele>154.0</ele><time>2026-04-26T06:38:45Z</time></trkpt><trkpt lat="44.87920852111389" lon="9.851441885366846"><ele>155.33333333333334</ele><time>2026-04-26T06:38:48Z</time></trkpt><trkpt lat="44.87913944062152" lon="9.851514356919223"><ele>156.66666666666669</ele><time>2026-04-26T06:38:51Z</time></trkpt><trkpt lat="44.87905824125177" lon="9.851569908023357"><ele>158.0</ele><time>2026-04-26T06:38:54Z</time></trkpt><trkpt lat="44.87897332374436" lon="9.851598569248122"><ele>159.33333333333334</ele><time>2026-04-26T06:38:57Z</time></trkpt><trkpt lat="44.87890847885015" lon="9.851594947474158"><ele>160.66666666666666</ele><time>2026-04-26T06:38:59Z</time></trkpt><trkpt lat="44.87884451924613" lon="9.851572845815841"><ele>162.0</ele><time>2026-04-26T06:39:01Z</time></trkpt><trkpt lat="44.87877899144375" lon="9.851542298560538"><ele>162.0</ele><time>2026-04-26T06:39:03Z</time></trkpt><trkpt lat="44.87870979300593" lon="9.85150946526638"><ele>162.0</ele><time>2026-04-26T06:39:05Z</time></trkpt><trkpt lat="44.87863685493345" lon="9.851477343920719"><ele>162.0</ele><time>2026-04-26T06:39:07Z</time></trkpt><trkpt lat="44.87856410162942" lon="9.851452265805863"><ele>162.0</ele><time>2026-04-26T06:39:09Z</time></trkpt><trkpt lat="44.8784906344672" lon="9.851426809287034"><ele>162.0</ele><time>2026-04-26T06:39:11Z</time></trkpt><trkpt lat="44.87842095107497" lon="9.851400106781856"><ele>162.0</ele><time>2026-04-26T06:39:13Z</time></trkpt><trkpt lat="44.878348760799184" lon="9.851379767474603"><ele>162.0</ele><time>2026-04-26T06:39:15Z</time></trkpt><trkpt lat="44.878279040443026" lon="9.851357876073324"><ele>162.83333333333334</ele><time>2026-04-26T06:39:17Z</time></trkpt><trkpt lat="44.878208722793396" lon="9.851336939311166"><ele>163.66666666666666</ele><time>2026-04-26T06:39:18.999Z</time></trkpt><trkpt lat="44.8781359756628" lon="9.851323140832287"><ele>164.5</ele><time>2026-04-26T06:39:20.999Z</time></trkpt><trkpt lat="44.878062417853116" lon="9.851310302147679"><ele>165.33333333333331</ele><time>2026-04-26T06:39:22.999Z</time></trkpt><trkpt lat="44.87798271411638" lon="9.851299933982451"><ele>166.16666666666666</ele><time>2026-04-26T06:39:24.999Z</time></trkpt><trkpt lat="44.877903236930706" lon="9.851288524599902"><ele>167.0</ele><time>2026-04-26T06:39:26.999Z</time></trkpt><trkpt lat="44.87781772135206" lon="9.851283360979837"><ele>167.0</ele><time>2026-04-26T06:39:28.999Z</time></trkpt><trkpt lat="44.877725678169355" lon="9.851286141791704"><ele>167.0</ele><time>2026-04-26T06:39:30.999Z</time></trkpt><trkpt lat="44.8776293514674" lon="9.851301894681924"><ele>167.0</ele><time>2026-04-26T06:39:32.999Z</time></trkpt><trkpt lat="44.87753364384894" lon="9.85134509892885"><ele>167.0</ele><time>2026-04-26T06:39:34.999Z</time></trkpt><trkpt lat="44.877439849585855" lon="9.851409747025153"><ele>167.0</ele><time>2026-04-26T06:39:36.999Z</time></trkpt><trkpt lat="44.87735439610045" lon="9.851487418340774"><ele>167.39999999999998</ele><time>2026-04-26T06:39:38.999Z</time></trkpt><trkpt lat="44.87727031964596" lon="9.851564150354076"><ele>167.79999999999998</ele><time>2026-04-26T06:39:40.999Z</time></trkpt><trkpt lat="44.87718948097181" lon="9.851644349472481"><ele>168.2</ele><time>2026-04-26T06:39:42.999Z</time></trkpt><trkpt lat="44.877099203133696" lon="9.851718866680901"><ele>168.6</ele><time>2026-04-26T06:39:44.999Z</time></trkpt><trkpt lat="44.87701020567615" lon="9.851799507244356"><ele>169.0</ele><time>2026-04-26T06:39:46.999Z</time></trkpt><trkpt lat="44.87692007296534" lon="9.851878403972359"><ele>169.39999999999998</ele><time>2026-04-26T06:39:48.999Z</time></trkpt><trkpt lat="44.87682936482858" lon="9.851952199334143"><ele>169.8</ele><time>2026-04-26T06:39:50.999Z</time></trkpt><trkpt lat="44.87673238748149" lon="9.85202386050398"><ele>170.2</ele><time>2026-04-26T06:39:52.999Z</time></trkpt><trkpt lat="44.87663554603713" lon="9.852095216046061"><ele>170.60000000000002</ele><time>2026-04-26T06:39:54.999Z</time></trkpt><trkpt lat="44.87653891038061" lon="9.852160741116002"><ele>171.0</ele><time>2026-04-26T06:39:56.999Z</time></trkpt><trkpt lat="44.87644885749441" lon="9.852192664150799"><ele>171.0</ele><time>2026-04-26T06:39:58.999Z</time></trkpt><trkpt lat="44.87639254169188" lon="9.852239591131685"><ele>171.0</ele><time>2026-04-26T06:39:59.999Z</time></trkpt><trkpt lat="44.8762891095446" lon="9.85228668329628"><ele>171.0</ele><time>2026-04-26T06:40:01.999Z</time></trkpt><trkpt lat="44.87618474328775" lon="9.8523175793101"><ele>171.0</ele><time>2026-04-26T06:40:03.999Z</time></trkpt><trkpt lat="44.876084762548345" lon="9.852352110526555"><ele>171.0</ele><time>2026-04-26T06:40:05.999Z</time></trkpt><trkpt lat="44.875988142949794" lon="9.852384194886511"><ele>171.20000000000002</ele><time>2026-04-26T06:40:07.999Z</time></trkpt><trkpt lat="44.87589275137147" lon="9.852410049540284"><ele>171.4</ele><time>2026-04-26T06:40:09.999Z</time></trkpt><trkpt lat="44.87580424415691" lon="9.852444153936522"><ele>171.6</ele><time>2026-04-26T06:40:11.998Z</time></trkpt><trkpt lat="44.87571711213277" lon="9.85247563974536"><ele>171.8</ele><time>2026-04-26T06:40:13.998Z</time></trkpt><trkpt lat="44.87562707496635" lon="9.852504199922883"><ele>172.0</ele><time>2026-04-26T06:40:15.998Z</time></trkpt><trkpt lat="44.875538743718344" lon="9.852536019679235"><ele>172.0</ele><time>2026-04-26T06:40:17.998Z</time></trkpt><trkpt lat="44.87545366906317" lon="9.852565387443839"><ele>172.0</ele><time>2026-04-26T06:40:20Z</time></trkpt><trkpt lat="44.8753725850847" lon="9.852593248686917"><ele>172.0</ele><time>2026-04-26T06:40:22Z</time></trkpt><trkpt lat="44.875289419665336" lon="9.852614681715604"><ele>172.0</ele><time>2026-04-26T06:40:24Z</time></trkpt><trkpt lat="44.875207309083336" lon="9.852642620028677"><ele>172.0</ele><time>2026-04-26T06:40:26Z</time></trkpt><trkpt lat="44.875129811457604" lon="9.852677400080104"><ele>172.0</ele><time>2026-04-26T06:40:28Z</time></trkpt><trkpt lat="44.875047945625454" lon="9.852713617080367"><ele>173.33333333333334</ele><time>2026-04-26T06:40:30Z</time></trkpt><trkpt lat="44.874968427160795" lon="9.852753089849513"><ele>174.66666666666669</ele><time>2026-04-26T06:40:32Z</time></trkpt><trkpt lat="44.87488879105682" lon="9.852792812959287"><ele>176.0</ele><time>2026-04-26T06:40:34Z</time></trkpt><trkpt lat="44.874811310813094" lon="9.852832718591687"><ele>177.33333333333334</ele><time>2026-04-26T06:40:36Z</time></trkpt><trkpt lat="44.87473237119199" lon="9.85287950780826"><ele>178.66666666666666</ele><time>2026-04-26T06:40:38Z</time></trkpt><trkpt lat="44.87465225540509" lon="9.852929449754164"><ele>180.0</ele><time>2026-04-26T06:40:40Z</time></trkpt><trkpt lat="44.87457625427705" lon="9.852985666942077"><ele>180.0</ele><time>2026-04-26T06:40:42Z</time></trkpt><trkpt lat="44.874501384592534" lon="9.853039204618335"><ele>180.0</ele><time>2026-04-26T06:40:44Z</time></trkpt><trkpt lat="44.87442148436182" lon="9.853090647775657"><ele>180.0</ele><time>2026-04-26T06:40:46Z</time></trkpt><trkpt lat="44.87434316423631" lon="9.85314736913577"><ele>180.0</ele><time>2026-04-26T06:40:48Z</time></trkpt><trkpt lat="44.87426722643717" lon="9.853212362650886"><ele>180.0</ele><time>2026-04-26T06:40:50Z</time></trkpt><trkpt lat="44.87419174690592" lon="9.853284914834987"><ele>180.0</ele><time>2026-04-26T06:40:52Z</time></trkpt><trkpt lat="44.87412394661087" lon="9.853361182181951"><ele>179.8</ele><time>2026-04-26T06:40:54Z</time></trkpt><trkpt lat="44.87405150629767" lon="9.85344729751422"><ele>179.6</ele><time>2026-04-26T06:40:56Z</time></trkpt><trkpt lat="44.873980334489374" lon="9.853528574756076"><ele>179.39999999999998</ele><time>2026-04-26T06:40:58Z</time></trkpt><trkpt lat="44.873918010254016" lon="9.853619783476342"><ele>179.2</ele><time>2026-04-26T06:41:00Z</time></trkpt><trkpt lat="44.8738513167545" lon="9.853708042273702"><ele>179.0</ele><time>2026-04-26T06:41:02Z</time></trkpt><trkpt lat="44.87378061682271" lon="9.85378834715411"><ele>179.6</ele><time>2026-04-26T06:41:04Z</time></trkpt><trkpt lat="44.87371567149091" lon="9.853876101207197"><ele>180.2</ele><time>2026-04-26T06:41:06Z</time></trkpt><trkpt lat="44.87364766047981" lon="9.85396018444953"><ele>180.79999999999998</ele><time>2026-04-26T06:41:08Z</time></trkpt><trkpt lat="44.87357616770206" lon="9.854046023935505"><ele>181.39999999999998</ele><time>2026-04-26T06:41:10Z</time></trkpt><trkpt lat="44.8735073359963" lon="9.854132451481512"><ele>182.0</ele><time>2026-04-26T06:41:12Z</time></trkpt><trkpt lat="44.873436213364585" lon="9.8542198959842"><ele>182.6</ele><time>2026-04-26T06:41:14Z</time></trkpt><trkpt lat="44.8733623385594" lon="9.854299915434826"><ele>183.2</ele><time>2026-04-26T06:41:16Z</time></trkpt><trkpt lat="44.87327824354092" lon="9.854365727932722"><ele>183.8</ele><time>2026-04-26T06:41:18Z</time></trkpt><trkpt lat="44.87319073812681" lon="9.85442432585749"><ele>184.4</ele><time>2026-04-26T06:41:20Z</time></trkpt><trkpt lat="44.8731050939375" lon="9.854487661325381"><ele>185.0</ele><time>2026-04-26T06:41:22Z</time></trkpt><trkpt lat="44.87301646593083" lon="9.854542426683905"><ele>185.0</ele><time>2026-04-26T06:41:23.999Z</time></trkpt><trkpt lat="44.872928758436416" lon="9.854589330825439"><ele>185.0</ele><time>2026-04-26T06:41:25.999Z</time></trkpt><trkpt lat="44.872844190729616" lon="9.854635616314189"><ele>185.0</ele><time>2026-04-26T06:41:27.999Z</time></trkpt><trkpt lat="44.87276272513424" lon="9.854685188826016"><ele>185.0</ele><time>2026-04-26T06:41:29.999Z</time></trkpt><trkpt lat="44.87267830650348" lon="9.854729498378983"><ele>185.0</ele><time>2026-04-26T06:41:31.999Z</time></trkpt><trkpt lat="44.87259505082473" lon="9.854773347881386"><ele>185.6</ele><time>2026-04-26T06:41:33.999Z</time></trkpt><trkpt lat="44.87250989055694" lon="9.854825886706552"><ele>186.2</ele><time>2026-04-26T06:41:35.999Z</time></trkpt><trkpt lat="44.87242047375911" lon="9.854870289341237"><ele>186.8</ele><time>2026-04-26T06:41:37.999Z</time></trkpt><trkpt lat="44.872332652793595" lon="9.854917258040746"><ele>187.4</ele><time>2026-04-26T06:41:39.999Z</time></trkpt><trkpt lat="44.87224615449762" lon="9.854962733270046"><ele>188.0</ele><time>2026-04-26T06:41:41.999Z</time></trkpt><trkpt lat="44.87216053742872" lon="9.855012381632475"><ele>188.0</ele><time>2026-04-26T06:41:43.999Z</time></trkpt><trkpt lat="44.87207309873221" lon="9.855054977161696"><ele>188.0</ele><time>2026-04-26T06:41:45.999Z</time></trkpt><trkpt lat="44.871985323585704" lon="9.855093163274848"><ele>188.0</ele><time>2026-04-26T06:41:47.999Z</time></trkpt><trkpt lat="44.87189757047573" lon="9.85512476216238"><ele>188.0</ele><time>2026-04-26T06:41:49.999Z</time></trkpt><trkpt lat="44.87180680631796" lon="9.855147660167935"><ele>188.0</ele><time>2026-04-26T06:41:51.999Z</time></trkpt><trkpt lat="44.87171557565542" lon="9.85516049491547"><ele>188.83333333333331</ele><time>2026-04-26T06:41:53.999Z</time></trkpt><trkpt lat="44.871623512984705" lon="9.855175431806853"><ele>189.66666666666666</ele><time>2026-04-26T06:41:55.999Z</time></trkpt><trkpt lat="44.87153324074134" lon="9.855183583483441"><ele>190.5</ele><time>2026-04-26T06:41:57.999Z</time></trkpt><trkpt lat="44.871443888261204" lon="9.855185150749818"><ele>191.33333333333331</ele><time>2026-04-26T06:41:59.999Z</time></trkpt><trkpt lat="44.87135584891762" lon="9.855186905501823"><ele>192.16666666666666</ele><time>2026-04-26T06:42:01.999Z</time></trkpt><trkpt lat="44.87127040147681" lon="9.85519326281012"><ele>193.0</ele><time>2026-04-26T06:42:03.999Z</time></trkpt><trkpt lat="44.87118534949623" lon="9.855205880055856"><ele>193.0</ele><time>2026-04-26T06:42:05.999Z</time></trkpt><trkpt lat="44.87109932038443" lon="9.855236870088563"><ele>193.0</ele><time>2026-04-26T06:42:07.999Z</time></trkpt><trkpt lat="44.871013335938464" lon="9.855268331216793"><ele>193.0</ele><time>2026-04-26T06:42:09.999Z</time></trkpt><trkpt lat="44.87092603533086" lon="9.855299758554619"><ele>193.0</ele><time>2026-04-26T06:42:11.999Z</time></trkpt><trkpt lat="44.87083787895499" lon="9.85532811813141"><ele>193.0</ele><time>2026-04-26T06:42:13.999Z</time></trkpt><trkpt lat="44.87074758153754" lon="9.855362304953507"><ele>193.2</ele><time>2026-04-26T06:42:15.999Z</time></trkpt><trkpt lat="44.87065947387886" lon="9.855396335435582"><ele>193.4</ele><time>2026-04-26T06:42:17.998Z</time></trkpt><trkpt lat="44.87056846822218" lon="9.855426680721138"><ele>193.6</ele><time>2026-04-26T06:42:19.998Z</time></trkpt><trkpt lat="44.87047971725178" lon="9.855454137996514"><ele>193.79999999999998</ele><time>2026-04-26T06:42:21.998Z</time></trkpt><trkpt lat="44.870391018929055" lon="9.855482870350944"><ele>194.0</ele><time>2026-04-26T06:42:23.998Z</time></trkpt><trkpt lat="44.870302367695594" lon="9.855516451201083"><ele>194.00000000000003</ele><time>2026-04-26T06:42:26Z</time></trkpt><trkpt lat="44.87021461166238" lon="9.855545764836931"><ele>194.0</ele><time>2026-04-26T06:42:28Z</time></trkpt><trkpt lat="44.87012797590671" lon="9.855571818344593"><ele>194.0</ele><time>2026-04-26T06:42:30Z</time></trkpt><trkpt lat="44.8700417964747" lon="9.855604960564824"><ele>194.0</ele><time>2026-04-26T06:42:32Z</time></trkpt><trkpt lat="44.86995785572325" lon="9.85564372839218"><ele>194.00000000000003</ele><time>2026-04-26T06:42:34Z</time></trkpt><trkpt lat="44.86987442581993" lon="9.855682109917767"><ele>194.0</ele><time>2026-04-26T06:42:36Z</time></trkpt><trkpt lat="44.86979031019962" lon="9.855723738694186"><ele>194.50000000000003</ele><time>2026-04-26T06:42:38Z</time></trkpt><trkpt lat="44.86970485151601" lon="9.855765757795334"><ele>195.0</ele><time>2026-04-26T06:42:40Z</time></trkpt><trkpt lat="44.86962315507869" lon="9.855805285542953"><ele>195.5</ele><time>2026-04-26T06:42:42Z</time></trkpt><trkpt lat="44.869542283166254" lon="9.85584955787373"><ele>196.0</ele><time>2026-04-26T06:42:44Z</time></trkpt><trkpt lat="44.869458543550465" lon="9.855901263394381"><ele>196.50000000000003</ele><time>2026-04-26T06:42:46Z</time></trkpt><trkpt lat="44.869377433805525" lon="9.855959156473004"><ele>197.0</ele><time>2026-04-26T06:42:48Z</time></trkpt><trkpt lat="44.869293181651194" lon="9.856010629807784"><ele>198.2</ele><time>2026-04-26T06:42:50Z</time></trkpt><trkpt lat="44.869212867794374" lon="9.856070502156399"><ele>199.39999999999998</ele><time>2026-04-26T06:42:52Z</time></trkpt><trkpt lat="44.86913827711727" lon="9.856140686097769"><ele>200.60000000000002</ele><time>2026-04-26T06:42:54Z</time></trkpt><trkpt lat="44.86906554917927" lon="9.856216314515251"><ele>201.8</ele><time>2026-04-26T06:42:56Z</time></trkpt><trkpt lat="44.868992747945974" lon="9.856292831627464"><ele>203.0</ele><time>2026-04-26T06:42:58Z</time></trkpt><trkpt lat="44.86891646480256" lon="9.856363391857762"><ele>203.00000000000003</ele><time>2026-04-26T06:43:00Z</time></trkpt><trkpt lat="44.868845074780126" lon="9.856435795850302"><ele>203.0</ele><time>2026-04-26T06:43:02Z</time></trkpt><trkpt lat="44.868767924423935" lon="9.856495985585733"><ele>203.0</ele><time>2026-04-26T06:43:04Z</time></trkpt><trkpt lat="44.868693676702385" lon="9.856554827997488"><ele>203.0</ele><time>2026-04-26T06:43:06Z</time></trkpt><trkpt lat="44.86861798104327" lon="9.85661174461511"><ele>203.00000000000003</ele><time>2026-04-26T06:43:08Z</time></trkpt><trkpt lat="44.868543848579854" lon="9.856671743460668"><ele>203.0</ele><time>2026-04-26T06:43:10Z</time></trkpt><trkpt lat="44.868468639530214" lon="9.856727562485236"><ele>203.00000000000003</ele><time>2026-04-26T06:43:12Z</time></trkpt><trkpt lat="44.868394377259506" lon="9.856781085069388"><ele>203.0</ele><time>2026-04-26T06:43:14Z</time></trkpt><trkpt lat="44.86831919173084" lon="9.856834840902945"><ele>203.0</ele><time>2026-04-26T06:43:16Z</time></trkpt><trkpt lat="44.868245303993476" lon="9.85689028008583"><ele>203.0</ele><time>2026-04-26T06:43:18Z</time></trkpt><trkpt lat="44.86816995395452" lon="9.856946168986227"><ele>203.00000000000003</ele><time>2026-04-26T06:43:20Z</time></trkpt><trkpt lat="44.86809326393582" lon="9.85699855525596"><ele>203.0</ele><time>2026-04-26T06:43:22Z</time></trkpt><trkpt lat="44.86801639330414" lon="9.857048840808933"><ele>203.00000000000003</ele><time>2026-04-26T06:43:24Z</time></trkpt><trkpt lat="44.8679380007124" lon="9.857100568735511"><ele>203.0</ele><time>2026-04-26T06:43:26Z</time></trkpt><trkpt lat="44.867857632636756" lon="9.85714108585268"><ele>203.0</ele><time>2026-04-26T06:43:27.999Z</time></trkpt><trkpt lat="44.867775241640345" lon="9.857176033571399"><ele>203.0</ele><time>2026-04-26T06:43:29.999Z</time></trkpt><trkpt lat="44.86769253757071" lon="9.857198524702943"><ele>203.00000000000003</ele><time>2026-04-26T06:43:31.999Z</time></trkpt><trkpt lat="44.86760948839619" lon="9.857212489476174"><ele>203.0</ele><time>2026-04-26T06:43:33.999Z</time></trkpt><trkpt lat="44.867526690697986" lon="9.857229270247581"><ele>203.33333333333334</ele><time>2026-04-26T06:43:35.999Z</time></trkpt><trkpt lat="44.867444363340894" lon="9.857250263242506"><ele>203.66666666666669</ele><time>2026-04-26T06:43:37.999Z</time></trkpt><trkpt lat="44.867361458681785" lon="9.857270897037752"><ele>204.0</ele><time>2026-04-26T06:43:39.999Z</time></trkpt><trkpt lat="44.8672772251956" lon="9.857284747109293"><ele>204.33333333333331</ele><time>2026-04-26T06:43:41.999Z</time></trkpt><trkpt lat="44.867188427874495" lon="9.857311394736673"><ele>204.66666666666666</ele><time>2026-04-26T06:43:43.999Z</time></trkpt><trkpt lat="44.86709863916562" lon="9.85732964677009"><ele>205.0</ele><time>2026-04-26T06:43:45.999Z</time></trkpt><trkpt lat="44.86700830295302" lon="9.85734898719143"><ele>205.0</ele><time>2026-04-26T06:43:47.999Z</time></trkpt><trkpt lat="44.86691345291107" lon="9.857370013081184"><ele>205.0</ele><time>2026-04-26T06:43:49.999Z</time></trkpt><trkpt lat="44.86681854422025" lon="9.857393646850637"><ele>205.0</ele><time>2026-04-26T06:43:51.999Z</time></trkpt><trkpt lat="44.86672776016862" lon="9.857414547099276"><ele>205.0</ele><time>2026-04-26T06:43:53.999Z</time></trkpt><trkpt lat="44.86663224095287" lon="9.857436868860846"><ele>205.0</ele><time>2026-04-26T06:43:55.999Z</time></trkpt><trkpt lat="44.86654513617911" lon="9.85745812639237"><ele>205.99999999999997</ele><time>2026-04-26T06:43:57.999Z</time></trkpt><trkpt lat="44.86645434367697" lon="9.857479071032953"><ele>207.0</ele><time>2026-04-26T06:43:59.999Z</time></trkpt><trkpt lat="44.86636661131997" lon="9.85749843491963"><ele>208.0</ele><time>2026-04-26T06:44:01.999Z</time></trkpt><trkpt lat="44.86628043681489" lon="9.857519328802326"><ele>209.0</ele><time>2026-04-26T06:44:03.999Z</time></trkpt><trkpt lat="44.86619395823461" lon="9.85754125505449"><ele>209.99999999999997</ele><time>2026-04-26T06:44:05.999Z</time></trkpt><trkpt lat="44.86610611497272" lon="9.857562105380858"><ele>211.0</ele><time>2026-04-26T06:44:07.999Z</time></trkpt><trkpt lat="44.86601910775301" lon="9.857580846780474"><ele>211.33333333333331</ele><time>2026-04-26T06:44:09.999Z</time></trkpt><trkpt lat="44.86593055251414" lon="9.857596848255534"><ele>211.66666666666666</ele><time>2026-04-26T06:44:11.999Z</time></trkpt><trkpt lat="44.865842137209064" lon="9.8576127941452"><ele>212.0</ele><time>2026-04-26T06:44:13.999Z</time></trkpt><trkpt lat="44.86575316381326" lon="9.857631239866393"><ele>212.33333333333331</ele><time>2026-04-26T06:44:15.999Z</time></trkpt><trkpt lat="44.86566730765862" lon="9.857652392467433"><ele>212.66666666666666</ele><time>2026-04-26T06:44:17.999Z</time></trkpt><trkpt lat="44.86558411962379" lon="9.857674052133314"><ele>213.0</ele><time>2026-04-26T06:44:19.998Z</time></trkpt><trkpt lat="44.86550908381155" lon="9.85768707710836"><ele>213.0</ele><time>2026-04-26T06:44:21.998Z</time></trkpt><trkpt lat="44.865442596053484" lon="9.857695532339939"><ele>213.0</ele><time>2026-04-26T06:44:23.998Z</time></trkpt><trkpt lat="44.86535893136127" lon="9.857720518454526"><ele>213.0</ele><time>2026-04-26T06:44:25.998Z</time></trkpt><trkpt lat="44.865284536247806" lon="9.857734077312339"><ele>213.0</ele><time>2026-04-26T06:44:27.998Z</time></trkpt><trkpt lat="44.8651874898599" lon="9.857752878868178"><ele>213.0</ele><time>2026-04-26T06:44:29.998Z</time></trkpt><trkpt lat="44.86512519143853" lon="9.85778482815862"><ele>213.0</ele><time>2026-04-26T06:44:30.998Z</time></trkpt><trkpt lat="44.86504161227044" lon="9.857803743444471"><ele>214.16666666666666</ele><time>2026-04-26T06:44:33Z</time></trkpt><trkpt lat="44.86495869909322" lon="9.85782347993558"><ele>215.33333333333331</ele><time>2026-04-26T06:44:35Z</time></trkpt><trkpt lat="44.864877242351405" lon="9.857840896639512"><ele>216.5</ele><time>2026-04-26T06:44:37Z</time></trkpt><trkpt lat="44.864796083062146" lon="9.857859599508831"><ele>217.66666666666666</ele><time>2026-04-26T06:44:39Z</time></trkpt><trkpt lat="44.86471412078378" lon="9.857875940262442"><ele>218.83333333333331</ele><time>2026-04-26T06:44:41Z</time></trkpt><trkpt lat="44.86463363087432" lon="9.85789863991683"><ele>220.0</ele><time>2026-04-26T06:44:43Z</time></trkpt><trkpt lat="44.86455293969565" lon="9.857919122275248"><ele>219.99999999999997</ele><time>2026-04-26T06:44:45Z</time></trkpt><trkpt lat="44.86447103654106" lon="9.857937876234537"><ele>220.0</ele><time>2026-04-26T06:44:47Z</time></trkpt><trkpt lat="44.86438935489242" lon="9.857957208732813"><ele>220.0</ele><time>2026-04-26T06:44:49Z</time></trkpt><trkpt lat="44.86432167774003" lon="9.857968649222174"><ele>220.0</ele><time>2026-04-26T06:44:51Z</time></trkpt><trkpt lat="44.86425248468919" lon="9.857991372123806"><ele>219.99999999999997</ele><time>2026-04-26T06:44:53Z</time></trkpt><trkpt lat="44.86418198015601" lon="9.8580088052751"><ele>220.0</ele><time>2026-04-26T06:44:55Z</time></trkpt><trkpt lat="44.86410596696116" lon="9.858011988249071"><ele>220.49999999999997</ele><time>2026-04-26T06:44:57Z</time></trkpt><trkpt lat="44.864008934023374" lon="9.858018387478245"><ele>221.0</ele><time>2026-04-26T06:44:59Z</time></trkpt><trkpt lat="44.863915710493536" lon="9.858004129259633"><ele>221.5</ele><time>2026-04-26T06:45:01Z</time></trkpt><trkpt lat="44.86383224268009" lon="9.85798587416334"><ele>222.0</ele><time>2026-04-26T06:45:03Z</time></trkpt><trkpt lat="44.86374867789848" lon="9.857961942729972"><ele>222.49999999999997</ele><time>2026-04-26T06:45:05Z</time></trkpt><trkpt lat="44.863663612727734" lon="9.857929773594263"><ele>223.0</ele><time>2026-04-26T06:45:07Z</time></trkpt><trkpt lat="44.86357586291468" lon="9.857904002380712"><ele>222.99999999999997</ele><time>2026-04-26T06:45:09Z</time></trkpt><trkpt lat="44.86349446813146" lon="9.857876238157104"><ele>223.0</ele><time>2026-04-26T06:45:11Z</time></trkpt><trkpt lat="44.863426801460314" lon="9.85785743479884"><ele>223.0</ele><time>2026-04-26T06:45:13Z</time></trkpt><trkpt lat="44.86335179950568" lon="9.857826629126425"><ele>223.0</ele><time>2026-04-26T06:45:15Z</time></trkpt><trkpt lat="44.86326013923541" lon="9.857791511388172"><ele>222.99999999999997</ele><time>2026-04-26T06:45:17Z</time></trkpt><trkpt lat="44.86317798569101" lon="9.857765009429317"><ele>223.0</ele><time>2026-04-26T06:45:19Z</time></trkpt><trkpt lat="44.863099937754896" lon="9.85773459125099"><ele>224.0</ele><time>2026-04-26T06:45:21Z</time></trkpt><trkpt lat="44.86302326626243" lon="9.85770901227281"><ele>225.0</ele><time>2026-04-26T06:45:23Z</time></trkpt><trkpt lat="44.86294841736103" lon="9.857689958527338"><ele>226.0</ele><time>2026-04-26T06:45:25Z</time></trkpt><trkpt lat="44.862874701489446" lon="9.857666279749937"><ele>227.0</ele><time>2026-04-26T06:45:27Z</time></trkpt><trkpt lat="44.86280543781934" lon="9.857646773943658"><ele>228.0</ele><time>2026-04-26T06:45:28.999Z</time></trkpt><trkpt lat="44.86273280233102" lon="9.85762016897015"><ele>228.99999999999997</ele><time>2026-04-26T06:45:30.999Z</time></trkpt><trkpt lat="44.86266337091643" lon="9.857596077858359"><ele>229.99999999999997</ele><time>2026-04-26T06:45:32.999Z</time></trkpt><trkpt lat="44.862592320869304" lon="9.857573570097193"><ele>230.50000000000003</ele><time>2026-04-26T06:45:34.999Z</time></trkpt><trkpt lat="44.862517219044676" lon="9.857552052226314"><ele>231.0</ele><time>2026-04-26T06:45:36.999Z</time></trkpt><trkpt lat="44.862443204372624" lon="9.857526235586311"><ele>231.5</ele><time>2026-04-26T06:45:38.999Z</time></trkpt><trkpt lat="44.862365629780015" lon="9.857503179470221"><ele>232.0</ele><time>2026-04-26T06:45:40.999Z</time></trkpt><trkpt lat="44.862289596665924" lon="9.857477519218369"><ele>232.50000000000003</ele><time>2026-04-26T06:45:42.999Z</time></trkpt><trkpt lat="44.86221455207625" lon="9.85745319470483"><ele>233.0</ele><time>2026-04-26T06:45:44.999Z</time></trkpt><trkpt lat="44.86213976874746" lon="9.857430074260199"><ele>233.00000000000003</ele><time>2026-04-26T06:45:46.999Z</time></trkpt><trkpt lat="44.86206377720613" lon="9.857406529713028"><ele>233.0</ele><time>2026-04-26T06:45:48.999Z</time></trkpt><trkpt lat="44.861987391173756" lon="9.8573819178499"><ele>233.0</ele><time>2026-04-26T06:45:50.999Z</time></trkpt><trkpt lat="44.86191084448009" lon="9.857355072900166"><ele>233.0</ele><time>2026-04-26T06:45:52.999Z</time></trkpt><trkpt lat="44.86183115013397" lon="9.857327824799084"><ele>233.00000000000003</ele><time>2026-04-26T06:45:54.999Z</time></trkpt><trkpt lat="44.86175115230263" lon="9.857299560961563"><ele>233.0</ele><time>2026-04-26T06:45:56.999Z</time></trkpt><trkpt lat="44.861675053306165" lon="9.857271160674943"><ele>233.83333333333334</ele><time>2026-04-26T06:45:58.999Z</time></trkpt><trkpt lat="44.861595896250655" lon="9.857245354626263"><ele>234.66666666666669</ele><time>2026-04-26T06:46:00.999Z</time></trkpt><trkpt lat="44.861516730655694" lon="9.857217251522375"><ele>235.5</ele><time>2026-04-26T06:46:02.999Z</time></trkpt><trkpt lat="44.861438159364866" lon="9.857192691847668"><ele>236.33333333333331</ele><time>2026-04-26T06:46:04.999Z</time></trkpt><trkpt lat="44.861361570414616" lon="9.857165144849288"><ele>237.16666666666666</ele><time>2026-04-26T06:46:06.999Z</time></trkpt><trkpt lat="44.86128549640518" lon="9.857137684277493"><ele>238.0</ele><time>2026-04-26T06:46:08.999Z</time></trkpt><trkpt lat="44.861208129091814" lon="9.857108944139467"><ele>237.99999999999997</ele><time>2026-04-26T06:46:10.999Z</time></trkpt><trkpt lat="44.86112744683793" lon="9.857080480926452"><ele>238.0</ele><time>2026-04-26T06:46:12.999Z</time></trkpt><trkpt lat="44.861044599828595" lon="9.857053103632785"><ele>238.0</ele><time>2026-04-26T06:46:14.999Z</time></trkpt><trkpt lat="44.86095827030503" lon="9.857023220087159"><ele>238.0</ele><time>2026-04-26T06:46:16.999Z</time></trkpt><trkpt lat="44.86087440251793" lon="9.856996651436859"><ele>237.99999999999997</ele><time>2026-04-26T06:46:18.999Z</time></trkpt><trkpt lat="44.86078819707336" lon="9.856969034655151"><ele>238.0</ele><time>2026-04-26T06:46:20.999Z</time></trkpt><trkpt lat="44.86070310536199" lon="9.856939576191763"><ele>238.16666666666666</ele><time>2026-04-26T06:46:22.998Z</time></trkpt><trkpt lat="44.860619903831925" lon="9.856908458175932"><ele>238.33333333333331</ele><time>2026-04-26T06:46:24.998Z</time></trkpt><trkpt lat="44.860535058663096" lon="9.85687922079651"><ele>238.5</ele><time>2026-04-26T06:46:26.998Z</time></trkpt><trkpt lat="44.86045164132417" lon="9.856849500045847"><ele>238.66666666666669</ele><time>2026-04-26T06:46:28.998Z</time></trkpt><trkpt lat="44.860369529696094" lon="9.856823277012492"><ele>238.83333333333334</ele><time>2026-04-26T06:46:30.998Z</time></trkpt><trkpt lat="44.860287676583" lon="9.856798802203254"><ele>239.0</ele><time>2026-04-26T06:46:32.998Z</time></trkpt><trkpt lat="44.86020755441637" lon="9.856772426597471"><ele>239.00000000000003</ele><time>2026-04-26T06:46:34.998Z</time></trkpt><trkpt lat="44.86012717130136" lon="9.856746775929937"><ele>239.0</ele><time>2026-04-26T06:46:36.998Z</time></trkpt><trkpt lat="44.860047976336055" lon="9.856718122698263"><ele>239.0</ele><time>2026-04-26T06:46:39Z</time></trkpt><trkpt lat="44.85997165423653" lon="9.856690865881365"><ele>239.0</ele><time>2026-04-26T06:46:41Z</time></trkpt><trkpt lat="44.859895379610045" lon="9.85666401236349"><ele>239.00000000000003</ele><time>2026-04-26T06:46:43Z</time></trkpt><trkpt lat="44.85981426036246" lon="9.856641939993565"><ele>239.0</ele><time>2026-04-26T06:46:45Z</time></trkpt><trkpt lat="44.8597320003131" lon="9.856616627328096"><ele>239.66666666666669</ele><time>2026-04-26T06:46:47Z</time></trkpt><trkpt lat="44.859649638117475" lon="9.856586845114402"><ele>240.33333333333334</ele><time>2026-04-26T06:46:49Z</time></trkpt><trkpt lat="44.85956884083843" lon="9.856565326204995"><ele>241.0</ele><time>2026-04-26T06:46:51Z</time></trkpt><trkpt lat="44.859485781257305" lon="9.856536062602814"><ele>241.66666666666669</ele><time>2026-04-26T06:46:53Z</time></trkpt><trkpt lat="44.85940441568529" lon="9.856507932895788"><ele>242.33333333333334</ele><time>2026-04-26T06:46:55Z</time></trkpt><trkpt lat="44.859326565195396" lon="9.856479786822753"><ele>243.0</ele><time>2026-04-26T06:46:57Z</time></trkpt><trkpt lat="44.859249758215064" lon="9.856451518062965"><ele>244.33333333333334</ele><time>2026-04-26T06:46:59Z</time></trkpt><trkpt lat="44.8591731967364" lon="9.85642555421075"><ele>245.66666666666669</ele><time>2026-04-26T06:47:01Z</time></trkpt><trkpt lat="44.859095301669434" lon="9.85640012266621"><ele>247.0</ele><time>2026-04-26T06:47:03Z</time></trkpt><trkpt lat="44.85901538951653" lon="9.856372385645711"><ele>248.33333333333334</ele><time>2026-04-26T06:47:05Z</time></trkpt><trkpt lat="44.858934920570626" lon="9.856346204297527"><ele>249.66666666666669</ele><time>2026-04-26T06:47:07Z</time></trkpt><trkpt lat="44.858855625191474" lon="9.856318679826769"><ele>251.0</ele><time>2026-04-26T06:47:09Z</time></trkpt><trkpt lat="44.85877649909678" lon="9.85629307705451"><ele>251.00000000000003</ele><time>2026-04-26T06:47:11Z</time></trkpt><trkpt lat="44.85869713570277" lon="9.856266527557862"><ele>251.0</ele><time>2026-04-26T06:47:13Z</time></trkpt><trkpt lat="44.85862108441789" lon="9.856237974259695"><ele>251.0</ele><time>2026-04-26T06:47:15Z</time></trkpt><trkpt lat="44.85854278669183" lon="9.85621009054415"><ele>251.0</ele><time>2026-04-26T06:47:17Z</time></trkpt><trkpt lat="44.858460556506294" lon="9.856186508253344"><ele>251.00000000000003</ele><time>2026-04-26T06:47:19Z</time></trkpt><trkpt lat="44.85837644995274" lon="9.856159038771478"><ele>251.0</ele><time>2026-04-26T06:47:21Z</time></trkpt><trkpt lat="44.858289143688026" lon="9.85612625258181"><ele>251.66666666666669</ele><time>2026-04-26T06:47:23Z</time></trkpt><trkpt lat="44.858203757438595" lon="9.85609335786954"><ele>252.33333333333334</ele><time>2026-04-26T06:47:25Z</time></trkpt><trkpt lat="44.858118071885144" lon="9.856059327963443"><ele>253.0</ele><time>2026-04-26T06:47:27Z</time></trkpt><trkpt lat="44.85803546678772" lon="9.856021077017191"><ele>253.66666666666669</ele><time>2026-04-26T06:47:29Z</time></trkpt><trkpt lat="44.85795378914872" lon="9.855981847274194"><ele>254.33333333333334</ele><time>2026-04-26T06:47:31Z</time></trkpt><trkpt lat="44.85787244906155" lon="9.855940236020436"><ele>255.0</ele><time>2026-04-26T06:47:33Z</time></trkpt><trkpt lat="44.85779061677374" lon="9.855895588988133"><ele>255.0</ele><time>2026-04-26T06:47:34.999Z</time></trkpt><trkpt lat="44.85770977533162" lon="9.855848492142263"><ele>255.0</ele><time>2026-04-26T06:47:36.999Z</time></trkpt><trkpt lat="44.857628518118474" lon="9.855796111663663"><ele>255.0</ele><time>2026-04-26T06:47:38.999Z</time></trkpt><trkpt lat="44.857545658750134" lon="9.855749777073274"><ele>255.0</ele><time>2026-04-26T06:47:40.999Z</time></trkpt><trkpt lat="44.85746448642155" lon="9.855698553316055"><ele>255.0</ele><time>2026-04-26T06:47:42.999Z</time></trkpt><trkpt lat="44.857381418938495" lon="9.8556518153524"><ele>255.0</ele><time>2026-04-26T06:47:44.999Z</time></trkpt><trkpt lat="44.857296585913986" lon="9.855602645861772"><ele>255.6</ele><time>2026-04-26T06:47:46.999Z</time></trkpt><trkpt lat="44.857205378688604" lon="9.855565000471568"><ele>256.2</ele><time>2026-04-26T06:47:48.999Z</time></trkpt><trkpt lat="44.857110198993084" lon="9.855528645646684"><ele>256.8</ele><time>2026-04-26T06:47:50.999Z</time></trkpt><trkpt lat="44.85701651737151" lon="9.855500235598004"><ele>257.4</ele><time>2026-04-26T06:47:52.999Z</time></trkpt><trkpt lat="44.856916909478876" lon="9.855478004878101"><ele>258.0</ele><time>2026-04-26T06:47:54.999Z</time></trkpt><trkpt lat="44.85681423681518" lon="9.855465592105283"><ele>258.6</ele><time>2026-04-26T06:47:56.999Z</time></trkpt><trkpt lat="44.85671249093197" lon="9.855465975908542"><ele>259.20000000000005</ele><time>2026-04-26T06:47:58.999Z</time></trkpt><trkpt lat="44.85660994607902" lon="9.855488658114888"><ele>259.8</ele><time>2026-04-26T06:48:00.999Z</time></trkpt><trkpt lat="44.856507255438785" lon="9.855518029168486"><ele>260.40000000000003</ele><time>2026-04-26T06:48:02.999Z</time></trkpt><trkpt lat="44.85639753992229" lon="9.855569596002642"><ele>261.0</ele><time>2026-04-26T06:48:04.999Z</time></trkpt><trkpt lat="44.856299554389174" lon="9.8556014296264"><ele>261.0</ele><time>2026-04-26T06:48:06.999Z</time></trkpt><trkpt lat="44.856202284160844" lon="9.855642482686978"><ele>261.0</ele><time>2026-04-26T06:48:08.999Z</time></trkpt><trkpt lat="44.85610734034118" lon="9.855687019402783"><ele>261.0</ele><time>2026-04-26T06:48:10.999Z</time></trkpt><trkpt lat="44.85602010555664" lon="9.855731647917855"><ele>261.0</ele><time>2026-04-26T06:48:12.999Z</time></trkpt><trkpt lat="44.85592990507405" lon="9.855777876648519"><ele>261.0</ele><time>2026-04-26T06:48:14.999Z</time></trkpt><trkpt lat="44.85584565833267" lon="9.855830538999774"><ele>261.5</ele><time>2026-04-26T06:48:16.999Z</time></trkpt><trkpt lat="44.85576150498993" lon="9.855878016344825"><ele>262.0</ele><time>2026-04-26T06:48:18.999Z</time></trkpt><trkpt lat="44.855677842877384" lon="9.855923986706687"><ele>262.5</ele><time>2026-04-26T06:48:20.999Z</time></trkpt><trkpt lat="44.855595252404584" lon="9.855967876918687"><ele>263.0</ele><time>2026-04-26T06:48:22.999Z</time></trkpt><trkpt lat="44.85551670583697" lon="9.856000480651282"><ele>263.5</ele><time>2026-04-26T06:48:24.999Z</time></trkpt><trkpt lat="44.85544282700971" lon="9.856053244178245"><ele>264.0</ele><time>2026-04-26T06:48:26.998Z</time></trkpt><trkpt lat="44.85536902522518" lon="9.856099090274054"><ele>264.0</ele><time>2026-04-26T06:48:28.998Z</time></trkpt><trkpt lat="44.8552950345898" lon="9.8561531084424"><ele>264.0</ele><time>2026-04-26T06:48:30.998Z</time></trkpt><trkpt lat="44.85522003439242" lon="9.856197509668615"><ele>264.0</ele><time>2026-04-26T06:48:32.998Z</time></trkpt><trkpt lat="44.85514458675621" lon="9.856235611732963"><ele>264.0</ele><time>2026-04-26T06:48:34.998Z</time></trkpt><trkpt lat="44.85506614229251" lon="9.856263571342422"><ele>264.0</ele><time>2026-04-26T06:48:36.998Z</time></trkpt><trkpt lat="44.854990923317764" lon="9.856296867617518"><ele>264.0</ele><time>2026-04-26T06:48:38.998Z</time></trkpt><trkpt lat="44.85491141064368" lon="9.856322410515581"><ele>264.8333333333333</ele><time>2026-04-26T06:48:40.998Z</time></trkpt><trkpt lat="44.854830771723236" lon="9.856344973387259"><ele>265.6666666666667</ele><time>2026-04-26T06:48:42.998Z</time></trkpt><trkpt lat="44.85474504883563" lon="9.856361938607932"><ele>266.5</ele><time>2026-04-26T06:48:45Z</time></trkpt><trkpt lat="44.854658654223236" lon="9.856377879775197"><ele>267.33333333333337</ele><time>2026-04-26T06:48:47Z</time></trkpt><trkpt lat="44.85457307949735" lon="9.856391906010263"><ele>268.1666666666667</ele><time>2026-04-26T06:48:49Z</time></trkpt><trkpt lat="44.85448834993046" lon="9.856399022579884"><ele>269.0</ele><time>2026-04-26T06:48:51Z</time></trkpt><trkpt lat="44.85440392737522" lon="9.856402537856761"><ele>269.0</ele><time>2026-04-26T06:48:53Z</time></trkpt><trkpt lat="44.854317081390064" lon="9.856411026896186"><ele>269.0</ele><time>2026-04-26T06:48:55Z</time></trkpt><trkpt lat="44.8542331953137" lon="9.856408564811009"><ele>269.0</ele><time>2026-04-26T06:48:57Z</time></trkpt><trkpt lat="44.85414896117313" lon="9.856405559464681"><ele>269.0</ele><time>2026-04-26T06:48:59Z</time></trkpt><trkpt lat="44.854063879488265" lon="9.856402657899148"><ele>269.0</ele><time>2026-04-26T06:49:01Z</time></trkpt><trkpt lat="44.85398014655755" lon="9.856397418253458"><ele>269.0</ele><time>2026-04-26T06:49:03Z</time></trkpt><trkpt lat="44.85389571527643" lon="9.856382848084104"><ele>269.6666666666667</ele><time>2026-04-26T06:49:05Z</time></trkpt><trkpt lat="44.85381360945292" lon="9.856367078563556"><ele>270.33333333333337</ele><time>2026-04-26T06:49:07Z</time></trkpt><trkpt lat="44.85372921122599" lon="9.856353341997789"><ele>271.0</ele><time>2026-04-26T06:49:09Z</time></trkpt><trkpt lat="44.85364619636605" lon="9.856334592241316"><ele>271.6666666666667</ele><time>2026-04-26T06:49:11Z</time></trkpt><trkpt lat="44.85356199509376" lon="9.856315972029096"><ele>272.3333333333333</ele><time>2026-04-26T06:49:13Z</time></trkpt><trkpt lat="44.853475463808905" lon="9.856298291159266"><ele>273.0</ele><time>2026-04-26T06:49:15Z</time></trkpt><trkpt lat="44.85338969372362" lon="9.856268483130622"><ele>273.4</ele><time>2026-04-26T06:49:17Z</time></trkpt><trkpt lat="44.853300543464236" lon="9.856244211994031"><ele>273.8</ele><time>2026-04-26T06:49:19Z</time></trkpt><trkpt lat="44.85320894855964" lon="9.856212894749625"><ele>274.2</ele><time>2026-04-26T06:49:21Z</time></trkpt><trkpt lat="44.85311662143121" lon="9.856181213310695"><ele>274.6</ele><time>2026-04-26T06:49:23Z</time></trkpt><trkpt lat="44.85302659368852" lon="9.85614999110413"><ele>275.0</ele><time>2026-04-26T06:49:25Z</time></trkpt><trkpt lat="44.8529362508328" lon="9.856121898550498"><ele>275.0</ele><time>2026-04-26T06:49:27Z</time></trkpt><trkpt lat="44.852846351057565" lon="9.856097011025417"><ele>275.0</ele><time>2026-04-26T06:49:29Z</time></trkpt><trkpt lat="44.8527557161086" lon="9.856073623764045"><ele>275.0</ele><time>2026-04-26T06:49:31Z</time></trkpt><trkpt lat="44.8526674967129" lon="9.856053462252495"><ele>275.0</ele><time>2026-04-26T06:49:33Z</time></trkpt><trkpt lat="44.852573622182966" lon="9.856038253913509"><ele>275.0</ele><time>2026-04-26T06:49:35Z</time></trkpt><trkpt lat="44.85248030043292" lon="9.856025186037218"><ele>274.6</ele><time>2026-04-26T06:49:37Z</time></trkpt><trkpt lat="44.85238429921229" lon="9.856017687801485"><ele>274.2</ele><time>2026-04-26T06:49:38.999Z</time></trkpt><trkpt lat="44.852285413173824" lon="9.856011266821262"><ele>273.8</ele><time>2026-04-26T06:49:40.999Z</time></trkpt><trkpt lat="44.85218599633862" lon="9.856009990084502"><ele>273.4</ele><time>2026-04-26T06:49:42.999Z</time></trkpt><trkpt lat="44.8520884273338" lon="9.856002682647242"><ele>273.0</ele><time>2026-04-26T06:49:44.999Z</time></trkpt><trkpt lat="44.85198917515787" lon="9.855987388782506"><ele>273.0</ele><time>2026-04-26T06:49:46.999Z</time></trkpt><trkpt lat="44.85189361177741" lon="9.855967498370735"><ele>273.0</ele><time>2026-04-26T06:49:48.999Z</time></trkpt><trkpt lat="44.85180461383616" lon="9.855940598568484"><ele>273.0</ele><time>2026-04-26T06:49:50.999Z</time></trkpt><trkpt lat="44.851727331448686" lon="9.855925896145163"><ele>273.0</ele><time>2026-04-26T06:49:52.999Z</time></trkpt><trkpt lat="44.851654047402164" lon="9.855908178742107"><ele>273.0</ele><time>2026-04-26T06:49:54.999Z</time></trkpt><trkpt lat="44.8515826606528" lon="9.855895448452895"><ele>273.0</ele><time>2026-04-26T06:49:56.999Z</time></trkpt><trkpt lat="44.8515189784746" lon="9.855890841346389"><ele>274.42857142857144</ele><time>2026-04-26T06:49:58.999Z</time></trkpt><trkpt lat="44.85145595543816" lon="9.855867655060209"><ele>275.8571428571429</ele><time>2026-04-26T06:50:00.999Z</time></trkpt><trkpt lat="44.851367632382406" lon="9.855851608770148"><ele>277.2857142857143</ele><time>2026-04-26T06:50:03.999Z</time></trkpt><trkpt lat="44.85129020227164" lon="9.855823099935801"><ele>278.7142857142857</ele><time>2026-04-26T06:50:06.999Z</time></trkpt><trkpt lat="44.8512234708614" lon="9.855806613587424"><ele>280.14285714285717</ele><time>2026-04-26T06:50:08.999Z</time></trkpt><trkpt lat="44.851154633787445" lon="9.855799704406246"><ele>281.57142857142856</ele><time>2026-04-26T06:50:10.999Z</time></trkpt><trkpt lat="44.851079701364185" lon="9.855769316579158"><ele>283.0</ele><time>2026-04-26T06:50:12.999Z</time></trkpt><trkpt lat="44.85099299341459" lon="9.855742777916552"><ele>282.8333333333333</ele><time>2026-04-26T06:50:14.999Z</time></trkpt><trkpt lat="44.850914783710195" lon="9.855715124321653"><ele>282.66666666666663</ele><time>2026-04-26T06:50:16.999Z</time></trkpt><trkpt lat="44.85084034077009" lon="9.855690063204163"><ele>282.5</ele><time>2026-04-26T06:50:18.999Z</time></trkpt><trkpt lat="44.850768350853585" lon="9.855690897607154"><ele>282.3333333333333</ele><time>2026-04-26T06:50:20.999Z</time></trkpt><trkpt lat="44.85070231912095" lon="9.855708250584314"><ele>282.1666666666667</ele><time>2026-04-26T06:50:22.999Z</time></trkpt><trkpt lat="44.85063848417635" lon="9.855774832948507"><ele>282.0</ele><time>2026-04-26T06:50:24.999Z</time></trkpt><trkpt lat="44.85055552250835" lon="9.855843932382179"><ele>282.0</ele><time>2026-04-26T06:50:26.999Z</time></trkpt><trkpt lat="44.850467963329876" lon="9.855929468723705"><ele>282.0</ele><time>2026-04-26T06:50:28.999Z</time></trkpt><trkpt lat="44.850380078712476" lon="9.856033071329087"><ele>282.0</ele><time>2026-04-26T06:50:30.999Z</time></trkpt><trkpt lat="44.85029339477972" lon="9.856162584003165"><ele>282.0</ele><time>2026-04-26T06:50:32.998Z</time></trkpt><trkpt lat="44.850249648253154" lon="9.856234056503633"><ele>282.0</ele><time>2026-04-26T06:50:33.998Z</time></trkpt><trkpt lat="44.85020659578743" lon="9.85630812988293"><ele>280.7142857142857</ele><time>2026-04-26T06:50:34.998Z</time></trkpt><trkpt lat="44.85016281365979" lon="9.856385514457797"><ele>279.42857142857144</ele><time>2026-04-26T06:50:35.998Z</time></trkpt><trkpt lat="44.85012254682621" lon="9.856468742358762"><ele>278.1428571428571</ele><time>2026-04-26T06:50:36.998Z</time></trkpt><trkpt lat="44.85008230896333" lon="9.856555705863538"><ele>276.8571428571429</ele><time>2026-04-26T06:50:37.998Z</time></trkpt><trkpt lat="44.85004523918867" lon="9.856650050045896"><ele>275.57142857142856</ele><time>2026-04-26T06:50:38.998Z</time></trkpt><trkpt lat="44.850010160363524" lon="9.856745639729919"><ele>274.2857142857143</ele><time>2026-04-26T06:50:39.998Z</time></trkpt><trkpt lat="44.84997664221879" lon="9.856840523681592"><ele>273.0</ele><time>2026-04-26T06:50:40.998Z</time></trkpt><trkpt lat="44.849939740745924" lon="9.85693402295544"><ele>273.0</ele><time>2026-04-26T06:50:41.998Z</time></trkpt><trkpt lat="44.849898874600996" lon="9.857032222071526"><ele>273.0</ele><time>2026-04-26T06:50:42.998Z</time></trkpt><trkpt lat="44.84986528539543" lon="9.8571321121412"><ele>273.0</ele><time>2026-04-26T06:50:43.998Z</time></trkpt><trkpt lat="44.84982665718128" lon="9.857233015577421"><ele>273.0</ele><time>2026-04-26T06:50:44.998Z</time></trkpt><trkpt lat="44.849788565620756" lon="9.857334509411897"><ele>273.0</ele><time>2026-04-26T06:50:45.998Z</time></trkpt><trkpt lat="44.84975123798836" lon="9.857435962170724"><ele>273.0</ele><time>2026-04-26T06:50:46.998Z</time></trkpt><trkpt lat="44.849713474787656" lon="9.857534407039141"><ele>272.0</ele><time>2026-04-26T06:50:47.998Z</time></trkpt><trkpt lat="44.849678623299795" lon="9.857631666245293"><ele>271.0</ele><time>2026-04-26T06:50:48.998Z</time></trkpt><trkpt lat="44.849640378260375" lon="9.857733334996347"><ele>270.0</ele><time>2026-04-26T06:50:50Z</time></trkpt><trkpt lat="44.84960141543491" lon="9.857834949941449"><ele>269.0</ele><time>2026-04-26T06:50:51Z</time></trkpt><trkpt lat="44.84956526692117" lon="9.857940091504455"><ele>268.0</ele><time>2026-04-26T06:50:52Z</time></trkpt><trkpt lat="44.849531277025974" lon="9.858047830355982"><ele>267.0</ele><time>2026-04-26T06:50:53Z</time></trkpt><trkpt lat="44.84949679807684" lon="9.858156095585505"><ele>267.0</ele><time>2026-04-26T06:50:54Z</time></trkpt><trkpt lat="44.84946579921032" lon="9.85826582177755"><ele>267.0</ele><time>2026-04-26T06:50:55Z</time></trkpt><trkpt lat="44.84943639725948" lon="9.858379854520347"><ele>267.0</ele><time>2026-04-26T06:50:56Z</time></trkpt><trkpt lat="44.84940782742764" lon="9.85849388218451"><ele>267.0</ele><time>2026-04-26T06:50:57Z</time></trkpt><trkpt lat="44.849390425826826" lon="9.858613240792735"><ele>267.0</ele><time>2026-04-26T06:50:58Z</time></trkpt><trkpt lat="44.84937806420502" lon="9.8587353016616"><ele>267.0</ele><time>2026-04-26T06:50:59Z</time></trkpt><trkpt lat="44.84936503468464" lon="9.858857748262706"><ele>266.3333333333333</ele><time>2026-04-26T06:51:00Z</time></trkpt><trkpt lat="44.8493567428892" lon="9.85898435119618"><ele>265.6666666666667</ele><time>2026-04-26T06:51:01Z</time></trkpt><trkpt lat="44.84935455594364" lon="9.859108867177216"><ele>265.0</ele><time>2026-04-26T06:51:02Z</time></trkpt><trkpt lat="44.8493405151795" lon="9.859226195055095"><ele>264.33333333333337</ele><time>2026-04-26T06:51:03Z</time></trkpt><trkpt lat="44.84931321101022" lon="9.859346404271971"><ele>263.6666666666667</ele><time>2026-04-26T06:51:04Z</time></trkpt><trkpt lat="44.84927393830775" lon="9.85946141905196"><ele>263.0</ele><time>2026-04-26T06:51:05Z</time></trkpt><trkpt lat="44.84922432500557" lon="9.859566830535256"><ele>263.0</ele><time>2026-04-26T06:51:06Z</time></trkpt><trkpt lat="44.8491653014455" lon="9.859672857746387"><ele>263.0</ele><time>2026-04-26T06:51:07Z</time></trkpt><trkpt lat="44.84909390402011" lon="9.859768819707693"><ele>263.0</ele><time>2026-04-26T06:51:08Z</time></trkpt><trkpt lat="44.84901389044939" lon="9.859854288115436"><ele>263.0</ele><time>2026-04-26T06:51:09Z</time></trkpt><trkpt lat="44.848929281728765" lon="9.859937313550718"><ele>263.0</ele><time>2026-04-26T06:51:10Z</time></trkpt><trkpt lat="44.84884610967967" lon="9.860019229595695"><ele>263.0</ele><time>2026-04-26T06:51:11Z</time></trkpt><trkpt lat="44.84875902365524" lon="9.860100101769644"><ele>263.0</ele><time>2026-04-26T06:51:12Z</time></trkpt><trkpt lat="44.84867689972274" lon="9.860191240257564"><ele>263.0</ele><time>2026-04-26T06:51:13Z</time></trkpt><trkpt lat="44.8486076886618" lon="9.860294495782172"><ele>263.0</ele><time>2026-04-26T06:51:14Z</time></trkpt><trkpt lat="44.848554482127994" lon="9.860403306496698"><ele>263.0</ele><time>2026-04-26T06:51:15Z</time></trkpt><trkpt lat="44.848515188790635" lon="9.860519636672274"><ele>262.2</ele><time>2026-04-26T06:51:16Z</time></trkpt><trkpt lat="44.84849481714987" lon="9.86064910165592"><ele>261.4</ele><time>2026-04-26T06:51:17Z</time></trkpt><trkpt lat="44.84849004481071" lon="9.860796511579048"><ele>260.59999999999997</ele><time>2026-04-26T06:51:18Z</time></trkpt><trkpt lat="44.848496521587975" lon="9.86095172302294"><ele>259.8</ele><time>2026-04-26T06:51:19Z</time></trkpt><trkpt lat="44.84851373410278" lon="9.861103782204887"><ele>259.0</ele><time>2026-04-26T06:51:20Z</time></trkpt><trkpt lat="44.848542315618175" lon="9.861247513863873"><ele>254.75</ele><time>2026-04-26T06:51:21Z</time></trkpt><trkpt lat="44.84855772608796" lon="9.86140857386239"><ele>250.5</ele><time>2026-04-26T06:51:22Z</time></trkpt><trkpt lat="44.84859551998203" lon="9.861564036813496"><ele>246.25</ele><time>2026-04-26T06:51:23Z</time></trkpt><trkpt lat="44.8486323552492" lon="9.861713623575412"><ele>242.0</ele><time>2026-04-26T06:51:24Z</time></trkpt><trkpt lat="44.84867449334562" lon="9.861866055662988"><ele>239.0</ele><time>2026-04-26T06:51:25Z</time></trkpt><trkpt lat="44.84872511629117" lon="9.86201232296094"><ele>236.0</ele><time>2026-04-26T06:51:26Z</time></trkpt><trkpt lat="44.84877445713064" lon="9.862156839078883"><ele>233.0</ele><time>2026-04-26T06:51:27Z</time></trkpt><trkpt lat="44.84883598571055" lon="9.86229136210301"><ele>230.0</ele><time>2026-04-26T06:51:28Z</time></trkpt><trkpt lat="44.848874343316" lon="9.862446203697788"><ele>230.0</ele><time>2026-04-26T06:51:29Z</time></trkpt><trkpt lat="44.848897612979705" lon="9.862599934544171"><ele>230.0</ele><time>2026-04-26T06:51:30Z</time></trkpt><trkpt lat="44.84893251807717" lon="9.862741963573539"><ele>230.0</ele><time>2026-04-26T06:51:31Z</time></trkpt><trkpt lat="44.84896591305699" lon="9.862875031592175"><ele>230.0</ele><time>2026-04-26T06:51:32Z</time></trkpt><trkpt lat="44.84899659662983" lon="9.862997295628693"><ele>230.0</ele><time>2026-04-26T06:51:33Z</time></trkpt><trkpt lat="44.849023964614595" lon="9.863106348167776"><ele>228.6</ele><time>2026-04-26T06:51:34Z</time></trkpt><trkpt lat="44.84904576606916" lon="9.863193219560268"><ele>227.2</ele><time>2026-04-26T06:51:35Z</time></trkpt><trkpt lat="44.84908437074227" lon="9.8632678504909"><ele>225.8</ele><time>2026-04-26T06:51:36Z</time></trkpt><trkpt lat="44.84916388122059" lon="9.86336451330464"><ele>224.4</ele><time>2026-04-26T06:51:38Z</time></trkpt><trkpt lat="44.84927867955537" lon="9.863332646168868"><ele>223.0</ele><time>2026-04-26T06:51:40Z</time></trkpt><trkpt lat="44.84937395325464" lon="9.863271115903968"><ele>223.0</ele><time>2026-04-26T06:51:42Z</time></trkpt><trkpt lat="44.849456023548804" lon="9.863195924362376"><ele>223.0</ele><time>2026-04-26T06:51:43.999Z</time></trkpt><trkpt lat="44.84953953349203" lon="9.863104232296447"><ele>223.0</ele><time>2026-04-26T06:51:45.999Z</time></trkpt><trkpt lat="44.84962380663244" lon="9.863012439865482"><ele>223.0</ele><time>2026-04-26T06:51:47.999Z</time></trkpt><trkpt lat="44.84970906408595" lon="9.862906557623361"><ele>223.0</ele><time>2026-04-26T06:51:49.999Z</time></trkpt><trkpt lat="44.84978276120504" lon="9.862760918428792"><ele>222.99999999999997</ele><time>2026-04-26T06:51:51.999Z</time></trkpt><trkpt lat="44.84981828416208" lon="9.86267111364448"><ele>223.0</ele><time>2026-04-26T06:51:52.999Z</time></trkpt><trkpt lat="44.849858253013934" lon="9.862575267215652"><ele>223.0</ele><time>2026-04-26T06:51:53.999Z</time></trkpt><trkpt lat="44.84989511433477" lon="9.86246981246657"><ele>223.0</ele><time>2026-04-26T06:51:54.999Z</time></trkpt><trkpt lat="44.8499307427125" lon="9.862360918360622"><ele>222.99999999999997</ele><time>2026-04-26T06:51:55.999Z</time></trkpt><trkpt lat="44.849970218031544" lon="9.86225216874488"><ele>223.0</ele><time>2026-04-26T06:51:56.999Z</time></trkpt><trkpt lat="44.85001038474532" lon="9.862145385865238"><ele>222.42857142857142</ele><time>2026-04-26T06:51:57.999Z</time></trkpt><trkpt lat="44.85005674826693" lon="9.862049621867248"><ele>221.85714285714283</ele><time>2026-04-26T06:51:58.999Z</time></trkpt><trkpt lat="44.85010843804926" lon="9.861957978125588"><ele>221.28571428571428</ele><time>2026-04-26T06:51:59.999Z</time></trkpt><trkpt lat="44.85015959595006" lon="9.861898125727096"><ele>220.71428571428572</ele><time>2026-04-26T06:52:00.999Z</time></trkpt><trkpt lat="44.85021892975922" lon="9.861859047869515"><ele>220.14285714285714</ele><time>2026-04-26T06:52:01.999Z</time></trkpt><trkpt lat="44.85028774309224" lon="9.86184177183526"><ele>219.57142857142858</ele><time>2026-04-26T06:52:02.999Z</time></trkpt><trkpt lat="44.85035389597472" lon="9.861875984127929"><ele>219.0</ele><time>2026-04-26T06:52:03.999Z</time></trkpt><trkpt lat="44.85040624011982" lon="9.861960673023303"><ele>219.0</ele><time>2026-04-26T06:52:04.999Z</time></trkpt><trkpt lat="44.850395133454285" lon="9.86209269037696"><ele>218.99999999999997</ele><time>2026-04-26T06:52:05.999Z</time></trkpt><trkpt lat="44.85040797047963" lon="9.862207798083004"><ele>218.99999999999997</ele><time>2026-04-26T06:52:06.999Z</time></trkpt><trkpt lat="44.850419530155804" lon="9.862327759855688"><ele>219.0</ele><time>2026-04-26T06:52:07.999Z</time></trkpt><trkpt lat="44.85043897547321" lon="9.86245462899932"><ele>219.0</ele><time>2026-04-26T06:52:08.999Z</time></trkpt><trkpt lat="44.850498078399866" lon="9.862571314618"><ele>217.79999999999998</ele><time>2026-04-26T06:52:09.999Z</time></trkpt><trkpt lat="44.85055135306158" lon="9.862693752914918"><ele>216.59999999999997</ele><time>2026-04-26T06:52:10.999Z</time></trkpt><trkpt lat="44.850617109514566" lon="9.862811207144285"><ele>215.4</ele><time>2026-04-26T06:52:11.999Z</time></trkpt><trkpt lat="44.85068774183021" lon="9.862937880013636"><ele>214.2</ele><time>2026-04-26T06:52:12.999Z</time></trkpt><trkpt lat="44.850755000865384" lon="9.863064548678405"><ele>213.0</ele><time>2026-04-26T06:52:13.999Z</time></trkpt><trkpt lat="44.85081811021189" lon="9.863193984793917"><ele>213.0</ele><time>2026-04-26T06:52:14.999Z</time></trkpt><trkpt lat="44.850882394061436" lon="9.863325485958107"><ele>213.0</ele><time>2026-04-26T06:52:15.999Z</time></trkpt><trkpt lat="44.85092630305917" lon="9.8634742150572"><ele>213.0</ele><time>2026-04-26T06:52:16.999Z</time></trkpt><trkpt lat="44.85098745529184" lon="9.86360876345139"><ele>213.0</ele><time>2026-04-26T06:52:17.999Z</time></trkpt><trkpt lat="44.85102714404198" lon="9.863763074122824"><ele>213.4</ele><time>2026-04-26T06:52:18.999Z</time></trkpt><trkpt lat="44.851040294484626" lon="9.863919181227418"><ele>213.8</ele><time>2026-04-26T06:52:19.999Z</time></trkpt><trkpt lat="44.851056376889055" lon="9.86406550724944"><ele>214.2</ele><time>2026-04-26T06:52:20.999Z</time></trkpt><trkpt lat="44.8510711269452" lon="9.864216235256926"><ele>214.6</ele><time>2026-04-26T06:52:21.999Z</time></trkpt><trkpt lat="44.85108599551208" lon="9.864368174953375"><ele>215.0</ele><time>2026-04-26T06:52:22.999Z</time></trkpt><trkpt lat="44.85110392614629" lon="9.864522860954818"><ele>211.25</ele><time>2026-04-26T06:52:23.999Z</time></trkpt><trkpt lat="44.85113511937012" lon="9.864676219309292"><ele>207.5</ele><time>2026-04-26T06:52:24.999Z</time></trkpt><trkpt lat="44.8511903918408" lon="9.864823240999874"><ele>203.75</ele><time>2026-04-26T06:52:25.999Z</time></trkpt><trkpt lat="44.85127507955963" lon="9.864945689642747"><ele>200.0</ele><time>2026-04-26T06:52:26.999Z</time></trkpt><trkpt lat="44.85134779287094" lon="9.865091218766139"><ele>199.25</ele><time>2026-04-26T06:52:27.999Z</time></trkpt><trkpt lat="44.85142760085152" lon="9.86523528030961"><ele>198.5</ele><time>2026-04-26T06:52:28.999Z</time></trkpt><trkpt lat="44.85150626798464" lon="9.865388517615559"><ele>197.75</ele><time>2026-04-26T06:52:29.999Z</time></trkpt><trkpt lat="44.85159383622689" lon="9.865527370928655"><ele>197.0</ele><time>2026-04-26T06:52:30.999Z</time></trkpt><trkpt lat="44.851696464652434" lon="9.865645422467702"><ele>194.75</ele><time>2026-04-26T06:52:31.999Z</time></trkpt><trkpt lat="44.85181003250441" lon="9.865743600744516"><ele>192.5</ele><time>2026-04-26T06:52:32.999Z</time></trkpt><trkpt lat="44.851930955060574" lon="9.865822736092358"><ele>190.25</ele><time>2026-04-26T06:52:33.999Z</time></trkpt><trkpt lat="44.852054652497564" lon="9.86588443519442"><ele>188.0</ele><time>2026-04-26T06:52:34.999Z</time></trkpt><trkpt lat="44.85217436690334" lon="9.865950465990556"><ele>188.0</ele><time>2026-04-26T06:52:35.999Z</time></trkpt><trkpt lat="44.85228723376216" lon="9.866033826529046"><ele>188.0</ele><time>2026-04-26T06:52:36.998Z</time></trkpt><trkpt lat="44.85238080987018" lon="9.866149910497812"><ele>188.0</ele><time>2026-04-26T06:52:37.998Z</time></trkpt><trkpt lat="44.852482420049846" lon="9.866249029608005"><ele>188.0</ele><time>2026-04-26T06:52:38.998Z</time></trkpt><trkpt lat="44.8525565928914" lon="9.866370750243997"><ele>187.2</ele><time>2026-04-26T06:52:39.998Z</time></trkpt><trkpt lat="44.852630564140185" lon="9.866482719791119"><ele>186.4</ele><time>2026-04-26T06:52:40.998Z</time></trkpt><trkpt lat="44.85269838858928" lon="9.866588412280846"><ele>185.6</ele><time>2026-04-26T06:52:41.998Z</time></trkpt><trkpt lat="44.85276546728062" lon="9.866693929608342"><ele>184.79999999999998</ele><time>2026-04-26T06:52:42.998Z</time></trkpt><trkpt lat="44.85282949438255" lon="9.866800344649787"><ele>184.0</ele><time>2026-04-26T06:52:43.998Z</time></trkpt><trkpt lat="44.852893752792426" lon="9.866903186460073"><ele>182.6</ele><time>2026-04-26T06:52:44.998Z</time></trkpt><trkpt lat="44.85295653749959" lon="9.867003620249335"><ele>181.2</ele><time>2026-04-26T06:52:45.998Z</time></trkpt><trkpt lat="44.85301868247963" lon="9.867103061682334"><ele>179.79999999999998</ele><time>2026-04-26T06:52:46.998Z</time></trkpt><trkpt lat="44.85307717692652" lon="9.867203211525096"><ele>178.39999999999998</ele><time>2026-04-26T06:52:47.998Z</time></trkpt><trkpt lat="44.8531325200923" lon="9.867305047559293"><ele>177.0</ele><time>2026-04-26T06:52:48.998Z</time></trkpt><trkpt lat="44.85318986107975" lon="9.867401017509852"><ele>177.0</ele><time>2026-04-26T06:52:49.998Z</time></trkpt><trkpt lat="44.853251308335714" lon="9.867490202948762"><ele>177.0</ele><time>2026-04-26T06:52:50.998Z</time></trkpt><trkpt lat="44.85330501528784" lon="9.867594364418798"><ele>177.0</ele><time>2026-04-26T06:52:51.998Z</time></trkpt><trkpt lat="44.85336600316055" lon="9.867691219986517"><ele>177.0</ele><time>2026-04-26T06:52:52.998Z</time></trkpt><trkpt lat="44.85343854014785" lon="9.867779337571772"><ele>177.0</ele><time>2026-04-26T06:52:53.998Z</time></trkpt><trkpt lat="44.85350082320643" lon="9.867877722443417"><ele>176.39999999999998</ele><time>2026-04-26T06:52:54.998Z</time></trkpt><trkpt lat="44.85356691519997" lon="9.867973971151878"><ele>175.79999999999998</ele><time>2026-04-26T06:52:56Z</time></trkpt><trkpt lat="44.85363201913844" lon="9.86807187628629"><ele>175.2</ele><time>2026-04-26T06:52:57Z</time></trkpt><trkpt lat="44.85369614764597" lon="9.868175340303708"><ele>174.6</ele><time>2026-04-26T06:52:58Z</time></trkpt><trkpt lat="44.85376058037286" lon="9.868275846686357"><ele>174.0</ele><time>2026-04-26T06:52:59Z</time></trkpt><trkpt lat="44.85382633336651" lon="9.868377455717189"><ele>173.2</ele><time>2026-04-26T06:53:00Z</time></trkpt><trkpt lat="44.85389108961079" lon="9.868477535315703"><ele>172.39999999999998</ele><time>2026-04-26T06:53:01Z</time></trkpt><trkpt lat="44.853952458757135" lon="9.868584111362589"><ele>171.6</ele><time>2026-04-26T06:53:02Z</time></trkpt><trkpt lat="44.85401119429088" lon="9.868684147928663"><ele>170.8</ele><time>2026-04-26T06:53:03Z</time></trkpt><trkpt lat="44.8540779526137" lon="9.868773735095017"><ele>170.0</ele><time>2026-04-26T06:53:04Z</time></trkpt><trkpt lat="44.85415503994286" lon="9.868852769370733"><ele>170.0</ele><time>2026-04-26T06:53:05Z</time></trkpt><trkpt lat="44.854233914278566" lon="9.8689062159172"><ele>170.0</ele><time>2026-04-26T06:53:06Z</time></trkpt><trkpt lat="44.85430534596099" lon="9.868952941996357"><ele>170.0</ele><time>2026-04-26T06:53:07Z</time></trkpt><trkpt lat="44.854359570470855" lon="9.869006786709226"><ele>170.0</ele><time>2026-04-26T06:53:08Z</time></trkpt><trkpt lat="44.85443518681153" lon="9.869081384558626"><ele>170.0</ele><time>2026-04-26T06:53:10Z</time></trkpt><trkpt lat="44.854486471845455" lon="9.869134791677057"><ele>170.0</ele><time>2026-04-26T06:53:12Z</time></trkpt><trkpt lat="44.85454480037297" lon="9.869234358295238"><ele>169.25</ele><time>2026-04-26T06:53:15Z</time></trkpt><trkpt lat="44.85442190727944" lon="9.869478170188284"><ele>168.5</ele><time>2026-04-26T06:53:21Z</time></trkpt><trkpt lat="44.85435961326469" lon="9.869554053862373"><ele>167.75</ele><time>2026-04-26T06:53:23Z</time></trkpt><trkpt lat="44.85429065765868" lon="9.869642944969927"><ele>167.0</ele><time>2026-04-26T06:53:25Z</time></trkpt><trkpt lat="44.85420736650308" lon="9.869710712482775"><ele>166.39999999999998</ele><time>2026-04-26T06:53:27Z</time></trkpt><trkpt lat="44.85410116198144" lon="9.869768235275536"><ele>165.79999999999998</ele><time>2026-04-26T06:53:29Z</time></trkpt><trkpt lat="44.8539824968948" lon="9.869809682682554"><ele>165.2</ele><time>2026-04-26T06:53:31Z</time></trkpt><trkpt lat="44.85392092504541" lon="9.869830750012168"><ele>164.6</ele><time>2026-04-26T06:53:32Z</time></trkpt><trkpt lat="44.853801299727195" lon="9.869890301908413"><ele>164.0</ele><time>2026-04-26T06:53:34Z</time></trkpt><trkpt lat="44.85374307282888" lon="9.869941769557636"><ele>164.0</ele><time>2026-04-26T06:53:35Z</time></trkpt><trkpt lat="44.85368390040765" lon="9.87000025486435"><ele>164.0</ele><time>2026-04-26T06:53:36Z</time></trkpt><trkpt lat="44.85362866919757" lon="9.870069592569491"><ele>164.0</ele><time>2026-04-26T06:53:37Z</time></trkpt><trkpt lat="44.85358359989769" lon="9.870149220948583"><ele>164.0</ele><time>2026-04-26T06:53:38Z</time></trkpt><trkpt lat="44.85354381713883" lon="9.870230368194504"><ele>164.0</ele><time>2026-04-26T06:53:39Z</time></trkpt><trkpt lat="44.8534855460611" lon="9.870372066422316"><ele>164.0</ele><time>2026-04-26T06:53:41Z</time></trkpt><trkpt lat="44.85343266384427" lon="9.870466225966279"><ele>164.16666666666666</ele><time>2026-04-26T06:53:43Z</time></trkpt><trkpt lat="44.85335432610584" lon="9.87046778691304"><ele>164.33333333333331</ele><time>2026-04-26T06:53:46Z</time></trkpt><trkpt lat="44.85331644914345" lon="9.87036667374734"><ele>164.5</ele><time>2026-04-26T06:53:47.999Z</time></trkpt><trkpt lat="44.85327129681049" lon="9.870301291708499"><ele>164.66666666666666</ele><time>2026-04-26T06:53:49.999Z</time></trkpt><trkpt lat="44.85322006491268" lon="9.870230400997773"><ele>164.83333333333334</ele><time>2026-04-26T06:53:51.999Z</time></trkpt><trkpt lat="44.85315090599679" lon="9.870192597381378"><ele>165.0</ele><time>2026-04-26T06:53:53.999Z</time></trkpt><trkpt lat="44.85309953893602" lon="9.870106861907788"><ele>165.00000000000003</ele><time>2026-04-26T06:53:56.999Z</time></trkpt><trkpt lat="44.85302210013183" lon="9.870070004392959"><ele>165.0</ele><time>2026-04-26T06:53:59.999Z</time></trkpt><trkpt lat="44.852960362049494" lon="9.870050371809851"><ele>165.0</ele><time>2026-04-26T06:54:01.999Z</time></trkpt><trkpt lat="44.85289933212862" lon="9.870020370207456"><ele>165.0</ele><time>2026-04-26T06:54:03.999Z</time></trkpt><trkpt lat="44.85284677517159" lon="9.870096032497964"><ele>165.0</ele><time>2026-04-26T06:54:05.999Z</time></trkpt><trkpt lat="44.8528222211378" lon="9.870220162055418"><ele>165.00000000000003</ele><time>2026-04-26T06:54:09.999Z</time></trkpt><trkpt lat="44.85281744205127" lon="9.870316630856017"><ele>165.0</ele><time>2026-04-26T06:54:10.999Z</time></trkpt><trkpt lat="44.85283176405984" lon="9.870440203066236"><ele>164.4</ele><time>2026-04-26T06:54:12.999Z</time></trkpt><trkpt lat="44.85283585031044" lon="9.870602863946973"><ele>163.8</ele><time>2026-04-26T06:54:14.999Z</time></trkpt><trkpt lat="44.852806711385206" lon="9.87076943972926"><ele>163.2</ele><time>2026-04-26T06:54:16.999Z</time></trkpt><trkpt lat="44.852772540129614" lon="9.870911328709301"><ele>162.6</ele><time>2026-04-26T06:54:18.999Z</time></trkpt><trkpt lat="44.8527422229416" lon="9.871011657611978"><ele>162.0</ele><time>2026-04-26T06:54:20.999Z</time></trkpt><trkpt lat="44.852749171961925" lon="9.871109017305848"><ele>161.5</ele><time>2026-04-26T06:54:24.999Z</time></trkpt><trkpt lat="44.852781138179814" lon="9.871200936159099"><ele>161.0</ele><time>2026-04-26T07:10:49.999Z</time></trkpt><trkpt lat="44.8528480092639" lon="9.871263378406418"><ele>160.5</ele><time>2026-04-26T07:10:54.999Z</time></trkpt><trkpt lat="44.8529066381092" lon="9.871303057859906"><ele>160.0</ele><time>2026-04-26T07:10:56.999Z</time></trkpt><trkpt lat="44.85298008614009" lon="9.871341475686666"><ele>159.5</ele><time>2026-04-26T07:10:58.999Z</time></trkpt><trkpt lat="44.85306687288904" lon="9.871382346717066"><ele>159.0</ele><time>2026-04-26T07:11:01.999Z</time></trkpt><trkpt lat="44.85315478246341" lon="9.871413238691336"><ele>159.0</ele><time>2026-04-26T07:11:04.999Z</time></trkpt><trkpt lat="44.853213236214884" lon="9.871472438319898"><ele>159.0</ele><time>2026-04-26T07:11:07.999Z</time></trkpt><trkpt lat="44.85319352275728" lon="9.871564171465407"><ele>159.0</ele><time>2026-04-26T07:11:09.999Z</time></trkpt><trkpt lat="44.85316430912178" lon="9.871653595255085"><ele>159.0</ele><time>2026-04-26T07:11:11.999Z</time></trkpt><trkpt lat="44.853146862151995" lon="9.871752241260726"><ele>159.0</ele><time>2026-04-26T07:11:13.999Z</time></trkpt><trkpt lat="44.85312822590656" lon="9.871864757718065"><ele>159.0</ele><time>2026-04-26T07:11:15.999Z</time></trkpt><trkpt lat="44.85310492678425" lon="9.871963803483089"><ele>159.0</ele><time>2026-04-26T07:11:17.998Z</time></trkpt><trkpt lat="44.85308059263264" lon="9.872054055590324"><ele>158.66666666666666</ele><time>2026-04-26T07:11:19.998Z</time></trkpt><trkpt lat="44.85306325388498" lon="9.872162874578246"><ele>158.33333333333334</ele><time>2026-04-26T07:11:21.998Z</time></trkpt><trkpt lat="44.853046924494116" lon="9.872278321271844"><ele>158.0</ele><time>2026-04-26T07:11:23.998Z</time></trkpt><trkpt lat="44.853030004715194" lon="9.872398532201426"><ele>157.66666666666669</ele><time>2026-04-26T07:11:25.998Z</time></trkpt><trkpt lat="44.85300818051319" lon="9.87251930504438"><ele>157.33333333333334</ele><time>2026-04-26T07:11:27.998Z</time></trkpt><trkpt lat="44.852987525213656" lon="9.872639346325597"><ele>157.0</ele><time>2026-04-26T07:11:29.998Z</time></trkpt><trkpt lat="44.852965257913326" lon="9.872757438409689"><ele>156.83333333333334</ele><time>2026-04-26T07:11:31.998Z</time></trkpt><trkpt lat="44.85294330795204" lon="9.872876996554854"><ele>156.66666666666669</ele><time>2026-04-26T07:11:33.998Z</time></trkpt><trkpt lat="44.85291838298813" lon="9.872996792681356"><ele>156.5</ele><time>2026-04-26T07:11:35.998Z</time></trkpt><trkpt lat="44.85289912780912" lon="9.87311655357457"><ele>156.33333333333334</ele><time>2026-04-26T07:11:37.998Z</time></trkpt><trkpt lat="44.852876615097195" lon="9.87321902345581"><ele>156.16666666666666</ele><time>2026-04-26T07:11:39.998Z</time></trkpt><trkpt lat="44.85282093843065" lon="9.873274092714693"><ele>156.0</ele><time>2026-04-26T07:11:41.998Z</time></trkpt><trkpt lat="44.85274082050021" lon="9.87324625671258"><ele>156.0</ele><time>2026-04-26T07:11:43.998Z</time></trkpt><trkpt lat="44.85266733078716" lon="9.873241916165965"><ele>156.0</ele><time>2026-04-26T07:11:45.998Z</time></trkpt><trkpt lat="44.8525773781127" lon="9.873253131783134"><ele>156.0</ele><time>2026-04-26T07:11:47.998Z</time></trkpt><trkpt lat="44.852519668474066" lon="9.873326275407758"><ele>156.0</ele><time>2026-04-26T07:11:50Z</time></trkpt><trkpt lat="44.85246792145932" lon="9.873409359256053"><ele>156.0</ele><time>2026-04-26T07:11:52Z</time></trkpt><trkpt lat="44.85240871844677" lon="9.873501445129193"><ele>156.0</ele><time>2026-04-26T07:11:55Z</time></trkpt><trkpt lat="44.852354810084115" lon="9.87359533965504"><ele>157.5</ele><time>2026-04-26T07:11:57Z</time></trkpt><trkpt lat="44.85230398066924" lon="9.873685646826223"><ele>159.0</ele><time>2026-04-26T07:11:59Z</time></trkpt><trkpt lat="44.852251467572025" lon="9.87376599059239"><ele>160.5</ele><time>2026-04-26T07:12:01Z</time></trkpt><trkpt lat="44.85218837869278" lon="9.873872237448294"><ele>162.0</ele><time>2026-04-26T07:12:04Z</time></trkpt><trkpt lat="44.85211803905398" lon="9.873964277550296"><ele>163.5</ele><time>2026-04-26T07:12:06Z</time></trkpt><trkpt lat="44.85205106365326" lon="9.874053864240677"><ele>165.0</ele><time>2026-04-26T07:12:08Z</time></trkpt><trkpt lat="44.851975510427835" lon="9.874143555923608"><ele>165.2</ele><time>2026-04-26T07:12:10Z</time></trkpt><trkpt lat="44.851867353486575" lon="9.87429906329556"><ele>165.4</ele><time>2026-04-26T07:12:13Z</time></trkpt><trkpt lat="44.851813697398704" lon="9.874392800169192"><ele>165.60000000000002</ele><time>2026-04-26T07:12:15Z</time></trkpt><trkpt lat="44.85175437387946" lon="9.874481229009632"><ele>165.8</ele><time>2026-04-26T07:12:17Z</time></trkpt><trkpt lat="44.85169491860809" lon="9.874574932942963"><ele>166.0</ele><time>2026-04-26T07:12:19Z</time></trkpt><trkpt lat="44.85163377644382" lon="9.874671751803236"><ele>166.0</ele><time>2026-04-26T07:12:21Z</time></trkpt><trkpt lat="44.85157247549367" lon="9.874756303788663"><ele>166.0</ele><time>2026-04-26T07:12:23Z</time></trkpt><trkpt lat="44.851507028995876" lon="9.874845538217489"><ele>166.0</ele><time>2026-04-26T07:12:25Z</time></trkpt><trkpt lat="44.85144113918995" lon="9.874937482983551"><ele>166.0</ele><time>2026-04-26T07:12:27Z</time></trkpt><trkpt lat="44.85138343726439" lon="9.875025460641924"><ele>166.0</ele><time>2026-04-26T07:12:28.999Z</time></trkpt><trkpt lat="44.85132548963485" lon="9.875117874960425"><ele>166.0</ele><time>2026-04-26T07:12:30.999Z</time></trkpt><trkpt lat="44.85126376460836" lon="9.875200527446555"><ele>166.33333333333334</ele><time>2026-04-26T07:12:32.999Z</time></trkpt><trkpt lat="44.85120693918293" lon="9.875262167902315"><ele>166.66666666666669</ele><time>2026-04-26T07:12:34.999Z</time></trkpt><trkpt lat="44.851149761266264" lon="9.875342432193351"><ele>167.0</ele><time>2026-04-26T07:12:36.999Z</time></trkpt><trkpt lat="44.85109607710442" lon="9.875435666824199"><ele>167.33333333333334</ele><time>2026-04-26T07:12:38.999Z</time></trkpt><trkpt lat="44.851044853761564" lon="9.875525654096348"><ele>167.66666666666666</ele><time>2026-04-26T07:12:40.999Z</time></trkpt><trkpt lat="44.850988738153774" lon="9.875610672970272"><ele>168.0</ele><time>2026-04-26T07:12:42.999Z</time></trkpt><trkpt lat="44.85093019827828" lon="9.875693479366825"><ele>168.28571428571428</ele><time>2026-04-26T07:12:44.999Z</time></trkpt><trkpt lat="44.85086248412067" lon="9.875753540495232"><ele>168.57142857142856</ele><time>2026-04-26T07:12:46.999Z</time></trkpt><trkpt lat="44.850794983152724" lon="9.87579694005929"><ele>168.85714285714286</ele><time>2026-04-26T07:12:48.999Z</time></trkpt><trkpt lat="44.850729974767965" lon="9.875831889423377"><ele>169.14285714285714</ele><time>2026-04-26T07:12:50.999Z</time></trkpt><trkpt lat="44.85066362022792" lon="9.875870286809196"><ele>169.42857142857142</ele><time>2026-04-26T07:12:52.999Z</time></trkpt><trkpt lat="44.850599824133425" lon="9.875925179667751"><ele>169.71428571428572</ele><time>2026-04-26T07:12:54.999Z</time></trkpt><trkpt lat="44.85054326462813" lon="9.875977343060086"><ele>170.0</ele><time>2026-04-26T07:12:56.999Z</time></trkpt><trkpt lat="44.85048664816237" lon="9.876027557374295"><ele>170.2857142857143</ele><time>2026-04-26T07:12:58.999Z</time></trkpt><trkpt lat="44.85042823320966" lon="9.876074636661345"><ele>170.57142857142856</ele><time>2026-04-26T07:13:00.999Z</time></trkpt><trkpt lat="44.850375916207334" lon="9.876125659170489"><ele>170.85714285714286</ele><time>2026-04-26T07:13:02.999Z</time></trkpt><trkpt lat="44.85032361151472" lon="9.87617856885124"><ele>171.14285714285717</ele><time>2026-04-26T07:13:04.999Z</time></trkpt><trkpt lat="44.8502725900334" lon="9.876232344867818"><ele>171.42857142857144</ele><time>2026-04-26T07:13:06.999Z</time></trkpt><trkpt lat="44.85019485585841" lon="9.87630047811608"><ele>171.71428571428572</ele><time>2026-04-26T07:13:09.999Z</time></trkpt><trkpt lat="44.85013759942616" lon="9.876367014219944"><ele>172.0</ele><time>2026-04-26T07:13:12.999Z</time></trkpt><trkpt lat="44.850032291048684" lon="9.876470852704113"><ele>172.42857142857144</ele><time>2026-04-26T07:13:15.999Z</time></trkpt><trkpt lat="44.84998018462782" lon="9.876522204987843"><ele>172.85714285714286</ele><time>2026-04-26T07:13:17.999Z</time></trkpt><trkpt lat="44.84992756417912" lon="9.876575922258132"><ele>173.28571428571428</ele><time>2026-04-26T07:13:19.999Z</time></trkpt><trkpt lat="44.849875014611065" lon="9.876628045977203"><ele>173.71428571428572</ele><time>2026-04-26T07:13:21.998Z</time></trkpt><trkpt lat="44.84982338350527" lon="9.876681570691973"><ele>174.14285714285714</ele><time>2026-04-26T07:13:23.998Z</time></trkpt><trkpt lat="44.84976756890523" lon="9.876727222245634"><ele>174.57142857142858</ele><time>2026-04-26T07:13:25.998Z</time></trkpt><trkpt lat="44.849713476211136" lon="9.87677852852713"><ele>175.0</ele><time>2026-04-26T07:13:27.998Z</time></trkpt><trkpt lat="44.84965961586684" lon="9.876829278851181"><ele>176.83333333333334</ele><time>2026-04-26T07:13:29.998Z</time></trkpt><trkpt lat="44.84958306494801" lon="9.87690446920054"><ele>178.66666666666669</ele><time>2026-04-26T07:13:32.998Z</time></trkpt><trkpt lat="44.849516971587406" lon="9.876968462850504"><ele>180.5</ele><time>2026-04-26T07:13:35.998Z</time></trkpt><trkpt lat="44.84945042139481" lon="9.877031055453177"><ele>182.33333333333334</ele><time>2026-04-26T07:13:37.998Z</time></trkpt><trkpt lat="44.849397815904915" lon="9.877084733777844"><ele>184.16666666666666</ele><time>2026-04-26T07:13:39.998Z</time></trkpt><trkpt lat="44.84932180288961" lon="9.877153756254781"><ele>186.0</ele><time>2026-04-26T07:13:42.998Z</time></trkpt><trkpt lat="44.84926675758387" lon="9.877198697761163"><ele>187.0</ele><time>2026-04-26T07:13:44.998Z</time></trkpt><trkpt lat="44.849185192796085" lon="9.877257875183028"><ele>188.0</ele><time>2026-04-26T07:13:47.998Z</time></trkpt><trkpt lat="44.84909913535904" lon="9.877303123489305"><ele>189.0</ele><time>2026-04-26T07:13:50.998Z</time></trkpt><trkpt lat="44.84900776782202" lon="9.877319693921011"><ele>190.0</ele><time>2026-04-26T07:13:53.998Z</time></trkpt><trkpt lat="44.84890060847162" lon="9.877313963999875"><ele>191.0</ele><time>2026-04-26T07:13:58Z</time></trkpt><trkpt lat="44.8488191990472" lon="9.877304841747318"><ele>191.0</ele><time>2026-04-26T07:14:01Z</time></trkpt><trkpt lat="44.84873942147223" lon="9.877292087660374"><ele>191.0</ele><time>2026-04-26T07:14:04Z</time></trkpt><trkpt lat="44.84865203991536" lon="9.877289829244118"><ele>191.0</ele><time>2026-04-26T07:14:07Z</time></trkpt><trkpt lat="44.848561895771006" lon="9.877294176344481"><ele>191.0</ele><time>2026-04-26T07:14:10Z</time></trkpt><trkpt lat="44.84848967123869" lon="9.877307288850021"><ele>191.0</ele><time>2026-04-26T07:14:12Z</time></trkpt><trkpt lat="44.84840917744915" lon="9.877324710186329"><ele>191.0</ele><time>2026-04-26T07:14:15Z</time></trkpt><trkpt lat="44.84833277239832" lon="9.877358778863357"><ele>191.0</ele><time>2026-04-26T07:14:18Z</time></trkpt><trkpt lat="44.84825966213626" lon="9.87742830726062"><ele>191.0</ele><time>2026-04-26T07:14:21Z</time></trkpt><trkpt lat="44.84819746406735" lon="9.877515443432536"><ele>191.0</ele><time>2026-04-26T07:14:24Z</time></trkpt><trkpt lat="44.84813502201258" lon="9.877601675723238"><ele>191.0</ele><time>2026-04-26T07:14:27Z</time></trkpt><trkpt lat="44.8480885045286" lon="9.877665425303043"><ele>191.0</ele><time>2026-04-26T07:14:29Z</time></trkpt><trkpt lat="44.84802303105673" lon="9.877746435538457"><ele>191.0</ele><time>2026-04-26T07:14:31.999Z</time></trkpt><trkpt lat="44.847951316784155" lon="9.877791102302979"><ele>191.83333333333331</ele><time>2026-04-26T07:14:34.999Z</time></trkpt><trkpt lat="44.84787052508762" lon="9.87779314003452"><ele>192.66666666666666</ele><time>2026-04-26T07:14:37.999Z</time></trkpt><trkpt lat="44.84778534264066" lon="9.87774495909282"><ele>193.5</ele><time>2026-04-26T07:14:40.999Z</time></trkpt><trkpt lat="44.847725895803755" lon="9.877674724210674"><ele>194.33333333333331</ele><time>2026-04-26T07:14:43.999Z</time></trkpt><trkpt lat="44.84766120539347" lon="9.877602449811617"><ele>195.16666666666666</ele><time>2026-04-26T07:14:46.999Z</time></trkpt><trkpt lat="44.847594869750935" lon="9.877528808676063"><ele>196.0</ele><time>2026-04-26T07:14:49.999Z</time></trkpt><trkpt lat="44.84754024505901" lon="9.877471536161705"><ele>195.99999999999997</ele><time>2026-04-26T07:14:51.999Z</time></trkpt><trkpt lat="44.84745995453417" lon="9.877422289490235"><ele>196.0</ele><time>2026-04-26T07:14:54.999Z</time></trkpt><trkpt lat="44.847377689239835" lon="9.877431148858982"><ele>196.0</ele><time>2026-04-26T07:14:57.999Z</time></trkpt><trkpt lat="44.84732052903745" lon="9.877487571005021"><ele>196.0</ele><time>2026-04-26T07:14:59.999Z</time></trkpt><trkpt lat="44.84730429076597" lon="9.877591751660068"><ele>195.99999999999997</ele><time>2026-04-26T07:15:02.999Z</time></trkpt><trkpt lat="44.8473239343254" lon="9.877700858334691"><ele>196.0</ele><time>2026-04-26T07:15:05.999Z</time></trkpt><trkpt lat="44.847350300779304" lon="9.877790016143642"><ele>197.83333333333331</ele><time>2026-04-26T07:15:07.999Z</time></trkpt><trkpt lat="44.847389856536715" lon="9.877882121304099"><ele>199.66666666666666</ele><time>2026-04-26T07:15:10.999Z</time></trkpt><trkpt lat="44.84743159154527" lon="9.877977657573046"><ele>201.5</ele><time>2026-04-26T07:15:13.999Z</time></trkpt><trkpt lat="44.84747587563588" lon="9.878065637539947"><ele>203.33333333333331</ele><time>2026-04-26T07:15:15.999Z</time></trkpt><trkpt lat="44.847525802359904" lon="9.878171790316381"><ele>205.16666666666666</ele><time>2026-04-26T07:15:18.999Z</time></trkpt><trkpt lat="44.84756133080543" lon="9.878258278043445"><ele>207.0</ele><time>2026-04-26T07:15:21.999Z</time></trkpt><trkpt lat="44.847616044004056" lon="9.878365178307288"><ele>208.33333333333334</ele><time>2026-04-26T07:15:24.998Z</time></trkpt><trkpt lat="44.847652607281" lon="9.878447059041378"><ele>209.66666666666669</ele><time>2026-04-26T07:15:26.998Z</time></trkpt><trkpt lat="44.8476967149916" lon="9.878544199510598"><ele>211.0</ele><time>2026-04-26T07:15:29.998Z</time></trkpt><trkpt lat="44.84773856150193" lon="9.878635655522036"><ele>212.33333333333334</ele><time>2026-04-26T07:15:32.998Z</time></trkpt><trkpt lat="44.84777258456336" lon="9.878730744489047"><ele>213.66666666666669</ele><time>2026-04-26T07:15:34.998Z</time></trkpt><trkpt lat="44.84778538615883" lon="9.878848312553645"><ele>215.0</ele><time>2026-04-26T07:15:37.998Z</time></trkpt><trkpt lat="44.84773092428582" lon="9.878940125905967"><ele>215.00000000000003</ele><time>2026-04-26T07:15:40.998Z</time></trkpt><trkpt lat="44.84765371301239" lon="9.878933425600744"><ele>215.0</ele><time>2026-04-26T07:15:43.998Z</time></trkpt><trkpt lat="44.847585395569304" lon="9.878895322426008"><ele>215.0</ele><time>2026-04-26T07:15:46.998Z</time></trkpt><trkpt lat="44.84751482655135" lon="9.878845759098418"><ele>215.0</ele><time>2026-04-26T07:15:49.998Z</time></trkpt><trkpt lat="44.84744160762815" lon="9.878788544255938"><ele>215.00000000000003</ele><time>2026-04-26T07:15:52.998Z</time></trkpt><trkpt lat="44.84737936198478" lon="9.87873864126283"><ele>215.0</ele><time>2026-04-26T07:15:54.998Z</time></trkpt><trkpt lat="44.84731309395526" lon="9.878687352201501"><ele>215.33333333333334</ele><time>2026-04-26T07:15:57.998Z</time></trkpt><trkpt lat="44.84723903939872" lon="9.878633361162345"><ele>215.66666666666669</ele><time>2026-04-26T07:16:01Z</time></trkpt><trkpt lat="44.847175234650344" lon="9.878576164071104"><ele>216.0</ele><time>2026-04-26T07:16:04Z</time></trkpt><trkpt lat="44.84711680692951" lon="9.878524396910457"><ele>216.33333333333331</ele><time>2026-04-26T07:16:06Z</time></trkpt><trkpt lat="44.847055251524154" lon="9.878485473889866"><ele>216.66666666666666</ele><time>2026-04-26T07:16:08Z</time></trkpt><trkpt lat="44.846985001353815" lon="9.878432310383744"><ele>217.0</ele><time>2026-04-26T07:16:11Z</time></trkpt><trkpt lat="44.846898542573776" lon="9.87836519688391"><ele>217.49999999999997</ele><time>2026-04-26T07:16:14Z</time></trkpt><trkpt lat="44.846827866474065" lon="9.878305989918053"><ele>218.0</ele><time>2026-04-26T07:16:17Z</time></trkpt><trkpt lat="44.84676142828863" lon="9.878253678961814"><ele>218.5</ele><time>2026-04-26T07:16:19Z</time></trkpt><trkpt lat="44.84668770022159" lon="9.878199350225014"><ele>219.0</ele><time>2026-04-26T07:16:22Z</time></trkpt><trkpt lat="44.846606398519185" lon="9.878138202551465"><ele>219.49999999999997</ele><time>2026-04-26T07:16:25Z</time></trkpt><trkpt lat="44.84654035358053" lon="9.878091295738152"><ele>220.0</ele><time>2026-04-26T07:16:27Z</time></trkpt><trkpt lat="44.84646441004327" lon="9.878049212095604"><ele>219.99999999999997</ele><time>2026-04-26T07:16:30Z</time></trkpt><trkpt lat="44.846395424021615" lon="9.87801690176432"><ele>220.0</ele><time>2026-04-26T07:16:32Z</time></trkpt><trkpt lat="44.84631718098223" lon="9.877976964208207"><ele>220.0</ele><time>2026-04-26T07:16:34.999Z</time></trkpt><trkpt lat="44.84623239373296" lon="9.877944660916548"><ele>220.0</ele><time>2026-04-26T07:16:37.999Z</time></trkpt><trkpt lat="44.84616305250896" lon="9.877917014288201"><ele>219.99999999999997</ele><time>2026-04-26T07:16:39.999Z</time></trkpt><trkpt lat="44.84607178623081" lon="9.877879708092573"><ele>220.0</ele><time>2026-04-26T07:16:42.999Z</time></trkpt><trkpt lat="44.845989141688435" lon="9.877848675321465"><ele>221.7142857142857</ele><time>2026-04-26T07:16:45.999Z</time></trkpt><trkpt lat="44.8459085334025" lon="9.87781826351095"><ele>223.42857142857144</ele><time>2026-04-26T07:16:47.999Z</time></trkpt><trkpt lat="44.84584688742455" lon="9.877787950428626"><ele>225.14285714285717</ele><time>2026-04-26T07:16:49.999Z</time></trkpt><trkpt lat="44.84578614424299" lon="9.877759480448741"><ele>226.85714285714286</ele><time>2026-04-26T07:16:51.999Z</time></trkpt><trkpt lat="44.84572245763932" lon="9.877736731040134"><ele>228.57142857142858</ele><time>2026-04-26T07:16:53.999Z</time></trkpt><trkpt lat="44.84563796881653" lon="9.877695808001368"><ele>230.2857142857143</ele><time>2026-04-26T07:16:56.999Z</time></trkpt><trkpt lat="44.8455604712879" lon="9.877669240174704"><ele>232.00000000000003</ele><time>2026-04-26T07:16:59.999Z</time></trkpt><trkpt lat="44.845480033956235" lon="9.87764402832082"><ele>231.99999999999997</ele><time>2026-04-26T07:17:02.999Z</time></trkpt><trkpt lat="44.845394800016095" lon="9.8776189078552"><ele>232.0</ele><time>2026-04-26T07:17:05.999Z</time></trkpt><trkpt lat="44.84530637306187" lon="9.877641400913662"><ele>232.0</ele><time>2026-04-26T07:17:08.999Z</time></trkpt><trkpt lat="44.84525360331831" lon="9.877732217716172"><ele>232.0</ele><time>2026-04-26T07:17:11.999Z</time></trkpt><trkpt lat="44.845248894853285" lon="9.877842339539141"><ele>231.99999999999997</ele><time>2026-04-26T07:17:14.999Z</time></trkpt><trkpt lat="44.845286396073" lon="9.877931631518033"><ele>232.0</ele><time>2026-04-26T07:17:17.999Z</time></trkpt><trkpt lat="44.84535787162031" lon="9.87798615895712"><ele>232.00000000000003</ele><time>2026-04-26T07:17:20.999Z</time></trkpt><trkpt lat="44.845434207512525" lon="9.87803813622965"><ele>232.0</ele><time>2026-04-26T07:17:23.999Z</time></trkpt><trkpt lat="44.845501560983344" lon="9.878103196445606"><ele>232.00000000000003</ele><time>2026-04-26T07:17:26.999Z</time></trkpt><trkpt lat="44.84553908319936" lon="9.878179069425753"><ele>232.00000000000003</ele><time>2026-04-26T07:17:28.998Z</time></trkpt><trkpt lat="44.84554168183604" lon="9.878280168974365"><ele>232.0</ele><time>2026-04-26T07:17:31.998Z</time></trkpt><trkpt lat="44.84550134155304" lon="9.878357171886288"><ele>232.00000000000003</ele><time>2026-04-26T07:17:34.998Z</time></trkpt><trkpt lat="44.84542763755281" lon="9.878378396426335"><ele>232.00000000000003</ele><time>2026-04-26T07:17:37.998Z</time></trkpt><trkpt lat="44.84535232197279" lon="9.878362523104165"><ele>231.99999999999997</ele><time>2026-04-26T07:17:40.998Z</time></trkpt><trkpt lat="44.8452801725654" lon="9.87832682888833"><ele>232.0</ele><time>2026-04-26T07:17:43.998Z</time></trkpt><trkpt lat="44.8452055692536" lon="9.87827726882198"><ele>232.0</ele><time>2026-04-26T07:17:46.998Z</time></trkpt><trkpt lat="44.84512465062778" lon="9.878220886152693"><ele>232.0</ele><time>2026-04-26T07:17:49.998Z</time></trkpt><trkpt lat="44.84505479322947" lon="9.878169535684462"><ele>231.99999999999997</ele><time>2026-04-26T07:17:52.998Z</time></trkpt><trkpt lat="44.84499188798578" lon="9.8780998862772"><ele>232.0</ele><time>2026-04-26T07:17:55.998Z</time></trkpt><trkpt lat="44.84494785296763" lon="9.878028354424668"><ele>232.16666666666666</ele><time>2026-04-26T07:17:57.998Z</time></trkpt><trkpt lat="44.84491333831157" lon="9.877934575080618"><ele>232.33333333333331</ele><time>2026-04-26T07:18:00.998Z</time></trkpt><trkpt lat="44.84487490737441" lon="9.877837133672084"><ele>232.5</ele><time>2026-04-26T07:18:03.998Z</time></trkpt><trkpt lat="44.844839399345915" lon="9.877752590363007"><ele>232.66666666666669</ele><time>2026-04-26T07:18:05.998Z</time></trkpt><trkpt lat="44.84479959513934" lon="9.877663876329454"><ele>232.83333333333334</ele><time>2026-04-26T07:18:09Z</time></trkpt><trkpt lat="44.84474639569814" lon="9.877572261230027"><ele>233.0</ele><time>2026-04-26T07:18:12Z</time></trkpt><trkpt lat="44.844687987607095" lon="9.877504298561854"><ele>233.00000000000003</ele><time>2026-04-26T07:18:14Z</time></trkpt><trkpt lat="44.844612363275694" lon="9.877452479071989"><ele>233.0</ele><time>2026-04-26T07:18:17Z</time></trkpt><trkpt lat="44.84453757248402" lon="9.877410805273783"><ele>233.0</ele><time>2026-04-26T07:18:19Z</time></trkpt><trkpt lat="44.844436990151024" lon="9.87736286028382"><ele>233.0</ele><time>2026-04-26T07:18:22Z</time></trkpt><trkpt lat="44.84437613934177" lon="9.877335760592116"><ele>233.00000000000003</ele><time>2026-04-26T07:18:24Z</time></trkpt><trkpt lat="44.84429118663315" lon="9.877297514788197"><ele>233.0</ele><time>2026-04-26T07:18:27Z</time></trkpt><trkpt lat="44.84422463442053" lon="9.877260264807433"><ele>235.66666666666669</ele><time>2026-04-26T07:18:29Z</time></trkpt><trkpt lat="44.8441622582943" lon="9.877226605311636"><ele>238.33333333333334</ele><time>2026-04-26T07:18:31Z</time></trkpt><trkpt lat="44.84410142944213" lon="9.87718795613188"><ele>241.0</ele><time>2026-04-26T07:18:33Z</time></trkpt><trkpt lat="44.844042994107035" lon="9.877151982269835"><ele>243.66666666666669</ele><time>2026-04-26T07:18:35Z</time></trkpt><trkpt lat="44.84395619975147" lon="9.87708983341973"><ele>246.33333333333334</ele><time>2026-04-26T07:18:38Z</time></trkpt><trkpt lat="44.84387270946119" lon="9.87703827880757"><ele>249.0</ele><time>2026-04-26T07:18:40.999Z</time></trkpt><trkpt lat="44.84378780861965" lon="9.876984916376955"><ele>249.0</ele><time>2026-04-26T07:18:43.999Z</time></trkpt><trkpt lat="44.84371459008529" lon="9.876939387921384"><ele>249.0</ele><time>2026-04-26T07:18:46.999Z</time></trkpt><trkpt lat="44.84363479687309" lon="9.876892289886662"><ele>249.0</ele><time>2026-04-26T07:18:49.999Z</time></trkpt><trkpt lat="44.84355420496641" lon="9.876851385306443"><ele>249.0</ele><time>2026-04-26T07:18:52.999Z</time></trkpt><trkpt lat="44.843467264111744" lon="9.876800755115285"><ele>249.0</ele><time>2026-04-26T07:18:55.999Z</time></trkpt><trkpt lat="44.843385861975804" lon="9.876753884659477"><ele>249.0</ele><time>2026-04-26T07:18:58.999Z</time></trkpt><trkpt lat="44.84330027079094" lon="9.876705504489042"><ele>249.6</ele><time>2026-04-26T07:19:01.999Z</time></trkpt><trkpt lat="44.843227842383705" lon="9.876660113844391"><ele>250.2</ele><time>2026-04-26T07:19:05.999Z</time></trkpt><trkpt lat="44.84313607046669" lon="9.876610073349013"><ele>250.79999999999998</ele><time>2026-04-26T07:19:08.999Z</time></trkpt><trkpt lat="44.84307509521748" lon="9.87657936757429"><ele>251.39999999999998</ele><time>2026-04-26T07:19:10.999Z</time></trkpt><trkpt lat="44.8429101820482" lon="9.876510962535102"><ele>252.0</ele><time>2026-04-26T07:19:12.999Z</time></trkpt><trkpt lat="44.84284642062737" lon="9.876478192668712"><ele>252.0</ele><time>2026-04-26T07:19:14.999Z</time></trkpt><trkpt lat="44.84278660056646" lon="9.87644431094559"><ele>252.0</ele><time>2026-04-26T07:19:16.999Z</time></trkpt><trkpt lat="44.842726461763895" lon="9.876407980997968"><ele>252.0</ele><time>2026-04-26T07:19:18.999Z</time></trkpt><trkpt lat="44.84266370385089" lon="9.876376227802913"><ele>252.0</ele><time>2026-04-26T07:19:20.999Z</time></trkpt><trkpt lat="44.84260204860355" lon="9.876344537016326"><ele>252.0</ele><time>2026-04-26T07:19:22.999Z</time></trkpt><trkpt lat="44.842541156037996" lon="9.876313591928207"><ele>252.0</ele><time>2026-04-26T07:19:24.999Z</time></trkpt><trkpt lat="44.84247688276118" lon="9.876283710674645"><ele>252.0</ele><time>2026-04-26T07:19:26.999Z</time></trkpt><trkpt lat="44.84241285001627" lon="9.876253024957252"><ele>253.5</ele><time>2026-04-26T07:19:28.999Z</time></trkpt><trkpt lat="44.842353052442085" lon="9.876221997081553"><ele>255.0</ele><time>2026-04-26T07:19:30.999Z</time></trkpt><trkpt lat="44.84227722034264" lon="9.876186402986953"><ele>256.5</ele><time>2026-04-26T07:19:33.998Z</time></trkpt><trkpt lat="44.84218887175288" lon="9.876147767356734"><ele>258.0</ele><time>2026-04-26T07:19:36.998Z</time></trkpt><trkpt lat="44.84210872166249" lon="9.876105424984088"><ele>259.5</ele><time>2026-04-26T07:19:39.998Z</time></trkpt><trkpt lat="44.84204460964321" lon="9.876083025609182"><ele>261.0</ele><time>2026-04-26T07:19:41.998Z</time></trkpt><trkpt lat="44.841977450528745" lon="9.876061260841785"><ele>261.0</ele><time>2026-04-26T07:19:43.998Z</time></trkpt><trkpt lat="44.84191521980078" lon="9.87603900738639"><ele>261.0</ele><time>2026-04-26T07:19:45.998Z</time></trkpt><trkpt lat="44.84184356256354" lon="9.87601497880601"><ele>261.0</ele><time>2026-04-26T07:19:47.998Z</time></trkpt><trkpt lat="44.84177271946556" lon="9.876021222571014"><ele>261.0</ele><time>2026-04-26T07:19:49.998Z</time></trkpt><trkpt lat="44.84170676946219" lon="9.87601787624039"><ele>261.0</ele><time>2026-04-26T07:19:51.998Z</time></trkpt><trkpt lat="44.84163858381735" lon="9.876025713330826"><ele>261.0</ele><time>2026-04-26T07:19:53.998Z</time></trkpt><trkpt lat="44.841565715975186" lon="9.876044223059132"><ele>261.0</ele><time>2026-04-26T07:19:55.998Z</time></trkpt><trkpt lat="44.841489180780826" lon="9.876061353190963"><ele>259.5</ele><time>2026-04-26T07:19:57.998Z</time></trkpt><trkpt lat="44.8414201394797" lon="9.876072740761344"><ele>258.0</ele><time>2026-04-26T07:19:59.998Z</time></trkpt><trkpt lat="44.84134557751668" lon="9.876079313434268"><ele>256.5</ele><time>2026-04-26T07:20:01.998Z</time></trkpt><trkpt lat="44.84127082290186" lon="9.876076219000376"><ele>255.0</ele><time>2026-04-26T07:20:03.998Z</time></trkpt><trkpt lat="44.8411997107054" lon="9.876065206854832"><ele>253.5</ele><time>2026-04-26T07:20:05.998Z</time></trkpt><trkpt lat="44.841123440334975" lon="9.876042952932572"><ele>252.0</ele><time>2026-04-26T07:20:07.998Z</time></trkpt><trkpt lat="44.8410473787899" lon="9.875999354793839"><ele>252.0</ele><time>2026-04-26T07:20:09.998Z</time></trkpt><trkpt lat="44.840988820091695" lon="9.87594399341501"><ele>252.0</ele><time>2026-04-26T07:20:12Z</time></trkpt><trkpt lat="44.84093189102904" lon="9.87588305158309"><ele>252.0</ele><time>2026-04-26T07:20:14Z</time></trkpt><trkpt lat="44.84087775260411" lon="9.875816789388976"><ele>252.0</ele><time>2026-04-26T07:20:16Z</time></trkpt><trkpt lat="44.84081877961735" lon="9.87575638333143"><ele>252.0</ele><time>2026-04-26T07:20:18Z</time></trkpt><trkpt lat="44.84076766157737" lon="9.875687824570706"><ele>252.0</ele><time>2026-04-26T07:20:20Z</time></trkpt><trkpt lat="44.84071832308622" lon="9.875623206232346"><ele>252.0</ele><time>2026-04-26T07:20:23Z</time></trkpt><trkpt lat="44.8406772746701" lon="9.875555772609003"><ele>253.0</ele><time>2026-04-26T07:20:24Z</time></trkpt><trkpt lat="44.84064108191159" lon="9.875469407487836"><ele>254.0</ele><time>2026-04-26T07:20:27Z</time></trkpt><trkpt lat="44.840607663524686" lon="9.875374653804755"><ele>255.0</ele><time>2026-04-26T07:20:29Z</time></trkpt><trkpt lat="44.84057748927762" lon="9.875252715060178"><ele>256.0</ele><time>2026-04-26T07:20:31Z</time></trkpt><trkpt lat="44.84054780692764" lon="9.87515934364356"><ele>257.0</ele><time>2026-04-26T07:20:34Z</time></trkpt><trkpt lat="44.84051436355375" lon="9.875076600776783"><ele>258.0</ele><time>2026-04-26T07:20:35Z</time></trkpt><trkpt lat="44.84045534970285" lon="9.875021775902168"><ele>259.0</ele><time>2026-04-26T07:20:38Z</time></trkpt><trkpt lat="44.840399970763556" lon="9.874970185667973"><ele>259.0</ele><time>2026-04-26T07:20:39Z</time></trkpt><trkpt lat="44.84033388614621" lon="9.87494238555486"><ele>259.0</ele><time>2026-04-26T07:20:41Z</time></trkpt><trkpt lat="44.84026556429858" lon="9.874905974085609"><ele>259.0</ele><time>2026-04-26T07:20:43.999Z</time></trkpt><trkpt lat="44.84019679567835" lon="9.87487414121104"><ele>259.0</ele><time>2026-04-26T07:20:45.999Z</time></trkpt><trkpt lat="44.840118651069965" lon="9.874834978553745"><ele>259.0</ele><time>2026-04-26T07:20:47.999Z</time></trkpt><trkpt lat="44.84005761159847" lon="9.874794549042932"><ele>259.0</ele><time>2026-04-26T07:20:49.999Z</time></trkpt><trkpt lat="44.8399801569572" lon="9.874760165029276"><ele>259.0</ele><time>2026-04-26T07:20:52.999Z</time></trkpt><trkpt lat="44.83990176102361" lon="9.874727053972347"><ele>262.3333333333333</ele><time>2026-04-26T07:20:55.999Z</time></trkpt><trkpt lat="44.839829720529494" lon="9.874685752669741"><ele>265.66666666666663</ele><time>2026-04-26T07:20:58.999Z</time></trkpt><trkpt lat="44.83975647026751" lon="9.874637241565509"><ele>269.0</ele><time>2026-04-26T07:21:01.999Z</time></trkpt><trkpt lat="44.83963368996093" lon="9.874556473528878"><ele>272.3333333333333</ele><time>2026-04-26T07:21:02.999Z</time></trkpt><trkpt lat="44.83958160498475" lon="9.874496255463045"><ele>275.6666666666667</ele><time>2026-04-26T07:21:04.999Z</time></trkpt><trkpt lat="44.83953644944085" lon="9.874425958422599"><ele>279.0</ele><time>2026-04-26T07:21:06.999Z</time></trkpt><trkpt lat="44.839493059204585" lon="9.874355454680872"><ele>279.1666666666667</ele><time>2026-04-26T07:21:08.999Z</time></trkpt><trkpt lat="44.8394881837167" lon="9.874259988787019"><ele>279.3333333333333</ele><time>2026-04-26T07:21:11.999Z</time></trkpt><trkpt lat="44.83943022962647" lon="9.87415862871801"><ele>279.5</ele><time>2026-04-26T07:21:14.999Z</time></trkpt><trkpt lat="44.83935699794985" lon="9.874079268563857"><ele>279.66666666666663</ele><time>2026-04-26T07:21:17.999Z</time></trkpt><trkpt lat="44.8392881059376" lon="9.874050139899465"><ele>279.8333333333333</ele><time>2026-04-26T07:21:19.999Z</time></trkpt><trkpt lat="44.83921687460021" lon="9.874053619082128"><ele>280.0</ele><time>2026-04-26T07:21:21.999Z</time></trkpt><trkpt lat="44.83913838927206" lon="9.874089124617155"><ele>280.0</ele><time>2026-04-26T07:21:23.999Z</time></trkpt><trkpt lat="44.83900656296706" lon="9.874087806617757"><ele>280.0</ele><time>2026-04-26T07:21:24.999Z</time></trkpt><trkpt lat="44.83891491131424" lon="9.874152340326843"><ele>280.0</ele><time>2026-04-26T07:21:26.999Z</time></trkpt><trkpt lat="44.83881458045675" lon="9.874204596755662"><ele>280.0</ele><time>2026-04-26T07:21:28.999Z</time></trkpt><trkpt lat="44.838697646577735" lon="9.874252780526161"><ele>280.0</ele><time>2026-04-26T07:21:30.999Z</time></trkpt><trkpt lat="44.838576669974124" lon="9.874266226030072"><ele>280.0</ele><time>2026-04-26T07:21:32.999Z</time></trkpt><trkpt lat="44.83851003672335" lon="9.874257232486801"><ele>280.0</ele><time>2026-04-26T07:21:33.999Z</time></trkpt><trkpt lat="44.838445551388034" lon="9.87424339371526"><ele>280.0</ele><time>2026-04-26T07:21:34.999Z</time></trkpt><trkpt lat="44.83837794895297" lon="9.874230115712185"><ele>280.0</ele><time>2026-04-26T07:21:35.998Z</time></trkpt><trkpt lat="44.83830855152838" lon="9.874218570115993"><ele>280.0</ele><time>2026-04-26T07:21:36.998Z</time></trkpt><trkpt lat="44.83824153822914" lon="9.874214187718463"><ele>279.2857142857143</ele><time>2026-04-26T07:21:37.998Z</time></trkpt><trkpt lat="44.83817418229785" lon="9.874205169533724"><ele>278.57142857142856</ele><time>2026-04-26T07:21:38.998Z</time></trkpt><trkpt lat="44.83810720937017" lon="9.874192189182939"><ele>277.8571428571429</ele><time>2026-04-26T07:21:39.998Z</time></trkpt><trkpt lat="44.838040377891076" lon="9.874178386295675"><ele>277.1428571428571</ele><time>2026-04-26T07:21:40.998Z</time></trkpt><trkpt lat="44.837973205279596" lon="9.874165521127683"><ele>276.42857142857144</ele><time>2026-04-26T07:21:41.998Z</time></trkpt><trkpt lat="44.83790692650063" lon="9.874158919323943"><ele>275.7142857142857</ele><time>2026-04-26T07:21:42.998Z</time></trkpt><trkpt lat="44.837841859354604" lon="9.874161036781155"><ele>275.0</ele><time>2026-04-26T07:21:43.998Z</time></trkpt><trkpt lat="44.83777750204198" lon="9.874158549949113"><ele>275.0</ele><time>2026-04-26T07:21:44.998Z</time></trkpt><trkpt lat="44.83771359628665" lon="9.874157166939911"><ele>275.0</ele><time>2026-04-26T07:21:45.998Z</time></trkpt><trkpt lat="44.83759321517922" lon="9.874166572259686"><ele>275.0</ele><time>2026-04-26T07:21:47.998Z</time></trkpt><trkpt lat="44.837531646490476" lon="9.874185609947709"><ele>275.0</ele><time>2026-04-26T07:21:48.998Z</time></trkpt><trkpt lat="44.83741424413942" lon="9.874196674898185"><ele>275.0</ele><time>2026-04-26T07:21:50.998Z</time></trkpt><trkpt lat="44.83730274499269" lon="9.874170854836436"><ele>274.6</ele><time>2026-04-26T07:21:52.998Z</time></trkpt><trkpt lat="44.83721036288282" lon="9.874095274292209"><ele>274.2</ele><time>2026-04-26T07:21:54.998Z</time></trkpt><trkpt lat="44.83713648999405" lon="9.873995208432133"><ele>273.8</ele><time>2026-04-26T07:21:56.998Z</time></trkpt><trkpt lat="44.83705455466901" lon="9.873910263222152"><ele>273.4</ele><time>2026-04-26T07:21:58.998Z</time></trkpt><trkpt lat="44.836972390952546" lon="9.873833243781341"><ele>273.0</ele><time>2026-04-26T07:22:00.998Z</time></trkpt><trkpt lat="44.83686104120621" lon="9.87384105020768"><ele>275.0</ele><time>2026-04-26T07:22:02.998Z</time></trkpt><trkpt lat="44.836762885921374" lon="9.873908551670178"><ele>277.0</ele><time>2026-04-26T07:22:04.998Z</time></trkpt><trkpt lat="44.83667354172145" lon="9.87396552011598"><ele>279.0</ele><time>2026-04-26T07:22:06.998Z</time></trkpt><trkpt lat="44.83658021929719" lon="9.874023894859977"><ele>281.0</ele><time>2026-04-26T07:22:08.998Z</time></trkpt><trkpt lat="44.836490111973056" lon="9.874083896643885"><ele>283.0</ele><time>2026-04-26T07:22:10.998Z</time></trkpt><trkpt lat="44.83641082106445" lon="9.874161081557757"><ele>283.0</ele><time>2026-04-26T07:22:12.998Z</time></trkpt><trkpt lat="44.83631226834659" lon="9.874202326845738"><ele>283.0</ele><time>2026-04-26T07:22:14.998Z</time></trkpt><trkpt lat="44.836254726223125" lon="9.874260026398996"><ele>283.0</ele><time>2026-04-26T07:22:18Z</time></trkpt><trkpt lat="44.83607092142127" lon="9.8743580293869"><ele>283.0</ele><time>2026-04-26T07:22:20Z</time></trkpt><trkpt lat="44.83598807783884" lon="9.874443294760095"><ele>281.8</ele><time>2026-04-26T07:22:22Z</time></trkpt><trkpt lat="44.835901363562314" lon="9.874516464096452"><ele>280.6</ele><time>2026-04-26T07:22:24Z</time></trkpt><trkpt lat="44.835820142307306" lon="9.87460091087342"><ele>279.4</ele><time>2026-04-26T07:22:26Z</time></trkpt><trkpt lat="44.83573400601326" lon="9.874677963246656"><ele>278.2</ele><time>2026-04-26T07:22:28Z</time></trkpt><trkpt lat="44.83564801174321" lon="9.874753488657722"><ele>277.0</ele><time>2026-04-26T07:22:30Z</time></trkpt><trkpt lat="44.83556663708911" lon="9.874829170767162"><ele>277.0</ele><time>2026-04-26T07:22:32Z</time></trkpt><trkpt lat="44.83548397855513" lon="9.874895583276148"><ele>277.0</ele><time>2026-04-26T07:22:34Z</time></trkpt><trkpt lat="44.83540170775078" lon="9.874966058362045"><ele>277.0</ele><time>2026-04-26T07:22:36Z</time></trkpt><trkpt lat="44.835334011680914" lon="9.875038087985752"><ele>277.0</ele><time>2026-04-26T07:22:38Z</time></trkpt><trkpt lat="44.83526258738885" lon="9.875127822807505"><ele>277.0</ele><time>2026-04-26T07:22:40Z</time></trkpt><trkpt lat="44.83518604983661" lon="9.875234270171536"><ele>279.2</ele><time>2026-04-26T07:22:42Z</time></trkpt><trkpt lat="44.83514370007771" lon="9.875323313271824"><ele>281.4</ele><time>2026-04-26T07:22:44Z</time></trkpt><trkpt lat="44.83507609384419" lon="9.875406559520815"><ele>283.6</ele><time>2026-04-26T07:22:45.999Z</time></trkpt><trkpt lat="44.83504035868069" lon="9.875519307361008"><ele>285.8</ele><time>2026-04-26T07:22:47.999Z</time></trkpt><trkpt lat="44.835004379649575" lon="9.875656056982939"><ele>288.0</ele><time>2026-04-26T07:22:49.999Z</time></trkpt><trkpt lat="44.834969132224714" lon="9.875791754205098"><ele>288.0</ele><time>2026-04-26T07:22:51.999Z</time></trkpt><trkpt lat="44.834937255108954" lon="9.875914476206413"><ele>288.0</ele><time>2026-04-26T07:22:53.999Z</time></trkpt><trkpt lat="44.834910645672224" lon="9.876042873616429"><ele>288.0</ele><time>2026-04-26T07:22:55.999Z</time></trkpt><trkpt lat="44.834895203614685" lon="9.87618063173892"><ele>288.0</ele><time>2026-04-26T07:22:57.999Z</time></trkpt><trkpt lat="44.83488933347785" lon="9.876312720733665"><ele>288.0</ele><time>2026-04-26T07:22:59.999Z</time></trkpt><trkpt lat="44.834887968306475" lon="9.876445479342653"><ele>287.4</ele><time>2026-04-26T07:23:01.999Z</time></trkpt><trkpt lat="44.834888404823865" lon="9.876575473960688"><ele>286.8</ele><time>2026-04-26T07:23:03.999Z</time></trkpt><trkpt lat="44.83488861159271" lon="9.876704484778891"><ele>286.2</ele><time>2026-04-26T07:23:05.999Z</time></trkpt><trkpt lat="44.834895478295635" lon="9.876832903772021"><ele>285.6</ele><time>2026-04-26T07:23:07.999Z</time></trkpt><trkpt lat="44.83491339381783" lon="9.87695851748901"><ele>285.0</ele><time>2026-04-26T07:23:09.999Z</time></trkpt><trkpt lat="44.834944243218075" lon="9.87708291720795"><ele>284.25</ele><time>2026-04-26T07:23:11.999Z</time></trkpt><trkpt lat="44.834981477777724" lon="9.877208414173202"><ele>283.5</ele><time>2026-04-26T07:23:13.999Z</time></trkpt><trkpt lat="44.83503815261903" lon="9.877314075730306"><ele>282.75</ele><time>2026-04-26T07:23:15.999Z</time></trkpt><trkpt lat="44.83510787737022" lon="9.877547990351562"><ele>282.0</ele><time>2026-04-26T07:23:18.999Z</time></trkpt><trkpt lat="44.835143233446225" lon="9.877677255003793"><ele>282.0</ele><time>2026-04-26T07:23:20.999Z</time></trkpt><trkpt lat="44.83518915357058" lon="9.877796087516563"><ele>282.0</ele><time>2026-04-26T07:23:22.999Z</time></trkpt><trkpt lat="44.83523211345243" lon="9.877906984959287"><ele>282.0</ele><time>2026-04-26T07:23:24.999Z</time></trkpt><trkpt lat="44.83523930084115" lon="9.878016530655783"><ele>282.0</ele><time>2026-04-26T07:23:26.999Z</time></trkpt><trkpt lat="44.835203295427036" lon="9.878104150827797"><ele>282.0</ele><time>2026-04-26T07:23:28.999Z</time></trkpt><trkpt lat="44.83513060575717" lon="9.878137155676558"><ele>282.0</ele><time>2026-04-26T07:23:30.999Z</time></trkpt><trkpt lat="44.835036886013654" lon="9.878108973228509"><ele>282.0</ele><time>2026-04-26T07:23:32.999Z</time></trkpt><trkpt lat="44.83494036436873" lon="9.878053430359957"><ele>282.0</ele><time>2026-04-26T07:23:34.999Z</time></trkpt><trkpt lat="44.83484490071534" lon="9.877999439357975"><ele>282.0</ele><time>2026-04-26T07:23:36.999Z</time></trkpt><trkpt lat="44.83475598320259" lon="9.8779607112909"><ele>282.0</ele><time>2026-04-26T07:23:38.998Z</time></trkpt><trkpt lat="44.83465104515606" lon="9.877870563793731"><ele>282.0</ele><time>2026-04-26T07:23:40.998Z</time></trkpt><trkpt lat="44.83453472346341" lon="9.87781285872972"><ele>282.0</ele><time>2026-04-26T07:23:42.998Z</time></trkpt><trkpt lat="44.83447122625295" lon="9.877787300247467"><ele>282.0</ele><time>2026-04-26T07:23:43.998Z</time></trkpt><trkpt lat="44.834408818525986" lon="9.877764867443533"><ele>282.0</ele><time>2026-04-26T07:23:44.998Z</time></trkpt><trkpt lat="44.834340748528774" lon="9.877768784357178"><ele>282.0</ele><time>2026-04-26T07:23:45.998Z</time></trkpt><trkpt lat="44.83427650591683" lon="9.877750013570223"><ele>282.0</ele><time>2026-04-26T07:23:46.998Z</time></trkpt><trkpt lat="44.83420797072038" lon="9.877733423409682"><ele>282.0</ele><time>2026-04-26T07:23:47.998Z</time></trkpt><trkpt lat="44.834136146177606" lon="9.877717292965206"><ele>282.0</ele><time>2026-04-26T07:23:48.998Z</time></trkpt><trkpt lat="44.83406108696336" lon="9.877712855985862"><ele>281.1666666666667</ele><time>2026-04-26T07:23:49.998Z</time></trkpt><trkpt lat="44.83398725820305" lon="9.877714859778944"><ele>280.3333333333333</ele><time>2026-04-26T07:23:50.998Z</time></trkpt><trkpt lat="44.83391326913124" lon="9.877729932898188"><ele>279.5</ele><time>2026-04-26T07:23:51.998Z</time></trkpt><trkpt lat="44.8338391531846" lon="9.877758001342205"><ele>278.66666666666663</ele><time>2026-04-26T07:23:52.998Z</time></trkpt><trkpt lat="44.8337574136233" lon="9.877773746482047"><ele>277.8333333333333</ele><time>2026-04-26T07:23:53.998Z</time></trkpt><trkpt lat="44.83368362229103" lon="9.87781893975719"><ele>277.0</ele><time>2026-04-26T07:23:54.998Z</time></trkpt><trkpt lat="44.83361948423791" lon="9.87789209186164"><ele>277.0</ele><time>2026-04-26T07:23:55.998Z</time></trkpt><trkpt lat="44.83356228301534" lon="9.877958935246607"><ele>277.0</ele><time>2026-04-26T07:23:56.998Z</time></trkpt><trkpt lat="44.833513923222206" lon="9.878043899870002"><ele>277.0</ele><time>2026-04-26T07:23:57.998Z</time></trkpt><trkpt lat="44.83348331871657" lon="9.878139246002583"><ele>277.0</ele><time>2026-04-26T07:23:58.998Z</time></trkpt><trkpt lat="44.83346303860959" lon="9.878246622215546"><ele>277.0</ele><time>2026-04-26T07:23:59.998Z</time></trkpt><trkpt lat="44.833446142559865" lon="9.878345601904481"><ele>277.0</ele><time>2026-04-26T07:24:00.998Z</time></trkpt><trkpt lat="44.83341006600065" lon="9.878444896787126"><ele>277.0</ele><time>2026-04-26T07:24:01.998Z</time></trkpt><trkpt lat="44.83339696412051" lon="9.87855023657384"><ele>277.0</ele><time>2026-04-26T07:24:02.998Z</time></trkpt><trkpt lat="44.8333794561124" lon="9.878640471444955"><ele>277.0</ele><time>2026-04-26T07:24:03.998Z</time></trkpt><trkpt lat="44.833357852805584" lon="9.878781297717154"><ele>277.0</ele><time>2026-04-26T07:24:05.998Z</time></trkpt><trkpt lat="44.8333469840326" lon="9.878882720393868"><ele>277.0</ele><time>2026-04-26T07:24:08.998Z</time></trkpt><trkpt lat="44.833342891553876" lon="9.879002076934704"><ele>277.0</ele><time>2026-04-26T07:24:13.998Z</time></trkpt><trkpt lat="44.83335521415732" lon="9.879099898497552"><ele>277.0</ele><time>2026-04-26T07:25:08.999Z</time></trkpt><trkpt lat="44.83337685654444" lon="9.879227692310144"><ele>277.0</ele><time>2026-04-26T07:25:11.999Z</time></trkpt><trkpt lat="44.833399893726465" lon="9.879341195768497"><ele>277.0</ele><time>2026-04-26T07:25:13.999Z</time></trkpt><trkpt lat="44.833420649092005" lon="9.87946826986937"><ele>277.0</ele><time>2026-04-26T07:25:15.999Z</time></trkpt><trkpt lat="44.8334516389192" lon="9.879610981280106"><ele>277.0</ele><time>2026-04-26T07:25:17.999Z</time></trkpt><trkpt lat="44.83349538315926" lon="9.879765365275613"><ele>275.0</ele><time>2026-04-26T07:25:19.999Z</time></trkpt><trkpt lat="44.83353538770014" lon="9.879924168628312"><ele>273.0</ele><time>2026-04-26T07:25:21.999Z</time></trkpt><trkpt lat="44.83357434891356" lon="9.880092349503117"><ele>271.0</ele><time>2026-04-26T07:25:23.999Z</time></trkpt><trkpt lat="44.83359292906442" lon="9.880182011843024"><ele>269.0</ele><time>2026-04-26T07:25:24.999Z</time></trkpt><trkpt lat="44.83359854285247" lon="9.880276344532692"><ele>267.0</ele><time>2026-04-26T07:25:25.999Z</time></trkpt><trkpt lat="44.83361823719236" lon="9.880365424535954"><ele>265.0</ele><time>2026-04-26T07:25:26.999Z</time></trkpt><trkpt lat="44.83363861800115" lon="9.88045325169805"><ele>265.0</ele><time>2026-04-26T07:25:27.999Z</time></trkpt><trkpt lat="44.83367564623684" lon="9.880529026747485"><ele>265.0</ele><time>2026-04-26T07:25:28.999Z</time></trkpt><trkpt lat="44.833718467490755" lon="9.880694012095852"><ele>265.0</ele><time>2026-04-26T07:25:30.999Z</time></trkpt><trkpt lat="44.833767619992074" lon="9.880851027020574"><ele>265.0</ele><time>2026-04-26T07:25:32.999Z</time></trkpt><trkpt lat="44.83382323131595" lon="9.881008506790582"><ele>265.0</ele><time>2026-04-26T07:25:34.999Z</time></trkpt><trkpt lat="44.83387163019906" lon="9.88117014688627"><ele>267.5</ele><time>2026-04-26T07:25:36.999Z</time></trkpt><trkpt lat="44.833923195806186" lon="9.881328423444884"><ele>270.0</ele><time>2026-04-26T07:25:38.999Z</time></trkpt><trkpt lat="44.83397552311837" lon="9.881488178919996"><ele>272.5</ele><time>2026-04-26T07:25:40.999Z</time></trkpt><trkpt lat="44.83403305455187" lon="9.881646739529122"><ele>275.0</ele><time>2026-04-26T07:25:42.998Z</time></trkpt><trkpt lat="44.83409166622033" lon="9.881798642720517"><ele>273.5</ele><time>2026-04-26T07:25:44.998Z</time></trkpt><trkpt lat="44.834159525321844" lon="9.881936577527451"><ele>272.0</ele><time>2026-04-26T07:25:46.998Z</time></trkpt><trkpt lat="44.83422573350693" lon="9.8820663520602"><ele>270.5</ele><time>2026-04-26T07:25:48.998Z</time></trkpt><trkpt lat="44.83426394222761" lon="9.882210360707603"><ele>269.0</ele><time>2026-04-26T07:25:50.998Z</time></trkpt><trkpt lat="44.83432429826893" lon="9.882344236652647"><ele>269.0</ele><time>2026-04-26T07:25:52.998Z</time></trkpt><trkpt lat="44.83434847606609" lon="9.882493559856458"><ele>269.0</ele><time>2026-04-26T07:25:54.998Z</time></trkpt><trkpt lat="44.834399500143995" lon="9.882628758080827"><ele>269.0</ele><time>2026-04-26T07:25:56.998Z</time></trkpt><trkpt lat="44.83446316182032" lon="9.88275272281917"><ele>269.0</ele><time>2026-04-26T07:25:58.998Z</time></trkpt><trkpt lat="44.834531428254756" lon="9.88286632965593"><ele>269.0</ele><time>2026-04-26T07:26:00.998Z</time></trkpt><trkpt lat="44.83461471393599" lon="9.882957530357597"><ele>273.2</ele><time>2026-04-26T07:26:02.998Z</time></trkpt><trkpt lat="44.834693973866656" lon="9.883045352597486"><ele>277.4</ele><time>2026-04-26T07:26:04.998Z</time></trkpt><trkpt lat="44.83477775935878" lon="9.883139756846493"><ele>281.6</ele><time>2026-04-26T07:26:06.998Z</time></trkpt><trkpt lat="44.8348991814272" lon="9.883123884190448"><ele>285.8</ele><time>2026-04-26T07:26:08.998Z</time></trkpt><trkpt lat="44.834996288279676" lon="9.883150950744252"><ele>290.0</ele><time>2026-04-26T07:26:10.998Z</time></trkpt><trkpt lat="44.83509948740205" lon="9.883160590413414"><ele>287.4</ele><time>2026-04-26T07:26:12.998Z</time></trkpt><trkpt lat="44.83520274569915" lon="9.883182036951101"><ele>284.8</ele><time>2026-04-26T07:26:14.998Z</time></trkpt><trkpt lat="44.835300693222095" lon="9.88320358941958"><ele>282.2</ele><time>2026-04-26T07:26:16.998Z</time></trkpt><trkpt lat="44.83539448742864" lon="9.88323952962109"><ele>279.6</ele><time>2026-04-26T07:26:18.998Z</time></trkpt><trkpt lat="44.8355013412356" lon="9.883305663751658"><ele>277.0</ele><time>2026-04-26T07:26:21.998Z</time></trkpt><trkpt lat="44.83556206506589" lon="9.88336548698432"><ele>279.25</ele><time>2026-04-26T07:26:22.998Z</time></trkpt><trkpt lat="44.83560943499834" lon="9.883491404970385"><ele>281.5</ele><time>2026-04-26T07:26:24.998Z</time></trkpt><trkpt lat="44.83565704345663" lon="9.88369060962268"><ele>283.75</ele><time>2026-04-26T07:26:27.998Z</time></trkpt><trkpt lat="44.83569065158977" lon="9.883824780448471"><ele>286.0</ele><time>2026-04-26T07:26:30Z</time></trkpt><trkpt lat="44.83572296908597" lon="9.883961888561304"><ele>286.0</ele><time>2026-04-26T07:26:32Z</time></trkpt><trkpt lat="44.83576029465127" lon="9.884095419935326"><ele>286.0</ele><time>2026-04-26T07:26:34Z</time></trkpt><trkpt lat="44.835800369228814" lon="9.884226729683176"><ele>286.0</ele><time>2026-04-26T07:26:36Z</time></trkpt><trkpt lat="44.835840920540335" lon="9.884354612175091"><ele>286.0</ele><time>2026-04-26T07:26:38Z</time></trkpt><trkpt lat="44.83588483775333" lon="9.884472840330726"><ele>286.0</ele><time>2026-04-26T07:26:40Z</time></trkpt><trkpt lat="44.83594008344862" lon="9.884590589543064"><ele>285.0</ele><time>2026-04-26T07:26:42Z</time></trkpt><trkpt lat="44.83599798947904" lon="9.884710029873219"><ele>284.0</ele><time>2026-04-26T07:26:44Z</time></trkpt><trkpt lat="44.83607877427648" lon="9.884799340231826"><ele>283.0</ele><time>2026-04-26T07:26:46Z</time></trkpt><trkpt lat="44.83615366440973" lon="9.884894602360752"><ele>282.0</ele><time>2026-04-26T07:26:48Z</time></trkpt><trkpt lat="44.83621444184388" lon="9.884994384059206"><ele>281.0</ele><time>2026-04-26T07:26:50Z</time></trkpt><trkpt lat="44.836283077777736" lon="9.885091951945533"><ele>284.2</ele><time>2026-04-26T07:26:51.999Z</time></trkpt><trkpt lat="44.83636077830529" lon="9.885185440447207"><ele>287.40000000000003</ele><time>2026-04-26T07:26:53.999Z</time></trkpt><trkpt lat="44.836444912645206" lon="9.885278018092128"><ele>290.6</ele><time>2026-04-26T07:26:55.999Z</time></trkpt><trkpt lat="44.83652784878193" lon="9.885366478951905"><ele>293.8</ele><time>2026-04-26T07:26:57.999Z</time></trkpt><trkpt lat="44.83661641422753" lon="9.885447548955062"><ele>297.0</ele><time>2026-04-26T07:26:59.999Z</time></trkpt><trkpt lat="44.83671274553666" lon="9.88548189997917"><ele>296.2</ele><time>2026-04-26T07:27:01.999Z</time></trkpt><trkpt lat="44.836807134441464" lon="9.885509939048614"><ele>295.4</ele><time>2026-04-26T07:27:03.999Z</time></trkpt><trkpt lat="44.83690427651506" lon="9.885540613446162"><ele>294.6</ele><time>2026-04-26T07:27:05.999Z</time></trkpt><trkpt lat="44.83700883132327" lon="9.885562809405416"><ele>293.8</ele><time>2026-04-26T07:27:07.999Z</time></trkpt><trkpt lat="44.83711636964773" lon="9.885579127933577"><ele>293.0</ele><time>2026-04-26T07:27:09.999Z</time></trkpt><trkpt lat="44.83720639032406" lon="9.885601264643567"><ele>293.0</ele><time>2026-04-26T07:27:11.999Z</time></trkpt><trkpt lat="44.83728547912664" lon="9.885618753418193"><ele>293.0</ele><time>2026-04-26T07:27:13.999Z</time></trkpt><trkpt lat="44.83737522534245" lon="9.885636597162465"><ele>293.0</ele><time>2026-04-26T07:27:15.999Z</time></trkpt><trkpt lat="44.83746645317542" lon="9.885662535758962"><ele>293.0</ele><time>2026-04-26T07:27:17.999Z</time></trkpt><trkpt lat="44.83755468551803" lon="9.885680912332838"><ele>293.0</ele><time>2026-04-26T07:27:19.999Z</time></trkpt><trkpt lat="44.83764483493902" lon="9.885713665094176"><ele>293.0</ele><time>2026-04-26T07:27:21.999Z</time></trkpt><trkpt lat="44.837720805074035" lon="9.885778584879045"><ele>292.8</ele><time>2026-04-26T07:27:23.999Z</time></trkpt><trkpt lat="44.837772915792854" lon="9.885878693156998"><ele>292.6</ele><time>2026-04-26T07:27:25.999Z</time></trkpt><trkpt lat="44.83777707065998" lon="9.886000833432233"><ele>292.4</ele><time>2026-04-26T07:27:27.999Z</time></trkpt><trkpt lat="44.83772588123798" lon="9.886111484363397"><ele>292.2</ele><time>2026-04-26T07:27:29.999Z</time></trkpt><trkpt lat="44.83767323661347" lon="9.886227844758734"><ele>292.0</ele><time>2026-04-26T07:27:31.999Z</time></trkpt><trkpt lat="44.83761134650146" lon="9.886352287084462"><ele>292.0</ele><time>2026-04-26T07:27:33.999Z</time></trkpt><trkpt lat="44.8375439214342" lon="9.886485864088446"><ele>292.0</ele><time>2026-04-26T07:27:35.999Z</time></trkpt><trkpt lat="44.837531175231554" lon="9.886578506860491"><ele>292.0</ele><time>2026-04-26T07:27:36.999Z</time></trkpt><trkpt lat="44.837463558077395" lon="9.88671120922207"><ele>292.0</ele><time>2026-04-26T07:27:38.999Z</time></trkpt><trkpt lat="44.837366230943395" lon="9.886832973288247"><ele>292.0</ele><time>2026-04-26T07:27:39.999Z</time></trkpt><trkpt lat="44.83732242728001" lon="9.886913208031837"><ele>290.16666666666663</ele><time>2026-04-26T07:27:40.999Z</time></trkpt><trkpt lat="44.83728115552484" lon="9.88699397424794"><ele>288.3333333333333</ele><time>2026-04-26T07:27:41.999Z</time></trkpt><trkpt lat="44.837240900506195" lon="9.887082733645418"><ele>286.5</ele><time>2026-04-26T07:27:42.999Z</time></trkpt><trkpt lat="44.837205785430136" lon="9.887174106926238"><ele>284.6666666666667</ele><time>2026-04-26T07:27:43.999Z</time></trkpt><trkpt lat="44.83717467719931" lon="9.887270695400918"><ele>282.83333333333337</ele><time>2026-04-26T07:27:44.999Z</time></trkpt><trkpt lat="44.8371792018834" lon="9.887395617366012"><ele>281.0</ele><time>2026-04-26T07:27:45.998Z</time></trkpt><trkpt lat="44.837187813298094" lon="9.88750855242231"><ele>281.0</ele><time>2026-04-26T07:27:46.998Z</time></trkpt><trkpt lat="44.8372087997564" lon="9.887622106946004"><ele>281.0</ele><time>2026-04-26T07:27:47.998Z</time></trkpt><trkpt lat="44.83723439981477" lon="9.887734987616355"><ele>281.0</ele><time>2026-04-26T07:27:48.998Z</time></trkpt><trkpt lat="44.8372499893848" lon="9.887848430685136"><ele>281.0</ele><time>2026-04-26T07:27:49.998Z</time></trkpt><trkpt lat="44.83724005338344" lon="9.887963387763552"><ele>281.0</ele><time>2026-04-26T07:27:50.998Z</time></trkpt><trkpt lat="44.83723715068871" lon="9.888079960631362"><ele>281.0</ele><time>2026-04-26T07:27:51.998Z</time></trkpt><trkpt lat="44.837234815954396" lon="9.88820083395158"><ele>281.0</ele><time>2026-04-26T07:27:52.998Z</time></trkpt><trkpt lat="44.83724828160955" lon="9.888326188044593"><ele>281.0</ele><time>2026-04-26T07:27:53.998Z</time></trkpt><trkpt lat="44.83726288701395" lon="9.888458257081318"><ele>281.0</ele><time>2026-04-26T07:27:54.998Z</time></trkpt><trkpt lat="44.83729699585276" lon="9.888577630269234"><ele>281.0</ele><time>2026-04-26T07:27:55.998Z</time></trkpt><trkpt lat="44.83733730306463" lon="9.888692686483965"><ele>281.0</ele><time>2026-04-26T07:27:56.998Z</time></trkpt><trkpt lat="44.83738108098623" lon="9.888806834306655"><ele>280.83333333333337</ele><time>2026-04-26T07:27:57.998Z</time></trkpt><trkpt lat="44.837424254749536" lon="9.888920720427858"><ele>280.6666666666667</ele><time>2026-04-26T07:27:58.998Z</time></trkpt><trkpt lat="44.83746533216263" lon="9.889039817547205"><ele>280.5</ele><time>2026-04-26T07:27:59.998Z</time></trkpt><trkpt lat="44.837506447562056" lon="9.889159808760741"><ele>280.3333333333333</ele><time>2026-04-26T07:28:00.998Z</time></trkpt><trkpt lat="44.837504292907134" lon="9.889280960806492"><ele>280.16666666666663</ele><time>2026-04-26T07:28:01.998Z</time></trkpt><trkpt lat="44.837483582508625" lon="9.889377020169292"><ele>280.0</ele><time>2026-04-26T07:28:02.998Z</time></trkpt><trkpt lat="44.837406900546384" lon="9.889426281303013"><ele>277.8333333333333</ele><time>2026-04-26T07:28:03.998Z</time></trkpt><trkpt lat="44.837321800944814" lon="9.889474011025133"><ele>275.66666666666663</ele><time>2026-04-26T07:28:04.998Z</time></trkpt><trkpt lat="44.83724398370057" lon="9.889522598472078"><ele>273.5</ele><time>2026-04-26T07:28:05.998Z</time></trkpt><trkpt lat="44.837178852959724" lon="9.889583233901485"><ele>271.3333333333333</ele><time>2026-04-26T07:28:06.998Z</time></trkpt><trkpt lat="44.83710003040024" lon="9.889608409414498"><ele>269.1666666666667</ele><time>2026-04-26T07:28:07.998Z</time></trkpt><trkpt lat="44.83701860569504" lon="9.889656728352229"><ele>267.0</ele><time>2026-04-26T07:28:08.998Z</time></trkpt><trkpt lat="44.83693482699456" lon="9.889705430015484"><ele>267.0</ele><time>2026-04-26T07:28:09.998Z</time></trkpt><trkpt lat="44.83684956060448" lon="9.889753851400885"><ele>267.0</ele><time>2026-04-26T07:28:10.998Z</time></trkpt><trkpt lat="44.83676393248819" lon="9.889798791975563"><ele>267.0</ele><time>2026-04-26T07:28:11.998Z</time></trkpt><trkpt lat="44.83667900572053" lon="9.889842788214548"><ele>267.0</ele><time>2026-04-26T07:28:12.998Z</time></trkpt><trkpt lat="44.836597099846074" lon="9.889912809989626"><ele>267.0</ele><time>2026-04-26T07:28:13.998Z</time></trkpt><trkpt lat="44.83650843471353" lon="9.889956978846891"><ele>268.2</ele><time>2026-04-26T07:28:14.998Z</time></trkpt><trkpt lat="44.83642368404138" lon="9.890013480700226"><ele>269.4</ele><time>2026-04-26T07:28:15.998Z</time></trkpt><trkpt lat="44.83634027328689" lon="9.890067561850984"><ele>270.6</ele><time>2026-04-26T07:28:16.998Z</time></trkpt><trkpt lat="44.836255791212764" lon="9.89012404712401"><ele>271.8</ele><time>2026-04-26T07:28:17.998Z</time></trkpt><trkpt lat="44.83618336814769" lon="9.890204726130412"><ele>273.0</ele><time>2026-04-26T07:28:18.998Z</time></trkpt><trkpt lat="44.83611586032624" lon="9.890292292737318"><ele>272.0</ele><time>2026-04-26T07:28:19.998Z</time></trkpt><trkpt lat="44.836052183315324" lon="9.890399985235499"><ele>271.0</ele><time>2026-04-26T07:28:20.998Z</time></trkpt><trkpt lat="44.836002005191304" lon="9.89051852352299"><ele>270.0</ele><time>2026-04-26T07:28:21.998Z</time></trkpt><trkpt lat="44.835966488790184" lon="9.890641523223156"><ele>269.0</ele><time>2026-04-26T07:28:22.998Z</time></trkpt><trkpt lat="44.83592927215225" lon="9.890759322764325"><ele>268.0</ele><time>2026-04-26T07:28:23.998Z</time></trkpt><trkpt lat="44.83593788845145" lon="9.890889006182798"><ele>268.8333333333333</ele><time>2026-04-26T07:28:24.998Z</time></trkpt><trkpt lat="44.835944071223786" lon="9.891007694387374"><ele>269.66666666666663</ele><time>2026-04-26T07:28:25.998Z</time></trkpt><trkpt lat="44.835944934902756" lon="9.89112254620495"><ele>270.5</ele><time>2026-04-26T07:28:26.998Z</time></trkpt><trkpt lat="44.83596748484794" lon="9.891231225644306"><ele>271.3333333333333</ele><time>2026-04-26T07:28:27.998Z</time></trkpt><trkpt lat="44.83599890598435" lon="9.891337433815316"><ele>272.1666666666667</ele><time>2026-04-26T07:28:28.998Z</time></trkpt><trkpt lat="44.836047042465616" lon="9.891424930230626"><ele>273.0</ele><time>2026-04-26T07:28:29.998Z</time></trkpt><trkpt lat="44.83608059827049" lon="9.891521434639001"><ele>273.0</ele><time>2026-04-26T07:28:30.998Z</time></trkpt><trkpt lat="44.83610994713557" lon="9.891618991943066"><ele>273.0</ele><time>2026-04-26T07:28:31.998Z</time></trkpt><trkpt lat="44.836149775541905" lon="9.891705801093856"><ele>273.0</ele><time>2026-04-26T07:28:32.998Z</time></trkpt><trkpt lat="44.83618001826425" lon="9.891797813683135"><ele>273.0</ele><time>2026-04-26T07:28:34Z</time></trkpt><trkpt lat="44.83621314098988" lon="9.891888048149385"><ele>273.0</ele><time>2026-04-26T07:28:35Z</time></trkpt><trkpt lat="44.83624454101587" lon="9.891975452369778"><ele>273.0</ele><time>2026-04-26T07:28:36Z</time></trkpt><trkpt lat="44.83627365918404" lon="9.89205977819096"><ele>273.0</ele><time>2026-04-26T07:28:37Z</time></trkpt><trkpt lat="44.83630524278305" lon="9.892138908214482"><ele>273.0</ele><time>2026-04-26T07:28:38Z</time></trkpt><trkpt lat="44.836360363076345" lon="9.892298661690022"><ele>273.0</ele><time>2026-04-26T07:28:40Z</time></trkpt><trkpt lat="44.83641707068622" lon="9.892450364815232"><ele>273.0</ele><time>2026-04-26T07:28:42Z</time></trkpt><trkpt lat="44.83646774443455" lon="9.892604233769829"><ele>273.0</ele><time>2026-04-26T07:28:44Z</time></trkpt><trkpt lat="44.83652274051358" lon="9.892747506650146"><ele>274.5</ele><time>2026-04-26T07:28:46Z</time></trkpt><trkpt lat="44.83657356062381" lon="9.892898480265321"><ele>276.0</ele><time>2026-04-26T07:28:48Z</time></trkpt><trkpt lat="44.83662980534181" lon="9.893044962225442"><ele>277.5</ele><time>2026-04-26T07:28:50Z</time></trkpt><trkpt lat="44.83669258251123" lon="9.893184074702578"><ele>279.0</ele><time>2026-04-26T07:28:52Z</time></trkpt><trkpt lat="44.83675259574636" lon="9.893320272146305"><ele>279.0</ele><time>2026-04-26T07:28:54Z</time></trkpt><trkpt lat="44.83683735129556" lon="9.89343337535308"><ele>279.0</ele><time>2026-04-26T07:28:55.999Z</time></trkpt><trkpt lat="44.83693703531014" lon="9.893530931224403"><ele>279.0</ele><time>2026-04-26T07:28:57.999Z</time></trkpt><trkpt lat="44.83702891250038" lon="9.893638120751922"><ele>279.0</ele><time>2026-04-26T07:28:59.999Z</time></trkpt><trkpt lat="44.837126930317766" lon="9.893728660098416"><ele>279.0</ele><time>2026-04-26T07:29:01.999Z</time></trkpt><trkpt lat="44.83721961231009" lon="9.893813475654072"><ele>279.0</ele><time>2026-04-26T07:29:03.999Z</time></trkpt><trkpt lat="44.837314511758024" lon="9.893899073926834"><ele>279.0</ele><time>2026-04-26T07:29:05.999Z</time></trkpt><trkpt lat="44.83740288664613" lon="9.894007888466804"><ele>279.0</ele><time>2026-04-26T07:29:07.999Z</time></trkpt><trkpt lat="44.83750296529324" lon="9.89411089982724"><ele>279.0</ele><time>2026-04-26T07:29:09.999Z</time></trkpt><trkpt lat="44.83754958474448" lon="9.89417078545429"><ele>279.0</ele><time>2026-04-26T07:29:10.999Z</time></trkpt><trkpt lat="44.83759844380456" lon="9.894229124485095"><ele>279.0</ele><time>2026-04-26T07:29:11.999Z</time></trkpt><trkpt lat="44.83764585027212" lon="9.894289571241798"><ele>279.0</ele><time>2026-04-26T07:29:12.999Z</time></trkpt><trkpt lat="44.837737805989185" lon="9.894410242561571"><ele>279.0</ele><time>2026-04-26T07:29:14.999Z</time></trkpt><trkpt lat="44.83782747133408" lon="9.894535277335452"><ele>279.0</ele><time>2026-04-26T07:29:16.999Z</time></trkpt><trkpt lat="44.83791873999169" lon="9.894654972583952"><ele>279.0</ele><time>2026-04-26T07:29:18.999Z</time></trkpt><trkpt lat="44.83800605963516" lon="9.894777866482462"><ele>279.0</ele><time>2026-04-26T07:29:20.999Z</time></trkpt><trkpt lat="44.83809982646653" lon="9.89490136355028"><ele>279.0</ele><time>2026-04-26T07:29:22.999Z</time></trkpt><trkpt lat="44.838148672375475" lon="9.894968307199852"><ele>279.0</ele><time>2026-04-26T07:29:23.999Z</time></trkpt><trkpt lat="44.83819775319909" lon="9.895042402809558"><ele>279.0</ele><time>2026-04-26T07:29:24.999Z</time></trkpt><trkpt lat="44.83825206793023" lon="9.895113679582023"><ele>277.3333333333333</ele><time>2026-04-26T07:29:25.999Z</time></trkpt><trkpt lat="44.83830665330712" lon="9.895186801856072"><ele>275.6666666666667</ele><time>2026-04-26T07:29:26.999Z</time></trkpt><trkpt lat="44.83836215899691" lon="9.89526158399472"><ele>274.0</ele><time>2026-04-26T07:29:27.999Z</time></trkpt><trkpt lat="44.83841881579428" lon="9.89534199928872"><ele>272.33333333333337</ele><time>2026-04-26T07:29:28.999Z</time></trkpt><trkpt lat="44.83847812163224" lon="9.895426602344394"><ele>270.6666666666667</ele><time>2026-04-26T07:29:29.999Z</time></trkpt><trkpt lat="44.83853742014734" lon="9.895513327237087"><ele>269.0</ele><time>2026-04-26T07:29:30.999Z</time></trkpt><trkpt lat="44.83860077117863" lon="9.895598244057119"><ele>268.4</ele><time>2026-04-26T07:29:31.999Z</time></trkpt><trkpt lat="44.83867424558516" lon="9.895664049555212"><ele>267.79999999999995</ele><time>2026-04-26T07:29:32.999Z</time></trkpt><trkpt lat="44.83876456173029" lon="9.895690823127232"><ele>267.20000000000005</ele><time>2026-04-26T07:29:33.999Z</time></trkpt><trkpt lat="44.8388543693891" lon="9.89569277747072"><ele>266.6</ele><time>2026-04-26T07:29:34.999Z</time></trkpt><trkpt lat="44.83894387360552" lon="9.895682695001652"><ele>266.0</ele><time>2026-04-26T07:29:35.999Z</time></trkpt><trkpt lat="44.83903859414747" lon="9.895683418923445"><ele>266.0</ele><time>2026-04-26T07:29:36.999Z</time></trkpt><trkpt lat="44.83913196931748" lon="9.895701402181809"><ele>266.0</ele><time>2026-04-26T07:29:37.999Z</time></trkpt><trkpt lat="44.83922435830938" lon="9.895746018679448"><ele>266.0</ele><time>2026-04-26T07:29:38.999Z</time></trkpt><trkpt lat="44.83931299878917" lon="9.895805083435084"><ele>266.0</ele><time>2026-04-26T07:29:39.999Z</time></trkpt><trkpt lat="44.83939938377102" lon="9.895873292714517"><ele>266.0</ele><time>2026-04-26T07:29:40.999Z</time></trkpt><trkpt lat="44.83948564279453" lon="9.895940175103489"><ele>266.6</ele><time>2026-04-26T07:29:41.999Z</time></trkpt><trkpt lat="44.83957405135236" lon="9.896002714450102"><ele>267.20000000000005</ele><time>2026-04-26T07:29:42.999Z</time></trkpt><trkpt lat="44.83965970389216" lon="9.896072505421683"><ele>267.79999999999995</ele><time>2026-04-26T07:29:43.999Z</time></trkpt><trkpt lat="44.83974321285305" lon="9.896136545015821"><ele>268.4</ele><time>2026-04-26T07:29:44.999Z</time></trkpt><trkpt lat="44.83984104117061" lon="9.896171185521892"><ele>269.0</ele><time>2026-04-26T07:29:45.999Z</time></trkpt><trkpt lat="44.83993611129727" lon="9.896179965097945"><ele>269.0</ele><time>2026-04-26T07:29:46.999Z</time></trkpt><trkpt lat="44.84003289795783" lon="9.896166558999905"><ele>269.0</ele><time>2026-04-26T07:29:47.999Z</time></trkpt><trkpt lat="44.840128662048656" lon="9.896152046191496"><ele>269.0</ele><time>2026-04-26T07:29:48.998Z</time></trkpt><trkpt lat="44.84022305880463" lon="9.896141852794388"><ele>269.0</ele><time>2026-04-26T07:29:49.998Z</time></trkpt><trkpt lat="44.84031811942507" lon="9.896146169804718"><ele>269.0</ele><time>2026-04-26T07:29:50.998Z</time></trkpt><trkpt lat="44.84041302070697" lon="9.896154665612732"><ele>268.0</ele><time>2026-04-26T07:29:51.998Z</time></trkpt><trkpt lat="44.84050677867832" lon="9.896182886216566"><ele>267.0</ele><time>2026-04-26T07:29:52.998Z</time></trkpt><trkpt lat="44.84060418830582" lon="9.896204255574249"><ele>266.0</ele><time>2026-04-26T07:29:53.998Z</time></trkpt><trkpt lat="44.84069881156124" lon="9.89622553309474"><ele>265.0</ele><time>2026-04-26T07:29:54.998Z</time></trkpt><trkpt lat="44.84078901586923" lon="9.89626016136827"><ele>264.0</ele><time>2026-04-26T07:29:55.998Z</time></trkpt><trkpt lat="44.84086057581911" lon="9.896315853459496"><ele>264.0</ele><time>2026-04-26T07:29:56.998Z</time></trkpt><trkpt lat="44.840915875190255" lon="9.896410718030928"><ele>264.0</ele><time>2026-04-26T07:29:57.998Z</time></trkpt><trkpt lat="44.84089532511491" lon="9.896545994920213"><ele>264.0</ele><time>2026-04-26T07:29:58.998Z</time></trkpt><trkpt lat="44.84086115988939" lon="9.896650287226581"><ele>264.0</ele><time>2026-04-26T07:29:59.998Z</time></trkpt><trkpt lat="44.84084794820989" lon="9.896763930812993"><ele>264.0</ele><time>2026-04-26T07:30:00.998Z</time></trkpt><trkpt lat="44.84083449266864" lon="9.896876782289834"><ele>264.0</ele><time>2026-04-26T07:30:01.998Z</time></trkpt><trkpt lat="44.84082201519802" lon="9.896986262937467"><ele>263.8333333333333</ele><time>2026-04-26T07:30:02.998Z</time></trkpt><trkpt lat="44.840812400019146" lon="9.897091168823813"><ele>263.6666666666667</ele><time>2026-04-26T07:30:03.998Z</time></trkpt><trkpt lat="44.84080579891864" lon="9.897204218646436"><ele>263.5</ele><time>2026-04-26T07:30:04.998Z</time></trkpt><trkpt lat="44.84080148673885" lon="9.897311301994481"><ele>263.33333333333337</ele><time>2026-04-26T07:30:05.998Z</time></trkpt><trkpt lat="44.84079807892072" lon="9.897423386048986"><ele>263.1666666666667</ele><time>2026-04-26T07:30:06.998Z</time></trkpt><trkpt lat="44.84079705331058" lon="9.897541429782905"><ele>263.0</ele><time>2026-04-26T07:30:07.998Z</time></trkpt><trkpt lat="44.840799512727095" lon="9.897658188896601"><ele>262.83333333333337</ele><time>2026-04-26T07:30:08.998Z</time></trkpt><trkpt lat="44.84080944513847" lon="9.897772021405425"><ele>262.6666666666667</ele><time>2026-04-26T07:30:09.998Z</time></trkpt><trkpt lat="44.840819198556616" lon="9.89788397787423"><ele>262.5</ele><time>2026-04-26T07:30:10.998Z</time></trkpt><trkpt lat="44.840828898839895" lon="9.897995324343503"><ele>262.3333333333333</ele><time>2026-04-26T07:30:11.998Z</time></trkpt><trkpt lat="44.84083854116642" lon="9.898104512283115"><ele>262.16666666666663</ele><time>2026-04-26T07:30:12.998Z</time></trkpt><trkpt lat="44.84084878432602" lon="9.898210771451444"><ele>262.0</ele><time>2026-04-26T07:30:13.998Z</time></trkpt><trkpt lat="44.84087596133792" lon="9.898315175160194"><ele>262.0</ele><time>2026-04-26T07:30:14.998Z</time></trkpt><trkpt lat="44.8408854378661" lon="9.898413138034797"><ele>262.0</ele><time>2026-04-26T07:30:15.998Z</time></trkpt><trkpt lat="44.84088608837786" lon="9.898512597485173"><ele>262.0</ele><time>2026-04-26T07:30:16.998Z</time></trkpt><trkpt lat="44.84090503826221" lon="9.898614907671556"><ele>262.0</ele><time>2026-04-26T07:30:17.998Z</time></trkpt><trkpt lat="44.840944267773764" lon="9.898699707079457"><ele>262.0</ele><time>2026-04-26T07:30:18.998Z</time></trkpt><trkpt lat="44.84096832952508" lon="9.89879235228248"><ele>262.0</ele><time>2026-04-26T07:30:19.998Z</time></trkpt><trkpt lat="44.840998123536046" lon="9.898882716394636"><ele>262.0</ele><time>2026-04-26T07:30:20.998Z</time></trkpt><trkpt lat="44.84103578210106" lon="9.8989716107797"><ele>261.42857142857144</ele><time>2026-04-26T07:30:21.998Z</time></trkpt><trkpt lat="44.84107561653348" lon="9.899055457751057"><ele>260.8571428571429</ele><time>2026-04-26T07:30:22.998Z</time></trkpt><trkpt lat="44.84111635604905" lon="9.899139750962432"><ele>260.2857142857143</ele><time>2026-04-26T07:30:23.998Z</time></trkpt><trkpt lat="44.84115645923623" lon="9.899222442564659"><ele>259.7142857142857</ele><time>2026-04-26T07:30:24.998Z</time></trkpt><trkpt lat="44.841193767214115" lon="9.899309431652952"><ele>259.1428571428571</ele><time>2026-04-26T07:30:25.998Z</time></trkpt><trkpt lat="44.84122763807769" lon="9.899395084918842"><ele>258.57142857142856</ele><time>2026-04-26T07:30:26.998Z</time></trkpt><trkpt lat="44.841259506808576" lon="9.899482700200144"><ele>258.0</ele><time>2026-04-26T07:30:27.998Z</time></trkpt><trkpt lat="44.84127565568636" lon="9.899579147698494"><ele>258.0</ele><time>2026-04-26T07:30:28.998Z</time></trkpt><trkpt lat="44.84130201817433" lon="9.899662435863776"><ele>258.0</ele><time>2026-04-26T07:30:29.998Z</time></trkpt><trkpt lat="44.8413277376118" lon="9.899751450851632"><ele>258.0</ele><time>2026-04-26T07:30:30.998Z</time></trkpt><trkpt lat="44.84135016987495" lon="9.899839781749147"><ele>258.0</ele><time>2026-04-26T07:30:31.998Z</time></trkpt><trkpt lat="44.84139096798117" lon="9.900008427390995"><ele>258.0</ele><time>2026-04-26T07:30:33.998Z</time></trkpt><trkpt lat="44.84143045792747" lon="9.900175866142582"><ele>259.4</ele><time>2026-04-26T07:30:35.998Z</time></trkpt><trkpt lat="44.84146665537928" lon="9.900337677258"><ele>260.8</ele><time>2026-04-26T07:30:37.998Z</time></trkpt><trkpt lat="44.84150397297425" lon="9.900487858745244"><ele>262.2</ele><time>2026-04-26T07:30:40Z</time></trkpt><trkpt lat="44.8415415326945" lon="9.900627542846467"><ele>263.6</ele><time>2026-04-26T07:30:42Z</time></trkpt><trkpt lat="44.84157528781257" lon="9.900756902335283"><ele>265.0</ele><time>2026-04-26T07:30:44Z</time></trkpt><trkpt lat="44.84159777478545" lon="9.900883283634613"><ele>266.5</ele><time>2026-04-26T07:30:46Z</time></trkpt><trkpt lat="44.84162788915551" lon="9.900993147787284"><ele>268.0</ele><time>2026-04-26T07:30:48Z</time></trkpt><trkpt lat="44.84162627821653" lon="9.901116077791476"><ele>269.5</ele><time>2026-04-26T07:30:50Z</time></trkpt><trkpt lat="44.84159750698625" lon="9.901220874457582"><ele>271.0</ele><time>2026-04-26T07:30:52Z</time></trkpt><trkpt lat="44.841553809915695" lon="9.90133285010508"><ele>272.5</ele><time>2026-04-26T07:30:54Z</time></trkpt><trkpt lat="44.84149658291247" lon="9.901449155829772"><ele>274.0</ele><time>2026-04-26T07:30:56Z</time></trkpt><trkpt lat="44.84147685200018" lon="9.901586681539436"><ele>274.0</ele><time>2026-04-26T07:30:58Z</time></trkpt><trkpt lat="44.84149127366051" lon="9.901718879872123"><ele>274.0</ele><time>2026-04-26T07:30:59.999Z</time></trkpt><trkpt lat="44.841562119441505" lon="9.90182710973142"><ele>274.0</ele><time>2026-04-26T07:31:01.999Z</time></trkpt><trkpt lat="44.84165468937956" lon="9.901908343535046"><ele>274.0</ele><time>2026-04-26T07:31:03.999Z</time></trkpt><trkpt lat="44.84174958928517" lon="9.901991354885789"><ele>274.0</ele><time>2026-04-26T07:31:05.999Z</time></trkpt><trkpt lat="44.84185757267158" lon="9.902087625965292"><ele>273.66666666666663</ele><time>2026-04-26T07:31:07.999Z</time></trkpt><trkpt lat="44.84191171413572" lon="9.902135697665141"><ele>273.3333333333333</ele><time>2026-04-26T07:31:08.999Z</time></trkpt><trkpt lat="44.842012875196865" lon="9.90222396529081"><ele>273.0</ele><time>2026-04-26T07:31:10.999Z</time></trkpt><trkpt lat="44.84206930755927" lon="9.902266416880336"><ele>272.6666666666667</ele><time>2026-04-26T07:31:11.999Z</time></trkpt><trkpt lat="44.84212335393874" lon="9.902313480439043"><ele>272.33333333333337</ele><time>2026-04-26T07:31:12.999Z</time></trkpt><trkpt lat="44.84223154770202" lon="9.902399243755436"><ele>272.0</ele><time>2026-04-26T07:31:14.999Z</time></trkpt><trkpt lat="44.84233334792825" lon="9.902493940301046"><ele>271.5</ele><time>2026-04-26T07:31:16.999Z</time></trkpt><trkpt lat="44.84241377969048" lon="9.902616935064318"><ele>271.0</ele><time>2026-04-26T07:31:18.999Z</time></trkpt><trkpt lat="44.842448812447984" lon="9.902774499576074"><ele>270.5</ele><time>2026-04-26T07:31:20.999Z</time></trkpt><trkpt lat="44.84251461260404" lon="9.902907335037751"><ele>270.0</ele><time>2026-04-26T07:31:22.999Z</time></trkpt><trkpt lat="44.8425522574538" lon="9.9030543379327"><ele>270.0</ele><time>2026-04-26T07:31:24.999Z</time></trkpt><trkpt lat="44.84260602123133" lon="9.903190338842048"><ele>270.0</ele><time>2026-04-26T07:31:26.999Z</time></trkpt><trkpt lat="44.84265619472798" lon="9.903326903194024"><ele>270.0</ele><time>2026-04-26T07:31:28.999Z</time></trkpt><trkpt lat="44.84270673880626" lon="9.903483769937022"><ele>270.0</ele><time>2026-04-26T07:31:30.999Z</time></trkpt><trkpt lat="44.84275729439466" lon="9.903553778366366"><ele>270.0</ele><time>2026-04-26T07:31:31.999Z</time></trkpt><trkpt lat="44.84279034959472" lon="9.903641084847186"><ele>268.0</ele><time>2026-04-26T07:31:32.999Z</time></trkpt><trkpt lat="44.842837696950994" lon="9.90372660595544"><ele>266.0</ele><time>2026-04-26T07:31:33.999Z</time></trkpt><trkpt lat="44.842883378787526" lon="9.903815151886121"><ele>264.0</ele><time>2026-04-26T07:31:34.999Z</time></trkpt><trkpt lat="44.8429000947656" lon="9.90391975148477"><ele>262.0</ele><time>2026-04-26T07:31:35.999Z</time></trkpt><trkpt lat="44.84289098833137" lon="9.904095744651364"><ele>260.0</ele><time>2026-04-26T07:31:37.999Z</time></trkpt><trkpt lat="44.84284728184077" lon="9.904175863085987"><ele>258.0</ele><time>2026-04-26T07:31:38.999Z</time></trkpt><trkpt lat="44.842811266040165" lon="9.904277471162196"><ele>258.0</ele><time>2026-04-26T07:31:39.999Z</time></trkpt><trkpt lat="44.8427883834902" lon="9.904378218711543"><ele>258.0</ele><time>2026-04-26T07:31:40.999Z</time></trkpt><trkpt lat="44.842760644525185" lon="9.904468728646838"><ele>258.0</ele><time>2026-04-26T07:31:41.999Z</time></trkpt><trkpt lat="44.842730980403346" lon="9.904551410773545"><ele>258.0</ele><time>2026-04-26T07:31:42.999Z</time></trkpt><trkpt lat="44.84272891747135" lon="9.904642885045899"><ele>258.0</ele><time>2026-04-26T07:31:43.999Z</time></trkpt><trkpt lat="44.84279834454003" lon="9.904735142115188"><ele>258.0</ele><time>2026-04-26T07:31:44.999Z</time></trkpt><trkpt lat="44.842863722779136" lon="9.904805559718401"><ele>258.0</ele><time>2026-04-26T07:31:45.999Z</time></trkpt><trkpt lat="44.84294110273641" lon="9.904857558998888"><ele>258.0</ele><time>2026-04-26T07:31:46.999Z</time></trkpt><trkpt lat="44.84300855773827" lon="9.904934439497305"><ele>258.0</ele><time>2026-04-26T07:31:47.999Z</time></trkpt><trkpt lat="44.84308478904352" lon="9.905002314672497"><ele>258.0</ele><time>2026-04-26T07:31:48.999Z</time></trkpt><trkpt lat="44.843163389627385" lon="9.905074944649474"><ele>258.0</ele><time>2026-04-26T07:31:49.999Z</time></trkpt><trkpt lat="44.84324627027893" lon="9.90515271063871"><ele>257.6</ele><time>2026-04-26T07:31:50.999Z</time></trkpt><trkpt lat="44.843329731988874" lon="9.905232299239252"><ele>257.20000000000005</ele><time>2026-04-26T07:31:51.999Z</time></trkpt><trkpt lat="44.84341194470297" lon="9.905310696503532"><ele>256.8</ele><time>2026-04-26T07:31:52.998Z</time></trkpt><trkpt lat="44.843496031442236" lon="9.905382349140858"><ele>256.40000000000003</ele><time>2026-04-26T07:31:53.998Z</time></trkpt><trkpt lat="44.84357760728565" lon="9.905459830613296"><ele>256.0</ele><time>2026-04-26T07:31:54.998Z</time></trkpt><trkpt lat="44.843661697427926" lon="9.905526616295708"><ele>254.83333333333331</ele><time>2026-04-26T07:31:55.998Z</time></trkpt><trkpt lat="44.84373845806881" lon="9.905592701961764"><ele>253.66666666666666</ele><time>2026-04-26T07:31:56.998Z</time></trkpt><trkpt lat="44.84381522712989" lon="9.905662130621714"><ele>252.5</ele><time>2026-04-26T07:31:57.998Z</time></trkpt><trkpt lat="44.84389071687451" lon="9.90572666122611"><ele>251.33333333333331</ele><time>2026-04-26T07:31:58.998Z</time></trkpt><trkpt lat="44.84396328522782" lon="9.905783512110169"><ele>250.16666666666666</ele><time>2026-04-26T07:31:59.998Z</time></trkpt><trkpt lat="44.84403305227731" lon="9.905839628471684"><ele>249.0</ele><time>2026-04-26T07:32:00.998Z</time></trkpt><trkpt lat="44.84409808468924" lon="9.905896254545018"><ele>248.39999999999998</ele><time>2026-04-26T07:32:01.998Z</time></trkpt><trkpt lat="44.844151302967035" lon="9.905953200348778"><ele>247.79999999999998</ele><time>2026-04-26T07:32:02.998Z</time></trkpt><trkpt lat="44.84422909990424" lon="9.906057484694152"><ele>247.20000000000002</ele><time>2026-04-26T07:32:04.998Z</time></trkpt><trkpt lat="44.84429428645524" lon="9.906186269558974"><ele>246.60000000000002</ele><time>2026-04-26T07:32:06.998Z</time></trkpt><trkpt lat="44.844377825306466" lon="9.906266238063784"><ele>246.0</ele><time>2026-04-26T07:32:08.998Z</time></trkpt><trkpt lat="44.844465852549405" lon="9.906322391505531"><ele>247.00000000000003</ele><time>2026-04-26T07:32:10.998Z</time></trkpt><trkpt lat="44.844544043549746" lon="9.906361390387577"><ele>248.0</ele><time>2026-04-26T07:32:12.998Z</time></trkpt><trkpt lat="44.84460594822231" lon="9.906400681690956"><ele>249.00000000000003</ele><time>2026-04-26T07:32:14.998Z</time></trkpt><trkpt lat="44.844687627652526" lon="9.906454841635737"><ele>250.00000000000003</ele><time>2026-04-26T07:32:17.998Z</time></trkpt><trkpt lat="44.844746001035105" lon="9.906490973246157"><ele>251.0</ele><time>2026-04-26T07:32:19.998Z</time></trkpt><trkpt lat="44.84481089786218" lon="9.906514365283702"><ele>252.00000000000003</ele><time>2026-04-26T07:32:21.998Z</time></trkpt><trkpt lat="44.84487888700542" lon="9.906543188936604"><ele>253.00000000000003</ele><time>2026-04-26T07:32:23.998Z</time></trkpt><trkpt lat="44.84494477742131" lon="9.90657201351075"><ele>253.00000000000003</ele><time>2026-04-26T07:32:25.998Z</time></trkpt><trkpt lat="44.84501356727464" lon="9.906604135973542"><ele>253.0</ele><time>2026-04-26T07:32:27.998Z</time></trkpt><trkpt lat="44.845083097644164" lon="9.906627304534826"><ele>253.00000000000003</ele><time>2026-04-26T07:32:29.998Z</time></trkpt><trkpt lat="44.84514840820379" lon="9.906659296466385"><ele>253.00000000000003</ele><time>2026-04-26T07:32:31.998Z</time></trkpt><trkpt lat="44.8452396321953" lon="9.906704765436"><ele>253.0</ele><time>2026-04-26T07:32:34.998Z</time></trkpt><trkpt lat="44.84529985919501" lon="9.906737078836258"><ele>253.00000000000003</ele><time>2026-04-26T07:32:36.998Z</time></trkpt><trkpt lat="44.845362943272605" lon="9.906764335510662"><ele>253.00000000000003</ele><time>2026-04-26T07:32:38.998Z</time></trkpt><trkpt lat="44.845425160246435" lon="9.906785419952183"><ele>253.49999999999997</ele><time>2026-04-26T07:32:40.998Z</time></trkpt><trkpt lat="44.84550029198718" lon="9.9068313147247"><ele>254.0</ele><time>2026-04-26T07:32:45Z</time></trkpt><trkpt lat="44.845583190246565" lon="9.906867474755408"><ele>254.5</ele><time>2026-04-26T07:32:48Z</time></trkpt><trkpt lat="44.84565112439171" lon="9.906934896769009"><ele>255.0</ele><time>2026-04-26T07:32:51Z</time></trkpt><trkpt lat="44.845722292805505" lon="9.907016100117119"><ele>255.49999999999997</ele><time>2026-04-26T07:32:54Z</time></trkpt><trkpt lat="44.845725012200745" lon="9.907124115848392"><ele>256.0</ele><time>2026-04-26T07:32:56Z</time></trkpt><trkpt lat="44.84574018857709" lon="9.907230537044159"><ele>255.99999999999997</ele><time>2026-04-26T07:32:59Z</time></trkpt><trkpt lat="44.845754356935494" lon="9.90737552517186"><ele>256.0</ele><time>2026-04-26T07:33:02Z</time></trkpt><trkpt lat="44.84576582678925" lon="9.907467007889435"><ele>256.0</ele><time>2026-04-26T07:33:04Z</time></trkpt><trkpt lat="44.84577134311079" lon="9.907562613191972"><ele>256.0</ele><time>2026-04-26T07:33:05.999Z</time></trkpt><trkpt lat="44.8457723392841" lon="9.907674493030177"><ele>255.99999999999997</ele><time>2026-04-26T07:33:07.999Z</time></trkpt><trkpt lat="44.84579862386547" lon="9.907772987656958"><ele>256.0</ele><time>2026-04-26T07:33:09.999Z</time></trkpt><trkpt lat="44.84582695601776" lon="9.90792144404852"><ele>256.5</ele><time>2026-04-26T07:33:12.999Z</time></trkpt><trkpt lat="44.84583931097143" lon="9.908045557032297"><ele>257.0</ele><time>2026-04-26T07:33:15.999Z</time></trkpt><trkpt lat="44.845860074876846" lon="9.908151098420781"><ele>257.5</ele><time>2026-04-26T07:33:17.999Z</time></trkpt><trkpt lat="44.84589829520075" lon="9.908268636959733"><ele>258.0</ele><time>2026-04-26T07:33:20.999Z</time></trkpt><trkpt lat="44.845905678425154" lon="9.90836488233674"><ele>258.5</ele><time>2026-04-26T07:33:22.999Z</time></trkpt><trkpt lat="44.845929425065876" lon="9.908476641232346"><ele>259.0</ele><time>2026-04-26T07:33:24.999Z</time></trkpt><trkpt lat="44.84592912155406" lon="9.908613753160472"><ele>255.6</ele><time>2026-04-26T07:33:26.999Z</time></trkpt><trkpt lat="44.84597244219448" lon="9.908785076554985"><ele>252.2</ele><time>2026-04-26T07:33:27.999Z</time></trkpt><trkpt lat="44.845971855163455" lon="9.908928903604881"><ele>248.79999999999998</ele><time>2026-04-26T07:33:29.999Z</time></trkpt><trkpt lat="44.84597998816604" lon="9.909099301025616"><ele>245.39999999999998</ele><time>2026-04-26T07:33:31.999Z</time></trkpt><trkpt lat="44.845971951823806" lon="9.909199673144014"><ele>242.0</ele><time>2026-04-26T07:33:32.999Z</time></trkpt><trkpt lat="44.8459916937611" lon="9.909296361603701"><ele>242.00000000000003</ele><time>2026-04-26T07:33:33.999Z</time></trkpt><trkpt lat="44.84604487526404" lon="9.909375837527756"><ele>242.0</ele><time>2026-04-26T07:33:34.999Z</time></trkpt><trkpt lat="44.84608501296719" lon="9.909468728455634"><ele>242.0</ele><time>2026-04-26T07:33:35.999Z</time></trkpt><trkpt lat="44.84609646615062" lon="9.909573335354306"><ele>242.0</ele><time>2026-04-26T07:33:36.999Z</time></trkpt><trkpt lat="44.84611771105826" lon="9.90968418347676"><ele>242.00000000000003</ele><time>2026-04-26T07:33:37.999Z</time></trkpt><trkpt lat="44.846134212909156" lon="9.909807195636608"><ele>242.0</ele><time>2026-04-26T07:33:38.999Z</time></trkpt><trkpt lat="44.846150828709305" lon="9.909926567043616"><ele>242.0</ele><time>2026-04-26T07:33:39.999Z</time></trkpt><trkpt lat="44.84616777305762" lon="9.910049304510453"><ele>242.0</ele><time>2026-04-26T07:33:40.999Z</time></trkpt><trkpt lat="44.84618862646781" lon="9.91017503040853"><ele>242.0</ele><time>2026-04-26T07:33:41.999Z</time></trkpt><trkpt lat="44.84621369758543" lon="9.91030303595582"><ele>242.0</ele><time>2026-04-26T07:33:42.999Z</time></trkpt><trkpt lat="44.846250830621095" lon="9.910430672942836"><ele>242.0</ele><time>2026-04-26T07:33:43.999Z</time></trkpt><trkpt lat="44.84628929173494" lon="9.910526653569258"><ele>243.0</ele><time>2026-04-26T07:33:44.999Z</time></trkpt><trkpt lat="44.84633981381069" lon="9.91064451705571"><ele>244.0</ele><time>2026-04-26T07:33:45.999Z</time></trkpt><trkpt lat="44.8464055066275" lon="9.910748382362746"><ele>245.0</ele><time>2026-04-26T07:33:46.999Z</time></trkpt><trkpt lat="44.84644492225201" lon="9.910875183079257"><ele>246.0</ele><time>2026-04-26T07:33:47.999Z</time></trkpt><trkpt lat="44.846512698169235" lon="9.910975640064024"><ele>247.0</ele><time>2026-04-26T07:33:48.999Z</time></trkpt><trkpt lat="44.84656397366041" lon="9.911087234456007"><ele>247.6</ele><time>2026-04-26T07:33:49.999Z</time></trkpt><trkpt lat="44.846620974707456" lon="9.91120145509634"><ele>248.2</ele><time>2026-04-26T07:33:50.999Z</time></trkpt><trkpt lat="44.84668146104617" lon="9.911310462358543"><ele>248.8</ele><time>2026-04-26T07:33:51.999Z</time></trkpt><trkpt lat="44.84674499955082" lon="9.911410420808139"><ele>249.4</ele><time>2026-04-26T07:33:52.999Z</time></trkpt><trkpt lat="44.84681802120431" lon="9.911501409845998"><ele>250.0</ele><time>2026-04-26T07:33:53.999Z</time></trkpt><trkpt lat="44.846898821047844" lon="9.911571340857865"><ele>249.4</ele><time>2026-04-26T07:33:54.999Z</time></trkpt><trkpt lat="44.846978177854666" lon="9.911635301481024"><ele>248.8</ele><time>2026-04-26T07:33:55.999Z</time></trkpt><trkpt lat="44.84707189633124" lon="9.911716678209121"><ele>248.2</ele><time>2026-04-26T07:33:56.999Z</time></trkpt><trkpt lat="44.84716071580948" lon="9.911789304562095"><ele>247.6</ele><time>2026-04-26T07:33:57.999Z</time></trkpt><trkpt lat="44.84725191962284" lon="9.911861184425723"><ele>247.0</ele><time>2026-04-26T07:33:58.999Z</time></trkpt><trkpt lat="44.84734437876254" lon="9.911940385718923"><ele>247.0</ele><time>2026-04-26T07:33:59.998Z</time></trkpt><trkpt lat="44.847428729078466" lon="9.912026459063132"><ele>247.0</ele><time>2026-04-26T07:34:00.998Z</time></trkpt><trkpt lat="44.84751901797669" lon="9.912106215376047"><ele>247.0</ele><time>2026-04-26T07:34:01.998Z</time></trkpt><trkpt lat="44.84761461499538" lon="9.91217909425881"><ele>247.0</ele><time>2026-04-26T07:34:02.998Z</time></trkpt><trkpt lat="44.84770760193985" lon="9.912256766188712"><ele>247.0</ele><time>2026-04-26T07:34:03.998Z</time></trkpt><trkpt lat="44.84780561443606" lon="9.912331923565924"><ele>245.2</ele><time>2026-04-26T07:34:04.998Z</time></trkpt><trkpt lat="44.84790576095794" lon="9.91240156822544"><ele>243.39999999999998</ele><time>2026-04-26T07:34:05.998Z</time></trkpt><trkpt lat="44.84799907294735" lon="9.91248280656273"><ele>241.60000000000002</ele><time>2026-04-26T07:34:06.998Z</time></trkpt><trkpt lat="44.84810376467788" lon="9.91253868357769"><ele>239.8</ele><time>2026-04-26T07:34:07.998Z</time></trkpt><trkpt lat="44.84820322249514" lon="9.912588521581126"><ele>238.0</ele><time>2026-04-26T07:34:08.998Z</time></trkpt><trkpt lat="44.848301983951835" lon="9.912636469981111"><ele>238.2</ele><time>2026-04-26T07:34:09.998Z</time></trkpt><trkpt lat="44.848397103360234" lon="9.912684079956943"><ele>238.4</ele><time>2026-04-26T07:34:10.998Z</time></trkpt><trkpt lat="44.848491359148845" lon="9.912732295792116"><ele>238.59999999999997</ele><time>2026-04-26T07:34:11.998Z</time></trkpt><trkpt lat="44.84858446426574" lon="9.912779284364955"><ele>238.79999999999998</ele><time>2026-04-26T07:34:12.998Z</time></trkpt><trkpt lat="44.84867711514846" lon="9.912824895379016"><ele>239.0</ele><time>2026-04-26T07:34:13.998Z</time></trkpt><trkpt lat="44.848768653472455" lon="9.912868764037663"><ele>239.00000000000003</ele><time>2026-04-26T07:34:14.998Z</time></trkpt><trkpt lat="44.848857579486655" lon="9.912913511552706"><ele>239.0</ele><time>2026-04-26T07:34:15.998Z</time></trkpt><trkpt lat="44.84894560085144" lon="9.912958886951872"><ele>239.0</ele><time>2026-04-26T07:34:16.998Z</time></trkpt><trkpt lat="44.849028105055204" lon="9.91301358796816"><ele>239.0</ele><time>2026-04-26T07:34:17.998Z</time></trkpt><trkpt lat="44.84910538708306" lon="9.913063503773573"><ele>239.00000000000003</ele><time>2026-04-26T07:34:18.998Z</time></trkpt><trkpt lat="44.849178047453094" lon="9.913117899808832"><ele>239.0</ele><time>2026-04-26T07:34:19.998Z</time></trkpt><trkpt lat="44.84924741262072" lon="9.91318821768556"><ele>239.00000000000003</ele><time>2026-04-26T07:34:20.998Z</time></trkpt><trkpt lat="44.8492860608489" lon="9.913288314538109"><ele>239.0</ele><time>2026-04-26T07:34:21.998Z</time></trkpt><trkpt lat="44.84933386099128" lon="9.913375795302349"><ele>239.0</ele><time>2026-04-26T07:34:22.998Z</time></trkpt><trkpt lat="44.84939013369988" lon="9.91345220498831"><ele>239.0</ele><time>2026-04-26T07:34:23.998Z</time></trkpt><trkpt lat="44.84944021340068" lon="9.913541379848999"><ele>239.00000000000003</ele><time>2026-04-26T07:34:24.998Z</time></trkpt><trkpt lat="44.84948225897346" lon="9.913632484911323"><ele>239.0</ele><time>2026-04-26T07:34:25.998Z</time></trkpt><trkpt lat="44.84953187015979" lon="9.913726617093246"><ele>238.83333333333334</ele><time>2026-04-26T07:34:26.998Z</time></trkpt><trkpt lat="44.84957832260021" lon="9.9138164556542"><ele>238.66666666666669</ele><time>2026-04-26T07:34:27.998Z</time></trkpt><trkpt lat="44.84963144179729" lon="9.913907232367054"><ele>238.5</ele><time>2026-04-26T07:34:28.998Z</time></trkpt><trkpt lat="44.84968102823913" lon="9.914002596538582"><ele>238.33333333333331</ele><time>2026-04-26T07:34:29.998Z</time></trkpt><trkpt lat="44.849727347675255" lon="9.914096556025772"><ele>238.16666666666666</ele><time>2026-04-26T07:34:30.998Z</time></trkpt><trkpt lat="44.84977942418277" lon="9.914188368855331"><ele>238.0</ele><time>2026-04-26T07:34:31.998Z</time></trkpt><trkpt lat="44.849828388248675" lon="9.91427425617448"><ele>237.66666666666666</ele><time>2026-04-26T07:34:32.998Z</time></trkpt><trkpt lat="44.84987876135097" lon="9.914366850098451"><ele>237.33333333333331</ele><time>2026-04-26T07:34:33.998Z</time></trkpt><trkpt lat="44.84993013120023" lon="9.914449254107607"><ele>237.0</ele><time>2026-04-26T07:34:34.998Z</time></trkpt><trkpt lat="44.849980528439914" lon="9.914530089173446"><ele>236.66666666666669</ele><time>2026-04-26T07:34:35.998Z</time></trkpt><trkpt lat="44.85003213756835" lon="9.914611177292509"><ele>236.33333333333334</ele><time>2026-04-26T07:34:36.998Z</time></trkpt><trkpt lat="44.85008606238281" lon="9.914689034779926"><ele>236.0</ele><time>2026-04-26T07:34:37.998Z</time></trkpt><trkpt lat="44.85013529066505" lon="9.91477030920185"><ele>236.00000000000003</ele><time>2026-04-26T07:34:38.998Z</time></trkpt><trkpt lat="44.85019286867576" lon="9.914841314197608"><ele>236.0</ele><time>2026-04-26T07:34:39.998Z</time></trkpt><trkpt lat="44.8502473367107" lon="9.91491774807942"><ele>236.0</ele><time>2026-04-26T07:34:40.998Z</time></trkpt><trkpt lat="44.85030172035779" lon="9.91499329945751"><ele>236.0</ele><time>2026-04-26T07:34:41.998Z</time></trkpt><trkpt lat="44.850355638391406" lon="9.915072896007851"><ele>236.00000000000003</ele><time>2026-04-26T07:34:42.998Z</time></trkpt><trkpt lat="44.85040903573892" lon="9.915153278112548"><ele>236.0</ele><time>2026-04-26T07:34:43.998Z</time></trkpt><trkpt lat="44.850464204087906" lon="9.91523130183118"><ele>236.50000000000003</ele><time>2026-04-26T07:34:44.998Z</time></trkpt><trkpt lat="44.850518722589854" lon="9.915309676566112"><ele>237.0</ele><time>2026-04-26T07:34:45.998Z</time></trkpt><trkpt lat="44.850576081426" lon="9.915394358640011"><ele>237.5</ele><time>2026-04-26T07:34:46.998Z</time></trkpt><trkpt lat="44.85063576667041" lon="9.915475093630205"><ele>238.0</ele><time>2026-04-26T07:34:47.998Z</time></trkpt><trkpt lat="44.85068934631362" lon="9.915556991827373"><ele>238.50000000000003</ele><time>2026-04-26T07:34:48.998Z</time></trkpt><trkpt lat="44.850746516388924" lon="9.915639628505664"><ele>239.0</ele><time>2026-04-26T07:34:49.998Z</time></trkpt><trkpt lat="44.85080182286677" lon="9.915722772978885"><ele>239.00000000000003</ele><time>2026-04-26T07:34:51Z</time></trkpt><trkpt lat="44.8508597846723" lon="9.915802246809157"><ele>239.0</ele><time>2026-04-26T07:34:52Z</time></trkpt><trkpt lat="44.85091500426788" lon="9.915883489208184"><ele>239.0</ele><time>2026-04-26T07:34:53Z</time></trkpt><trkpt lat="44.850969371504256" lon="9.915964630078877"><ele>239.0</ele><time>2026-04-26T07:34:54Z</time></trkpt><trkpt lat="44.851027244970226" lon="9.916045177483689"><ele>239.00000000000003</ele><time>2026-04-26T07:34:55Z</time></trkpt><trkpt lat="44.85108192767641" lon="9.916121907202054"><ele>239.0</ele><time>2026-04-26T07:34:56Z</time></trkpt><trkpt lat="44.851137351413634" lon="9.916201284708624"><ele>238.00000000000003</ele><time>2026-04-26T07:34:57Z</time></trkpt><trkpt lat="44.85118940925667" lon="9.916281000363416"><ele>237.0</ele><time>2026-04-26T07:34:58Z</time></trkpt><trkpt lat="44.851245821597054" lon="9.916357229872137"><ele>236.0</ele><time>2026-04-26T07:34:59Z</time></trkpt><trkpt lat="44.85129173052354" lon="9.916446464495655"><ele>235.0</ele><time>2026-04-26T07:35:00Z</time></trkpt><trkpt lat="44.85134517018395" lon="9.916522590463744"><ele>234.00000000000003</ele><time>2026-04-26T07:35:01Z</time></trkpt><trkpt lat="44.85139890048317" lon="9.916599130515001"><ele>233.0</ele><time>2026-04-26T07:35:02Z</time></trkpt><trkpt lat="44.85146399677049" lon="9.916667174658906"><ele>232.66666666666669</ele><time>2026-04-26T07:35:03Z</time></trkpt><trkpt lat="44.85152016938417" lon="9.916748752561457"><ele>232.33333333333334</ele><time>2026-04-26T07:35:04Z</time></trkpt><trkpt lat="44.8515773282105" lon="9.916827071087194"><ele>232.0</ele><time>2026-04-26T07:35:05Z</time></trkpt><trkpt lat="44.851620932132356" lon="9.916924006608584"><ele>231.66666666666669</ele><time>2026-04-26T07:35:06Z</time></trkpt><trkpt lat="44.85168695466764" lon="9.916990229300499"><ele>231.33333333333334</ele><time>2026-04-26T07:35:07Z</time></trkpt><trkpt lat="44.851740968369604" lon="9.917072441673486"><ele>231.0</ele><time>2026-04-26T07:35:08Z</time></trkpt><trkpt lat="44.85178440875058" lon="9.917170156535043"><ele>230.16666666666666</ele><time>2026-04-26T07:35:08.999Z</time></trkpt><trkpt lat="44.85184022966851" lon="9.917252612099427"><ele>229.33333333333331</ele><time>2026-04-26T07:35:09.999Z</time></trkpt><trkpt lat="44.85189664045215" lon="9.91733604447106"><ele>228.5</ele><time>2026-04-26T07:35:10.999Z</time></trkpt><trkpt lat="44.851952136471574" lon="9.917418123936118"><ele>227.66666666666666</ele><time>2026-04-26T07:35:11.999Z</time></trkpt><trkpt lat="44.8520087947494" lon="9.917498276394898"><ele>226.83333333333331</ele><time>2026-04-26T07:35:12.999Z</time></trkpt><trkpt lat="44.85207575651657" lon="9.917563579961373"><ele>226.0</ele><time>2026-04-26T07:35:13.999Z</time></trkpt><trkpt lat="44.852132831798876" lon="9.917647313378822"><ele>225.99999999999997</ele><time>2026-04-26T07:35:14.999Z</time></trkpt><trkpt lat="44.85219327527541" lon="9.917727781283647"><ele>226.0</ele><time>2026-04-26T07:35:15.999Z</time></trkpt><trkpt lat="44.852239878866285" lon="9.917827137059787"><ele>226.0</ele><time>2026-04-26T07:35:16.999Z</time></trkpt><trkpt lat="44.852299855659034" lon="9.917914443389039"><ele>226.0</ele><time>2026-04-26T07:35:17.999Z</time></trkpt><trkpt lat="44.852369288232566" lon="9.917985155143667"><ele>225.99999999999997</ele><time>2026-04-26T07:35:18.999Z</time></trkpt><trkpt lat="44.8524134519335" lon="9.918085479746104"><ele>226.0</ele><time>2026-04-26T07:35:19.999Z</time></trkpt><trkpt lat="44.85246103846966" lon="9.918163848838983"><ele>225.99999999999997</ele><time>2026-04-26T07:35:20.999Z</time></trkpt><trkpt lat="44.85249869249291" lon="9.918239132311687"><ele>226.0</ele><time>2026-04-26T07:35:21.999Z</time></trkpt><trkpt lat="44.85254449527302" lon="9.918342585119706"><ele>226.0</ele><time>2026-04-26T07:35:23.999Z</time></trkpt><trkpt lat="44.85264233206037" lon="9.918324112719935"><ele>226.0</ele><time>2026-04-26T07:35:26.999Z</time></trkpt><trkpt lat="44.85271541944771" lon="9.918307684932397"><ele>225.99999999999997</ele><time>2026-04-26T07:36:19.998Z</time></trkpt><trkpt lat="44.85280967249062" lon="9.918285307266636"><ele>226.0</ele><time>2026-04-26T07:36:21.998Z</time></trkpt><trkpt lat="44.85292396679946" lon="9.918266133411745"><ele>224.49999999999997</ele><time>2026-04-26T07:36:23.998Z</time></trkpt><trkpt lat="44.85305145232535" lon="9.918239663029903"><ele>223.0</ele><time>2026-04-26T07:36:25.998Z</time></trkpt><trkpt lat="44.85312117631826" lon="9.918226555008175"><ele>221.5</ele><time>2026-04-26T07:36:26.998Z</time></trkpt><trkpt lat="44.8531939521768" lon="9.918212258479446"><ele>220.0</ele><time>2026-04-26T07:36:27.998Z</time></trkpt><trkpt lat="44.85326940681386" lon="9.918194404925183"><ele>218.49999999999997</ele><time>2026-04-26T07:36:28.998Z</time></trkpt><trkpt lat="44.85334915047794" lon="9.918172774822525"><ele>217.0</ele><time>2026-04-26T07:36:29.998Z</time></trkpt><trkpt lat="44.85343061746539" lon="9.918149450857484"><ele>216.49999999999997</ele><time>2026-04-26T07:36:30.998Z</time></trkpt><trkpt lat="44.8535138380157" lon="9.918133940514782"><ele>216.0</ele><time>2026-04-26T07:36:31.998Z</time></trkpt><trkpt lat="44.85360072714991" lon="9.91814322264594"><ele>215.5</ele><time>2026-04-26T07:36:32.998Z</time></trkpt><trkpt lat="44.85368731205742" lon="9.918177823645953"><ele>215.0</ele><time>2026-04-26T07:36:33.998Z</time></trkpt><trkpt lat="44.85377325214588" lon="9.918222426879243"><ele>214.49999999999997</ele><time>2026-04-26T07:36:34.998Z</time></trkpt><trkpt lat="44.85385822669338" lon="9.918275909790163"><ele>214.0</ele><time>2026-04-26T07:36:35.998Z</time></trkpt><trkpt lat="44.85394664220631" lon="9.918328547575888"><ele>214.0</ele><time>2026-04-26T07:36:36.998Z</time></trkpt><trkpt lat="44.85403830755865" lon="9.918373050290853"><ele>213.99999999999997</ele><time>2026-04-26T07:36:37.998Z</time></trkpt><trkpt lat="44.85413071123657" lon="9.918422081456873"><ele>213.99999999999997</ele><time>2026-04-26T07:36:38.998Z</time></trkpt><trkpt lat="44.85422560801579" lon="9.918471896977701"><ele>214.0</ele><time>2026-04-26T07:36:39.998Z</time></trkpt><trkpt lat="44.85431315693482" lon="9.918533313915864"><ele>214.0</ele><time>2026-04-26T07:36:40.998Z</time></trkpt><trkpt lat="44.854397409004136" lon="9.918601475919361"><ele>211.79999999999998</ele><time>2026-04-26T07:36:41.998Z</time></trkpt><trkpt lat="44.854476016231196" lon="9.918683709668093"><ele>209.59999999999997</ele><time>2026-04-26T07:36:42.998Z</time></trkpt><trkpt lat="44.85455182350552" lon="9.918780751788251"><ele>207.4</ele><time>2026-04-26T07:36:43.998Z</time></trkpt><trkpt lat="44.85462949441405" lon="9.918876767223244"><ele>205.2</ele><time>2026-04-26T07:36:44.998Z</time></trkpt><trkpt lat="44.854701585165294" lon="9.918953213777366"><ele>203.0</ele><time>2026-04-26T07:36:45.998Z</time></trkpt><trkpt lat="44.85478163061395" lon="9.919044315120885"><ele>203.0</ele><time>2026-04-26T07:36:46.998Z</time></trkpt><trkpt lat="44.8548893707086" lon="9.919070077834249"><ele>203.0</ele><time>2026-04-26T07:36:47.998Z</time></trkpt><trkpt lat="44.854995031960286" lon="9.919096067290218"><ele>203.0</ele><time>2026-04-26T07:36:48.998Z</time></trkpt><trkpt lat="44.855104151380615" lon="9.919128166685335"><ele>203.0</ele><time>2026-04-26T07:36:49.998Z</time></trkpt><trkpt lat="44.8552106062695" lon="9.919165399548023"><ele>203.0</ele><time>2026-04-26T07:36:50.998Z</time></trkpt><trkpt lat="44.855318540371314" lon="9.91919989017593"><ele>199.8</ele><time>2026-04-26T07:36:51.998Z</time></trkpt><trkpt lat="44.85542489153439" lon="9.919235973329824"><ele>196.60000000000002</ele><time>2026-04-26T07:36:52.998Z</time></trkpt><trkpt lat="44.855532772873765" lon="9.919271235327884"><ele>193.39999999999998</ele><time>2026-04-26T07:36:53.998Z</time></trkpt><trkpt lat="44.85564002642919" lon="9.91930748068199"><ele>190.2</ele><time>2026-04-26T07:36:54.997Z</time></trkpt><trkpt lat="44.855747606633294" lon="9.919343127435798"><ele>187.0</ele><time>2026-04-26T07:36:55.997Z</time></trkpt><trkpt lat="44.85585691971089" lon="9.919383947701531"><ele>186.6</ele><time>2026-04-26T07:36:57Z</time></trkpt><trkpt lat="44.85596424768806" lon="9.91941971409751"><ele>186.2</ele><time>2026-04-26T07:36:58Z</time></trkpt><trkpt lat="44.856071922011445" lon="9.919451058581513"><ele>185.8</ele><time>2026-04-26T07:36:59Z</time></trkpt><trkpt lat="44.85617991308279" lon="9.91948352472083"><ele>185.4</ele><time>2026-04-26T07:37:00Z</time></trkpt><trkpt lat="44.85628881836136" lon="9.919498612260325"><ele>185.0</ele><time>2026-04-26T07:37:01Z</time></trkpt><trkpt lat="44.85639985399186" lon="9.919489402291772"><ele>185.0</ele><time>2026-04-26T07:37:02Z</time></trkpt><trkpt lat="44.856509261427675" lon="9.919469873439867"><ele>185.0</ele><time>2026-04-26T07:37:03Z</time></trkpt><trkpt lat="44.8566163617852" lon="9.919442855584709"><ele>185.0</ele><time>2026-04-26T07:37:04Z</time></trkpt><trkpt lat="44.856720994264904" lon="9.919424337068856"><ele>185.0</ele><time>2026-04-26T07:37:05Z</time></trkpt><trkpt lat="44.85681503994755" lon="9.919405008201343"><ele>185.0</ele><time>2026-04-26T07:37:06Z</time></trkpt><trkpt lat="44.85690906024979" lon="9.919377093143273"><ele>184.4</ele><time>2026-04-26T07:37:07Z</time></trkpt><trkpt lat="44.85700232947295" lon="9.91934886738819"><ele>183.8</ele><time>2026-04-26T07:37:08Z</time></trkpt><trkpt lat="44.8570966924319" lon="9.919312773514843"><ele>183.2</ele><time>2026-04-26T07:37:09Z</time></trkpt><trkpt lat="44.85719494180356" lon="9.919271106860197"><ele>182.6</ele><time>2026-04-26T07:37:10Z</time></trkpt><trkpt lat="44.857295964279984" lon="9.919242295554783"><ele>182.0</ele><time>2026-04-26T07:37:11Z</time></trkpt><trkpt lat="44.85740191195841" lon="9.919212465022222"><ele>182.0</ele><time>2026-04-26T07:37:12Z</time></trkpt><trkpt lat="44.85750973172695" lon="9.919181711801542"><ele>182.0</ele><time>2026-04-26T07:37:12.999Z</time></trkpt><trkpt lat="44.857622267954376" lon="9.919157038672823"><ele>182.0</ele><time>2026-04-26T07:37:13.999Z</time></trkpt><trkpt lat="44.85773650779573" lon="9.919142928496884"><ele>182.0</ele><time>2026-04-26T07:37:14.999Z</time></trkpt><trkpt lat="44.857851348836604" lon="9.91913925037842"><ele>180.75</ele><time>2026-04-26T07:37:15.999Z</time></trkpt><trkpt lat="44.857967083041004" lon="9.919145968930794"><ele>179.5</ele><time>2026-04-26T07:37:16.999Z</time></trkpt><trkpt lat="44.85808118938894" lon="9.9191654744038"><ele>178.25</ele><time>2026-04-26T07:37:17.999Z</time></trkpt><trkpt lat="44.85819328600724" lon="9.91919020195923"><ele>177.0</ele><time>2026-04-26T07:37:18.999Z</time></trkpt><trkpt lat="44.858302569154" lon="9.919219485236255"><ele>176.39999999999998</ele><time>2026-04-26T07:37:19.999Z</time></trkpt><trkpt lat="44.85840661236482" lon="9.919242183657563"><ele>175.79999999999998</ele><time>2026-04-26T07:37:20.999Z</time></trkpt><trkpt lat="44.858508794499706" lon="9.91926610144086"><ele>175.2</ele><time>2026-04-26T07:37:21.999Z</time></trkpt><trkpt lat="44.85860861908335" lon="9.919298673513907"><ele>174.6</ele><time>2026-04-26T07:37:22.999Z</time></trkpt><trkpt lat="44.8587043627653" lon="9.919327012219128"><ele>174.0</ele><time>2026-04-26T07:37:23.999Z</time></trkpt><trkpt lat="44.85879656662951" lon="9.919353764168001"><ele>174.0</ele><time>2026-04-26T07:37:24.999Z</time></trkpt><trkpt lat="44.858888397376994" lon="9.919377833660244"><ele>174.0</ele><time>2026-04-26T07:37:25.999Z</time></trkpt><trkpt lat="44.85897615567122" lon="9.919394347182877"><ele>174.0</ele><time>2026-04-26T07:37:26.999Z</time></trkpt><trkpt lat="44.85906226188791" lon="9.919409805647483"><ele>174.0</ele><time>2026-04-26T07:37:27.999Z</time></trkpt><trkpt lat="44.85914702957311" lon="9.919433872817097"><ele>174.0</ele><time>2026-04-26T07:37:28.999Z</time></trkpt><trkpt lat="44.85922795265951" lon="9.919456202858408"><ele>174.0</ele><time>2026-04-26T07:37:29.999Z</time></trkpt><trkpt lat="44.85930723755465" lon="9.919479041925952"><ele>174.66666666666666</ele><time>2026-04-26T07:37:30.999Z</time></trkpt><trkpt lat="44.859386850556966" lon="9.919506351694682"><ele>175.33333333333334</ele><time>2026-04-26T07:37:31.999Z</time></trkpt><trkpt lat="44.859464122015616" lon="9.919535548089828"><ele>176.0</ele><time>2026-04-26T07:37:32.999Z</time></trkpt><trkpt lat="44.859538465185565" lon="9.919570433657986"><ele>176.66666666666669</ele><time>2026-04-26T07:37:33.999Z</time></trkpt><trkpt lat="44.85960549351625" lon="9.919625625843883"><ele>177.33333333333334</ele><time>2026-04-26T07:37:34.999Z</time></trkpt><trkpt lat="44.85966980521171" lon="9.919687779175868"><ele>178.0</ele><time>2026-04-26T07:37:35.999Z</time></trkpt><trkpt lat="44.85973283210887" lon="9.919757665691874"><ele>178.0</ele><time>2026-04-26T07:37:36.999Z</time></trkpt><trkpt lat="44.85979316498581" lon="9.919828759930919"><ele>178.0</ele><time>2026-04-26T07:37:37.999Z</time></trkpt><trkpt lat="44.85985987613224" lon="9.919896899017893"><ele>178.0</ele><time>2026-04-26T07:37:38.999Z</time></trkpt><trkpt lat="44.8599239653097" lon="9.919970939208808"><ele>178.0</ele><time>2026-04-26T07:37:39.999Z</time></trkpt><trkpt lat="44.859995245397386" lon="9.920040778511268"><ele>178.0</ele><time>2026-04-26T07:37:40.999Z</time></trkpt><trkpt lat="44.86006645281691" lon="9.920112580261383"><ele>178.0</ele><time>2026-04-26T07:37:41.999Z</time></trkpt><trkpt lat="44.860134468302974" lon="9.920185270185819"><ele>177.83333333333334</ele><time>2026-04-26T07:37:42.999Z</time></trkpt><trkpt lat="44.86020067228308" lon="9.920261436602917"><ele>177.66666666666669</ele><time>2026-04-26T07:37:43.999Z</time></trkpt><trkpt lat="44.860267596990354" lon="9.920335780068667"><ele>177.5</ele><time>2026-04-26T07:37:44.999Z</time></trkpt><trkpt lat="44.8603271871659" lon="9.92042930374052"><ele>177.33333333333334</ele><time>2026-04-26T07:37:45.999Z</time></trkpt><trkpt lat="44.86040506058064" lon="9.920491010263573"><ele>177.16666666666666</ele><time>2026-04-26T07:37:46.999Z</time></trkpt><trkpt lat="44.860472798202494" lon="9.920577432594419"><ele>177.0</ele><time>2026-04-26T07:37:47.999Z</time></trkpt><trkpt lat="44.860541694594126" lon="9.920659424723747"><ele>177.0</ele><time>2026-04-26T07:37:48.999Z</time></trkpt><trkpt lat="44.860613729561834" lon="9.920743109682688"><ele>177.0</ele><time>2026-04-26T07:37:49.999Z</time></trkpt><trkpt lat="44.860679583354454" lon="9.920836127228362"><ele>177.0</ele><time>2026-04-26T07:37:50.999Z</time></trkpt><trkpt lat="44.86076071094047" lon="9.920900486100443"><ele>177.0</ele><time>2026-04-26T07:37:51.999Z</time></trkpt><trkpt lat="44.860828599989055" lon="9.920987904526978"><ele>177.0</ele><time>2026-04-26T07:37:52.999Z</time></trkpt><trkpt lat="44.860897560994474" lon="9.921075954269435"><ele>176.33333333333334</ele><time>2026-04-26T07:37:53.999Z</time></trkpt><trkpt lat="44.860970644815545" lon="9.921157688752047"><ele>175.66666666666666</ele><time>2026-04-26T07:37:54.999Z</time></trkpt><trkpt lat="44.861042545731806" lon="9.921233120234945"><ele>175.0</ele><time>2026-04-26T07:37:55.999Z</time></trkpt><trkpt lat="44.86110655861911" lon="9.921298824435295"><ele>174.33333333333331</ele><time>2026-04-26T07:37:56.999Z</time></trkpt><trkpt lat="44.861168949038515" lon="9.921370646361733"><ele>173.66666666666666</ele><time>2026-04-26T07:37:57.999Z</time></trkpt><trkpt lat="44.86122557443218" lon="9.921453880262206"><ele>173.0</ele><time>2026-04-26T07:37:58.999Z</time></trkpt><trkpt lat="44.86128725908377" lon="9.921533463616171"><ele>173.0</ele><time>2026-04-26T07:37:59.999Z</time></trkpt><trkpt lat="44.86132345096855" lon="9.921640253862543"><ele>173.0</ele><time>2026-04-26T07:38:00.999Z</time></trkpt><trkpt lat="44.86136987263497" lon="9.921741275092941"><ele>173.0</ele><time>2026-04-26T07:38:01.999Z</time></trkpt><trkpt lat="44.861419376541036" lon="9.921849504812052"><ele>173.0</ele><time>2026-04-26T07:38:02.999Z</time></trkpt><trkpt lat="44.8614929926801" lon="9.92193664911429"><ele>173.0</ele><time>2026-04-26T07:38:03.999Z</time></trkpt><trkpt lat="44.861561407276106" lon="9.922024608737976"><ele>173.0</ele><time>2026-04-26T07:38:04.998Z</time></trkpt><trkpt lat="44.86163881781921" lon="9.92210387590319"><ele>170.60000000000002</ele><time>2026-04-26T07:38:05.998Z</time></trkpt><trkpt lat="44.86172198286329" lon="9.922186856878055"><ele>168.20000000000002</ele><time>2026-04-26T07:38:06.998Z</time></trkpt><trkpt lat="44.86180818270431" lon="9.922269581582636"><ele>165.8</ele><time>2026-04-26T07:38:07.998Z</time></trkpt><trkpt lat="44.861900110754895" lon="9.9223523082853"><ele>163.4</ele><time>2026-04-26T07:38:08.998Z</time></trkpt><trkpt lat="44.86199296580653" lon="9.922445073573687"><ele>161.0</ele><time>2026-04-26T07:38:09.998Z</time></trkpt><trkpt lat="44.86208648164274" lon="9.92254337268708"><ele>159.0</ele><time>2026-04-26T07:38:10.998Z</time></trkpt><trkpt lat="44.86218273868356" lon="9.922639845341177"><ele>157.0</ele><time>2026-04-26T07:38:11.998Z</time></trkpt><trkpt lat="44.862279638460365" lon="9.92273384195912"><ele>155.0</ele><time>2026-04-26T07:38:12.998Z</time></trkpt><trkpt lat="44.86236313117616" lon="9.92282876514196"><ele>153.0</ele><time>2026-04-26T07:38:13.998Z</time></trkpt><trkpt lat="44.862448023384935" lon="9.922897506696252"><ele>151.0</ele><time>2026-04-26T07:38:14.998Z</time></trkpt><trkpt lat="44.86255139398766" lon="9.922925208102882"><ele>150.4</ele><time>2026-04-26T07:38:15.998Z</time></trkpt><trkpt lat="44.86265900986778" lon="9.92292135645919"><ele>149.8</ele><time>2026-04-26T07:38:16.998Z</time></trkpt><trkpt lat="44.86276682681452" lon="9.922888143092564"><ele>149.20000000000002</ele><time>2026-04-26T07:38:17.998Z</time></trkpt><trkpt lat="44.86287833251487" lon="9.922843675883982"><ele>148.6</ele><time>2026-04-26T07:38:18.998Z</time></trkpt><trkpt lat="44.862989240360456" lon="9.922815739129806"><ele>148.0</ele><time>2026-04-26T07:38:19.998Z</time></trkpt><trkpt lat="44.86310249877792" lon="9.922821749257944"><ele>148.0</ele><time>2026-04-26T07:38:20.998Z</time></trkpt><trkpt lat="44.86321500044577" lon="9.922869341977767"><ele>148.0</ele><time>2026-04-26T07:38:21.998Z</time></trkpt><trkpt lat="44.863323554648765" lon="9.92294328312632"><ele>148.0</ele><time>2026-04-26T07:38:22.998Z</time></trkpt><trkpt lat="44.86343216073764" lon="9.923016916542037"><ele>148.0</ele><time>2026-04-26T07:38:23.998Z</time></trkpt><trkpt lat="44.86354217855233" lon="9.923090080309791"><ele>147.25</ele><time>2026-04-26T07:38:24.998Z</time></trkpt><trkpt lat="44.863655968287" lon="9.923164223726685"><ele>146.5</ele><time>2026-04-26T07:38:25.998Z</time></trkpt><trkpt lat="44.86376953787152" lon="9.923235185299122"><ele>145.75</ele><time>2026-04-26T07:38:26.998Z</time></trkpt><trkpt lat="44.86388094849078" lon="9.923307118403956"><ele>145.0</ele><time>2026-04-26T07:38:27.998Z</time></trkpt><trkpt lat="44.86399699723575" lon="9.9233772937182"><ele>147.25</ele><time>2026-04-26T07:38:28.998Z</time></trkpt><trkpt lat="44.86410373533847" lon="9.923449571790957"><ele>149.5</ele><time>2026-04-26T07:38:29.998Z</time></trkpt><trkpt lat="44.86421932061255" lon="9.923508486916027"><ele>151.75</ele><time>2026-04-26T07:38:30.998Z</time></trkpt><trkpt lat="44.86433658820537" lon="9.923526448229726"><ele>154.0</ele><time>2026-04-26T07:38:31.998Z</time></trkpt><trkpt lat="44.86445268816547" lon="9.923499585955495"><ele>154.4</ele><time>2026-04-26T07:38:32.998Z</time></trkpt><trkpt lat="44.864556870174574" lon="9.92346097455559"><ele>154.8</ele><time>2026-04-26T07:38:33.998Z</time></trkpt><trkpt lat="44.864659963032" lon="9.92346551773443"><ele>155.2</ele><time>2026-04-26T07:38:34.998Z</time></trkpt><trkpt lat="44.8647577544323" lon="9.923510521261731"><ele>155.6</ele><time>2026-04-26T07:38:35.998Z</time></trkpt><trkpt lat="44.864847430112036" lon="9.923575618311984"><ele>156.0</ele><time>2026-04-26T07:38:36.998Z</time></trkpt><trkpt lat="44.86493510614424" lon="9.923639690830807"><ele>156.0</ele><time>2026-04-26T07:38:37.998Z</time></trkpt><trkpt lat="44.865023417443986" lon="9.923700550508666"><ele>156.0</ele><time>2026-04-26T07:38:38.998Z</time></trkpt><trkpt lat="44.865108532039315" lon="9.92375755807751"><ele>156.0</ele><time>2026-04-26T07:38:39.998Z</time></trkpt><trkpt lat="44.86519417752514" lon="9.923815542947077"><ele>156.0</ele><time>2026-04-26T07:38:40.998Z</time></trkpt><trkpt lat="44.86528161851866" lon="9.923873273775417"><ele>156.0</ele><time>2026-04-26T07:38:41.998Z</time></trkpt><trkpt lat="44.86536867240577" lon="9.923931192896834"><ele>153.0</ele><time>2026-04-26T07:38:42.998Z</time></trkpt><trkpt lat="44.865455075484" lon="9.923991530302018"><ele>150.0</ele><time>2026-04-26T07:38:43.998Z</time></trkpt><trkpt lat="44.865540259277005" lon="9.924047581341055"><ele>147.0</ele><time>2026-04-26T07:38:44.998Z</time></trkpt><trkpt lat="44.86562717402793" lon="9.92410342396343"><ele>144.0</ele><time>2026-04-26T07:38:45.998Z</time></trkpt><trkpt lat="44.865711974209376" lon="9.92416184964353"><ele>141.0</ele><time>2026-04-26T07:38:46.998Z</time></trkpt><trkpt lat="44.86579327626849" lon="9.92422135068776"><ele>141.2</ele><time>2026-04-26T07:38:47.998Z</time></trkpt><trkpt lat="44.865877326712365" lon="9.924276055218893"><ele>141.39999999999998</ele><time>2026-04-26T07:38:48.998Z</time></trkpt><trkpt lat="44.86596108259402" lon="9.924329392099072"><ele>141.6</ele><time>2026-04-26T07:38:49.998Z</time></trkpt><trkpt lat="44.866042815368594" lon="9.924384369217085"><ele>141.79999999999998</ele><time>2026-04-26T07:38:50.998Z</time></trkpt><trkpt lat="44.86612557170033" lon="9.924438500780804"><ele>142.0</ele><time>2026-04-26T07:38:51.998Z</time></trkpt><trkpt lat="44.86620763837028" lon="9.92449684814499"><ele>142.0</ele><time>2026-04-26T07:38:52.998Z</time></trkpt><trkpt lat="44.86628642047577" lon="9.924550381794411"><ele>142.0</ele><time>2026-04-26T07:38:53.998Z</time></trkpt><trkpt lat="44.86636186824543" lon="9.924599683805722"><ele>142.0</ele><time>2026-04-26T07:38:54.998Z</time></trkpt><trkpt lat="44.86643068620343" lon="9.924640523130396"><ele>142.0</ele><time>2026-04-26T07:38:55.998Z</time></trkpt><trkpt lat="44.866503623960696" lon="9.924671088770964"><ele>142.0</ele><time>2026-04-26T07:38:56.998Z</time></trkpt><trkpt lat="44.86658498067102" lon="9.924683939787702"><ele>142.0</ele><time>2026-04-26T07:38:57.997Z</time></trkpt><trkpt lat="44.86666977129968" lon="9.92468710031294"><ele>142.0</ele><time>2026-04-26T07:38:58.997Z</time></trkpt><trkpt lat="44.866755686762986" lon="9.924685018540973"><ele>142.0</ele><time>2026-04-26T07:38:59.997Z</time></trkpt><trkpt lat="44.86684205362286" lon="9.924683491221074"><ele>142.0</ele><time>2026-04-26T07:39:00.997Z</time></trkpt><trkpt lat="44.866929754304444" lon="9.924683428597131"><ele>142.0</ele><time>2026-04-26T07:39:01.997Z</time></trkpt><trkpt lat="44.8670188285128" lon="9.924681311816137"><ele>142.0</ele><time>2026-04-26T07:39:02.999Z</time></trkpt><trkpt lat="44.86710723551767" lon="9.92467630194383"><ele>142.0</ele><time>2026-04-26T07:39:04Z</time></trkpt><trkpt lat="44.86719558958242" lon="9.924662844180961"><ele>141.0</ele><time>2026-04-26T07:39:04.999Z</time></trkpt><trkpt lat="44.867281022548916" lon="9.924624738493929"><ele>140.0</ele><time>2026-04-26T07:39:05.999Z</time></trkpt><trkpt lat="44.86735492125206" lon="9.924549781479046"><ele>139.0</ele><time>2026-04-26T07:39:07Z</time></trkpt><trkpt lat="44.86741574474383" lon="9.924450998942358"><ele>138.0</ele><time>2026-04-26T07:39:07.999Z</time></trkpt><trkpt lat="44.867461680014095" lon="9.924340587252868"><ele>137.0</ele><time>2026-04-26T07:39:08.999Z</time></trkpt><trkpt lat="44.86750238956023" lon="9.924226739195944"><ele>137.0</ele><time>2026-04-26T07:39:10Z</time></trkpt><trkpt lat="44.867550138885555" lon="9.924122734862683"><ele>137.0</ele><time>2026-04-26T07:39:10.999Z</time></trkpt><trkpt lat="44.86762099225419" lon="9.924052586815753"><ele>137.0</ele><time>2026-04-26T07:39:11.999Z</time></trkpt><trkpt lat="44.86770320196391" lon="9.924021049248436"><ele>137.0</ele><time>2026-04-26T07:39:13Z</time></trkpt><trkpt lat="44.86778577608187" lon="9.924027482629938"><ele>137.0</ele><time>2026-04-26T07:39:13.999Z</time></trkpt><trkpt lat="44.86785932133242" lon="9.924053468209168"><ele>137.0</ele><time>2026-04-26T07:39:14.999Z</time></trkpt><trkpt lat="44.86792747564172" lon="9.924077402107645"><ele>137.33333333333331</ele><time>2026-04-26T07:39:16Z</time></trkpt><trkpt lat="44.86799289706448" lon="9.924099836448027"><ele>137.66666666666666</ele><time>2026-04-26T07:39:16.999Z</time></trkpt><trkpt lat="44.868056553126614" lon="9.924117059874348"><ele>138.0</ele><time>2026-04-26T07:39:17.999Z</time></trkpt><trkpt lat="44.86811862532592" lon="9.924133904108395"><ele>138.33333333333334</ele><time>2026-04-26T07:39:18.999Z</time></trkpt><trkpt lat="44.86823634830342" lon="9.924178602478538"><ele>138.66666666666669</ele><time>2026-04-26T07:39:20.999Z</time></trkpt><trkpt lat="44.868351161562266" lon="9.924211830787506"><ele>139.0</ele><time>2026-04-26T07:39:22.999Z</time></trkpt><trkpt lat="44.86846344017645" lon="9.924251650516052"><ele>139.0</ele><time>2026-04-26T07:39:24.999Z</time></trkpt><trkpt lat="44.86857012967901" lon="9.92429198017171"><ele>139.0</ele><time>2026-04-26T07:39:26.999Z</time></trkpt><trkpt lat="44.868674186407084" lon="9.924323184470719"><ele>139.0</ele><time>2026-04-26T07:39:28.999Z</time></trkpt><trkpt lat="44.868777316515995" lon="9.924304073053534"><ele>139.0</ele><time>2026-04-26T07:39:30.999Z</time></trkpt><trkpt lat="44.86885656687344" lon="9.924199765839866"><ele>139.0</ele><time>2026-04-26T07:39:32.999Z</time></trkpt><trkpt lat="44.86888194635856" lon="9.924049344940167"><ele>140.6</ele><time>2026-04-26T07:39:34.999Z</time></trkpt><trkpt lat="44.86887328747421" lon="9.923904124298241"><ele>142.2</ele><time>2026-04-26T07:39:36.999Z</time></trkpt><trkpt lat="44.86887289774005" lon="9.923763001938216"><ele>143.79999999999998</ele><time>2026-04-26T07:39:38.999Z</time></trkpt><trkpt lat="44.868869160506875" lon="9.92362470454787"><ele>145.4</ele><time>2026-04-26T07:39:41Z</time></trkpt><trkpt lat="44.86887275919463" lon="9.923487868750108"><ele>147.0</ele><time>2026-04-26T07:39:43Z</time></trkpt><trkpt lat="44.86890155922292" lon="9.923358074925927"><ele>147.4</ele><time>2026-04-26T07:39:45Z</time></trkpt><trkpt lat="44.86894720142615" lon="9.923244050497921"><ele>147.79999999999998</ele><time>2026-04-26T07:39:47Z</time></trkpt><trkpt lat="44.869002000242965" lon="9.923141781026361"><ele>148.2</ele><time>2026-04-26T07:39:49Z</time></trkpt><trkpt lat="44.86907975740692" lon="9.923010938066517"><ele>148.6</ele><time>2026-04-26T07:39:51Z</time></trkpt><trkpt lat="44.8691537653724" lon="9.922901268469799"><ele>149.0</ele><time>2026-04-26T07:39:53Z</time></trkpt><trkpt lat="44.86923038610199" lon="9.922791729902372"><ele>149.25</ele><time>2026-04-26T07:39:55Z</time></trkpt><trkpt lat="44.86931661022606" lon="9.922689130996382"><ele>149.5</ele><time>2026-04-26T07:39:57Z</time></trkpt><trkpt lat="44.86940211694383" lon="9.922584690819388"><ele>149.75</ele><time>2026-04-26T07:39:59Z</time></trkpt><trkpt lat="44.86948269969938" lon="9.922476097618748"><ele>150.0</ele><time>2026-04-26T07:40:01Z</time></trkpt><trkpt lat="44.869569663449546" lon="9.922370364826254"><ele>149.0</ele><time>2026-04-26T07:40:03Z</time></trkpt><trkpt lat="44.86964827574341" lon="9.922245266391311"><ele>148.0</ele><time>2026-04-26T07:40:05Z</time></trkpt><trkpt lat="44.86971298267757" lon="9.9222235384745"><ele>147.0</ele><time>2026-04-26T07:40:06Z</time></trkpt><trkpt lat="44.86981675915557" lon="9.9221444028608"><ele>146.0</ele><time>2026-04-26T07:40:08Z</time></trkpt><trkpt lat="44.869874524638966" lon="9.922107512784468"><ele>145.0</ele><time>2026-04-26T07:40:09Z</time></trkpt><trkpt lat="44.86998925649917" lon="9.92204974278808"><ele>145.0</ele><time>2026-04-26T07:40:10.999Z</time></trkpt><trkpt lat="44.87004808998856" lon="9.922015293210059"><ele>145.0</ele><time>2026-04-26T07:40:11.999Z</time></trkpt><trkpt lat="44.87010755673676" lon="9.921983967453194"><ele>145.0</ele><time>2026-04-26T07:40:12.999Z</time></trkpt><trkpt lat="44.870169246351466" lon="9.921951479617778"><ele>145.0</ele><time>2026-04-26T07:40:13.999Z</time></trkpt><trkpt lat="44.87023152947999" lon="9.921917213388996"><ele>145.0</ele><time>2026-04-26T07:40:14.999Z</time></trkpt><trkpt lat="44.87029467117392" lon="9.921880660421012"><ele>145.0</ele><time>2026-04-26T07:40:15.999Z</time></trkpt><trkpt lat="44.87035848163265" lon="9.92184636912687"><ele>145.0</ele><time>2026-04-26T07:40:16.999Z</time></trkpt><trkpt lat="44.87042443811334" lon="9.92181349204755"><ele>145.14285714285714</ele><time>2026-04-26T07:40:17.999Z</time></trkpt><trkpt lat="44.87049150840378" lon="9.921779257715468"><ele>145.2857142857143</ele><time>2026-04-26T07:40:18.999Z</time></trkpt><trkpt lat="44.87056080668166" lon="9.92174053243094"><ele>145.42857142857144</ele><time>2026-04-26T07:40:19.999Z</time></trkpt><trkpt lat="44.87062936609168" lon="9.921703221004902"><ele>145.57142857142858</ele><time>2026-04-26T07:40:20.999Z</time></trkpt><trkpt lat="44.87069866946866" lon="9.921664029955677"><ele>145.71428571428572</ele><time>2026-04-26T07:40:21.999Z</time></trkpt><trkpt lat="44.87076730885211" lon="9.921628814218694"><ele>145.85714285714286</ele><time>2026-04-26T07:40:22.999Z</time></trkpt><trkpt lat="44.87083585414263" lon="9.921590540598194"><ele>146.0</ele><time>2026-04-26T07:40:23.999Z</time></trkpt><trkpt lat="44.870906613471185" lon="9.921557488115477"><ele>145.83333333333331</ele><time>2026-04-26T07:40:24.999Z</time></trkpt><trkpt lat="44.87097697565546" lon="9.921526561367763"><ele>145.66666666666666</ele><time>2026-04-26T07:40:25.999Z</time></trkpt><trkpt lat="44.87104962466833" lon="9.921505389978648"><ele>145.5</ele><time>2026-04-26T07:40:26.999Z</time></trkpt><trkpt lat="44.8711236257092" lon="9.921503434598888"><ele>145.33333333333334</ele><time>2026-04-26T07:40:27.999Z</time></trkpt><trkpt lat="44.87119673205275" lon="9.921531953531412"><ele>145.16666666666669</ele><time>2026-04-26T07:40:28.999Z</time></trkpt><trkpt lat="44.87126381673411" lon="9.921581105869258"><ele>145.0</ele><time>2026-04-26T07:40:29.999Z</time></trkpt><trkpt lat="44.87132512247149" lon="9.92164795857956"><ele>145.0</ele><time>2026-04-26T07:40:30.999Z</time></trkpt><trkpt lat="44.871382016262444" lon="9.92172202162161"><ele>145.0</ele><time>2026-04-26T07:40:31.999Z</time></trkpt><trkpt lat="44.87143451682976" lon="9.921796900943711"><ele>145.0</ele><time>2026-04-26T07:40:32.999Z</time></trkpt><trkpt lat="44.87148782924342" lon="9.921868894220225"><ele>145.0</ele><time>2026-04-26T07:40:33.999Z</time></trkpt><trkpt lat="44.8715432341644" lon="9.921937526751034"><ele>145.0</ele><time>2026-04-26T07:40:34.999Z</time></trkpt><trkpt lat="44.87159841540717" lon="9.922006812558152"><ele>145.0</ele><time>2026-04-26T07:40:35.999Z</time></trkpt><trkpt lat="44.8716521606403" lon="9.922075581520561"><ele>145.0</ele><time>2026-04-26T07:40:36.999Z</time></trkpt><trkpt lat="44.87170665958978" lon="9.922145311824707"><ele>145.28571428571428</ele><time>2026-04-26T07:40:37.999Z</time></trkpt><trkpt lat="44.871760055874475" lon="9.922214131891275"><ele>145.57142857142858</ele><time>2026-04-26T07:40:38.999Z</time></trkpt><trkpt lat="44.87181080977825" lon="9.922283498300072"><ele>145.85714285714286</ele><time>2026-04-26T07:40:39.999Z</time></trkpt><trkpt lat="44.87185873940437" lon="9.922355923771821"><ele>146.14285714285714</ele><time>2026-04-26T07:40:40.999Z</time></trkpt><trkpt lat="44.87190607793224" lon="9.92242632065471"><ele>146.42857142857144</ele><time>2026-04-26T07:40:41.999Z</time></trkpt><trkpt lat="44.871954543853334" lon="9.92249652511622"><ele>146.71428571428572</ele><time>2026-04-26T07:40:42.999Z</time></trkpt><trkpt lat="44.87200316528523" lon="9.922567243688004"><ele>147.0</ele><time>2026-04-26T07:40:43.999Z</time></trkpt><trkpt lat="44.872049105682144" lon="9.922644495697211"><ele>147.28571428571428</ele><time>2026-04-26T07:40:44.999Z</time></trkpt><trkpt lat="44.87209157564608" lon="9.922723091772463"><ele>147.57142857142856</ele><time>2026-04-26T07:40:45.999Z</time></trkpt><trkpt lat="44.872125681411994" lon="9.922807860730423"><ele>147.85714285714286</ele><time>2026-04-26T07:40:46.999Z</time></trkpt><trkpt lat="44.872167288412406" lon="9.922884271086494"><ele>148.14285714285714</ele><time>2026-04-26T07:40:47.999Z</time></trkpt><trkpt lat="44.87222112934566" lon="9.922944739673667"><ele>148.42857142857142</ele><time>2026-04-26T07:40:48.999Z</time></trkpt><trkpt lat="44.872248447658244" lon="9.923033318227183"><ele>148.71428571428572</ele><time>2026-04-26T07:40:49.999Z</time></trkpt><trkpt lat="44.872289748816456" lon="9.92310916688073"><ele>149.0</ele><time>2026-04-26T07:40:50.999Z</time></trkpt><trkpt lat="44.87234208527426" lon="9.923171594485222"><ele>149.0</ele><time>2026-04-26T07:40:51.999Z</time></trkpt><trkpt lat="44.87238376615035" lon="9.923249376588164"><ele>149.0</ele><time>2026-04-26T07:40:52.999Z</time></trkpt><trkpt lat="44.872422423277364" lon="9.92332569345185"><ele>149.0</ele><time>2026-04-26T07:40:53.999Z</time></trkpt><trkpt lat="44.87246482540394" lon="9.923399708347604"><ele>149.0</ele><time>2026-04-26T07:40:54.999Z</time></trkpt><trkpt lat="44.872510345531516" lon="9.923470953177421"><ele>149.0</ele><time>2026-04-26T07:40:55.999Z</time></trkpt><trkpt lat="44.87254380622988" lon="9.923556727655406"><ele>149.0</ele><time>2026-04-26T07:40:56.999Z</time></trkpt><trkpt lat="44.87260098980067" lon="9.923608778065576"><ele>149.0</ele><time>2026-04-26T07:40:57.999Z</time></trkpt><trkpt lat="44.872648101476244" lon="9.92367712735868"><ele>148.71428571428572</ele><time>2026-04-26T07:40:58.999Z</time></trkpt><trkpt lat="44.872696559842765" lon="9.923745194017657"><ele>148.42857142857142</ele><time>2026-04-26T07:40:59.999Z</time></trkpt><trkpt lat="44.87274699129997" lon="9.92381374700311"><ele>148.14285714285714</ele><time>2026-04-26T07:41:00.999Z</time></trkpt><trkpt lat="44.872781955489295" lon="9.923901340751293"><ele>147.85714285714286</ele><time>2026-04-26T07:41:01.999Z</time></trkpt><trkpt lat="44.87284103995542" lon="9.92395856915336"><ele>147.57142857142856</ele><time>2026-04-26T07:41:02.999Z</time></trkpt><trkpt lat="44.87287906184594" lon="9.924044567277132"><ele>147.28571428571428</ele><time>2026-04-26T07:41:03.998Z</time></trkpt><trkpt lat="44.872909180923976" lon="9.924138757686256"><ele>147.0</ele><time>2026-04-26T07:41:04.998Z</time></trkpt><trkpt lat="44.87292620066993" lon="9.92424124430266"><ele>146.83333333333334</ele><time>2026-04-26T07:41:05.998Z</time></trkpt><trkpt lat="44.87295493090535" lon="9.924336861413266"><ele>146.66666666666666</ele><time>2026-04-26T07:41:06.998Z</time></trkpt><trkpt lat="44.872984480030716" lon="9.924434239092186"><ele>146.5</ele><time>2026-04-26T07:41:07.998Z</time></trkpt><trkpt lat="44.873014362609936" lon="9.924530940361857"><ele>146.33333333333331</ele><time>2026-04-26T07:41:09Z</time></trkpt><trkpt lat="44.873044407207" lon="9.924628166196978"><ele>146.16666666666666</ele><time>2026-04-26T07:41:10Z</time></trkpt><trkpt lat="44.873074620835446" lon="9.924725938941853"><ele>146.0</ele><time>2026-04-26T07:41:11Z</time></trkpt><trkpt lat="44.87310547313932" lon="9.924825778346776"><ele>146.0</ele><time>2026-04-26T07:41:12Z</time></trkpt><trkpt lat="44.873137458039515" lon="9.924929282950643"><ele>146.0</ele><time>2026-04-26T07:41:13Z</time></trkpt><trkpt lat="44.873171189159564" lon="9.925038435727457"><ele>146.0</ele><time>2026-04-26T07:41:14Z</time></trkpt><trkpt lat="44.873207180754285" lon="9.925148236583418"><ele>146.0</ele><time>2026-04-26T07:41:15Z</time></trkpt><trkpt lat="44.87324329918262" lon="9.925260002968544"><ele>146.0</ele><time>2026-04-26T07:41:16Z</time></trkpt><trkpt lat="44.873280448670734" lon="9.925371646956345"><ele>146.0</ele><time>2026-04-26T07:41:17Z</time></trkpt><trkpt lat="44.87331744962263" lon="9.92548284456592"><ele>145.66666666666666</ele><time>2026-04-26T07:41:18Z</time></trkpt><trkpt lat="44.87335333703057" lon="9.92559069565865"><ele>145.33333333333331</ele><time>2026-04-26T07:41:19Z</time></trkpt><trkpt lat="44.87339090568601" lon="9.925699601558264"><ele>145.0</ele><time>2026-04-26T07:41:20Z</time></trkpt><trkpt lat="44.873429391112154" lon="9.925808877713305"><ele>144.66666666666666</ele><time>2026-04-26T07:41:21Z</time></trkpt><trkpt lat="44.87346996640922" lon="9.925918070163394"><ele>144.33333333333334</ele><time>2026-04-26T07:41:22Z</time></trkpt><trkpt lat="44.873510334818405" lon="9.92602564933401"><ele>144.0</ele><time>2026-04-26T07:41:23Z</time></trkpt><trkpt lat="44.873551625895026" lon="9.926134103526646"><ele>143.33333333333334</ele><time>2026-04-26T07:41:24Z</time></trkpt><trkpt lat="44.873592316546784" lon="9.92624089001707"><ele>142.66666666666666</ele><time>2026-04-26T07:41:25Z</time></trkpt><trkpt lat="44.87363354885757" lon="9.92634820373848"><ele>142.0</ele><time>2026-04-26T07:41:26Z</time></trkpt><trkpt lat="44.87367627104299" lon="9.926453760041507"><ele>141.33333333333331</ele><time>2026-04-26T07:41:27Z</time></trkpt><trkpt lat="44.87373220054648" lon="9.926546502257535"><ele>140.66666666666666</ele><time>2026-04-26T07:41:28Z</time></trkpt><trkpt lat="44.873775478026275" lon="9.926648986069594"><ele>140.0</ele><time>2026-04-26T07:41:29Z</time></trkpt><trkpt lat="44.873823596023776" lon="9.92674501257615"><ele>139.66666666666666</ele><time>2026-04-26T07:41:30Z</time></trkpt><trkpt lat="44.87387746565149" lon="9.92683535623415"><ele>139.33333333333331</ele><time>2026-04-26T07:41:31Z</time></trkpt><trkpt lat="44.87393457288685" lon="9.926920519080735"><ele>139.0</ele><time>2026-04-26T07:41:32Z</time></trkpt><trkpt lat="44.8739973947374" lon="9.926992718265073"><ele>138.66666666666666</ele><time>2026-04-26T07:41:33Z</time></trkpt><trkpt lat="44.874072234570846" lon="9.927052809205192"><ele>138.33333333333334</ele><time>2026-04-26T07:41:34Z</time></trkpt><trkpt lat="44.87416051867394" lon="9.92708891748538"><ele>138.0</ele><time>2026-04-26T07:41:35Z</time></trkpt><trkpt lat="44.874257855156976" lon="9.927097620003536"><ele>137.6</ele><time>2026-04-26T07:41:36Z</time></trkpt><trkpt lat="44.874357098259544" lon="9.927075861932755"><ele>137.20000000000002</ele><time>2026-04-26T07:41:37Z</time></trkpt><trkpt lat="44.874453437101884" lon="9.927051816083651"><ele>136.8</ele><time>2026-04-26T07:41:38Z</time></trkpt><trkpt lat="44.87455003674191" lon="9.927018928533547"><ele>136.4</ele><time>2026-04-26T07:41:39Z</time></trkpt><trkpt lat="44.87464250657341" lon="9.926973989312508"><ele>136.0</ele><time>2026-04-26T07:41:40Z</time></trkpt><trkpt lat="44.87473257556596" lon="9.926920980696964"><ele>136.0</ele><time>2026-04-26T07:41:41Z</time></trkpt><trkpt lat="44.87482278173561" lon="9.926867530366698"><ele>136.0</ele><time>2026-04-26T07:41:42Z</time></trkpt><trkpt lat="44.87490988406627" lon="9.926818212969165"><ele>136.0</ele><time>2026-04-26T07:41:43Z</time></trkpt><trkpt lat="44.87499757591275" lon="9.926769678163197"><ele>136.0</ele><time>2026-04-26T07:41:44Z</time></trkpt><trkpt lat="44.87508327152132" lon="9.92672099109095"><ele>136.0</ele><time>2026-04-26T07:41:45Z</time></trkpt><trkpt lat="44.87516720446616" lon="9.92667223139663"><ele>136.16666666666669</ele><time>2026-04-26T07:41:46Z</time></trkpt><trkpt lat="44.875247777799586" lon="9.926622238382425"><ele>136.33333333333334</ele><time>2026-04-26T07:41:47Z</time></trkpt><trkpt lat="44.87532429002041" lon="9.926569290045212"><ele>136.5</ele><time>2026-04-26T07:41:48Z</time></trkpt><trkpt lat="44.875403869501575" lon="9.926519235926044"><ele>136.66666666666666</ele><time>2026-04-26T07:41:49Z</time></trkpt><trkpt lat="44.87548501997642" lon="9.926470985287944"><ele>136.83333333333331</ele><time>2026-04-26T07:41:50Z</time></trkpt><trkpt lat="44.87556329092508" lon="9.926423986619866"><ele>137.0</ele><time>2026-04-26T07:41:51Z</time></trkpt><trkpt lat="44.87564262145222" lon="9.926379198439902"><ele>137.0</ele><time>2026-04-26T07:41:52Z</time></trkpt><trkpt lat="44.875722959663534" lon="9.926330014709492"><ele>137.0</ele><time>2026-04-26T07:41:53Z</time></trkpt><trkpt lat="44.875804570327574" lon="9.926281506880677"><ele>137.0</ele><time>2026-04-26T07:41:54Z</time></trkpt><trkpt lat="44.875888920423" lon="9.92623919641589"><ele>137.0</ele><time>2026-04-26T07:41:55Z</time></trkpt><trkpt lat="44.87597581791532" lon="9.926213827100122"><ele>137.0</ele><time>2026-04-26T07:41:56Z</time></trkpt><trkpt lat="44.876062317876666" lon="9.926239604781854"><ele>137.0</ele><time>2026-04-26T07:41:57Z</time></trkpt><trkpt lat="44.876135283581334" lon="9.926317744185999"><ele>135.66666666666666</ele><time>2026-04-26T07:41:58Z</time></trkpt><trkpt lat="44.876155948417015" lon="9.926455629791201"><ele>134.33333333333331</ele><time>2026-04-26T07:41:59Z</time></trkpt><trkpt lat="44.87620301915152" lon="9.926574560452556"><ele>133.0</ele><time>2026-04-26T07:42:00Z</time></trkpt><trkpt lat="44.87624427856247" lon="9.926683869269343"><ele>131.66666666666666</ele><time>2026-04-26T07:42:01Z</time></trkpt><trkpt lat="44.87629389469672" lon="9.926770691440622"><ele>130.33333333333334</ele><time>2026-04-26T07:42:02Z</time></trkpt><trkpt lat="44.87633679059247" lon="9.926839409902515"><ele>129.0</ele><time>2026-04-26T07:42:03Z</time></trkpt><trkpt lat="44.87640263828811" lon="9.926846925534422"><ele>129.0</ele><time>2026-04-26T07:42:04Z</time></trkpt><trkpt lat="44.87646542922475" lon="9.92677022985683"><ele>129.0</ele><time>2026-04-26T07:42:05Z</time></trkpt><trkpt lat="44.87647262908585" lon="9.926634609156736"><ele>129.0</ele><time>2026-04-26T07:42:06Z</time></trkpt><trkpt lat="44.876433344398826" lon="9.926506857440533"><ele>129.0</ele><time>2026-04-26T07:42:07Z</time></trkpt><trkpt lat="44.87638709314813" lon="9.926393361931936"><ele>129.0</ele><time>2026-04-26T07:42:08Z</time></trkpt><trkpt lat="44.87634503570788" lon="9.926277984407209"><ele>128.8</ele><time>2026-04-26T07:42:09Z</time></trkpt><trkpt lat="44.87630633330599" lon="9.926155877903488"><ele>128.60000000000002</ele><time>2026-04-26T07:42:10Z</time></trkpt><trkpt lat="44.876263436486035" lon="9.92603159024213"><ele>128.4</ele><time>2026-04-26T07:42:11Z</time></trkpt><trkpt lat="44.87621943821773" lon="9.92590601675138"><ele>128.20000000000002</ele><time>2026-04-26T07:42:12Z</time></trkpt><trkpt lat="44.87619161351595" lon="9.92579169420313"><ele>128.0</ele><time>2026-04-26T07:42:12.999Z</time></trkpt><trkpt lat="44.87619564752734" lon="9.92568955388792"><ele>127.60000000000001</ele><time>2026-04-26T07:42:13.999Z</time></trkpt><trkpt lat="44.8762210336028" lon="9.92559343385239"><ele>127.20000000000002</ele><time>2026-04-26T07:42:14.999Z</time></trkpt><trkpt lat="44.876313439202306" lon="9.925525685228104"><ele>126.8</ele><time>2026-04-26T07:42:15.999Z</time></trkpt><trkpt lat="44.87643370229421" lon="9.925575730923832"><ele>126.4</ele><time>2026-04-26T07:42:16.999Z</time></trkpt><trkpt lat="44.876550318635324" lon="9.925589034145936"><ele>126.0</ele><time>2026-04-26T07:42:17.999Z</time></trkpt><trkpt lat="44.87665020085926" lon="9.925561347762958"><ele>126.0</ele><time>2026-04-26T07:42:18.999Z</time></trkpt><trkpt lat="44.8767266812642" lon="9.925457966303979"><ele>126.0</ele><time>2026-04-26T07:42:19.999Z</time></trkpt><trkpt lat="44.87681107765266" lon="9.925361590097326"><ele>126.0</ele><time>2026-04-26T07:42:20.999Z</time></trkpt><trkpt lat="44.87690264206804" lon="9.925282626041394"><ele>126.0</ele><time>2026-04-26T07:42:21.999Z</time></trkpt><trkpt lat="44.87698110135498" lon="9.925192262396644"><ele>126.0</ele><time>2026-04-26T07:42:22.999Z</time></trkpt><trkpt lat="44.877058174123455" lon="9.925108614853883"><ele>125.66666666666667</ele><time>2026-04-26T07:42:23.999Z</time></trkpt><trkpt lat="44.877132937113814" lon="9.925027478879752"><ele>125.33333333333334</ele><time>2026-04-26T07:42:24.999Z</time></trkpt><trkpt lat="44.87720390974397" lon="9.924946105679892"><ele>125.0</ele><time>2026-04-26T07:42:25.999Z</time></trkpt><trkpt lat="44.877269322940926" lon="9.924872344652195"><ele>124.66666666666667</ele><time>2026-04-26T07:42:26.999Z</time></trkpt><trkpt lat="44.87732919332293" lon="9.924801905912073"><ele>124.33333333333334</ele><time>2026-04-26T07:42:27.999Z</time></trkpt><trkpt lat="44.8773852490785" lon="9.924737743203309"><ele>124.0</ele><time>2026-04-26T07:42:28.999Z</time></trkpt><trkpt lat="44.877438133807615" lon="9.924676169989732"><ele>124.0</ele><time>2026-04-26T07:42:29.999Z</time></trkpt><trkpt lat="44.877492804397015" lon="9.924617272212751"><ele>124.00000000000001</ele><time>2026-04-26T07:42:30.999Z</time></trkpt><trkpt lat="44.87754680237759" lon="9.92456001945953"><ele>124.0</ele><time>2026-04-26T07:42:31.999Z</time></trkpt><trkpt lat="44.87760061471112" lon="9.92450145938685"><ele>124.0</ele><time>2026-04-26T07:42:32.999Z</time></trkpt><trkpt lat="44.877655488094135" lon="9.924440275001363"><ele>124.00000000000001</ele><time>2026-04-26T07:42:33.999Z</time></trkpt><trkpt lat="44.877709879919976" lon="9.92438171768533"><ele>124.0</ele><time>2026-04-26T07:42:34.999Z</time></trkpt><trkpt lat="44.877762386609724" lon="9.924320991038808"><ele>124.0</ele><time>2026-04-26T07:42:35.999Z</time></trkpt><trkpt lat="44.87781635694006" lon="9.924259590927406"><ele>124.57142857142858</ele><time>2026-04-26T07:42:36.999Z</time></trkpt><trkpt lat="44.877868284035294" lon="9.924197633378142"><ele>125.14285714285715</ele><time>2026-04-26T07:42:37.999Z</time></trkpt><trkpt lat="44.87792020252998" lon="9.924141353789395"><ele>125.71428571428572</ele><time>2026-04-26T07:42:38.999Z</time></trkpt><trkpt lat="44.87797331173239" lon="9.924082529552026"><ele>126.28571428571428</ele><time>2026-04-26T07:42:39.999Z</time></trkpt><trkpt lat="44.87802587700889" lon="9.924025689660525"><ele>126.85714285714285</ele><time>2026-04-26T07:42:40.999Z</time></trkpt><trkpt lat="44.87807637365536" lon="9.923968967418613"><ele>127.42857142857142</ele><time>2026-04-26T07:42:41.999Z</time></trkpt><trkpt lat="44.87812943154962" lon="9.923909863210978"><ele>128.0</ele><time>2026-04-26T07:42:42.999Z</time></trkpt><trkpt lat="44.878181695030804" lon="9.923848963443563"><ele>128.0</ele><time>2026-04-26T07:42:43.999Z</time></trkpt><trkpt lat="44.87823121207757" lon="9.923792862910888"><ele>127.99999999999999</ele><time>2026-04-26T07:42:44.999Z</time></trkpt><trkpt lat="44.87828212350013" lon="9.923735589998891"><ele>128.0</ele><time>2026-04-26T07:42:45.999Z</time></trkpt><trkpt lat="44.878333000913344" lon="9.923677201194058"><ele>128.0</ele><time>2026-04-26T07:42:46.999Z</time></trkpt><trkpt lat="44.87838475461145" lon="9.923623223184856"><ele>127.99999999999999</ele><time>2026-04-26T07:42:47.999Z</time></trkpt><trkpt lat="44.878437261089324" lon="9.923566906818342"><ele>128.0</ele><time>2026-04-26T07:42:48.999Z</time></trkpt><trkpt lat="44.878488282836194" lon="9.923511773889338"><ele>128.0</ele><time>2026-04-26T07:42:49.999Z</time></trkpt><trkpt lat="44.878537583417454" lon="9.923451519338352"><ele>128.28571428571428</ele><time>2026-04-26T07:42:50.999Z</time></trkpt><trkpt lat="44.87858805400189" lon="9.923393814955043"><ele>128.57142857142856</ele><time>2026-04-26T07:42:51.999Z</time></trkpt><trkpt lat="44.87863908428197" lon="9.923336728855782"><ele>128.85714285714286</ele><time>2026-04-26T07:42:52.999Z</time></trkpt><trkpt lat="44.87869016013533" lon="9.923278792941037"><ele>129.14285714285714</ele><time>2026-04-26T07:42:53.999Z</time></trkpt><trkpt lat="44.87874123736349" lon="9.923224958480695"><ele>129.42857142857144</ele><time>2026-04-26T07:42:54.999Z</time></trkpt><trkpt lat="44.87879161955535" lon="9.92316821070501"><ele>129.71428571428572</ele><time>2026-04-26T07:42:55.999Z</time></trkpt><trkpt lat="44.87889215732331" lon="9.923066554366347"><ele>130.0</ele><time>2026-04-26T07:42:57.999Z</time></trkpt><trkpt lat="44.878996056883544" lon="9.922979071505925"><ele>130.0</ele><time>2026-04-26T07:42:59.999Z</time></trkpt><trkpt lat="44.87910156794496" lon="9.922902046037194"><ele>130.0</ele><time>2026-04-26T07:43:01.999Z</time></trkpt><trkpt lat="44.87920342500165" lon="9.922812919990866"><ele>130.0</ele><time>2026-04-26T07:43:03.999Z</time></trkpt><trkpt lat="44.87926217700653" lon="9.922770021621798"><ele>130.0</ele><time>2026-04-26T07:43:04.999Z</time></trkpt><trkpt lat="44.87937775508918" lon="9.922751018995498"><ele>130.0</ele><time>2026-04-26T07:43:06.998Z</time></trkpt><trkpt lat="44.879474143757314" lon="9.922690486317668"><ele>130.0</ele><time>2026-04-26T07:43:08.998Z</time></trkpt><trkpt lat="44.87954641912395" lon="9.922634630924623"><ele>130.0</ele><time>2026-04-26T07:43:10.998Z</time></trkpt><trkpt lat="44.87959592620877" lon="9.922550510070728"><ele>130.0</ele><time>2026-04-26T07:43:15Z</time></trkpt><trkpt lat="44.87961133481002" lon="9.922463545180475"><ele>130.0</ele><time>2026-04-26T07:43:18Z</time></trkpt><trkpt lat="44.87962929233772" lon="9.922365938658576"><ele>130.0</ele><time>2026-04-26T07:43:20Z</time></trkpt><trkpt lat="44.879660273071146" lon="9.922249738141183"><ele>130.0</ele><time>2026-04-26T07:43:22Z</time></trkpt><trkpt lat="44.87972389852348" lon="9.922134183127516"><ele>130.0</ele><time>2026-04-26T07:43:24Z</time></trkpt><trkpt lat="44.87979602722115" lon="9.922016824640817"><ele>130.0</ele><time>2026-04-26T07:43:26Z</time></trkpt><trkpt lat="44.87988976491397" lon="9.921917227156463"><ele>130.0</ele><time>2026-04-26T07:43:28Z</time></trkpt><trkpt lat="44.88001927892007" lon="9.921857758600577"><ele>130.0</ele><time>2026-04-26T07:43:30Z</time></trkpt><trkpt lat="44.88008755601743" lon="9.921828230683559"><ele>130.0</ele><time>2026-04-26T07:43:31Z</time></trkpt><trkpt lat="44.88015753757167" lon="9.921796085217425"><ele>130.0</ele><time>2026-04-26T07:43:32Z</time></trkpt><trkpt lat="44.88023038328607" lon="9.921760832336258"><ele>130.0</ele><time>2026-04-26T07:43:33Z</time></trkpt><trkpt lat="44.88030597083624" lon="9.921732648694373"><ele>130.0</ele><time>2026-04-26T07:43:34Z</time></trkpt><trkpt lat="44.88038628328828" lon="9.921710714498735"><ele>130.0</ele><time>2026-04-26T07:43:35Z</time></trkpt><trkpt lat="44.88047078688843" lon="9.921689336947056"><ele>130.0</ele><time>2026-04-26T07:43:36Z</time></trkpt><trkpt lat="44.8805535131878" lon="9.921664479035792"><ele>130.0</ele><time>2026-04-26T07:43:37Z</time></trkpt><trkpt lat="44.880638079431414" lon="9.921640951160663"><ele>130.0</ele><time>2026-04-26T07:43:38Z</time></trkpt><trkpt lat="44.88072446103012" lon="9.921621278420004"><ele>130.0</ele><time>2026-04-26T07:43:39Z</time></trkpt><trkpt lat="44.88081286041904" lon="9.921598270331339"><ele>130.0</ele><time>2026-04-26T07:43:40Z</time></trkpt><trkpt lat="44.880903068810134" lon="9.921575198033633"><ele>130.0</ele><time>2026-04-26T07:43:41Z</time></trkpt><trkpt lat="44.88099695305866" lon="9.921553942304406"><ele>130.0</ele><time>2026-04-26T07:43:42Z</time></trkpt><trkpt lat="44.88109317638952" lon="9.921529857989581"><ele>129.2</ele><time>2026-04-26T07:43:43Z</time></trkpt><trkpt lat="44.881186746717894" lon="9.921500703163586"><ele>128.4</ele><time>2026-04-26T07:43:44Z</time></trkpt><trkpt lat="44.881282287088965" lon="9.921455278320838"><ele>127.6</ele><time>2026-04-26T07:43:45Z</time></trkpt><trkpt lat="44.88137615916255" lon="9.921398514068706"><ele>126.8</ele><time>2026-04-26T07:43:46Z</time></trkpt><trkpt lat="44.88147389674594" lon="9.921336056286455"><ele>126.0</ele><time>2026-04-26T07:43:47Z</time></trkpt><trkpt lat="44.88157082691599" lon="9.921263599735758"><ele>126.0</ele><time>2026-04-26T07:43:48Z</time></trkpt><trkpt lat="44.8816648874883" lon="9.921180535274317"><ele>126.0</ele><time>2026-04-26T07:43:49Z</time></trkpt><trkpt lat="44.88175845800146" lon="9.921085926111727"><ele>126.0</ele><time>2026-04-26T07:43:49.999Z</time></trkpt><trkpt lat="44.88184575617488" lon="9.920991355824365"><ele>126.0</ele><time>2026-04-26T07:43:50.999Z</time></trkpt><trkpt lat="44.88193185809351" lon="9.92088581426952"><ele>125.4</ele><time>2026-04-26T07:43:51.999Z</time></trkpt><trkpt lat="44.88201282941457" lon="9.920779960983689"><ele>124.8</ele><time>2026-04-26T07:43:52.999Z</time></trkpt><trkpt lat="44.88209498088923" lon="9.920680122101768"><ele>124.20000000000002</ele><time>2026-04-26T07:43:53.999Z</time></trkpt><trkpt lat="44.88217751388742" lon="9.920584747857731"><ele>123.60000000000001</ele><time>2026-04-26T07:43:54.999Z</time></trkpt><trkpt lat="44.88225871236679" lon="9.920482580970566"><ele>123.0</ele><time>2026-04-26T07:43:55.999Z</time></trkpt><trkpt lat="44.88234174958062" lon="9.920384855191697"><ele>123.0</ele><time>2026-04-26T07:43:56.999Z</time></trkpt><trkpt lat="44.88242468561249" lon="9.920297621669938"><ele>123.00000000000001</ele><time>2026-04-26T07:43:57.999Z</time></trkpt><trkpt lat="44.88250715556403" lon="9.920202460449637"><ele>123.00000000000001</ele><time>2026-04-26T07:43:58.999Z</time></trkpt><trkpt lat="44.8825868385353" lon="9.920110179295577"><ele>123.0</ele><time>2026-04-26T07:43:59.999Z</time></trkpt><trkpt lat="44.88266451864455" lon="9.9200185531939"><ele>123.0</ele><time>2026-04-26T07:44:00.999Z</time></trkpt><trkpt lat="44.88273967648884" lon="9.919925785565074"><ele>123.4</ele><time>2026-04-26T07:44:01.999Z</time></trkpt><trkpt lat="44.88281605780994" lon="9.919833135887096"><ele>123.80000000000001</ele><time>2026-04-26T07:44:02.999Z</time></trkpt><trkpt lat="44.88289022208251" lon="9.91974357933239"><ele>124.2</ele><time>2026-04-26T07:44:03.999Z</time></trkpt><trkpt lat="44.882966991760945" lon="9.919655126084754"><ele>124.6</ele><time>2026-04-26T07:44:04.999Z</time></trkpt><trkpt lat="44.88304125170859" lon="9.919567518061053"><ele>125.0</ele><time>2026-04-26T07:44:05.999Z</time></trkpt><trkpt lat="44.88311245090559" lon="9.919478236439932"><ele>125.0</ele><time>2026-04-26T07:44:06.999Z</time></trkpt><trkpt lat="44.88318705361136" lon="9.919387685588164"><ele>125.0</ele><time>2026-04-26T07:44:07.999Z</time></trkpt><trkpt lat="44.883260142070576" lon="9.919294964272245"><ele>125.0</ele><time>2026-04-26T07:44:08.999Z</time></trkpt><trkpt lat="44.883330775932095" lon="9.919197069799399"><ele>125.0</ele><time>2026-04-26T07:44:09.999Z</time></trkpt><trkpt lat="44.8833959070844" lon="9.919088093734834"><ele>125.0</ele><time>2026-04-26T07:44:10.999Z</time></trkpt><trkpt lat="44.88344384099716" lon="9.918964291778499"><ele>124.6</ele><time>2026-04-26T07:44:11.999Z</time></trkpt><trkpt lat="44.88347352486374" lon="9.918825181301425"><ele>124.2</ele><time>2026-04-26T07:44:12.999Z</time></trkpt><trkpt lat="44.88349710429672" lon="9.91868820916833"><ele>123.80000000000001</ele><time>2026-04-26T07:44:13.999Z</time></trkpt><trkpt lat="44.88352559445773" lon="9.918556867091306"><ele>123.4</ele><time>2026-04-26T07:44:14.999Z</time></trkpt><trkpt lat="44.883553536795134" lon="9.918423736466064"><ele>123.0</ele><time>2026-04-26T07:44:15.999Z</time></trkpt><trkpt lat="44.88357935399386" lon="9.91829453210487"><ele>123.0</ele><time>2026-04-26T07:44:16.999Z</time></trkpt><trkpt lat="44.88360603996696" lon="9.91816705997107"><ele>123.00000000000001</ele><time>2026-04-26T07:44:17.999Z</time></trkpt><trkpt lat="44.883631879219074" lon="9.918039220712066"><ele>123.00000000000001</ele><time>2026-04-26T07:44:18.999Z</time></trkpt><trkpt lat="44.88365665268255" lon="9.9179129076666"><ele>123.0</ele><time>2026-04-26T07:44:19.999Z</time></trkpt><trkpt lat="44.883682326717285" lon="9.917783555814621"><ele>123.0</ele><time>2026-04-26T07:44:20.999Z</time></trkpt><trkpt lat="44.8837069148696" lon="9.917653992545686"><ele>123.0</ele><time>2026-04-26T07:44:21.999Z</time></trkpt><trkpt lat="44.88373079251507" lon="9.91752423298546"><ele>123.00000000000001</ele><time>2026-04-26T07:44:22.999Z</time></trkpt><trkpt lat="44.88375647104954" lon="9.917395490936752"><ele>123.00000000000001</ele><time>2026-04-26T07:44:23.999Z</time></trkpt><trkpt lat="44.88377838358532" lon="9.917265795443154"><ele>123.0</ele><time>2026-04-26T07:44:24.999Z</time></trkpt><trkpt lat="44.88380356092347" lon="9.917137014325341"><ele>123.0</ele><time>2026-04-26T07:44:25.999Z</time></trkpt><trkpt lat="44.88382994712576" lon="9.917004732787252"><ele>123.0</ele><time>2026-04-26T07:44:26.999Z</time></trkpt><trkpt lat="44.883856890574194" lon="9.916877455767802"><ele>123.00000000000001</ele><time>2026-04-26T07:44:27.999Z</time></trkpt><trkpt lat="44.88388426897233" lon="9.91674888743453"><ele>123.00000000000001</ele><time>2026-04-26T07:44:28.999Z</time></trkpt><trkpt lat="44.88391132225049" lon="9.916615794348196"><ele>123.0</ele><time>2026-04-26T07:44:29.999Z</time></trkpt><trkpt lat="44.8839355112861" lon="9.916486622475139"><ele>123.0</ele><time>2026-04-26T07:44:30.999Z</time></trkpt><trkpt lat="44.8839571965203" lon="9.91635493239602"><ele>123.0</ele><time>2026-04-26T07:44:31.999Z</time></trkpt><trkpt lat="44.88398168004886" lon="9.91622248662312"><ele>123.00000000000001</ele><time>2026-04-26T07:44:32.999Z</time></trkpt><trkpt lat="44.88400495883806" lon="9.916091860419973"><ele>123.00000000000001</ele><time>2026-04-26T07:44:33.999Z</time></trkpt><trkpt lat="44.884029878422275" lon="9.915960432800215"><ele>123.0</ele><time>2026-04-26T07:44:34.998Z</time></trkpt><trkpt lat="44.884054985008895" lon="9.915829087246792"><ele>123.0</ele><time>2026-04-26T07:44:35.998Z</time></trkpt><trkpt lat="44.88408010063501" lon="9.91569705394041"><ele>122.80000000000001</ele><time>2026-04-26T07:44:36.998Z</time></trkpt><trkpt lat="44.88410427292772" lon="9.915564416305362"><ele>122.60000000000001</ele><time>2026-04-26T07:44:37.998Z</time></trkpt><trkpt lat="44.88413090563218" lon="9.915428878861798"><ele>122.39999999999999</ele><time>2026-04-26T07:44:38.998Z</time></trkpt><trkpt lat="44.88416863220033" lon="9.915300309004543"><ele>122.19999999999999</ele><time>2026-04-26T07:44:39.998Z</time></trkpt><trkpt lat="44.88422003030661" lon="9.915179305081264"><ele>122.0</ele><time>2026-04-26T07:44:40.998Z</time></trkpt><trkpt lat="44.88427904567253" lon="9.915063916357543"><ele>121.8</ele><time>2026-04-26T07:44:41.998Z</time></trkpt><trkpt lat="44.8843434590558" lon="9.914956700800607"><ele>121.6</ele><time>2026-04-26T07:44:42.998Z</time></trkpt><trkpt lat="44.884397295638415" lon="9.914837100764096"><ele>121.39999999999999</ele><time>2026-04-26T07:44:43.998Z</time></trkpt><trkpt lat="44.884462461475515" lon="9.914733412148138"><ele>121.19999999999999</ele><time>2026-04-26T07:44:44.998Z</time></trkpt><trkpt lat="44.884527509957515" lon="9.914633388621178"><ele>121.0</ele><time>2026-04-26T07:44:45.998Z</time></trkpt><trkpt lat="44.884603951629344" lon="9.914549089016257"><ele>121.0</ele><time>2026-04-26T07:44:46.998Z</time></trkpt><trkpt lat="44.884667178482765" lon="9.914445086614531"><ele>121.0</ele><time>2026-04-26T07:44:47.998Z</time></trkpt><trkpt lat="44.88473105732158" lon="9.914341017897732"><ele>121.0</ele><time>2026-04-26T07:44:48.998Z</time></trkpt><trkpt lat="44.88479078330919" lon="9.91423455816998"><ele>121.0</ele><time>2026-04-26T07:44:49.998Z</time></trkpt><trkpt lat="44.884848415647646" lon="9.914128367611719"><ele>121.0</ele><time>2026-04-26T07:44:50.998Z</time></trkpt><trkpt lat="44.88490526410336" lon="9.914023285857857"><ele>120.6</ele><time>2026-04-26T07:44:51.998Z</time></trkpt><trkpt lat="44.88495846221518" lon="9.913914433905232"><ele>120.19999999999999</ele><time>2026-04-26T07:44:52.998Z</time></trkpt><trkpt lat="44.88501100842445" lon="9.913809716946714"><ele>119.80000000000001</ele><time>2026-04-26T07:44:53.998Z</time></trkpt><trkpt lat="44.88506524964345" lon="9.913700799563562"><ele>119.4</ele><time>2026-04-26T07:44:54.998Z</time></trkpt><trkpt lat="44.88511564435746" lon="9.913592398725905"><ele>119.0</ele><time>2026-04-26T07:44:55.998Z</time></trkpt><trkpt lat="44.88516761857996" lon="9.913488613063338"><ele>119.4</ele><time>2026-04-26T07:44:56.998Z</time></trkpt><trkpt lat="44.88521835321657" lon="9.91338072842614"><ele>119.80000000000001</ele><time>2026-04-26T07:44:57.998Z</time></trkpt><trkpt lat="44.885253515972835" lon="9.913258652846947"><ele>120.19999999999999</ele><time>2026-04-26T07:44:58.998Z</time></trkpt><trkpt lat="44.885297853657825" lon="9.91314667505012"><ele>120.6</ele><time>2026-04-26T07:44:59.998Z</time></trkpt><trkpt lat="44.88534100068011" lon="9.91303315490647"><ele>121.0</ele><time>2026-04-26T07:45:00.998Z</time></trkpt><trkpt lat="44.88539792469129" lon="9.912925877927483"><ele>121.0</ele><time>2026-04-26T07:45:01.998Z</time></trkpt><trkpt lat="44.88544019257625" lon="9.912807566435026"><ele>121.0</ele><time>2026-04-26T07:45:02.998Z</time></trkpt><trkpt lat="44.885483809010616" lon="9.91268758474657"><ele>121.0</ele><time>2026-04-26T07:45:03.998Z</time></trkpt><trkpt lat="44.88552611697199" lon="9.912566216516478"><ele>121.0</ele><time>2026-04-26T07:45:04.998Z</time></trkpt><trkpt lat="44.885568932474776" lon="9.912443439126287"><ele>121.0</ele><time>2026-04-26T07:45:05.998Z</time></trkpt><trkpt lat="44.88561166931853" lon="9.91231936844938"><ele>120.8</ele><time>2026-04-26T07:45:06.998Z</time></trkpt><trkpt lat="44.88565385408223" lon="9.912198367667974"><ele>120.6</ele><time>2026-04-26T07:45:07.998Z</time></trkpt><trkpt lat="44.88569587348551" lon="9.912074903778647"><ele>120.4</ele><time>2026-04-26T07:45:08.998Z</time></trkpt><trkpt lat="44.88573740819225" lon="9.911954388947215"><ele>120.2</ele><time>2026-04-26T07:45:09.998Z</time></trkpt><trkpt lat="44.8857794101909" lon="9.911838592254554"><ele>120.0</ele><time>2026-04-26T07:45:10.998Z</time></trkpt><trkpt lat="44.88581930513005" lon="9.91172275688361"><ele>120.0</ele><time>2026-04-26T07:45:11.998Z</time></trkpt><trkpt lat="44.8858553935947" lon="9.911606679097018"><ele>120.0</ele><time>2026-04-26T07:45:12.998Z</time></trkpt><trkpt lat="44.8858944895771" lon="9.911490473547309"><ele>120.0</ele><time>2026-04-26T07:45:13.998Z</time></trkpt><trkpt lat="44.885934550890894" lon="9.911376931081753"><ele>120.0</ele><time>2026-04-26T07:45:14.998Z</time></trkpt><trkpt lat="44.88597655515026" lon="9.911261758067978"><ele>120.0</ele><time>2026-04-26T07:45:15.998Z</time></trkpt><trkpt lat="44.88601179965618" lon="9.911147914959429"><ele>119.83333333333333</ele><time>2026-04-26T07:45:16.998Z</time></trkpt><trkpt lat="44.88604235928114" lon="9.9110372441914"><ele>119.66666666666666</ele><time>2026-04-26T07:45:17.998Z</time></trkpt><trkpt lat="44.88608251390231" lon="9.910942755301651"><ele>119.5</ele><time>2026-04-26T07:45:18.998Z</time></trkpt><trkpt lat="44.88614757376512" lon="9.910884206758965"><ele>119.33333333333333</ele><time>2026-04-26T07:45:20Z</time></trkpt><trkpt lat="44.88622947287485" lon="9.910864952677729"><ele>119.16666666666666</ele><time>2026-04-26T07:45:21Z</time></trkpt><trkpt lat="44.88631283802419" lon="9.910893549805698"><ele>119.0</ele><time>2026-04-26T07:45:22Z</time></trkpt><trkpt lat="44.88638730046765" lon="9.910938796017792"><ele>118.83333333333333</ele><time>2026-04-26T07:45:23Z</time></trkpt><trkpt lat="44.886458892786564" lon="9.910979959429477"><ele>118.66666666666666</ele><time>2026-04-26T07:45:24Z</time></trkpt><trkpt lat="44.88653276056009" lon="9.911013655637309"><ele>118.5</ele><time>2026-04-26T07:45:25Z</time></trkpt><trkpt lat="44.886610785065955" lon="9.911045062123632"><ele>118.33333333333334</ele><time>2026-04-26T07:45:26Z</time></trkpt><trkpt lat="44.886686176327" lon="9.91108110014237"><ele>118.16666666666667</ele><time>2026-04-26T07:45:27Z</time></trkpt><trkpt lat="44.88676135596107" lon="9.911114372059139"><ele>118.0</ele><time>2026-04-26T07:45:28Z</time></trkpt><trkpt lat="44.886837463441466" lon="9.911146468147919"><ele>118.00000000000001</ele><time>2026-04-26T07:45:29Z</time></trkpt><trkpt lat="44.88691067861409" lon="9.911179248013337"><ele>118.0</ele><time>2026-04-26T07:45:30Z</time></trkpt><trkpt lat="44.88698309554128" lon="9.911214422156085"><ele>118.0</ele><time>2026-04-26T07:45:31Z</time></trkpt><trkpt lat="44.88705880226505" lon="9.911255648429144"><ele>118.0</ele><time>2026-04-26T07:45:32Z</time></trkpt><trkpt lat="44.88713466420048" lon="9.911269100685574"><ele>118.00000000000001</ele><time>2026-04-26T07:45:33Z</time></trkpt><trkpt lat="44.887197314225766" lon="9.91129174967429"><ele>118.0</ele><time>2026-04-26T07:45:34Z</time></trkpt><trkpt lat="44.88727062453886" lon="9.91133103975753"><ele>118.0</ele><time>2026-04-26T07:45:36Z</time></trkpt><trkpt lat="44.887345197989276" lon="9.911357214663903"><ele>118.00000000000001</ele><time>2026-04-26T07:45:38Z</time></trkpt><trkpt lat="44.887429779561934" lon="9.911250409403667"><ele>118.00000000000001</ele><time>2026-04-26T07:45:41Z</time></trkpt><trkpt lat="44.887487328286795" lon="9.91110118589845"><ele>118.0</ele><time>2026-04-26T07:45:43Z</time></trkpt><trkpt lat="44.887514509581145" lon="9.91101203906785"><ele>118.0</ele><time>2026-04-26T07:45:44Z</time></trkpt><trkpt lat="44.887541454592586" lon="9.910918990454746"><ele>118.00000000000001</ele><time>2026-04-26T07:45:45Z</time></trkpt><trkpt lat="44.88756752753908" lon="9.910814956699715"><ele>118.0</ele><time>2026-04-26T07:45:46Z</time></trkpt><trkpt lat="44.88759744102534" lon="9.910714183450239"><ele>118.0</ele><time>2026-04-26T07:45:47Z</time></trkpt><trkpt lat="44.88762272264374" lon="9.910607958332076"><ele>118.0</ele><time>2026-04-26T07:45:48Z</time></trkpt><trkpt lat="44.88764939749861" lon="9.91050126789468"><ele>118.00000000000001</ele><time>2026-04-26T07:45:49Z</time></trkpt><trkpt lat="44.88766973724668" lon="9.910389859589158"><ele>118.0</ele><time>2026-04-26T07:45:50Z</time></trkpt><trkpt lat="44.88768653756326" lon="9.910283267517595"><ele>118.0</ele><time>2026-04-26T07:45:51Z</time></trkpt><trkpt lat="44.88770014895833" lon="9.910177177162742"><ele>118.0</ele><time>2026-04-26T07:45:52Z</time></trkpt><trkpt lat="44.88771721230749" lon="9.91007667280324"><ele>118.0</ele><time>2026-04-26T07:45:53Z</time></trkpt><trkpt lat="44.88773620873057" lon="9.909973502984913"><ele>118.0</ele><time>2026-04-26T07:45:54Z</time></trkpt><trkpt lat="44.88775450520274" lon="9.909869605663573"><ele>118.0</ele><time>2026-04-26T07:45:55Z</time></trkpt><trkpt lat="44.88776988456736" lon="9.90977016960948"><ele>118.0</ele><time>2026-04-26T07:45:56Z</time></trkpt><trkpt lat="44.88778670658443" lon="9.909674078175081"><ele>118.0</ele><time>2026-04-26T07:45:57Z</time></trkpt><trkpt lat="44.88780661237723" lon="9.909578605132877"><ele>118.0</ele><time>2026-04-26T07:45:58Z</time></trkpt><trkpt lat="44.8878239771962" lon="9.909488614995222"><ele>118.0</ele><time>2026-04-26T07:45:59Z</time></trkpt><trkpt lat="44.88782037620773" lon="9.909392447524347"><ele>118.0</ele><time>2026-04-26T07:46:00Z</time></trkpt><trkpt lat="44.88782629635426" lon="9.909302861323045"><ele>118.0</ele><time>2026-04-26T07:46:01Z</time></trkpt><trkpt lat="44.88784720036124" lon="9.90920394215825"><ele>118.0</ele><time>2026-04-26T07:46:02Z</time></trkpt><trkpt lat="44.88783516976034" lon="9.909104051872687"><ele>118.0</ele><time>2026-04-26T07:46:03Z</time></trkpt><trkpt lat="44.88783928044055" lon="9.908994944977044"><ele>118.0</ele><time>2026-04-26T07:46:04Z</time></trkpt><trkpt lat="44.887197314225766" lon="9.91129174967429"><ele>118.0</ele><time>2026-04-26T07:45:34Z</time></trkpt><trkpt lat="44.88727062453886" lon="9.91133103975753"><ele>118.00000000000001</ele><time>2026-04-26T07:45:36Z</time></trkpt><trkpt lat="44.887345197989276" lon="9.911357214663903"><ele>118.00000000000001</ele><time>2026-04-26T07:45:38Z</time></trkpt><trkpt lat="44.887429779561934" lon="9.911250409403667"><ele>118.0</ele><time>2026-04-26T07:45:41Z</time></trkpt><trkpt lat="44.887487328286795" lon="9.91110118589845"><ele>118.0</ele><time>2026-04-26T07:45:43Z</time></trkpt><trkpt lat="44.887514509581145" lon="9.91101203906785"><ele>118.00000000000001</ele><time>2026-04-26T07:45:44Z</time></trkpt><trkpt lat="44.887541454592586" lon="9.910918990454746"><ele>118.0</ele><time>2026-04-26T07:45:45Z</time></trkpt><trkpt lat="44.88756752753908" lon="9.910814956699715"><ele>118.0</ele><time>2026-04-26T07:45:46Z</time></trkpt><trkpt lat="44.88759744102534" lon="9.910714183450239"><ele>118.0</ele><time>2026-04-26T07:45:47Z</time></trkpt><trkpt lat="44.88762272264374" lon="9.910607958332076"><ele>118.00000000000001</ele><time>2026-04-26T07:45:48Z</time></trkpt><trkpt lat="44.88764939749861" lon="9.91050126789468"><ele>118.0</ele><time>2026-04-26T07:45:49Z</time></trkpt><trkpt lat="44.88766973724668" lon="9.910389859589158"><ele>118.00000000000001</ele><time>2026-04-26T07:45:50Z</time></trkpt><trkpt lat="44.88768653756326" lon="9.910283267517595"><ele>118.0</ele><time>2026-04-26T07:45:51Z</time></trkpt><trkpt lat="44.88770014895833" lon="9.910177177162742"><ele>118.0</ele><time>2026-04-26T07:45:52Z</time></trkpt><trkpt lat="44.88771721230749" lon="9.91007667280324"><ele>118.0</ele><time>2026-04-26T07:45:53Z</time></trkpt><trkpt lat="44.88773620873057" lon="9.909973502984913"><ele>118.00000000000001</ele><time>2026-04-26T07:45:54Z</time></trkpt><trkpt lat="44.88775450520274" lon="9.909869605663573"><ele>118.0</ele><time>2026-04-26T07:45:55Z</time></trkpt><trkpt lat="44.88776988456736" lon="9.90977016960948"><ele>118.0</ele><time>2026-04-26T07:45:56Z</time></trkpt><trkpt lat="44.88778670658443" lon="9.909674078175081"><ele>118.0</ele><time>2026-04-26T07:45:57Z</time></trkpt><trkpt lat="44.88780661237723" lon="9.909578605132877"><ele>118.0</ele><time>2026-04-26T07:45:58Z</time></trkpt><trkpt lat="44.8878239771962" lon="9.909488614995222"><ele>118.0</ele><time>2026-04-26T07:45:59Z</time></trkpt><trkpt lat="44.88782037620773" lon="9.909392447524347"><ele>118.0</ele><time>2026-04-26T07:46:00Z</time></trkpt><trkpt lat="44.88782629635426" lon="9.909302861323045"><ele>118.0</ele><time>2026-04-26T07:46:01Z</time></trkpt><trkpt lat="44.88784720036124" lon="9.90920394215825"><ele>118.0</ele><time>2026-04-26T07:46:02Z</time></trkpt><trkpt lat="44.88783516976034" lon="9.909104051872687"><ele>118.00000000000001</ele><time>2026-04-26T07:46:03Z</time></trkpt><trkpt lat="44.88783928044055" lon="9.908994944977044"><ele>118.0</ele><time>2026-04-26T07:46:04Z</time></trkpt><trkpt lat="44.88784324499188" lon="9.908889716816274"><ele>118.0</ele><time>2026-04-26T07:46:05Z</time></trkpt><trkpt lat="44.88784990302506" lon="9.908780348740354"><ele>118.0</ele><time>2026-04-26T07:46:06Z</time></trkpt><trkpt lat="44.8878570159714" lon="9.908671534953122"><ele>118.00000000000001</ele><time>2026-04-26T07:46:07Z</time></trkpt><trkpt lat="44.88788104024625" lon="9.90855936545929"><ele>118.0</ele><time>2026-04-26T07:46:08Z</time></trkpt><trkpt lat="44.8878883861226" lon="9.908459365048108"><ele>118.00000000000001</ele><time>2026-04-26T07:46:09Z</time></trkpt><trkpt lat="44.88790124611786" lon="9.908355905873485"><ele>118.0</ele><time>2026-04-26T07:46:10Z</time></trkpt><trkpt lat="44.88790614357761" lon="9.908258739206943"><ele>118.0</ele><time>2026-04-26T07:46:11Z</time></trkpt><trkpt lat="44.887913344804" lon="9.908161913995276"><ele>118.0</ele><time>2026-04-26T07:46:12Z</time></trkpt><trkpt lat="44.887925647058026" lon="9.90807006769529"><ele>118.00000000000001</ele><time>2026-04-26T07:46:13Z</time></trkpt><trkpt lat="44.88796631822534" lon="9.907911075857482"><ele>118.0</ele><time>2026-04-26T07:46:15Z</time></trkpt><trkpt lat="44.8880799631986" lon="9.907871092513858"><ele>118.00000000000001</ele><time>2026-04-26T07:46:17Z</time></trkpt><trkpt lat="44.88814852315272" lon="9.907913546539312"><ele>118.0</ele><time>2026-04-26T07:46:18Z</time></trkpt><trkpt lat="44.88820849604965" lon="9.907968601163669"><ele>118.0</ele><time>2026-04-26T07:46:19Z</time></trkpt><trkpt lat="44.888325474786" lon="9.908028607242178"><ele>118.0</ele><time>2026-04-26T07:46:21Z</time></trkpt><trkpt lat="44.8883943132919" lon="9.908072824578772"><ele>118.00000000000001</ele><time>2026-04-26T07:46:21.999Z</time></trkpt><trkpt lat="44.88846318772337" lon="9.90811542859395"><ele>118.0</ele><time>2026-04-26T07:46:22.999Z</time></trkpt><trkpt lat="44.888532860183474" lon="9.908157235665643"><ele>118.00000000000001</ele><time>2026-04-26T07:46:23.999Z</time></trkpt><trkpt lat="44.88860601274219" lon="9.908199142658415"><ele>118.0</ele><time>2026-04-26T07:46:24.999Z</time></trkpt><trkpt lat="44.888678042489126" lon="9.908241826490388"><ele>118.0</ele><time>2026-04-26T07:46:25.999Z</time></trkpt><trkpt lat="44.88875067767764" lon="9.908287580669132"><ele>118.0</ele><time>2026-04-26T07:46:26.999Z</time></trkpt><trkpt lat="44.88882710432074" lon="9.908333824993798"><ele>118.00000000000001</ele><time>2026-04-26T07:46:27.999Z</time></trkpt><trkpt lat="44.88890298542025" lon="9.908381260503367"><ele>118.0</ele><time>2026-04-26T07:46:28.999Z</time></trkpt><trkpt lat="44.88897751106937" lon="9.908427689559588"><ele>118.00000000000001</ele><time>2026-04-26T07:46:29.999Z</time></trkpt><trkpt lat="44.889055744585576" lon="9.908476817273018"><ele>118.0</ele><time>2026-04-26T07:46:30.999Z</time></trkpt><trkpt lat="44.88913350705992" lon="9.908522805715064"><ele>118.0</ele><time>2026-04-26T07:46:31.999Z</time></trkpt><trkpt lat="44.88920974454069" lon="9.908568941670824"><ele>118.0</ele><time>2026-04-26T07:46:32.999Z</time></trkpt><trkpt lat="44.88928626861505" lon="9.908612888664512"><ele>118.00000000000001</ele><time>2026-04-26T07:46:33.999Z</time></trkpt><trkpt lat="44.889360729536186" lon="9.908667911182063"><ele>118.0</ele><time>2026-04-26T07:46:34.999Z</time></trkpt><trkpt lat="44.88944438625844" lon="9.908719351895618"><ele>117.50000000000001</ele><time>2026-04-26T07:46:35.999Z</time></trkpt><trkpt lat="44.88952565348681" lon="9.908764903902238"><ele>117.0</ele><time>2026-04-26T07:46:36.999Z</time></trkpt><trkpt lat="44.88960612464214" lon="9.90880597803045"><ele>116.5</ele><time>2026-04-26T07:46:37.999Z</time></trkpt><trkpt lat="44.889685870012514" lon="9.908841561539475"><ele>116.0</ele><time>2026-04-26T07:46:38.999Z</time></trkpt><trkpt lat="44.88976451976152" lon="9.908880726843288"><ele>115.50000000000001</ele><time>2026-04-26T07:46:39.999Z</time></trkpt><trkpt lat="44.88984039541496" lon="9.908914909233546"><ele>115.0</ele><time>2026-04-26T07:46:40.999Z</time></trkpt><trkpt lat="44.88991512393661" lon="9.908944976861584"><ele>115.00000000000001</ele><time>2026-04-26T07:46:41.999Z</time></trkpt><trkpt lat="44.88998866380481" lon="9.908972189641085"><ele>115.0</ele><time>2026-04-26T07:46:42.999Z</time></trkpt><trkpt lat="44.89006669183081" lon="9.908998669323966"><ele>115.0</ele><time>2026-04-26T07:46:43.999Z</time></trkpt><trkpt lat="44.89014715404825" lon="9.909026752337294"><ele>115.0</ele><time>2026-04-26T07:46:44.999Z</time></trkpt><trkpt lat="44.890228601618965" lon="9.909059258540788"><ele>115.00000000000001</ele><time>2026-04-26T07:46:45.999Z</time></trkpt><trkpt lat="44.89031217845185" lon="9.909087144800791"><ele>115.0</ele><time>2026-04-26T07:46:46.999Z</time></trkpt><trkpt lat="44.890399552716566" lon="9.909113010500345"><ele>114.6</ele><time>2026-04-26T07:46:47.999Z</time></trkpt><trkpt lat="44.89048547119986" lon="9.909146381849107"><ele>114.2</ele><time>2026-04-26T07:46:48.999Z</time></trkpt><trkpt lat="44.890571941371384" lon="9.909181695626941"><ele>113.80000000000001</ele><time>2026-04-26T07:46:49.999Z</time></trkpt><trkpt lat="44.89066437444" lon="9.909198945796504"><ele>113.4</ele><time>2026-04-26T07:46:50.999Z</time></trkpt><trkpt lat="44.8907580326927" lon="9.90920164080086"><ele>113.0</ele><time>2026-04-26T07:46:51.999Z</time></trkpt><trkpt lat="44.89085165165153" lon="9.909207626872245"><ele>112.2</ele><time>2026-04-26T07:46:52.999Z</time></trkpt><trkpt lat="44.89094527696205" lon="9.909208182601688"><ele>111.4</ele><time>2026-04-26T07:46:53.999Z</time></trkpt><trkpt lat="44.89103624645679" lon="9.90921547680449"><ele>110.60000000000001</ele><time>2026-04-26T07:46:54.999Z</time></trkpt><trkpt lat="44.89112676962689" lon="9.90921200959049"><ele>109.80000000000001</ele><time>2026-04-26T07:46:55.999Z</time></trkpt><trkpt lat="44.891216929052796" lon="9.909210580619092"><ele>109.0</ele><time>2026-04-26T07:46:56.999Z</time></trkpt><trkpt lat="44.89130606293437" lon="9.909212620967864"><ele>109.0</ele><time>2026-04-26T07:46:57.999Z</time></trkpt><trkpt lat="44.89139666995206" lon="9.909212129834174"><ele>109.0</ele><time>2026-04-26T07:46:58.999Z</time></trkpt><trkpt lat="44.891486299994476" lon="9.909212733082068"><ele>109.0</ele><time>2026-04-26T07:46:59.999Z</time></trkpt><trkpt lat="44.89157791542957" lon="9.909212668324432"><ele>109.0</ele><time>2026-04-26T07:47:00.999Z</time></trkpt><trkpt lat="44.89166968079497" lon="9.909194311239922"><ele>109.0</ele><time>2026-04-26T07:47:01.999Z</time></trkpt><trkpt lat="44.8917563420278" lon="9.909230013908676"><ele>109.16666666666667</ele><time>2026-04-26T07:47:02.999Z</time></trkpt><trkpt lat="44.89184492936564" lon="9.909251789002312"><ele>109.33333333333334</ele><time>2026-04-26T07:47:03.999Z</time></trkpt><trkpt lat="44.89193338265056" lon="9.909283598642848"><ele>109.5</ele><time>2026-04-26T07:47:04.999Z</time></trkpt><trkpt lat="44.892016800625235" lon="9.909324990249749"><ele>109.66666666666666</ele><time>2026-04-26T07:47:05.999Z</time></trkpt><trkpt lat="44.89210071579683" lon="9.909374902510109"><ele>109.83333333333333</ele><time>2026-04-26T07:47:06.999Z</time></trkpt><trkpt lat="44.89218224852486" lon="9.909421712013133"><ele>110.0</ele><time>2026-04-26T07:47:07.999Z</time></trkpt><trkpt lat="44.892265171133126" lon="9.909472153961907"><ele>110.0</ele><time>2026-04-26T07:47:08.999Z</time></trkpt><trkpt lat="44.89234630227694" lon="9.909524118061771"><ele>110.0</ele><time>2026-04-26T07:47:09.999Z</time></trkpt><trkpt lat="44.892429173276305" lon="9.909575013356717"><ele>110.0</ele><time>2026-04-26T07:47:10.999Z</time></trkpt><trkpt lat="44.89251318232609" lon="9.909622389517718"><ele>110.0</ele><time>2026-04-26T07:47:11.999Z</time></trkpt><trkpt lat="44.89259761330364" lon="9.909668623061078"><ele>110.0</ele><time>2026-04-26T07:47:12.999Z</time></trkpt><trkpt lat="44.892684941850646" lon="9.909711058525179"><ele>109.6</ele><time>2026-04-26T07:47:13.999Z</time></trkpt><trkpt lat="44.89277044510522" lon="9.909748631356702"><ele>109.2</ele><time>2026-04-26T07:47:14.999Z</time></trkpt><trkpt lat="44.89285662590867" lon="9.909785001031203"><ele>108.80000000000001</ele><time>2026-04-26T07:47:15.998Z</time></trkpt><trkpt lat="44.89294298138995" lon="9.90982504147535"><ele>108.4</ele><time>2026-04-26T07:47:16.998Z</time></trkpt><trkpt lat="44.89302603335873" lon="9.9098696351432"><ele>108.0</ele><time>2026-04-26T07:47:17.998Z</time></trkpt><trkpt lat="44.893111247815575" lon="9.909916939678391"><ele>108.0</ele><time>2026-04-26T07:47:18.998Z</time></trkpt><trkpt lat="44.8931976525152" lon="9.909956988659868"><ele>108.0</ele><time>2026-04-26T07:47:19.998Z</time></trkpt><trkpt lat="44.89328119535971" lon="9.909994095971536"><ele>108.0</ele><time>2026-04-26T07:47:20.998Z</time></trkpt><trkpt lat="44.89336640877062" lon="9.910031969634773"><ele>108.0</ele><time>2026-04-26T07:47:21.998Z</time></trkpt><trkpt lat="44.893449878292266" lon="9.91006867618438"><ele>108.0</ele><time>2026-04-26T07:47:22.998Z</time></trkpt><trkpt lat="44.89353394828964" lon="9.910108863972416"><ele>108.0</ele><time>2026-04-26T07:47:23.998Z</time></trkpt><trkpt lat="44.8936151322929" lon="9.910148146254013"><ele>108.0</ele><time>2026-04-26T07:47:24.998Z</time></trkpt><trkpt lat="44.8936957340827" lon="9.910193672177343"><ele>108.0</ele><time>2026-04-26T07:47:26Z</time></trkpt><trkpt lat="44.893774599617686" lon="9.910235978163739"><ele>108.0</ele><time>2026-04-26T07:47:27Z</time></trkpt><trkpt lat="44.89385257344844" lon="9.910272971922678"><ele>108.0</ele><time>2026-04-26T07:47:28Z</time></trkpt><trkpt lat="44.893936801044326" lon="9.910278645960291"><ele>108.0</ele><time>2026-04-26T07:47:29Z</time></trkpt><trkpt lat="44.89401445059209" lon="9.910252526506099"><ele>108.0</ele><time>2026-04-26T07:47:30Z</time></trkpt><trkpt lat="44.89407787057515" lon="9.910180516100727"><ele>108.0</ele><time>2026-04-26T07:47:31Z</time></trkpt><trkpt lat="44.894122253185266" lon="9.910084700788783"><ele>108.0</ele><time>2026-04-26T07:47:32Z</time></trkpt><trkpt lat="44.89415727220584" lon="9.90998324593244"><ele>108.0</ele><time>2026-04-26T07:47:33Z</time></trkpt><trkpt lat="44.89419501630382" lon="9.909874714031666"><ele>108.0</ele><time>2026-04-26T07:47:34Z</time></trkpt><trkpt lat="44.89423303815294" lon="9.909768267404793"><ele>108.0</ele><time>2026-04-26T07:47:35Z</time></trkpt><trkpt lat="44.89426983871696" lon="9.909659940859916"><ele>108.0</ele><time>2026-04-26T07:47:36Z</time></trkpt><trkpt lat="44.89430007909884" lon="9.909550370778549"><ele>107.83333333333333</ele><time>2026-04-26T07:47:37Z</time></trkpt><trkpt lat="44.8943318324519" lon="9.909442909070581"><ele>107.66666666666666</ele><time>2026-04-26T07:47:38Z</time></trkpt><trkpt lat="44.89436638588765" lon="9.90933617726993"><ele>107.5</ele><time>2026-04-26T07:47:39Z</time></trkpt><trkpt lat="44.894399796068534" lon="9.90923391219155"><ele>107.33333333333333</ele><time>2026-04-26T07:47:40Z</time></trkpt><trkpt lat="44.89443289900025" lon="9.909133563966241"><ele>107.16666666666666</ele><time>2026-04-26T07:47:41Z</time></trkpt><trkpt lat="44.89446586807131" lon="9.90903265148929"><ele>107.0</ele><time>2026-04-26T07:47:42Z</time></trkpt><trkpt lat="44.89449812652838" lon="9.908934525726702"><ele>106.99999999999999</ele><time>2026-04-26T07:47:43Z</time></trkpt><trkpt lat="44.89453221480536" lon="9.908839632753715"><ele>107.0</ele><time>2026-04-26T07:47:44Z</time></trkpt><trkpt lat="44.894563231060026" lon="9.90874784684278"><ele>107.0</ele><time>2026-04-26T07:47:45Z</time></trkpt><trkpt lat="44.8945867774479" lon="9.908662752287938"><ele>107.0</ele><time>2026-04-26T07:47:46Z</time></trkpt><trkpt lat="44.89461499764953" lon="9.908583250077193"><ele>106.99999999999999</ele><time>2026-04-26T07:47:47Z</time></trkpt><trkpt lat="44.894664571412854" lon="9.908430967097695"><ele>107.0</ele><time>2026-04-26T07:47:49Z</time></trkpt><trkpt lat="44.89471404936409" lon="9.908309508118752"><ele>107.16666666666666</ele><time>2026-04-26T07:47:51Z</time></trkpt><trkpt lat="44.894763484355884" lon="9.908196394622703"><ele>107.33333333333333</ele><time>2026-04-26T07:47:53Z</time></trkpt><trkpt lat="44.89480122568776" lon="9.908085011399805"><ele>107.5</ele><time>2026-04-26T07:47:55Z</time></trkpt><trkpt lat="44.89485938282226" lon="9.90800959371762"><ele>107.66666666666666</ele><time>2026-04-26T07:47:58Z</time></trkpt><trkpt lat="44.89480045450794" lon="9.90806168961695"><ele>107.83333333333333</ele><time>2026-04-26T07:48:08Z</time></trkpt><trkpt lat="44.894751213917864" lon="9.908147367605528"><ele>108.0</ele><time>2026-04-26T07:48:11Z</time></trkpt><trkpt lat="44.89472400718235" lon="9.908236736269629"><ele>108.0</ele><time>2026-04-26T07:48:13Z</time></trkpt><trkpt lat="44.89467936052367" lon="9.908351117588662"><ele>108.00000000000001</ele><time>2026-04-26T07:48:15Z</time></trkpt><trkpt lat="44.89463060592683" lon="9.908486408681021"><ele>108.00000000000001</ele><time>2026-04-26T07:48:17Z</time></trkpt><trkpt lat="44.894555617776554" lon="9.908618995632915"><ele>108.0</ele><time>2026-04-26T07:48:19Z</time></trkpt><trkpt lat="44.89450455222187" lon="9.9087736496298"><ele>108.0</ele><time>2026-04-26T07:48:21Z</time></trkpt><trkpt lat="44.89445075027427" lon="9.908936590854205"><ele>107.85714285714286</ele><time>2026-04-26T07:48:23Z</time></trkpt><trkpt lat="44.89442380735818" lon="9.90901818875555"><ele>107.71428571428571</ele><time>2026-04-26T07:48:24Z</time></trkpt><trkpt lat="44.89439568686495" lon="9.90910335258842"><ele>107.57142857142858</ele><time>2026-04-26T07:48:25Z</time></trkpt><trkpt lat="44.89436770575174" lon="9.909188094410805"><ele>107.42857142857143</ele><time>2026-04-26T07:48:26Z</time></trkpt><trkpt lat="44.89433956197366" lon="9.909273329135187"><ele>107.28571428571429</ele><time>2026-04-26T07:48:26.999Z</time></trkpt><trkpt lat="44.89431128421321" lon="9.909358969105357"><ele>107.14285714285715</ele><time>2026-04-26T07:48:27.999Z</time></trkpt><trkpt lat="44.894283025171426" lon="9.909444552903786"><ele>107.0</ele><time>2026-04-26T07:48:28.999Z</time></trkpt><trkpt lat="44.89425500540509" lon="9.909529411935216"><ele>107.19999999999999</ele><time>2026-04-26T07:48:29.999Z</time></trkpt><trkpt lat="44.89420295947688" lon="9.909685038861275"><ele>107.39999999999999</ele><time>2026-04-26T07:48:31.999Z</time></trkpt><trkpt lat="44.89415240948323" lon="9.909827663908368"><ele>107.60000000000001</ele><time>2026-04-26T07:48:33.999Z</time></trkpt><trkpt lat="44.894101953614985" lon="9.909963091215456"><ele>107.80000000000001</ele><time>2026-04-26T07:48:35.999Z</time></trkpt><trkpt lat="44.894051270852444" lon="9.910079451624156"><ele>108.0</ele><time>2026-04-26T07:48:37.999Z</time></trkpt><trkpt lat="44.89401316131873" lon="9.910150874527446"><ele>108.0</ele><time>2026-04-26T07:48:41.999Z</time></trkpt><trkpt lat="44.89409166554717" lon="9.910093227173656"><ele>108.0</ele><time>2026-04-26T07:48:49.999Z</time></trkpt><trkpt lat="44.89413399140712" lon="9.910021064495009"><ele>108.0</ele><time>2026-04-26T07:48:51.999Z</time></trkpt><trkpt lat="44.89417084799426" lon="9.90993080855611"><ele>108.0</ele><time>2026-04-26T07:48:53.999Z</time></trkpt><trkpt lat="44.89420709171696" lon="9.909827775051566"><ele>108.0</ele><time>2026-04-26T07:48:55.999Z</time></trkpt><trkpt lat="44.89425197209399" lon="9.909711476203908"><ele>108.0</ele><time>2026-04-26T07:48:57.999Z</time></trkpt><trkpt lat="44.89429433391348" lon="9.909570511097167"><ele>107.83333333333333</ele><time>2026-04-26T07:48:59.999Z</time></trkpt><trkpt lat="44.89434858621273" lon="9.909409595742193"><ele>107.66666666666666</ele><time>2026-04-26T07:49:01.999Z</time></trkpt><trkpt lat="44.89437891240274" lon="9.909320812681926"><ele>107.5</ele><time>2026-04-26T07:49:02.999Z</time></trkpt><trkpt lat="44.894408273406775" lon="9.909227684094382"><ele>107.33333333333333</ele><time>2026-04-26T07:49:03.999Z</time></trkpt><trkpt lat="44.89443932701307" lon="9.90913259441894"><ele>107.16666666666666</ele><time>2026-04-26T07:49:04.999Z</time></trkpt><trkpt lat="44.89447226231942" lon="9.90903958019821"><ele>107.0</ele><time>2026-04-26T07:49:05.999Z</time></trkpt><trkpt lat="44.89450521944431" lon="9.90894575108061"><ele>106.99999999999999</ele><time>2026-04-26T07:49:06.999Z</time></trkpt><trkpt lat="44.89453539418743" lon="9.908849718578717"><ele>107.0</ele><time>2026-04-26T07:49:07.999Z</time></trkpt><trkpt lat="44.894566049782355" lon="9.908751009103963"><ele>107.0</ele><time>2026-04-26T07:49:08.999Z</time></trkpt><trkpt lat="44.894600687496784" lon="9.908653447280898"><ele>107.0</ele><time>2026-04-26T07:49:09.999Z</time></trkpt><trkpt lat="44.89463543052947" lon="9.908554120679458"><ele>106.99999999999999</ele><time>2026-04-26T07:49:10.999Z</time></trkpt><trkpt lat="44.89467100754622" lon="9.908451141747523"><ele>107.0</ele><time>2026-04-26T07:49:11.999Z</time></trkpt><trkpt lat="44.894703108650866" lon="9.908344956240663"><ele>107.16666666666666</ele><time>2026-04-26T07:49:12.999Z</time></trkpt><trkpt lat="44.89473626338184" lon="9.908241733906507"><ele>107.33333333333333</ele><time>2026-04-26T07:49:13.999Z</time></trkpt><trkpt lat="44.89477566337159" lon="9.90814139078195"><ele>107.5</ele><time>2026-04-26T07:49:14.999Z</time></trkpt><trkpt lat="44.89482237740296" lon="9.90804300896127"><ele>107.66666666666666</ele><time>2026-04-26T07:49:15.999Z</time></trkpt><trkpt lat="44.894885093732746" lon="9.907960194194764"><ele>107.83333333333333</ele><time>2026-04-26T07:49:16.999Z</time></trkpt><trkpt lat="44.894960022349856" lon="9.907892356765867"><ele>108.0</ele><time>2026-04-26T07:49:17.999Z</time></trkpt><trkpt lat="44.89505030071284" lon="9.907857019061856"><ele>108.0</ele><time>2026-04-26T07:49:18.999Z</time></trkpt><trkpt lat="44.89513883979195" lon="9.90782161261062"><ele>108.0</ele><time>2026-04-26T07:49:19.998Z</time></trkpt><trkpt lat="44.89522530229321" lon="9.907796821085224"><ele>108.0</ele><time>2026-04-26T07:49:20.998Z</time></trkpt><trkpt lat="44.89531141932195" lon="9.907765031554163"><ele>108.0</ele><time>2026-04-26T07:49:21.998Z</time></trkpt><trkpt lat="44.895397449097636" lon="9.90773254734342"><ele>108.0</ele><time>2026-04-26T07:49:22.998Z</time></trkpt><trkpt lat="44.895484867685546" lon="9.907700060170598"><ele>108.0</ele><time>2026-04-26T07:49:23.998Z</time></trkpt><trkpt lat="44.89557134543363" lon="9.907667714425209"><ele>108.0</ele><time>2026-04-26T07:49:24.998Z</time></trkpt><trkpt lat="44.895656998142655" lon="9.907642085897736"><ele>108.0</ele><time>2026-04-26T07:49:25.998Z</time></trkpt><trkpt lat="44.895747925011406" lon="9.907620688097838"><ele>108.0</ele><time>2026-04-26T07:49:26.998Z</time></trkpt><trkpt lat="44.89583657295078" lon="9.90760942346854"><ele>108.0</ele><time>2026-04-26T07:49:27.998Z</time></trkpt><trkpt lat="44.89592631760075" lon="9.907598932152277"><ele>108.0</ele><time>2026-04-26T07:49:28.998Z</time></trkpt><trkpt lat="44.89601400134137" lon="9.90759302356861"><ele>108.0</ele><time>2026-04-26T07:49:29.998Z</time></trkpt><trkpt lat="44.89610653275918" lon="9.907589901718449"><ele>107.60000000000001</ele><time>2026-04-26T07:49:31Z</time></trkpt><trkpt lat="44.89619770238137" lon="9.90759007502933"><ele>107.20000000000002</ele><time>2026-04-26T07:49:32Z</time></trkpt><trkpt lat="44.8962892734428" lon="9.907587022003455"><ele>106.8</ele><time>2026-04-26T07:49:33Z</time></trkpt><trkpt lat="44.896380233978064" lon="9.907587917683523"><ele>106.4</ele><time>2026-04-26T07:49:34Z</time></trkpt><trkpt lat="44.89647244623082" lon="9.907593877183658"><ele>106.0</ele><time>2026-04-26T07:49:35Z</time></trkpt><trkpt lat="44.89656390366138" lon="9.907598507496921"><ele>106.0</ele><time>2026-04-26T07:49:36Z</time></trkpt><trkpt lat="44.89665513339617" lon="9.907604256856125"><ele>106.0</ele><time>2026-04-26T07:49:37Z</time></trkpt><trkpt lat="44.89674597011967" lon="9.907614721139458"><ele>106.0</ele><time>2026-04-26T07:49:38Z</time></trkpt><trkpt lat="44.89683745466473" lon="9.907632928163503"><ele>106.0</ele><time>2026-04-26T07:49:39Z</time></trkpt><trkpt lat="44.89692730022001" lon="9.907651023494457"><ele>106.0</ele><time>2026-04-26T07:49:40Z</time></trkpt><trkpt lat="44.897016038903736" lon="9.907670176569367"><ele>105.66666666666667</ele><time>2026-04-26T07:49:41Z</time></trkpt><trkpt lat="44.89710398399116" lon="9.907692681180658"><ele>105.33333333333334</ele><time>2026-04-26T07:49:42Z</time></trkpt><trkpt lat="44.89719242116474" lon="9.907716822675763"><ele>105.0</ele><time>2026-04-26T07:49:43Z</time></trkpt><trkpt lat="44.897278820634185" lon="9.907738347477611"><ele>104.66666666666666</ele><time>2026-04-26T07:49:44Z</time></trkpt><trkpt lat="44.897365918654195" lon="9.907763707894286"><ele>104.33333333333333</ele><time>2026-04-26T07:49:45Z</time></trkpt><trkpt lat="44.8974520190954" lon="9.90779055174043"><ele>104.0</ele><time>2026-04-26T07:49:46Z</time></trkpt><trkpt lat="44.89753922785152" lon="9.907818864345076"><ele>104.16666666666666</ele><time>2026-04-26T07:49:47Z</time></trkpt><trkpt lat="44.89762355022603" lon="9.907850768381365"><ele>104.33333333333333</ele><time>2026-04-26T07:49:48Z</time></trkpt><trkpt lat="44.897712830525876" lon="9.907883263451259"><ele>104.5</ele><time>2026-04-26T07:49:49Z</time></trkpt><trkpt lat="44.897796385393995" lon="9.907918923319736"><ele>104.66666666666666</ele><time>2026-04-26T07:49:50Z</time></trkpt><trkpt lat="44.897879863822105" lon="9.907955853285728"><ele>104.83333333333333</ele><time>2026-04-26T07:49:51Z</time></trkpt><trkpt lat="44.89796235279395" lon="9.907992630751723"><ele>105.0</ele><time>2026-04-26T07:49:52Z</time></trkpt><trkpt lat="44.89804705580208" lon="9.908029010225121"><ele>105.0</ele><time>2026-04-26T07:49:53Z</time></trkpt><trkpt lat="44.8981301266521" lon="9.90806556836619"><ele>105.0</ele><time>2026-04-26T07:49:54Z</time></trkpt><trkpt lat="44.89821484946687" lon="9.908101336326741"><ele>105.0</ele><time>2026-04-26T07:49:55Z</time></trkpt><trkpt lat="44.898300666619384" lon="9.908134549698032"><ele>105.0</ele><time>2026-04-26T07:49:56Z</time></trkpt><trkpt lat="44.89838499865895" lon="9.90816211496203"><ele>105.0</ele><time>2026-04-26T07:49:57Z</time></trkpt><trkpt lat="44.898472302573474" lon="9.908186640238476"><ele>105.0</ele><time>2026-04-26T07:49:58Z</time></trkpt><trkpt lat="44.89855965785042" lon="9.908206205387874"><ele>105.0</ele><time>2026-04-26T07:49:59Z</time></trkpt><trkpt lat="44.898649783444824" lon="9.908221227078332"><ele>105.0</ele><time>2026-04-26T07:50:00Z</time></trkpt><trkpt lat="44.898739901139194" lon="9.908239004715405"><ele>105.0</ele><time>2026-04-26T07:50:01Z</time></trkpt><trkpt lat="44.898829204930564" lon="9.908256254229858"><ele>105.0</ele><time>2026-04-26T07:50:02Z</time></trkpt><trkpt lat="44.89891791622401" lon="9.90827427779296"><ele>105.0</ele><time>2026-04-26T07:50:03Z</time></trkpt><trkpt lat="44.89900577918348" lon="9.908293729307067"><ele>105.0</ele><time>2026-04-26T07:50:04Z</time></trkpt><trkpt lat="44.89909164752482" lon="9.908314436084732"><ele>105.0</ele><time>2026-04-26T07:50:05Z</time></trkpt><trkpt lat="44.89917804440049" lon="9.908330929163315"><ele>105.0</ele><time>2026-04-26T07:50:06Z</time></trkpt><trkpt lat="44.89926393304251" lon="9.908353838596028"><ele>105.0</ele><time>2026-04-26T07:50:07Z</time></trkpt><trkpt lat="44.8993514660737" lon="9.908373195148346"><ele>105.0</ele><time>2026-04-26T07:50:08Z</time></trkpt><trkpt lat="44.899440140085936" lon="9.908389497371672"><ele>105.0</ele><time>2026-04-26T07:50:09Z</time></trkpt><trkpt lat="44.89953057094447" lon="9.908407640819716"><ele>104.33333333333333</ele><time>2026-04-26T07:50:10Z</time></trkpt><trkpt lat="44.89961551094848" lon="9.908417523327719"><ele>103.66666666666666</ele><time>2026-04-26T07:50:11Z</time></trkpt><trkpt lat="44.89970580971169" lon="9.908425225121412"><ele>103.0</ele><time>2026-04-26T07:50:12Z</time></trkpt><trkpt lat="44.89979328089561" lon="9.908435085399512"><ele>102.33333333333333</ele><time>2026-04-26T07:50:13Z</time></trkpt><trkpt lat="44.89988071944097" lon="9.908446382572523"><ele>101.66666666666666</ele><time>2026-04-26T07:50:14Z</time></trkpt><trkpt lat="44.89996642150962" lon="9.908460185379539"><ele>101.0</ele><time>2026-04-26T07:50:15Z</time></trkpt><trkpt lat="44.90005104891187" lon="9.908472968098254"><ele>100.8</ele><time>2026-04-26T07:50:16Z</time></trkpt><trkpt lat="44.90013303903616" lon="9.908486092379786"><ele>100.6</ele><time>2026-04-26T07:50:17Z</time></trkpt><trkpt lat="44.90022341525514" lon="9.908491176537359"><ele>100.4</ele><time>2026-04-26T07:50:18Z</time></trkpt><trkpt lat="44.900316468929844" lon="9.908499427695512"><ele>100.2</ele><time>2026-04-26T07:50:19Z</time></trkpt><trkpt lat="44.900410558609664" lon="9.908507447700229"><ele>100.0</ele><time>2026-04-26T07:50:20Z</time></trkpt><trkpt lat="44.90050037651374" lon="9.908511600016352"><ele>100.00000000000001</ele><time>2026-04-26T07:50:21Z</time></trkpt><trkpt lat="44.90058957606804" lon="9.908508984249899"><ele>100.0</ele><time>2026-04-26T07:50:22Z</time></trkpt><trkpt lat="44.90067860096462" lon="9.90850347190715"><ele>100.0</ele><time>2026-04-26T07:50:23Z</time></trkpt><trkpt lat="44.90076711575182" lon="9.908504698832896"><ele>100.0</ele><time>2026-04-26T07:50:24Z</time></trkpt><trkpt lat="44.90085907707558" lon="9.908505957440802"><ele>100.00000000000001</ele><time>2026-04-26T07:50:25Z</time></trkpt><trkpt lat="44.90094927677003" lon="9.908506088006618"><ele>100.0</ele><time>2026-04-26T07:50:26Z</time></trkpt><trkpt lat="44.901037709871034" lon="9.908507527549471"><ele>100.00000000000001</ele><time>2026-04-26T07:50:27Z</time></trkpt><trkpt lat="44.90112681606157" lon="9.908508235560769"><ele>100.0</ele><time>2026-04-26T07:50:28Z</time></trkpt><trkpt lat="44.9012151376987" lon="9.908514181774757"><ele>100.0</ele><time>2026-04-26T07:50:29Z</time></trkpt><trkpt lat="44.90130414168361" lon="9.908527865226487"><ele>100.0</ele><time>2026-04-26T07:50:29.999Z</time></trkpt><trkpt lat="44.90139310815603" lon="9.908545079181343"><ele>100.00000000000001</ele><time>2026-04-26T07:50:30.999Z</time></trkpt><trkpt lat="44.90148235717929" lon="9.90856670817858"><ele>100.0</ele><time>2026-04-26T07:50:31.999Z</time></trkpt><trkpt lat="44.9015710125523" lon="9.908583665017458"><ele>100.0</ele><time>2026-04-26T07:50:32.999Z</time></trkpt><trkpt lat="44.90165950104465" lon="9.9086026581254"><ele>100.0</ele><time>2026-04-26T07:50:33.999Z</time></trkpt><trkpt lat="44.90175011953811" lon="9.908619293712098"><ele>100.0</ele><time>2026-04-26T07:50:34.999Z</time></trkpt><trkpt lat="44.90183936127103" lon="9.908635261379452"><ele>100.0</ele><time>2026-04-26T07:50:35.999Z</time></trkpt><trkpt lat="44.90192922030232" lon="9.908652251149437"><ele>100.0</ele><time>2026-04-26T07:50:36.999Z</time></trkpt><trkpt lat="44.902017483829546" lon="9.908667232716622"><ele>99.4</ele><time>2026-04-26T07:50:37.999Z</time></trkpt><trkpt lat="44.90210638311638" lon="9.90868487859636"><ele>98.8</ele><time>2026-04-26T07:50:38.999Z</time></trkpt><trkpt lat="44.902196932745966" lon="9.908706834085345"><ele>98.19999999999999</ele><time>2026-04-26T07:50:39.999Z</time></trkpt><trkpt lat="44.90228581445252" lon="9.908724172833226"><ele>97.6</ele><time>2026-04-26T07:50:40.999Z</time></trkpt><trkpt lat="44.90237533356641" lon="9.908738541154717"><ele>97.0</ele><time>2026-04-26T07:50:41.999Z</time></trkpt><trkpt lat="44.90246632652492" lon="9.908751234427745"><ele>97.0</ele><time>2026-04-26T07:50:42.999Z</time></trkpt><trkpt lat="44.90255614563386" lon="9.908765541692095"><ele>97.0</ele><time>2026-04-26T07:50:43.999Z</time></trkpt><trkpt lat="44.9026454840881" lon="9.908775964876275"><ele>97.0</ele><time>2026-04-26T07:50:44.999Z</time></trkpt><trkpt lat="44.902734100903466" lon="9.908782906547097"><ele>97.0</ele><time>2026-04-26T07:50:45.999Z</time></trkpt><trkpt lat="44.902823579607336" lon="9.908792367578496"><ele>97.0</ele><time>2026-04-26T07:50:46.999Z</time></trkpt><trkpt lat="44.902914116876936" lon="9.908810490835982"><ele>97.19999999999999</ele><time>2026-04-26T07:50:47.999Z</time></trkpt><trkpt lat="44.90300295996746" lon="9.908825084255191"><ele>97.4</ele><time>2026-04-26T07:50:48.999Z</time></trkpt><trkpt lat="44.90309468294873" lon="9.90883747854732"><ele>97.6</ele><time>2026-04-26T07:50:49.999Z</time></trkpt><trkpt lat="44.903188618440225" lon="9.90885014226935"><ele>97.80000000000001</ele><time>2026-04-26T07:50:50.999Z</time></trkpt><trkpt lat="44.90328225384167" lon="9.908862139449555"><ele>98.0</ele><time>2026-04-26T07:50:51.999Z</time></trkpt><trkpt lat="44.90337558780967" lon="9.908875348535918"><ele>97.80000000000001</ele><time>2026-04-26T07:50:52.999Z</time></trkpt><trkpt lat="44.903468745187716" lon="9.908889113159313"><ele>97.6</ele><time>2026-04-26T07:50:53.999Z</time></trkpt><trkpt lat="44.90356172947163" lon="9.908900320333512"><ele>97.4</ele><time>2026-04-26T07:50:54.999Z</time></trkpt><trkpt lat="44.90365490256575" lon="9.908918555463323"><ele>97.19999999999999</ele><time>2026-04-26T07:50:55.999Z</time></trkpt><trkpt lat="44.9037491470724" lon="9.908940020864474"><ele>97.0</ele><time>2026-04-26T07:50:56.999Z</time></trkpt><trkpt lat="44.903842520069084" lon="9.908960854991332"><ele>97.0</ele><time>2026-04-26T07:50:57.999Z</time></trkpt><trkpt lat="44.90393561163145" lon="9.908982324113737"><ele>97.0</ele><time>2026-04-26T07:50:58.999Z</time></trkpt><trkpt lat="44.90402754551684" lon="9.909006763720747"><ele>97.0</ele><time>2026-04-26T07:50:59.999Z</time></trkpt><trkpt lat="44.90411959318613" lon="9.909035700468602"><ele>97.0</ele><time>2026-04-26T07:51:00.999Z</time></trkpt><trkpt lat="44.904211883809836" lon="9.909062976206169"><ele>97.0</ele><time>2026-04-26T07:51:01.999Z</time></trkpt><trkpt lat="44.904302804772755" lon="9.909094994781888"><ele>96.6</ele><time>2026-04-26T07:51:02.999Z</time></trkpt><trkpt lat="44.904394240524965" lon="9.909128455544698"><ele>96.19999999999999</ele><time>2026-04-26T07:51:03.999Z</time></trkpt><trkpt lat="44.90448397278417" lon="9.909161549862032"><ele>95.8</ele><time>2026-04-26T07:51:04.999Z</time></trkpt><trkpt lat="44.904574612274146" lon="9.909198198549257"><ele>95.4</ele><time>2026-04-26T07:51:05.999Z</time></trkpt><trkpt lat="44.904663495180955" lon="9.909239125370433"><ele>95.0</ele><time>2026-04-26T07:51:06.999Z</time></trkpt><trkpt lat="44.90475205859076" lon="9.909280782104627"><ele>95.2</ele><time>2026-04-26T07:51:07.999Z</time></trkpt><trkpt lat="44.90483964142254" lon="9.909325299269724"><ele>95.4</ele><time>2026-04-26T07:51:08.999Z</time></trkpt><trkpt lat="44.90492518972145" lon="9.909372130878886"><ele>95.6</ele><time>2026-04-26T07:51:09.999Z</time></trkpt><trkpt lat="44.905008386541844" lon="9.909423870809633"><ele>95.8</ele><time>2026-04-26T07:51:10.999Z</time></trkpt><trkpt lat="44.90509870900993" lon="9.90945015764528"><ele>96.0</ele><time>2026-04-26T07:51:11.999Z</time></trkpt><trkpt lat="44.90518606643576" lon="9.909411931125781"><ele>96.0</ele><time>2026-04-26T07:51:12.999Z</time></trkpt><trkpt lat="44.90524954847525" lon="9.909300955909819"><ele>96.0</ele><time>2026-04-26T07:51:13.999Z</time></trkpt><trkpt lat="44.9052503291118" lon="9.909153949706253"><ele>96.0</ele><time>2026-04-26T07:51:14.999Z</time></trkpt><trkpt lat="44.90527511821702" lon="9.909020951681047"><ele>96.0</ele><time>2026-04-26T07:51:15.999Z</time></trkpt><trkpt lat="44.90529898216523" lon="9.908892917364026"><ele>96.0</ele><time>2026-04-26T07:51:16.999Z</time></trkpt><trkpt lat="44.9053220743815" lon="9.908769023436061"><ele>96.0</ele><time>2026-04-26T07:51:17.999Z</time></trkpt><trkpt lat="44.90535722257353" lon="9.908651560488082"><ele>96.0</ele><time>2026-04-26T07:51:18.999Z</time></trkpt><trkpt lat="44.90537604313095" lon="9.908531021880338"><ele>96.0</ele><time>2026-04-26T07:51:19.999Z</time></trkpt><trkpt lat="44.90539809576595" lon="9.908407465975149"><ele>96.0</ele><time>2026-04-26T07:51:20.999Z</time></trkpt><trkpt lat="44.905419321610665" lon="9.908285665018662"><ele>96.0</ele><time>2026-04-26T07:51:21.999Z</time></trkpt><trkpt lat="44.905441581991816" lon="9.908166349672529"><ele>96.0</ele><time>2026-04-26T07:51:22.998Z</time></trkpt><trkpt lat="44.90546413897334" lon="9.908047043696147"><ele>96.0</ele><time>2026-04-26T07:51:23.998Z</time></trkpt><trkpt lat="44.90548892568792" lon="9.907931666617477"><ele>96.0</ele><time>2026-04-26T07:51:24.998Z</time></trkpt><trkpt lat="44.90550893985357" lon="9.907819824273714"><ele>96.0</ele><time>2026-04-26T07:51:25.998Z</time></trkpt><trkpt lat="44.905524028401715" lon="9.907717425353889"><ele>96.0</ele><time>2026-04-26T07:51:26.998Z</time></trkpt><trkpt lat="44.90554298720556" lon="9.907621250345526"><ele>96.0</ele><time>2026-04-26T07:51:27.998Z</time></trkpt><trkpt lat="44.90556700235911" lon="9.907531861143564"><ele>96.0</ele><time>2026-04-26T07:51:28.998Z</time></trkpt><trkpt lat="44.9055778238238" lon="9.907428178670422"><ele>96.16666666666667</ele><time>2026-04-26T07:51:29.998Z</time></trkpt><trkpt lat="44.9056090451664" lon="9.907324105794101"><ele>96.33333333333334</ele><time>2026-04-26T07:51:30.998Z</time></trkpt><trkpt lat="44.90563899909935" lon="9.907219994294335"><ele>96.5</ele><time>2026-04-26T07:51:31.998Z</time></trkpt><trkpt lat="44.90566819819444" lon="9.907118546127244"><ele>96.66666666666667</ele><time>2026-04-26T07:51:32.998Z</time></trkpt><trkpt lat="44.90569759412719" lon="9.907019256487246"><ele>96.83333333333334</ele><time>2026-04-26T07:51:33.998Z</time></trkpt><trkpt lat="44.90572577460361" lon="9.906922005891408"><ele>97.0</ele><time>2026-04-26T07:51:34.998Z</time></trkpt><trkpt lat="44.90584241317696" lon="9.906866606306863"><ele>96.66666666666667</ele><time>2026-04-26T07:51:35.998Z</time></trkpt><trkpt lat="44.90593150129124" lon="9.906863462891065"><ele>96.33333333333334</ele><time>2026-04-26T07:51:37Z</time></trkpt><trkpt lat="44.90601367828713" lon="9.906884749704341"><ele>96.0</ele><time>2026-04-26T07:51:38Z</time></trkpt><trkpt lat="44.90609440453806" lon="9.906889955977338"><ele>95.66666666666667</ele><time>2026-04-26T07:51:39Z</time></trkpt><trkpt lat="44.90617989085622" lon="9.906925228469923"><ele>95.33333333333334</ele><time>2026-04-26T07:51:40Z</time></trkpt><trkpt lat="44.90625629141565" lon="9.906965488609766"><ele>95.0</ele><time>2026-04-26T07:51:41Z</time></trkpt><trkpt lat="44.906331109817614" lon="9.907005960586435"><ele>95.0</ele><time>2026-04-26T07:51:42Z</time></trkpt><trkpt lat="44.90640649884865" lon="9.907046561833152"><ele>95.0</ele><time>2026-04-26T07:51:43Z</time></trkpt><trkpt lat="44.90648514408709" lon="9.907087787781206"><ele>95.0</ele><time>2026-04-26T07:51:44Z</time></trkpt><trkpt lat="44.90656281436519" lon="9.907125830455767"><ele>95.0</ele><time>2026-04-26T07:51:45Z</time></trkpt><trkpt lat="44.9066441443311" lon="9.907165665573991"><ele>95.0</ele><time>2026-04-26T07:51:46Z</time></trkpt><trkpt lat="44.906726853978704" lon="9.907205417552662"><ele>95.0</ele><time>2026-04-26T07:51:47Z</time></trkpt><trkpt lat="44.90680850802128" lon="9.907244480509208"><ele>95.0</ele><time>2026-04-26T07:51:48Z</time></trkpt><trkpt lat="44.906890678271125" lon="9.907283790267421"><ele>95.0</ele><time>2026-04-26T07:51:49Z</time></trkpt><trkpt lat="44.906973217930805" lon="9.907321387606132"><ele>95.0</ele><time>2026-04-26T07:51:50Z</time></trkpt><trkpt lat="44.907057282490435" lon="9.90735406400972"><ele>95.0</ele><time>2026-04-26T07:51:51Z</time></trkpt><trkpt lat="44.9071364111795" lon="9.907426059920514"><ele>95.0</ele><time>2026-04-26T07:51:52Z</time></trkpt><trkpt lat="44.90722323240388" lon="9.907463252066826"><ele>95.0</ele><time>2026-04-26T07:51:53Z</time></trkpt><trkpt lat="44.90730989498722" lon="9.90750293371643"><ele>95.0</ele><time>2026-04-26T07:51:54Z</time></trkpt><trkpt lat="44.90739717818378" lon="9.907542671714191"><ele>95.0</ele><time>2026-04-26T07:51:55Z</time></trkpt><trkpt lat="44.907482461865506" lon="9.907583867382954"><ele>95.0</ele><time>2026-04-26T07:51:56Z</time></trkpt><trkpt lat="44.907566439147054" lon="9.907625940648655"><ele>95.0</ele><time>2026-04-26T07:51:57Z</time></trkpt><trkpt lat="44.90765102869736" lon="9.907666707464127"><ele>95.0</ele><time>2026-04-26T07:51:58Z</time></trkpt><trkpt lat="44.90773572903398" lon="9.907709394010402"><ele>94.6</ele><time>2026-04-26T07:51:59Z</time></trkpt><trkpt lat="44.90782001075875" lon="9.907751999978048"><ele>94.2</ele><time>2026-04-26T07:52:00Z</time></trkpt><trkpt lat="44.90790540232722" lon="9.907792144981821"><ele>93.80000000000001</ele><time>2026-04-26T07:52:01Z</time></trkpt><trkpt lat="44.90799132246487" lon="9.907834877882028"><ele>93.4</ele><time>2026-04-26T07:52:02Z</time></trkpt><trkpt lat="44.90807773175367" lon="9.90787935201349"><ele>93.0</ele><time>2026-04-26T07:52:03Z</time></trkpt><trkpt lat="44.908163827472855" lon="9.90792266289343"><ele>93.0</ele><time>2026-04-26T07:52:04Z</time></trkpt><trkpt lat="44.908249688319735" lon="9.907965830451202"><ele>93.0</ele><time>2026-04-26T07:52:05Z</time></trkpt><trkpt lat="44.90833459090182" lon="9.908008829284848"><ele>93.0</ele><time>2026-04-26T07:52:06Z</time></trkpt><trkpt lat="44.90841733275712" lon="9.908051198848716"><ele>93.0</ele><time>2026-04-26T07:52:07Z</time></trkpt><trkpt lat="44.90850296646259" lon="9.908093481059177"><ele>93.0</ele><time>2026-04-26T07:52:08Z</time></trkpt><trkpt lat="44.908586811058406" lon="9.908134297157318"><ele>93.0</ele><time>2026-04-26T07:52:09Z</time></trkpt><trkpt lat="44.90867228246056" lon="9.908175165243113"><ele>92.66666666666667</ele><time>2026-04-26T07:52:10Z</time></trkpt><trkpt lat="44.90875431644483" lon="9.908219505557033"><ele>92.33333333333333</ele><time>2026-04-26T07:52:11Z</time></trkpt><trkpt lat="44.90883715420245" lon="9.908262855283164"><ele>92.0</ele><time>2026-04-26T07:52:12Z</time></trkpt><trkpt lat="44.90892083366344" lon="9.908300522588274"><ele>91.66666666666666</ele><time>2026-04-26T07:52:13Z</time></trkpt><trkpt lat="44.909007769596414" lon="9.908338067806127"><ele>91.33333333333333</ele><time>2026-04-26T07:52:14Z</time></trkpt><trkpt lat="44.90909518829159" lon="9.908381683761249"><ele>91.0</ele><time>2026-04-26T07:52:15Z</time></trkpt><trkpt lat="44.90918072435234" lon="9.90842639757662"><ele>91.4</ele><time>2026-04-26T07:52:16Z</time></trkpt><trkpt lat="44.90926766001699" lon="9.908468708129794"><ele>91.8</ele><time>2026-04-26T07:52:17Z</time></trkpt><trkpt lat="44.90935447343414" lon="9.908512380437154"><ele>92.2</ele><time>2026-04-26T07:52:18Z</time></trkpt><trkpt lat="44.90943968192437" lon="9.908554069682012"><ele>92.60000000000001</ele><time>2026-04-26T07:52:19Z</time></trkpt><trkpt lat="44.909524646867105" lon="9.908598294786579"><ele>93.0</ele><time>2026-04-26T07:52:20Z</time></trkpt><trkpt lat="44.90960786248916" lon="9.90864120944978"><ele>93.0</ele><time>2026-04-26T07:52:21Z</time></trkpt><trkpt lat="44.909688187151495" lon="9.908692824511764"><ele>93.0</ele><time>2026-04-26T07:52:22Z</time></trkpt><trkpt lat="44.90977159993461" lon="9.908732778288416"><ele>93.0</ele><time>2026-04-26T07:52:23Z</time></trkpt><trkpt lat="44.90985379103082" lon="9.908776330911994"><ele>93.0</ele><time>2026-04-26T07:52:24Z</time></trkpt><trkpt lat="44.90993700134725" lon="9.908815930189066"><ele>93.0</ele><time>2026-04-26T07:52:25Z</time></trkpt><trkpt lat="44.91001960265849" lon="9.908858572762936"><ele>93.0</ele><time>2026-04-26T07:52:26Z</time></trkpt><trkpt lat="44.9101008848814" lon="9.908901856325672"><ele>93.0</ele><time>2026-04-26T07:52:27Z</time></trkpt><trkpt lat="44.910181599726904" lon="9.90894353091951"><ele>93.0</ele><time>2026-04-26T07:52:28Z</time></trkpt><trkpt lat="44.91026317319794" lon="9.908988075825437"><ele>93.0</ele><time>2026-04-26T07:52:29Z</time></trkpt><trkpt lat="44.91034373826365" lon="9.909029121918556"><ele>93.0</ele><time>2026-04-26T07:52:30Z</time></trkpt><trkpt lat="44.910424369137544" lon="9.909070890687474"><ele>93.0</ele><time>2026-04-26T07:52:31Z</time></trkpt><trkpt lat="44.91050289097399" lon="9.909114719706073"><ele>93.0</ele><time>2026-04-26T07:52:32Z</time></trkpt><trkpt lat="44.91057990542542" lon="9.909159598635965"><ele>93.0</ele><time>2026-04-26T07:52:32.999Z</time></trkpt><trkpt lat="44.910656717210045" lon="9.909199095044343"><ele>93.0</ele><time>2026-04-26T07:52:33.999Z</time></trkpt><trkpt lat="44.91073361731901" lon="9.90924299367397"><ele>93.0</ele><time>2026-04-26T07:52:34.999Z</time></trkpt><trkpt lat="44.9108101592034" lon="9.909281347788468"><ele>93.0</ele><time>2026-04-26T07:52:35.999Z</time></trkpt><trkpt lat="44.9108880849321" lon="9.909324398809618"><ele>93.0</ele><time>2026-04-26T07:52:36.999Z</time></trkpt><trkpt lat="44.91096524792507" lon="9.909366594502718"><ele>93.0</ele><time>2026-04-26T07:52:37.999Z</time></trkpt><trkpt lat="44.91104374500444" lon="9.90940718512181"><ele>92.33333333333333</ele><time>2026-04-26T07:52:38.999Z</time></trkpt><trkpt lat="44.911120040424116" lon="9.909448694682503"><ele>91.66666666666667</ele><time>2026-04-26T07:52:39.999Z</time></trkpt><trkpt lat="44.91120043775963" lon="9.90948866111399"><ele>91.0</ele><time>2026-04-26T07:52:40.999Z</time></trkpt><trkpt lat="44.91128040408841" lon="9.909531378431131"><ele>90.33333333333334</ele><time>2026-04-26T07:52:41.999Z</time></trkpt><trkpt lat="44.91136028553255" lon="9.909570509451516"><ele>89.66666666666667</ele><time>2026-04-26T07:52:42.999Z</time></trkpt><trkpt lat="44.91143843226252" lon="9.909612844513877"><ele>89.0</ele><time>2026-04-26T07:52:43.999Z</time></trkpt><trkpt lat="44.911515758285574" lon="9.909653092872617"><ele>89.0</ele><time>2026-04-26T07:52:44.999Z</time></trkpt><trkpt lat="44.91159689283129" lon="9.90968481115612"><ele>89.0</ele><time>2026-04-26T07:52:45.999Z</time></trkpt><trkpt lat="44.91168306770225" lon="9.909709598123445"><ele>89.0</ele><time>2026-04-26T07:52:46.999Z</time></trkpt><trkpt lat="44.9117742613424" lon="9.90973228033801"><ele>89.0</ele><time>2026-04-26T07:52:47.999Z</time></trkpt><trkpt lat="44.911866822625186" lon="9.9097512438974"><ele>89.0</ele><time>2026-04-26T07:52:48.999Z</time></trkpt><trkpt lat="44.911961308639455" lon="9.909761412218907"><ele>89.2</ele><time>2026-04-26T07:52:49.999Z</time></trkpt><trkpt lat="44.912058803967284" lon="9.909768713688637"><ele>89.4</ele><time>2026-04-26T07:52:50.999Z</time></trkpt><trkpt lat="44.91215565713166" lon="9.909770079697235"><ele>89.6</ele><time>2026-04-26T07:52:51.999Z</time></trkpt><trkpt lat="44.9122551392445" lon="9.909764508143548"><ele>89.8</ele><time>2026-04-26T07:52:52.999Z</time></trkpt><trkpt lat="44.91235617240949" lon="9.909754711589102"><ele>90.0</ele><time>2026-04-26T07:52:53.999Z</time></trkpt><trkpt lat="44.91245996545994" lon="9.909740914094943"><ele>90.0</ele><time>2026-04-26T07:52:54.999Z</time></trkpt><trkpt lat="44.91257125557803" lon="9.909727142229242"><ele>90.0</ele><time>2026-04-26T07:52:55.999Z</time></trkpt><trkpt lat="44.91268177019347" lon="9.909714186311998"><ele>90.0</ele><time>2026-04-26T07:52:56.999Z</time></trkpt><trkpt lat="44.91279171493475" lon="9.909701990293199"><ele>90.0</ele><time>2026-04-26T07:52:57.999Z</time></trkpt><trkpt lat="44.912900726106045" lon="9.909687471171067"><ele>90.0</ele><time>2026-04-26T07:52:58.999Z</time></trkpt><trkpt lat="44.91300885604212" lon="9.909670469794003"><ele>89.8</ele><time>2026-04-26T07:52:59.999Z</time></trkpt><trkpt lat="44.913113775291414" lon="9.909655259861351"><ele>89.6</ele><time>2026-04-26T07:53:00.999Z</time></trkpt><trkpt lat="44.91321995279192" lon="9.909642396666618"><ele>89.4</ele><time>2026-04-26T07:53:01.999Z</time></trkpt><trkpt lat="44.91332295472626" lon="9.90963186912255"><ele>89.2</ele><time>2026-04-26T07:53:02.999Z</time></trkpt><trkpt lat="44.9134275628601" lon="9.90962187171245"><ele>89.0</ele><time>2026-04-26T07:53:03.999Z</time></trkpt><trkpt lat="44.9135296581594" lon="9.90960565579699"><ele>89.0</ele><time>2026-04-26T07:53:04.999Z</time></trkpt><trkpt lat="44.91363130283074" lon="9.909589143492642"><ele>89.0</ele><time>2026-04-26T07:53:05.999Z</time></trkpt><trkpt lat="44.9137337482545" lon="9.909578700802708"><ele>89.0</ele><time>2026-04-26T07:53:06.999Z</time></trkpt><trkpt lat="44.913835319922825" lon="9.909565530508571"><ele>89.0</ele><time>2026-04-26T07:53:07.999Z</time></trkpt><trkpt lat="44.91393668095685" lon="9.909554332853284"><ele>89.0</ele><time>2026-04-26T07:53:08.999Z</time></trkpt><trkpt lat="44.914038878264655" lon="9.9095436585463"><ele>89.0</ele><time>2026-04-26T07:53:09.999Z</time></trkpt><trkpt lat="44.9141405412958" lon="9.909535775812643"><ele>89.0</ele><time>2026-04-26T07:53:10.999Z</time></trkpt><trkpt lat="44.9142432504227" lon="9.909526009874993"><ele>89.0</ele><time>2026-04-26T07:53:11.999Z</time></trkpt><trkpt lat="44.91434535175565" lon="9.909516080971526"><ele>89.0</ele><time>2026-04-26T07:53:12.999Z</time></trkpt><trkpt lat="44.914445845652764" lon="9.909503770795604"><ele>89.0</ele><time>2026-04-26T07:53:13.999Z</time></trkpt><trkpt lat="44.91454518644662" lon="9.909496144208559"><ele>88.80000000000001</ele><time>2026-04-26T07:53:14.999Z</time></trkpt><trkpt lat="44.914644525656236" lon="9.909484947420559"><ele>88.60000000000001</ele><time>2026-04-26T07:53:15.999Z</time></trkpt><trkpt lat="44.91474182366415" lon="9.909475915613664"><ele>88.4</ele><time>2026-04-26T07:53:16.999Z</time></trkpt><trkpt lat="44.91483955040867" lon="9.909461835914302"><ele>88.2</ele><time>2026-04-26T07:53:17.999Z</time></trkpt><trkpt lat="44.91493559517803" lon="9.909451374989645"><ele>88.0</ele><time>2026-04-26T07:53:18.999Z</time></trkpt><trkpt lat="44.91502962782386" lon="9.90944596114037"><ele>87.2</ele><time>2026-04-26T07:53:19.999Z</time></trkpt><trkpt lat="44.915125662781186" lon="9.909456158294402"><ele>86.4</ele><time>2026-04-26T07:53:20.999Z</time></trkpt><trkpt lat="44.91522941099942" lon="9.909428307248081"><ele>85.60000000000001</ele><time>2026-04-26T07:53:21.999Z</time></trkpt><trkpt lat="44.915313726012606" lon="9.909475805720884"><ele>84.80000000000001</ele><time>2026-04-26T07:53:22.999Z</time></trkpt><trkpt lat="44.9153959503355" lon="9.90949920360449"><ele>84.0</ele><time>2026-04-26T07:53:23.999Z</time></trkpt><trkpt lat="44.91548026134467" lon="9.909505426251167"><ele>84.0</ele><time>2026-04-26T07:53:24.999Z</time></trkpt><trkpt lat="44.91555459579958" lon="9.909590933778224"><ele>84.0</ele><time>2026-04-26T07:53:25.998Z</time></trkpt><trkpt lat="44.91564815132246" lon="9.90958232938521"><ele>84.0</ele><time>2026-04-26T07:53:26.998Z</time></trkpt><trkpt lat="44.91572861826083" lon="9.909499694588938"><ele>84.0</ele><time>2026-04-26T07:53:27.998Z</time></trkpt><trkpt lat="44.91581579948328" lon="9.909465596670106"><ele>84.0</ele><time>2026-04-26T07:53:28.998Z</time></trkpt><trkpt lat="44.915899253330984" lon="9.9094187777054"><ele>84.6</ele><time>2026-04-26T07:53:29.998Z</time></trkpt><trkpt lat="44.91598081833576" lon="9.909364943797897"><ele>85.2</ele><time>2026-04-26T07:53:30.998Z</time></trkpt><trkpt lat="44.916097229076165" lon="9.909410032458187"><ele>85.8</ele><time>2026-04-26T07:53:31.998Z</time></trkpt><trkpt lat="44.91618921930981" lon="9.909382754783612"><ele>86.39999999999999</ele><time>2026-04-26T07:53:32.998Z</time></trkpt><trkpt lat="44.916282147567614" lon="9.909352528181984"><ele>87.0</ele><time>2026-04-26T07:53:33.998Z</time></trkpt><trkpt lat="44.916371114190724" lon="9.909322938644868"><ele>87.0</ele><time>2026-04-26T07:53:34.998Z</time></trkpt><trkpt lat="44.91645964706351" lon="9.909294230599286"><ele>87.0</ele><time>2026-04-26T07:53:35.998Z</time></trkpt><trkpt lat="44.916553283951174" lon="9.909276864631497"><ele>87.0</ele><time>2026-04-26T07:53:36.998Z</time></trkpt><trkpt lat="44.916648650153" lon="9.909268339407246"><ele>87.0</ele><time>2026-04-26T07:53:37.998Z</time></trkpt><trkpt lat="44.916743547548705" lon="9.90925350780711"><ele>87.0</ele><time>2026-04-26T07:53:38.998Z</time></trkpt><trkpt lat="44.91683580513783" lon="9.909230210705388"><ele>87.19999999999999</ele><time>2026-04-26T07:53:39.998Z</time></trkpt><trkpt lat="44.916931472710516" lon="9.909208329770633"><ele>87.4</ele><time>2026-04-26T07:53:40.998Z</time></trkpt><trkpt lat="44.91702474831871" lon="9.909195362402922"><ele>87.6</ele><time>2026-04-26T07:53:41.998Z</time></trkpt><trkpt lat="44.917122438962075" lon="9.909186611140498"><ele>87.80000000000001</ele><time>2026-04-26T07:53:43Z</time></trkpt><trkpt lat="44.91721793076077" lon="9.909174189976444"><ele>88.0</ele><time>2026-04-26T07:53:44Z</time></trkpt><trkpt lat="44.91731367515426" lon="9.909164442681194"><ele>88.0</ele><time>2026-04-26T07:53:45Z</time></trkpt><trkpt lat="44.91741083690225" lon="9.90915576826293"><ele>88.0</ele><time>2026-04-26T07:53:46Z</time></trkpt><trkpt lat="44.91750664136714" lon="9.909151470026947"><ele>88.0</ele><time>2026-04-26T07:53:47Z</time></trkpt><trkpt lat="44.917603559490345" lon="9.909146466559573"><ele>88.0</ele><time>2026-04-26T07:53:48Z</time></trkpt><trkpt lat="44.91770070262088" lon="9.909143786258928"><ele>88.0</ele><time>2026-04-26T07:53:49Z</time></trkpt><trkpt lat="44.91779504079064" lon="9.909147828925692"><ele>87.4</ele><time>2026-04-26T07:53:50Z</time></trkpt><trkpt lat="44.91788975253559" lon="9.909154404004461"><ele>86.80000000000001</ele><time>2026-04-26T07:53:51Z</time></trkpt><trkpt lat="44.91798345721786" lon="9.909159834565395"><ele>86.2</ele><time>2026-04-26T07:53:52Z</time></trkpt><trkpt lat="44.918079513085715" lon="9.909166230814268"><ele>85.6</ele><time>2026-04-26T07:53:53Z</time></trkpt><trkpt lat="44.91817471240691" lon="9.909172173698575"><ele>85.0</ele><time>2026-04-26T07:53:54Z</time></trkpt><trkpt lat="44.91826989823239" lon="9.909181727083922"><ele>85.0</ele><time>2026-04-26T07:53:55Z</time></trkpt><trkpt lat="44.91836539794539" lon="9.909188800374347"><ele>85.0</ele><time>2026-04-26T07:53:56Z</time></trkpt><trkpt lat="44.91846155658131" lon="9.90919104150281"><ele>85.0</ele><time>2026-04-26T07:53:57Z</time></trkpt><trkpt lat="44.918558222449235" lon="9.909191698358153"><ele>85.0</ele><time>2026-04-26T07:53:58Z</time></trkpt><trkpt lat="44.91865308355816" lon="9.909190285232308"><ele>85.0</ele><time>2026-04-26T07:53:59Z</time></trkpt><trkpt lat="44.91874566626778" lon="9.909190562384378"><ele>85.2</ele><time>2026-04-26T07:54:00Z</time></trkpt><trkpt lat="44.918840869524196" lon="9.909186113615863"><ele>85.4</ele><time>2026-04-26T07:54:01Z</time></trkpt><trkpt lat="44.91893444112832" lon="9.909183823428899"><ele>85.6</ele><time>2026-04-26T07:54:02Z</time></trkpt><trkpt lat="44.919026309608306" lon="9.909174619015081"><ele>85.8</ele><time>2026-04-26T07:54:03Z</time></trkpt><trkpt lat="44.91911933573606" lon="9.909161331894824"><ele>86.0</ele><time>2026-04-26T07:54:04Z</time></trkpt><trkpt lat="44.9192113141954" lon="9.909150441605183"><ele>86.0</ele><time>2026-04-26T07:54:05Z</time></trkpt><trkpt lat="44.91930701718876" lon="9.90913982252017"><ele>86.0</ele><time>2026-04-26T07:54:06Z</time></trkpt><trkpt lat="44.91939702668574" lon="9.90912118838332"><ele>86.0</ele><time>2026-04-26T07:54:07Z</time></trkpt><trkpt lat="44.91948977233505" lon="9.909101047530038"><ele>86.0</ele><time>2026-04-26T07:54:08Z</time></trkpt><trkpt lat="44.919582822511614" lon="9.909082897534784"><ele>86.0</ele><time>2026-04-26T07:54:09Z</time></trkpt><trkpt lat="44.91967400619793" lon="9.909065028907124"><ele>86.0</ele><time>2026-04-26T07:54:10Z</time></trkpt><trkpt lat="44.919766148743676" lon="9.909048057956936"><ele>86.0</ele><time>2026-04-26T07:54:11Z</time></trkpt><trkpt lat="44.9198575750219" lon="9.90903523589916"><ele>86.0</ele><time>2026-04-26T07:54:12Z</time></trkpt><trkpt lat="44.91994569205098" lon="9.90901019303668"><ele>86.0</ele><time>2026-04-26T07:54:13Z</time></trkpt><trkpt lat="44.92004090011195" lon="9.90899485747867"><ele>86.0</ele><time>2026-04-26T07:54:14Z</time></trkpt><trkpt lat="44.92013347891076" lon="9.908983970595573"><ele>86.0</ele><time>2026-04-26T07:54:15Z</time></trkpt><trkpt lat="44.920227905990856" lon="9.90897250172799"><ele>86.0</ele><time>2026-04-26T07:54:16Z</time></trkpt><trkpt lat="44.92032309665446" lon="9.908959799535014"><ele>86.0</ele><time>2026-04-26T07:54:17Z</time></trkpt><trkpt lat="44.92041818414072" lon="9.908950102384937"><ele>86.0</ele><time>2026-04-26T07:54:18Z</time></trkpt><trkpt lat="44.920512685097925" lon="9.908947285524823"><ele>86.0</ele><time>2026-04-26T07:54:19Z</time></trkpt><trkpt lat="44.920606597060264" lon="9.90895572279854"><ele>86.0</ele><time>2026-04-26T07:54:20Z</time></trkpt><trkpt lat="44.920703006716366" lon="9.90897030085002"><ele>86.0</ele><time>2026-04-26T07:54:21Z</time></trkpt><trkpt lat="44.9207981801389" lon="9.908991993358732"><ele>86.0</ele><time>2026-04-26T07:54:22Z</time></trkpt><trkpt lat="44.920890154613886" lon="9.909022330145083"><ele>86.0</ele><time>2026-04-26T07:54:23Z</time></trkpt><trkpt lat="44.92098257079933" lon="9.909057419768105"><ele>86.0</ele><time>2026-04-26T07:54:24Z</time></trkpt><trkpt lat="44.921076319693306" lon="9.90909615994822"><ele>86.19999999999999</ele><time>2026-04-26T07:54:25Z</time></trkpt><trkpt lat="44.92116613556327" lon="9.909137008543887"><ele>86.39999999999999</ele><time>2026-04-26T07:54:26Z</time></trkpt><trkpt lat="44.92125174929427" lon="9.909177226235913"><ele>86.6</ele><time>2026-04-26T07:54:27Z</time></trkpt><trkpt lat="44.92133511087311" lon="9.909219111504738"><ele>86.8</ele><time>2026-04-26T07:54:28Z</time></trkpt><trkpt lat="44.92142263611424" lon="9.909260264307795"><ele>87.0</ele><time>2026-04-26T07:54:29Z</time></trkpt><trkpt lat="44.92150772484519" lon="9.909303688901032"><ele>86.39999999999999</ele><time>2026-04-26T07:54:30Z</time></trkpt><trkpt lat="44.92159308833873" lon="9.90934836130568"><ele>85.8</ele><time>2026-04-26T07:54:31Z</time></trkpt><trkpt lat="44.92168126514793" lon="9.909391109355033"><ele>85.2</ele><time>2026-04-26T07:54:32Z</time></trkpt><trkpt lat="44.92177527621166" lon="9.909430474753535"><ele>84.6</ele><time>2026-04-26T07:54:33Z</time></trkpt><trkpt lat="44.921863246990156" lon="9.909472802297302"><ele>84.0</ele><time>2026-04-26T07:54:34Z</time></trkpt><trkpt lat="44.92194719512436" lon="9.909511455310241"><ele>84.0</ele><time>2026-04-26T07:54:35Z</time></trkpt><trkpt lat="44.92202949730717" lon="9.909547066225633"><ele>84.0</ele><time>2026-04-26T07:54:36Z</time></trkpt><trkpt lat="44.92210899464297" lon="9.90958494596792"><ele>84.0</ele><time>2026-04-26T07:54:37Z</time></trkpt><trkpt lat="44.922186860230106" lon="9.909621731411063"><ele>84.0</ele><time>2026-04-26T07:54:37.999Z</time></trkpt><trkpt lat="44.92225701950645" lon="9.909660540756043"><ele>84.0</ele><time>2026-04-26T07:54:38.999Z</time></trkpt><trkpt lat="44.922326106713264" lon="9.909709770320783"><ele>84.0</ele><time>2026-04-26T07:54:39.999Z</time></trkpt><trkpt lat="44.92239190877749" lon="9.909767816329033"><ele>84.0</ele><time>2026-04-26T07:54:40.999Z</time></trkpt><trkpt lat="44.922462171180065" lon="9.909818831861235"><ele>84.0</ele><time>2026-04-26T07:54:41.999Z</time></trkpt><trkpt lat="44.92254902503677" lon="9.909852628196859"><ele>84.0</ele><time>2026-04-26T07:54:42.999Z</time></trkpt><trkpt lat="44.92263511110666" lon="9.90984994007195"><ele>84.0</ele><time>2026-04-26T07:54:43.999Z</time></trkpt><trkpt lat="44.92271801347734" lon="9.909882657063282"><ele>84.0</ele><time>2026-04-26T07:54:44.999Z</time></trkpt><trkpt lat="44.92280215325383" lon="9.909920517661474"><ele>84.0</ele><time>2026-04-26T07:54:45.999Z</time></trkpt><trkpt lat="44.92288660811951" lon="9.909958900140843"><ele>84.0</ele><time>2026-04-26T07:54:46.999Z</time></trkpt><trkpt lat="44.92297132147367" lon="9.909998338968256"><ele>84.0</ele><time>2026-04-26T07:54:47.999Z</time></trkpt><trkpt lat="44.92305931608524" lon="9.910036949329962"><ele>84.0</ele><time>2026-04-26T07:54:48.999Z</time></trkpt><trkpt lat="44.9231448483776" lon="9.910077429116367"><ele>84.0</ele><time>2026-04-26T07:54:49.999Z</time></trkpt><trkpt lat="44.923231271082976" lon="9.910113021991002"><ele>84.0</ele><time>2026-04-26T07:54:50.999Z</time></trkpt><trkpt lat="44.92331654748515" lon="9.9101551537778"><ele>84.2</ele><time>2026-04-26T07:54:51.999Z</time></trkpt><trkpt lat="44.923401211624494" lon="9.910195714828367"><ele>84.4</ele><time>2026-04-26T07:54:52.999Z</time></trkpt><trkpt lat="44.92348838323163" lon="9.910233047973522"><ele>84.6</ele><time>2026-04-26T07:54:53.999Z</time></trkpt><trkpt lat="44.92357430292564" lon="9.910270145709536"><ele>84.8</ele><time>2026-04-26T07:54:54.999Z</time></trkpt><trkpt lat="44.923661271807894" lon="9.91030598073435"><ele>85.0</ele><time>2026-04-26T07:54:55.999Z</time></trkpt><trkpt lat="44.9237459912894" lon="9.910349403395822"><ele>85.0</ele><time>2026-04-26T07:54:56.999Z</time></trkpt><trkpt lat="44.92383174027264" lon="9.91039190602569"><ele>85.0</ele><time>2026-04-26T07:54:57.999Z</time></trkpt><trkpt lat="44.923916551817" lon="9.910428629280757"><ele>85.0</ele><time>2026-04-26T07:54:58.999Z</time></trkpt><trkpt lat="44.92400234091086" lon="9.910463462474716"><ele>85.0</ele><time>2026-04-26T07:54:59.999Z</time></trkpt><trkpt lat="44.92408218049358" lon="9.910504328453651"><ele>85.0</ele><time>2026-04-26T07:55:00.999Z</time></trkpt><trkpt lat="44.924163563970716" lon="9.91054372322587"><ele>85.0</ele><time>2026-04-26T07:55:01.999Z</time></trkpt><trkpt lat="44.924245771630446" lon="9.91058041962564"><ele>84.83333333333333</ele><time>2026-04-26T07:55:02.999Z</time></trkpt><trkpt lat="44.924321231532375" lon="9.910614854835806"><ele>84.66666666666666</ele><time>2026-04-26T07:55:03.999Z</time></trkpt><trkpt lat="44.92440475052137" lon="9.91065400735161"><ele>84.5</ele><time>2026-04-26T07:55:04.999Z</time></trkpt><trkpt lat="44.92448370374013" lon="9.910694878257218"><ele>84.33333333333333</ele><time>2026-04-26T07:55:05.999Z</time></trkpt><trkpt lat="44.92456532589473" lon="9.91072674312043"><ele>84.16666666666667</ele><time>2026-04-26T07:55:06.999Z</time></trkpt><trkpt lat="44.924648372235126" lon="9.910765009233804"><ele>84.0</ele><time>2026-04-26T07:55:07.999Z</time></trkpt><trkpt lat="44.924729003985405" lon="9.910795962383734"><ele>84.0</ele><time>2026-04-26T07:55:08.999Z</time></trkpt><trkpt lat="44.92481436924961" lon="9.910836365300604"><ele>84.0</ele><time>2026-04-26T07:55:09.999Z</time></trkpt><trkpt lat="44.92489420996304" lon="9.910851261633805"><ele>84.0</ele><time>2026-04-26T07:55:10.999Z</time></trkpt><trkpt lat="44.924976796990386" lon="9.910888796477376"><ele>84.0</ele><time>2026-04-26T07:55:11.999Z</time></trkpt><trkpt lat="44.92505680083808" lon="9.910942412494594"><ele>84.0</ele><time>2026-04-26T07:55:12.999Z</time></trkpt><trkpt lat="44.925135080293174" lon="9.910976910699546"><ele>84.0</ele><time>2026-04-26T07:55:13.999Z</time></trkpt><trkpt lat="44.92521096062143" lon="9.911015351071336"><ele>83.83333333333333</ele><time>2026-04-26T07:55:14.999Z</time></trkpt><trkpt lat="44.92529064188283" lon="9.911053738502066"><ele>83.66666666666667</ele><time>2026-04-26T07:55:15.999Z</time></trkpt><trkpt lat="44.92536361644991" lon="9.911097732283"><ele>83.5</ele><time>2026-04-26T07:55:16.999Z</time></trkpt><trkpt lat="44.92543668751777" lon="9.91113547587019"><ele>83.33333333333334</ele><time>2026-04-26T07:55:17.999Z</time></trkpt><trkpt lat="44.925507045687695" lon="9.911178358924237"><ele>83.16666666666667</ele><time>2026-04-26T07:55:18.999Z</time></trkpt><trkpt lat="44.92557453209634" lon="9.911221059993093"><ele>83.0</ele><time>2026-04-26T07:55:19.999Z</time></trkpt><trkpt lat="44.92562179195822" lon="9.911293293700012"><ele>83.0</ele><time>2026-04-26T07:55:20.999Z</time></trkpt><trkpt lat="44.92567029738839" lon="9.911367109539974"><ele>83.0</ele><time>2026-04-26T07:55:21.999Z</time></trkpt><trkpt lat="44.925724989332075" lon="9.9114296594071"><ele>83.0</ele><time>2026-04-26T07:55:22.999Z</time></trkpt><trkpt lat="44.925849209270126" lon="9.9114044076095"><ele>83.0</ele><time>2026-04-26T07:55:24.999Z</time></trkpt><trkpt lat="44.925899215219324" lon="9.911318455703773"><ele>83.0</ele><time>2026-04-26T07:55:25.999Z</time></trkpt><trkpt lat="44.92593663261583" lon="9.911217783190766"><ele>83.0</ele><time>2026-04-26T07:55:26.999Z</time></trkpt><trkpt lat="44.92597717064714" lon="9.91112438388643"><ele>83.16666666666667</ele><time>2026-04-26T07:55:27.999Z</time></trkpt><trkpt lat="44.926020440961274" lon="9.911031199280837"><ele>83.33333333333334</ele><time>2026-04-26T07:55:28.999Z</time></trkpt><trkpt lat="44.92606743806964" lon="9.910940956641785"><ele>83.5</ele><time>2026-04-26T07:55:29.999Z</time></trkpt><trkpt lat="44.92611372015288" lon="9.910844272563661"><ele>83.66666666666667</ele><time>2026-04-26T07:55:30.998Z</time></trkpt><trkpt lat="44.92615853491861" lon="9.910752197877773"><ele>83.83333333333333</ele><time>2026-04-26T07:55:31.998Z</time></trkpt><trkpt lat="44.92620198765365" lon="9.910657154996015"><ele>84.0</ele><time>2026-04-26T07:55:32.998Z</time></trkpt><trkpt lat="44.92625235477125" lon="9.910563937437384"><ele>84.0</ele><time>2026-04-26T07:55:33.998Z</time></trkpt><trkpt lat="44.92629758105022" lon="9.910469766628072"><ele>84.0</ele><time>2026-04-26T07:55:34.998Z</time></trkpt><trkpt lat="44.926349239410555" lon="9.910373901223604"><ele>84.0</ele><time>2026-04-26T07:55:35.998Z</time></trkpt><trkpt lat="44.926400509157055" lon="9.910278919003927"><ele>84.0</ele><time>2026-04-26T07:55:36.998Z</time></trkpt><trkpt lat="44.926447870303036" lon="9.910179725507115"><ele>84.0</ele><time>2026-04-26T07:55:37.998Z</time></trkpt><trkpt lat="44.92649791746947" lon="9.91008095269669"><ele>84.0</ele><time>2026-04-26T07:55:38.998Z</time></trkpt><trkpt lat="44.92654713966324" lon="9.909984182845216"><ele>83.83333333333333</ele><time>2026-04-26T07:55:39.998Z</time></trkpt><trkpt lat="44.92659892518527" lon="9.909890267403465"><ele>83.66666666666667</ele><time>2026-04-26T07:55:40.998Z</time></trkpt><trkpt lat="44.926648155742804" lon="9.909793763109802"><ele>83.5</ele><time>2026-04-26T07:55:41.998Z</time></trkpt><trkpt lat="44.926698781325626" lon="9.909700126586742"><ele>83.33333333333334</ele><time>2026-04-26T07:55:42.998Z</time></trkpt><trkpt lat="44.92674370432789" lon="9.909598708512734"><ele>83.16666666666667</ele><time>2026-04-26T07:55:43.998Z</time></trkpt><trkpt lat="44.926790764375156" lon="9.909501894192314"><ele>83.0</ele><time>2026-04-26T07:55:44.998Z</time></trkpt><trkpt lat="44.926841226644314" lon="9.909406166238341"><ele>83.16666666666667</ele><time>2026-04-26T07:55:45.998Z</time></trkpt><trkpt lat="44.92689097535146" lon="9.909308275492053"><ele>83.33333333333334</ele><time>2026-04-26T07:55:46.998Z</time></trkpt><trkpt lat="44.926944064027545" lon="9.909212582513856"><ele>83.5</ele><time>2026-04-26T07:55:47.998Z</time></trkpt><trkpt lat="44.92699373807342" lon="9.909114331979449"><ele>83.66666666666667</ele><time>2026-04-26T07:55:49Z</time></trkpt><trkpt lat="44.9270454349287" lon="9.909018454914742"><ele>83.83333333333333</ele><time>2026-04-26T07:55:50Z</time></trkpt><trkpt lat="44.92709814834992" lon="9.908923519228717"><ele>84.0</ele><time>2026-04-26T07:55:51Z</time></trkpt><trkpt lat="44.92714740936276" lon="9.908826531202434"><ele>84.0</ele><time>2026-04-26T07:55:52Z</time></trkpt><trkpt lat="44.927198999660824" lon="9.908729947379989"><ele>84.0</ele><time>2026-04-26T07:55:53Z</time></trkpt><trkpt lat="44.927250913502185" lon="9.908633616322716"><ele>84.0</ele><time>2026-04-26T07:55:54Z</time></trkpt><trkpt lat="44.92730178166336" lon="9.908540654005277"><ele>84.0</ele><time>2026-04-26T07:55:55Z</time></trkpt><trkpt lat="44.9273522710125" lon="9.9084438774167"><ele>84.0</ele><time>2026-04-26T07:55:56Z</time></trkpt><trkpt lat="44.92740720875035" lon="9.908351119532067"><ele>84.0</ele><time>2026-04-26T07:55:57Z</time></trkpt><trkpt lat="44.927459018960064" lon="9.90825382402435"><ele>84.0</ele><time>2026-04-26T07:55:58Z</time></trkpt><trkpt lat="44.92751297498959" lon="9.908162960500317"><ele>84.0</ele><time>2026-04-26T07:55:59Z</time></trkpt><trkpt lat="44.92756522962682" lon="9.908066149164663"><ele>84.0</ele><time>2026-04-26T07:56:00Z</time></trkpt><trkpt lat="44.92761763206557" lon="9.907974392745773"><ele>84.0</ele><time>2026-04-26T07:56:01Z</time></trkpt><trkpt lat="44.9276664690983" lon="9.907876098662776"><ele>84.0</ele><time>2026-04-26T07:56:02Z</time></trkpt><trkpt lat="44.92771756903638" lon="9.907779629196568"><ele>84.0</ele><time>2026-04-26T07:56:03Z</time></trkpt><trkpt lat="44.927766753930094" lon="9.907682625932662"><ele>83.83333333333333</ele><time>2026-04-26T07:56:04Z</time></trkpt><trkpt lat="44.927816349206815" lon="9.907584204506708"><ele>83.66666666666667</ele><time>2026-04-26T07:56:05Z</time></trkpt><trkpt lat="44.92786815566749" lon="9.907487005114389"><ele>83.5</ele><time>2026-04-26T07:56:06Z</time></trkpt><trkpt lat="44.92791775027576" lon="9.90738935814559"><ele>83.33333333333334</ele><time>2026-04-26T07:56:07Z</time></trkpt><trkpt lat="44.92796998594228" lon="9.907291953795124"><ele>83.16666666666667</ele><time>2026-04-26T07:56:08Z</time></trkpt><trkpt lat="44.92801875524069" lon="9.907195480147239"><ele>83.0</ele><time>2026-04-26T07:56:09Z</time></trkpt><trkpt lat="44.928071798617005" lon="9.907102837629825"><ele>83.16666666666667</ele><time>2026-04-26T07:56:10Z</time></trkpt><trkpt lat="44.928121503951324" lon="9.907009905685674"><ele>83.33333333333334</ele><time>2026-04-26T07:56:11Z</time></trkpt><trkpt lat="44.928167892497335" lon="9.906912484375383"><ele>83.5</ele><time>2026-04-26T07:56:12Z</time></trkpt><trkpt lat="44.92821698226389" lon="9.906818933211223"><ele>83.66666666666667</ele><time>2026-04-26T07:56:13Z</time></trkpt><trkpt lat="44.928268998242764" lon="9.906728763901567"><ele>83.83333333333333</ele><time>2026-04-26T07:56:14Z</time></trkpt><trkpt lat="44.9283246703197" lon="9.906642963643616"><ele>84.0</ele><time>2026-04-26T07:56:15Z</time></trkpt><trkpt lat="44.92838858151371" lon="9.906561370279407"><ele>83.5</ele><time>2026-04-26T07:56:16Z</time></trkpt><trkpt lat="44.92846013034238" lon="9.906494747391703"><ele>83.0</ele><time>2026-04-26T07:56:17Z</time></trkpt><trkpt lat="44.9285487354457" lon="9.906460773281086"><ele>82.5</ele><time>2026-04-26T07:56:18Z</time></trkpt><trkpt lat="44.92863932550192" lon="9.906451320331081"><ele>82.0</ele><time>2026-04-26T07:56:19Z</time></trkpt><trkpt lat="44.928728256540694" lon="9.906472408681706"><ele>81.5</ele><time>2026-04-26T07:56:20Z</time></trkpt><trkpt lat="44.9288121936049" lon="9.906517013140707"><ele>81.0</ele><time>2026-04-26T07:56:21Z</time></trkpt><trkpt lat="44.92889132708093" lon="9.906572138018667"><ele>81.0</ele><time>2026-04-26T07:56:22Z</time></trkpt><trkpt lat="44.928960460884085" lon="9.906640213710842"><ele>81.0</ele><time>2026-04-26T07:56:23Z</time></trkpt><trkpt lat="44.92903023309341" lon="9.906715789928434"><ele>81.0</ele><time>2026-04-26T07:56:24Z</time></trkpt><trkpt lat="44.92909664342105" lon="9.906786779611398"><ele>81.0</ele><time>2026-04-26T07:56:25Z</time></trkpt><trkpt lat="44.929171215221295" lon="9.906856547971268"><ele>81.0</ele><time>2026-04-26T07:56:26Z</time></trkpt><trkpt lat="44.92924405253294" lon="9.906927736303578"><ele>81.0</ele><time>2026-04-26T07:56:27Z</time></trkpt><trkpt lat="44.929312513108506" lon="9.906998380661783"><ele>81.16666666666667</ele><time>2026-04-26T07:56:28Z</time></trkpt><trkpt lat="44.92937993017674" lon="9.907071054442515"><ele>81.33333333333333</ele><time>2026-04-26T07:56:29Z</time></trkpt><trkpt lat="44.929449719052684" lon="9.907140230831402"><ele>81.5</ele><time>2026-04-26T07:56:30Z</time></trkpt><trkpt lat="44.92951883606663" lon="9.907204604883939"><ele>81.66666666666666</ele><time>2026-04-26T07:56:31Z</time></trkpt><trkpt lat="44.92958836789022" lon="9.907267447348554"><ele>81.83333333333333</ele><time>2026-04-26T07:56:32Z</time></trkpt><trkpt lat="44.92965658050047" lon="9.907330022369356"><ele>82.0</ele><time>2026-04-26T07:56:33Z</time></trkpt><trkpt lat="44.929726487504" lon="9.907393793998107"><ele>82.0</ele><time>2026-04-26T07:56:34Z</time></trkpt><trkpt lat="44.92979937069264" lon="9.90746002358191"><ele>82.0</ele><time>2026-04-26T07:56:35Z</time></trkpt><trkpt lat="44.92986873977412" lon="9.907529545582285"><ele>82.0</ele><time>2026-04-26T07:56:36Z</time></trkpt><trkpt lat="44.92994085127942" lon="9.907594152597438"><ele>82.0</ele><time>2026-04-26T07:56:37Z</time></trkpt><trkpt lat="44.93000508372114" lon="9.907654521081668"><ele>82.0</ele><time>2026-04-26T07:56:38Z</time></trkpt><trkpt lat="44.930072387388336" lon="9.907715797454888"><ele>82.0</ele><time>2026-04-26T07:56:39Z</time></trkpt><trkpt lat="44.93013627982532" lon="9.90776711257147"><ele>82.0</ele><time>2026-04-26T07:56:40Z</time></trkpt><trkpt lat="44.930201412381024" lon="9.907819055168133"><ele>82.0</ele><time>2026-04-26T07:56:41Z</time></trkpt><trkpt lat="44.9302687379247" lon="9.907865346934962"><ele>82.0</ele><time>2026-04-26T07:56:41.999Z</time></trkpt><trkpt lat="44.93033336703215" lon="9.907907157735009"><ele>82.0</ele><time>2026-04-26T07:56:42.999Z</time></trkpt><trkpt lat="44.93039516178499" lon="9.907938994297814"><ele>82.0</ele><time>2026-04-26T07:56:43.999Z</time></trkpt><trkpt lat="44.93050732464023" lon="9.907983312257732"><ele>82.0</ele><time>2026-04-26T07:56:45.999Z</time></trkpt><trkpt lat="44.93062786545195" lon="9.907949916812026"><ele>82.0</ele><time>2026-04-26T07:56:47.999Z</time></trkpt><trkpt lat="44.930687793997556" lon="9.907912714647816"><ele>82.0</ele><time>2026-04-26T07:56:48.999Z</time></trkpt><trkpt lat="44.930809235252475" lon="9.90786115780004"><ele>82.0</ele><time>2026-04-26T07:56:50.999Z</time></trkpt><trkpt lat="44.93086696679347" lon="9.90780302852819"><ele>82.0</ele><time>2026-04-26T07:56:51.999Z</time></trkpt><trkpt lat="44.93094258868785" lon="9.907612366746772"><ele>82.0</ele><time>2026-04-26T07:56:53.999Z</time></trkpt><trkpt lat="44.9309854244622" lon="9.907524174027191"><ele>81.66666666666666</ele><time>2026-04-26T07:56:54.999Z</time></trkpt><trkpt lat="44.93103614670416" lon="9.907440122926694"><ele>81.33333333333333</ele><time>2026-04-26T07:56:55.999Z</time></trkpt><trkpt lat="44.93108794708818" lon="9.9073526063213"><ele>81.0</ele><time>2026-04-26T07:56:56.999Z</time></trkpt><trkpt lat="44.93114050480902" lon="9.907264615599363"><ele>80.66666666666667</ele><time>2026-04-26T07:56:57.999Z</time></trkpt><trkpt lat="44.93119688955287" lon="9.907171183265318"><ele>80.33333333333334</ele><time>2026-04-26T07:56:58.999Z</time></trkpt><trkpt lat="44.93125348311444" lon="9.907077389435226"><ele>80.0</ele><time>2026-04-26T07:56:59.999Z</time></trkpt><trkpt lat="44.93130726786343" lon="9.906986891163294"><ele>80.0</ele><time>2026-04-26T07:57:00.999Z</time></trkpt><trkpt lat="44.931361971963526" lon="9.906894230494771"><ele>80.0</ele><time>2026-04-26T07:57:01.999Z</time></trkpt><trkpt lat="44.93141539489228" lon="9.90680182601753"><ele>80.0</ele><time>2026-04-26T07:57:02.999Z</time></trkpt><trkpt lat="44.931467438319416" lon="9.906716177373271"><ele>80.0</ele><time>2026-04-26T07:57:03.999Z</time></trkpt><trkpt lat="44.931518636018865" lon="9.906629264609371"><ele>80.0</ele><time>2026-04-26T07:57:04.999Z</time></trkpt><trkpt lat="44.9315679827661" lon="9.906544932853956"><ele>80.0</ele><time>2026-04-26T07:57:05.999Z</time></trkpt><trkpt lat="44.93161490383403" lon="9.906462323419321"><ele>80.0</ele><time>2026-04-26T07:57:06.999Z</time></trkpt><trkpt lat="44.9316614257913" lon="9.906397689830158"><ele>80.0</ele><time>2026-04-26T07:57:07.999Z</time></trkpt><trkpt lat="44.93170083578473" lon="9.90632511235662"><ele>80.0</ele><time>2026-04-26T07:57:09.999Z</time></trkpt><trkpt lat="44.93182059056575" lon="9.906533488811155"><ele>80.0</ele><time>2026-04-26T07:57:10.999Z</time></trkpt><trkpt lat="44.9318653086603" lon="9.906621870715478"><ele>80.0</ele><time>2026-04-26T07:57:11.999Z</time></trkpt><trkpt lat="44.9319081874265" lon="9.906706617325206"><ele>79.83333333333334</ele><time>2026-04-26T07:57:12.999Z</time></trkpt><trkpt lat="44.93196307988625" lon="9.906782660400152"><ele>79.66666666666667</ele><time>2026-04-26T07:57:13.999Z</time></trkpt><trkpt lat="44.93199848420621" lon="9.906885082110655"><ele>79.5</ele><time>2026-04-26T07:57:14.999Z</time></trkpt><trkpt lat="44.93204692918394" lon="9.906977165494453"><ele>79.33333333333333</ele><time>2026-04-26T07:57:15.999Z</time></trkpt><trkpt lat="44.93209935665226" lon="9.907071295822798"><ele>79.16666666666666</ele><time>2026-04-26T07:57:16.999Z</time></trkpt><trkpt lat="44.93215526547018" lon="9.907163506457962"><ele>79.0</ele><time>2026-04-26T07:57:17.999Z</time></trkpt><trkpt lat="44.93221117790086" lon="9.907254949505234"><ele>79.0</ele><time>2026-04-26T07:57:18.999Z</time></trkpt><trkpt lat="44.93226709673375" lon="9.907346402810129"><ele>79.0</ele><time>2026-04-26T07:57:19.999Z</time></trkpt><trkpt lat="44.93233582986592" lon="9.907419817744142"><ele>79.0</ele><time>2026-04-26T07:57:20.999Z</time></trkpt><trkpt lat="44.9323920651606" lon="9.907515874476193"><ele>79.0</ele><time>2026-04-26T07:57:21.999Z</time></trkpt><trkpt lat="44.93245450257734" lon="9.907604862638008"><ele>79.0</ele><time>2026-04-26T07:57:22.999Z</time></trkpt><trkpt lat="44.932517089141996" lon="9.90769454861675"><ele>79.0</ele><time>2026-04-26T07:57:23.999Z</time></trkpt><trkpt lat="44.932591376686844" lon="9.907772623842598"><ele>78.60000000000001</ele><time>2026-04-26T07:57:24.999Z</time></trkpt><trkpt lat="44.932668077976665" lon="9.907841894579333"><ele>78.2</ele><time>2026-04-26T07:57:25.999Z</time></trkpt><trkpt lat="44.9327440004205" lon="9.90790881158274"><ele>77.80000000000001</ele><time>2026-04-26T07:57:26.999Z</time></trkpt><trkpt lat="44.932824407146406" lon="9.9079724787517"><ele>77.4</ele><time>2026-04-26T07:57:27.999Z</time></trkpt><trkpt lat="44.932906069531676" lon="9.908039492167259"><ele>77.0</ele><time>2026-04-26T07:57:28.999Z</time></trkpt><trkpt lat="44.93298666332329" lon="9.908116167483493"><ele>77.0</ele><time>2026-04-26T07:57:29.999Z</time></trkpt><trkpt lat="44.93307490004042" lon="9.908197644678136"><ele>77.0</ele><time>2026-04-26T07:57:30.999Z</time></trkpt><trkpt lat="44.9331644425344" lon="9.908275342115834"><ele>77.0</ele><time>2026-04-26T07:57:31.999Z</time></trkpt><trkpt lat="44.933259252878" lon="9.908350261597677"><ele>77.0</ele><time>2026-04-26T07:57:32.999Z</time></trkpt><trkpt lat="44.93335716208658" lon="9.908434070918196"><ele>77.0</ele><time>2026-04-26T07:57:33.999Z</time></trkpt><trkpt lat="44.9334557761183" lon="9.908520619647476"><ele>76.75</ele><time>2026-04-26T07:57:34.999Z</time></trkpt><trkpt lat="44.93355685799635" lon="9.908604494956272"><ele>76.5</ele><time>2026-04-26T07:57:35.998Z</time></trkpt><trkpt lat="44.93365860972771" lon="9.908690068828504"><ele>76.25</ele><time>2026-04-26T07:57:36.998Z</time></trkpt><trkpt lat="44.933753932814994" lon="9.908776650253525"><ele>76.0</ele><time>2026-04-26T07:57:37.998Z</time></trkpt><trkpt lat="44.933859413854286" lon="9.908842365158986"><ele>76.0</ele><time>2026-04-26T07:57:38.998Z</time></trkpt><trkpt lat="44.933953612072855" lon="9.908924544191024"><ele>76.0</ele><time>2026-04-26T07:57:39.998Z</time></trkpt><trkpt lat="44.93404438425426" lon="9.908989485210629"><ele>76.0</ele><time>2026-04-26T07:57:40.998Z</time></trkpt><trkpt lat="44.934140079949415" lon="9.909048520465506"><ele>76.0</ele><time>2026-04-26T07:57:41.998Z</time></trkpt><trkpt lat="44.934236225829366" lon="9.909091993092382"><ele>76.0</ele><time>2026-04-26T07:57:42.998Z</time></trkpt><trkpt lat="44.93433165481436" lon="9.909132552321504"><ele>76.0</ele><time>2026-04-26T07:57:43.998Z</time></trkpt><trkpt lat="44.934421648317986" lon="9.90916175610376"><ele>76.0</ele><time>2026-04-26T07:57:44.998Z</time></trkpt><trkpt lat="44.93450944534313" lon="9.909192868927686"><ele>76.0</ele><time>2026-04-26T07:57:45.998Z</time></trkpt><trkpt lat="44.93459525178813" lon="9.909225573953316"><ele>76.0</ele><time>2026-04-26T07:57:46.998Z</time></trkpt><trkpt lat="44.93468013274804" lon="9.909253681029943"><ele>76.0</ele><time>2026-04-26T07:57:47.998Z</time></trkpt><trkpt lat="44.934761332225236" lon="9.909280137564311"><ele>76.0</ele><time>2026-04-26T07:57:48.998Z</time></trkpt><trkpt lat="44.93484330135225" lon="9.909309432088394"><ele>75.83333333333333</ele><time>2026-04-26T07:57:49.998Z</time></trkpt><trkpt lat="44.93492574767475" lon="9.909337307203284"><ele>75.66666666666666</ele><time>2026-04-26T07:57:50.998Z</time></trkpt><trkpt lat="44.935007829094175" lon="9.909360703084909"><ele>75.5</ele><time>2026-04-26T07:57:51.998Z</time></trkpt><trkpt lat="44.935090743737355" lon="9.90938836084246"><ele>75.33333333333333</ele><time>2026-04-26T07:57:52.998Z</time></trkpt><trkpt lat="44.935172143918365" lon="9.909418528678964"><ele>75.16666666666667</ele><time>2026-04-26T07:57:53.998Z</time></trkpt><trkpt lat="44.935253897363005" lon="9.909445090820526"><ele>75.0</ele><time>2026-04-26T07:57:55Z</time></trkpt><trkpt lat="44.93533766479321" lon="9.909465707332505"><ele>74.83333333333333</ele><time>2026-04-26T07:57:56Z</time></trkpt><trkpt lat="44.93542384679796" lon="9.909482406892518"><ele>74.66666666666667</ele><time>2026-04-26T07:57:57Z</time></trkpt><trkpt lat="44.93550685490661" lon="9.909494969132531"><ele>74.5</ele><time>2026-04-26T07:57:58Z</time></trkpt><trkpt lat="44.93559385962034" lon="9.909501260942537"><ele>74.33333333333334</ele><time>2026-04-26T07:57:59Z</time></trkpt><trkpt lat="44.93567922411877" lon="9.90950923015776"><ele>74.16666666666667</ele><time>2026-04-26T07:58:00Z</time></trkpt><trkpt lat="44.935759227380466" lon="9.909519681808478"><ele>74.0</ele><time>2026-04-26T07:58:01Z</time></trkpt><trkpt lat="44.93585081474918" lon="9.909525785018525"><ele>74.0</ele><time>2026-04-26T07:58:02Z</time></trkpt><trkpt lat="44.935942704360066" lon="9.909530553392104"><ele>74.0</ele><time>2026-04-26T07:58:03Z</time></trkpt><trkpt lat="44.936032227196776" lon="9.909535434022617"><ele>74.0</ele><time>2026-04-26T07:58:04Z</time></trkpt><trkpt lat="44.93612298377618" lon="9.909538133073154"><ele>74.0</ele><time>2026-04-26T07:58:05Z</time></trkpt><trkpt lat="44.93620955617394" lon="9.909547459951252"><ele>74.0</ele><time>2026-04-26T07:58:06Z</time></trkpt><trkpt lat="44.93629438339034" lon="9.909556926038054"><ele>74.0</ele><time>2026-04-26T07:58:07Z</time></trkpt><trkpt lat="44.93637918389334" lon="9.909568856987436"><ele>74.0</ele><time>2026-04-26T07:58:08Z</time></trkpt><trkpt lat="44.936467554852506" lon="9.909569629666496"><ele>74.0</ele><time>2026-04-26T07:58:09Z</time></trkpt><trkpt lat="44.9365587461495" lon="9.909575327206621"><ele>74.0</ele><time>2026-04-26T07:58:10Z</time></trkpt><trkpt lat="44.936649309581625" lon="9.909590959714375"><ele>74.0</ele><time>2026-04-26T07:58:11Z</time></trkpt><trkpt lat="44.93673623925526" lon="9.909614712608006"><ele>74.0</ele><time>2026-04-26T07:58:12Z</time></trkpt><trkpt lat="44.936824225872904" lon="9.909639060489217"><ele>74.0</ele><time>2026-04-26T07:58:13Z</time></trkpt><trkpt lat="44.93691084291486" lon="9.909674912039867"><ele>73.83333333333334</ele><time>2026-04-26T07:58:14Z</time></trkpt><trkpt lat="44.936997344115326" lon="9.909708656984716"><ele>73.66666666666667</ele><time>2026-04-26T07:58:15Z</time></trkpt><trkpt lat="44.937083267275895" lon="9.909739924141931"><ele>73.5</ele><time>2026-04-26T07:58:16Z</time></trkpt><trkpt lat="44.93716908423994" lon="9.909770697320333"><ele>73.33333333333333</ele><time>2026-04-26T07:58:17Z</time></trkpt><trkpt lat="44.93725055014936" lon="9.909803081362046"><ele>73.16666666666666</ele><time>2026-04-26T07:58:18Z</time></trkpt><trkpt lat="44.937336077568055" lon="9.909837495427368"><ele>73.0</ele><time>2026-04-26T07:58:19Z</time></trkpt><trkpt lat="44.93741831364572" lon="9.909877896749546"><ele>73.0</ele><time>2026-04-26T07:58:20Z</time></trkpt><trkpt lat="44.93750136365385" lon="9.909918281887482"><ele>73.0</ele><time>2026-04-26T07:58:21Z</time></trkpt><trkpt lat="44.93758232043457" lon="9.909955530596086"><ele>73.0</ele><time>2026-04-26T07:58:22Z</time></trkpt><trkpt lat="44.93767168109683" lon="9.909973419401593"><ele>73.0</ele><time>2026-04-26T07:58:23Z</time></trkpt><trkpt lat="44.937763457593356" lon="9.909985736582598"><ele>73.0</ele><time>2026-04-26T07:58:24Z</time></trkpt><trkpt lat="44.9378524440127" lon="9.9100084588392"><ele>73.0</ele><time>2026-04-26T07:58:25Z</time></trkpt><trkpt lat="44.937940408675146" lon="9.910028258235224"><ele>73.0</ele><time>2026-04-26T07:58:26Z</time></trkpt><trkpt lat="44.93802800512626" lon="9.91004541889329"><ele>73.0</ele><time>2026-04-26T07:58:27Z</time></trkpt><trkpt lat="44.938116678296154" lon="9.910066466957078"><ele>73.0</ele><time>2026-04-26T07:58:28Z</time></trkpt><trkpt lat="44.93820463390592" lon="9.910086642215925"><ele>73.0</ele><time>2026-04-26T07:58:29Z</time></trkpt><trkpt lat="44.93829315073397" lon="9.910104061321453"><ele>73.0</ele><time>2026-04-26T07:58:30Z</time></trkpt><trkpt lat="44.93838055841075" lon="9.910123137451968"><ele>73.0</ele><time>2026-04-26T07:58:31Z</time></trkpt><trkpt lat="44.93846797331073" lon="9.910143884298973"><ele>73.0</ele><time>2026-04-26T07:58:32Z</time></trkpt><trkpt lat="44.93855570909619" lon="9.910171223749323"><ele>73.0</ele><time>2026-04-26T07:58:33Z</time></trkpt><trkpt lat="44.938641460789135" lon="9.910205188800406"><ele>73.0</ele><time>2026-04-26T07:58:34Z</time></trkpt><trkpt lat="44.938726997085375" lon="9.910243546782736"><ele>73.0</ele><time>2026-04-26T07:58:35Z</time></trkpt><trkpt lat="44.93881169109497" lon="9.910282803479596"><ele>73.0</ele><time>2026-04-26T07:58:36Z</time></trkpt><trkpt lat="44.93889731132902" lon="9.910322416231736"><ele>73.0</ele><time>2026-04-26T07:58:37Z</time></trkpt><trkpt lat="44.938981315738644" lon="9.91036215902257"><ele>73.0</ele><time>2026-04-26T07:58:38Z</time></trkpt><trkpt lat="44.939065004204416" lon="9.910402709649373"><ele>73.0</ele><time>2026-04-26T07:58:39Z</time></trkpt><trkpt lat="44.93914962995838" lon="9.910442992456169"><ele>73.0</ele><time>2026-04-26T07:58:40Z</time></trkpt><trkpt lat="44.93923444745847" lon="9.910478967440715"><ele>73.0</ele><time>2026-04-26T07:58:41Z</time></trkpt><trkpt lat="44.93932114482723" lon="9.910509308498044"><ele>73.0</ele><time>2026-04-26T07:58:42Z</time></trkpt><trkpt lat="44.939408579730866" lon="9.910530635171721"><ele>73.0</ele><time>2026-04-26T07:58:43Z</time></trkpt><trkpt lat="44.939498173532684" lon="9.910545847923451"><ele>73.0</ele><time>2026-04-26T07:58:44Z</time></trkpt><trkpt lat="44.93958606705771" lon="9.910552417968237"><ele>73.0</ele><time>2026-04-26T07:58:45Z</time></trkpt><trkpt lat="44.93967590766437" lon="9.91055333242729"><ele>73.0</ele><time>2026-04-26T07:58:45.999Z</time></trkpt><trkpt lat="44.93976432014412" lon="9.91055195788921"><ele>73.0</ele><time>2026-04-26T07:58:46.999Z</time></trkpt><trkpt lat="44.93985322503691" lon="9.910546800641642"><ele>73.0</ele><time>2026-04-26T07:58:47.999Z</time></trkpt><trkpt lat="44.93994162649254" lon="9.910538995040321"><ele>73.0</ele><time>2026-04-26T07:58:48.999Z</time></trkpt><trkpt lat="44.940031239421835" lon="9.91052756127681"><ele>72.6</ele><time>2026-04-26T07:58:49.999Z</time></trkpt><trkpt lat="44.94011960555191" lon="9.910513493614422"><ele>72.19999999999999</ele><time>2026-04-26T07:58:50.999Z</time></trkpt><trkpt lat="44.940209156228505" lon="9.910494794392223"><ele>71.8</ele><time>2026-04-26T07:58:51.999Z</time></trkpt><trkpt lat="44.94029868742168" lon="9.910481130710345"><ele>71.39999999999999</ele><time>2026-04-26T07:58:52.999Z</time></trkpt><trkpt lat="44.94038840026687" lon="9.910470322385967"><ele>71.0</ele><time>2026-04-26T07:58:53.999Z</time></trkpt><trkpt lat="44.94048046575266" lon="9.91045865609073"><ele>71.0</ele><time>2026-04-26T07:58:54.999Z</time></trkpt><trkpt lat="44.94056912480609" lon="9.910446608324634"><ele>71.0</ele><time>2026-04-26T07:58:55.999Z</time></trkpt><trkpt lat="44.94065851409798" lon="9.910431297054956"><ele>71.0</ele><time>2026-04-26T07:58:56.999Z</time></trkpt><trkpt lat="44.94074793159263" lon="9.910417288454951"><ele>71.0</ele><time>2026-04-26T07:58:57.999Z</time></trkpt><trkpt lat="44.940835724600255" lon="9.910401613308837"><ele>71.0</ele><time>2026-04-26T07:58:58.999Z</time></trkpt><trkpt lat="44.940924371375516" lon="9.910389070434745"><ele>71.0</ele><time>2026-04-26T07:58:59.999Z</time></trkpt><trkpt lat="44.94101117714296" lon="9.91037533910838"><ele>70.66666666666667</ele><time>2026-04-26T07:59:00.999Z</time></trkpt><trkpt lat="44.94110052769573" lon="9.910363276228189"><ele>70.33333333333334</ele><time>2026-04-26T07:59:01.999Z</time></trkpt><trkpt lat="44.94118863603092" lon="9.910351582375238"><ele>70.0</ele><time>2026-04-26T07:59:02.999Z</time></trkpt><trkpt lat="44.94127763617694" lon="9.91034367970222"><ele>69.66666666666667</ele><time>2026-04-26T07:59:03.999Z</time></trkpt><trkpt lat="44.9413657697988" lon="9.910340482848111"><ele>69.33333333333333</ele><time>2026-04-26T07:59:04.999Z</time></trkpt><trkpt lat="44.94145517799013" lon="9.910344337536062"><ele>69.0</ele><time>2026-04-26T07:59:05.999Z</time></trkpt><trkpt lat="44.941543075204734" lon="9.910345861930393"><ele>69.0</ele><time>2026-04-26T07:59:06.999Z</time></trkpt><trkpt lat="44.94163265618119" lon="9.91035111073347"><ele>69.0</ele><time>2026-04-26T07:59:07.999Z</time></trkpt><trkpt lat="44.94172005294637" lon="9.910354072721471"><ele>69.0</ele><time>2026-04-26T07:59:08.999Z</time></trkpt><trkpt lat="44.941810309895864" lon="9.910359065072111"><ele>69.0</ele><time>2026-04-26T07:59:09.999Z</time></trkpt><trkpt lat="44.941898880785665" lon="9.910363229839907"><ele>69.0</ele><time>2026-04-26T07:59:10.999Z</time></trkpt><trkpt lat="44.94199067791255" lon="9.91037609762088"><ele>69.0</ele><time>2026-04-26T07:59:11.999Z</time></trkpt><trkpt lat="44.94208136342633" lon="9.910386501551491"><ele>69.2</ele><time>2026-04-26T07:59:12.999Z</time></trkpt><trkpt lat="44.94217214955407" lon="9.910399705464048"><ele>69.4</ele><time>2026-04-26T07:59:13.999Z</time></trkpt><trkpt lat="44.94226316413999" lon="9.9104178187537"><ele>69.6</ele><time>2026-04-26T07:59:14.999Z</time></trkpt><trkpt lat="44.94235443874131" lon="9.91043618351437"><ele>69.8</ele><time>2026-04-26T07:59:15.999Z</time></trkpt><trkpt lat="44.94244314553606" lon="9.910456605362377"><ele>70.0</ele><time>2026-04-26T07:59:16.999Z</time></trkpt><trkpt lat="44.94253314054208" lon="9.910480286461151"><ele>69.6</ele><time>2026-04-26T07:59:17.999Z</time></trkpt><trkpt lat="44.94261960871418" lon="9.910512697441224"><ele>69.2</ele><time>2026-04-26T07:59:18.999Z</time></trkpt><trkpt lat="44.942705357286236" lon="9.910555319290964"><ele>68.8</ele><time>2026-04-26T07:59:19.999Z</time></trkpt><trkpt lat="44.942789684105534" lon="9.910605399199882"><ele>68.4</ele><time>2026-04-26T07:59:20.999Z</time></trkpt><trkpt lat="44.94287188013587" lon="9.910656218608201"><ele>68.0</ele><time>2026-04-26T07:59:21.999Z</time></trkpt><trkpt lat="44.942952688968674" lon="9.910710965343979"><ele>68.0</ele><time>2026-04-26T07:59:22.999Z</time></trkpt><trkpt lat="44.94303510525744" lon="9.910769572269988"><ele>68.0</ele><time>2026-04-26T07:59:23.999Z</time></trkpt><trkpt lat="44.943116454891005" lon="9.910823117037138"><ele>68.0</ele><time>2026-04-26T07:59:24.999Z</time></trkpt><trkpt lat="44.94319632016056" lon="9.910880043164005"><ele>68.0</ele><time>2026-04-26T07:59:25.999Z</time></trkpt><trkpt lat="44.94327669371023" lon="9.91093956853865"><ele>68.0</ele><time>2026-04-26T07:59:26.999Z</time></trkpt><trkpt lat="44.94335860284888" lon="9.91099869813986"><ele>68.6</ele><time>2026-04-26T07:59:27.999Z</time></trkpt><trkpt lat="44.943440922269545" lon="9.911056649449941"><ele>69.19999999999999</ele><time>2026-04-26T07:59:28.999Z</time></trkpt><trkpt lat="44.94352362455546" lon="9.911116088874934"><ele>69.8</ele><time>2026-04-26T07:59:29.999Z</time></trkpt><trkpt lat="44.94360414719359" lon="9.911174175480248"><ele>70.39999999999999</ele><time>2026-04-26T07:59:30.999Z</time></trkpt><trkpt lat="44.94368689609056" lon="9.911237928279986"><ele>71.0</ele><time>2026-04-26T07:59:31.999Z</time></trkpt><trkpt lat="44.94376902685735" lon="9.91129921991672"><ele>71.0</ele><time>2026-04-26T07:59:32.999Z</time></trkpt><trkpt lat="44.943849793237014" lon="9.911360705572706"><ele>71.0</ele><time>2026-04-26T07:59:33.999Z</time></trkpt><trkpt lat="44.94392850670479" lon="9.911418934026065"><ele>71.0</ele><time>2026-04-26T07:59:34.999Z</time></trkpt><trkpt lat="44.944010441219504" lon="9.911478437654676"><ele>71.0</ele><time>2026-04-26T07:59:35.999Z</time></trkpt><trkpt lat="44.944093005061795" lon="9.911537238576368"><ele>71.0</ele><time>2026-04-26T07:59:36.999Z</time></trkpt><trkpt lat="44.944174965902725" lon="9.911587741996998"><ele>71.0</ele><time>2026-04-26T07:59:37.999Z</time></trkpt><trkpt lat="44.94426385997774" lon="9.911624202982388"><ele>71.0</ele><time>2026-04-26T07:59:38.999Z</time></trkpt><trkpt lat="44.94435696532844" lon="9.911641047517168"><ele>71.0</ele><time>2026-04-26T07:59:39.998Z</time></trkpt><trkpt lat="44.94444807249715" lon="9.911643104432855"><ele>71.0</ele><time>2026-04-26T07:59:40.998Z</time></trkpt><trkpt lat="44.944542676749464" lon="9.911640115975736"><ele>71.0</ele><time>2026-04-26T07:59:41.998Z</time></trkpt><trkpt lat="44.94463540409095" lon="9.91163203744857"><ele>71.0</ele><time>2026-04-26T07:59:42.998Z</time></trkpt><trkpt lat="44.94472561447138" lon="9.911621467956001"><ele>71.0</ele><time>2026-04-26T07:59:43.998Z</time></trkpt><trkpt lat="44.94481276346875" lon="9.911616522099964"><ele>71.0</ele><time>2026-04-26T07:59:44.998Z</time></trkpt><trkpt lat="44.94490302090832" lon="9.911601510432183"><ele>71.0</ele><time>2026-04-26T07:59:45.998Z</time></trkpt><trkpt lat="44.94499479837262" lon="9.91159079351134"><ele>71.0</ele><time>2026-04-26T07:59:46.998Z</time></trkpt><trkpt lat="44.94508509122489" lon="9.911576197126209"><ele>70.6</ele><time>2026-04-26T07:59:47.998Z</time></trkpt><trkpt lat="44.94517394174752" lon="9.91156216930151"><ele>70.19999999999999</ele><time>2026-04-26T07:59:48.998Z</time></trkpt><trkpt lat="44.94526473275751" lon="9.91154825786412"><ele>69.80000000000001</ele><time>2026-04-26T07:59:49.998Z</time></trkpt><trkpt lat="44.945354993686834" lon="9.91153884341486"><ele>69.4</ele><time>2026-04-26T07:59:50.998Z</time></trkpt><trkpt lat="44.94544613363322" lon="9.911545079279255"><ele>69.0</ele><time>2026-04-26T07:59:51.998Z</time></trkpt><trkpt lat="44.94553796204757" lon="9.911564153249657"><ele>69.0</ele><time>2026-04-26T07:59:52.998Z</time></trkpt><trkpt lat="44.94562539067867" lon="9.911592460681327"><ele>69.0</ele><time>2026-04-26T07:59:53.998Z</time></trkpt><trkpt lat="44.94571244618203" lon="9.91161967550231"><ele>69.0</ele><time>2026-04-26T07:59:54.998Z</time></trkpt><trkpt lat="44.945799804915374" lon="9.911648882269088"><ele>69.0</ele><time>2026-04-26T07:59:55.998Z</time></trkpt><trkpt lat="44.94588724132999" lon="9.911676357181038"><ele>69.0</ele><time>2026-04-26T07:59:56.998Z</time></trkpt><trkpt lat="44.94597461792389" lon="9.911704183467558"><ele>69.0</ele><time>2026-04-26T07:59:57.998Z</time></trkpt><trkpt lat="44.94606084334428" lon="9.911731795779742"><ele>68.8</ele><time>2026-04-26T07:59:58.998Z</time></trkpt><trkpt lat="44.94614707855535" lon="9.9117471628729"><ele>68.60000000000001</ele><time>2026-04-26T07:59:59.998Z</time></trkpt><trkpt lat="44.94623737644933" lon="9.911735698617695"><ele>68.4</ele><time>2026-04-26T08:00:01Z</time></trkpt><trkpt lat="44.946319231209024" lon="9.911679424143436"><ele>68.2</ele><time>2026-04-26T08:00:02Z</time></trkpt><trkpt lat="44.94638960488669" lon="9.911589449931627"><ele>68.0</ele><time>2026-04-26T08:00:03Z</time></trkpt><trkpt lat="44.946443738402806" lon="9.91148214303406"><ele>68.4</ele><time>2026-04-26T08:00:04Z</time></trkpt><trkpt lat="44.946487932036035" lon="9.911368223601634"><ele>68.8</ele><time>2026-04-26T08:00:05Z</time></trkpt><trkpt lat="44.946529137877846" lon="9.911254401312616"><ele>69.2</ele><time>2026-04-26T08:00:06Z</time></trkpt><trkpt lat="44.946573016143" lon="9.911143298097986"><ele>69.6</ele><time>2026-04-26T08:00:07Z</time></trkpt><trkpt lat="44.94661745130757" lon="9.911028126717055"><ele>70.0</ele><time>2026-04-26T08:00:08Z</time></trkpt><trkpt lat="44.946659412007335" lon="9.910915211963461"><ele>69.8</ele><time>2026-04-26T08:00:09Z</time></trkpt><trkpt lat="44.946704449768326" lon="9.910805652054808"><ele>69.6</ele><time>2026-04-26T08:00:10Z</time></trkpt><trkpt lat="44.946758916886964" lon="9.910701520887153"><ele>69.4</ele><time>2026-04-26T08:00:11Z</time></trkpt><trkpt lat="44.946824402326484" lon="9.910616728638754"><ele>69.2</ele><time>2026-04-26T08:00:12Z</time></trkpt><trkpt lat="44.946905363810124" lon="9.910562818079375"><ele>69.0</ele><time>2026-04-26T08:00:13Z</time></trkpt><trkpt lat="44.94699724758368" lon="9.910541431476943"><ele>69.0</ele><time>2026-04-26T08:00:14Z</time></trkpt><trkpt lat="44.94708600915045" lon="9.910541538616522"><ele>69.0</ele><time>2026-04-26T08:00:15Z</time></trkpt><trkpt lat="44.947178016802624" lon="9.910544163051043"><ele>69.0</ele><time>2026-04-26T08:00:16Z</time></trkpt><trkpt lat="44.947267354053764" lon="9.910557838697159"><ele>69.0</ele><time>2026-04-26T08:00:17Z</time></trkpt><trkpt lat="44.94735400004715" lon="9.91058449020988"><ele>69.0</ele><time>2026-04-26T08:00:18Z</time></trkpt><trkpt lat="44.94743857136263" lon="9.91062243222058"><ele>69.0</ele><time>2026-04-26T08:00:19Z</time></trkpt><trkpt lat="44.94752246985548" lon="9.910667918913676"><ele>69.16666666666667</ele><time>2026-04-26T08:00:20Z</time></trkpt><trkpt lat="44.94760323208203" lon="9.91071557781554"><ele>69.33333333333333</ele><time>2026-04-26T08:00:21Z</time></trkpt><trkpt lat="44.94768751985568" lon="9.910757387622773"><ele>69.5</ele><time>2026-04-26T08:00:22Z</time></trkpt><trkpt lat="44.94777069583864" lon="9.910793239983859"><ele>69.66666666666666</ele><time>2026-04-26T08:00:23Z</time></trkpt><trkpt lat="44.94785686429676" lon="9.910824958228195"><ele>69.83333333333333</ele><time>2026-04-26T08:00:24Z</time></trkpt><trkpt lat="44.9479430119257" lon="9.910844944351757"><ele>70.0</ele><time>2026-04-26T08:00:25Z</time></trkpt><trkpt lat="44.94803204561536" lon="9.910863608338216"><ele>70.0</ele><time>2026-04-26T08:00:26Z</time></trkpt><trkpt lat="44.94812008995655" lon="9.910876606012947"><ele>70.0</ele><time>2026-04-26T08:00:27Z</time></trkpt><trkpt lat="44.94821066805855" lon="9.910884657794076"><ele>70.0</ele><time>2026-04-26T08:00:28Z</time></trkpt><trkpt lat="44.9482994829" lon="9.910891009921087"><ele>70.0</ele><time>2026-04-26T08:00:29Z</time></trkpt><trkpt lat="44.948387784774745" lon="9.910898347885183"><ele>70.0</ele><time>2026-04-26T08:00:30Z</time></trkpt><trkpt lat="44.948475732196854" lon="9.91090506708985"><ele>70.0</ele><time>2026-04-26T08:00:31Z</time></trkpt><trkpt lat="44.948565771900036" lon="9.910910003318747"><ele>69.66666666666666</ele><time>2026-04-26T08:00:32Z</time></trkpt><trkpt lat="44.94865466097179" lon="9.910914735948708"><ele>69.33333333333333</ele><time>2026-04-26T08:00:33Z</time></trkpt><trkpt lat="44.9487428287927" lon="9.91092001430857"><ele>69.0</ele><time>2026-04-26T08:00:34Z</time></trkpt><trkpt lat="44.94883204998274" lon="9.910934701561306"><ele>68.66666666666667</ele><time>2026-04-26T08:00:35Z</time></trkpt><trkpt lat="44.9489205727125" lon="9.910952252668965"><ele>68.33333333333334</ele><time>2026-04-26T08:00:36Z</time></trkpt><trkpt lat="44.949005963184" lon="9.910978609608282"><ele>68.0</ele><time>2026-04-26T08:00:37Z</time></trkpt><trkpt lat="44.9490895386005" lon="9.911024825073904"><ele>68.0</ele><time>2026-04-26T08:00:38Z</time></trkpt><trkpt lat="44.94916924745831" lon="9.911081440520165"><ele>68.0</ele><time>2026-04-26T08:00:39Z</time></trkpt><trkpt lat="44.949238836387465" lon="9.911162452476129"><ele>68.0</ele><time>2026-04-26T08:00:40Z</time></trkpt><trkpt lat="44.94930173889827" lon="9.911250738849906"><ele>68.0</ele><time>2026-04-26T08:00:41Z</time></trkpt><trkpt lat="44.94935849134486" lon="9.911347434712075"><ele>68.0</ele><time>2026-04-26T08:00:42Z</time></trkpt><trkpt lat="44.949412647672084" lon="9.91144483248796"><ele>68.0</ele><time>2026-04-26T08:00:43Z</time></trkpt><trkpt lat="44.949465433584194" lon="9.91154493287383"><ele>68.0</ele><time>2026-04-26T08:00:44Z</time></trkpt><trkpt lat="44.949510402857555" lon="9.911651353343188"><ele>68.0</ele><time>2026-04-26T08:00:45Z</time></trkpt><trkpt lat="44.94955787023361" lon="9.91175799551771"><ele>68.0</ele><time>2026-04-26T08:00:46Z</time></trkpt><trkpt lat="44.94960245479567" lon="9.911864374981421"><ele>68.0</ele><time>2026-04-26T08:00:47Z</time></trkpt><trkpt lat="44.94964498182257" lon="9.911973129928977"><ele>68.0</ele><time>2026-04-26T08:00:48Z</time></trkpt><trkpt lat="44.949686348180315" lon="9.912081945917576"><ele>68.0</ele><time>2026-04-26T08:00:49Z</time></trkpt><trkpt lat="44.949728256261274" lon="9.912194876729998"><ele>68.0</ele><time>2026-04-26T08:00:50Z</time></trkpt><trkpt lat="44.949770262078744" lon="9.912302931848904"><ele>68.0</ele><time>2026-04-26T08:00:50.999Z</time></trkpt><trkpt lat="44.94981704615454" lon="9.912408778933418"><ele>68.0</ele><time>2026-04-26T08:00:51.999Z</time></trkpt><trkpt lat="44.9498695230105" lon="9.912512912510715"><ele>68.0</ele><time>2026-04-26T08:00:52.999Z</time></trkpt><trkpt lat="44.94992468101919" lon="9.912612183051253"><ele>68.0</ele><time>2026-04-26T08:00:53.999Z</time></trkpt><trkpt lat="44.94998218942022" lon="9.91271015645494"><ele>68.0</ele><time>2026-04-26T08:00:54.999Z</time></trkpt><trkpt lat="44.9500473503315" lon="9.912800871126874"><ele>68.0</ele><time>2026-04-26T08:00:55.999Z</time></trkpt><trkpt lat="44.95011322961685" lon="9.912886070577677"><ele>68.0</ele><time>2026-04-26T08:00:56.999Z</time></trkpt><trkpt lat="44.9501853118573" lon="9.912963910661214"><ele>68.0</ele><time>2026-04-26T08:00:57.999Z</time></trkpt><trkpt lat="44.95026145963746" lon="9.91303119347044"><ele>68.0</ele><time>2026-04-26T08:00:58.999Z</time></trkpt><trkpt lat="44.95034326289088" lon="9.913087066834576"><ele>68.0</ele><time>2026-04-26T08:00:59.999Z</time></trkpt><trkpt lat="44.95042649922026" lon="9.913134533494741"><ele>68.0</ele><time>2026-04-26T08:01:00.999Z</time></trkpt><trkpt lat="44.950509299480274" lon="9.913181760922486"><ele>68.0</ele><time>2026-04-26T08:01:01.999Z</time></trkpt><trkpt lat="44.950591648594795" lon="9.913228391486959"><ele>68.0</ele><time>2026-04-26T08:01:02.999Z</time></trkpt><trkpt lat="44.950673539695146" lon="9.913274976261762"><ele>68.0</ele><time>2026-04-26T08:01:03.999Z</time></trkpt><trkpt lat="44.9507570333231" lon="9.913320961594753"><ele>68.0</ele><time>2026-04-26T08:01:04.999Z</time></trkpt><trkpt lat="44.95083901459461" lon="9.913367576634393"><ele>68.0</ele><time>2026-04-26T08:01:05.999Z</time></trkpt><trkpt lat="44.95092079757787" lon="9.913412726581393"><ele>67.83333333333334</ele><time>2026-04-26T08:01:06.999Z</time></trkpt><trkpt lat="44.951003865841656" lon="9.91346184457607"><ele>67.66666666666667</ele><time>2026-04-26T08:01:07.999Z</time></trkpt><trkpt lat="44.951086407339375" lon="9.913508615277973"><ele>67.5</ele><time>2026-04-26T08:01:08.999Z</time></trkpt><trkpt lat="44.951170039154725" lon="9.91355707305146"><ele>67.33333333333333</ele><time>2026-04-26T08:01:09.999Z</time></trkpt><trkpt lat="44.95125134164772" lon="9.91360565031151"><ele>67.16666666666666</ele><time>2026-04-26T08:01:10.999Z</time></trkpt><trkpt lat="44.95133401789032" lon="9.913654480864706"><ele>67.0</ele><time>2026-04-26T08:01:11.999Z</time></trkpt><trkpt lat="44.951415620929914" lon="9.913703573827156"><ele>67.0</ele><time>2026-04-26T08:01:12.999Z</time></trkpt><trkpt lat="44.951495891949264" lon="9.91375827390907"><ele>67.0</ele><time>2026-04-26T08:01:13.999Z</time></trkpt><trkpt lat="44.95157335892128" lon="9.91381607850411"><ele>67.0</ele><time>2026-04-26T08:01:14.999Z</time></trkpt><trkpt lat="44.95165151542219" lon="9.913874392334545"><ele>67.0</ele><time>2026-04-26T08:01:15.999Z</time></trkpt><trkpt lat="44.951729307245735" lon="9.913932384065246"><ele>67.0</ele><time>2026-04-26T08:01:16.999Z</time></trkpt><trkpt lat="44.95180927065548" lon="9.9139920904831"><ele>67.0</ele><time>2026-04-26T08:01:17.999Z</time></trkpt><trkpt lat="44.95188522932058" lon="9.914048878182074"><ele>67.0</ele><time>2026-04-26T08:01:18.999Z</time></trkpt><trkpt lat="44.95196390495109" lon="9.914114452713987"><ele>67.0</ele><time>2026-04-26T08:01:19.999Z</time></trkpt><trkpt lat="44.9520378703228" lon="9.914179761116278"><ele>67.0</ele><time>2026-04-26T08:01:20.999Z</time></trkpt><trkpt lat="44.95211278663373" lon="9.914252945670379"><ele>67.0</ele><time>2026-04-26T08:01:21.999Z</time></trkpt><trkpt lat="44.95217903184057" lon="9.914334957401792"><ele>67.0</ele><time>2026-04-26T08:01:22.999Z</time></trkpt><trkpt lat="44.95224126679388" lon="9.914430755650717"><ele>67.0</ele><time>2026-04-26T08:01:23.999Z</time></trkpt><trkpt lat="44.95230080506838" lon="9.914529190751965"><ele>67.0</ele><time>2026-04-26T08:01:24.999Z</time></trkpt><trkpt lat="44.95235980004423" lon="9.91462251472485"><ele>67.0</ele><time>2026-04-26T08:01:25.999Z</time></trkpt><trkpt lat="44.95241836820176" lon="9.914719881377557"><ele>67.0</ele><time>2026-04-26T08:01:26.999Z</time></trkpt><trkpt lat="44.95247841249442" lon="9.91482091305981"><ele>67.0</ele><time>2026-04-26T08:01:27.999Z</time></trkpt><trkpt lat="44.952535057253016" lon="9.914917534108861"><ele>67.0</ele><time>2026-04-26T08:01:28.999Z</time></trkpt><trkpt lat="44.952595480928835" lon="9.915014084294015"><ele>67.0</ele><time>2026-04-26T08:01:29.999Z</time></trkpt><trkpt lat="44.952653857859616" lon="9.91511219817788"><ele>67.0</ele><time>2026-04-26T08:01:30.999Z</time></trkpt><trkpt lat="44.95271583851782" lon="9.915209949225442"><ele>67.0</ele><time>2026-04-26T08:01:31.999Z</time></trkpt><trkpt lat="44.95277340243394" lon="9.915307806970457"><ele>67.0</ele><time>2026-04-26T08:01:32.999Z</time></trkpt><trkpt lat="44.95282947572861" lon="9.915405851062395"><ele>67.0</ele><time>2026-04-26T08:01:33.999Z</time></trkpt><trkpt lat="44.952885175619144" lon="9.915507428873712"><ele>67.0</ele><time>2026-04-26T08:01:34.999Z</time></trkpt><trkpt lat="44.95293869481906" lon="9.915611652083713"><ele>67.0</ele><time>2026-04-26T08:01:35.999Z</time></trkpt><trkpt lat="44.95299196990303" lon="9.915717207492133"><ele>67.0</ele><time>2026-04-26T08:01:36.999Z</time></trkpt><trkpt lat="44.95304311136387" lon="9.915817217571737"><ele>67.0</ele><time>2026-04-26T08:01:37.999Z</time></trkpt><trkpt lat="44.95309610831636" lon="9.915920734457336"><ele>67.0</ele><time>2026-04-26T08:01:38.999Z</time></trkpt><trkpt lat="44.953149660215" lon="9.91602339626418"><ele>67.0</ele><time>2026-04-26T08:01:39.999Z</time></trkpt><trkpt lat="44.953209917560486" lon="9.916117724155129"><ele>67.0</ele><time>2026-04-26T08:01:40.999Z</time></trkpt><trkpt lat="44.95326781638177" lon="9.916214323368466"><ele>67.0</ele><time>2026-04-26T08:01:41.999Z</time></trkpt><trkpt lat="44.95332936246359" lon="9.916305176017891"><ele>67.0</ele><time>2026-04-26T08:01:42.999Z</time></trkpt><trkpt lat="44.953391993138126" lon="9.916396036297426"><ele>67.0</ele><time>2026-04-26T08:01:43.998Z</time></trkpt><trkpt lat="44.9534539673697" lon="9.916487547853691"><ele>66.5</ele><time>2026-04-26T08:01:44.998Z</time></trkpt><trkpt lat="44.95351765615644" lon="9.91657583057927"><ele>66.0</ele><time>2026-04-26T08:01:45.998Z</time></trkpt><trkpt lat="44.95357839261066" lon="9.916664648440205"><ele>65.5</ele><time>2026-04-26T08:01:46.998Z</time></trkpt><trkpt lat="44.95364071956114" lon="9.916756599078546"><ele>65.0</ele><time>2026-04-26T08:01:47.998Z</time></trkpt><trkpt lat="44.95369989182107" lon="9.916846496113763"><ele>64.5</ele><time>2026-04-26T08:01:48.998Z</time></trkpt><trkpt lat="44.953759006084155" lon="9.91693952214501"><ele>64.0</ele><time>2026-04-26T08:01:49.998Z</time></trkpt><trkpt lat="44.953814312713625" lon="9.917036406687098"><ele>63.99999999999999</ele><time>2026-04-26T08:01:50.998Z</time></trkpt><trkpt lat="44.95386776308814" lon="9.917133878120858"><ele>64.0</ele><time>2026-04-26T08:01:51.998Z</time></trkpt><trkpt lat="44.95392380784223" lon="9.91723127542261"><ele>64.0</ele><time>2026-04-26T08:01:52.998Z</time></trkpt><trkpt lat="44.95397934378399" lon="9.917327482128531"><ele>64.0</ele><time>2026-04-26T08:01:53.998Z</time></trkpt><trkpt lat="44.954040108402275" lon="9.917423287029628"><ele>63.99999999999999</ele><time>2026-04-26T08:01:54.998Z</time></trkpt><trkpt lat="44.95409877438075" lon="9.917521544891718"><ele>64.0</ele><time>2026-04-26T08:01:55.998Z</time></trkpt><trkpt lat="44.95415964214503" lon="9.917616913223316"><ele>64.4</ele><time>2026-04-26T08:01:56.998Z</time></trkpt><trkpt lat="44.95422168107824" lon="9.917711710063818"><ele>64.80000000000001</ele><time>2026-04-26T08:01:57.998Z</time></trkpt><trkpt lat="44.95428238860624" lon="9.917808345863248"><ele>65.19999999999999</ele><time>2026-04-26T08:01:58.998Z</time></trkpt><trkpt lat="44.954346119817664" lon="9.917902851941172"><ele>65.6</ele><time>2026-04-26T08:01:59.998Z</time></trkpt><trkpt lat="44.95440657133358" lon="9.917998352632416"><ele>66.0</ele><time>2026-04-26T08:02:00.998Z</time></trkpt><trkpt lat="44.95446976973021" lon="9.918091626900312"><ele>66.0</ele><time>2026-04-26T08:02:01.998Z</time></trkpt><trkpt lat="44.95453055239526" lon="9.918188857481503"><ele>66.0</ele><time>2026-04-26T08:02:02.998Z</time></trkpt><trkpt lat="44.95459133746327" lon="9.918284804577924"><ele>66.0</ele><time>2026-04-26T08:02:03.998Z</time></trkpt><trkpt lat="44.95465268382737" lon="9.918380993540998"><ele>66.0</ele><time>2026-04-26T08:02:04.998Z</time></trkpt><trkpt lat="44.95471281431599" lon="9.918475545641087"><ele>66.0</ele><time>2026-04-26T08:02:05.998Z</time></trkpt><trkpt lat="44.954773371386445" lon="9.918570552476954"><ele>65.83333333333333</ele><time>2026-04-26T08:02:07Z</time></trkpt><trkpt lat="44.95483313575048" lon="9.918665544311256"><ele>65.66666666666667</ele><time>2026-04-26T08:02:08Z</time></trkpt><trkpt lat="44.95489254930824" lon="9.918761170051626"><ele>65.5</ele><time>2026-04-26T08:02:09Z</time></trkpt><trkpt lat="44.95495410215494" lon="9.918853863506062"><ele>65.33333333333334</ele><time>2026-04-26T08:02:10Z</time></trkpt><trkpt lat="44.95501455380563" lon="9.918949087027048"><ele>65.16666666666667</ele><time>2026-04-26T08:02:11Z</time></trkpt><trkpt lat="44.95507319508417" lon="9.919043738011307"><ele>65.0</ele><time>2026-04-26T08:02:12Z</time></trkpt><trkpt lat="44.95513416132516" lon="9.919138327190067"><ele>64.83333333333334</ele><time>2026-04-26T08:02:13Z</time></trkpt><trkpt lat="44.95519475806562" lon="9.919232942477574"><ele>64.66666666666667</ele><time>2026-04-26T08:02:14Z</time></trkpt><trkpt lat="44.95525713726329" lon="9.919328606475114"><ele>64.5</ele><time>2026-04-26T08:02:15Z</time></trkpt><trkpt lat="44.955322663204825" lon="9.919417339715807"><ele>64.33333333333333</ele><time>2026-04-26T08:02:16Z</time></trkpt><trkpt lat="44.95538773853101" lon="9.919501452645415"><ele>64.16666666666666</ele><time>2026-04-26T08:02:17Z</time></trkpt><trkpt lat="44.95545174481273" lon="9.919580661141675"><ele>64.0</ele><time>2026-04-26T08:02:18Z</time></trkpt><trkpt lat="44.95551745272596" lon="9.91965580534395"><ele>63.99999999999999</ele><time>2026-04-26T08:02:19Z</time></trkpt><trkpt lat="44.95558152527345" lon="9.919730730474775"><ele>64.0</ele><time>2026-04-26T08:02:20Z</time></trkpt><trkpt lat="44.95564434695401" lon="9.919804697162219"><ele>64.0</ele><time>2026-04-26T08:02:21Z</time></trkpt><trkpt lat="44.95570819219239" lon="9.91987698850107"><ele>64.0</ele><time>2026-04-26T08:02:22Z</time></trkpt><trkpt lat="44.955770232191206" lon="9.91994624496048"><ele>63.99999999999999</ele><time>2026-04-26T08:02:23Z</time></trkpt><trkpt lat="44.95583377017572" lon="9.920012486860848"><ele>64.0</ele><time>2026-04-26T08:02:24Z</time></trkpt><trkpt lat="44.955898526607626" lon="9.920081114106855"><ele>63.666666666666664</ele><time>2026-04-26T08:02:25Z</time></trkpt><trkpt lat="44.95596107830852" lon="9.920135114571714"><ele>63.33333333333333</ele><time>2026-04-26T08:02:26Z</time></trkpt><trkpt lat="44.95603027358467" lon="9.920195074586253"><ele>63.0</ele><time>2026-04-26T08:02:27Z</time></trkpt><trkpt lat="44.956096497675645" lon="9.920251562447113"><ele>62.66666666666667</ele><time>2026-04-26T08:02:28Z</time></trkpt><trkpt lat="44.95616253689592" lon="9.920306987833635"><ele>62.333333333333336</ele><time>2026-04-26T08:02:29Z</time></trkpt><trkpt lat="44.95624248850363" lon="9.920361633425065"><ele>62.0</ele><time>2026-04-26T08:02:30Z</time></trkpt><trkpt lat="44.95629920174669" lon="9.920426090671313"><ele>62.00000000000001</ele><time>2026-04-26T08:02:31Z</time></trkpt><trkpt lat="44.956367851208235" lon="9.92048236929516"><ele>62.0</ele><time>2026-04-26T08:02:32Z</time></trkpt><trkpt lat="44.95643811595743" lon="9.920546462563097"><ele>62.0</ele><time>2026-04-26T08:02:33Z</time></trkpt><trkpt lat="44.95650861974785" lon="9.920608139857164"><ele>62.0</ele><time>2026-04-26T08:02:34Z</time></trkpt><trkpt lat="44.95657550014797" lon="9.920675158884723"><ele>62.00000000000001</ele><time>2026-04-26T08:02:35Z</time></trkpt><trkpt lat="44.956647316994754" lon="9.920757202681997"><ele>62.0</ele><time>2026-04-26T08:02:36Z</time></trkpt><trkpt lat="44.95671513142144" lon="9.920837462523815"><ele>62.6</ele><time>2026-04-26T08:02:37Z</time></trkpt><trkpt lat="44.95678204737447" lon="9.920934521384071"><ele>63.2</ele><time>2026-04-26T08:02:38Z</time></trkpt><trkpt lat="44.95685266591768" lon="9.921034242881849"><ele>63.8</ele><time>2026-04-26T08:02:39Z</time></trkpt><trkpt lat="44.956921376230355" lon="9.921138252588337"><ele>64.4</ele><time>2026-04-26T08:02:40Z</time></trkpt><trkpt lat="44.95699148663841" lon="9.921246303455813"><ele>65.0</ele><time>2026-04-26T08:02:41Z</time></trkpt><trkpt lat="44.95706588566504" lon="9.921358792040479"><ele>65.0</ele><time>2026-04-26T08:02:42Z</time></trkpt><trkpt lat="44.95714356360674" lon="9.921470200276183"><ele>65.0</ele><time>2026-04-26T08:02:43Z</time></trkpt><trkpt lat="44.95722835187071" lon="9.921575188129347"><ele>65.0</ele><time>2026-04-26T08:02:44Z</time></trkpt><trkpt lat="44.95731973432057" lon="9.921674072274389"><ele>65.0</ele><time>2026-04-26T08:02:45Z</time></trkpt><trkpt lat="44.9574176497915" lon="9.921764829211677"><ele>64.4</ele><time>2026-04-26T08:02:46Z</time></trkpt><trkpt lat="44.95751529827677" lon="9.921848926897955"><ele>63.8</ele><time>2026-04-26T08:02:47Z</time></trkpt><trkpt lat="44.957612463086605" lon="9.921932238406194"><ele>63.2</ele><time>2026-04-26T08:02:48Z</time></trkpt><trkpt lat="44.95770284367995" lon="9.922005268647288"><ele>62.6</ele><time>2026-04-26T08:02:49Z</time></trkpt><trkpt lat="44.95779159360102" lon="9.922080130211036"><ele>62.0</ele><time>2026-04-26T08:02:50Z</time></trkpt><trkpt lat="44.95787977927516" lon="9.922146644644101"><ele>62.0</ele><time>2026-04-26T08:02:51Z</time></trkpt><trkpt lat="44.957963250577606" lon="9.922213243382519"><ele>62.0</ele><time>2026-04-26T08:02:52Z</time></trkpt><trkpt lat="44.95804273937032" lon="9.922281793368466"><ele>62.0</ele><time>2026-04-26T08:02:53Z</time></trkpt><trkpt lat="44.95811972514504" lon="9.922355364693088"><ele>62.0</ele><time>2026-04-26T08:02:54Z</time></trkpt><trkpt lat="44.95819635059106" lon="9.922428827938846"><ele>62.0</ele><time>2026-04-26T08:02:54.999Z</time></trkpt><trkpt lat="44.958269537325116" lon="9.922506747984144"><ele>62.2</ele><time>2026-04-26T08:02:55.999Z</time></trkpt><trkpt lat="44.9583458410206" lon="9.922586381584223"><ele>62.400000000000006</ele><time>2026-04-26T08:02:56.999Z</time></trkpt><trkpt lat="44.958423341193146" lon="9.92266674593765"><ele>62.599999999999994</ele><time>2026-04-26T08:02:57.999Z</time></trkpt><trkpt lat="44.95849984313719" lon="9.922749562942611"><ele>62.8</ele><time>2026-04-26T08:02:58.999Z</time></trkpt><trkpt lat="44.95857611690682" lon="9.922829165403014"><ele>63.0</ele><time>2026-04-26T08:02:59.999Z</time></trkpt><trkpt lat="44.958654355380766" lon="9.922903837526398"><ele>63.0</ele><time>2026-04-26T08:03:00.999Z</time></trkpt><trkpt lat="44.95872925274156" lon="9.9229784202644"><ele>63.0</ele><time>2026-04-26T08:03:01.999Z</time></trkpt><trkpt lat="44.95880258823372" lon="9.923049467480158"><ele>63.0</ele><time>2026-04-26T08:03:02.999Z</time></trkpt><trkpt lat="44.95888333694163" lon="9.923118262424056"><ele>63.0</ele><time>2026-04-26T08:03:03.999Z</time></trkpt><trkpt lat="44.95896248108028" lon="9.923187581854714"><ele>63.0</ele><time>2026-04-26T08:03:04.999Z</time></trkpt><trkpt lat="44.95904385673919" lon="9.923251498697182"><ele>63.0</ele><time>2026-04-26T08:03:05.999Z</time></trkpt><trkpt lat="44.95912227360475" lon="9.923314293972842"><ele>63.0</ele><time>2026-04-26T08:03:06.999Z</time></trkpt><trkpt lat="44.95920033788692" lon="9.923381110345563"><ele>63.0</ele><time>2026-04-26T08:03:07.999Z</time></trkpt><trkpt lat="44.959276748885415" lon="9.92344614178063"><ele>63.0</ele><time>2026-04-26T08:03:08.999Z</time></trkpt><trkpt lat="44.95935343410435" lon="9.9235127201287"><ele>63.0</ele><time>2026-04-26T08:03:09.999Z</time></trkpt><trkpt lat="44.95943222762577" lon="9.923574061499554"><ele>62.5</ele><time>2026-04-26T08:03:10.999Z</time></trkpt><trkpt lat="44.9595130820643" lon="9.923628960444091"><ele>62.0</ele><time>2026-04-26T08:03:11.999Z</time></trkpt><trkpt lat="44.95959377389716" lon="9.92368042145211"><ele>61.5</ele><time>2026-04-26T08:03:12.999Z</time></trkpt><trkpt lat="44.959674164929474" lon="9.923735804067253"><ele>61.0</ele><time>2026-04-26T08:03:13.999Z</time></trkpt><trkpt lat="44.959756671894176" lon="9.923790881133165"><ele>60.5</ele><time>2026-04-26T08:03:14.999Z</time></trkpt><trkpt lat="44.959838847137476" lon="9.923842261059148"><ele>60.0</ele><time>2026-04-26T08:03:15.999Z</time></trkpt><trkpt lat="44.95992202727235" lon="9.923892071954844"><ele>60.0</ele><time>2026-04-26T08:03:16.999Z</time></trkpt><trkpt lat="44.96000588052259" lon="9.923945390116781"><ele>60.0</ele><time>2026-04-26T08:03:17.999Z</time></trkpt><trkpt lat="44.96008574990674" lon="9.923996524837158"><ele>60.0</ele><time>2026-04-26T08:03:18.999Z</time></trkpt><trkpt lat="44.9601689357677" lon="9.924045654798224"><ele>60.0</ele><time>2026-04-26T08:03:19.999Z</time></trkpt><trkpt lat="44.960252665989664" lon="9.92409949664934"><ele>60.0</ele><time>2026-04-26T08:03:20.999Z</time></trkpt><trkpt lat="44.96033287461661" lon="9.924146991093362"><ele>60.0</ele><time>2026-04-26T08:03:21.999Z</time></trkpt><trkpt lat="44.96041493466712" lon="9.924200508063883"><ele>60.166666666666664</ele><time>2026-04-26T08:03:22.999Z</time></trkpt><trkpt lat="44.96049544805183" lon="9.924251686553035"><ele>60.33333333333333</ele><time>2026-04-26T08:03:23.999Z</time></trkpt><trkpt lat="44.960577788271074" lon="9.924299824033524"><ele>60.5</ele><time>2026-04-26T08:03:24.999Z</time></trkpt><trkpt lat="44.96065614748183" lon="9.924352364837105"><ele>60.666666666666664</ele><time>2026-04-26T08:03:25.999Z</time></trkpt><trkpt lat="44.960740030036774" lon="9.924400201864552"><ele>60.83333333333333</ele><time>2026-04-26T08:03:26.999Z</time></trkpt><trkpt lat="44.9608197748327" lon="9.924455745225059"><ele>61.0</ele><time>2026-04-26T08:03:27.999Z</time></trkpt><trkpt lat="44.960901576635905" lon="9.9245037937816"><ele>61.166666666666664</ele><time>2026-04-26T08:03:28.999Z</time></trkpt><trkpt lat="44.960982253847405" lon="9.924555760318235"><ele>61.33333333333333</ele><time>2026-04-26T08:03:29.999Z</time></trkpt><trkpt lat="44.96106360732281" lon="9.924601848931346"><ele>61.5</ele><time>2026-04-26T08:03:30.999Z</time></trkpt><trkpt lat="44.96114278690273" lon="9.924656496263868"><ele>61.66666666666667</ele><time>2026-04-26T08:03:31.999Z</time></trkpt><trkpt lat="44.96122435824324" lon="9.924704764769293"><ele>61.833333333333336</ele><time>2026-04-26T08:03:32.999Z</time></trkpt><trkpt lat="44.96130549092648" lon="9.924753492702756"><ele>62.0</ele><time>2026-04-26T08:03:33.999Z</time></trkpt><trkpt lat="44.96138525038273" lon="9.924802946646412"><ele>62.00000000000001</ele><time>2026-04-26T08:03:34.999Z</time></trkpt><trkpt lat="44.961465195910705" lon="9.924856700043547"><ele>62.0</ele><time>2026-04-26T08:03:35.999Z</time></trkpt><trkpt lat="44.96154387647005" lon="9.924909824549434"><ele>62.0</ele><time>2026-04-26T08:03:36.999Z</time></trkpt><trkpt lat="44.961624993338674" lon="9.924961290781606"><ele>62.0</ele><time>2026-04-26T08:03:37.999Z</time></trkpt><trkpt lat="44.96170645700446" lon="9.925011712977954"><ele>62.00000000000001</ele><time>2026-04-26T08:03:38.999Z</time></trkpt><trkpt lat="44.961787191795565" lon="9.925058082248174"><ele>62.0</ele><time>2026-04-26T08:03:39.999Z</time></trkpt><trkpt lat="44.9618686169958" lon="9.925111491757477"><ele>61.66666666666667</ele><time>2026-04-26T08:03:40.999Z</time></trkpt><trkpt lat="44.961948412221744" lon="9.925161080297002"><ele>61.333333333333336</ele><time>2026-04-26T08:03:41.999Z</time></trkpt><trkpt lat="44.962027796712505" lon="9.925217622872246"><ele>61.0</ele><time>2026-04-26T08:03:42.999Z</time></trkpt><trkpt lat="44.96210555757095" lon="9.925269951681845"><ele>60.66666666666667</ele><time>2026-04-26T08:03:43.999Z</time></trkpt><trkpt lat="44.96218405342703" lon="9.9253288574678"><ele>60.333333333333336</ele><time>2026-04-26T08:03:44.999Z</time></trkpt><trkpt lat="44.962259060053704" lon="9.925390508785656"><ele>60.0</ele><time>2026-04-26T08:03:45.999Z</time></trkpt><trkpt lat="44.96232914117375" lon="9.925462509863715"><ele>60.0</ele><time>2026-04-26T08:03:46.999Z</time></trkpt><trkpt lat="44.96238959006856" lon="9.92555276571433"><ele>60.0</ele><time>2026-04-26T08:03:47.999Z</time></trkpt><trkpt lat="44.96243809298899" lon="9.925658081658131"><ele>60.0</ele><time>2026-04-26T08:03:48.998Z</time></trkpt><trkpt lat="44.96248413067319" lon="9.925762312596708"><ele>60.0</ele><time>2026-04-26T08:03:49.998Z</time></trkpt><trkpt lat="44.96251049388961" lon="9.925882090565901"><ele>60.0</ele><time>2026-04-26T08:03:50.998Z</time></trkpt><trkpt lat="44.96254254987275" lon="9.925994673854085"><ele>60.0</ele><time>2026-04-26T08:03:51.998Z</time></trkpt><trkpt lat="44.962560026921516" lon="9.926109172804793"><ele>59.6</ele><time>2026-04-26T08:03:52.998Z</time></trkpt><trkpt lat="44.96255775314206" lon="9.926226861458058"><ele>59.2</ele><time>2026-04-26T08:03:53.998Z</time></trkpt><trkpt lat="44.96255862800688" lon="9.926352163092236"><ele>58.8</ele><time>2026-04-26T08:03:54.998Z</time></trkpt><trkpt lat="44.96258007259651" lon="9.926481538689108"><ele>58.4</ele><time>2026-04-26T08:03:55.998Z</time></trkpt><trkpt lat="44.96263103431097" lon="9.926597556858395"><ele>58.0</ele><time>2026-04-26T08:03:56.998Z</time></trkpt><trkpt lat="44.96271441004075" lon="9.926676629489025"><ele>58.166666666666664</ele><time>2026-04-26T08:03:57.998Z</time></trkpt><trkpt lat="44.96278593487522" lon="9.92675510276258"><ele>58.33333333333333</ele><time>2026-04-26T08:03:58.998Z</time></trkpt><trkpt lat="44.96284274961842" lon="9.926853380370328"><ele>58.5</ele><time>2026-04-26T08:03:59.998Z</time></trkpt><trkpt lat="44.96290712482684" lon="9.926937219302756"><ele>58.66666666666667</ele><time>2026-04-26T08:04:00.998Z</time></trkpt><trkpt lat="44.96297272685655" lon="9.927022656094767"><ele>58.833333333333336</ele><time>2026-04-26T08:04:01.998Z</time></trkpt><trkpt lat="44.96305183942369" lon="9.92708513429185"><ele>59.0</ele><time>2026-04-26T08:04:02.998Z</time></trkpt><trkpt lat="44.963112610834195" lon="9.92717258450288"><ele>59.00000000000001</ele><time>2026-04-26T08:04:03.998Z</time></trkpt><trkpt lat="44.96317392089957" lon="9.927262142472522"><ele>59.0</ele><time>2026-04-26T08:04:04.998Z</time></trkpt><trkpt lat="44.96323822504999" lon="9.927347915786129"><ele>59.0</ele><time>2026-04-26T08:04:05.998Z</time></trkpt><trkpt lat="44.9633052816657" lon="9.927432936961058"><ele>59.0</ele><time>2026-04-26T08:04:06.998Z</time></trkpt><trkpt lat="44.96337268723806" lon="9.927515030454613"><ele>59.00000000000001</ele><time>2026-04-26T08:04:07.998Z</time></trkpt><trkpt lat="44.96344708038362" lon="9.927587050911871"><ele>59.0</ele><time>2026-04-26T08:04:08.998Z</time></trkpt><trkpt lat="44.963525286776026" lon="9.927650398023147"><ele>59.16666666666667</ele><time>2026-04-26T08:04:09.998Z</time></trkpt><trkpt lat="44.96360389951777" lon="9.927709756871751"><ele>59.333333333333336</ele><time>2026-04-26T08:04:10.998Z</time></trkpt><trkpt lat="44.963686139940016" lon="9.927767184020043"><ele>59.5</ele><time>2026-04-26T08:04:11.998Z</time></trkpt><trkpt lat="44.96376553097824" lon="9.927823643915088"><ele>59.66666666666667</ele><time>2026-04-26T08:04:13Z</time></trkpt><trkpt lat="44.96384564789202" lon="9.92788202560579"><ele>59.833333333333336</ele><time>2026-04-26T08:04:14Z</time></trkpt><trkpt lat="44.963922530528095" lon="9.927946886917649"><ele>60.0</ele><time>2026-04-26T08:04:15Z</time></trkpt><trkpt lat="44.963985412186474" lon="9.928036167828981"><ele>60.0</ele><time>2026-04-26T08:04:16Z</time></trkpt><trkpt lat="44.96404786974819" lon="9.92812429836609"><ele>60.0</ele><time>2026-04-26T08:04:17Z</time></trkpt><trkpt lat="44.96409552955005" lon="9.928221384368692"><ele>60.0</ele><time>2026-04-26T08:04:18Z</time></trkpt><trkpt lat="44.964133165021416" lon="9.928330764435469"><ele>60.0</ele><time>2026-04-26T08:04:19Z</time></trkpt><trkpt lat="44.96416662511012" lon="9.928441573628811"><ele>60.0</ele><time>2026-04-26T08:04:20Z</time></trkpt><trkpt lat="44.96420213334193" lon="9.928556040244436"><ele>60.0</ele><time>2026-04-26T08:04:21Z</time></trkpt><trkpt lat="44.96423471929918" lon="9.928668985514937"><ele>60.4</ele><time>2026-04-26T08:04:22Z</time></trkpt><trkpt lat="44.96427624844911" lon="9.928783152488537"><ele>60.8</ele><time>2026-04-26T08:04:23Z</time></trkpt><trkpt lat="44.964342785912535" lon="9.928872130729662"><ele>61.2</ele><time>2026-04-26T08:04:24Z</time></trkpt><trkpt lat="44.96440519712987" lon="9.928961184240874"><ele>61.6</ele><time>2026-04-26T08:04:25Z</time></trkpt><trkpt lat="44.964479781540724" lon="9.929034347061462"><ele>62.0</ele><time>2026-04-26T08:04:26Z</time></trkpt><trkpt lat="44.96456136999523" lon="9.929091029973167"><ele>62.0</ele><time>2026-04-26T08:04:27Z</time></trkpt><trkpt lat="44.96464604669085" lon="9.929139520089763"><ele>62.0</ele><time>2026-04-26T08:04:28Z</time></trkpt><trkpt lat="44.96472637700255" lon="9.929192681847999"><ele>62.0</ele><time>2026-04-26T08:04:29Z</time></trkpt><trkpt lat="44.96480651303113" lon="9.929247850567583"><ele>62.0</ele><time>2026-04-26T08:04:30Z</time></trkpt><trkpt lat="44.96488944915804" lon="9.929304273603426"><ele>62.0</ele><time>2026-04-26T08:04:31Z</time></trkpt><trkpt lat="44.964960129747396" lon="9.929385735490321"><ele>61.66666666666667</ele><time>2026-04-26T08:04:32Z</time></trkpt><trkpt lat="44.96504973009428" lon="9.929417165348216"><ele>61.333333333333336</ele><time>2026-04-26T08:04:33Z</time></trkpt><trkpt lat="44.965128109851385" lon="9.929472259906335"><ele>61.0</ele><time>2026-04-26T08:04:34Z</time></trkpt><trkpt lat="44.96521010827324" lon="9.929531548311273"><ele>60.66666666666667</ele><time>2026-04-26T08:04:35Z</time></trkpt><trkpt lat="44.96528742946438" lon="9.929587323727004"><ele>60.333333333333336</ele><time>2026-04-26T08:04:36Z</time></trkpt><trkpt lat="44.965365945657936" lon="9.929643572491505"><ele>60.0</ele><time>2026-04-26T08:04:37Z</time></trkpt><trkpt lat="44.965445118209246" lon="9.929699502402443"><ele>60.0</ele><time>2026-04-26T08:04:38Z</time></trkpt><trkpt lat="44.9655241058099" lon="9.929758603152408"><ele>60.0</ele><time>2026-04-26T08:04:39Z</time></trkpt><trkpt lat="44.96560417479704" lon="9.929816062610707"><ele>60.0</ele><time>2026-04-26T08:04:40Z</time></trkpt><trkpt lat="44.965685578546044" lon="9.929871836364413"><ele>60.0</ele><time>2026-04-26T08:04:41Z</time></trkpt><trkpt lat="44.96576436012043" lon="9.929926672277064"><ele>60.0</ele><time>2026-04-26T08:04:42Z</time></trkpt><trkpt lat="44.96584330912163" lon="9.929984024134773"><ele>60.0</ele><time>2026-04-26T08:04:43Z</time></trkpt><trkpt lat="44.965925503596296" lon="9.930044468237735"><ele>60.2</ele><time>2026-04-26T08:04:44Z</time></trkpt><trkpt lat="44.96600535970984" lon="9.930103524845803"><ele>60.4</ele><time>2026-04-26T08:04:45Z</time></trkpt><trkpt lat="44.966085976665525" lon="9.930160350587599"><ele>60.599999999999994</ele><time>2026-04-26T08:04:46Z</time></trkpt><trkpt lat="44.966164641667994" lon="9.930222112182218"><ele>60.8</ele><time>2026-04-26T08:04:47Z</time></trkpt><trkpt lat="44.966246662305764" lon="9.930277485689597"><ele>61.0</ele><time>2026-04-26T08:04:48Z</time></trkpt><trkpt lat="44.96632593987718" lon="9.930334171051884"><ele>60.99999999999999</ele><time>2026-04-26T08:04:49Z</time></trkpt><trkpt lat="44.96640762684074" lon="9.930392060364257"><ele>61.0</ele><time>2026-04-26T08:04:50Z</time></trkpt><trkpt lat="44.966487735558786" lon="9.930449517057795"><ele>61.0</ele><time>2026-04-26T08:04:51Z</time></trkpt><trkpt lat="44.966567410209585" lon="9.930507257579208"><ele>61.0</ele><time>2026-04-26T08:04:52Z</time></trkpt><trkpt lat="44.9666510023157" lon="9.930565789196578"><ele>60.99999999999999</ele><time>2026-04-26T08:04:53Z</time></trkpt><trkpt lat="44.96672802294094" lon="9.93061730312851"><ele>61.0</ele><time>2026-04-26T08:04:54Z</time></trkpt><trkpt lat="44.96680972408134" lon="9.930678090438613"><ele>60.8</ele><time>2026-04-26T08:04:55Z</time></trkpt><trkpt lat="44.96689061858828" lon="9.930734927914495"><ele>60.599999999999994</ele><time>2026-04-26T08:04:56Z</time></trkpt><trkpt lat="44.96697181163458" lon="9.93078874524972"><ele>60.4</ele><time>2026-04-26T08:04:57Z</time></trkpt><trkpt lat="44.967055140575916" lon="9.930845130096088"><ele>60.2</ele><time>2026-04-26T08:04:58Z</time></trkpt><trkpt lat="44.9671386443578" lon="9.930894194162075"><ele>60.0</ele><time>2026-04-26T08:04:58.999Z</time></trkpt><trkpt lat="44.96722331083596" lon="9.9309415048568"><ele>60.0</ele><time>2026-04-26T08:04:59.999Z</time></trkpt><trkpt lat="44.96730895824162" lon="9.930987438815931"><ele>60.0</ele><time>2026-04-26T08:05:00.999Z</time></trkpt><trkpt lat="44.967394042199" lon="9.931031591636426"><ele>60.0</ele><time>2026-04-26T08:05:01.999Z</time></trkpt><trkpt lat="44.96748154856392" lon="9.931075955154933"><ele>60.0</ele><time>2026-04-26T08:05:02.999Z</time></trkpt><trkpt lat="44.967567380981585" lon="9.931117774386262"><ele>60.0</ele><time>2026-04-26T08:05:03.999Z</time></trkpt><trkpt lat="44.96765284280933" lon="9.931161905916742"><ele>60.2</ele><time>2026-04-26T08:05:04.999Z</time></trkpt><trkpt lat="44.96774027511799" lon="9.931205654255983"><ele>60.4</ele><time>2026-04-26T08:05:05.999Z</time></trkpt><trkpt lat="44.967825744181525" lon="9.931247186636874"><ele>60.599999999999994</ele><time>2026-04-26T08:05:06.999Z</time></trkpt><trkpt lat="44.967911472201145" lon="9.931289563300982"><ele>60.8</ele><time>2026-04-26T08:05:07.999Z</time></trkpt><trkpt lat="44.96799657616066" lon="9.931333017426395"><ele>61.0</ele><time>2026-04-26T08:05:08.999Z</time></trkpt><trkpt lat="44.96808223622991" lon="9.931375005199168"><ele>61.0</ele><time>2026-04-26T08:05:09.999Z</time></trkpt><trkpt lat="44.96816876467566" lon="9.931418179242634"><ele>60.99999999999999</ele><time>2026-04-26T08:05:10.999Z</time></trkpt><trkpt lat="44.968252097656574" lon="9.931457362268684"><ele>60.99999999999999</ele><time>2026-04-26T08:05:11.999Z</time></trkpt><trkpt lat="44.96833841891078" lon="9.931500918161674"><ele>61.0</ele><time>2026-04-26T08:05:12.999Z</time></trkpt><trkpt lat="44.96842408948401" lon="9.931540298572488"><ele>61.0</ele><time>2026-04-26T08:05:13.999Z</time></trkpt><trkpt lat="44.96850881993549" lon="9.931576970539997"><ele>60.199999999999996</ele><time>2026-04-26T08:05:14.999Z</time></trkpt><trkpt lat="44.96859630446675" lon="9.931614860659687"><ele>59.39999999999999</ele><time>2026-04-26T08:05:15.999Z</time></trkpt><trkpt lat="44.9686824168185" lon="9.931648361855594"><ele>58.6</ele><time>2026-04-26T08:05:16.999Z</time></trkpt><trkpt lat="44.968770660053835" lon="9.93167596868478"><ele>57.8</ele><time>2026-04-26T08:05:17.999Z</time></trkpt><trkpt lat="44.96886095674217" lon="9.931702837718646"><ele>57.0</ele><time>2026-04-26T08:05:18.999Z</time></trkpt><trkpt lat="44.96894883544555" lon="9.931730267308284"><ele>57.0</ele><time>2026-04-26T08:05:19.999Z</time></trkpt><trkpt lat="44.969037247667515" lon="9.93175758631201"><ele>57.0</ele><time>2026-04-26T08:05:20.999Z</time></trkpt><trkpt lat="44.96912443938652" lon="9.931783317563076"><ele>57.0</ele><time>2026-04-26T08:05:21.999Z</time></trkpt><trkpt lat="44.969210903700656" lon="9.931811857465133"><ele>57.0</ele><time>2026-04-26T08:05:22.999Z</time></trkpt><trkpt lat="44.9692995725769" lon="9.931844321557367"><ele>57.0</ele><time>2026-04-26T08:05:23.999Z</time></trkpt><trkpt lat="44.96938640322119" lon="9.931868919971357"><ele>57.0</ele><time>2026-04-26T08:05:24.999Z</time></trkpt><trkpt lat="44.969473429202374" lon="9.931896321935461"><ele>56.8</ele><time>2026-04-26T08:05:25.999Z</time></trkpt><trkpt lat="44.96956186891611" lon="9.931921286303425"><ele>56.6</ele><time>2026-04-26T08:05:26.999Z</time></trkpt><trkpt lat="44.969650782282834" lon="9.931947124719311"><ele>56.39999999999999</ele><time>2026-04-26T08:05:27.999Z</time></trkpt><trkpt lat="44.96974079312407" lon="9.93197452545733"><ele>56.199999999999996</ele><time>2026-04-26T08:05:28.999Z</time></trkpt><trkpt lat="44.9698286567665" lon="9.931999510260493"><ele>56.0</ele><time>2026-04-26T08:05:29.999Z</time></trkpt><trkpt lat="44.96991836782998" lon="9.932028911262902"><ele>56.00000000000001</ele><time>2026-04-26T08:05:30.999Z</time></trkpt><trkpt lat="44.970005295025" lon="9.932056641679033"><ele>56.0</ele><time>2026-04-26T08:05:31.999Z</time></trkpt><trkpt lat="44.97009386252754" lon="9.932082215822252"><ele>56.0</ele><time>2026-04-26T08:05:32.999Z</time></trkpt><trkpt lat="44.97018344833441" lon="9.932107242926634"><ele>56.0</ele><time>2026-04-26T08:05:33.999Z</time></trkpt><trkpt lat="44.97027059436775" lon="9.932134583908583"><ele>56.00000000000001</ele><time>2026-04-26T08:05:34.999Z</time></trkpt><trkpt lat="44.970356811406724" lon="9.932161211599583"><ele>56.0</ele><time>2026-04-26T08:05:35.999Z</time></trkpt><trkpt lat="44.97044614323081" lon="9.932182719825496"><ele>55.66666666666667</ele><time>2026-04-26T08:05:36.999Z</time></trkpt><trkpt lat="44.97053276468611" lon="9.932205554029608"><ele>55.333333333333336</ele><time>2026-04-26T08:05:37.999Z</time></trkpt><trkpt lat="44.970621622260815" lon="9.932233862794018"><ele>55.0</ele><time>2026-04-26T08:05:38.999Z</time></trkpt><trkpt lat="44.97070720049168" lon="9.932260233224028"><ele>54.66666666666667</ele><time>2026-04-26T08:05:39.999Z</time></trkpt><trkpt lat="44.97079421587957" lon="9.932289681866932"><ele>54.333333333333336</ele><time>2026-04-26T08:05:40.999Z</time></trkpt><trkpt lat="44.9708808796483" lon="9.932315034408076"><ele>54.0</ele><time>2026-04-26T08:05:41.999Z</time></trkpt><trkpt lat="44.970967927340865" lon="9.932340737311538"><ele>54.0</ele><time>2026-04-26T08:05:42.999Z</time></trkpt><trkpt lat="44.97105462855037" lon="9.932366967351678"><ele>54.0</ele><time>2026-04-26T08:05:43.999Z</time></trkpt><trkpt lat="44.97114098922551" lon="9.932392843032378"><ele>54.0</ele><time>2026-04-26T08:05:44.999Z</time></trkpt><trkpt lat="44.97122968201046" lon="9.93241598520051"><ele>54.0</ele><time>2026-04-26T08:05:45.999Z</time></trkpt><trkpt lat="44.971316886226475" lon="9.932446071455772"><ele>54.0</ele><time>2026-04-26T08:05:46.999Z</time></trkpt><trkpt lat="44.97140366263183" lon="9.932472384772726"><ele>54.0</ele><time>2026-04-26T08:05:47.999Z</time></trkpt><trkpt lat="44.97149152909938" lon="9.93250199526388"><ele>54.0</ele><time>2026-04-26T08:05:48.999Z</time></trkpt><trkpt lat="44.97157813943694" lon="9.932528029371685"><ele>54.0</ele><time>2026-04-26T08:05:49.999Z</time></trkpt><trkpt lat="44.97166573165442" lon="9.932553859505864"><ele>54.0</ele><time>2026-04-26T08:05:50.999Z</time></trkpt><trkpt lat="44.97175329338868" lon="9.932578923663385"><ele>54.0</ele><time>2026-04-26T08:05:51.999Z</time></trkpt><trkpt lat="44.97183997882864" lon="9.932606347543418"><ele>54.0</ele><time>2026-04-26T08:05:52.998Z</time></trkpt><trkpt lat="44.97192630788856" lon="9.932634353867131"><ele>54.0</ele><time>2026-04-26T08:05:53.998Z</time></trkpt><trkpt lat="44.97201354159414" lon="9.93265989216159"><ele>54.166666666666664</ele><time>2026-04-26T08:05:54.998Z</time></trkpt><trkpt lat="44.972100459060506" lon="9.932687054472053"><ele>54.33333333333333</ele><time>2026-04-26T08:05:55.998Z</time></trkpt><trkpt lat="44.97218735229799" lon="9.932714077834197"><ele>54.5</ele><time>2026-04-26T08:05:56.998Z</time></trkpt><trkpt lat="44.97227304220423" lon="9.932740773407662"><ele>54.666666666666664</ele><time>2026-04-26T08:05:57.998Z</time></trkpt><trkpt lat="44.972361791430075" lon="9.932766002685671"><ele>54.83333333333333</ele><time>2026-04-26T08:05:58.998Z</time></trkpt><trkpt lat="44.97244837366678" lon="9.93279162215063"><ele>55.0</ele><time>2026-04-26T08:05:59.998Z</time></trkpt><trkpt lat="44.972536661031825" lon="9.932820692648512"><ele>55.0</ele><time>2026-04-26T08:06:00.998Z</time></trkpt><trkpt lat="44.97262380352581" lon="9.932847786367324"><ele>55.0</ele><time>2026-04-26T08:06:01.998Z</time></trkpt><trkpt lat="44.97271150272446" lon="9.932877451544615"><ele>55.0</ele><time>2026-04-26T08:06:02.998Z</time></trkpt><trkpt lat="44.97280152328422" lon="9.93290489158127"><ele>55.0</ele><time>2026-04-26T08:06:03.998Z</time></trkpt><trkpt lat="44.97288955897837" lon="9.93293119757678"><ele>55.0</ele><time>2026-04-26T08:06:04.998Z</time></trkpt><trkpt lat="44.9729782329251" lon="9.932957071910993"><ele>55.0</ele><time>2026-04-26T08:06:05.998Z</time></trkpt><trkpt lat="44.9730669350804" lon="9.932982568422178"><ele>55.0</ele><time>2026-04-26T08:06:06.998Z</time></trkpt><trkpt lat="44.97315565195064" lon="9.933011436861891"><ele>55.0</ele><time>2026-04-26T08:06:07.998Z</time></trkpt><trkpt lat="44.97324333195059" lon="9.933035518922136"><ele>55.0</ele><time>2026-04-26T08:06:08.998Z</time></trkpt><trkpt lat="44.973331656592194" lon="9.93305938502021"><ele>55.0</ele><time>2026-04-26T08:06:09.998Z</time></trkpt><trkpt lat="44.97341991818177" lon="9.93308621839414"><ele>54.99999999999999</ele><time>2026-04-26T08:06:10.998Z</time></trkpt><trkpt lat="44.97350830647522" lon="9.93311070753401"><ele>55.0</ele><time>2026-04-26T08:06:11.998Z</time></trkpt><trkpt lat="44.973595124152986" lon="9.933136688698532"><ele>55.0</ele><time>2026-04-26T08:06:12.998Z</time></trkpt><trkpt lat="44.97368065696876" lon="9.933163891390759"><ele>55.0</ele><time>2026-04-26T08:06:13.998Z</time></trkpt><trkpt lat="44.97376991847448" lon="9.93318765139616"><ele>54.99999999999999</ele><time>2026-04-26T08:06:14.998Z</time></trkpt><trkpt lat="44.97385481643497" lon="9.933214431541348"><ele>55.0</ele><time>2026-04-26T08:06:15.998Z</time></trkpt><trkpt lat="44.97394137231032" lon="9.933241622800878"><ele>54.99999999999999</ele><time>2026-04-26T08:06:16.998Z</time></trkpt><trkpt lat="44.97402703348657" lon="9.93326855249276"><ele>55.0</ele><time>2026-04-26T08:06:17.998Z</time></trkpt><trkpt lat="44.97411391302775" lon="9.933295635511463"><ele>55.0</ele><time>2026-04-26T08:06:19Z</time></trkpt><trkpt lat="44.97419963794961" lon="9.933320012342861"><ele>55.0</ele><time>2026-04-26T08:06:20Z</time></trkpt><trkpt lat="44.97428673069986" lon="9.933346500597716"><ele>54.99999999999999</ele><time>2026-04-26T08:06:21Z</time></trkpt><trkpt lat="44.97437320873716" lon="9.933369964766536"><ele>55.0</ele><time>2026-04-26T08:06:22Z</time></trkpt><trkpt lat="44.97446097599601" lon="9.933397952383283"><ele>54.666666666666664</ele><time>2026-04-26T08:06:23Z</time></trkpt><trkpt lat="44.97454595055777" lon="9.933423146261802"><ele>54.33333333333333</ele><time>2026-04-26T08:06:24Z</time></trkpt><trkpt lat="44.97463232669204" lon="9.933450177038644"><ele>54.0</ele><time>2026-04-26T08:06:25Z</time></trkpt><trkpt lat="44.97471925359191" lon="9.933474049326952"><ele>53.66666666666667</ele><time>2026-04-26T08:06:26Z</time></trkpt><trkpt lat="44.97480514722384" lon="9.933499062640673"><ele>53.333333333333336</ele><time>2026-04-26T08:06:27Z</time></trkpt><trkpt lat="44.974890708093" lon="9.933522332628693"><ele>53.0</ele><time>2026-04-26T08:06:28Z</time></trkpt><trkpt lat="44.974975675397815" lon="9.93354572956804"><ele>53.00000000000001</ele><time>2026-04-26T08:06:29Z</time></trkpt><trkpt lat="44.97506144137493" lon="9.933570761892058"><ele>53.0</ele><time>2026-04-26T08:06:30Z</time></trkpt><trkpt lat="44.97514605384594" lon="9.933599468577151"><ele>53.0</ele><time>2026-04-26T08:06:31Z</time></trkpt><trkpt lat="44.97523045568676" lon="9.933626559809058"><ele>53.0</ele><time>2026-04-26T08:06:32Z</time></trkpt><trkpt lat="44.975315864683445" lon="9.933653555658898"><ele>53.00000000000001</ele><time>2026-04-26T08:06:33Z</time></trkpt><trkpt lat="44.97540014211911" lon="9.933678463577243"><ele>53.0</ele><time>2026-04-26T08:06:34Z</time></trkpt><trkpt lat="44.97548511831452" lon="9.933704291497083"><ele>53.00000000000001</ele><time>2026-04-26T08:06:35Z</time></trkpt><trkpt lat="44.975570942302696" lon="9.933728007740351"><ele>53.0</ele><time>2026-04-26T08:06:36Z</time></trkpt><trkpt lat="44.97565571744779" lon="9.933756224573692"><ele>53.0</ele><time>2026-04-26T08:06:37Z</time></trkpt><trkpt lat="44.975741091940634" lon="9.93378324432767"><ele>53.0</ele><time>2026-04-26T08:06:38Z</time></trkpt><trkpt lat="44.9758266870935" lon="9.933806581313604"><ele>53.00000000000001</ele><time>2026-04-26T08:06:39Z</time></trkpt><trkpt lat="44.97591083169946" lon="9.933831785270057"><ele>53.0</ele><time>2026-04-26T08:06:40Z</time></trkpt><trkpt lat="44.97599618079456" lon="9.933858717634525"><ele>53.333333333333336</ele><time>2026-04-26T08:06:41Z</time></trkpt><trkpt lat="44.97608067910992" lon="9.933885747872365"><ele>53.66666666666667</ele><time>2026-04-26T08:06:42Z</time></trkpt><trkpt lat="44.97616493578466" lon="9.933910350165384"><ele>54.0</ele><time>2026-04-26T08:06:43Z</time></trkpt><trkpt lat="44.976252203551724" lon="9.933936384693833"><ele>54.33333333333333</ele><time>2026-04-26T08:06:44Z</time></trkpt><trkpt lat="44.97633849424386" lon="9.933960952951278"><ele>54.666666666666664</ele><time>2026-04-26T08:06:45Z</time></trkpt><trkpt lat="44.976423986737295" lon="9.933987056520653"><ele>55.0</ele><time>2026-04-26T08:06:46Z</time></trkpt><trkpt lat="44.97650941702903" lon="9.93401297616895"><ele>54.99999999999999</ele><time>2026-04-26T08:06:47Z</time></trkpt><trkpt lat="44.97659316454175" lon="9.93403874996719"><ele>55.0</ele><time>2026-04-26T08:06:48Z</time></trkpt><trkpt lat="44.97667755308095" lon="9.934064761636051"><ele>55.0</ele><time>2026-04-26T08:06:49Z</time></trkpt><trkpt lat="44.976763097047204" lon="9.934088352357264"><ele>55.0</ele><time>2026-04-26T08:06:50Z</time></trkpt><trkpt lat="44.976849154969464" lon="9.934112864609201"><ele>54.99999999999999</ele><time>2026-04-26T08:06:51Z</time></trkpt><trkpt lat="44.97693321573855" lon="9.9341402865924"><ele>55.0</ele><time>2026-04-26T08:06:52Z</time></trkpt><trkpt lat="44.97701943515704" lon="9.934164765452746"><ele>54.83333333333333</ele><time>2026-04-26T08:06:53Z</time></trkpt><trkpt lat="44.977104133983644" lon="9.934189563440913"><ele>54.666666666666664</ele><time>2026-04-26T08:06:54Z</time></trkpt><trkpt lat="44.97719126502174" lon="9.934215104184851"><ele>54.5</ele><time>2026-04-26T08:06:55Z</time></trkpt><trkpt lat="44.97727725171712" lon="9.934243332321694"><ele>54.33333333333333</ele><time>2026-04-26T08:06:56Z</time></trkpt><trkpt lat="44.97736394207198" lon="9.93427119029059"><ele>54.166666666666664</ele><time>2026-04-26T08:06:57Z</time></trkpt><trkpt lat="44.97745097072351" lon="9.934297793528797"><ele>54.0</ele><time>2026-04-26T08:06:58Z</time></trkpt><trkpt lat="44.97753667625146" lon="9.934321947381436"><ele>53.5</ele><time>2026-04-26T08:06:59Z</time></trkpt><trkpt lat="44.97762300830208" lon="9.934346469567549"><ele>53.0</ele><time>2026-04-26T08:07:00Z</time></trkpt><trkpt lat="44.977707605512194" lon="9.934371050792103"><ele>52.5</ele><time>2026-04-26T08:07:01Z</time></trkpt><trkpt lat="44.97779549992035" lon="9.934399910768992"><ele>52.0</ele><time>2026-04-26T08:07:02Z</time></trkpt><trkpt lat="44.97788134653318" lon="9.934423823238157"><ele>51.5</ele><time>2026-04-26T08:07:02.999Z</time></trkpt><trkpt lat="44.97796758974935" lon="9.93445081827279"><ele>51.0</ele><time>2026-04-26T08:07:03.999Z</time></trkpt><trkpt lat="44.97805469592146" lon="9.934474445120166"><ele>51.0</ele><time>2026-04-26T08:07:04.999Z</time></trkpt><trkpt lat="44.978141292750315" lon="9.934500029849374"><ele>51.0</ele><time>2026-04-26T08:07:05.999Z</time></trkpt><trkpt lat="44.97822813743583" lon="9.934530324565223"><ele>51.0</ele><time>2026-04-26T08:07:06.999Z</time></trkpt><trkpt lat="44.978312180269775" lon="9.934559255790711"><ele>51.0</ele><time>2026-04-26T08:07:07.999Z</time></trkpt><trkpt lat="44.97839822672957" lon="9.934587696566474"><ele>51.0</ele><time>2026-04-26T08:07:08.999Z</time></trkpt><trkpt lat="44.97848343493951" lon="9.934612404431167"><ele>51.0</ele><time>2026-04-26T08:07:09.999Z</time></trkpt><trkpt lat="44.978569310254876" lon="9.934638962428618"><ele>51.666666666666664</ele><time>2026-04-26T08:07:10.999Z</time></trkpt><trkpt lat="44.97865737996981" lon="9.934664511306934"><ele>52.33333333333333</ele><time>2026-04-26T08:07:11.999Z</time></trkpt><trkpt lat="44.97874375937418" lon="9.93469177158863"><ele>53.0</ele><time>2026-04-26T08:07:12.999Z</time></trkpt><trkpt lat="44.978831231969124" lon="9.934718553746512"><ele>53.666666666666664</ele><time>2026-04-26T08:07:13.999Z</time></trkpt><trkpt lat="44.97891706281283" lon="9.934742018672878"><ele>54.33333333333333</ele><time>2026-04-26T08:07:14.999Z</time></trkpt><trkpt lat="44.979005735470274" lon="9.93476506523601"><ele>55.0</ele><time>2026-04-26T08:07:15.999Z</time></trkpt><trkpt lat="44.97909225176915" lon="9.934790127259403"><ele>54.99999999999999</ele><time>2026-04-26T08:07:16.999Z</time></trkpt><trkpt lat="44.979181129517436" lon="9.934817266104574"><ele>55.0</ele><time>2026-04-26T08:07:17.999Z</time></trkpt><trkpt lat="44.97926583393782" lon="9.934840578256997"><ele>55.0</ele><time>2026-04-26T08:07:18.999Z</time></trkpt><trkpt lat="44.97935380998321" lon="9.934862748401782"><ele>55.0</ele><time>2026-04-26T08:07:19.999Z</time></trkpt><trkpt lat="44.979440539073295" lon="9.934885414958178"><ele>54.99999999999999</ele><time>2026-04-26T08:07:20.999Z</time></trkpt><trkpt lat="44.979528365902155" lon="9.934905270109908"><ele>55.0</ele><time>2026-04-26T08:07:21.999Z</time></trkpt><trkpt lat="44.97961554350942" lon="9.934926561803593"><ele>54.99999999999999</ele><time>2026-04-26T08:07:22.999Z</time></trkpt><trkpt lat="44.9797010777936" lon="9.934950727591973"><ele>55.0</ele><time>2026-04-26T08:07:23.999Z</time></trkpt><trkpt lat="44.97978697420809" lon="9.93497562139862"><ele>55.0</ele><time>2026-04-26T08:07:24.999Z</time></trkpt><trkpt lat="44.97987471445524" lon="9.935003118189538"><ele>55.0</ele><time>2026-04-26T08:07:25.999Z</time></trkpt><trkpt lat="44.979961308362135" lon="9.935026385542178"><ele>54.99999999999999</ele><time>2026-04-26T08:07:26.999Z</time></trkpt><trkpt lat="44.9800492425361" lon="9.93504867969692"><ele>55.0</ele><time>2026-04-26T08:07:27.999Z</time></trkpt><trkpt lat="44.98013679674823" lon="9.935069058781052"><ele>54.99999999999999</ele><time>2026-04-26T08:07:28.999Z</time></trkpt><trkpt lat="44.980225741910814" lon="9.935087025052557"><ele>55.0</ele><time>2026-04-26T08:07:29.999Z</time></trkpt><trkpt lat="44.980313875808235" lon="9.935102062509513"><ele>55.0</ele><time>2026-04-26T08:07:30.999Z</time></trkpt><trkpt lat="44.98040233839277" lon="9.935117306772703"><ele>55.0</ele><time>2026-04-26T08:07:31.999Z</time></trkpt><trkpt lat="44.980491787266345" lon="9.93513303122868"><ele>54.99999999999999</ele><time>2026-04-26T08:07:32.999Z</time></trkpt><trkpt lat="44.980581389662674" lon="9.935148069542475"><ele>55.0</ele><time>2026-04-26T08:07:33.999Z</time></trkpt><trkpt lat="44.9806717661551" lon="9.935164635757975"><ele>54.99999999999999</ele><time>2026-04-26T08:07:34.999Z</time></trkpt><trkpt lat="44.98075950647598" lon="9.935174305622452"><ele>55.0</ele><time>2026-04-26T08:07:35.999Z</time></trkpt><trkpt lat="44.98085094936789" lon="9.935183488551466"><ele>55.0</ele><time>2026-04-26T08:07:36.999Z</time></trkpt><trkpt lat="44.98093910333553" lon="9.935190722281446"><ele>55.0</ele><time>2026-04-26T08:07:37.999Z</time></trkpt><trkpt lat="44.98102792126571" lon="9.935201971550384"><ele>54.99999999999999</ele><time>2026-04-26T08:07:38.999Z</time></trkpt><trkpt lat="44.98111813690507" lon="9.935211573880236"><ele>55.0</ele><time>2026-04-26T08:07:39.999Z</time></trkpt><trkpt lat="44.981205977325864" lon="9.935214206415505"><ele>54.666666666666664</ele><time>2026-04-26T08:07:40.999Z</time></trkpt><trkpt lat="44.98129474617487" lon="9.935214464654955"><ele>54.33333333333333</ele><time>2026-04-26T08:07:41.999Z</time></trkpt><trkpt lat="44.98138360238125" lon="9.935207412765571"><ele>54.0</ele><time>2026-04-26T08:07:42.999Z</time></trkpt><trkpt lat="44.98146967423369" lon="9.935191272994965"><ele>53.66666666666667</ele><time>2026-04-26T08:07:43.999Z</time></trkpt><trkpt lat="44.9815559919017" lon="9.935164731785019"><ele>53.333333333333336</ele><time>2026-04-26T08:07:44.999Z</time></trkpt><trkpt lat="44.9816431186852" lon="9.935134354186067"><ele>53.0</ele><time>2026-04-26T08:07:45.999Z</time></trkpt><trkpt lat="44.98172725497086" lon="9.935103323331074"><ele>53.00000000000001</ele><time>2026-04-26T08:07:46.999Z</time></trkpt><trkpt lat="44.981812499012925" lon="9.93506997938885"><ele>53.0</ele><time>2026-04-26T08:07:47.999Z</time></trkpt><trkpt lat="44.9818984746284" lon="9.935034621532841"><ele>53.0</ele><time>2026-04-26T08:07:48.999Z</time></trkpt><trkpt lat="44.981983768369346" lon="9.934996492709562"><ele>53.0</ele><time>2026-04-26T08:07:49.999Z</time></trkpt><trkpt lat="44.982069729417056" lon="9.934960945521595"><ele>53.00000000000001</ele><time>2026-04-26T08:07:50.999Z</time></trkpt><trkpt lat="44.982154939644644" lon="9.9349222963859"><ele>53.0</ele><time>2026-04-26T08:07:51.999Z</time></trkpt><trkpt lat="44.9822385787893" lon="9.934887609734183"><ele>53.00000000000001</ele><time>2026-04-26T08:07:52.999Z</time></trkpt><trkpt lat="44.98232321216514" lon="9.934850389389593"><ele>53.0</ele><time>2026-04-26T08:07:53.999Z</time></trkpt><trkpt lat="44.98240566678333" lon="9.934814190667854"><ele>53.0</ele><time>2026-04-26T08:07:54.999Z</time></trkpt><trkpt lat="44.98248942465179" lon="9.934778804281788"><ele>53.0</ele><time>2026-04-26T08:07:55.998Z</time></trkpt><trkpt lat="44.9825740691907" lon="9.934740474374411"><ele>53.00000000000001</ele><time>2026-04-26T08:07:56.998Z</time></trkpt><trkpt lat="44.98265698632532" lon="9.934701240036715"><ele>53.0</ele><time>2026-04-26T08:07:57.998Z</time></trkpt><trkpt lat="44.98274192363952" lon="9.934665889060122"><ele>53.00000000000001</ele><time>2026-04-26T08:07:58.998Z</time></trkpt><trkpt lat="44.9828267363012" lon="9.934627945603383"><ele>53.0</ele><time>2026-04-26T08:07:59.998Z</time></trkpt><trkpt lat="44.98291277729883" lon="9.934591206930362"><ele>53.0</ele><time>2026-04-26T08:08:00.998Z</time></trkpt><trkpt lat="44.982998075850375" lon="9.934554766891464"><ele>53.0</ele><time>2026-04-26T08:08:01.998Z</time></trkpt><trkpt lat="44.983085344488096" lon="9.934520158921007"><ele>53.00000000000001</ele><time>2026-04-26T08:08:02.998Z</time></trkpt><trkpt lat="44.9831725904274" lon="9.934487186109713"><ele>53.0</ele><time>2026-04-26T08:08:03.998Z</time></trkpt><trkpt lat="44.98326010947115" lon="9.934456348199852"><ele>52.8</ele><time>2026-04-26T08:08:04.998Z</time></trkpt><trkpt lat="44.98334734921967" lon="9.934427856596292"><ele>52.599999999999994</ele><time>2026-04-26T08:08:05.998Z</time></trkpt><trkpt lat="44.98343690658196" lon="9.934400015869928"><ele>52.400000000000006</ele><time>2026-04-26T08:08:06.998Z</time></trkpt><trkpt lat="44.9835247545767" lon="9.934368768485244"><ele>52.2</ele><time>2026-04-26T08:08:07.998Z</time></trkpt><trkpt lat="44.98361329549496" lon="9.934342054818805"><ele>52.0</ele><time>2026-04-26T08:08:08.998Z</time></trkpt><trkpt lat="44.98369932049442" lon="9.934315232579502"><ele>51.99999999999999</ele><time>2026-04-26T08:08:09.998Z</time></trkpt><trkpt lat="44.983787937202" lon="9.93428866386779"><ele>52.0</ele><time>2026-04-26T08:08:10.998Z</time></trkpt><trkpt lat="44.98387361141405" lon="9.93426128227144"><ele>52.0</ele><time>2026-04-26T08:08:11.998Z</time></trkpt><trkpt lat="44.983960806456615" lon="9.934233309994372"><ele>52.0</ele><time>2026-04-26T08:08:12.998Z</time></trkpt><trkpt lat="44.98404759877785" lon="9.934207324744426"><ele>51.99999999999999</ele><time>2026-04-26T08:08:13.998Z</time></trkpt><trkpt lat="44.984132607715225" lon="9.9341811415297"><ele>52.0</ele><time>2026-04-26T08:08:14.998Z</time></trkpt><trkpt lat="44.98421873181838" lon="9.934154811514533"><ele>52.49999999999999</ele><time>2026-04-26T08:08:15.998Z</time></trkpt><trkpt lat="44.98430455258969" lon="9.934128831691805"><ele>53.0</ele><time>2026-04-26T08:08:16.998Z</time></trkpt><trkpt lat="44.98439105254643" lon="9.934104380349655"><ele>53.5</ele><time>2026-04-26T08:08:17.998Z</time></trkpt><trkpt lat="44.9844778917098" lon="9.93407710993255"><ele>54.0</ele><time>2026-04-26T08:08:18.998Z</time></trkpt><trkpt lat="44.98456353040566" lon="9.934049724836672"><ele>54.49999999999999</ele><time>2026-04-26T08:08:19.998Z</time></trkpt><trkpt lat="44.98465118696034" lon="9.934024553527852"><ele>55.0</ele><time>2026-04-26T08:08:20.998Z</time></trkpt><trkpt lat="44.98473682910089" lon="9.93399824262098"><ele>54.99999999999999</ele><time>2026-04-26T08:08:21.998Z</time></trkpt><trkpt lat="44.984823606426275" lon="9.933969968825865"><ele>55.0</ele><time>2026-04-26T08:08:22.998Z</time></trkpt><trkpt lat="44.984905345598015" lon="9.933933692633897"><ele>55.0</ele><time>2026-04-26T08:08:24Z</time></trkpt><trkpt lat="44.98499236012902" lon="9.933904954662372"><ele>55.0</ele><time>2026-04-26T08:08:25Z</time></trkpt><trkpt lat="44.98507653831828" lon="9.93386325351366"><ele>54.99999999999999</ele><time>2026-04-26T08:08:26Z</time></trkpt><trkpt lat="44.98515891236933" lon="9.933820281955088"><ele>55.0</ele><time>2026-04-26T08:08:27Z</time></trkpt><trkpt lat="44.98523945592934" lon="9.933774145075676"><ele>54.99999999999999</ele><time>2026-04-26T08:08:28Z</time></trkpt><trkpt lat="44.98532041514788" lon="9.933725283182666"><ele>55.0</ele><time>2026-04-26T08:08:29Z</time></trkpt><trkpt lat="44.98540305289285" lon="9.933678152257993"><ele>55.0</ele><time>2026-04-26T08:08:30Z</time></trkpt><trkpt lat="44.985485422316565" lon="9.933634866342265"><ele>55.0</ele><time>2026-04-26T08:08:31Z</time></trkpt><trkpt lat="44.985568445405384" lon="9.933588083108628"><ele>54.99999999999999</ele><time>2026-04-26T08:08:32Z</time></trkpt><trkpt lat="44.9856501097624" lon="9.933543505348688"><ele>55.0</ele><time>2026-04-26T08:08:33Z</time></trkpt><trkpt lat="44.985732301489335" lon="9.933498926469635"><ele>54.99999999999999</ele><time>2026-04-26T08:08:34Z</time></trkpt><trkpt lat="44.98581265356729" lon="9.933451600036756"><ele>55.0</ele><time>2026-04-26T08:08:35Z</time></trkpt><trkpt lat="44.9858936452047" lon="9.933401733814637"><ele>55.0</ele><time>2026-04-26T08:08:36Z</time></trkpt><trkpt lat="44.98597177017152" lon="9.933341131590534"><ele>55.0</ele><time>2026-04-26T08:08:37Z</time></trkpt><trkpt lat="44.98604641640939" lon="9.933274298486664"><ele>54.99999999999999</ele><time>2026-04-26T08:08:38Z</time></trkpt><trkpt lat="44.98611457594251" lon="9.933193551855501"><ele>55.0</ele><time>2026-04-26T08:08:39Z</time></trkpt><trkpt lat="44.98617954387512" lon="9.933104486550283"><ele>54.666666666666664</ele><time>2026-04-26T08:08:40Z</time></trkpt><trkpt lat="44.986240841740496" lon="9.933013732352343"><ele>54.33333333333333</ele><time>2026-04-26T08:08:41Z</time></trkpt><trkpt lat="44.98629920360515" lon="9.932920006464204"><ele>54.0</ele><time>2026-04-26T08:08:42Z</time></trkpt><trkpt lat="44.9863568449431" lon="9.932824973722004"><ele>53.66666666666667</ele><time>2026-04-26T08:08:43Z</time></trkpt><trkpt lat="44.98642213860447" lon="9.932742098572232"><ele>53.333333333333336</ele><time>2026-04-26T08:08:44Z</time></trkpt><trkpt lat="44.986491459735525" lon="9.932668902936943"><ele>53.0</ele><time>2026-04-26T08:08:45Z</time></trkpt><trkpt lat="44.986570823892166" lon="9.932617819558047"><ele>53.00000000000001</ele><time>2026-04-26T08:08:46Z</time></trkpt><trkpt lat="44.986658215672385" lon="9.932581344954851"><ele>53.0</ele><time>2026-04-26T08:08:47Z</time></trkpt><trkpt lat="44.9867430016783" lon="9.932556609509543"><ele>53.0</ele><time>2026-04-26T08:08:48Z</time></trkpt><trkpt lat="44.98683142716512" lon="9.932536560730233"><ele>53.0</ele><time>2026-04-26T08:08:49Z</time></trkpt><trkpt lat="44.98691727035025" lon="9.932524495001763"><ele>53.00000000000001</ele><time>2026-04-26T08:08:50Z</time></trkpt><trkpt lat="44.98700391560042" lon="9.932514604043183"><ele>53.0</ele><time>2026-04-26T08:08:51Z</time></trkpt><trkpt lat="44.987091358092336" lon="9.932498691266996"><ele>53.00000000000001</ele><time>2026-04-26T08:08:52Z</time></trkpt><trkpt lat="44.98717711102876" lon="9.93248174964885"><ele>53.0</ele><time>2026-04-26T08:08:53Z</time></trkpt><trkpt lat="44.987261467592674" lon="9.932464016574116"><ele>53.0</ele><time>2026-04-26T08:08:54Z</time></trkpt><trkpt lat="44.987342348499894" lon="9.932419509172698"><ele>53.0</ele><time>2026-04-26T08:08:55Z</time></trkpt><trkpt lat="44.98741306905568" lon="9.932338334469629"><ele>53.00000000000001</ele><time>2026-04-26T08:08:56Z</time></trkpt><trkpt lat="44.9874553252144" lon="9.93221882876567"><ele>53.0</ele><time>2026-04-26T08:08:57Z</time></trkpt><trkpt lat="44.98747100036029" lon="9.932087027364654"><ele>53.00000000000001</ele><time>2026-04-26T08:08:58Z</time></trkpt><trkpt lat="44.987470786797275" lon="9.931957037307388"><ele>53.0</ele><time>2026-04-26T08:08:59Z</time></trkpt><trkpt lat="44.987472520214006" lon="9.9318334889959"><ele>53.0</ele><time>2026-04-26T08:09:00Z</time></trkpt><trkpt lat="44.98748507658086" lon="9.931709212904318"><ele>53.0</ele><time>2026-04-26T08:09:01Z</time></trkpt><trkpt lat="44.987495851847214" lon="9.931587153630405"><ele>53.00000000000001</ele><time>2026-04-26T08:09:02Z</time></trkpt><trkpt lat="44.987508158423424" lon="9.931464541156668"><ele>53.0</ele><time>2026-04-26T08:09:03Z</time></trkpt><trkpt lat="44.987520870654755" lon="9.931347346669556"><ele>52.833333333333336</ele><time>2026-04-26T08:09:04Z</time></trkpt><trkpt lat="44.98753295045528" lon="9.931229425822174"><ele>52.66666666666667</ele><time>2026-04-26T08:09:05Z</time></trkpt><trkpt lat="44.987541752051385" lon="9.931114777679072"><ele>52.5</ele><time>2026-04-26T08:09:06Z</time></trkpt><trkpt lat="44.9875515439467" lon="9.93100369483654"><ele>52.33333333333333</ele><time>2026-04-26T08:09:06.999Z</time></trkpt><trkpt lat="44.9875652615851" lon="9.930894720374788"><ele>52.166666666666664</ele><time>2026-04-26T08:09:07.999Z</time></trkpt><trkpt lat="44.98759636130462" lon="9.930798297224758"><ele>52.0</ele><time>2026-04-26T08:09:08.999Z</time></trkpt><trkpt lat="44.98765243085604" lon="9.930731167051807"><ele>52.33333333333333</ele><time>2026-04-26T08:09:09.999Z</time></trkpt><trkpt lat="44.98772310801946" lon="9.930695956783099"><ele>52.666666666666664</ele><time>2026-04-26T08:09:10.999Z</time></trkpt><trkpt lat="44.987802636250194" lon="9.930695065391228"><ele>53.0</ele><time>2026-04-26T08:09:11.999Z</time></trkpt><trkpt lat="44.987882932296415" lon="9.930705386603519"><ele>53.33333333333333</ele><time>2026-04-26T08:09:12.999Z</time></trkpt><trkpt lat="44.98796241458851" lon="9.930715410556898"><ele>53.666666666666664</ele><time>2026-04-26T08:09:13.999Z</time></trkpt><trkpt lat="44.9880423468958" lon="9.930725034035783"><ele>54.0</ele><time>2026-04-26T08:09:14.999Z</time></trkpt><trkpt lat="44.98812052456453" lon="9.930731618153976"><ele>54.0</ele><time>2026-04-26T08:09:15.999Z</time></trkpt><trkpt lat="44.98819813620468" lon="9.930742081107676"><ele>54.0</ele><time>2026-04-26T08:09:16.999Z</time></trkpt><trkpt lat="44.98827667805175" lon="9.930754816881535"><ele>54.0</ele><time>2026-04-26T08:09:17.999Z</time></trkpt><trkpt lat="44.988357471869186" lon="9.93076511784899"><ele>54.0</ele><time>2026-04-26T08:09:18.999Z</time></trkpt><trkpt lat="44.988439069598456" lon="9.93077858512054"><ele>54.0</ele><time>2026-04-26T08:09:19.999Z</time></trkpt><trkpt lat="44.988520442670904" lon="9.93079285795407"><ele>54.0</ele><time>2026-04-26T08:09:20.999Z</time></trkpt><trkpt lat="44.988601098283915" lon="9.930807642729638"><ele>53.833333333333336</ele><time>2026-04-26T08:09:21.999Z</time></trkpt><trkpt lat="44.98868142545375" lon="9.93081905448877"><ele>53.66666666666667</ele><time>2026-04-26T08:09:22.999Z</time></trkpt><trkpt lat="44.988761646134535" lon="9.930834602580825"><ele>53.5</ele><time>2026-04-26T08:09:23.999Z</time></trkpt><trkpt lat="44.988842029127845" lon="9.930848055651623"><ele>53.333333333333336</ele><time>2026-04-26T08:09:24.999Z</time></trkpt><trkpt lat="44.98892192474881" lon="9.930864578804991"><ele>53.16666666666667</ele><time>2026-04-26T08:09:25.999Z</time></trkpt><trkpt lat="44.98900443079538" lon="9.930882487828002"><ele>53.0</ele><time>2026-04-26T08:09:26.999Z</time></trkpt><trkpt lat="44.98908425825628" lon="9.930897453587784"><ele>53.00000000000001</ele><time>2026-04-26T08:09:27.999Z</time></trkpt><trkpt lat="44.989163887714376" lon="9.930911128001728"><ele>53.0</ele><time>2026-04-26T08:09:28.999Z</time></trkpt><trkpt lat="44.98924339343315" lon="9.930925657732558"><ele>53.0</ele><time>2026-04-26T08:09:29.999Z</time></trkpt><trkpt lat="44.98932105168793" lon="9.93094151803195"><ele>53.0</ele><time>2026-04-26T08:09:30.999Z</time></trkpt><trkpt lat="44.98939818331174" lon="9.930955483629978"><ele>53.00000000000001</ele><time>2026-04-26T08:09:31.999Z</time></trkpt><trkpt lat="44.98947732555304" lon="9.930976088007476"><ele>53.0</ele><time>2026-04-26T08:09:32.999Z</time></trkpt><trkpt lat="44.989555884827574" lon="9.930993682733884"><ele>53.00000000000001</ele><time>2026-04-26T08:09:33.999Z</time></trkpt><trkpt lat="44.98963349288869" lon="9.931017775285637"><ele>53.0</ele><time>2026-04-26T08:09:34.999Z</time></trkpt><trkpt lat="44.98970939649215" lon="9.931046872658921"><ele>53.0</ele><time>2026-04-26T08:09:35.999Z</time></trkpt><trkpt lat="44.98978445054534" lon="9.931082076984323"><ele>53.0</ele><time>2026-04-26T08:09:36.999Z</time></trkpt><trkpt lat="44.98985828549175" lon="9.931118082508517"><ele>53.00000000000001</ele><time>2026-04-26T08:09:37.999Z</time></trkpt><trkpt lat="44.98993140452627" lon="9.93115627532469"><ele>53.0</ele><time>2026-04-26T08:09:38.999Z</time></trkpt><trkpt lat="44.99000570766683" lon="9.93119013396024"><ele>53.16666666666667</ele><time>2026-04-26T08:09:39.999Z</time></trkpt><trkpt lat="44.99007931466783" lon="9.931229674184554"><ele>53.333333333333336</ele><time>2026-04-26T08:09:40.999Z</time></trkpt><trkpt lat="44.99015510688156" lon="9.931269022887454"><ele>53.5</ele><time>2026-04-26T08:09:41.999Z</time></trkpt><trkpt lat="44.9902272783567" lon="9.931308577858742"><ele>53.66666666666667</ele><time>2026-04-26T08:09:42.999Z</time></trkpt><trkpt lat="44.990300355690486" lon="9.931350369451453"><ele>53.833333333333336</ele><time>2026-04-26T08:09:43.999Z</time></trkpt><trkpt lat="44.990375632601385" lon="9.931390930894134"><ele>54.0</ele><time>2026-04-26T08:09:44.999Z</time></trkpt><trkpt lat="44.990448622179095" lon="9.931434447555938"><ele>54.0</ele><time>2026-04-26T08:09:45.999Z</time></trkpt><trkpt lat="44.990523183102894" lon="9.931476237004018"><ele>54.0</ele><time>2026-04-26T08:09:46.999Z</time></trkpt><trkpt lat="44.99059803098643" lon="9.931518817044669"><ele>54.0</ele><time>2026-04-26T08:09:47.999Z</time></trkpt><trkpt lat="44.990672108352214" lon="9.931562102512508"><ele>54.0</ele><time>2026-04-26T08:09:48.999Z</time></trkpt><trkpt lat="44.9907446045109" lon="9.931608473908733"><ele>54.0</ele><time>2026-04-26T08:09:49.999Z</time></trkpt><trkpt lat="44.99081720247362" lon="9.931653877727397"><ele>54.0</ele><time>2026-04-26T08:09:50.999Z</time></trkpt><trkpt lat="44.99089082305648" lon="9.931700649396605"><ele>53.833333333333336</ele><time>2026-04-26T08:09:51.999Z</time></trkpt><trkpt lat="44.99096300171792" lon="9.931743466677625"><ele>53.66666666666667</ele><time>2026-04-26T08:09:52.999Z</time></trkpt><trkpt lat="44.99103722706005" lon="9.931785926593832"><ele>53.5</ele><time>2026-04-26T08:09:53.999Z</time></trkpt><trkpt lat="44.991109330551495" lon="9.931828378264536"><ele>53.333333333333336</ele><time>2026-04-26T08:09:54.999Z</time></trkpt><trkpt lat="44.991182454379654" lon="9.93187192093951"><ele>53.16666666666667</ele><time>2026-04-26T08:09:55.999Z</time></trkpt><trkpt lat="44.99125590752085" lon="9.93190940703856"><ele>53.0</ele><time>2026-04-26T08:09:56.999Z</time></trkpt><trkpt lat="44.99133053044323" lon="9.931951114876691"><ele>53.00000000000001</ele><time>2026-04-26T08:09:57.999Z</time></trkpt><trkpt lat="44.99140651656902" lon="9.93198780254981"><ele>53.0</ele><time>2026-04-26T08:09:58.999Z</time></trkpt><trkpt lat="44.99148080229944" lon="9.932027275589176"><ele>53.0</ele><time>2026-04-26T08:09:59.999Z</time></trkpt><trkpt lat="44.99155501403952" lon="9.932064936359016"><ele>53.0</ele><time>2026-04-26T08:10:00.998Z</time></trkpt><trkpt lat="44.99162761096136" lon="9.932102902937277"><ele>53.00000000000001</ele><time>2026-04-26T08:10:01.998Z</time></trkpt><trkpt lat="44.99170426763118" lon="9.93213439385983"><ele>53.0</ele><time>2026-04-26T08:10:02.998Z</time></trkpt><trkpt lat="44.99177981028961" lon="9.932163158186214"><ele>53.16666666666667</ele><time>2026-04-26T08:10:03.998Z</time></trkpt><trkpt lat="44.99185352580694" lon="9.932191320726023"><ele>53.333333333333336</ele><time>2026-04-26T08:10:04.998Z</time></trkpt><trkpt lat="44.99193102455433" lon="9.93221695950577"><ele>53.5</ele><time>2026-04-26T08:10:05.998Z</time></trkpt><trkpt lat="44.992007628161545" lon="9.932242769060286"><ele>53.66666666666667</ele><time>2026-04-26T08:10:06.998Z</time></trkpt><trkpt lat="44.99208431107057" lon="9.932270761764302"><ele>53.833333333333336</ele><time>2026-04-26T08:10:07.998Z</time></trkpt><trkpt lat="44.99215909981058" lon="9.932297709184782"><ele>54.0</ele><time>2026-04-26T08:10:08.998Z</time></trkpt><trkpt lat="44.99223192859223" lon="9.93231796555076"><ele>54.0</ele><time>2026-04-26T08:10:09.998Z</time></trkpt><trkpt lat="44.99230475788283" lon="9.932318961369392"><ele>54.0</ele><time>2026-04-26T08:10:10.998Z</time></trkpt><trkpt lat="44.99237195422803" lon="9.932273884669648"><ele>54.0</ele><time>2026-04-26T08:10:11.998Z</time></trkpt><trkpt lat="44.992412539636426" lon="9.932176224807476"><ele>54.0</ele><time>2026-04-26T08:10:12.998Z</time></trkpt><trkpt lat="44.99241255904077" lon="9.932066336823592"><ele>54.0</ele><time>2026-04-26T08:10:13.998Z</time></trkpt><trkpt lat="44.99240546586925" lon="9.931962471392026"><ele>54.0</ele><time>2026-04-26T08:10:14.998Z</time></trkpt><trkpt lat="44.992401320077015" lon="9.931859148427723"><ele>54.0</ele><time>2026-04-26T08:10:15.998Z</time></trkpt><trkpt lat="44.992397611029304" lon="9.931758994621088"><ele>54.0</ele><time>2026-04-26T08:10:16.998Z</time></trkpt><trkpt lat="44.99239123175781" lon="9.931660538379539"><ele>54.0</ele><time>2026-04-26T08:10:17.998Z</time></trkpt><trkpt lat="44.99238559142305" lon="9.93155853056076"><ele>54.0</ele><time>2026-04-26T08:10:18.998Z</time></trkpt><trkpt lat="44.99237737679792" lon="9.931458910512488"><ele>54.0</ele><time>2026-04-26T08:10:19.998Z</time></trkpt><trkpt lat="44.99237660149582" lon="9.931352452085045"><ele>54.0</ele><time>2026-04-26T08:10:20.998Z</time></trkpt><trkpt lat="44.992373762098794" lon="9.931245140850875"><ele>54.0</ele><time>2026-04-26T08:10:21.998Z</time></trkpt><trkpt lat="44.99236923890762" lon="9.931135697302416"><ele>54.0</ele><time>2026-04-26T08:10:22.998Z</time></trkpt><trkpt lat="44.992368826623405" lon="9.931022468288264"><ele>54.0</ele><time>2026-04-26T08:10:23.998Z</time></trkpt><trkpt lat="44.992367175358005" lon="9.930912948920373"><ele>54.0</ele><time>2026-04-26T08:10:24.998Z</time></trkpt><trkpt lat="44.9923669323943" lon="9.930804259948182"><ele>54.0</ele><time>2026-04-26T08:10:25.998Z</time></trkpt><trkpt lat="44.99236596577542" lon="9.93070085494724"><ele>54.0</ele><time>2026-04-26T08:10:26.998Z</time></trkpt><trkpt lat="44.992365804713955" lon="9.930599949243307"><ele>54.0</ele><time>2026-04-26T08:10:27.998Z</time></trkpt><trkpt lat="44.99236638596922" lon="9.93050294443461"><ele>54.0</ele><time>2026-04-26T08:10:28.998Z</time></trkpt><trkpt lat="44.99236810552769" lon="9.930409959726656"><ele>54.0</ele><time>2026-04-26T08:10:30Z</time></trkpt><trkpt lat="44.99236843832557" lon="9.930315893783748"><ele>54.0</ele><time>2026-04-26T08:10:31Z</time></trkpt><trkpt lat="44.99236024478118" lon="9.930143210654728"><ele>54.0</ele><time>2026-04-26T08:10:33Z</time></trkpt><trkpt lat="44.99237303518659" lon="9.929988256786185"><ele>54.0</ele><time>2026-04-26T08:10:35Z</time></trkpt><trkpt lat="44.99256363134476" lon="9.92997911648772"><ele>54.0</ele><time>2026-04-26T08:10:40Z</time></trkpt><trkpt lat="44.992673940994564" lon="9.930038891429243"><ele>54.0</ele><time>2026-04-26T08:10:42Z</time></trkpt><trkpt lat="44.99273733430518" lon="9.930055576609485"><ele>54.0</ele><time>2026-04-26T08:10:43Z</time></trkpt><trkpt lat="44.99279842633923" lon="9.930077981078915"><ele>54.0</ele><time>2026-04-26T08:10:44Z</time></trkpt><trkpt lat="44.992859212826055" lon="9.930107883623581"><ele>54.0</ele><time>2026-04-26T08:10:45Z</time></trkpt><trkpt lat="44.99292011929586" lon="9.930137031654409"><ele>54.0</ele><time>2026-04-26T08:10:46Z</time></trkpt><trkpt lat="44.992988802905025" lon="9.930161638610258"><ele>54.0</ele><time>2026-04-26T08:10:47Z</time></trkpt><trkpt lat="44.99305613521007" lon="9.930186239306886"><ele>54.0</ele><time>2026-04-26T08:10:48Z</time></trkpt><trkpt lat="44.99311985645456" lon="9.930215201526773"><ele>54.0</ele><time>2026-04-26T08:10:49Z</time></trkpt><trkpt lat="44.99318437021751" lon="9.930247455756568"><ele>54.0</ele><time>2026-04-26T08:10:50Z</time></trkpt><trkpt lat="44.993250997336446" lon="9.930271755196157"><ele>54.0</ele><time>2026-04-26T08:10:51Z</time></trkpt><trkpt lat="44.99331834741525" lon="9.930297855669886"><ele>54.0</ele><time>2026-04-26T08:10:52Z</time></trkpt><trkpt lat="44.99338548703854" lon="9.930323056700807"><ele>54.0</ele><time>2026-04-26T08:10:53Z</time></trkpt><trkpt lat="44.99345101679053" lon="9.930349174100725"><ele>54.0</ele><time>2026-04-26T08:10:54Z</time></trkpt><trkpt lat="44.99351504940577" lon="9.93037039049875"><ele>54.285714285714285</ele><time>2026-04-26T08:10:55Z</time></trkpt><trkpt lat="44.99358171339596" lon="9.930390952912855"><ele>54.57142857142857</ele><time>2026-04-26T08:10:56Z</time></trkpt><trkpt lat="44.99364712166586" lon="9.930423263290866"><ele>54.85714285714286</ele><time>2026-04-26T08:10:57Z</time></trkpt><trkpt lat="44.99371260160462" lon="9.93046117876135"><ele>55.14285714285714</ele><time>2026-04-26T08:10:58Z</time></trkpt><trkpt lat="44.99377989266323" lon="9.93049057396676"><ele>55.42857142857143</ele><time>2026-04-26T08:10:59Z</time></trkpt><trkpt lat="44.99384908122597" lon="9.930495927012895"><ele>55.714285714285715</ele><time>2026-04-26T08:11:00Z</time></trkpt><trkpt lat="44.99391231243541" lon="9.930549078673508"><ele>56.0</ele><time>2026-04-26T08:11:01Z</time></trkpt><trkpt lat="44.993981592871535" lon="9.93057657639825"><ele>56.0</ele><time>2026-04-26T08:11:02Z</time></trkpt><trkpt lat="44.99404836748178" lon="9.930604111631414"><ele>56.0</ele><time>2026-04-26T08:11:03Z</time></trkpt><trkpt lat="44.99412436652168" lon="9.930581570463751"><ele>56.0</ele><time>2026-04-26T08:11:04Z</time></trkpt><trkpt lat="44.9941962742856" lon="9.930598475701451"><ele>56.0</ele><time>2026-04-26T08:11:05Z</time></trkpt><trkpt lat="44.99425878125122" lon="9.930684697992506"><ele>56.0</ele><time>2026-04-26T08:11:06Z</time></trkpt><trkpt lat="44.994325849385056" lon="9.930708596571014"><ele>56.0</ele><time>2026-04-26T08:11:07Z</time></trkpt><trkpt lat="44.994392069448004" lon="9.930735915620735"><ele>56.0</ele><time>2026-04-26T08:11:08Z</time></trkpt><trkpt lat="44.99445805540673" lon="9.93076345288692"><ele>56.0</ele><time>2026-04-26T08:11:09Z</time></trkpt><trkpt lat="44.99452492704693" lon="9.930789536802253"><ele>56.0</ele><time>2026-04-26T08:11:09.999Z</time></trkpt><trkpt lat="44.99459312235903" lon="9.930813724170685"><ele>56.0</ele><time>2026-04-26T08:11:10.999Z</time></trkpt><trkpt lat="44.99466292701193" lon="9.930841986532208"><ele>56.0</ele><time>2026-04-26T08:11:11.999Z</time></trkpt><trkpt lat="44.99473172305121" lon="9.930865489528234"><ele>56.0</ele><time>2026-04-26T08:11:12.999Z</time></trkpt><trkpt lat="44.994800082586764" lon="9.930894702602684"><ele>56.0</ele><time>2026-04-26T08:11:13.999Z</time></trkpt><trkpt lat="44.99487238541455" lon="9.93092264316687"><ele>56.0</ele><time>2026-04-26T08:11:14.999Z</time></trkpt><trkpt lat="44.994943442277346" lon="9.930949230769961"><ele>56.0</ele><time>2026-04-26T08:11:15.999Z</time></trkpt><trkpt lat="44.99501507468595" lon="9.93097607042463"><ele>56.0</ele><time>2026-04-26T08:11:16.999Z</time></trkpt><trkpt lat="44.995085310373135" lon="9.931004543562032"><ele>56.0</ele><time>2026-04-26T08:11:17.999Z</time></trkpt><trkpt lat="44.99515710692024" lon="9.931032172598972"><ele>56.0</ele><time>2026-04-26T08:11:18.999Z</time></trkpt><trkpt lat="44.99522653184127" lon="9.931059948007574"><ele>56.0</ele><time>2026-04-26T08:11:19.999Z</time></trkpt><trkpt lat="44.995298098200934" lon="9.931086044736773"><ele>56.0</ele><time>2026-04-26T08:11:20.999Z</time></trkpt><trkpt lat="44.99536829488452" lon="9.931112728952504"><ele>56.0</ele><time>2026-04-26T08:11:21.999Z</time></trkpt><trkpt lat="44.995437281927785" lon="9.931142163614906"><ele>56.0</ele><time>2026-04-26T08:11:22.999Z</time></trkpt><trkpt lat="44.99550592447636" lon="9.93116823969694"><ele>56.0</ele><time>2026-04-26T08:11:23.999Z</time></trkpt><trkpt lat="44.99557443643776" lon="9.93119649753074"><ele>56.0</ele><time>2026-04-26T08:11:24.999Z</time></trkpt><trkpt lat="44.99564154469824" lon="9.931226719398872"><ele>56.0</ele><time>2026-04-26T08:11:25.999Z</time></trkpt><trkpt lat="44.99570797056246" lon="9.931255131860127"><ele>56.0</ele><time>2026-04-26T08:11:26.999Z</time></trkpt><trkpt lat="44.995774262382184" lon="9.93128321788154"><ele>56.0</ele><time>2026-04-26T08:11:27.999Z</time></trkpt><trkpt lat="44.9958369950391" lon="9.931308024453385"><ele>56.0</ele><time>2026-04-26T08:11:28.999Z</time></trkpt><trkpt lat="44.99589973815937" lon="9.931332046948144"><ele>55.66666666666667</ele><time>2026-04-26T08:11:29.999Z</time></trkpt><trkpt lat="44.99602647845684" lon="9.931382649848732"><ele>55.333333333333336</ele><time>2026-04-26T08:11:31.999Z</time></trkpt><trkpt lat="44.99609218689822" lon="9.931406220333828"><ele>55.0</ele><time>2026-04-26T08:11:32.999Z</time></trkpt><trkpt lat="44.996159723850646" lon="9.931435604212862"><ele>54.66666666666667</ele><time>2026-04-26T08:11:33.999Z</time></trkpt><trkpt lat="44.996226288607296" lon="9.93145941051497"><ele>54.333333333333336</ele><time>2026-04-26T08:11:34.999Z</time></trkpt><trkpt lat="44.99628924242712" lon="9.93148375505738"><ele>54.0</ele><time>2026-04-26T08:11:35.999Z</time></trkpt><trkpt lat="44.99635428754338" lon="9.931506102344846"><ele>54.0</ele><time>2026-04-26T08:11:36.999Z</time></trkpt><trkpt lat="44.99647376595185" lon="9.931564211906279"><ele>54.0</ele><time>2026-04-26T08:11:38.999Z</time></trkpt><trkpt lat="44.99658599194535" lon="9.931615567105425"><ele>54.0</ele><time>2026-04-26T08:11:40.999Z</time></trkpt><trkpt lat="44.99669796186177" lon="9.931667237266067"><ele>54.0</ele><time>2026-04-26T08:11:42.999Z</time></trkpt><trkpt lat="44.9967919982129" lon="9.931697240734149"><ele>54.0</ele><time>2026-04-26T08:11:44.999Z</time></trkpt><trkpt lat="44.996856992703634" lon="9.931716416819675"><ele>54.0</ele><time>2026-04-26T08:11:46.999Z</time></trkpt><trkpt lat="44.997033680352416" lon="9.931800411801525"><ele>54.0</ele><time>2026-04-26T08:11:51.999Z</time></trkpt><trkpt lat="44.99713171449114" lon="9.931852907423528"><ele>54.0</ele><time>2026-04-26T08:11:53.999Z</time></trkpt><trkpt lat="44.997240086352285" lon="9.931889567160848"><ele>54.14285714285714</ele><time>2026-04-26T08:11:55.999Z</time></trkpt><trkpt lat="44.99730160195542" lon="9.931909549410303"><ele>54.285714285714285</ele><time>2026-04-26T08:11:56.999Z</time></trkpt><trkpt lat="44.99736903723496" lon="9.931926959511589"><ele>54.42857142857143</ele><time>2026-04-26T08:11:57.999Z</time></trkpt><trkpt lat="44.99743464635162" lon="9.931954237380168"><ele>54.57142857142857</ele><time>2026-04-26T08:11:58.999Z</time></trkpt><trkpt lat="44.997500728941006" lon="9.931979102550972"><ele>54.714285714285715</ele><time>2026-04-26T08:11:59.999Z</time></trkpt><trkpt lat="44.99756848628281" lon="9.932007924668573"><ele>54.857142857142854</ele><time>2026-04-26T08:12:00.999Z</time></trkpt><trkpt lat="44.99763449963081" lon="9.932040291738419"><ele>55.0</ele><time>2026-04-26T08:12:01.999Z</time></trkpt><trkpt lat="44.99770730419269" lon="9.932067802664806"><ele>54.71428571428571</ele><time>2026-04-26T08:12:02.999Z</time></trkpt><trkpt lat="44.99777423680191" lon="9.932095954507423"><ele>54.42857142857143</ele><time>2026-04-26T08:12:03.998Z</time></trkpt><trkpt lat="44.9978440259496" lon="9.932126146664361"><ele>54.14285714285714</ele><time>2026-04-26T08:12:04.998Z</time></trkpt><trkpt lat="44.99791110078821" lon="9.932154172316851"><ele>53.857142857142854</ele><time>2026-04-26T08:12:05.998Z</time></trkpt><trkpt lat="44.9979796644877" lon="9.932181418791544"><ele>53.57142857142857</ele><time>2026-04-26T08:12:06.998Z</time></trkpt><trkpt lat="44.998046981162425" lon="9.932210780706063"><ele>53.285714285714285</ele><time>2026-04-26T08:12:07.998Z</time></trkpt><trkpt lat="44.998115928168964" lon="9.932237592804654"><ele>53.0</ele><time>2026-04-26T08:12:08.998Z</time></trkpt><trkpt lat="44.99818605807952" lon="9.932267961723731"><ele>53.0</ele><time>2026-04-26T08:12:09.998Z</time></trkpt><trkpt lat="44.998256896509915" lon="9.932297925798451"><ele>53.0</ele><time>2026-04-26T08:12:10.998Z</time></trkpt><trkpt lat="44.99832902850098" lon="9.932328500669085"><ele>53.0</ele><time>2026-04-26T08:12:11.998Z</time></trkpt><trkpt lat="44.99839926454174" lon="9.932358092332855"><ele>53.0</ele><time>2026-04-26T08:12:12.998Z</time></trkpt><trkpt lat="44.99847038659333" lon="9.932386296334492"><ele>53.0</ele><time>2026-04-26T08:12:13.998Z</time></trkpt><trkpt lat="44.99854132181771" lon="9.932413483349642"><ele>53.0</ele><time>2026-04-26T08:12:14.998Z</time></trkpt><trkpt lat="44.9986130676974" lon="9.932438306693566"><ele>53.0</ele><time>2026-04-26T08:12:15.998Z</time></trkpt><trkpt lat="44.99868061516223" lon="9.93246912578667"><ele>52.333333333333336</ele><time>2026-04-26T08:12:16.998Z</time></trkpt><trkpt lat="44.998746724997225" lon="9.932497781000533"><ele>51.66666666666667</ele><time>2026-04-26T08:12:17.998Z</time></trkpt><trkpt lat="44.99880876085287" lon="9.932527887496779"><ele>51.0</ele><time>2026-04-26T08:12:18.998Z</time></trkpt><trkpt lat="44.998871134832065" lon="9.932569107787856"><ele>50.33333333333333</ele><time>2026-04-26T08:12:19.998Z</time></trkpt><trkpt lat="44.99892001513105" lon="9.932636058690308"><ele>49.666666666666664</ele><time>2026-04-26T08:12:20.998Z</time></trkpt><trkpt lat="44.99892336256487" lon="9.932845037363863"><ele>49.0</ele><time>2026-04-26T08:12:22.998Z</time></trkpt><trkpt lat="44.998890008697025" lon="9.932947720906503"><ele>48.99999999999999</ele><time>2026-04-26T08:12:23.998Z</time></trkpt><trkpt lat="44.99887230328235" lon="9.933053915722175"><ele>49.0</ele><time>2026-04-26T08:12:24.998Z</time></trkpt><trkpt lat="44.99885506257042" lon="9.933153373057891"><ele>49.0</ele><time>2026-04-26T08:12:25.998Z</time></trkpt><trkpt lat="44.99883855432233" lon="9.933256683700776"><ele>49.0</ele><time>2026-04-26T08:12:26.998Z</time></trkpt><trkpt lat="44.998819852946056" lon="9.93336164128811"><ele>48.99999999999999</ele><time>2026-04-26T08:12:27.998Z</time></trkpt><trkpt lat="44.99879935753172" lon="9.933464413188604"><ele>49.0</ele><time>2026-04-26T08:12:28.998Z</time></trkpt><trkpt lat="44.998779932056344" lon="9.933567526364232"><ele>48.99999999999999</ele><time>2026-04-26T08:12:29.998Z</time></trkpt><trkpt lat="44.99876035846398" lon="9.933669962077492"><ele>49.0</ele><time>2026-04-26T08:12:30.998Z</time></trkpt><trkpt lat="44.99873514735436" lon="9.93377353262513"><ele>49.0</ele><time>2026-04-26T08:12:31.998Z</time></trkpt><trkpt lat="44.998711011106025" lon="9.933872717863187"><ele>49.0</ele><time>2026-04-26T08:12:32.998Z</time></trkpt><trkpt lat="44.99868824426934" lon="9.93397416194357"><ele>48.99999999999999</ele><time>2026-04-26T08:12:33.998Z</time></trkpt><trkpt lat="44.99866604748582" lon="9.934077618772278"><ele>49.0</ele><time>2026-04-26T08:12:35Z</time></trkpt><trkpt lat="44.99864385636148" lon="9.93418044802168"><ele>49.142857142857146</ele><time>2026-04-26T08:12:36Z</time></trkpt><trkpt lat="44.99862212518867" lon="9.934282503149907"><ele>49.285714285714285</ele><time>2026-04-26T08:12:37Z</time></trkpt><trkpt lat="44.99860504404448" lon="9.934386300281794"><ele>49.42857142857143</ele><time>2026-04-26T08:12:38Z</time></trkpt><trkpt lat="44.99859572902249" lon="9.934488526249142"><ele>49.57142857142857</ele><time>2026-04-26T08:12:39Z</time></trkpt><trkpt lat="44.99859223544941" lon="9.934594773206566"><ele>49.714285714285715</ele><time>2026-04-26T08:12:40Z</time></trkpt><trkpt lat="44.9985924662108" lon="9.934698170558532"><ele>49.85714285714286</ele><time>2026-04-26T08:12:41Z</time></trkpt><trkpt lat="44.99860556913872" lon="9.934800921730835"><ele>50.0</ele><time>2026-04-26T08:12:42Z</time></trkpt><trkpt lat="44.99863094351527" lon="9.934901343589598"><ele>50.00000000000001</ele><time>2026-04-26T08:12:43Z</time></trkpt><trkpt lat="44.998666076881804" lon="9.934996151102759"><ele>50.0</ele><time>2026-04-26T08:12:44Z</time></trkpt><trkpt lat="44.99871387589753" lon="9.935081060001165"><ele>50.0</ele><time>2026-04-26T08:12:45Z</time></trkpt><trkpt lat="44.99877390336537" lon="9.935150283933053"><ele>50.0</ele><time>2026-04-26T08:12:46Z</time></trkpt><trkpt lat="44.9988441176125" lon="9.9352028397192"><ele>50.00000000000001</ele><time>2026-04-26T08:12:47Z</time></trkpt><trkpt lat="44.99891888745438" lon="9.935245837603842"><ele>50.0</ele><time>2026-04-26T08:12:48Z</time></trkpt><trkpt lat="44.99899514598984" lon="9.935280582764536"><ele>50.16666666666667</ele><time>2026-04-26T08:12:49Z</time></trkpt><trkpt lat="44.99907420512081" lon="9.935304559494062"><ele>50.333333333333336</ele><time>2026-04-26T08:12:50Z</time></trkpt><trkpt lat="44.999151241955595" lon="9.935327156753594"><ele>50.5</ele><time>2026-04-26T08:12:51Z</time></trkpt><trkpt lat="44.99922708722085" lon="9.935356997591173"><ele>50.66666666666667</ele><time>2026-04-26T08:12:52Z</time></trkpt><trkpt lat="44.99929921309781" lon="9.93539320232102"><ele>50.833333333333336</ele><time>2026-04-26T08:12:53Z</time></trkpt><trkpt lat="44.9993691674304" lon="9.935433467508107"><ele>51.0</ele><time>2026-04-26T08:12:54Z</time></trkpt><trkpt lat="44.99943754963661" lon="9.935476724995224"><ele>50.333333333333336</ele><time>2026-04-26T08:12:55Z</time></trkpt><trkpt lat="44.999505272557464" lon="9.935519645681252"><ele>49.666666666666664</ele><time>2026-04-26T08:12:56Z</time></trkpt><trkpt lat="44.99957232336623" lon="9.935565882235178"><ele>49.0</ele><time>2026-04-26T08:12:57Z</time></trkpt><trkpt lat="44.99963579411208" lon="9.935607871592813"><ele>48.33333333333333</ele><time>2026-04-26T08:12:58Z</time></trkpt><trkpt lat="44.999735568647054" lon="9.935687442938836"><ele>47.666666666666664</ele><time>2026-04-26T08:13:00Z</time></trkpt><trkpt lat="44.99980932788026" lon="9.93574066193011"><ele>47.0</ele><time>2026-04-26T08:13:02Z</time></trkpt><trkpt lat="44.999866168919155" lon="9.935779004723113"><ele>47.0</ele><time>2026-04-26T08:13:05Z</time></trkpt><trkpt lat="44.99993137766433" lon="9.93581501937927"><ele>47.0</ele><time>2026-04-26T08:14:35.998Z</time></trkpt><trkpt lat="45.000002947304324" lon="9.935872769093868"><ele>47.0</ele><time>2026-04-26T08:14:38.998Z</time></trkpt><trkpt lat="45.00008311050499" lon="9.935925051265777"><ele>47.0</ele><time>2026-04-26T08:14:41Z</time></trkpt><trkpt lat="45.00017380812172" lon="9.93599005614037"><ele>47.0</ele><time>2026-04-26T08:14:43Z</time></trkpt><trkpt lat="45.00027583019846" lon="9.936065315779905"><ele>47.0</ele><time>2026-04-26T08:14:45Z</time></trkpt><trkpt lat="45.00038585469677" lon="9.936146170484614"><ele>47.0</ele><time>2026-04-26T08:14:47Z</time></trkpt><trkpt lat="45.00044516369049" lon="9.936186635004645"><ele>47.0</ele><time>2026-04-26T08:14:48Z</time></trkpt><trkpt lat="45.000506027392795" lon="9.936228944849475"><ele>47.0</ele><time>2026-04-26T08:14:49Z</time></trkpt><trkpt lat="45.00056581021777" lon="9.936275348583182"><ele>47.0</ele><time>2026-04-26T08:14:50Z</time></trkpt><trkpt lat="45.0006286941198" lon="9.936327969658912"><ele>47.0</ele><time>2026-04-26T08:14:51Z</time></trkpt><trkpt lat="45.000691443263726" lon="9.936383722242889"><ele>47.0</ele><time>2026-04-26T08:14:52Z</time></trkpt><trkpt lat="45.00075551855653" lon="9.936439635123387"><ele>47.0</ele><time>2026-04-26T08:14:53Z</time></trkpt><trkpt lat="45.00081918519807" lon="9.936496668102382"><ele>47.0</ele><time>2026-04-26T08:14:54Z</time></trkpt><trkpt lat="45.00088049036092" lon="9.93655058835642"><ele>47.0</ele><time>2026-04-26T08:14:55Z</time></trkpt><trkpt lat="45.00094347940565" lon="9.936610574372633"><ele>47.0</ele><time>2026-04-26T08:14:56Z</time></trkpt><trkpt lat="45.00100937312518" lon="9.936674102868105"><ele>47.0</ele><time>2026-04-26T08:14:57Z</time></trkpt><trkpt lat="45.00107642756154" lon="9.936737168029223"><ele>47.33333333333333</ele><time>2026-04-26T08:14:58Z</time></trkpt><trkpt lat="45.001144669675554" lon="9.93680241031283"><ele>47.666666666666664</ele><time>2026-04-26T08:14:59Z</time></trkpt><trkpt lat="45.00121250529796" lon="9.936866000663182"><ele>48.0</ele><time>2026-04-26T08:15:00Z</time></trkpt><trkpt lat="45.0012814851123" lon="9.936934286169445"><ele>48.33333333333333</ele><time>2026-04-26T08:15:01Z</time></trkpt><trkpt lat="45.00135211687118" lon="9.937000544963228"><ele>48.666666666666664</ele><time>2026-04-26T08:15:02Z</time></trkpt><trkpt lat="45.00142277796168" lon="9.93706643916831"><ele>49.0</ele><time>2026-04-26T08:15:03Z</time></trkpt><trkpt lat="45.0014944302487" lon="9.937135038236754"><ele>48.99999999999999</ele><time>2026-04-26T08:15:04Z</time></trkpt><trkpt lat="45.001567115678405" lon="9.93720527427674"><ele>49.0</ele><time>2026-04-26T08:15:05Z</time></trkpt><trkpt lat="45.001639574494675" lon="9.937273690795836"><ele>49.0</ele><time>2026-04-26T08:15:06Z</time></trkpt><trkpt lat="45.001714085540506" lon="9.937340492364815"><ele>49.0</ele><time>2026-04-26T08:15:07Z</time></trkpt><trkpt lat="45.0017875864079" lon="9.937410754037897"><ele>48.99999999999999</ele><time>2026-04-26T08:15:08Z</time></trkpt><trkpt lat="45.00186065641402" lon="9.937483307508797"><ele>49.0</ele><time>2026-04-26T08:15:09Z</time></trkpt><trkpt lat="45.001936310876644" lon="9.937553883910104"><ele>48.99999999999999</ele><time>2026-04-26T08:15:10Z</time></trkpt><trkpt lat="45.0020097818924" lon="9.937625780987055"><ele>49.0</ele><time>2026-04-26T08:15:11Z</time></trkpt><trkpt lat="45.00208507554054" lon="9.937696765695561"><ele>49.0</ele><time>2026-04-26T08:15:12Z</time></trkpt><trkpt lat="45.00215780176561" lon="9.937765876217345"><ele>49.0</ele><time>2026-04-26T08:15:13Z</time></trkpt><trkpt lat="45.00223222766539" lon="9.937838457235713"><ele>48.99999999999999</ele><time>2026-04-26T08:15:14Z</time></trkpt><trkpt lat="45.0023070325093" lon="9.937910710423843"><ele>49.0</ele><time>2026-04-26T08:15:15Z</time></trkpt><trkpt lat="45.002380781092924" lon="9.93798086679192"><ele>48.99999999999999</ele><time>2026-04-26T08:15:16Z</time></trkpt><trkpt lat="45.002456208557376" lon="9.938050989696393"><ele>49.0</ele><time>2026-04-26T08:15:17Z</time></trkpt><trkpt lat="45.00253147399503" lon="9.938117297872115"><ele>49.0</ele><time>2026-04-26T08:15:18Z</time></trkpt><trkpt lat="45.00260560402001" lon="9.938185848084641"><ele>49.0</ele><time>2026-04-26T08:15:18.999Z</time></trkpt><trkpt lat="45.002678383375226" lon="9.938254124989154"><ele>48.99999999999999</ele><time>2026-04-26T08:15:19.999Z</time></trkpt><trkpt lat="45.002753186251226" lon="9.938322407876079"><ele>49.0</ele><time>2026-04-26T08:15:20.999Z</time></trkpt><trkpt lat="45.00282678376871" lon="9.9383883129895"><ele>49.166666666666664</ele><time>2026-04-26T08:15:21.999Z</time></trkpt><trkpt lat="45.00290267401453" lon="9.938452999585804"><ele>49.33333333333333</ele><time>2026-04-26T08:15:22.999Z</time></trkpt><trkpt lat="45.002978410312814" lon="9.938517454704995"><ele>49.5</ele><time>2026-04-26T08:15:23.999Z</time></trkpt><trkpt lat="45.003053770493764" lon="9.938582467236834"><ele>49.66666666666667</ele><time>2026-04-26T08:15:24.999Z</time></trkpt><trkpt lat="45.00312917283026" lon="9.93864562852218"><ele>49.833333333333336</ele><time>2026-04-26T08:15:25.999Z</time></trkpt><trkpt lat="45.003206997416925" lon="9.93870687342431"><ele>50.0</ele><time>2026-04-26T08:15:26.999Z</time></trkpt><trkpt lat="45.003285552376646" lon="9.938773407607586"><ele>49.50000000000001</ele><time>2026-04-26T08:15:27.999Z</time></trkpt><trkpt lat="45.003361234452925" lon="9.938840502562174"><ele>49.0</ele><time>2026-04-26T08:15:28.999Z</time></trkpt><trkpt lat="45.00343609651641" lon="9.938909395216513"><ele>48.5</ele><time>2026-04-26T08:15:29.999Z</time></trkpt><trkpt lat="45.00350873915614" lon="9.93898282526625"><ele>48.0</ele><time>2026-04-26T08:15:30.999Z</time></trkpt><trkpt lat="45.003580524778805" lon="9.939057583244194"><ele>47.5</ele><time>2026-04-26T08:15:31.999Z</time></trkpt><trkpt lat="45.00365434824467" lon="9.939132390815475"><ele>47.0</ele><time>2026-04-26T08:15:32.999Z</time></trkpt><trkpt lat="45.00372687796447" lon="9.939208002455317"><ele>47.0</ele><time>2026-04-26T08:15:33.999Z</time></trkpt><trkpt lat="45.003797071229805" lon="9.939284346098573"><ele>47.0</ele><time>2026-04-26T08:15:34.999Z</time></trkpt><trkpt lat="45.003866811229834" lon="9.939363976581955"><ele>47.0</ele><time>2026-04-26T08:15:35.999Z</time></trkpt><trkpt lat="45.00393446209181" lon="9.939444774600265"><ele>47.0</ele><time>2026-04-26T08:15:36.999Z</time></trkpt><trkpt lat="45.0040041031265" lon="9.939529178451773"><ele>47.0</ele><time>2026-04-26T08:15:37.999Z</time></trkpt><trkpt lat="45.004071651844896" lon="9.939610497453081"><ele>47.0</ele><time>2026-04-26T08:15:38.999Z</time></trkpt><trkpt lat="45.00413991602346" lon="9.939689764195622"><ele>47.166666666666664</ele><time>2026-04-26T08:15:39.999Z</time></trkpt><trkpt lat="45.00420787688849" lon="9.939770591653451"><ele>47.33333333333333</ele><time>2026-04-26T08:15:40.999Z</time></trkpt><trkpt lat="45.00427618820776" lon="9.939852860301544"><ele>47.5</ele><time>2026-04-26T08:15:41.999Z</time></trkpt><trkpt lat="45.004345292053394" lon="9.939934719627583"><ele>47.666666666666664</ele><time>2026-04-26T08:15:42.999Z</time></trkpt><trkpt lat="45.00441435247795" lon="9.940016933723326"><ele>47.833333333333336</ele><time>2026-04-26T08:15:43.999Z</time></trkpt><trkpt lat="45.0044827070102" lon="9.940098384880217"><ele>48.0</ele><time>2026-04-26T08:15:44.999Z</time></trkpt><trkpt lat="45.00455116091306" lon="9.940180055849954"><ele>48.0</ele><time>2026-04-26T08:15:45.999Z</time></trkpt><trkpt lat="45.004619859358435" lon="9.940261285753248"><ele>48.0</ele><time>2026-04-26T08:15:46.999Z</time></trkpt><trkpt lat="45.00468928962045" lon="9.940344279919179"><ele>48.0</ele><time>2026-04-26T08:15:47.999Z</time></trkpt><trkpt lat="45.004756748134746" lon="9.940427858978941"><ele>48.0</ele><time>2026-04-26T08:15:48.999Z</time></trkpt><trkpt lat="45.00482577216043" lon="9.940509946720189"><ele>48.0</ele><time>2026-04-26T08:15:49.999Z</time></trkpt><trkpt lat="45.00489483140623" lon="9.940594940443212"><ele>48.0</ele><time>2026-04-26T08:15:50.999Z</time></trkpt><trkpt lat="45.00496330272051" lon="9.94067899298237"><ele>48.0</ele><time>2026-04-26T08:15:51.999Z</time></trkpt><trkpt lat="45.005031626540486" lon="9.94076297594783"><ele>48.0</ele><time>2026-04-26T08:15:52.999Z</time></trkpt><trkpt lat="45.00510128289283" lon="9.940847276123467"><ele>48.0</ele><time>2026-04-26T08:15:53.999Z</time></trkpt><trkpt lat="45.00516930190061" lon="9.940930279600495"><ele>48.0</ele><time>2026-04-26T08:15:54.999Z</time></trkpt><trkpt lat="45.00523907389457" lon="9.941013839407328"><ele>48.2</ele><time>2026-04-26T08:15:55.999Z</time></trkpt><trkpt lat="45.005308598707444" lon="9.941097749941251"><ele>48.4</ele><time>2026-04-26T08:15:56.999Z</time></trkpt><trkpt lat="45.00537863639569" lon="9.941181879313051"><ele>48.6</ele><time>2026-04-26T08:15:57.999Z</time></trkpt><trkpt lat="45.00544755371354" lon="9.941265667425498"><ele>48.800000000000004</ele><time>2026-04-26T08:15:58.999Z</time></trkpt><trkpt lat="45.005516106456504" lon="9.94134940347308"><ele>49.0</ele><time>2026-04-26T08:15:59.999Z</time></trkpt><trkpt lat="45.00558573885307" lon="9.941432819879232"><ele>49.0</ele><time>2026-04-26T08:16:00.999Z</time></trkpt><trkpt lat="45.00565290294759" lon="9.941518091675402"><ele>49.0</ele><time>2026-04-26T08:16:01.999Z</time></trkpt><trkpt lat="45.005719467560695" lon="9.941603207644818"><ele>49.0</ele><time>2026-04-26T08:16:02.999Z</time></trkpt><trkpt lat="45.00578852180356" lon="9.941685525622956"><ele>49.0</ele><time>2026-04-26T08:16:03.999Z</time></trkpt><trkpt lat="45.0058585015154" lon="9.941770168466112"><ele>49.0</ele><time>2026-04-26T08:16:04.999Z</time></trkpt><trkpt lat="45.00592665292789" lon="9.941852200732571"><ele>49.0</ele><time>2026-04-26T08:16:05.999Z</time></trkpt><trkpt lat="45.005998135281374" lon="9.94193213764473"><ele>49.0</ele><time>2026-04-26T08:16:06.999Z</time></trkpt><trkpt lat="45.0060723935636" lon="9.942008098230756"><ele>49.0</ele><time>2026-04-26T08:16:07.999Z</time></trkpt><trkpt lat="45.00614916176896" lon="9.9420802727115"><ele>49.0</ele><time>2026-04-26T08:16:08.999Z</time></trkpt><trkpt lat="45.0062283929982" lon="9.942142623876034"><ele>49.0</ele><time>2026-04-26T08:16:09.999Z</time></trkpt><trkpt lat="45.006311942997066" lon="9.942198034654137"><ele>49.0</ele><time>2026-04-26T08:16:10.999Z</time></trkpt><trkpt lat="45.00639989862384" lon="9.942243298802573"><ele>49.0</ele><time>2026-04-26T08:16:11.998Z</time></trkpt><trkpt lat="45.00648914780677" lon="9.942277028816878"><ele>49.0</ele><time>2026-04-26T08:16:12.998Z</time></trkpt><trkpt lat="45.00657958161665" lon="9.942306716124902"><ele>49.0</ele><time>2026-04-26T08:16:13.998Z</time></trkpt><trkpt lat="45.006669872402504" lon="9.942337266846957"><ele>49.0</ele><time>2026-04-26T08:16:14.998Z</time></trkpt><trkpt lat="45.00676213692746" lon="9.94236779230091"><ele>48.800000000000004</ele><time>2026-04-26T08:16:15.998Z</time></trkpt><trkpt lat="45.006850011851625" lon="9.942399417200523"><ele>48.6</ele><time>2026-04-26T08:16:16.998Z</time></trkpt><trkpt lat="45.00693913849877" lon="9.942431970008322"><ele>48.4</ele><time>2026-04-26T08:16:17.998Z</time></trkpt><trkpt lat="45.00702972551328" lon="9.94246437713283"><ele>48.2</ele><time>2026-04-26T08:16:18.998Z</time></trkpt><trkpt lat="45.00711775437338" lon="9.942496609974693"><ele>48.0</ele><time>2026-04-26T08:16:19.998Z</time></trkpt><trkpt lat="45.00720704292845" lon="9.942530333878114"><ele>47.833333333333336</ele><time>2026-04-26T08:16:20.998Z</time></trkpt><trkpt lat="45.00729571507444" lon="9.942560493451737"><ele>47.666666666666664</ele><time>2026-04-26T08:16:21.998Z</time></trkpt><trkpt lat="45.00738442575419" lon="9.942594449278408"><ele>47.5</ele><time>2026-04-26T08:16:22.998Z</time></trkpt><trkpt lat="45.00747233739134" lon="9.942626410052839"><ele>47.33333333333333</ele><time>2026-04-26T08:16:23.998Z</time></trkpt><trkpt lat="45.00755530221317" lon="9.942653408760354"><ele>47.166666666666664</ele><time>2026-04-26T08:16:24.998Z</time></trkpt><trkpt lat="45.00762576588562" lon="9.942673764395442"><ele>47.0</ele><time>2026-04-26T08:16:25.998Z</time></trkpt><trkpt lat="45.00769654756007" lon="9.942700345021448"><ele>47.0</ele><time>2026-04-26T08:16:26.998Z</time></trkpt><trkpt lat="45.00781170042342" lon="9.942763902901348"><ele>47.0</ele><time>2026-04-26T08:16:27.998Z</time></trkpt><trkpt lat="45.00789893216804" lon="9.942800237277691"><ele>47.0</ele><time>2026-04-26T08:16:28.998Z</time></trkpt><trkpt lat="45.00798731823169" lon="9.942835829084332"><ele>47.0</ele><time>2026-04-26T08:16:29.998Z</time></trkpt><trkpt lat="45.008075974425495" lon="9.942871768361172"><ele>47.0</ele><time>2026-04-26T08:16:30.998Z</time></trkpt><trkpt lat="45.00816491451794" lon="9.942904924522498"><ele>47.0</ele><time>2026-04-26T08:16:31.998Z</time></trkpt><trkpt lat="45.00825323665635" lon="9.942935309710737"><ele>47.0</ele><time>2026-04-26T08:16:32.998Z</time></trkpt><trkpt lat="45.00834066090733" lon="9.942968209977819"><ele>47.0</ele><time>2026-04-26T08:16:33.998Z</time></trkpt><trkpt lat="45.0084270200582" lon="9.943004690392623"><ele>47.0</ele><time>2026-04-26T08:16:34.998Z</time></trkpt><trkpt lat="45.008512963505794" lon="9.943036934106592"><ele>47.0</ele><time>2026-04-26T08:16:35.998Z</time></trkpt><trkpt lat="45.00859865391596" lon="9.94307346291473"><ele>46.5</ele><time>2026-04-26T08:16:36.998Z</time></trkpt><trkpt lat="45.0086859864718" lon="9.943108369746653"><ele>46.0</ele><time>2026-04-26T08:16:37.998Z</time></trkpt><trkpt lat="45.00876988423867" lon="9.943137038555538"><ele>45.5</ele><time>2026-04-26T08:16:38.998Z</time></trkpt><trkpt lat="45.00885341832924" lon="9.943166048458254"><ele>45.0</ele><time>2026-04-26T08:16:39.998Z</time></trkpt><trkpt lat="45.00893650310058" lon="9.943195252308783"><ele>44.5</ele><time>2026-04-26T08:16:40.998Z</time></trkpt><trkpt lat="45.00902211481712" lon="9.943226518670318"><ele>44.0</ele><time>2026-04-26T08:16:41.998Z</time></trkpt><trkpt lat="45.0091069072751" lon="9.943258918539337"><ele>44.166666666666664</ele><time>2026-04-26T08:16:42.998Z</time></trkpt><trkpt lat="45.009186620730034" lon="9.943289799688895"><ele>44.33333333333333</ele><time>2026-04-26T08:16:43.998Z</time></trkpt><trkpt lat="45.00927390538063" lon="9.94331824269123"><ele>44.5</ele><time>2026-04-26T08:16:44.998Z</time></trkpt><trkpt lat="45.009363039596316" lon="9.943349587832003"><ele>44.666666666666664</ele><time>2026-04-26T08:16:45.998Z</time></trkpt><trkpt lat="45.00945200580713" lon="9.94338198142752"><ele>44.833333333333336</ele><time>2026-04-26T08:16:47Z</time></trkpt><trkpt lat="45.00953803095095" lon="9.943415808601502"><ele>45.0</ele><time>2026-04-26T08:16:48Z</time></trkpt><trkpt lat="45.00962115188042" lon="9.943451454655746"><ele>45.166666666666664</ele><time>2026-04-26T08:16:49Z</time></trkpt><trkpt lat="45.009705976709185" lon="9.94348792189585"><ele>45.333333333333336</ele><time>2026-04-26T08:16:50Z</time></trkpt><trkpt lat="45.00978945497184" lon="9.943523437662366"><ele>45.5</ele><time>2026-04-26T08:16:51Z</time></trkpt><trkpt lat="45.009877236537335" lon="9.9435580024794"><ele>45.66666666666667</ele><time>2026-04-26T08:16:52Z</time></trkpt><trkpt lat="45.00996510685934" lon="9.943591259917097"><ele>45.833333333333336</ele><time>2026-04-26T08:16:53Z</time></trkpt><trkpt lat="45.01005401643008" lon="9.9436213713999"><ele>46.0</ele><time>2026-04-26T08:16:54Z</time></trkpt><trkpt lat="45.01014246279734" lon="9.943651720327596"><ele>46.0</ele><time>2026-04-26T08:16:55Z</time></trkpt><trkpt lat="45.010230573881046" lon="9.943680421796612"><ele>46.0</ele><time>2026-04-26T08:16:56Z</time></trkpt><trkpt lat="45.01031660087421" lon="9.943708586330583"><ele>46.0</ele><time>2026-04-26T08:16:57Z</time></trkpt><trkpt lat="45.01040523209123" lon="9.943737217939526"><ele>46.0</ele><time>2026-04-26T08:16:58Z</time></trkpt><trkpt lat="45.01049369618275" lon="9.94376355001768"><ele>46.0</ele><time>2026-04-26T08:16:59Z</time></trkpt><trkpt lat="45.01058315560131" lon="9.94379248252542"><ele>46.0</ele><time>2026-04-26T08:17:00Z</time></trkpt><trkpt lat="45.01067018868116" lon="9.94381840387471"><ele>46.0</ele><time>2026-04-26T08:17:01Z</time></trkpt><trkpt lat="45.010758794303385" lon="9.943844445887136"><ele>46.0</ele><time>2026-04-26T08:17:02Z</time></trkpt><trkpt lat="45.01084751306965" lon="9.943869570461914"><ele>46.0</ele><time>2026-04-26T08:17:03Z</time></trkpt><trkpt lat="45.01093794714155" lon="9.943897110225791"><ele>46.0</ele><time>2026-04-26T08:17:04Z</time></trkpt><trkpt lat="45.011028028678595" lon="9.9439222823597"><ele>46.0</ele><time>2026-04-26T08:17:05Z</time></trkpt><trkpt lat="45.011118450481455" lon="9.943950627629896"><ele>46.0</ele><time>2026-04-26T08:17:06Z</time></trkpt><trkpt lat="45.011208871650055" lon="9.943981025905918"><ele>46.0</ele><time>2026-04-26T08:17:07Z</time></trkpt><trkpt lat="45.011299775954676" lon="9.944007546972987"><ele>46.0</ele><time>2026-04-26T08:17:08Z</time></trkpt><trkpt lat="45.01138953794776" lon="9.944032470567132"><ele>46.0</ele><time>2026-04-26T08:17:09Z</time></trkpt><trkpt lat="45.01147773198661" lon="9.94406064425866"><ele>46.0</ele><time>2026-04-26T08:17:10Z</time></trkpt><trkpt lat="45.01156574828472" lon="9.944090220982188"><ele>46.0</ele><time>2026-04-26T08:17:11Z</time></trkpt><trkpt lat="45.01165432338652" lon="9.944120227080562"><ele>46.0</ele><time>2026-04-26T08:17:12Z</time></trkpt><trkpt lat="45.01174195681426" lon="9.944148042078417"><ele>46.0</ele><time>2026-04-26T08:17:13Z</time></trkpt><trkpt lat="45.01183081614103" lon="9.944177182263319"><ele>46.0</ele><time>2026-04-26T08:17:14Z</time></trkpt><trkpt lat="45.01191965302163" lon="9.944200793653337"><ele>45.66666666666667</ele><time>2026-04-26T08:17:15Z</time></trkpt><trkpt lat="45.0120073029635" lon="9.944222387119137"><ele>45.333333333333336</ele><time>2026-04-26T08:17:16Z</time></trkpt><trkpt lat="45.01209518166435" lon="9.944244649194594"><ele>45.0</ele><time>2026-04-26T08:17:17Z</time></trkpt><trkpt lat="45.01218346377555" lon="9.944270104149835"><ele>44.666666666666664</ele><time>2026-04-26T08:17:18Z</time></trkpt><trkpt lat="45.01227348498167" lon="9.944294362109659"><ele>44.33333333333333</ele><time>2026-04-26T08:17:19Z</time></trkpt><trkpt lat="45.012361449657675" lon="9.944317172666967"><ele>44.0</ele><time>2026-04-26T08:17:20Z</time></trkpt><trkpt lat="45.01244871568908" lon="9.944340541786218"><ele>44.0</ele><time>2026-04-26T08:17:21Z</time></trkpt><trkpt lat="45.01253566229948" lon="9.944362776328603"><ele>44.0</ele><time>2026-04-26T08:17:22Z</time></trkpt><trkpt lat="45.01262381988267" lon="9.944382949606592"><ele>44.0</ele><time>2026-04-26T08:17:22.999Z</time></trkpt><trkpt lat="45.012713007593796" lon="9.944405925676923"><ele>44.0</ele><time>2026-04-26T08:17:23.999Z</time></trkpt><trkpt lat="45.01280411428194" lon="9.94443197981032"><ele>44.0</ele><time>2026-04-26T08:17:24.999Z</time></trkpt><trkpt lat="45.01289239729745" lon="9.944458498850645"><ele>44.0</ele><time>2026-04-26T08:17:25.999Z</time></trkpt><trkpt lat="45.01297913968749" lon="9.944485027258446"><ele>44.0</ele><time>2026-04-26T08:17:26.999Z</time></trkpt><trkpt lat="45.01306605136261" lon="9.944514106315161"><ele>44.0</ele><time>2026-04-26T08:17:27.999Z</time></trkpt><trkpt lat="45.01315074148857" lon="9.94455987075941"><ele>44.0</ele><time>2026-04-26T08:17:28.999Z</time></trkpt><trkpt lat="45.01323304779845" lon="9.944611029446737"><ele>44.0</ele><time>2026-04-26T08:17:29.999Z</time></trkpt><trkpt lat="45.01331362291018" lon="9.944662422848106"><ele>44.0</ele><time>2026-04-26T08:17:30.999Z</time></trkpt><trkpt lat="45.01339460364855" lon="9.94471103556554"><ele>44.0</ele><time>2026-04-26T08:17:31.999Z</time></trkpt><trkpt lat="45.01347565708031" lon="9.944764961720994"><ele>44.0</ele><time>2026-04-26T08:17:32.999Z</time></trkpt><trkpt lat="45.013555955192096" lon="9.944819641793513"><ele>44.0</ele><time>2026-04-26T08:17:33.999Z</time></trkpt><trkpt lat="45.013636436919896" lon="9.944873047255383"><ele>44.0</ele><time>2026-04-26T08:17:34.999Z</time></trkpt><trkpt lat="45.013716530157396" lon="9.944931159560701"><ele>44.0</ele><time>2026-04-26T08:17:35.999Z</time></trkpt><trkpt lat="45.013793592993906" lon="9.944992445006694"><ele>44.0</ele><time>2026-04-26T08:17:36.999Z</time></trkpt><trkpt lat="45.013872101734194" lon="9.94505304317511"><ele>44.0</ele><time>2026-04-26T08:17:37.999Z</time></trkpt><trkpt lat="45.01395023892752" lon="9.94511566010346"><ele>44.0</ele><time>2026-04-26T08:17:38.999Z</time></trkpt><trkpt lat="45.01402921071518" lon="9.945179508049753"><ele>44.0</ele><time>2026-04-26T08:17:39.999Z</time></trkpt><trkpt lat="45.01410776251904" lon="9.945240971713481"><ele>44.0</ele><time>2026-04-26T08:17:40.999Z</time></trkpt><trkpt lat="45.01418613067786" lon="9.945302686090871"><ele>44.0</ele><time>2026-04-26T08:17:41.999Z</time></trkpt><trkpt lat="45.01426395361365" lon="9.945366442638326"><ele>44.0</ele><time>2026-04-26T08:17:42.999Z</time></trkpt><trkpt lat="45.014341895235695" lon="9.945428211288883"><ele>44.0</ele><time>2026-04-26T08:17:43.999Z</time></trkpt><trkpt lat="45.01442121661484" lon="9.945492687990019"><ele>44.0</ele><time>2026-04-26T08:17:44.999Z</time></trkpt><trkpt lat="45.01449783306067" lon="9.94555762256869"><ele>44.0</ele><time>2026-04-26T08:17:45.999Z</time></trkpt><trkpt lat="45.01457627328291" lon="9.945619596357345"><ele>44.0</ele><time>2026-04-26T08:17:46.999Z</time></trkpt><trkpt lat="45.014655022471395" lon="9.945682529440376"><ele>44.0</ele><time>2026-04-26T08:17:47.999Z</time></trkpt><trkpt lat="45.014733679871085" lon="9.945745483888482"><ele>44.0</ele><time>2026-04-26T08:17:48.999Z</time></trkpt><trkpt lat="45.01481209451493" lon="9.945807228692951"><ele>44.0</ele><time>2026-04-26T08:17:49.999Z</time></trkpt><trkpt lat="45.01489246308312" lon="9.945870503972378"><ele>44.0</ele><time>2026-04-26T08:17:50.999Z</time></trkpt><trkpt lat="45.01496980604894" lon="9.94593617808462"><ele>44.0</ele><time>2026-04-26T08:17:51.999Z</time></trkpt><trkpt lat="45.015047440355296" lon="9.945999449713836"><ele>44.400000000000006</ele><time>2026-04-26T08:17:52.999Z</time></trkpt><trkpt lat="45.015127347493255" lon="9.94606318164294"><ele>44.8</ele><time>2026-04-26T08:17:53.999Z</time></trkpt><trkpt lat="45.0152057470924" lon="9.946128401487698"><ele>45.2</ele><time>2026-04-26T08:17:54.999Z</time></trkpt><trkpt lat="45.015282984837185" lon="9.94619259130939"><ele>45.599999999999994</ele><time>2026-04-26T08:17:55.999Z</time></trkpt><trkpt lat="45.01536236099239" lon="9.946254713482459"><ele>46.0</ele><time>2026-04-26T08:17:56.999Z</time></trkpt><trkpt lat="45.015440754049365" lon="9.946319314712524"><ele>46.0</ele><time>2026-04-26T08:17:57.999Z</time></trkpt><trkpt lat="45.0155157459508" lon="9.946383691633221"><ele>46.0</ele><time>2026-04-26T08:17:58.999Z</time></trkpt><trkpt lat="45.0155940912994" lon="9.946446252790398"><ele>46.0</ele><time>2026-04-26T08:17:59.999Z</time></trkpt><trkpt lat="45.0156714583836" lon="9.946510623973772"><ele>46.0</ele><time>2026-04-26T08:18:00.999Z</time></trkpt><trkpt lat="45.0157485810603" lon="9.946571919610031"><ele>46.0</ele><time>2026-04-26T08:18:01.999Z</time></trkpt><trkpt lat="45.01582884942368" lon="9.946636397333538"><ele>46.0</ele><time>2026-04-26T08:18:02.999Z</time></trkpt><trkpt lat="45.0159070521226" lon="9.946702980044776"><ele>46.0</ele><time>2026-04-26T08:18:03.999Z</time></trkpt><trkpt lat="45.01598499254043" lon="9.946764830911327"><ele>46.0</ele><time>2026-04-26T08:18:04.999Z</time></trkpt><trkpt lat="45.01606582460783" lon="9.946827593031584"><ele>46.0</ele><time>2026-04-26T08:18:05.999Z</time></trkpt><trkpt lat="45.01614772949471" lon="9.946892396633409"><ele>46.0</ele><time>2026-04-26T08:18:06.999Z</time></trkpt><trkpt lat="45.016228791303995" lon="9.946948056373955"><ele>46.0</ele><time>2026-04-26T08:18:07.999Z</time></trkpt><trkpt lat="45.01631126267363" lon="9.947003247323414"><ele>46.0</ele><time>2026-04-26T08:18:08.999Z</time></trkpt><trkpt lat="45.01639332725363" lon="9.947057015322843"><ele>46.0</ele><time>2026-04-26T08:18:09.999Z</time></trkpt><trkpt lat="45.016479653104746" lon="9.947110491862269"><ele>46.0</ele><time>2026-04-26T08:18:10.999Z</time></trkpt><trkpt lat="45.0165620521515" lon="9.94715985124137"><ele>46.0</ele><time>2026-04-26T08:18:11.999Z</time></trkpt><trkpt lat="45.01664707092447" lon="9.947199782912335"><ele>46.0</ele><time>2026-04-26T08:18:12.999Z</time></trkpt><trkpt lat="45.016734129808526" lon="9.947241177809634"><ele>45.8</ele><time>2026-04-26T08:18:13.999Z</time></trkpt><trkpt lat="45.01682081984203" lon="9.947283136549679"><ele>45.599999999999994</ele><time>2026-04-26T08:18:14.999Z</time></trkpt><trkpt lat="45.01690786139722" lon="9.947320605638213"><ele>45.4</ele><time>2026-04-26T08:18:15.999Z</time></trkpt><trkpt lat="45.01699388627217" lon="9.947358392494184"><ele>45.2</ele><time>2026-04-26T08:18:16.998Z</time></trkpt><trkpt lat="45.01708194560924" lon="9.947395294077236"><ele>45.0</ele><time>2026-04-26T08:18:17.998Z</time></trkpt><trkpt lat="45.017169567101924" lon="9.947429819702643"><ele>45.0</ele><time>2026-04-26T08:18:18.998Z</time></trkpt><trkpt lat="45.01725644466414" lon="9.947465243243967"><ele>45.0</ele><time>2026-04-26T08:18:19.998Z</time></trkpt><trkpt lat="45.01734319028566" lon="9.947498912875579"><ele>45.0</ele><time>2026-04-26T08:18:20.998Z</time></trkpt><trkpt lat="45.01742969423231" lon="9.94753462557526"><ele>45.0</ele><time>2026-04-26T08:18:21.998Z</time></trkpt><trkpt lat="45.01751656287668" lon="9.947569508914361"><ele>45.0</ele><time>2026-04-26T08:18:22.998Z</time></trkpt><trkpt lat="45.01760500036107" lon="9.947603726978642"><ele>45.2</ele><time>2026-04-26T08:18:23.998Z</time></trkpt><trkpt lat="45.01769252886565" lon="9.947636710953804"><ele>45.4</ele><time>2026-04-26T08:18:24.998Z</time></trkpt><trkpt lat="45.01778285159255" lon="9.947673159321747"><ele>45.599999999999994</ele><time>2026-04-26T08:18:25.998Z</time></trkpt><trkpt lat="45.01786931234731" lon="9.947707948954461"><ele>45.8</ele><time>2026-04-26T08:18:26.998Z</time></trkpt><trkpt lat="45.017955217850776" lon="9.947747662771455"><ele>46.0</ele><time>2026-04-26T08:18:27.998Z</time></trkpt><trkpt lat="45.01804180389176" lon="9.947788417030223"><ele>46.0</ele><time>2026-04-26T08:18:28.998Z</time></trkpt><trkpt lat="45.018128526673976" lon="9.9478320815133"><ele>46.0</ele><time>2026-04-26T08:18:29.998Z</time></trkpt><trkpt lat="45.01821290959951" lon="9.947878737495644"><ele>46.0</ele><time>2026-04-26T08:18:30.998Z</time></trkpt><trkpt lat="45.01829562464724" lon="9.947928859807233"><ele>46.0</ele><time>2026-04-26T08:18:31.998Z</time></trkpt><trkpt lat="45.01838012814938" lon="9.947983082097714"><ele>46.0</ele><time>2026-04-26T08:18:32.998Z</time></trkpt><trkpt lat="45.01846340903577" lon="9.948033131484076"><ele>46.0</ele><time>2026-04-26T08:18:33.998Z</time></trkpt><trkpt lat="45.018541356585104" lon="9.948083053792526"><ele>46.0</ele><time>2026-04-26T08:18:34.998Z</time></trkpt><trkpt lat="45.01862765288137" lon="9.948135724887962"><ele>46.0</ele><time>2026-04-26T08:18:35.998Z</time></trkpt><trkpt lat="45.01871371161773" lon="9.948182773577683"><ele>46.0</ele><time>2026-04-26T08:18:36.998Z</time></trkpt><trkpt lat="45.01879684148369" lon="9.948222626987997"><ele>46.0</ele><time>2026-04-26T08:18:37.998Z</time></trkpt><trkpt lat="45.0188851020555" lon="9.948251965021258"><ele>46.0</ele><time>2026-04-26T08:18:38.998Z</time></trkpt><trkpt lat="45.01897846519005" lon="9.9482687378397"><ele>46.0</ele><time>2026-04-26T08:18:39.998Z</time></trkpt><trkpt lat="45.019068921911966" lon="9.948282780350047"><ele>46.0</ele><time>2026-04-26T08:18:40.998Z</time></trkpt><trkpt lat="45.019161640722764" lon="9.948289909294374"><ele>46.0</ele><time>2026-04-26T08:18:41.998Z</time></trkpt><trkpt lat="45.019251745169925" lon="9.948302250846442"><ele>46.0</ele><time>2026-04-26T08:18:42.998Z</time></trkpt><trkpt lat="45.01934423408329" lon="9.94830836008883"><ele>46.0</ele><time>2026-04-26T08:18:43.998Z</time></trkpt><trkpt lat="45.019436054744496" lon="9.94831768466154"><ele>46.0</ele><time>2026-04-26T08:18:44.998Z</time></trkpt><trkpt lat="45.01952698817218" lon="9.948324853309893"><ele>46.0</ele><time>2026-04-26T08:18:45.998Z</time></trkpt><trkpt lat="45.01961887028844" lon="9.948333363895932"><ele>46.0</ele><time>2026-04-26T08:18:46.998Z</time></trkpt><trkpt lat="45.019707403312225" lon="9.948341553736835"><ele>46.0</ele><time>2026-04-26T08:18:47.998Z</time></trkpt><trkpt lat="45.01980134608695" lon="9.948347394641171"><ele>46.0</ele><time>2026-04-26T08:18:48.998Z</time></trkpt><trkpt lat="45.019890405214724" lon="9.948355072401748"><ele>46.0</ele><time>2026-04-26T08:18:49.998Z</time></trkpt><trkpt lat="45.01998060462611" lon="9.948358340695275"><ele>46.0</ele><time>2026-04-26T08:18:50.998Z</time></trkpt><trkpt lat="45.02007345554416" lon="9.948362965398891"><ele>46.0</ele><time>2026-04-26T08:18:52Z</time></trkpt><trkpt lat="45.0201617640764" lon="9.948371386234829"><ele>46.0</ele><time>2026-04-26T08:18:53Z</time></trkpt><trkpt lat="45.020249089463775" lon="9.948381290446402"><ele>46.0</ele><time>2026-04-26T08:18:54Z</time></trkpt><trkpt lat="45.02033889212738" lon="9.948391708528149"><ele>46.5</ele><time>2026-04-26T08:18:55Z</time></trkpt><trkpt lat="45.02042688561785" lon="9.948403416251102"><ele>47.0</ele><time>2026-04-26T08:18:56Z</time></trkpt><trkpt lat="45.02051289677347" lon="9.948417446498281"><ele>47.5</ele><time>2026-04-26T08:18:57Z</time></trkpt><trkpt lat="45.020600941477724" lon="9.948434770606177"><ele>48.0</ele><time>2026-04-26T08:18:58Z</time></trkpt><trkpt lat="45.02068733285865" lon="9.948452363273116"><ele>48.49999999999999</ele><time>2026-04-26T08:18:59Z</time></trkpt><trkpt lat="45.02077643028183" lon="9.948465260634475"><ele>49.0</ele><time>2026-04-26T08:19:00Z</time></trkpt><trkpt lat="45.02086367154702" lon="9.94848079264635"><ele>49.666666666666664</ele><time>2026-04-26T08:19:01Z</time></trkpt><trkpt lat="45.02094944764586" lon="9.948498223765956"><ele>50.33333333333333</ele><time>2026-04-26T08:19:02Z</time></trkpt><trkpt lat="45.02103506342061" lon="9.948528202251454"><ele>51.0</ele><time>2026-04-26T08:19:03Z</time></trkpt><trkpt lat="45.02111553650283" lon="9.948561426273672"><ele>51.66666666666667</ele><time>2026-04-26T08:19:04Z</time></trkpt><trkpt lat="45.0211950248116" lon="9.94860738642924"><ele>52.333333333333336</ele><time>2026-04-26T08:19:05Z</time></trkpt><trkpt lat="45.0212762683957" lon="9.948642239201344"><ele>53.0</ele><time>2026-04-26T08:19:06Z</time></trkpt><trkpt lat="45.0213633235698" lon="9.948652665469895"><ele>53.00000000000001</ele><time>2026-04-26T08:19:07Z</time></trkpt><trkpt lat="45.021451918306745" lon="9.948649832557036"><ele>53.0</ele><time>2026-04-26T08:19:08Z</time></trkpt><trkpt lat="45.021513888605305" lon="9.94857050670219"><ele>53.0</ele><time>2026-04-26T08:19:09Z</time></trkpt><trkpt lat="45.021539269402744" lon="9.948462044113612"><ele>53.0</ele><time>2026-04-26T08:19:10Z</time></trkpt><trkpt lat="45.021562355784894" lon="9.948338452437184"><ele>53.00000000000001</ele><time>2026-04-26T08:19:11Z</time></trkpt><trkpt lat="45.021583621168446" lon="9.948221329612464"><ele>53.0</ele><time>2026-04-26T08:19:12Z</time></trkpt><trkpt lat="45.0216193881638" lon="9.948115195999172"><ele>51.833333333333336</ele><time>2026-04-26T08:19:13Z</time></trkpt><trkpt lat="45.02165409852452" lon="9.948004604216253"><ele>50.66666666666667</ele><time>2026-04-26T08:19:14Z</time></trkpt><trkpt lat="45.02168707743639" lon="9.94789348804886"><ele>49.5</ele><time>2026-04-26T08:19:15Z</time></trkpt><trkpt lat="45.02172118304061" lon="9.947778321660039"><ele>48.333333333333336</ele><time>2026-04-26T08:19:16Z</time></trkpt><trkpt lat="45.021753474134954" lon="9.947659641140584"><ele>47.16666666666667</ele><time>2026-04-26T08:19:17Z</time></trkpt><trkpt lat="45.02178253223941" lon="9.947537862266847"><ele>46.0</ele><time>2026-04-26T08:19:18Z</time></trkpt><trkpt lat="45.02181371162592" lon="9.94741883791606"><ele>46.0</ele><time>2026-04-26T08:19:19Z</time></trkpt><trkpt lat="45.021845181475804" lon="9.947299589159782"><ele>46.0</ele><time>2026-04-26T08:19:20Z</time></trkpt><trkpt lat="45.021876030980685" lon="9.947182529280798"><ele>46.0</ele><time>2026-04-26T08:19:21Z</time></trkpt><trkpt lat="45.02191057856646" lon="9.947065704737247"><ele>46.0</ele><time>2026-04-26T08:19:22Z</time></trkpt><trkpt lat="45.02194441730222" lon="9.946948959878705"><ele>46.0</ele><time>2026-04-26T08:19:23Z</time></trkpt><trkpt lat="45.02197889874589" lon="9.94683394717409"><ele>46.0</ele><time>2026-04-26T08:19:24Z</time></trkpt><trkpt lat="45.022011315008605" lon="9.946716111056697"><ele>45.833333333333336</ele><time>2026-04-26T08:19:25Z</time></trkpt><trkpt lat="45.02204525723159" lon="9.946604391428854"><ele>45.66666666666667</ele><time>2026-04-26T08:19:25.999Z</time></trkpt><trkpt lat="45.02208317937652" lon="9.946491458858523"><ele>45.5</ele><time>2026-04-26T08:19:26.999Z</time></trkpt><trkpt lat="45.02211956449417" lon="9.946373754058056"><ele>45.333333333333336</ele><time>2026-04-26T08:19:27.999Z</time></trkpt><trkpt lat="45.02215241890913" lon="9.946255401619911"><ele>45.166666666666664</ele><time>2026-04-26T08:19:28.999Z</time></trkpt><trkpt lat="45.022188134726775" lon="9.946137990209271"><ele>45.0</ele><time>2026-04-26T08:19:29.999Z</time></trkpt><trkpt lat="45.022222005110336" lon="9.946021906588541"><ele>45.0</ele><time>2026-04-26T08:19:30.999Z</time></trkpt><trkpt lat="45.022256602108996" lon="9.945908383342259"><ele>45.0</ele><time>2026-04-26T08:19:31.999Z</time></trkpt><trkpt lat="45.02228877961783" lon="9.945794447310432"><ele>45.0</ele><time>2026-04-26T08:19:32.999Z</time></trkpt><trkpt lat="45.02232282736672" lon="9.945678265766583"><ele>45.0</ele><time>2026-04-26T08:19:33.999Z</time></trkpt><trkpt lat="45.02235797835341" lon="9.94556298743119"><ele>45.0</ele><time>2026-04-26T08:19:34.999Z</time></trkpt><trkpt lat="45.02239208831648" lon="9.945449739070527"><ele>45.0</ele><time>2026-04-26T08:19:35.999Z</time></trkpt><trkpt lat="45.02243596446209" lon="9.945359160202734"><ele>44.833333333333336</ele><time>2026-04-26T08:19:36.999Z</time></trkpt><trkpt lat="45.02246886727218" lon="9.945234071824528"><ele>44.666666666666664</ele><time>2026-04-26T08:19:37.999Z</time></trkpt><trkpt lat="45.02249636202208" lon="9.945112729567237"><ele>44.5</ele><time>2026-04-26T08:19:38.999Z</time></trkpt><trkpt lat="45.02253518966819" lon="9.944999418439519"><ele>44.33333333333333</ele><time>2026-04-26T08:19:39.999Z</time></trkpt><trkpt lat="45.02257156367428" lon="9.944889753355577"><ele>44.166666666666664</ele><time>2026-04-26T08:19:40.999Z</time></trkpt><trkpt lat="45.02260876233339" lon="9.944779687459054"><ele>44.0</ele><time>2026-04-26T08:19:41.999Z</time></trkpt><trkpt lat="45.0226465439043" lon="9.944669828495584"><ele>44.0</ele><time>2026-04-26T08:19:42.999Z</time></trkpt><trkpt lat="45.02268851199439" lon="9.944560614687573"><ele>44.0</ele><time>2026-04-26T08:19:43.999Z</time></trkpt><trkpt lat="45.02273562425251" lon="9.944457761081164"><ele>44.0</ele><time>2026-04-26T08:19:44.999Z</time></trkpt><trkpt lat="45.02279247408327" lon="9.944365425657868"><ele>44.0</ele><time>2026-04-26T08:19:45.999Z</time></trkpt><trkpt lat="45.0228525882114" lon="9.944276074999099"><ele>44.0</ele><time>2026-04-26T08:19:46.999Z</time></trkpt><trkpt lat="45.02291456795736" lon="9.944187271888678"><ele>44.0</ele><time>2026-04-26T08:19:47.999Z</time></trkpt><trkpt lat="45.022976853461984" lon="9.944096739516882"><ele>43.83333333333333</ele><time>2026-04-26T08:19:48.999Z</time></trkpt><trkpt lat="45.02303813853514" lon="9.94400653465784"><ele>43.666666666666664</ele><time>2026-04-26T08:19:49.999Z</time></trkpt><trkpt lat="45.02310061222414" lon="9.943916090738599"><ele>43.5</ele><time>2026-04-26T08:19:50.999Z</time></trkpt><trkpt lat="45.023162236025584" lon="9.943826195569894"><ele>43.333333333333336</ele><time>2026-04-26T08:19:51.999Z</time></trkpt><trkpt lat="45.02322323068655" lon="9.943736717102182"><ele>43.16666666666667</ele><time>2026-04-26T08:19:52.999Z</time></trkpt><trkpt lat="45.02328514166857" lon="9.943646097566887"><ele>43.0</ele><time>2026-04-26T08:19:53.999Z</time></trkpt><trkpt lat="45.02334810084114" lon="9.943558186119667"><ele>43.0</ele><time>2026-04-26T08:19:54.999Z</time></trkpt><trkpt lat="45.02341083311223" lon="9.943467791107746"><ele>43.0</ele><time>2026-04-26T08:19:55.999Z</time></trkpt><trkpt lat="45.023470497900064" lon="9.943379156002955"><ele>43.0</ele><time>2026-04-26T08:19:56.999Z</time></trkpt><trkpt lat="45.02353242285027" lon="9.94328970352115"><ele>43.0</ele><time>2026-04-26T08:19:57.999Z</time></trkpt><trkpt lat="45.02359256231793" lon="9.943200467908675"><ele>43.0</ele><time>2026-04-26T08:19:58.999Z</time></trkpt><trkpt lat="45.023653069493754" lon="9.943111688320789"><ele>43.0</ele><time>2026-04-26T08:19:59.999Z</time></trkpt><trkpt lat="45.023713733089394" lon="9.943023550691153"><ele>43.333333333333336</ele><time>2026-04-26T08:20:00.999Z</time></trkpt><trkpt lat="45.02377461168793" lon="9.94293510842981"><ele>43.66666666666667</ele><time>2026-04-26T08:20:01.999Z</time></trkpt><trkpt lat="45.02383707311154" lon="9.94284577400305"><ele>44.0</ele><time>2026-04-26T08:20:02.999Z</time></trkpt><trkpt lat="45.02389715926217" lon="9.942757946332705"><ele>44.333333333333336</ele><time>2026-04-26T08:20:03.999Z</time></trkpt><trkpt lat="45.023958271663936" lon="9.942668071743872"><ele>44.666666666666664</ele><time>2026-04-26T08:20:04.999Z</time></trkpt><trkpt lat="45.024020403372376" lon="9.942581056272077"><ele>45.0</ele><time>2026-04-26T08:20:05.999Z</time></trkpt><trkpt lat="45.024082329401274" lon="9.942495780180623"><ele>45.0</ele><time>2026-04-26T08:20:06.999Z</time></trkpt><trkpt lat="45.024144856435434" lon="9.942406729065224"><ele>45.0</ele><time>2026-04-26T08:20:07.999Z</time></trkpt><trkpt lat="45.02421018798036" lon="9.94232950786611"><ele>45.0</ele><time>2026-04-26T08:20:08.999Z</time></trkpt><trkpt lat="45.02427942984492" lon="9.942258169546536"><ele>45.0</ele><time>2026-04-26T08:20:09.999Z</time></trkpt><trkpt lat="45.02435713315675" lon="9.942201755756626"><ele>45.0</ele><time>2026-04-26T08:20:10.999Z</time></trkpt><trkpt lat="45.02443813967964" lon="9.942156261387497"><ele>45.0</ele><time>2026-04-26T08:20:11.999Z</time></trkpt><trkpt lat="45.02452108283086" lon="9.942127726322363"><ele>44.833333333333336</ele><time>2026-04-26T08:20:12.999Z</time></trkpt><trkpt lat="45.02460665190763" lon="9.942118885032846"><ele>44.666666666666664</ele><time>2026-04-26T08:20:13.999Z</time></trkpt><trkpt lat="45.02469305364437" lon="9.942125964069414"><ele>44.5</ele><time>2026-04-26T08:20:14.999Z</time></trkpt><trkpt lat="45.02477825076761" lon="9.942142487683455"><ele>44.33333333333333</ele><time>2026-04-26T08:20:15.999Z</time></trkpt><trkpt lat="45.0248597690896" lon="9.942176081814633"><ele>44.166666666666664</ele><time>2026-04-26T08:20:16.999Z</time></trkpt><trkpt lat="45.02493875112558" lon="9.942215239132967"><ele>44.0</ele><time>2026-04-26T08:20:17.999Z</time></trkpt><trkpt lat="45.025022311517375" lon="9.942249708321649"><ele>44.0</ele><time>2026-04-26T08:20:18.999Z</time></trkpt><trkpt lat="45.025105568651156" lon="9.942282559305314"><ele>44.0</ele><time>2026-04-26T08:20:19.999Z</time></trkpt><trkpt lat="45.02518702514431" lon="9.94231607341992"><ele>44.0</ele><time>2026-04-26T08:20:20.998Z</time></trkpt><trkpt lat="45.02526928599007" lon="9.942350152461525"><ele>44.0</ele><time>2026-04-26T08:20:21.998Z</time></trkpt><trkpt lat="45.0253536746101" lon="9.942381844153944"><ele>44.0</ele><time>2026-04-26T08:20:22.998Z</time></trkpt><trkpt lat="45.02543685400815" lon="9.942413839127022"><ele>44.0</ele><time>2026-04-26T08:20:23.998Z</time></trkpt><trkpt lat="45.02551980214835" lon="9.942444400763238"><ele>44.0</ele><time>2026-04-26T08:20:24.998Z</time></trkpt><trkpt lat="45.02560293075002" lon="9.942477335218914"><ele>44.0</ele><time>2026-04-26T08:20:25.998Z</time></trkpt><trkpt lat="45.02568693873434" lon="9.942510501561495"><ele>44.0</ele><time>2026-04-26T08:20:26.998Z</time></trkpt><trkpt lat="45.025771466168834" lon="9.942545318953027"><ele>44.0</ele><time>2026-04-26T08:20:27.998Z</time></trkpt><trkpt lat="45.025856632003595" lon="9.942579627926484"><ele>44.0</ele><time>2026-04-26T08:20:28.998Z</time></trkpt><trkpt lat="45.02594020282602" lon="9.942613817711205"><ele>44.0</ele><time>2026-04-26T08:20:29.998Z</time></trkpt><trkpt lat="45.026025090818486" lon="9.942647072302314"><ele>43.666666666666664</ele><time>2026-04-26T08:20:30.998Z</time></trkpt><trkpt lat="45.02610866929603" lon="9.942679155134675"><ele>43.33333333333333</ele><time>2026-04-26T08:20:31.998Z</time></trkpt><trkpt lat="45.02619243824891" lon="9.942712211492344"><ele>43.0</ele><time>2026-04-26T08:20:32.998Z</time></trkpt><trkpt lat="45.026275579875254" lon="9.942744707681623"><ele>42.666666666666664</ele><time>2026-04-26T08:20:33.998Z</time></trkpt><trkpt lat="45.02636009187871" lon="9.942778061226063"><ele>42.333333333333336</ele><time>2026-04-26T08:20:34.998Z</time></trkpt><trkpt lat="45.0264436201281" lon="9.94281404296651"><ele>42.0</ele><time>2026-04-26T08:20:35.998Z</time></trkpt><trkpt lat="45.02652739460076" lon="9.942848560269091"><ele>42.0</ele><time>2026-04-26T08:20:36.998Z</time></trkpt><trkpt lat="45.02661244835416" lon="9.942880971833707"><ele>42.0</ele><time>2026-04-26T08:20:37.998Z</time></trkpt><trkpt lat="45.02669655263791" lon="9.942912566444571"><ele>42.0</ele><time>2026-04-26T08:20:38.998Z</time></trkpt><trkpt lat="45.02678152481125" lon="9.942946935678561"><ele>42.0</ele><time>2026-04-26T08:20:39.998Z</time></trkpt><trkpt lat="45.02686710767908" lon="9.942980973697557"><ele>42.0</ele><time>2026-04-26T08:20:40.998Z</time></trkpt><trkpt lat="45.026952760787175" lon="9.943016860131051"><ele>42.0</ele><time>2026-04-26T08:20:41.998Z</time></trkpt><trkpt lat="45.02703832974822" lon="9.943052349993481"><ele>41.833333333333336</ele><time>2026-04-26T08:20:42.998Z</time></trkpt><trkpt lat="45.027121051833824" lon="9.943086185044738"><ele>41.666666666666664</ele><time>2026-04-26T08:20:43.998Z</time></trkpt><trkpt lat="45.02720653269084" lon="9.943120314384373"><ele>41.5</ele><time>2026-04-26T08:20:44.998Z</time></trkpt><trkpt lat="45.027291247528304" lon="9.943154382949416"><ele>41.33333333333333</ele><time>2026-04-26T08:20:45.998Z</time></trkpt><trkpt lat="45.02737628404971" lon="9.943187905731511"><ele>41.166666666666664</ele><time>2026-04-26T08:20:46.998Z</time></trkpt><trkpt lat="45.02746324039697" lon="9.94321757801896"><ele>41.0</ele><time>2026-04-26T08:20:47.998Z</time></trkpt><trkpt lat="45.027548500304455" lon="9.943253831746786"><ele>41.0</ele><time>2026-04-26T08:20:48.998Z</time></trkpt><trkpt lat="45.027633680723056" lon="9.94328644284206"><ele>41.0</ele><time>2026-04-26T08:20:49.998Z</time></trkpt><trkpt lat="45.02771745143351" lon="9.943322853230326"><ele>41.0</ele><time>2026-04-26T08:20:50.998Z</time></trkpt><trkpt lat="45.02780230080296" lon="9.94335749738934"><ele>41.0</ele><time>2026-04-26T08:20:51.998Z</time></trkpt><trkpt lat="45.027888073188294" lon="9.94338897328766"><ele>41.0</ele><time>2026-04-26T08:20:52.998Z</time></trkpt><trkpt lat="45.027972307436784" lon="9.943422795875447"><ele>41.0</ele><time>2026-04-26T08:20:53.998Z</time></trkpt><trkpt lat="45.02806239741889" lon="9.9434627768883"><ele>41.33333333333333</ele><time>2026-04-26T08:20:54.998Z</time></trkpt><trkpt lat="45.028151502954174" lon="9.94349854250821"><ele>41.666666666666664</ele><time>2026-04-26T08:20:55.998Z</time></trkpt><trkpt lat="45.028232430735855" lon="9.943525008796051"><ele>42.0</ele><time>2026-04-26T08:20:56.998Z</time></trkpt><trkpt lat="45.02831866044176" lon="9.943555660493537"><ele>42.333333333333336</ele><time>2026-04-26T08:20:58Z</time></trkpt><trkpt lat="45.02839906538827" lon="9.943591711515674"><ele>42.66666666666667</ele><time>2026-04-26T08:20:59Z</time></trkpt><trkpt lat="45.02848179347337" lon="9.943627287258243"><ele>43.0</ele><time>2026-04-26T08:21:00Z</time></trkpt><trkpt lat="45.028574119665144" lon="9.943663267532141"><ele>43.16666666666667</ele><time>2026-04-26T08:21:01Z</time></trkpt><trkpt lat="45.02865647768678" lon="9.94369756639667"><ele>43.333333333333336</ele><time>2026-04-26T08:21:02Z</time></trkpt><trkpt lat="45.02874016734223" lon="9.943730691221978"><ele>43.5</ele><time>2026-04-26T08:21:03Z</time></trkpt><trkpt lat="45.02882463025373" lon="9.943763178148053"><ele>43.666666666666664</ele><time>2026-04-26T08:21:04Z</time></trkpt><trkpt lat="45.02890806964641" lon="9.943796990226769"><ele>43.83333333333333</ele><time>2026-04-26T08:21:05Z</time></trkpt><trkpt lat="45.028990642680775" lon="9.943831916233657"><ele>44.0</ele><time>2026-04-26T08:21:06Z</time></trkpt><trkpt lat="45.02907559127353" lon="9.943864709520332"><ele>43.6</ele><time>2026-04-26T08:21:07Z</time></trkpt><trkpt lat="45.029160402061606" lon="9.943897824123528"><ele>43.2</ele><time>2026-04-26T08:21:08Z</time></trkpt><trkpt lat="45.02924498653921" lon="9.943932632131999"><ele>42.800000000000004</ele><time>2026-04-26T08:21:09Z</time></trkpt><trkpt lat="45.02933416271558" lon="9.943967635265533"><ele>42.400000000000006</ele><time>2026-04-26T08:21:10Z</time></trkpt><trkpt lat="45.02942185527425" lon="9.944001652319491"><ele>42.0</ele><time>2026-04-26T08:21:11Z</time></trkpt><trkpt lat="45.02950892999813" lon="9.944038598823768"><ele>42.0</ele><time>2026-04-26T08:21:12Z</time></trkpt><trkpt lat="45.02959965161298" lon="9.944067116341458"><ele>42.0</ele><time>2026-04-26T08:21:13Z</time></trkpt><trkpt lat="45.02968329717779" lon="9.944095008543352"><ele>42.0</ele><time>2026-04-26T08:21:14Z</time></trkpt><trkpt lat="45.02977026195073" lon="9.944135996625697"><ele>42.0</ele><time>2026-04-26T08:21:15Z</time></trkpt><trkpt lat="45.029858041044186" lon="9.944173282296918"><ele>42.0</ele><time>2026-04-26T08:21:16Z</time></trkpt><trkpt lat="45.029945839210164" lon="9.944205667418522"><ele>42.333333333333336</ele><time>2026-04-26T08:21:17Z</time></trkpt><trkpt lat="45.03003395756161" lon="9.94423773883229"><ele>42.666666666666664</ele><time>2026-04-26T08:21:18Z</time></trkpt><trkpt lat="45.03011868153428" lon="9.944274846302557"><ele>43.0</ele><time>2026-04-26T08:21:19Z</time></trkpt><trkpt lat="45.03020459363437" lon="9.944307567055453"><ele>43.33333333333333</ele><time>2026-04-26T08:21:20Z</time></trkpt><trkpt lat="45.03029045539685" lon="9.944340811602574"><ele>43.666666666666664</ele><time>2026-04-26T08:21:21Z</time></trkpt><trkpt lat="45.030374341069354" lon="9.944373306689979"><ele>44.0</ele><time>2026-04-26T08:21:22Z</time></trkpt><trkpt lat="45.03045749009611" lon="9.944407140502895"><ele>44.0</ele><time>2026-04-26T08:21:23Z</time></trkpt><trkpt lat="45.03054090068962" lon="9.944441390963165"><ele>44.0</ele><time>2026-04-26T08:21:24Z</time></trkpt><trkpt lat="45.030626433827614" lon="9.944474362508059"><ele>44.0</ele><time>2026-04-26T08:21:25Z</time></trkpt><trkpt lat="45.030711711162894" lon="9.944505436432747"><ele>44.0</ele><time>2026-04-26T08:21:26Z</time></trkpt><trkpt lat="45.03079693462408" lon="9.944538560795932"><ele>44.0</ele><time>2026-04-26T08:21:27Z</time></trkpt><trkpt lat="45.03088068211883" lon="9.94457404750314"><ele>44.0</ele><time>2026-04-26T08:21:28Z</time></trkpt><trkpt lat="45.030964527628576" lon="9.944608000121741"><ele>43.83333333333333</ele><time>2026-04-26T08:21:29Z</time></trkpt><trkpt lat="45.03104878875489" lon="9.944640604804505"><ele>43.666666666666664</ele><time>2026-04-26T08:21:30Z</time></trkpt><trkpt lat="45.03113526905816" lon="9.944672508025928"><ele>43.5</ele><time>2026-04-26T08:21:30.999Z</time></trkpt><trkpt lat="45.031220665537376" lon="9.94470444316172"><ele>43.333333333333336</ele><time>2026-04-26T08:21:31.999Z</time></trkpt><trkpt lat="45.03130382056919" lon="9.944737333875993"><ele>43.16666666666667</ele><time>2026-04-26T08:21:32.999Z</time></trkpt><trkpt lat="45.03138751881597" lon="9.944773327710523"><ele>43.0</ele><time>2026-04-26T08:21:33.999Z</time></trkpt><trkpt lat="45.03147229809464" lon="9.944805598898293"><ele>43.0</ele><time>2026-04-26T08:21:34.999Z</time></trkpt><trkpt lat="45.0315564536201" lon="9.944839469757845"><ele>43.0</ele><time>2026-04-26T08:21:35.999Z</time></trkpt><trkpt lat="45.03164064993661" lon="9.944875906634064"><ele>43.0</ele><time>2026-04-26T08:21:36.999Z</time></trkpt><trkpt lat="45.031723744476245" lon="9.944911224147626"><ele>43.0</ele><time>2026-04-26T08:21:37.999Z</time></trkpt><trkpt lat="45.031808683575214" lon="9.944944539908885"><ele>43.0</ele><time>2026-04-26T08:21:38.999Z</time></trkpt><trkpt lat="45.03189158923755" lon="9.944977075337027"><ele>43.0</ele><time>2026-04-26T08:21:39.999Z</time></trkpt><trkpt lat="45.03197610749177" lon="9.94501201825836"><ele>43.0</ele><time>2026-04-26T08:21:40.999Z</time></trkpt><trkpt lat="45.03206032456065" lon="9.945045884207024"><ele>43.0</ele><time>2026-04-26T08:21:41.999Z</time></trkpt><trkpt lat="45.032144734304474" lon="9.945081590635551"><ele>43.0</ele><time>2026-04-26T08:21:42.999Z</time></trkpt><trkpt lat="45.03222963103518" lon="9.94511435786039"><ele>43.0</ele><time>2026-04-26T08:21:43.999Z</time></trkpt><trkpt lat="45.03231550229269" lon="9.945145092780928"><ele>43.0</ele><time>2026-04-26T08:21:44.999Z</time></trkpt><trkpt lat="45.03240160571113" lon="9.94516684650319"><ele>43.0</ele><time>2026-04-26T08:21:45.999Z</time></trkpt><trkpt lat="45.03249108723161" lon="9.945172579543728"><ele>42.833333333333336</ele><time>2026-04-26T08:21:46.999Z</time></trkpt><trkpt lat="45.032580204209694" lon="9.945157815064814"><ele>42.66666666666667</ele><time>2026-04-26T08:21:47.999Z</time></trkpt><trkpt lat="45.03266319421146" lon="9.945117328097579"><ele>42.5</ele><time>2026-04-26T08:21:48.999Z</time></trkpt><trkpt lat="45.032740219858354" lon="9.945049254093037"><ele>42.333333333333336</ele><time>2026-04-26T08:21:49.999Z</time></trkpt><trkpt lat="45.03280445463697" lon="9.94496247902952"><ele>42.166666666666664</ele><time>2026-04-26T08:21:50.999Z</time></trkpt><trkpt lat="45.032851486165875" lon="9.944861284867393"><ele>42.0</ele><time>2026-04-26T08:21:51.999Z</time></trkpt><trkpt lat="45.03288581822375" lon="9.944749555042382"><ele>42.0</ele><time>2026-04-26T08:21:52.999Z</time></trkpt><trkpt lat="45.03291251459946" lon="9.944631189207023"><ele>42.0</ele><time>2026-04-26T08:21:53.999Z</time></trkpt><trkpt lat="45.032932173701624" lon="9.944513314052708"><ele>42.0</ele><time>2026-04-26T08:21:54.999Z</time></trkpt><trkpt lat="45.03295558302201" lon="9.944394661765074"><ele>42.0</ele><time>2026-04-26T08:21:55.999Z</time></trkpt><trkpt lat="45.03297601863935" lon="9.944275935948477"><ele>42.0</ele><time>2026-04-26T08:21:56.999Z</time></trkpt><trkpt lat="45.032996220556164" lon="9.94415606649104"><ele>42.0</ele><time>2026-04-26T08:21:57.999Z</time></trkpt><trkpt lat="45.033017470296116" lon="9.944038484455758"><ele>42.166666666666664</ele><time>2026-04-26T08:21:58.999Z</time></trkpt><trkpt lat="45.03303895741554" lon="9.943921109161996"><ele>42.333333333333336</ele><time>2026-04-26T08:21:59.999Z</time></trkpt><trkpt lat="45.03305828710803" lon="9.943803507696048"><ele>42.5</ele><time>2026-04-26T08:22:00.999Z</time></trkpt><trkpt lat="45.03307827611226" lon="9.943686209807307"><ele>42.66666666666667</ele><time>2026-04-26T08:22:01.999Z</time></trkpt><trkpt lat="45.03309806742545" lon="9.943569055491066"><ele>42.833333333333336</ele><time>2026-04-26T08:22:02.999Z</time></trkpt><trkpt lat="45.03311853790573" lon="9.943455632063538"><ele>43.0</ele><time>2026-04-26T08:22:03.999Z</time></trkpt><trkpt lat="45.03313705537032" lon="9.94333995630318"><ele>42.66666666666667</ele><time>2026-04-26T08:22:04.999Z</time></trkpt><trkpt lat="45.03315851616961" lon="9.943230580650871"><ele>42.333333333333336</ele><time>2026-04-26T08:22:05.999Z</time></trkpt><trkpt lat="45.033182446905236" lon="9.943122180717989"><ele>42.0</ele><time>2026-04-26T08:22:06.999Z</time></trkpt><trkpt lat="45.03321485106937" lon="9.943015567048782"><ele>41.666666666666664</ele><time>2026-04-26T08:22:07.999Z</time></trkpt><trkpt lat="45.03325565733758" lon="9.942920497861344"><ele>41.33333333333333</ele><time>2026-04-26T08:22:08.999Z</time></trkpt><trkpt lat="45.033296880624256" lon="9.942823688257485"><ele>41.0</ele><time>2026-04-26T08:22:09.999Z</time></trkpt><trkpt lat="45.03333782062671" lon="9.942736832968817"><ele>40.8</ele><time>2026-04-26T08:22:10.999Z</time></trkpt><trkpt lat="45.033470967260996" lon="9.942741759771861"><ele>40.599999999999994</ele><time>2026-04-26T08:22:11.999Z</time></trkpt><trkpt lat="45.03355517375788" lon="9.942721429687392"><ele>40.4</ele><time>2026-04-26T08:22:12.999Z</time></trkpt><trkpt lat="45.033638413809044" lon="9.94269065622017"><ele>40.2</ele><time>2026-04-26T08:22:13.999Z</time></trkpt><trkpt lat="45.033728066287786" lon="9.942726939328566"><ele>40.0</ele><time>2026-04-26T08:22:14.999Z</time></trkpt><trkpt lat="45.03381403384244" lon="9.942734674406982"><ele>40.0</ele><time>2026-04-26T08:22:15.999Z</time></trkpt><trkpt lat="45.033900519244874" lon="9.94273911042832"><ele>40.0</ele><time>2026-04-26T08:22:16.999Z</time></trkpt><trkpt lat="45.03398888342173" lon="9.942743021694719"><ele>40.0</ele><time>2026-04-26T08:22:17.999Z</time></trkpt><trkpt lat="45.03407631780859" lon="9.942751356550332"><ele>40.0</ele><time>2026-04-26T08:22:18.999Z</time></trkpt><trkpt lat="45.034164981050004" lon="9.942753551532974"><ele>40.0</ele><time>2026-04-26T08:22:19.999Z</time></trkpt><trkpt lat="45.034254441002474" lon="9.942753744906305"><ele>40.0</ele><time>2026-04-26T08:22:20.999Z</time></trkpt><trkpt lat="45.03434273075705" lon="9.942754546995575"><ele>40.0</ele><time>2026-04-26T08:22:21.999Z</time></trkpt><trkpt lat="45.03443172089885" lon="9.942757666750236"><ele>40.0</ele><time>2026-04-26T08:22:22.999Z</time></trkpt><trkpt lat="45.0345209074516" lon="9.942761979623189"><ele>40.0</ele><time>2026-04-26T08:22:23.999Z</time></trkpt><trkpt lat="45.03461011793741" lon="9.942764783276061"><ele>40.0</ele><time>2026-04-26T08:22:24.999Z</time></trkpt><trkpt lat="45.03470138739813" lon="9.94277091926955"><ele>40.0</ele><time>2026-04-26T08:22:25.998Z</time></trkpt><trkpt lat="45.034791315215905" lon="9.942773093654564"><ele>40.0</ele><time>2026-04-26T08:22:26.998Z</time></trkpt><trkpt lat="45.034882442919525" lon="9.942775480990978"><ele>40.0</ele><time>2026-04-26T08:22:27.998Z</time></trkpt><trkpt lat="45.03497220329686" lon="9.942779002289564"><ele>40.0</ele><time>2026-04-26T08:22:28.998Z</time></trkpt><trkpt lat="45.03506199470483" lon="9.942780432538362"><ele>40.0</ele><time>2026-04-26T08:22:29.998Z</time></trkpt><trkpt lat="45.03515193982842" lon="9.942785325491608"><ele>40.0</ele><time>2026-04-26T08:22:30.998Z</time></trkpt><trkpt lat="45.03524239432069" lon="9.942788635255747"><ele>40.0</ele><time>2026-04-26T08:22:31.998Z</time></trkpt><trkpt lat="45.035330074813096" lon="9.942791309600393"><ele>40.0</ele><time>2026-04-26T08:22:32.998Z</time></trkpt><trkpt lat="45.035417564051095" lon="9.942794417945906"><ele>40.0</ele><time>2026-04-26T08:22:33.998Z</time></trkpt><trkpt lat="45.03550776088483" lon="9.94279589046611"><ele>40.0</ele><time>2026-04-26T08:22:34.998Z</time></trkpt><trkpt lat="45.035595470955" lon="9.942801164706419"><ele>40.0</ele><time>2026-04-26T08:22:35.998Z</time></trkpt><trkpt lat="45.03568459874301" lon="9.94280482381684"><ele>40.0</ele><time>2026-04-26T08:22:36.998Z</time></trkpt><trkpt lat="45.03577682810649" lon="9.94281411219936"><ele>40.0</ele><time>2026-04-26T08:22:37.998Z</time></trkpt><trkpt lat="45.035862005368394" lon="9.942811640250893"><ele>40.0</ele><time>2026-04-26T08:22:38.998Z</time></trkpt><trkpt lat="45.035949181815056" lon="9.942815110347565"><ele>40.333333333333336</ele><time>2026-04-26T08:22:39.998Z</time></trkpt><trkpt lat="45.03603710050185" lon="9.9428187677309"><ele>40.66666666666667</ele><time>2026-04-26T08:22:40.998Z</time></trkpt><trkpt lat="45.03612502814881" lon="9.942821900282281"><ele>41.0</ele><time>2026-04-26T08:22:41.998Z</time></trkpt><trkpt lat="45.036210866567856" lon="9.942822906019307"><ele>41.333333333333336</ele><time>2026-04-26T08:22:42.998Z</time></trkpt><trkpt lat="45.03629289290369" lon="9.942828267014086"><ele>41.666666666666664</ele><time>2026-04-26T08:22:43.998Z</time></trkpt><trkpt lat="45.03638673347428" lon="9.942830555679521"><ele>42.0</ele><time>2026-04-26T08:22:44.998Z</time></trkpt><trkpt lat="45.03647284285889" lon="9.942833902015293"><ele>42.0</ele><time>2026-04-26T08:22:45.998Z</time></trkpt><trkpt lat="45.03655979409213" lon="9.942835439342716"><ele>42.0</ele><time>2026-04-26T08:22:46.998Z</time></trkpt><trkpt lat="45.036641524897" lon="9.942843799950586"><ele>42.0</ele><time>2026-04-26T08:22:47.998Z</time></trkpt><trkpt lat="45.03672890973569" lon="9.942849224028551"><ele>42.0</ele><time>2026-04-26T08:22:48.998Z</time></trkpt><trkpt lat="45.03681677401034" lon="9.942850573432038"><ele>42.0</ele><time>2026-04-26T08:22:49.998Z</time></trkpt><trkpt lat="45.03689917283423" lon="9.942853661203642"><ele>42.0</ele><time>2026-04-26T08:22:50.998Z</time></trkpt><trkpt lat="45.036977876948995" lon="9.942854942914032"><ele>41.833333333333336</ele><time>2026-04-26T08:22:51.998Z</time></trkpt><trkpt lat="45.03706075011801" lon="9.942858515601376"><ele>41.666666666666664</ele><time>2026-04-26T08:22:52.998Z</time></trkpt><trkpt lat="45.03715398716157" lon="9.942862312867836"><ele>41.5</ele><time>2026-04-26T08:22:53.998Z</time></trkpt><trkpt lat="45.03724751459964" lon="9.942862036710961"><ele>41.33333333333333</ele><time>2026-04-26T08:22:54.998Z</time></trkpt><trkpt lat="45.03733235077446" lon="9.942866728560151"><ele>41.166666666666664</ele><time>2026-04-26T08:22:55.998Z</time></trkpt><trkpt lat="45.037421845040896" lon="9.942867660716736"><ele>41.0</ele><time>2026-04-26T08:22:56.998Z</time></trkpt><trkpt lat="45.037509070803544" lon="9.94286862121866"><ele>41.0</ele><time>2026-04-26T08:22:57.998Z</time></trkpt><trkpt lat="45.03759985303992" lon="9.9428728959253"><ele>41.0</ele><time>2026-04-26T08:22:58.998Z</time></trkpt><trkpt lat="45.03769268356545" lon="9.942883336489485"><ele>41.0</ele><time>2026-04-26T08:22:59.998Z</time></trkpt><trkpt lat="45.037782832009924" lon="9.942884448655754"><ele>41.0</ele><time>2026-04-26T08:23:00.998Z</time></trkpt><trkpt lat="45.037870804744394" lon="9.94288569390663"><ele>41.0</ele><time>2026-04-26T08:23:01.998Z</time></trkpt><trkpt lat="45.03796162544222" lon="9.942892023877468"><ele>41.0</ele><time>2026-04-26T08:23:02.998Z</time></trkpt><trkpt lat="45.03805037238553" lon="9.942896955068553"><ele>41.0</ele><time>2026-04-26T08:23:04Z</time></trkpt><trkpt lat="45.038138464864815" lon="9.942901321006156"><ele>41.0</ele><time>2026-04-26T08:23:05Z</time></trkpt><trkpt lat="45.0382266328424" lon="9.942906643507905"><ele>41.0</ele><time>2026-04-26T08:23:06Z</time></trkpt><trkpt lat="45.038316499127724" lon="9.942911376355394"><ele>41.0</ele><time>2026-04-26T08:23:07Z</time></trkpt><trkpt lat="45.038403480621355" lon="9.942911512133032"><ele>41.0</ele><time>2026-04-26T08:23:08Z</time></trkpt><trkpt lat="45.0384945697565" lon="9.942917139716114"><ele>41.0</ele><time>2026-04-26T08:23:09Z</time></trkpt><trkpt lat="45.03858393782512" lon="9.942924480235646"><ele>41.0</ele><time>2026-04-26T08:23:10Z</time></trkpt><trkpt lat="45.03867357351062" lon="9.942930634483774"><ele>41.0</ele><time>2026-04-26T08:23:11Z</time></trkpt><trkpt lat="45.038760556491624" lon="9.942932688445003"><ele>41.0</ele><time>2026-04-26T08:23:12Z</time></trkpt><trkpt lat="45.03884924248509" lon="9.942937417667366"><ele>41.0</ele><time>2026-04-26T08:23:13Z</time></trkpt><trkpt lat="45.03893581563194" lon="9.942940719455168"><ele>41.0</ele><time>2026-04-26T08:23:14Z</time></trkpt><trkpt lat="45.039024514378106" lon="9.942943822589687"><ele>41.0</ele><time>2026-04-26T08:23:15Z</time></trkpt><trkpt lat="45.039110954815" lon="9.942950386568535"><ele>41.0</ele><time>2026-04-26T08:23:16Z</time></trkpt><trkpt lat="45.03919763409316" lon="9.94295608429843"><ele>41.0</ele><time>2026-04-26T08:23:17Z</time></trkpt><trkpt lat="45.03928701556218" lon="9.942959058209428"><ele>41.0</ele><time>2026-04-26T08:23:18Z</time></trkpt><trkpt lat="45.03937437148034" lon="9.942964121559804"><ele>41.0</ele><time>2026-04-26T08:23:19Z</time></trkpt><trkpt lat="45.0394610437562" lon="9.942964833709144"><ele>41.0</ele><time>2026-04-26T08:23:20Z</time></trkpt><trkpt lat="45.0395477549092" lon="9.942970730933787"><ele>40.83333333333333</ele><time>2026-04-26T08:23:21Z</time></trkpt><trkpt lat="45.03963503147137" lon="9.94297386364317"><ele>40.666666666666664</ele><time>2026-04-26T08:23:22Z</time></trkpt><trkpt lat="45.03972215338525" lon="9.942977318829707"><ele>40.5</ele><time>2026-04-26T08:23:23Z</time></trkpt><trkpt lat="45.03981068497033" lon="9.942984917607411"><ele>40.333333333333336</ele><time>2026-04-26T08:23:24Z</time></trkpt><trkpt lat="45.03989822038595" lon="9.942986061736729"><ele>40.16666666666667</ele><time>2026-04-26T08:23:25Z</time></trkpt><trkpt lat="45.03998572419684" lon="9.942989618589616"><ele>40.0</ele><time>2026-04-26T08:23:26Z</time></trkpt><trkpt lat="45.0400725975923" lon="9.942993105120955"><ele>39.833333333333336</ele><time>2026-04-26T08:23:27Z</time></trkpt><trkpt lat="45.04016098312334" lon="9.942998581781655"><ele>39.66666666666667</ele><time>2026-04-26T08:23:28Z</time></trkpt><trkpt lat="45.040249293248564" lon="9.943001362802288"><ele>39.5</ele><time>2026-04-26T08:23:29Z</time></trkpt><trkpt lat="45.04033648509325" lon="9.943004409939801"><ele>39.333333333333336</ele><time>2026-04-26T08:23:30Z</time></trkpt><trkpt lat="45.04042341663801" lon="9.943008104368264"><ele>39.166666666666664</ele><time>2026-04-26T08:23:31Z</time></trkpt><trkpt lat="45.04051237745944" lon="9.943009723665845"><ele>39.0</ele><time>2026-04-26T08:23:32Z</time></trkpt><trkpt lat="45.04059996875776" lon="9.943013950495875"><ele>39.0</ele><time>2026-04-26T08:23:33Z</time></trkpt><trkpt lat="45.040688558022325" lon="9.943019358538281"><ele>39.0</ele><time>2026-04-26T08:23:33.999Z</time></trkpt><trkpt lat="45.04077617059772" lon="9.943023032181872"><ele>39.0</ele><time>2026-04-26T08:23:34.999Z</time></trkpt><trkpt lat="45.040865069062455" lon="9.943027695345652"><ele>39.0</ele><time>2026-04-26T08:23:35.999Z</time></trkpt><trkpt lat="45.040953123491164" lon="9.943030426897941"><ele>39.0</ele><time>2026-04-26T08:23:36.999Z</time></trkpt><trkpt lat="45.04104184541886" lon="9.943033145019164"><ele>39.0</ele><time>2026-04-26T08:23:37.999Z</time></trkpt><trkpt lat="45.04113100462712" lon="9.943037361338202"><ele>39.0</ele><time>2026-04-26T08:23:38.999Z</time></trkpt><trkpt lat="45.04122055913727" lon="9.94304054751371"><ele>39.0</ele><time>2026-04-26T08:23:39.999Z</time></trkpt><trkpt lat="45.04131008390862" lon="9.943042859148548"><ele>39.0</ele><time>2026-04-26T08:23:40.999Z</time></trkpt><trkpt lat="45.041398232297816" lon="9.943045739889323"><ele>39.0</ele><time>2026-04-26T08:23:41.999Z</time></trkpt><trkpt lat="45.04148520761398" lon="9.943048470239583"><ele>39.0</ele><time>2026-04-26T08:23:42.999Z</time></trkpt><trkpt lat="45.04157343382589" lon="9.943050614651934"><ele>39.0</ele><time>2026-04-26T08:23:43.999Z</time></trkpt><trkpt lat="45.0416612835455" lon="9.943053922142536"><ele>39.0</ele><time>2026-04-26T08:23:44.999Z</time></trkpt><trkpt lat="45.04174816857356" lon="9.943056087520477"><ele>39.0</ele><time>2026-04-26T08:23:45.999Z</time></trkpt><trkpt lat="45.041838498113336" lon="9.943053457164806"><ele>39.0</ele><time>2026-04-26T08:23:46.999Z</time></trkpt><trkpt lat="45.04192479346669" lon="9.94305714059542"><ele>39.0</ele><time>2026-04-26T08:23:47.999Z</time></trkpt><trkpt lat="45.04201009783547" lon="9.943058268974132"><ele>39.0</ele><time>2026-04-26T08:23:48.999Z</time></trkpt><trkpt lat="45.04209531436563" lon="9.943062510591252"><ele>39.0</ele><time>2026-04-26T08:23:49.999Z</time></trkpt><trkpt lat="45.042179355644556" lon="9.943065309246464"><ele>39.0</ele><time>2026-04-26T08:23:50.999Z</time></trkpt><trkpt lat="45.042264130398735" lon="9.943070608770574"><ele>39.0</ele><time>2026-04-26T08:23:51.999Z</time></trkpt><trkpt lat="45.04235156598934" lon="9.943074963921113"><ele>39.0</ele><time>2026-04-26T08:23:52.999Z</time></trkpt><trkpt lat="45.042436428989426" lon="9.943075267790231"><ele>39.0</ele><time>2026-04-26T08:23:53.999Z</time></trkpt><trkpt lat="45.04252344827657" lon="9.943079280339052"><ele>39.0</ele><time>2026-04-26T08:23:54.999Z</time></trkpt><trkpt lat="45.042609107417405" lon="9.943083457706061"><ele>39.0</ele><time>2026-04-26T08:23:55.999Z</time></trkpt><trkpt lat="45.04269572174295" lon="9.943086848844983"><ele>39.0</ele><time>2026-04-26T08:23:56.999Z</time></trkpt><trkpt lat="45.042782582919145" lon="9.943092770052427"><ele>39.0</ele><time>2026-04-26T08:23:57.999Z</time></trkpt><trkpt lat="45.042867893328" lon="9.943094615224094"><ele>39.0</ele><time>2026-04-26T08:23:58.999Z</time></trkpt><trkpt lat="45.04295433840761" lon="9.943099820892723"><ele>39.0</ele><time>2026-04-26T08:23:59.999Z</time></trkpt><trkpt lat="45.0430401494203" lon="9.943101396993521"><ele>39.0</ele><time>2026-04-26T08:24:00.999Z</time></trkpt><trkpt lat="45.0431258647929" lon="9.943106012599348"><ele>39.0</ele><time>2026-04-26T08:24:01.999Z</time></trkpt><trkpt lat="45.04321274217545" lon="9.94311004532202"><ele>39.0</ele><time>2026-04-26T08:24:02.999Z</time></trkpt><trkpt lat="45.043298331308534" lon="9.943115319442338"><ele>39.0</ele><time>2026-04-26T08:24:03.999Z</time></trkpt><trkpt lat="45.04338197913816" lon="9.94311947854183"><ele>39.0</ele><time>2026-04-26T08:24:04.999Z</time></trkpt><trkpt lat="45.04346795642506" lon="9.943121866857622"><ele>39.0</ele><time>2026-04-26T08:24:05.999Z</time></trkpt><trkpt lat="45.043553301986165" lon="9.94312658340868"><ele>39.0</ele><time>2026-04-26T08:24:06.999Z</time></trkpt><trkpt lat="45.04364030116249" lon="9.943130814177511"><ele>39.0</ele><time>2026-04-26T08:24:07.999Z</time></trkpt><trkpt lat="45.04372541245486" lon="9.943133888964395"><ele>39.0</ele><time>2026-04-26T08:24:08.999Z</time></trkpt><trkpt lat="45.04381080981905" lon="9.943138633356837"><ele>39.0</ele><time>2026-04-26T08:24:09.999Z</time></trkpt><trkpt lat="45.04389620308015" lon="9.943141440257516"><ele>39.0</ele><time>2026-04-26T08:24:10.999Z</time></trkpt><trkpt lat="45.04397108208289" lon="9.943128146867396"><ele>39.0</ele><time>2026-04-26T08:24:11.999Z</time></trkpt><trkpt lat="45.04406393582255" lon="9.94314150565819"><ele>39.0</ele><time>2026-04-26T08:24:12.999Z</time></trkpt><trkpt lat="45.044148849291425" lon="9.9431479379329"><ele>39.0</ele><time>2026-04-26T08:24:13.999Z</time></trkpt><trkpt lat="45.04423414680445" lon="9.943151854822993"><ele>39.166666666666664</ele><time>2026-04-26T08:24:14.999Z</time></trkpt><trkpt lat="45.044319549556214" lon="9.943156124625892"><ele>39.333333333333336</ele><time>2026-04-26T08:24:15.999Z</time></trkpt><trkpt lat="45.04440456637827" lon="9.943158347721006"><ele>39.5</ele><time>2026-04-26T08:24:16.999Z</time></trkpt><trkpt lat="45.044491627297525" lon="9.943165558970437"><ele>39.66666666666667</ele><time>2026-04-26T08:24:17.999Z</time></trkpt><trkpt lat="45.044579901252426" lon="9.943172278060873"><ele>39.833333333333336</ele><time>2026-04-26T08:24:18.999Z</time></trkpt><trkpt lat="45.0446669665202" lon="9.94317562081209"><ele>40.0</ele><time>2026-04-26T08:24:19.999Z</time></trkpt><trkpt lat="45.04475423607688" lon="9.943178467495937"><ele>40.0</ele><time>2026-04-26T08:24:20.999Z</time></trkpt><trkpt lat="45.04484145285273" lon="9.94318440949583"><ele>40.0</ele><time>2026-04-26T08:24:21.999Z</time></trkpt><trkpt lat="45.044927034409554" lon="9.943192510771922"><ele>40.0</ele><time>2026-04-26T08:24:22.999Z</time></trkpt><trkpt lat="45.04501121084307" lon="9.94320703225111"><ele>40.0</ele><time>2026-04-26T08:24:23.999Z</time></trkpt><trkpt lat="45.04509892264547" lon="9.943226072614898"><ele>40.0</ele><time>2026-04-26T08:24:24.999Z</time></trkpt><trkpt lat="45.045186809697405" lon="9.943236560474066"><ele>40.0</ele><time>2026-04-26T08:24:25.999Z</time></trkpt><trkpt lat="45.04527307741266" lon="9.943240241684935"><ele>39.66666666666667</ele><time>2026-04-26T08:24:26.999Z</time></trkpt><trkpt lat="45.04535850991273" lon="9.94324393740583"><ele>39.333333333333336</ele><time>2026-04-26T08:24:27.999Z</time></trkpt><trkpt lat="45.045445194669746" lon="9.943250035377716"><ele>39.0</ele><time>2026-04-26T08:24:28.998Z</time></trkpt><trkpt lat="45.04553247820995" lon="9.943255832173309"><ele>38.666666666666664</ele><time>2026-04-26T08:24:29.998Z</time></trkpt><trkpt lat="45.0456198468836" lon="9.943261080998688"><ele>38.33333333333333</ele><time>2026-04-26T08:24:30.998Z</time></trkpt><trkpt lat="45.045708599554224" lon="9.943264455650453"><ele>38.0</ele><time>2026-04-26T08:24:31.998Z</time></trkpt><trkpt lat="45.04579724607311" lon="9.943268596450343"><ele>38.0</ele><time>2026-04-26T08:24:32.998Z</time></trkpt><trkpt lat="45.04588596033008" lon="9.943270031851394"><ele>38.0</ele><time>2026-04-26T08:24:33.998Z</time></trkpt><trkpt lat="45.04597349311416" lon="9.943275630186438"><ele>38.0</ele><time>2026-04-26T08:24:34.998Z</time></trkpt><trkpt lat="45.046059672614604" lon="9.943279696915239"><ele>38.0</ele><time>2026-04-26T08:24:35.998Z</time></trkpt><trkpt lat="45.046148894143855" lon="9.943284229895955"><ele>38.0</ele><time>2026-04-26T08:24:36.998Z</time></trkpt><trkpt lat="45.046238437194916" lon="9.943294242510406"><ele>38.0</ele><time>2026-04-26T08:24:37.998Z</time></trkpt><trkpt lat="45.046322811587885" lon="9.94328986145459"><ele>38.0</ele><time>2026-04-26T08:24:38.998Z</time></trkpt><trkpt lat="45.04640966093043" lon="9.943287779699004"><ele>38.0</ele><time>2026-04-26T08:24:39.998Z</time></trkpt><trkpt lat="45.04649648629356" lon="9.943293254073902"><ele>38.0</ele><time>2026-04-26T08:24:40.998Z</time></trkpt><trkpt lat="45.046582631838035" lon="9.943293848657552"><ele>38.0</ele><time>2026-04-26T08:24:41.998Z</time></trkpt><trkpt lat="45.04666607810279" lon="9.943295956724624"><ele>38.0</ele><time>2026-04-26T08:24:42.998Z</time></trkpt><trkpt lat="45.046752823218924" lon="9.943301467255585"><ele>38.0</ele><time>2026-04-26T08:24:43.998Z</time></trkpt><trkpt lat="45.04684129959473" lon="9.943303301316185"><ele>38.0</ele><time>2026-04-26T08:24:44.998Z</time></trkpt><trkpt lat="45.04692854721596" lon="9.943308323938654"><ele>38.0</ele><time>2026-04-26T08:24:45.998Z</time></trkpt><trkpt lat="45.047017865141" lon="9.943311105529828"><ele>38.0</ele><time>2026-04-26T08:24:46.998Z</time></trkpt><trkpt lat="45.047104185993604" lon="9.943307814724044"><ele>38.0</ele><time>2026-04-26T08:24:47.998Z</time></trkpt><trkpt lat="45.04719285620799" lon="9.943307947245001"><ele>38.0</ele><time>2026-04-26T08:24:48.998Z</time></trkpt><trkpt lat="45.04728049469526" lon="9.943307503803174"><ele>38.0</ele><time>2026-04-26T08:24:49.998Z</time></trkpt><trkpt lat="45.04736968560336" lon="9.943304097664655"><ele>38.0</ele><time>2026-04-26T08:24:50.998Z</time></trkpt><trkpt lat="45.04745594092131" lon="9.943300287961923"><ele>38.0</ele><time>2026-04-26T08:24:51.998Z</time></trkpt><trkpt lat="45.047544311505526" lon="9.943303249807858"><ele>38.0</ele><time>2026-04-26T08:24:52.998Z</time></trkpt><trkpt lat="45.04763057661628" lon="9.943307221882772"><ele>38.0</ele><time>2026-04-26T08:24:53.998Z</time></trkpt><trkpt lat="45.04771740882459" lon="9.943313820497737"><ele>38.0</ele><time>2026-04-26T08:24:54.998Z</time></trkpt><trkpt lat="45.047804698584905" lon="9.943318075038698"><ele>38.0</ele><time>2026-04-26T08:24:55.998Z</time></trkpt><trkpt lat="45.04789272586792" lon="9.94332233397238"><ele>38.0</ele><time>2026-04-26T08:24:56.998Z</time></trkpt><trkpt lat="45.047979373528314" lon="9.943325111798757"><ele>38.0</ele><time>2026-04-26T08:24:57.998Z</time></trkpt><trkpt lat="45.048066017553246" lon="9.943327404239508"><ele>38.0</ele><time>2026-04-26T08:24:58.998Z</time></trkpt><trkpt lat="45.04815401085544" lon="9.943333060927044"><ele>38.0</ele><time>2026-04-26T08:24:59.998Z</time></trkpt><trkpt lat="45.04824130251756" lon="9.943334835758495"><ele>38.0</ele><time>2026-04-26T08:25:00.998Z</time></trkpt><trkpt lat="45.04832962344898" lon="9.943338597180697"><ele>38.0</ele><time>2026-04-26T08:25:01.998Z</time></trkpt><trkpt lat="45.048417928165456" lon="9.943342932719112"><ele>37.83333333333333</ele><time>2026-04-26T08:25:02.998Z</time></trkpt><trkpt lat="45.04850563046069" lon="9.943347122503976"><ele>37.666666666666664</ele><time>2026-04-26T08:25:03.998Z</time></trkpt><trkpt lat="45.048594803821025" lon="9.943350331653841"><ele>37.5</ele><time>2026-04-26T08:25:04.998Z</time></trkpt><trkpt lat="45.04868245686411" lon="9.943353569526545"><ele>37.333333333333336</ele><time>2026-04-26T08:25:05.998Z</time></trkpt><trkpt lat="45.048772220064784" lon="9.943357117097033"><ele>37.16666666666667</ele><time>2026-04-26T08:25:06.998Z</time></trkpt><trkpt lat="45.04886080201062" lon="9.943359284999765"><ele>37.0</ele><time>2026-04-26T08:25:07.998Z</time></trkpt><trkpt lat="45.048947916808956" lon="9.943361889750536"><ele>37.0</ele><time>2026-04-26T08:25:08.998Z</time></trkpt><trkpt lat="45.04903646239166" lon="9.943365340564105"><ele>37.0</ele><time>2026-04-26T08:25:10Z</time></trkpt><trkpt lat="45.04912260868061" lon="9.943370477453492"><ele>37.0</ele><time>2026-04-26T08:25:11Z</time></trkpt><trkpt lat="45.04921005782266" lon="9.943375636445497"><ele>37.0</ele><time>2026-04-26T08:25:12Z</time></trkpt><trkpt lat="45.049297715829816" lon="9.943377692063912"><ele>37.0</ele><time>2026-04-26T08:25:13Z</time></trkpt><trkpt lat="45.04938463609619" lon="9.943380523485018"><ele>37.0</ele><time>2026-04-26T08:25:14Z</time></trkpt><trkpt lat="45.04947176619755" lon="9.943384270570574"><ele>37.0</ele><time>2026-04-26T08:25:15Z</time></trkpt><trkpt lat="45.04955734764484" lon="9.943385651258135"><ele>37.0</ele><time>2026-04-26T08:25:16Z</time></trkpt><trkpt lat="45.04964483753779" lon="9.943389234327503"><ele>37.0</ele><time>2026-04-26T08:25:17Z</time></trkpt><trkpt lat="45.049731402538065" lon="9.943392868047662"><ele>37.0</ele><time>2026-04-26T08:25:18Z</time></trkpt><trkpt lat="45.04981726625541" lon="9.94339481022604"><ele>37.0</ele><time>2026-04-26T08:25:19Z</time></trkpt><trkpt lat="45.04990415774629" lon="9.943399475517976"><ele>37.0</ele><time>2026-04-26T08:25:20Z</time></trkpt><trkpt lat="45.04999086179313" lon="9.943401293320212"><ele>37.0</ele><time>2026-04-26T08:25:21Z</time></trkpt><trkpt lat="45.050078723840116" lon="9.943403814862215"><ele>37.0</ele><time>2026-04-26T08:25:22Z</time></trkpt><trkpt lat="45.05016513044057" lon="9.943405012371846"><ele>37.0</ele><time>2026-04-26T08:25:23Z</time></trkpt><trkpt lat="45.05025063734349" lon="9.943410291590089"><ele>37.0</ele><time>2026-04-26T08:25:24Z</time></trkpt><trkpt lat="45.05033663418779" lon="9.943416405472174"><ele>37.0</ele><time>2026-04-26T08:25:25Z</time></trkpt><trkpt lat="45.05042177635546" lon="9.94341938375695"><ele>37.0</ele><time>2026-04-26T08:25:26Z</time></trkpt><trkpt lat="45.05050877743523" lon="9.943426191058139"><ele>37.0</ele><time>2026-04-26T08:25:27Z</time></trkpt><trkpt lat="45.05059480438763" lon="9.943433631253766"><ele>37.0</ele><time>2026-04-26T08:25:28Z</time></trkpt><trkpt lat="45.0506816623767" lon="9.943446166343588"><ele>37.0</ele><time>2026-04-26T08:25:29Z</time></trkpt><trkpt lat="45.050768628062606" lon="9.943461330209654"><ele>37.0</ele><time>2026-04-26T08:25:30Z</time></trkpt><trkpt lat="45.05085418717038" lon="9.943481841301647"><ele>37.0</ele><time>2026-04-26T08:25:31Z</time></trkpt><trkpt lat="45.050940176060834" lon="9.943504523119985"><ele>37.0</ele><time>2026-04-26T08:25:32Z</time></trkpt><trkpt lat="45.05102561289944" lon="9.94352469237341"><ele>37.0</ele><time>2026-04-26T08:25:33Z</time></trkpt><trkpt lat="45.051111567210185" lon="9.94354796919767"><ele>37.0</ele><time>2026-04-26T08:25:34Z</time></trkpt><trkpt lat="45.05119636525562" lon="9.943576253151234"><ele>37.0</ele><time>2026-04-26T08:25:35Z</time></trkpt><trkpt lat="45.05128230703658" lon="9.943606788960704"><ele>37.0</ele><time>2026-04-26T08:25:36Z</time></trkpt><trkpt lat="45.0513666752294" lon="9.943638867627785"><ele>37.0</ele><time>2026-04-26T08:25:37Z</time></trkpt><trkpt lat="45.05144902638931" lon="9.943677121413183"><ele>37.0</ele><time>2026-04-26T08:25:37.999Z</time></trkpt><trkpt lat="45.05153190486577" lon="9.943716688569767"><ele>37.0</ele><time>2026-04-26T08:25:38.999Z</time></trkpt><trkpt lat="45.051613872870014" lon="9.943760184502167"><ele>37.0</ele><time>2026-04-26T08:25:39.999Z</time></trkpt><trkpt lat="45.051697235818864" lon="9.943802078398338"><ele>37.0</ele><time>2026-04-26T08:25:40.999Z</time></trkpt><trkpt lat="45.05177950122997" lon="9.943843672383418"><ele>37.0</ele><time>2026-04-26T08:25:41.999Z</time></trkpt><trkpt lat="45.051862851900424" lon="9.943888639905602"><ele>37.0</ele><time>2026-04-26T08:25:42.999Z</time></trkpt><trkpt lat="45.0519467534013" lon="9.943933522038131"><ele>37.0</ele><time>2026-04-26T08:25:43.999Z</time></trkpt><trkpt lat="45.05202867978357" lon="9.943979523498255"><ele>37.16666666666667</ele><time>2026-04-26T08:25:44.999Z</time></trkpt><trkpt lat="45.05211088388672" lon="9.944025825925374"><ele>37.333333333333336</ele><time>2026-04-26T08:25:45.999Z</time></trkpt><trkpt lat="45.052193114351255" lon="9.944073133564803"><ele>37.5</ele><time>2026-04-26T08:25:46.999Z</time></trkpt><trkpt lat="45.052275529687954" lon="9.944120142859397"><ele>37.666666666666664</ele><time>2026-04-26T08:25:47.999Z</time></trkpt><trkpt lat="45.052358667574815" lon="9.94416587672538"><ele>37.83333333333333</ele><time>2026-04-26T08:25:48.999Z</time></trkpt><trkpt lat="45.052442664680186" lon="9.944212510504912"><ele>38.0</ele><time>2026-04-26T08:25:49.999Z</time></trkpt><trkpt lat="45.05252628993572" lon="9.944257222535226"><ele>38.0</ele><time>2026-04-26T08:25:50.999Z</time></trkpt><trkpt lat="45.052609477589634" lon="9.944304396344208"><ele>38.0</ele><time>2026-04-26T08:25:51.999Z</time></trkpt><trkpt lat="45.05269282429179" lon="9.944349785358893"><ele>38.0</ele><time>2026-04-26T08:25:52.999Z</time></trkpt><trkpt lat="45.05277511660288" lon="9.944393080867906"><ele>38.0</ele><time>2026-04-26T08:25:53.999Z</time></trkpt><trkpt lat="45.052858600505076" lon="9.944437602946262"><ele>38.0</ele><time>2026-04-26T08:25:54.999Z</time></trkpt><trkpt lat="45.05293857878545" lon="9.944484563771457"><ele>38.0</ele><time>2026-04-26T08:25:55.999Z</time></trkpt><trkpt lat="45.053020530450965" lon="9.944528757637709"><ele>38.0</ele><time>2026-04-26T08:25:56.999Z</time></trkpt><trkpt lat="45.05310318648725" lon="9.944571303904384"><ele>38.0</ele><time>2026-04-26T08:25:57.999Z</time></trkpt><trkpt lat="45.05318499630605" lon="9.944615339009287"><ele>38.0</ele><time>2026-04-26T08:25:58.999Z</time></trkpt><trkpt lat="45.05326748578368" lon="9.944659862562604"><ele>38.0</ele><time>2026-04-26T08:25:59.999Z</time></trkpt><trkpt lat="45.05335105559257" lon="9.944704648797712"><ele>38.0</ele><time>2026-04-26T08:26:00.999Z</time></trkpt><trkpt lat="45.05343404848172" lon="9.94475357728633"><ele>38.0</ele><time>2026-04-26T08:26:01.999Z</time></trkpt><trkpt lat="45.05351667087314" lon="9.944798912660563"><ele>38.0</ele><time>2026-04-26T08:26:02.999Z</time></trkpt><trkpt lat="45.05359996690472" lon="9.944842952117087"><ele>38.0</ele><time>2026-04-26T08:26:03.999Z</time></trkpt><trkpt lat="45.05368328917706" lon="9.944887281202316"><ele>38.0</ele><time>2026-04-26T08:26:04.999Z</time></trkpt><trkpt lat="45.05376567507122" lon="9.944933693048078"><ele>38.0</ele><time>2026-04-26T08:26:05.999Z</time></trkpt><trkpt lat="45.0538480331738" lon="9.944976805304117"><ele>38.0</ele><time>2026-04-26T08:26:06.999Z</time></trkpt><trkpt lat="45.053931140920454" lon="9.945023514341297"><ele>38.0</ele><time>2026-04-26T08:26:07.999Z</time></trkpt><trkpt lat="45.054014013083446" lon="9.945066829328912"><ele>37.83333333333333</ele><time>2026-04-26T08:26:08.999Z</time></trkpt><trkpt lat="45.05409722305123" lon="9.945111636690843"><ele>37.666666666666664</ele><time>2026-04-26T08:26:09.999Z</time></trkpt><trkpt lat="45.05417692970537" lon="9.945157628123289"><ele>37.5</ele><time>2026-04-26T08:26:10.999Z</time></trkpt><trkpt lat="45.05425801977963" lon="9.945202972215386"><ele>37.333333333333336</ele><time>2026-04-26T08:26:11.999Z</time></trkpt><trkpt lat="45.05434176105208" lon="9.945245587994515"><ele>37.16666666666667</ele><time>2026-04-26T08:26:12.999Z</time></trkpt><trkpt lat="45.054424020249336" lon="9.945286483113172"><ele>37.0</ele><time>2026-04-26T08:26:13.999Z</time></trkpt><trkpt lat="45.054505246236374" lon="9.945332926014029"><ele>37.0</ele><time>2026-04-26T08:26:14.999Z</time></trkpt><trkpt lat="45.054585482509715" lon="9.94537879254887"><ele>37.0</ele><time>2026-04-26T08:26:15.999Z</time></trkpt><trkpt lat="45.05466485979195" lon="9.945421664745416"><ele>37.0</ele><time>2026-04-26T08:26:16.999Z</time></trkpt><trkpt lat="45.05474368366916" lon="9.945465255421208"><ele>37.0</ele><time>2026-04-26T08:26:17.999Z</time></trkpt><trkpt lat="45.054821999564794" lon="9.94550869267854"><ele>37.0</ele><time>2026-04-26T08:26:18.999Z</time></trkpt><trkpt lat="45.054901412655376" lon="9.9455541973797"><ele>37.0</ele><time>2026-04-26T08:26:19.999Z</time></trkpt><trkpt lat="45.05497944811517" lon="9.945598734145358"><ele>37.16666666666667</ele><time>2026-04-26T08:26:20.999Z</time></trkpt><trkpt lat="45.05505818964899" lon="9.94564400097314"><ele>37.333333333333336</ele><time>2026-04-26T08:26:21.999Z</time></trkpt><trkpt lat="45.05513864259956" lon="9.945688629008801"><ele>37.5</ele><time>2026-04-26T08:26:22.999Z</time></trkpt><trkpt lat="45.05521835577991" lon="9.945729649536553"><ele>37.666666666666664</ele><time>2026-04-26T08:26:23.999Z</time></trkpt><trkpt lat="45.055300694171876" lon="9.945773534101228"><ele>37.83333333333333</ele><time>2026-04-26T08:26:24.999Z</time></trkpt><trkpt lat="45.0553801881022" lon="9.945815060668153"><ele>38.0</ele><time>2026-04-26T08:26:25.999Z</time></trkpt><trkpt lat="45.05545984303718" lon="9.945855578794312"><ele>38.0</ele><time>2026-04-26T08:26:26.999Z</time></trkpt><trkpt lat="45.05553814499952" lon="9.94589845992909"><ele>38.0</ele><time>2026-04-26T08:26:27.999Z</time></trkpt><trkpt lat="45.055617579668" lon="9.945936433141116"><ele>38.0</ele><time>2026-04-26T08:26:28.999Z</time></trkpt><trkpt lat="45.05569794001269" lon="9.945975304509943"><ele>38.0</ele><time>2026-04-26T08:26:29.999Z</time></trkpt><trkpt lat="45.0557825496728" lon="9.946006381211236"><ele>38.0</ele><time>2026-04-26T08:26:30.999Z</time></trkpt><trkpt lat="45.05586343361204" lon="9.94604095844828"><ele>38.0</ele><time>2026-04-26T08:26:31.999Z</time></trkpt><trkpt lat="45.05594988797711" lon="9.94607636557782"><ele>38.0</ele><time>2026-04-26T08:26:32.998Z</time></trkpt><trkpt lat="45.0560338842974" lon="9.94610446410269"><ele>38.0</ele><time>2026-04-26T08:26:33.998Z</time></trkpt><trkpt lat="45.05611878497798" lon="9.946133541798405"><ele>38.0</ele><time>2026-04-26T08:26:34.998Z</time></trkpt><trkpt lat="45.05620446108343" lon="9.94615279685992"><ele>38.0</ele><time>2026-04-26T08:26:35.998Z</time></trkpt><trkpt lat="45.05629002156324" lon="9.946170885856835"><ele>38.0</ele><time>2026-04-26T08:26:36.998Z</time></trkpt><trkpt lat="45.056378432866616" lon="9.946190021009144"><ele>38.0</ele><time>2026-04-26T08:26:37.998Z</time></trkpt><trkpt lat="45.05646622511436" lon="9.94620785322886"><ele>38.0</ele><time>2026-04-26T08:26:38.998Z</time></trkpt><trkpt lat="45.05655618988309" lon="9.946226376724622"><ele>38.0</ele><time>2026-04-26T08:26:39.998Z</time></trkpt><trkpt lat="45.05664553137417" lon="9.946236741486954"><ele>38.0</ele><time>2026-04-26T08:26:40.998Z</time></trkpt><trkpt lat="45.0567366675717" lon="9.946244807887972"><ele>38.0</ele><time>2026-04-26T08:26:41.998Z</time></trkpt><trkpt lat="45.0568285153942" lon="9.946249573105495"><ele>38.0</ele><time>2026-04-26T08:26:42.998Z</time></trkpt><trkpt lat="45.056922214579586" lon="9.946253795703377"><ele>37.6</ele><time>2026-04-26T08:26:43.998Z</time></trkpt><trkpt lat="45.0570170646103" lon="9.946256557198474"><ele>37.199999999999996</ele><time>2026-04-26T08:26:44.998Z</time></trkpt><trkpt lat="45.05711160527394" lon="9.946254603622407"><ele>36.8</ele><time>2026-04-26T08:26:45.998Z</time></trkpt><trkpt lat="45.05720620152484" lon="9.9462510274485"><ele>36.4</ele><time>2026-04-26T08:26:46.998Z</time></trkpt><trkpt lat="45.05729909983443" lon="9.94624638270776"><ele>36.0</ele><time>2026-04-26T08:26:47.998Z</time></trkpt><trkpt lat="45.05739301340014" lon="9.946242777266958"><ele>36.0</ele><time>2026-04-26T08:26:48.998Z</time></trkpt><trkpt lat="45.05748636441608" lon="9.946238430393171"><ele>36.0</ele><time>2026-04-26T08:26:49.998Z</time></trkpt><trkpt lat="45.05757825237163" lon="9.946234615287723"><ele>36.0</ele><time>2026-04-26T08:26:50.998Z</time></trkpt><trkpt lat="45.05766983309081" lon="9.946228285082018"><ele>36.0</ele><time>2026-04-26T08:26:51.998Z</time></trkpt><trkpt lat="45.05776058215749" lon="9.946222341010548"><ele>36.0</ele><time>2026-04-26T08:26:52.998Z</time></trkpt><trkpt lat="45.057854043223" lon="9.946219063639907"><ele>36.0</ele><time>2026-04-26T08:26:53.998Z</time></trkpt><trkpt lat="45.05794246988098" lon="9.946211461890732"><ele>36.0</ele><time>2026-04-26T08:26:54.998Z</time></trkpt><trkpt lat="45.05803159232922" lon="9.946210178772715"><ele>36.0</ele><time>2026-04-26T08:26:55.998Z</time></trkpt><trkpt lat="45.058120039499634" lon="9.946211583103716"><ele>36.0</ele><time>2026-04-26T08:26:56.998Z</time></trkpt><trkpt lat="45.05820983124906" lon="9.946205980325008"><ele>36.0</ele><time>2026-04-26T08:26:57.998Z</time></trkpt><trkpt lat="45.05829774113791" lon="9.94620549287707"><ele>36.0</ele><time>2026-04-26T08:26:58.998Z</time></trkpt><trkpt lat="45.0583868685336" lon="9.946210514729554"><ele>36.166666666666664</ele><time>2026-04-26T08:26:59.998Z</time></trkpt><trkpt lat="45.05847580179394" lon="9.946215786995776"><ele>36.333333333333336</ele><time>2026-04-26T08:27:00.998Z</time></trkpt><trkpt lat="45.05856464664023" lon="9.94622406637563"><ele>36.5</ele><time>2026-04-26T08:27:01.998Z</time></trkpt><trkpt lat="45.05865302913181" lon="9.946234453083996"><ele>36.66666666666667</ele><time>2026-04-26T08:27:02.998Z</time></trkpt><trkpt lat="45.05874031602964" lon="9.946247258811212"><ele>36.833333333333336</ele><time>2026-04-26T08:27:03.998Z</time></trkpt><trkpt lat="45.058825854591284" lon="9.946258339683927"><ele>37.0</ele><time>2026-04-26T08:27:04.998Z</time></trkpt><trkpt lat="45.05891349526651" lon="9.946271649479339"><ele>37.0</ele><time>2026-04-26T08:27:05.998Z</time></trkpt><trkpt lat="45.05899998900326" lon="9.946281998375266"><ele>37.0</ele><time>2026-04-26T08:27:06.998Z</time></trkpt><trkpt lat="45.05908698337869" lon="9.946295442432287"><ele>37.0</ele><time>2026-04-26T08:27:07.998Z</time></trkpt><trkpt lat="45.05917284801063" lon="9.946313274267473"><ele>37.0</ele><time>2026-04-26T08:27:08.998Z</time></trkpt><trkpt lat="45.059258659163135" lon="9.946331808601387"><ele>37.0</ele><time>2026-04-26T08:27:09.998Z</time></trkpt><trkpt lat="45.05934582410983" lon="9.946348580142178"><ele>37.0</ele><time>2026-04-26T08:27:10.998Z</time></trkpt><trkpt lat="45.059431456815965" lon="9.946369826557342"><ele>37.0</ele><time>2026-04-26T08:27:11.998Z</time></trkpt><trkpt lat="45.05951543563506" lon="9.946391705143412"><ele>37.0</ele><time>2026-04-26T08:27:12.998Z</time></trkpt><trkpt lat="45.05959975590488" lon="9.946415812641026"><ele>37.0</ele><time>2026-04-26T08:27:13.998Z</time></trkpt><trkpt lat="45.059682769320375" lon="9.946439742371568"><ele>37.0</ele><time>2026-04-26T08:27:14.998Z</time></trkpt><trkpt lat="45.059763717295084" lon="9.946467667569937"><ele>37.0</ele><time>2026-04-26T08:27:16Z</time></trkpt><trkpt lat="45.05984403181119" lon="9.946494031427383"><ele>37.0</ele><time>2026-04-26T08:27:17Z</time></trkpt><trkpt lat="45.059922641136346" lon="9.946520423465635"><ele>36.833333333333336</ele><time>2026-04-26T08:27:18Z</time></trkpt><trkpt lat="45.0600013300998" lon="9.946550559909694"><ele>36.66666666666667</ele><time>2026-04-26T08:27:19Z</time></trkpt><trkpt lat="45.0600804167099" lon="9.946581422795393"><ele>36.5</ele><time>2026-04-26T08:27:20Z</time></trkpt><trkpt lat="45.06015834466156" lon="9.946610192694084"><ele>36.333333333333336</ele><time>2026-04-26T08:27:21Z</time></trkpt><trkpt lat="45.06023656235614" lon="9.946641819529761"><ele>36.166666666666664</ele><time>2026-04-26T08:27:22Z</time></trkpt><trkpt lat="45.060313348522634" lon="9.946675419360682"><ele>36.0</ele><time>2026-04-26T08:27:23Z</time></trkpt><trkpt lat="45.060390175435586" lon="9.946710585350132"><ele>36.0</ele><time>2026-04-26T08:27:24Z</time></trkpt><trkpt lat="45.06046557402282" lon="9.946744741743395"><ele>36.0</ele><time>2026-04-26T08:27:25Z</time></trkpt><trkpt lat="45.06054033560768" lon="9.94677866608442"><ele>36.0</ele><time>2026-04-26T08:27:26Z</time></trkpt><trkpt lat="45.06061436093148" lon="9.946814239060602"><ele>36.0</ele><time>2026-04-26T08:27:27Z</time></trkpt><trkpt lat="45.060688948908094" lon="9.946852428532901"><ele>36.0</ele><time>2026-04-26T08:27:28Z</time></trkpt><trkpt lat="45.0607621353578" lon="9.946887604396034"><ele>36.0</ele><time>2026-04-26T08:27:29Z</time></trkpt><trkpt lat="45.06083448069547" lon="9.946922857695741"><ele>36.0</ele><time>2026-04-26T08:27:30Z</time></trkpt><trkpt lat="45.060908651740235" lon="9.946958306222516"><ele>36.0</ele><time>2026-04-26T08:27:31Z</time></trkpt><trkpt lat="45.06098227308859" lon="9.946990294332164"><ele>36.0</ele><time>2026-04-26T08:27:32Z</time></trkpt><trkpt lat="45.0610537693828" lon="9.947024769658345"><ele>36.0</ele><time>2026-04-26T08:27:33Z</time></trkpt><trkpt lat="45.061128736408214" lon="9.947063757724942"><ele>36.0</ele><time>2026-04-26T08:27:34Z</time></trkpt><trkpt lat="45.06120391605347" lon="9.94710211803243"><ele>36.0</ele><time>2026-04-26T08:27:35Z</time></trkpt><trkpt lat="45.06127689111282" lon="9.9471364606423"><ele>36.0</ele><time>2026-04-26T08:27:36Z</time></trkpt><trkpt lat="45.06133946613089" lon="9.947167929882422"><ele>36.0</ele><time>2026-04-26T08:27:37Z</time></trkpt><trkpt lat="45.06142248687084" lon="9.947206618580378"><ele>36.0</ele><time>2026-04-26T08:27:38Z</time></trkpt><trkpt lat="45.06149226976659" lon="9.947241165092986"><ele>36.0</ele><time>2026-04-26T08:27:39Z</time></trkpt><trkpt lat="45.061563428452764" lon="9.947274452109154"><ele>36.0</ele><time>2026-04-26T08:27:40Z</time></trkpt><trkpt lat="45.061636159404244" lon="9.947308180135892"><ele>36.0</ele><time>2026-04-26T08:27:41Z</time></trkpt><trkpt lat="45.06170662470545" lon="9.9473441934317"><ele>36.0</ele><time>2026-04-26T08:27:42Z</time></trkpt><trkpt lat="45.06178137588016" lon="9.947378596948848"><ele>36.0</ele><time>2026-04-26T08:27:43Z</time></trkpt><trkpt lat="45.0618535894718" lon="9.947409366719194"><ele>36.0</ele><time>2026-04-26T08:27:43.999Z</time></trkpt><trkpt lat="45.061926273123674" lon="9.947443620684654"><ele>36.0</ele><time>2026-04-26T08:27:44.999Z</time></trkpt><trkpt lat="45.06199862755988" lon="9.94747668673068"><ele>36.0</ele><time>2026-04-26T08:27:45.999Z</time></trkpt><trkpt lat="45.06206966990926" lon="9.947512599793193"><ele>36.0</ele><time>2026-04-26T08:27:46.999Z</time></trkpt><trkpt lat="45.06214058536431" lon="9.947547618888194"><ele>36.0</ele><time>2026-04-26T08:27:47.999Z</time></trkpt><trkpt lat="45.06221023728677" lon="9.947580264147426"><ele>36.0</ele><time>2026-04-26T08:27:48.999Z</time></trkpt><trkpt lat="45.062281736188396" lon="9.94761236281189"><ele>36.0</ele><time>2026-04-26T08:27:49.999Z</time></trkpt><trkpt lat="45.06235409805716" lon="9.947645284362181"><ele>36.0</ele><time>2026-04-26T08:27:50.999Z</time></trkpt><trkpt lat="45.06242737877277" lon="9.947674035327854"><ele>36.0</ele><time>2026-04-26T08:27:51.999Z</time></trkpt><trkpt lat="45.062500877656234" lon="9.947707060713942"><ele>36.0</ele><time>2026-04-26T08:27:52.999Z</time></trkpt><trkpt lat="45.06257375758389" lon="9.947741328096395"><ele>36.833333333333336</ele><time>2026-04-26T08:27:53.999Z</time></trkpt><trkpt lat="45.06264724406535" lon="9.947774173482893"><ele>37.666666666666664</ele><time>2026-04-26T08:27:54.999Z</time></trkpt><trkpt lat="45.062720274266105" lon="9.94780805889607"><ele>38.5</ele><time>2026-04-26T08:27:55.999Z</time></trkpt><trkpt lat="45.0627973010616" lon="9.94783668658499"><ele>39.33333333333333</ele><time>2026-04-26T08:27:56.999Z</time></trkpt><trkpt lat="45.06287116127675" lon="9.94786091593639"><ele>40.166666666666664</ele><time>2026-04-26T08:27:57.999Z</time></trkpt><trkpt lat="45.06294703281122" lon="9.947891516374156"><ele>41.0</ele><time>2026-04-26T08:27:58.999Z</time></trkpt><trkpt lat="45.06302186254206" lon="9.947920363245718"><ele>41.0</ele><time>2026-04-26T08:27:59.999Z</time></trkpt><trkpt lat="45.06309560064646" lon="9.947954131721692"><ele>41.0</ele><time>2026-04-26T08:28:00.999Z</time></trkpt><trkpt lat="45.06317276324906" lon="9.947977831967757"><ele>41.0</ele><time>2026-04-26T08:28:01.999Z</time></trkpt><trkpt lat="45.06325243268567" lon="9.94800760902505"><ele>41.0</ele><time>2026-04-26T08:28:02.999Z</time></trkpt><trkpt lat="45.06332857289559" lon="9.94803893544392"><ele>41.0</ele><time>2026-04-26T08:28:03.999Z</time></trkpt><trkpt lat="45.06340576725326" lon="9.948071954486615"><ele>41.0</ele><time>2026-04-26T08:28:04.999Z</time></trkpt><trkpt lat="45.06348092861937" lon="9.948093632852816"><ele>41.0</ele><time>2026-04-26T08:28:05.999Z</time></trkpt><trkpt lat="45.06356576149727" lon="9.948115691734909"><ele>41.0</ele><time>2026-04-26T08:28:06.999Z</time></trkpt><trkpt lat="45.063648823216006" lon="9.948144855191284"><ele>41.0</ele><time>2026-04-26T08:28:07.999Z</time></trkpt><trkpt lat="45.063729536559066" lon="9.948173795642749"><ele>41.0</ele><time>2026-04-26T08:28:08.999Z</time></trkpt><trkpt lat="45.06381320874219" lon="9.948204305371636"><ele>41.0</ele><time>2026-04-26T08:28:09.999Z</time></trkpt><trkpt lat="45.063897561385964" lon="9.948235618684807"><ele>41.0</ele><time>2026-04-26T08:28:10.999Z</time></trkpt><trkpt lat="45.06398208160552" lon="9.948267733330017"><ele>41.0</ele><time>2026-04-26T08:28:11.999Z</time></trkpt><trkpt lat="45.064067535107675" lon="9.948302601959195"><ele>41.0</ele><time>2026-04-26T08:28:12.999Z</time></trkpt><trkpt lat="45.064154859257094" lon="9.948345240051019"><ele>41.0</ele><time>2026-04-26T08:28:13.999Z</time></trkpt><trkpt lat="45.06424387553537" lon="9.94838729705328"><ele>41.0</ele><time>2026-04-26T08:28:14.999Z</time></trkpt><trkpt lat="45.064333568342505" lon="9.948428721250277"><ele>41.0</ele><time>2026-04-26T08:28:15.999Z</time></trkpt><trkpt lat="45.06442496280587" lon="9.948471239170104"><ele>40.8</ele><time>2026-04-26T08:28:16.999Z</time></trkpt><trkpt lat="45.064515817968605" lon="9.948516369383123"><ele>40.599999999999994</ele><time>2026-04-26T08:28:17.999Z</time></trkpt><trkpt lat="45.06461237357224" lon="9.948562242334404"><ele>40.4</ele><time>2026-04-26T08:28:18.999Z</time></trkpt><trkpt lat="45.06470731028568" lon="9.94861018881607"><ele>40.2</ele><time>2026-04-26T08:28:19.999Z</time></trkpt><trkpt lat="45.06480424079471" lon="9.948659075525855"><ele>40.0</ele><time>2026-04-26T08:28:20.999Z</time></trkpt><trkpt lat="45.06489943880142" lon="9.948706684754413"><ele>40.0</ele><time>2026-04-26T08:28:21.999Z</time></trkpt><trkpt lat="45.064994237414425" lon="9.948752987368538"><ele>40.0</ele><time>2026-04-26T08:28:22.999Z</time></trkpt><trkpt lat="45.065090558462565" lon="9.948795634769391"><ele>40.0</ele><time>2026-04-26T08:28:23.999Z</time></trkpt><trkpt lat="45.06518608888756" lon="9.948841421053492"><ele>40.0</ele><time>2026-04-26T08:28:24.999Z</time></trkpt><trkpt lat="45.065280884481" lon="9.948883945255986"><ele>40.0</ele><time>2026-04-26T08:28:25.999Z</time></trkpt><trkpt lat="45.0653753073699" lon="9.948928842576468"><ele>40.0</ele><time>2026-04-26T08:28:26.999Z</time></trkpt><trkpt lat="45.0654672250896" lon="9.948970087171094"><ele>40.0</ele><time>2026-04-26T08:28:27.999Z</time></trkpt><trkpt lat="45.06555884226256" lon="9.949011425601046"><ele>40.0</ele><time>2026-04-26T08:28:28.999Z</time></trkpt><trkpt lat="45.06565106223205" lon="9.949056052331006"><ele>40.0</ele><time>2026-04-26T08:28:29.999Z</time></trkpt><trkpt lat="45.065744568591505" lon="9.949102130371022"><ele>40.0</ele><time>2026-04-26T08:28:30.999Z</time></trkpt><trkpt lat="45.06583727407169" lon="9.949150745861019"><ele>39.8</ele><time>2026-04-26T08:28:31.999Z</time></trkpt><trkpt lat="45.06593074558701" lon="9.949197315940781"><ele>39.6</ele><time>2026-04-26T08:28:32.999Z</time></trkpt><trkpt lat="45.066025341127904" lon="9.949245616594672"><ele>39.4</ele><time>2026-04-26T08:28:33.999Z</time></trkpt><trkpt lat="45.0661239957472" lon="9.949298801024979"><ele>39.2</ele><time>2026-04-26T08:28:34.999Z</time></trkpt><trkpt lat="45.066224469064736" lon="9.949350574556568"><ele>39.0</ele><time>2026-04-26T08:28:35.999Z</time></trkpt><trkpt lat="45.06632385273368" lon="9.949404844249964"><ele>39.0</ele><time>2026-04-26T08:28:36.999Z</time></trkpt><trkpt lat="45.066419853455194" lon="9.949462113118736"><ele>39.0</ele><time>2026-04-26T08:28:37.999Z</time></trkpt><trkpt lat="45.066516584231934" lon="9.949518900692503"><ele>39.0</ele><time>2026-04-26T08:28:38.998Z</time></trkpt><trkpt lat="45.06661192291435" lon="9.949576642362773"><ele>39.0</ele><time>2026-04-26T08:28:39.998Z</time></trkpt><trkpt lat="45.06670517906659" lon="9.949629122279775"><ele>39.0</ele><time>2026-04-26T08:28:40.998Z</time></trkpt><trkpt lat="45.06679841535571" lon="9.949685607911446"><ele>39.0</ele><time>2026-04-26T08:28:41.998Z</time></trkpt><trkpt lat="45.066888538140574" lon="9.949739809363878"><ele>39.0</ele><time>2026-04-26T08:28:42.998Z</time></trkpt><trkpt lat="45.06697998137603" lon="9.949797008592915"><ele>39.0</ele><time>2026-04-26T08:28:43.998Z</time></trkpt><trkpt lat="45.067069080307526" lon="9.94985273186831"><ele>39.0</ele><time>2026-04-26T08:28:44.998Z</time></trkpt><trkpt lat="45.06715946079369" lon="9.949906794782933"><ele>39.0</ele><time>2026-04-26T08:28:45.998Z</time></trkpt><trkpt lat="45.06724830834789" lon="9.949960887910896"><ele>39.0</ele><time>2026-04-26T08:28:46.998Z</time></trkpt><trkpt lat="45.06733420447217" lon="9.950016792849665"><ele>39.0</ele><time>2026-04-26T08:28:47.998Z</time></trkpt><trkpt lat="45.06741936819866" lon="9.950076706816223"><ele>39.0</ele><time>2026-04-26T08:28:48.998Z</time></trkpt><trkpt lat="45.067506129595294" lon="9.950131229879858"><ele>39.0</ele><time>2026-04-26T08:28:49.998Z</time></trkpt><trkpt lat="45.06759166510005" lon="9.950186036547555"><ele>39.0</ele><time>2026-04-26T08:28:50.998Z</time></trkpt><trkpt lat="45.067676225443904" lon="9.950245803174438"><ele>38.4</ele><time>2026-04-26T08:28:51.998Z</time></trkpt><trkpt lat="45.06775973283004" lon="9.950305457322662"><ele>37.8</ele><time>2026-04-26T08:28:52.998Z</time></trkpt><trkpt lat="45.06784569081276" lon="9.950365896222808"><ele>37.2</ele><time>2026-04-26T08:28:53.998Z</time></trkpt><trkpt lat="45.067925850094426" lon="9.950428174691885"><ele>36.6</ele><time>2026-04-26T08:28:54.998Z</time></trkpt><trkpt lat="45.06800531727246" lon="9.95049335900772"><ele>36.0</ele><time>2026-04-26T08:28:55.998Z</time></trkpt><trkpt lat="45.068086739795916" lon="9.950556984825612"><ele>36.0</ele><time>2026-04-26T08:28:56.998Z</time></trkpt><trkpt lat="45.068165691889895" lon="9.950630596623531"><ele>36.0</ele><time>2026-04-26T08:28:57.998Z</time></trkpt><trkpt lat="45.068237939900115" lon="9.95070899230277"><ele>36.0</ele><time>2026-04-26T08:28:58.998Z</time></trkpt><trkpt lat="45.06830903581157" lon="9.9507885398398"><ele>36.0</ele><time>2026-04-26T08:28:59.998Z</time></trkpt><trkpt lat="45.068380127468146" lon="9.950871885844414"><ele>36.0</ele><time>2026-04-26T08:29:00.998Z</time></trkpt><trkpt lat="45.06844959734552" lon="9.950955662882121"><ele>35.6</ele><time>2026-04-26T08:29:01.998Z</time></trkpt><trkpt lat="45.0685197250239" lon="9.951038638793055"><ele>35.2</ele><time>2026-04-26T08:29:02.998Z</time></trkpt><trkpt lat="45.06858905468366" lon="9.951118601932103"><ele>34.8</ele><time>2026-04-26T08:29:03.998Z</time></trkpt><trkpt lat="45.06866049090707" lon="9.951201602429713"><ele>34.4</ele><time>2026-04-26T08:29:04.998Z</time></trkpt><trkpt lat="45.068730305464754" lon="9.951283386002611"><ele>34.0</ele><time>2026-04-26T08:29:05.998Z</time></trkpt><trkpt lat="45.06880071568413" lon="9.951365166022537"><ele>34.0</ele><time>2026-04-26T08:29:06.998Z</time></trkpt><trkpt lat="45.06886944648782" lon="9.951443215985568"><ele>34.0</ele><time>2026-04-26T08:29:07.998Z</time></trkpt><trkpt lat="45.06893750010565" lon="9.951523241951362"><ele>34.0</ele><time>2026-04-26T08:29:08.998Z</time></trkpt><trkpt lat="45.0690062638775" lon="9.951603525606338"><ele>34.0</ele><time>2026-04-26T08:29:09.998Z</time></trkpt><trkpt lat="45.069076202566954" lon="9.951685371829681"><ele>34.0</ele><time>2026-04-26T08:29:10.998Z</time></trkpt><trkpt lat="45.069144058030474" lon="9.951764850330818"><ele>34.0</ele><time>2026-04-26T08:29:11.998Z</time></trkpt><trkpt lat="45.06921100396863" lon="9.951846070797096"><ele>34.5</ele><time>2026-04-26T08:29:12.998Z</time></trkpt><trkpt lat="45.06927907649783" lon="9.95192579766163"><ele>35.0</ele><time>2026-04-26T08:29:13.998Z</time></trkpt><trkpt lat="45.06934700870208" lon="9.95200910678324"><ele>35.5</ele><time>2026-04-26T08:29:14.998Z</time></trkpt><trkpt lat="45.06941686044088" lon="9.952088722975661"><ele>36.0</ele><time>2026-04-26T08:29:15.998Z</time></trkpt><trkpt lat="45.06948485671666" lon="9.952168027893682"><ele>36.5</ele><time>2026-04-26T08:29:16.998Z</time></trkpt><trkpt lat="45.06955378160951" lon="9.952249585015982"><ele>37.0</ele><time>2026-04-26T08:29:17.998Z</time></trkpt><trkpt lat="45.06962194502217" lon="9.952329478971317"><ele>37.0</ele><time>2026-04-26T08:29:18.998Z</time></trkpt><trkpt lat="45.069691129705404" lon="9.952409375054689"><ele>37.0</ele><time>2026-04-26T08:29:19.998Z</time></trkpt><trkpt lat="45.06976074623614" lon="9.952491008007595"><ele>37.0</ele><time>2026-04-26T08:29:21Z</time></trkpt><trkpt lat="45.06982909096621" lon="9.952571348519813"><ele>37.0</ele><time>2026-04-26T08:29:22Z</time></trkpt><trkpt lat="45.069899856314436" lon="9.952655264657803"><ele>37.0</ele><time>2026-04-26T08:29:23Z</time></trkpt><trkpt lat="45.06996950728501" lon="9.952736368645867"><ele>37.0</ele><time>2026-04-26T08:29:24Z</time></trkpt><trkpt lat="45.07003741350218" lon="9.952817690212735"><ele>37.0</ele><time>2026-04-26T08:29:25Z</time></trkpt><trkpt lat="45.07010545298195" lon="9.952899353386258"><ele>37.0</ele><time>2026-04-26T08:29:26Z</time></trkpt><trkpt lat="45.07017450811115" lon="9.952980256519073"><ele>37.0</ele><time>2026-04-26T08:29:27Z</time></trkpt><trkpt lat="45.0702435474249" lon="9.95306239037975"><ele>37.0</ele><time>2026-04-26T08:29:28Z</time></trkpt><trkpt lat="45.07031371397359" lon="9.953148026044031"><ele>37.0</ele><time>2026-04-26T08:29:29Z</time></trkpt><trkpt lat="45.07038439075669" lon="9.953230336482171"><ele>37.0</ele><time>2026-04-26T08:29:30Z</time></trkpt><trkpt lat="45.07045447653546" lon="9.953314685356148"><ele>37.0</ele><time>2026-04-26T08:29:31Z</time></trkpt><trkpt lat="45.07052536408849" lon="9.953397215958283"><ele>37.0</ele><time>2026-04-26T08:29:32Z</time></trkpt><trkpt lat="45.07059810921989" lon="9.953478239371057"><ele>37.0</ele><time>2026-04-26T08:29:33Z</time></trkpt><trkpt lat="45.070671091199365" lon="9.953561367491897"><ele>36.800000000000004</ele><time>2026-04-26T08:29:34Z</time></trkpt><trkpt lat="45.0707452809148" lon="9.953648062276708"><ele>36.6</ele><time>2026-04-26T08:29:35Z</time></trkpt><trkpt lat="45.07081859659118" lon="9.953732190701386"><ele>36.400000000000006</ele><time>2026-04-26T08:29:36Z</time></trkpt><trkpt lat="45.07088880270735" lon="9.953817193346666"><ele>36.2</ele><time>2026-04-26T08:29:37Z</time></trkpt><trkpt lat="45.07096097623877" lon="9.953902500023094"><ele>36.0</ele><time>2026-04-26T08:29:38Z</time></trkpt><trkpt lat="45.071035544753975" lon="9.953986397180397"><ele>36.2</ele><time>2026-04-26T08:29:39Z</time></trkpt><trkpt lat="45.07111003101567" lon="9.954071643302315"><ele>36.400000000000006</ele><time>2026-04-26T08:29:40Z</time></trkpt><trkpt lat="45.07118190454019" lon="9.954159811059318"><ele>36.6</ele><time>2026-04-26T08:29:41Z</time></trkpt><trkpt lat="45.07125092198711" lon="9.95424709222667"><ele>36.800000000000004</ele><time>2026-04-26T08:29:42Z</time></trkpt><trkpt lat="45.07132149196814" lon="9.954332728509526"><ele>37.0</ele><time>2026-04-26T08:29:43Z</time></trkpt><trkpt lat="45.071394546256045" lon="9.954415284076054"><ele>37.0</ele><time>2026-04-26T08:29:44Z</time></trkpt><trkpt lat="45.07146529129275" lon="9.954498106699027"><ele>37.0</ele><time>2026-04-26T08:29:45Z</time></trkpt><trkpt lat="45.07153561858526" lon="9.954582148204288"><ele>37.0</ele><time>2026-04-26T08:29:46Z</time></trkpt><trkpt lat="45.07160721208375" lon="9.954664124079002"><ele>37.0</ele><time>2026-04-26T08:29:47Z</time></trkpt><trkpt lat="45.071677157911594" lon="9.954745128926014"><ele>37.0</ele><time>2026-04-26T08:29:48Z</time></trkpt><trkpt lat="45.07174628200455" lon="9.954824956147483"><ele>36.66666666666667</ele><time>2026-04-26T08:29:48.999Z</time></trkpt><trkpt lat="45.07181586624482" lon="9.954903942555665"><ele>36.333333333333336</ele><time>2026-04-26T08:29:49.999Z</time></trkpt><trkpt lat="45.07188329319376" lon="9.95498712904658"><ele>36.0</ele><time>2026-04-26T08:29:50.999Z</time></trkpt><trkpt lat="45.071951294579" lon="9.955067137590346"><ele>35.666666666666664</ele><time>2026-04-26T08:29:51.999Z</time></trkpt><trkpt lat="45.072020971926015" lon="9.955148558636104"><ele>35.33333333333333</ele><time>2026-04-26T08:29:52.999Z</time></trkpt><trkpt lat="45.07208898823128" lon="9.95522885305346"><ele>35.0</ele><time>2026-04-26T08:29:53.999Z</time></trkpt><trkpt lat="45.07215786596687" lon="9.955310759507194"><ele>35.0</ele><time>2026-04-26T08:29:54.999Z</time></trkpt><trkpt lat="45.07222720972272" lon="9.955392416144067"><ele>35.0</ele><time>2026-04-26T08:29:55.999Z</time></trkpt><trkpt lat="45.072295275749134" lon="9.955473213653567"><ele>35.0</ele><time>2026-04-26T08:29:56.999Z</time></trkpt><trkpt lat="45.07236398656868" lon="9.955556225870579"><ele>35.0</ele><time>2026-04-26T08:29:57.999Z</time></trkpt><trkpt lat="45.07243276044074" lon="9.955637426071798"><ele>35.0</ele><time>2026-04-26T08:29:58.999Z</time></trkpt><trkpt lat="45.07250218991393" lon="9.955718299277597"><ele>35.0</ele><time>2026-04-26T08:29:59.999Z</time></trkpt><trkpt lat="45.07257068861683" lon="9.955799514644582"><ele>35.0</ele><time>2026-04-26T08:30:00.999Z</time></trkpt><trkpt lat="45.072639414616226" lon="9.955878657228117"><ele>35.0</ele><time>2026-04-26T08:30:01.999Z</time></trkpt><trkpt lat="45.07270867354748" lon="9.955959318778048"><ele>35.0</ele><time>2026-04-26T08:30:02.999Z</time></trkpt><trkpt lat="45.072776225491424" lon="9.956039110485012"><ele>35.0</ele><time>2026-04-26T08:30:03.999Z</time></trkpt><trkpt lat="45.07284505732527" lon="9.956122705794712"><ele>35.0</ele><time>2026-04-26T08:30:04.999Z</time></trkpt><trkpt lat="45.07291385308163" lon="9.956204671777023"><ele>35.0</ele><time>2026-04-26T08:30:05.999Z</time></trkpt><trkpt lat="45.072982685663035" lon="9.956285081172904"><ele>35.0</ele><time>2026-04-26T08:30:06.999Z</time></trkpt><trkpt lat="45.07305144672347" lon="9.95636570331409"><ele>35.0</ele><time>2026-04-26T08:30:07.999Z</time></trkpt><trkpt lat="45.0731190290083" lon="9.956445501222714"><ele>35.0</ele><time>2026-04-26T08:30:08.999Z</time></trkpt><trkpt lat="45.07318884697264" lon="9.956527065523698"><ele>35.0</ele><time>2026-04-26T08:30:09.999Z</time></trkpt><trkpt lat="45.07325960871387" lon="9.95660771080867"><ele>35.0</ele><time>2026-04-26T08:30:10.999Z</time></trkpt><trkpt lat="45.073329745992076" lon="9.956688617003113"><ele>35.0</ele><time>2026-04-26T08:30:11.999Z</time></trkpt><trkpt lat="45.07340037768664" lon="9.956769954019567"><ele>35.166666666666664</ele><time>2026-04-26T08:30:12.999Z</time></trkpt><trkpt lat="45.073468986410866" lon="9.9568452405651"><ele>35.33333333333333</ele><time>2026-04-26T08:30:13.999Z</time></trkpt><trkpt lat="45.073540216727814" lon="9.956927142876733"><ele>35.5</ele><time>2026-04-26T08:30:14.999Z</time></trkpt><trkpt lat="45.07360918132316" lon="9.957006019927375"><ele>35.666666666666664</ele><time>2026-04-26T08:30:15.999Z</time></trkpt><trkpt lat="45.0736805715844" lon="9.957086993488089"><ele>35.833333333333336</ele><time>2026-04-26T08:30:16.999Z</time></trkpt><trkpt lat="45.07375055801496" lon="9.9571659890124"><ele>36.0</ele><time>2026-04-26T08:30:17.999Z</time></trkpt><trkpt lat="45.07382193516306" lon="9.957244476386133"><ele>36.0</ele><time>2026-04-26T08:30:18.999Z</time></trkpt><trkpt lat="45.073892804332516" lon="9.957323198455892"><ele>36.0</ele><time>2026-04-26T08:30:19.999Z</time></trkpt><trkpt lat="45.07396412053206" lon="9.957408283661229"><ele>36.0</ele><time>2026-04-26T08:30:20.999Z</time></trkpt><trkpt lat="45.07403070900543" lon="9.957489187836387"><ele>36.0</ele><time>2026-04-26T08:30:21.999Z</time></trkpt><trkpt lat="45.0740988130444" lon="9.957570181993766"><ele>36.0</ele><time>2026-04-26T08:30:22.999Z</time></trkpt><trkpt lat="45.074169144760674" lon="9.95765839790516"><ele>36.333333333333336</ele><time>2026-04-26T08:30:23.999Z</time></trkpt><trkpt lat="45.07423358658897" lon="9.95774241624648"><ele>36.666666666666664</ele><time>2026-04-26T08:30:24.999Z</time></trkpt><trkpt lat="45.074298443963855" lon="9.957832720628803"><ele>37.0</ele><time>2026-04-26T08:30:25.999Z</time></trkpt><trkpt lat="45.07435041096977" lon="9.957932779096613"><ele>37.33333333333333</ele><time>2026-04-26T08:30:26.999Z</time></trkpt><trkpt lat="45.07440582575365" lon="9.958035352760039"><ele>37.666666666666664</ele><time>2026-04-26T08:30:27.999Z</time></trkpt><trkpt lat="45.07445685684122" lon="9.958143813640772"><ele>38.0</ele><time>2026-04-26T08:30:28.999Z</time></trkpt><trkpt lat="45.0745043262465" lon="9.958249292548432"><ele>38.0</ele><time>2026-04-26T08:30:29.999Z</time></trkpt><trkpt lat="45.074552645188525" lon="9.95835322307546"><ele>38.0</ele><time>2026-04-26T08:30:30.999Z</time></trkpt><trkpt lat="45.074602067248925" lon="9.958461275535113"><ele>38.0</ele><time>2026-04-26T08:30:31.999Z</time></trkpt><trkpt lat="45.07464826830258" lon="9.958565311773265"><ele>38.0</ele><time>2026-04-26T08:30:32.999Z</time></trkpt><trkpt lat="45.07469392755555" lon="9.958673693187711"><ele>38.0</ele><time>2026-04-26T08:30:33.999Z</time></trkpt><trkpt lat="45.07473841252004" lon="9.958782411242394"><ele>38.0</ele><time>2026-04-26T08:30:34.999Z</time></trkpt><trkpt lat="45.074780652264174" lon="9.958890944137782"><ele>38.0</ele><time>2026-04-26T08:30:35.999Z</time></trkpt><trkpt lat="45.07482257665325" lon="9.95900420746459"><ele>38.0</ele><time>2026-04-26T08:30:36.999Z</time></trkpt><trkpt lat="45.07486373210358" lon="9.95910970882517"><ele>38.0</ele><time>2026-04-26T08:30:37.999Z</time></trkpt><trkpt lat="45.07490509049013" lon="9.959221493768466"><ele>38.0</ele><time>2026-04-26T08:30:38.999Z</time></trkpt><trkpt lat="45.07494353868925" lon="9.959329273466913"><ele>38.0</ele><time>2026-04-26T08:30:39.999Z</time></trkpt><trkpt lat="45.07498038060741" lon="9.959443592079898"><ele>38.0</ele><time>2026-04-26T08:30:40.999Z</time></trkpt><trkpt lat="45.07502007015656" lon="9.959551992872852"><ele>38.166666666666664</ele><time>2026-04-26T08:30:41.999Z</time></trkpt><trkpt lat="45.07505951970824" lon="9.959661230725676"><ele>38.33333333333333</ele><time>2026-04-26T08:30:42.998Z</time></trkpt><trkpt lat="45.075098858809916" lon="9.959769494666"><ele>38.5</ele><time>2026-04-26T08:30:43.998Z</time></trkpt><trkpt lat="45.07514125180063" lon="9.95987942812098"><ele>38.666666666666664</ele><time>2026-04-26T08:30:44.998Z</time></trkpt><trkpt lat="45.07518193594758" lon="9.959986974009276"><ele>38.833333333333336</ele><time>2026-04-26T08:30:45.998Z</time></trkpt><trkpt lat="45.075225727002135" lon="9.960094673255245"><ele>39.0</ele><time>2026-04-26T08:30:46.998Z</time></trkpt><trkpt lat="45.075273993876806" lon="9.960202987417203"><ele>39.0</ele><time>2026-04-26T08:30:47.998Z</time></trkpt><trkpt lat="45.075323602414386" lon="9.960306912137526"><ele>39.0</ele><time>2026-04-26T08:30:48.998Z</time></trkpt><trkpt lat="45.07537090852804" lon="9.96041441201468"><ele>39.0</ele><time>2026-04-26T08:30:49.998Z</time></trkpt><trkpt lat="45.07542198179667" lon="9.960516049876157"><ele>39.0</ele><time>2026-04-26T08:30:50.998Z</time></trkpt><trkpt lat="45.07547309526377" lon="9.960617978808951"><ele>39.0</ele><time>2026-04-26T08:30:51.998Z</time></trkpt><trkpt lat="45.075526014691775" lon="9.96071510126792"><ele>39.0</ele><time>2026-04-26T08:30:52.998Z</time></trkpt><trkpt lat="45.075580111003916" lon="9.960813592837406"><ele>39.0</ele><time>2026-04-26T08:30:53.998Z</time></trkpt><trkpt lat="45.075629649122696" lon="9.960911752189597"><ele>39.0</ele><time>2026-04-26T08:30:54.998Z</time></trkpt><trkpt lat="45.075682785063755" lon="9.961010634593555"><ele>39.0</ele><time>2026-04-26T08:30:55.998Z</time></trkpt><trkpt lat="45.07573785167914" lon="9.961107806036924"><ele>39.0</ele><time>2026-04-26T08:30:56.998Z</time></trkpt><trkpt lat="45.075797709045744" lon="9.96120056339528"><ele>39.0</ele><time>2026-04-26T08:30:57.998Z</time></trkpt><trkpt lat="45.07585407577985" lon="9.96129437378029"><ele>39.0</ele><time>2026-04-26T08:30:58.998Z</time></trkpt><trkpt lat="45.07591360089676" lon="9.961387358939147"><ele>38.833333333333336</ele><time>2026-04-26T08:30:59.998Z</time></trkpt><trkpt lat="45.07597286275946" lon="9.961477743314608"><ele>38.666666666666664</ele><time>2026-04-26T08:31:00.998Z</time></trkpt><trkpt lat="45.07603846175916" lon="9.961562921008692"><ele>38.5</ele><time>2026-04-26T08:31:01.998Z</time></trkpt><trkpt lat="45.076100694196505" lon="9.961651108322595"><ele>38.33333333333333</ele><time>2026-04-26T08:31:02.998Z</time></trkpt><trkpt lat="45.076165430475285" lon="9.961732942323701"><ele>38.166666666666664</ele><time>2026-04-26T08:31:03.998Z</time></trkpt><trkpt lat="45.076234572181626" lon="9.9618090286411"><ele>38.0</ele><time>2026-04-26T08:31:04.998Z</time></trkpt><trkpt lat="45.07630683491539" lon="9.96187953387981"><ele>38.0</ele><time>2026-04-26T08:31:05.998Z</time></trkpt><trkpt lat="45.07637961676475" lon="9.961941939821822"><ele>38.0</ele><time>2026-04-26T08:31:06.998Z</time></trkpt><trkpt lat="45.07645544318602" lon="9.962001068580403"><ele>38.0</ele><time>2026-04-26T08:31:07.998Z</time></trkpt><trkpt lat="45.0765335832379" lon="9.962058069637749"><ele>38.0</ele><time>2026-04-26T08:31:08.998Z</time></trkpt><trkpt lat="45.07660993835294" lon="9.962113266693988"><ele>38.0</ele><time>2026-04-26T08:31:09.998Z</time></trkpt><trkpt lat="45.07668441879335" lon="9.962170488124261"><ele>38.0</ele><time>2026-04-26T08:31:10.998Z</time></trkpt><trkpt lat="45.076761244069814" lon="9.962227826632098"><ele>38.0</ele><time>2026-04-26T08:31:11.998Z</time></trkpt><trkpt lat="45.076841343941105" lon="9.962281582991551"><ele>38.0</ele><time>2026-04-26T08:31:12.998Z</time></trkpt><trkpt lat="45.07692585274474" lon="9.96232436871047"><ele>38.0</ele><time>2026-04-26T08:31:13.998Z</time></trkpt><trkpt lat="45.0770096215167" lon="9.962365625932593"><ele>38.0</ele><time>2026-04-26T08:31:14.998Z</time></trkpt><trkpt lat="45.07709464309861" lon="9.962405142609724"><ele>38.0</ele><time>2026-04-26T08:31:15.998Z</time></trkpt><trkpt lat="45.07718014085685" lon="9.962443970019565"><ele>38.0</ele><time>2026-04-26T08:31:16.998Z</time></trkpt><trkpt lat="45.07726772818851" lon="9.962480328675134"><ele>38.0</ele><time>2026-04-26T08:31:17.998Z</time></trkpt><trkpt lat="45.077352733551685" lon="9.9625166226377"><ele>38.0</ele><time>2026-04-26T08:31:18.998Z</time></trkpt><trkpt lat="45.07743752472484" lon="9.962552833804088"><ele>38.0</ele><time>2026-04-26T08:31:19.998Z</time></trkpt><trkpt lat="45.077518488320884" lon="9.962589933778421"><ele>38.0</ele><time>2026-04-26T08:31:20.998Z</time></trkpt><trkpt lat="45.077602513867234" lon="9.962626734790254"><ele>38.0</ele><time>2026-04-26T08:31:21.998Z</time></trkpt><trkpt lat="45.07768485580925" lon="9.962660763739802"><ele>38.0</ele><time>2026-04-26T08:31:22.998Z</time></trkpt><trkpt lat="45.07776954284407" lon="9.96269244822682"><ele>38.0</ele><time>2026-04-26T08:31:23.998Z</time></trkpt><trkpt lat="45.077851827492296" lon="9.962725655098554"><ele>38.0</ele><time>2026-04-26T08:31:24.998Z</time></trkpt><trkpt lat="45.077933264028346" lon="9.962759971511737"><ele>38.0</ele><time>2026-04-26T08:31:25.998Z</time></trkpt><trkpt lat="45.07801912536906" lon="9.962790634527849"><ele>38.0</ele><time>2026-04-26T08:31:27Z</time></trkpt><trkpt lat="45.078097842305525" lon="9.96282394680195"><ele>38.0</ele><time>2026-04-26T08:31:28Z</time></trkpt><trkpt lat="45.07818207390782" lon="9.962855779519325"><ele>38.0</ele><time>2026-04-26T08:31:29Z</time></trkpt><trkpt lat="45.078266547168234" lon="9.962885507291203"><ele>37.666666666666664</ele><time>2026-04-26T08:31:30Z</time></trkpt><trkpt lat="45.07835043338317" lon="9.962921314653345"><ele>37.33333333333333</ele><time>2026-04-26T08:31:31Z</time></trkpt><trkpt lat="45.07843222111828" lon="9.962957503117694"><ele>37.0</ele><time>2026-04-26T08:31:32Z</time></trkpt><trkpt lat="45.07851464099786" lon="9.962994336164558"><ele>36.666666666666664</ele><time>2026-04-26T08:31:33Z</time></trkpt><trkpt lat="45.078594803066686" lon="9.963038394909118"><ele>36.333333333333336</ele><time>2026-04-26T08:31:34Z</time></trkpt><trkpt lat="45.078673892779534" lon="9.96309323451985"><ele>36.0</ele><time>2026-04-26T08:31:35Z</time></trkpt><trkpt lat="45.07874929290543" lon="9.963149675007257"><ele>36.0</ele><time>2026-04-26T08:31:36Z</time></trkpt><trkpt lat="45.07882149404553" lon="9.963209044998038"><ele>36.0</ele><time>2026-04-26T08:31:37Z</time></trkpt><trkpt lat="45.07889283165652" lon="9.963271648791313"><ele>36.0</ele><time>2026-04-26T08:31:38Z</time></trkpt><trkpt lat="45.07896034168181" lon="9.963338145607098"><ele>36.0</ele><time>2026-04-26T08:31:39Z</time></trkpt><trkpt lat="45.079028757014626" lon="9.963403504995762"><ele>36.0</ele><time>2026-04-26T08:31:40Z</time></trkpt><trkpt lat="45.07909682360237" lon="9.963471376170117"><ele>36.0</ele><time>2026-04-26T08:31:41Z</time></trkpt><trkpt lat="45.07916494213999" lon="9.963538029548728"><ele>36.0</ele><time>2026-04-26T08:31:42Z</time></trkpt><trkpt lat="45.07923264450338" lon="9.963603634614994"><ele>36.0</ele><time>2026-04-26T08:31:43Z</time></trkpt><trkpt lat="45.07930486103472" lon="9.96367167804645"><ele>36.0</ele><time>2026-04-26T08:31:44Z</time></trkpt><trkpt lat="45.079372333945535" lon="9.963735756265812"><ele>36.0</ele><time>2026-04-26T08:31:45Z</time></trkpt><trkpt lat="45.079439409478375" lon="9.96380352542205"><ele>36.0</ele><time>2026-04-26T08:31:46Z</time></trkpt><trkpt lat="45.079508506595424" lon="9.963873455929678"><ele>36.0</ele><time>2026-04-26T08:31:47Z</time></trkpt><trkpt lat="45.07958127890195" lon="9.963937465862854"><ele>36.0</ele><time>2026-04-26T08:31:48Z</time></trkpt><trkpt lat="45.07964953963758" lon="9.963998929123257"><ele>36.0</ele><time>2026-04-26T08:31:49Z</time></trkpt><trkpt lat="45.07972274922884" lon="9.96406280857882"><ele>36.0</ele><time>2026-04-26T08:31:50Z</time></trkpt><trkpt lat="45.079796626335195" lon="9.964123053097547"><ele>36.0</ele><time>2026-04-26T08:31:51Z</time></trkpt><trkpt lat="45.079875237783895" lon="9.964170680032277"><ele>36.0</ele><time>2026-04-26T08:31:51.999Z</time></trkpt><trkpt lat="45.07995538531014" lon="9.964213254584593"><ele>36.0</ele><time>2026-04-26T08:31:52.999Z</time></trkpt><trkpt lat="45.08003978418684" lon="9.964240366085688"><ele>36.0</ele><time>2026-04-26T08:31:53.999Z</time></trkpt><trkpt lat="45.08012392575842" lon="9.964259362769305"><ele>36.0</ele><time>2026-04-26T08:31:54.999Z</time></trkpt><trkpt lat="45.08021266552332" lon="9.964263116657717"><ele>36.0</ele><time>2026-04-26T08:31:55.999Z</time></trkpt><trkpt lat="45.08030003057575" lon="9.964259432460512"><ele>36.0</ele><time>2026-04-26T08:31:56.999Z</time></trkpt><trkpt lat="45.08038466329541" lon="9.964246534355029"><ele>36.0</ele><time>2026-04-26T08:31:57.999Z</time></trkpt><trkpt lat="45.08047095267003" lon="9.96423153612063"><ele>36.0</ele><time>2026-04-26T08:31:58.999Z</time></trkpt><trkpt lat="45.08055776894541" lon="9.964217948527873"><ele>36.0</ele><time>2026-04-26T08:31:59.999Z</time></trkpt><trkpt lat="45.08064469452444" lon="9.964200290622847"><ele>36.0</ele><time>2026-04-26T08:32:00.999Z</time></trkpt><trkpt lat="45.08072367055468" lon="9.964184873340086"><ele>36.0</ele><time>2026-04-26T08:32:01.999Z</time></trkpt><trkpt lat="45.08081005654141" lon="9.964169375787337"><ele>36.0</ele><time>2026-04-26T08:32:02.999Z</time></trkpt><trkpt lat="45.08089200890116" lon="9.964155804245257"><ele>36.0</ele><time>2026-04-26T08:32:03.999Z</time></trkpt><trkpt lat="45.08097226985795" lon="9.964137664010726"><ele>36.0</ele><time>2026-04-26T08:32:04.999Z</time></trkpt><trkpt lat="45.08105168898246" lon="9.96412518097393"><ele>36.5</ele><time>2026-04-26T08:32:05.999Z</time></trkpt><trkpt lat="45.08113821293649" lon="9.96410635448535"><ele>37.0</ele><time>2026-04-26T08:32:06.999Z</time></trkpt><trkpt lat="45.081214918119464" lon="9.964082887613873"><ele>37.5</ele><time>2026-04-26T08:32:07.999Z</time></trkpt><trkpt lat="45.081299216015616" lon="9.964067854322494"><ele>38.0</ele><time>2026-04-26T08:32:08.999Z</time></trkpt><trkpt lat="45.08138385122036" lon="9.964053146848201"><ele>38.5</ele><time>2026-04-26T08:32:09.999Z</time></trkpt><trkpt lat="45.081463783244715" lon="9.964038119946876"><ele>39.0</ele><time>2026-04-26T08:32:10.999Z</time></trkpt><trkpt lat="45.08154418950431" lon="9.964021833787836"><ele>39.0</ele><time>2026-04-26T08:32:11.999Z</time></trkpt><trkpt lat="45.08162903485581" lon="9.964003612293524"><ele>39.0</ele><time>2026-04-26T08:32:12.999Z</time></trkpt><trkpt lat="45.08170701684676" lon="9.963982746817921"><ele>39.0</ele><time>2026-04-26T08:32:13.999Z</time></trkpt><trkpt lat="45.08178680725769" lon="9.96395868978346"><ele>39.0</ele><time>2026-04-26T08:32:14.999Z</time></trkpt><trkpt lat="45.08186353677443" lon="9.96392845928068"><ele>39.0</ele><time>2026-04-26T08:32:15.999Z</time></trkpt><trkpt lat="45.08194049156078" lon="9.963881520998028"><ele>39.0</ele><time>2026-04-26T08:32:16.999Z</time></trkpt><trkpt lat="45.0820148469284" lon="9.963839761746772"><ele>39.0</ele><time>2026-04-26T08:32:17.999Z</time></trkpt><trkpt lat="45.08208754064417" lon="9.96378372910101"><ele>39.0</ele><time>2026-04-26T08:32:18.999Z</time></trkpt><trkpt lat="45.08215367214074" lon="9.96372390326579"><ele>39.0</ele><time>2026-04-26T08:32:19.999Z</time></trkpt><trkpt lat="45.08222637358989" lon="9.963662589896991"><ele>39.0</ele><time>2026-04-26T08:32:20.999Z</time></trkpt><trkpt lat="45.08229616138169" lon="9.963603157059111"><ele>39.0</ele><time>2026-04-26T08:32:21.999Z</time></trkpt><trkpt lat="45.08236735246897" lon="9.963541204495375"><ele>39.0</ele><time>2026-04-26T08:32:22.999Z</time></trkpt><trkpt lat="45.08244302117071" lon="9.963473415734022"><ele>38.833333333333336</ele><time>2026-04-26T08:32:23.999Z</time></trkpt><trkpt lat="45.08251954760776" lon="9.963410539292099"><ele>38.666666666666664</ele><time>2026-04-26T08:32:24.999Z</time></trkpt><trkpt lat="45.08259088267349" lon="9.963340290307594"><ele>38.5</ele><time>2026-04-26T08:32:25.999Z</time></trkpt><trkpt lat="45.08266372385006" lon="9.963270196934449"><ele>38.33333333333333</ele><time>2026-04-26T08:32:26.999Z</time></trkpt><trkpt lat="45.08274074671512" lon="9.963204284995584"><ele>38.166666666666664</ele><time>2026-04-26T08:32:27.999Z</time></trkpt><trkpt lat="45.08281851475214" lon="9.96313732161421"><ele>38.0</ele><time>2026-04-26T08:32:28.999Z</time></trkpt><trkpt lat="45.08289601262212" lon="9.963070582314648"><ele>38.0</ele><time>2026-04-26T08:32:29.999Z</time></trkpt><trkpt lat="45.08297345767231" lon="9.963002626259513"><ele>38.0</ele><time>2026-04-26T08:32:30.999Z</time></trkpt><trkpt lat="45.083051868003416" lon="9.962931161005338"><ele>38.0</ele><time>2026-04-26T08:32:31.999Z</time></trkpt><trkpt lat="45.08312994527377" lon="9.962860735774173"><ele>38.0</ele><time>2026-04-26T08:32:32.999Z</time></trkpt><trkpt lat="45.08321075240926" lon="9.962790746390192"><ele>38.0</ele><time>2026-04-26T08:32:33.999Z</time></trkpt><trkpt lat="45.08329221632342" lon="9.96271702720315"><ele>38.0</ele><time>2026-04-26T08:32:34.999Z</time></trkpt><trkpt lat="45.08337378374681" lon="9.962641673780565"><ele>38.0</ele><time>2026-04-26T08:32:35.999Z</time></trkpt><trkpt lat="45.08345536788093" lon="9.962570346701263"><ele>38.0</ele><time>2026-04-26T08:32:36.999Z</time></trkpt><trkpt lat="45.08353604194049" lon="9.962499194642856"><ele>38.0</ele><time>2026-04-26T08:32:37.999Z</time></trkpt><trkpt lat="45.08361846294307" lon="9.962425515709315"><ele>38.0</ele><time>2026-04-26T08:32:38.999Z</time></trkpt><trkpt lat="45.083704421406644" lon="9.96235413090232"><ele>38.199999999999996</ele><time>2026-04-26T08:32:39.999Z</time></trkpt><trkpt lat="45.08379000977217" lon="9.962288622310332"><ele>38.4</ele><time>2026-04-26T08:32:40.999Z</time></trkpt><trkpt lat="45.0838799977049" lon="9.962221832312924"><ele>38.599999999999994</ele><time>2026-04-26T08:32:41.999Z</time></trkpt><trkpt lat="45.08396791378981" lon="9.96215948426412"><ele>38.8</ele><time>2026-04-26T08:32:42.999Z</time></trkpt><trkpt lat="45.084054353173045" lon="9.962094747908509"><ele>39.0</ele><time>2026-04-26T08:32:43.999Z</time></trkpt><trkpt lat="45.08414731355756" lon="9.962038886190161"><ele>38.6</ele><time>2026-04-26T08:32:44.999Z</time></trkpt><trkpt lat="45.08423998340877" lon="9.961988636242623"><ele>38.2</ele><time>2026-04-26T08:32:45.998Z</time></trkpt><trkpt lat="45.08433594619415" lon="9.961942195325843"><ele>37.800000000000004</ele><time>2026-04-26T08:32:46.998Z</time></trkpt><trkpt lat="45.08442931957737" lon="9.961906339385843"><ele>37.4</ele><time>2026-04-26T08:32:47.998Z</time></trkpt><trkpt lat="45.084527735544434" lon="9.961870290234224"><ele>37.0</ele><time>2026-04-26T08:32:48.998Z</time></trkpt><trkpt lat="45.08462268897626" lon="9.961836308797293"><ele>37.0</ele><time>2026-04-26T08:32:49.998Z</time></trkpt><trkpt lat="45.084717944335175" lon="9.961802576393298"><ele>37.0</ele><time>2026-04-26T08:32:50.998Z</time></trkpt><trkpt lat="45.08481364548216" lon="9.961765390278032"><ele>37.0</ele><time>2026-04-26T08:32:51.998Z</time></trkpt><trkpt lat="45.08490544940187" lon="9.961737147944353"><ele>37.0</ele><time>2026-04-26T08:32:52.998Z</time></trkpt><trkpt lat="45.08499886649324" lon="9.961703448882718"><ele>37.0</ele><time>2026-04-26T08:32:53.998Z</time></trkpt><trkpt lat="45.0850896821778" lon="9.961667431328964"><ele>37.2</ele><time>2026-04-26T08:32:54.998Z</time></trkpt><trkpt lat="45.08517692421447" lon="9.9616393068079"><ele>37.400000000000006</ele><time>2026-04-26T08:32:55.998Z</time></trkpt><trkpt lat="45.08527129369412" lon="9.961605232497526"><ele>37.599999999999994</ele><time>2026-04-26T08:32:56.998Z</time></trkpt><trkpt lat="45.085360028362096" lon="9.96157574814252"><ele>37.8</ele><time>2026-04-26T08:32:57.998Z</time></trkpt><trkpt lat="45.08544902767864" lon="9.961543440473745"><ele>38.0</ele><time>2026-04-26T08:32:58.998Z</time></trkpt><trkpt lat="45.085536358356606" lon="9.961511001791559"><ele>38.0</ele><time>2026-04-26T08:32:59.998Z</time></trkpt><trkpt lat="45.085625944901686" lon="9.961477508276548"><ele>38.0</ele><time>2026-04-26T08:33:00.998Z</time></trkpt><trkpt lat="45.08570989924777" lon="9.961441482577598"><ele>38.0</ele><time>2026-04-26T08:33:01.998Z</time></trkpt><trkpt lat="45.08579604101252" lon="9.961405073872038"><ele>38.0</ele><time>2026-04-26T08:33:02.998Z</time></trkpt><trkpt lat="45.08588538706731" lon="9.961382184449054"><ele>38.0</ele><time>2026-04-26T08:33:03.998Z</time></trkpt><trkpt lat="45.08597259869338" lon="9.961368675362701"><ele>38.0</ele><time>2026-04-26T08:33:04.998Z</time></trkpt><trkpt lat="45.08606304762211" lon="9.961364020238037"><ele>37.83333333333333</ele><time>2026-04-26T08:33:05.998Z</time></trkpt><trkpt lat="45.086149313656435" lon="9.961356742699955"><ele>37.666666666666664</ele><time>2026-04-26T08:33:06.998Z</time></trkpt><trkpt lat="45.08622282122238" lon="9.961322494818909"><ele>37.5</ele><time>2026-04-26T08:33:07.998Z</time></trkpt><trkpt lat="45.086321304265205" lon="9.96133672755704"><ele>37.333333333333336</ele><time>2026-04-26T08:33:08.998Z</time></trkpt><trkpt lat="45.08641160464978" lon="9.961345291654737"><ele>37.16666666666667</ele><time>2026-04-26T08:33:09.998Z</time></trkpt><trkpt lat="45.08649871344222" lon="9.961343644482277"><ele>37.0</ele><time>2026-04-26T08:33:10.998Z</time></trkpt><trkpt lat="45.086588882785385" lon="9.96134614210749"><ele>37.0</ele><time>2026-04-26T08:33:11.998Z</time></trkpt><trkpt lat="45.08667693562044" lon="9.961352760128866"><ele>37.0</ele><time>2026-04-26T08:33:12.998Z</time></trkpt><trkpt lat="45.08676763865444" lon="9.961358864611489"><ele>37.0</ele><time>2026-04-26T08:33:13.998Z</time></trkpt><trkpt lat="45.08685476422147" lon="9.961366125966975"><ele>37.0</ele><time>2026-04-26T08:33:14.998Z</time></trkpt><trkpt lat="45.0869435994326" lon="9.961371369938469"><ele>37.0</ele><time>2026-04-26T08:33:15.998Z</time></trkpt><trkpt lat="45.087032168243674" lon="9.961382681759828"><ele>37.0</ele><time>2026-04-26T08:33:16.998Z</time></trkpt><trkpt lat="45.0871187261411" lon="9.961396852768981"><ele>37.0</ele><time>2026-04-26T08:33:17.998Z</time></trkpt><trkpt lat="45.08720590185894" lon="9.961418787246448"><ele>37.0</ele><time>2026-04-26T08:33:18.998Z</time></trkpt><trkpt lat="45.08728514805054" lon="9.961434819173817"><ele>37.0</ele><time>2026-04-26T08:33:19.998Z</time></trkpt><trkpt lat="45.08737508929715" lon="9.96145575821538"><ele>37.0</ele><time>2026-04-26T08:33:20.998Z</time></trkpt><trkpt lat="45.08745847817798" lon="9.961478480082032"><ele>37.0</ele><time>2026-04-26T08:33:21.998Z</time></trkpt><trkpt lat="45.08753965555126" lon="9.961496538040988"><ele>37.0</ele><time>2026-04-26T08:33:22.998Z</time></trkpt><trkpt lat="45.08762745959463" lon="9.961514053030031"><ele>37.16666666666667</ele><time>2026-04-26T08:33:23.998Z</time></trkpt><trkpt lat="45.08770985818208" lon="9.961533142245152"><ele>37.333333333333336</ele><time>2026-04-26T08:33:24.998Z</time></trkpt><trkpt lat="45.08780028264902" lon="9.961554065071121"><ele>37.5</ele><time>2026-04-26T08:33:25.998Z</time></trkpt><trkpt lat="45.08788709785204" lon="9.961568104800692"><ele>37.666666666666664</ele><time>2026-04-26T08:33:26.998Z</time></trkpt><trkpt lat="45.08797483918581" lon="9.961583918194439"><ele>37.83333333333333</ele><time>2026-04-26T08:33:27.998Z</time></trkpt><trkpt lat="45.088065024433945" lon="9.961599319067474"><ele>38.0</ele><time>2026-04-26T08:33:28.998Z</time></trkpt><trkpt lat="45.088148948539406" lon="9.961613603453147"><ele>38.0</ele><time>2026-04-26T08:33:29.998Z</time></trkpt><trkpt lat="45.088235672055305" lon="9.961623502947923"><ele>38.0</ele><time>2026-04-26T08:33:30.998Z</time></trkpt><trkpt lat="45.08832362767647" lon="9.961631102716202"><ele>38.0</ele><time>2026-04-26T08:33:31.998Z</time></trkpt><trkpt lat="45.0884119290107" lon="9.96164200757715"><ele>38.0</ele><time>2026-04-26T08:33:33Z</time></trkpt><trkpt lat="45.088494661602105" lon="9.961651846671735"><ele>38.0</ele><time>2026-04-26T08:33:34Z</time></trkpt><trkpt lat="45.088582249610944" lon="9.961661556377182"><ele>38.0</ele><time>2026-04-26T08:33:35Z</time></trkpt><trkpt lat="45.08867000052153" lon="9.96166821388808"><ele>37.666666666666664</ele><time>2026-04-26T08:33:36Z</time></trkpt><trkpt lat="45.088758193396" lon="9.961672751769688"><ele>37.33333333333333</ele><time>2026-04-26T08:33:37Z</time></trkpt><trkpt lat="45.088842591620775" lon="9.961679474040583"><ele>37.0</ele><time>2026-04-26T08:33:38Z</time></trkpt><trkpt lat="45.08893029524049" lon="9.961685140277943"><ele>36.666666666666664</ele><time>2026-04-26T08:33:39Z</time></trkpt><trkpt lat="45.08901835374373" lon="9.961690128124605"><ele>36.333333333333336</ele><time>2026-04-26T08:33:40Z</time></trkpt><trkpt lat="45.089105346262656" lon="9.961693908773691"><ele>36.0</ele><time>2026-04-26T08:33:41Z</time></trkpt><trkpt lat="45.089190282752675" lon="9.96170013863516"><ele>36.0</ele><time>2026-04-26T08:33:42Z</time></trkpt><trkpt lat="45.08927934003271" lon="9.961710522359764"><ele>36.0</ele><time>2026-04-26T08:33:43Z</time></trkpt><trkpt lat="45.08936692135972" lon="9.961722140964403"><ele>36.0</ele><time>2026-04-26T08:33:44Z</time></trkpt><trkpt lat="45.08945158480166" lon="9.961745491886417"><ele>36.0</ele><time>2026-04-26T08:33:45Z</time></trkpt><trkpt lat="45.08953276742489" lon="9.961777926653467"><ele>36.0</ele><time>2026-04-26T08:33:46Z</time></trkpt><trkpt lat="45.089615696055986" lon="9.96181234268843"><ele>36.0</ele><time>2026-04-26T08:33:47Z</time></trkpt><trkpt lat="45.08969802090873" lon="9.961854940342675"><ele>36.0</ele><time>2026-04-26T08:33:48Z</time></trkpt><trkpt lat="45.08977610067909" lon="9.961903275486357"><ele>36.0</ele><time>2026-04-26T08:33:49Z</time></trkpt><trkpt lat="45.08985462961583" lon="9.96195838089528"><ele>36.0</ele><time>2026-04-26T08:33:50Z</time></trkpt><trkpt lat="45.089933153590664" lon="9.962014919051356"><ele>36.0</ele><time>2026-04-26T08:33:51Z</time></trkpt><trkpt lat="45.09001009710963" lon="9.96207759956176"><ele>36.0</ele><time>2026-04-26T08:33:52Z</time></trkpt><trkpt lat="45.09008627522391" lon="9.962144537565436"><ele>36.0</ele><time>2026-04-26T08:33:53Z</time></trkpt><trkpt lat="45.09015968263328" lon="9.962211439977299"><ele>36.0</ele><time>2026-04-26T08:33:54Z</time></trkpt><trkpt lat="45.09023411493973" lon="9.962285460881342"><ele>36.0</ele><time>2026-04-26T08:33:54.999Z</time></trkpt><trkpt lat="45.090305118721325" lon="9.962351667591566"><ele>36.0</ele><time>2026-04-26T08:33:55.999Z</time></trkpt><trkpt lat="45.090375789342644" lon="9.962422152265919"><ele>36.0</ele><time>2026-04-26T08:33:56.999Z</time></trkpt><trkpt lat="45.09044710972752" lon="9.962492533150934"><ele>36.0</ele><time>2026-04-26T08:33:57.999Z</time></trkpt><trkpt lat="45.09051711182913" lon="9.962566724683212"><ele>36.0</ele><time>2026-04-26T08:33:58.999Z</time></trkpt><trkpt lat="45.090589962841015" lon="9.962639587398895"><ele>36.0</ele><time>2026-04-26T08:33:59.999Z</time></trkpt><trkpt lat="45.09065983819716" lon="9.962710528147829"><ele>36.0</ele><time>2026-04-26T08:34:00.999Z</time></trkpt><trkpt lat="45.09073141993988" lon="9.962784079545031"><ele>36.0</ele><time>2026-04-26T08:34:01.999Z</time></trkpt><trkpt lat="45.09080033761817" lon="9.962852909820695"><ele>36.0</ele><time>2026-04-26T08:34:02.999Z</time></trkpt><trkpt lat="45.09087438577149" lon="9.962926558610356"><ele>36.0</ele><time>2026-04-26T08:34:03.999Z</time></trkpt><trkpt lat="45.09094531975084" lon="9.962997614989044"><ele>36.0</ele><time>2026-04-26T08:34:04.999Z</time></trkpt><trkpt lat="45.09101550328639" lon="9.963067906756796"><ele>36.166666666666664</ele><time>2026-04-26T08:34:05.999Z</time></trkpt><trkpt lat="45.09108711758733" lon="9.963142836345906"><ele>36.333333333333336</ele><time>2026-04-26T08:34:06.999Z</time></trkpt><trkpt lat="45.09115670570907" lon="9.963214489416037"><ele>36.5</ele><time>2026-04-26T08:34:07.999Z</time></trkpt><trkpt lat="45.09122350699114" lon="9.963291651851248"><ele>36.66666666666667</ele><time>2026-04-26T08:34:08.999Z</time></trkpt><trkpt lat="45.09129103581109" lon="9.963374966111083"><ele>36.833333333333336</ele><time>2026-04-26T08:34:09.999Z</time></trkpt><trkpt lat="45.09135336718803" lon="9.963458132601204"><ele>37.0</ele><time>2026-04-26T08:34:10.999Z</time></trkpt><trkpt lat="45.09141416832419" lon="9.96354783160365"><ele>37.0</ele><time>2026-04-26T08:34:11.999Z</time></trkpt><trkpt lat="45.09147109904553" lon="9.963642043347022"><ele>37.0</ele><time>2026-04-26T08:34:12.999Z</time></trkpt><trkpt lat="45.09152650071237" lon="9.96373350037993"><ele>37.0</ele><time>2026-04-26T08:34:13.999Z</time></trkpt><trkpt lat="45.09158615879126" lon="9.963826100883288"><ele>37.0</ele><time>2026-04-26T08:34:14.999Z</time></trkpt><trkpt lat="45.0916520220181" lon="9.963903078517063"><ele>37.0</ele><time>2026-04-26T08:34:15.999Z</time></trkpt><trkpt lat="45.091723456782674" lon="9.963962034263403"><ele>37.0</ele><time>2026-04-26T08:34:16.999Z</time></trkpt><trkpt lat="45.091804761891304" lon="9.964014058541444"><ele>37.0</ele><time>2026-04-26T08:34:17.999Z</time></trkpt><trkpt lat="45.09187905423024" lon="9.964066308130704"><ele>37.0</ele><time>2026-04-26T08:34:18.999Z</time></trkpt><trkpt lat="45.09195420247654" lon="9.964128440460236"><ele>37.0</ele><time>2026-04-26T08:34:19.999Z</time></trkpt><trkpt lat="45.09202719028558" lon="9.964187498916754"><ele>37.0</ele><time>2026-04-26T08:34:20.999Z</time></trkpt><trkpt lat="45.09209425020143" lon="9.964259703212937"><ele>37.0</ele><time>2026-04-26T08:34:21.999Z</time></trkpt><trkpt lat="45.092145794130616" lon="9.964347484738482"><ele>37.0</ele><time>2026-04-26T08:34:22.999Z</time></trkpt><trkpt lat="45.092188598151544" lon="9.964444093924815"><ele>37.0</ele><time>2026-04-26T08:34:23.999Z</time></trkpt><trkpt lat="45.09220763260404" lon="9.964563836859673"><ele>37.0</ele><time>2026-04-26T08:34:24.999Z</time></trkpt><trkpt lat="45.092218909046586" lon="9.96468723122253"><ele>37.0</ele><time>2026-04-26T08:34:25.999Z</time></trkpt><trkpt lat="45.09222680134848" lon="9.964806773198443"><ele>37.0</ele><time>2026-04-26T08:34:26.999Z</time></trkpt><trkpt lat="45.092240532883594" lon="9.96492800551227"><ele>37.0</ele><time>2026-04-26T08:34:27.999Z</time></trkpt><trkpt lat="45.09225317897235" lon="9.965048311418427"><ele>37.0</ele><time>2026-04-26T08:34:28.999Z</time></trkpt><trkpt lat="45.09227013971734" lon="9.96516714119206"><ele>36.833333333333336</ele><time>2026-04-26T08:34:29.999Z</time></trkpt><trkpt lat="45.092290013080515" lon="9.965288265149509"><ele>36.66666666666667</ele><time>2026-04-26T08:34:30.999Z</time></trkpt><trkpt lat="45.09231165265245" lon="9.965408133528694"><ele>36.5</ele><time>2026-04-26T08:34:31.999Z</time></trkpt><trkpt lat="45.09233026997557" lon="9.965530493685336"><ele>36.333333333333336</ele><time>2026-04-26T08:34:32.999Z</time></trkpt><trkpt lat="45.09235237772078" lon="9.965651610057627"><ele>36.166666666666664</ele><time>2026-04-26T08:34:33.999Z</time></trkpt><trkpt lat="45.09237131103711" lon="9.965775845160648"><ele>36.0</ele><time>2026-04-26T08:34:34.999Z</time></trkpt><trkpt lat="45.092394481432024" lon="9.965899727359568"><ele>36.4</ele><time>2026-04-26T08:34:35.999Z</time></trkpt><trkpt lat="45.09242529024283" lon="9.96602003403138"><ele>36.8</ele><time>2026-04-26T08:34:36.999Z</time></trkpt><trkpt lat="45.09245839873873" lon="9.966139807463383"><ele>37.199999999999996</ele><time>2026-04-26T08:34:37.999Z</time></trkpt><trkpt lat="45.092494938463126" lon="9.966260578997924"><ele>37.6</ele><time>2026-04-26T08:34:38.999Z</time></trkpt><trkpt lat="45.09253023050626" lon="9.966375752330041"><ele>38.0</ele><time>2026-04-26T08:34:39.999Z</time></trkpt><trkpt lat="45.09256781955097" lon="9.966495123084108"><ele>38.0</ele><time>2026-04-26T08:34:40.999Z</time></trkpt><trkpt lat="45.092608978174994" lon="9.966611771751932"><ele>38.0</ele><time>2026-04-26T08:34:41.999Z</time></trkpt><trkpt lat="45.09264987287638" lon="9.966729321961418"><ele>38.0</ele><time>2026-04-26T08:34:42.999Z</time></trkpt><trkpt lat="45.09269535549154" lon="9.96684111718381"><ele>38.0</ele><time>2026-04-26T08:34:43.999Z</time></trkpt><trkpt lat="45.09273888195764" lon="9.966957312993852"><ele>38.0</ele><time>2026-04-26T08:34:44.999Z</time></trkpt><trkpt lat="45.09278302076118" lon="9.967071315727459"><ele>37.8</ele><time>2026-04-26T08:34:45.999Z</time></trkpt><trkpt lat="45.09282929440358" lon="9.96718809134146"><ele>37.599999999999994</ele><time>2026-04-26T08:34:46.999Z</time></trkpt><trkpt lat="45.092875187698716" lon="9.96730429172943"><ele>37.400000000000006</ele><time>2026-04-26T08:34:47.999Z</time></trkpt><trkpt lat="45.092919044094764" lon="9.967420603507069"><ele>37.2</ele><time>2026-04-26T08:34:48.999Z</time></trkpt><trkpt lat="45.09296346493454" lon="9.967534283746547"><ele>37.0</ele><time>2026-04-26T08:34:49.998Z</time></trkpt><trkpt lat="45.093008669871246" lon="9.96765078351816"><ele>36.6</ele><time>2026-04-26T08:34:50.998Z</time></trkpt><trkpt lat="45.093054811822775" lon="9.967762664964487"><ele>36.2</ele><time>2026-04-26T08:34:51.998Z</time></trkpt><trkpt lat="45.09309737701062" lon="9.967879713762377"><ele>35.8</ele><time>2026-04-26T08:34:52.998Z</time></trkpt><trkpt lat="45.09314068918438" lon="9.967992721246098"><ele>35.4</ele><time>2026-04-26T08:34:53.998Z</time></trkpt><trkpt lat="45.09318452801677" lon="9.96810683670098"><ele>35.0</ele><time>2026-04-26T08:34:54.998Z</time></trkpt><trkpt lat="45.093228297172026" lon="9.968218201290233"><ele>35.2</ele><time>2026-04-26T08:34:55.998Z</time></trkpt><trkpt lat="45.093272355768434" lon="9.968333123625758"><ele>35.4</ele><time>2026-04-26T08:34:56.998Z</time></trkpt><trkpt lat="45.093315448467116" lon="9.968448504655981"><ele>35.6</ele><time>2026-04-26T08:34:57.998Z</time></trkpt><trkpt lat="45.09335981311682" lon="9.968558365970273"><ele>35.8</ele><time>2026-04-26T08:34:58.998Z</time></trkpt><trkpt lat="45.09340380208952" lon="9.968670891554916"><ele>36.0</ele><time>2026-04-26T08:34:59.998Z</time></trkpt><trkpt lat="45.093446716973226" lon="9.968782409870727"><ele>36.2</ele><time>2026-04-26T08:35:00.998Z</time></trkpt><trkpt lat="45.09349171388588" lon="9.968898949389397"><ele>36.400000000000006</ele><time>2026-04-26T08:35:01.998Z</time></trkpt><trkpt lat="45.093533741081316" lon="9.969013056572459"><ele>36.6</ele><time>2026-04-26T08:35:02.998Z</time></trkpt><trkpt lat="45.09358125060088" lon="9.969128321662462"><ele>36.800000000000004</ele><time>2026-04-26T08:35:03.998Z</time></trkpt><trkpt lat="45.09362910663486" lon="9.969244877877967"><ele>37.0</ele><time>2026-04-26T08:35:04.998Z</time></trkpt><trkpt lat="45.09367537042154" lon="9.969361934011271"><ele>36.6</ele><time>2026-04-26T08:35:05.998Z</time></trkpt><trkpt lat="45.09371787676917" lon="9.969476876250319"><ele>36.2</ele><time>2026-04-26T08:35:06.998Z</time></trkpt><trkpt lat="45.0937619338972" lon="9.969592127839096"><ele>35.8</ele><time>2026-04-26T08:35:07.998Z</time></trkpt><trkpt lat="45.09380755889828" lon="9.9697068555113"><ele>35.4</ele><time>2026-04-26T08:35:08.998Z</time></trkpt><trkpt lat="45.09385077848461" lon="9.969821389549661"><ele>35.0</ele><time>2026-04-26T08:35:09.998Z</time></trkpt><trkpt lat="45.09389563959688" lon="9.969937356350446"><ele>35.0</ele><time>2026-04-26T08:35:10.998Z</time></trkpt><trkpt lat="45.09394057871817" lon="9.970052650323995"><ele>35.0</ele><time>2026-04-26T08:35:11.998Z</time></trkpt><trkpt lat="45.09398348427946" lon="9.970169481965677"><ele>35.0</ele><time>2026-04-26T08:35:12.998Z</time></trkpt><trkpt lat="45.094029016698265" lon="9.970286205666133"><ele>35.0</ele><time>2026-04-26T08:35:13.998Z</time></trkpt><trkpt lat="45.09407454552353" lon="9.970401488531097"><ele>35.0</ele><time>2026-04-26T08:35:14.998Z</time></trkpt><trkpt lat="45.09411893551309" lon="9.970514673503148"><ele>35.0</ele><time>2026-04-26T08:35:15.998Z</time></trkpt><trkpt lat="45.094161525751936" lon="9.970631131488075"><ele>35.0</ele><time>2026-04-26T08:35:16.998Z</time></trkpt><trkpt lat="45.09420597467133" lon="9.970744925362464"><ele>35.0</ele><time>2026-04-26T08:35:17.998Z</time></trkpt><trkpt lat="45.09424996345884" lon="9.970858763969082"><ele>35.0</ele><time>2026-04-26T08:35:18.998Z</time></trkpt><trkpt lat="45.09429382622764" lon="9.970971949555343"><ele>35.0</ele><time>2026-04-26T08:35:19.998Z</time></trkpt><trkpt lat="45.09433681050759" lon="9.971084201525274"><ele>35.0</ele><time>2026-04-26T08:35:20.998Z</time></trkpt><trkpt lat="45.09438310974396" lon="9.971195557024519"><ele>35.0</ele><time>2026-04-26T08:35:21.998Z</time></trkpt><trkpt lat="45.09442769568354" lon="9.97130607914044"><ele>35.0</ele><time>2026-04-26T08:35:22.998Z</time></trkpt><trkpt lat="45.09446981147344" lon="9.971417626238846"><ele>35.0</ele><time>2026-04-26T08:35:23.998Z</time></trkpt><trkpt lat="45.094515956204106" lon="9.971529396953496"><ele>35.0</ele><time>2026-04-26T08:35:24.998Z</time></trkpt><trkpt lat="45.09456174716395" lon="9.971639900953507"><ele>35.0</ele><time>2026-04-26T08:35:25.998Z</time></trkpt><trkpt lat="45.09460588961525" lon="9.971750864149143"><ele>35.0</ele><time>2026-04-26T08:35:26.998Z</time></trkpt><trkpt lat="45.09464993456648" lon="9.971863389240555"><ele>35.0</ele><time>2026-04-26T08:35:27.998Z</time></trkpt><trkpt lat="45.094693623083245" lon="9.971974086689245"><ele>35.0</ele><time>2026-04-26T08:35:28.998Z</time></trkpt><trkpt lat="45.09473922541608" lon="9.972086444126447"><ele>35.0</ele><time>2026-04-26T08:35:29.998Z</time></trkpt><trkpt lat="45.09478359986948" lon="9.972198887989922"><ele>35.0</ele><time>2026-04-26T08:35:30.998Z</time></trkpt><trkpt lat="45.09483003460085" lon="9.97230969456335"><ele>35.0</ele><time>2026-04-26T08:35:31.998Z</time></trkpt><trkpt lat="45.09487449770273" lon="9.972424317629137"><ele>35.0</ele><time>2026-04-26T08:35:32.998Z</time></trkpt><trkpt lat="45.09492048683692" lon="9.972537232782239"><ele>35.0</ele><time>2026-04-26T08:35:33.998Z</time></trkpt><trkpt lat="45.094966041295386" lon="9.972650586047173"><ele>35.0</ele><time>2026-04-26T08:35:34.998Z</time></trkpt><trkpt lat="45.095012943125624" lon="9.97276544116596"><ele>35.4</ele><time>2026-04-26T08:35:35.998Z</time></trkpt><trkpt lat="45.095057290949185" lon="9.972876810030316"><ele>35.8</ele><time>2026-04-26T08:35:36.998Z</time></trkpt><trkpt lat="45.09510040936108" lon="9.97298985120658"><ele>36.2</ele><time>2026-04-26T08:35:37.998Z</time></trkpt><trkpt lat="45.095139859272784" lon="9.973104839961113"><ele>36.6</ele><time>2026-04-26T08:35:39Z</time></trkpt><trkpt lat="45.09518045595744" lon="9.973223995473187"><ele>37.0</ele><time>2026-04-26T08:35:40Z</time></trkpt><trkpt lat="45.09522007171553" lon="9.973340880224413"><ele>37.2</ele><time>2026-04-26T08:35:41Z</time></trkpt><trkpt lat="45.09525943571991" lon="9.973456604279935"><ele>37.400000000000006</ele><time>2026-04-26T08:35:42Z</time></trkpt><trkpt lat="45.09530281107156" lon="9.973568656654164"><ele>37.599999999999994</ele><time>2026-04-26T08:35:43Z</time></trkpt><trkpt lat="45.09534917064535" lon="9.97368265688222"><ele>37.8</ele><time>2026-04-26T08:35:44Z</time></trkpt><trkpt lat="45.09539206631673" lon="9.97379678302229"><ele>38.0</ele><time>2026-04-26T08:35:45Z</time></trkpt><trkpt lat="45.095434390653374" lon="9.973909845133255"><ele>38.0</ele><time>2026-04-26T08:35:46Z</time></trkpt><trkpt lat="45.09548001026668" lon="9.974020239654793"><ele>38.0</ele><time>2026-04-26T08:35:47Z</time></trkpt><trkpt lat="45.09552353014285" lon="9.97412932847868"><ele>38.0</ele><time>2026-04-26T08:35:48Z</time></trkpt><trkpt lat="45.095567549214124" lon="9.974243320481163"><ele>38.0</ele><time>2026-04-26T08:35:49Z</time></trkpt><trkpt lat="45.09561084606424" lon="9.974351944129463"><ele>38.0</ele><time>2026-04-26T08:35:50Z</time></trkpt><trkpt lat="45.09565680972309" lon="9.974456435131046"><ele>38.0</ele><time>2026-04-26T08:35:51Z</time></trkpt><trkpt lat="45.09570519278145" lon="9.974567010890617"><ele>38.0</ele><time>2026-04-26T08:35:52Z</time></trkpt><trkpt lat="45.09575058870774" lon="9.974677134944802"><ele>38.0</ele><time>2026-04-26T08:35:53Z</time></trkpt><trkpt lat="45.09579669884061" lon="9.974788826839573"><ele>38.0</ele><time>2026-04-26T08:35:54Z</time></trkpt><trkpt lat="45.095840719699474" lon="9.974903499093676"><ele>38.0</ele><time>2026-04-26T08:35:55Z</time></trkpt><trkpt lat="45.09588819093132" lon="9.975014967547297"><ele>38.0</ele><time>2026-04-26T08:35:56Z</time></trkpt><trkpt lat="45.09593605610958" lon="9.975121242425692"><ele>38.0</ele><time>2026-04-26T08:35:57Z</time></trkpt><trkpt lat="45.09598619471325" lon="9.975229879275657"><ele>38.0</ele><time>2026-04-26T08:35:58Z</time></trkpt><trkpt lat="45.09603849215133" lon="9.975335686213342"><ele>38.0</ele><time>2026-04-26T08:35:58.999Z</time></trkpt><trkpt lat="45.09609140697999" lon="9.97544223758375"><ele>38.0</ele><time>2026-04-26T08:35:59.999Z</time></trkpt><trkpt lat="45.096147673929416" lon="9.975545156741456"><ele>38.0</ele><time>2026-04-26T08:36:00.999Z</time></trkpt><trkpt lat="45.09620400443146" lon="9.975648568445365"><ele>38.0</ele><time>2026-04-26T08:36:01.999Z</time></trkpt><trkpt lat="45.096263365522624" lon="9.975751180200032"><ele>38.0</ele><time>2026-04-26T08:36:02.999Z</time></trkpt><trkpt lat="45.09632629674772" lon="9.97585119573171"><ele>38.0</ele><time>2026-04-26T08:36:03.999Z</time></trkpt><trkpt lat="45.096391921427795" lon="9.975947812341422"><ele>38.0</ele><time>2026-04-26T08:36:04.999Z</time></trkpt><trkpt lat="45.09645556108237" lon="9.976044784315247"><ele>38.0</ele><time>2026-04-26T08:36:05.999Z</time></trkpt><trkpt lat="45.0965197115381" lon="9.976143364956254"><ele>38.0</ele><time>2026-04-26T08:36:06.999Z</time></trkpt><trkpt lat="45.096582119799855" lon="9.976240949123335"><ele>38.0</ele><time>2026-04-26T08:36:07.999Z</time></trkpt><trkpt lat="45.09664494477962" lon="9.976337351923998"><ele>38.0</ele><time>2026-04-26T08:36:08.999Z</time></trkpt><trkpt lat="45.09670977467072" lon="9.976433500313995"><ele>38.0</ele><time>2026-04-26T08:36:09.999Z</time></trkpt><trkpt lat="45.09677321005583" lon="9.976531760417432"><ele>38.0</ele><time>2026-04-26T08:36:10.999Z</time></trkpt><trkpt lat="45.09683307080557" lon="9.976629351451132"><ele>38.199999999999996</ele><time>2026-04-26T08:36:11.999Z</time></trkpt><trkpt lat="45.09689492761101" lon="9.976726067597436"><ele>38.4</ele><time>2026-04-26T08:36:12.999Z</time></trkpt><trkpt lat="45.09695808718159" lon="9.976820751616803"><ele>38.599999999999994</ele><time>2026-04-26T08:36:13.999Z</time></trkpt><trkpt lat="45.09702130727952" lon="9.9769136478184"><ele>38.8</ele><time>2026-04-26T08:36:14.999Z</time></trkpt><trkpt lat="45.09708276287391" lon="9.9770069000715"><ele>39.0</ele><time>2026-04-26T08:36:15.999Z</time></trkpt><trkpt lat="45.09714480688788" lon="9.977099737122424"><ele>39.0</ele><time>2026-04-26T08:36:16.999Z</time></trkpt><trkpt lat="45.09720644688176" lon="9.977192648334084"><ele>39.0</ele><time>2026-04-26T08:36:17.999Z</time></trkpt><trkpt lat="45.09726666807494" lon="9.977286348590653"><ele>39.0</ele><time>2026-04-26T08:36:18.999Z</time></trkpt><trkpt lat="45.09732838859921" lon="9.9773814269821"><ele>39.0</ele><time>2026-04-26T08:36:19.999Z</time></trkpt><trkpt lat="45.09739055469642" lon="9.977472357909123"><ele>39.0</ele><time>2026-04-26T08:36:20.999Z</time></trkpt><trkpt lat="45.09745663722922" lon="9.977557083978262"><ele>39.0</ele><time>2026-04-26T08:36:21.999Z</time></trkpt><trkpt lat="45.09751897124317" lon="9.977649861622261"><ele>38.6</ele><time>2026-04-26T08:36:22.999Z</time></trkpt><trkpt lat="45.09758013733934" lon="9.977746592538262"><ele>38.2</ele><time>2026-04-26T08:36:23.999Z</time></trkpt><trkpt lat="45.097642924781915" lon="9.977840943525518"><ele>37.800000000000004</ele><time>2026-04-26T08:36:24.999Z</time></trkpt><trkpt lat="45.09770577884277" lon="9.97793645661057"><ele>37.4</ele><time>2026-04-26T08:36:25.999Z</time></trkpt><trkpt lat="45.0977697235874" lon="9.978030544372203"><ele>37.0</ele><time>2026-04-26T08:36:26.999Z</time></trkpt><trkpt lat="45.097833231753604" lon="9.978125098129599"><ele>37.0</ele><time>2026-04-26T08:36:27.999Z</time></trkpt><trkpt lat="45.09789550348399" lon="9.978217534083385"><ele>37.0</ele><time>2026-04-26T08:36:28.999Z</time></trkpt><trkpt lat="45.09795900554644" lon="9.978304985592029"><ele>37.0</ele><time>2026-04-26T08:36:29.999Z</time></trkpt><trkpt lat="45.09802682587876" lon="9.97839396703372"><ele>37.0</ele><time>2026-04-26T08:36:30.999Z</time></trkpt><trkpt lat="45.09809137199135" lon="9.97847976141767"><ele>37.0</ele><time>2026-04-26T08:36:31.999Z</time></trkpt><trkpt lat="45.09815768142996" lon="9.978561022399724"><ele>37.0</ele><time>2026-04-26T08:36:32.999Z</time></trkpt><trkpt lat="45.09822489848061" lon="9.978646296371343"><ele>37.0</ele><time>2026-04-26T08:36:33.999Z</time></trkpt><trkpt lat="45.09829309768686" lon="9.97872408972016"><ele>37.0</ele><time>2026-04-26T08:36:34.999Z</time></trkpt><trkpt lat="45.098364174173284" lon="9.978801682390246"><ele>37.0</ele><time>2026-04-26T08:36:35.999Z</time></trkpt><trkpt lat="45.09843578482862" lon="9.978875679514148"><ele>37.0</ele><time>2026-04-26T08:36:36.999Z</time></trkpt><trkpt lat="45.09850916559867" lon="9.978944890099758"><ele>37.0</ele><time>2026-04-26T08:36:37.999Z</time></trkpt><trkpt lat="45.098583006118396" lon="9.979009242709914"><ele>37.0</ele><time>2026-04-26T08:36:38.999Z</time></trkpt><trkpt lat="45.09866088471857" lon="9.979067826029953"><ele>37.0</ele><time>2026-04-26T08:36:39.999Z</time></trkpt><trkpt lat="45.09873780931054" lon="9.979118772656912"><ele>37.0</ele><time>2026-04-26T08:36:40.999Z</time></trkpt><trkpt lat="45.0988168708655" lon="9.979173295039997"><ele>37.0</ele><time>2026-04-26T08:36:41.999Z</time></trkpt><trkpt lat="45.09889816784407" lon="9.979220050755393"><ele>37.0</ele><time>2026-04-26T08:36:42.999Z</time></trkpt><trkpt lat="45.09897762794864" lon="9.97926808249644"><ele>37.0</ele><time>2026-04-26T08:36:43.999Z</time></trkpt><trkpt lat="45.09905754789687" lon="9.9793134614627"><ele>37.0</ele><time>2026-04-26T08:36:44.999Z</time></trkpt><trkpt lat="45.09913895473458" lon="9.979354672583813"><ele>36.833333333333336</ele><time>2026-04-26T08:36:45.999Z</time></trkpt><trkpt lat="45.09922137649614" lon="9.979394038646143"><ele>36.66666666666667</ele><time>2026-04-26T08:36:46.999Z</time></trkpt><trkpt lat="45.09930220517353" lon="9.979432684191574"><ele>36.5</ele><time>2026-04-26T08:36:47.999Z</time></trkpt><trkpt lat="45.09938534960863" lon="9.979465945525712"><ele>36.333333333333336</ele><time>2026-04-26T08:36:48.999Z</time></trkpt><trkpt lat="45.09946789497728" lon="9.979502572809132"><ele>36.166666666666664</ele><time>2026-04-26T08:36:49.999Z</time></trkpt><trkpt lat="45.09955037903613" lon="9.97954176646917"><ele>36.0</ele><time>2026-04-26T08:36:50.999Z</time></trkpt><trkpt lat="45.09963320700183" lon="9.9795801425178"><ele>36.0</ele><time>2026-04-26T08:36:51.999Z</time></trkpt><trkpt lat="45.0997172289842" lon="9.97961975991895"><ele>36.0</ele><time>2026-04-26T08:36:52.998Z</time></trkpt><trkpt lat="45.09980196906395" lon="9.979655845555339"><ele>36.0</ele><time>2026-04-26T08:36:53.998Z</time></trkpt><trkpt lat="45.09988593476631" lon="9.979692193672223"><ele>36.0</ele><time>2026-04-26T08:36:54.998Z</time></trkpt><trkpt lat="45.09996888966428" lon="9.979729251132"><ele>36.0</ele><time>2026-04-26T08:36:55.998Z</time></trkpt><trkpt lat="45.10005173320099" lon="9.979765138750354"><ele>36.0</ele><time>2026-04-26T08:36:56.998Z</time></trkpt><trkpt lat="45.10013550542921" lon="9.979803715104588"><ele>36.0</ele><time>2026-04-26T08:36:57.998Z</time></trkpt><trkpt lat="45.10021753011565" lon="9.979838526613912"><ele>36.0</ele><time>2026-04-26T08:36:58.998Z</time></trkpt><trkpt lat="45.100303013684545" lon="9.979875557704855"><ele>36.0</ele><time>2026-04-26T08:36:59.998Z</time></trkpt><trkpt lat="45.10038412901308" lon="9.979912212988571"><ele>36.0</ele><time>2026-04-26T08:37:00.998Z</time></trkpt><trkpt lat="45.100467535143494" lon="9.979951604004274"><ele>36.0</ele><time>2026-04-26T08:37:01.998Z</time></trkpt><trkpt lat="45.10055268582634" lon="9.97998813168132"><ele>36.0</ele><time>2026-04-26T08:37:02.998Z</time></trkpt><trkpt lat="45.10063444654409" lon="9.980026120029434"><ele>36.333333333333336</ele><time>2026-04-26T08:37:03.998Z</time></trkpt><trkpt lat="45.10071685823711" lon="9.980065823778691"><ele>36.666666666666664</ele><time>2026-04-26T08:37:04.998Z</time></trkpt><trkpt lat="45.10079917584854" lon="9.98010097374068"><ele>37.0</ele><time>2026-04-26T08:37:05.998Z</time></trkpt><trkpt lat="45.100882747761794" lon="9.980135151730458"><ele>37.33333333333333</ele><time>2026-04-26T08:37:06.998Z</time></trkpt><trkpt lat="45.10096140187588" lon="9.980174144224039"><ele>37.666666666666664</ele><time>2026-04-26T08:37:07.998Z</time></trkpt><trkpt lat="45.10104291666565" lon="9.980211730491868"><ele>38.0</ele><time>2026-04-26T08:37:08.998Z</time></trkpt><trkpt lat="45.10112399545137" lon="9.98024618018649"><ele>38.166666666666664</ele><time>2026-04-26T08:37:09.998Z</time></trkpt><trkpt lat="45.10120430072133" lon="9.980285230846045"><ele>38.33333333333333</ele><time>2026-04-26T08:37:10.998Z</time></trkpt><trkpt lat="45.10128535166661" lon="9.980320314249981"><ele>38.5</ele><time>2026-04-26T08:37:11.998Z</time></trkpt><trkpt lat="45.10136663010362" lon="9.980360677497181"><ele>38.666666666666664</ele><time>2026-04-26T08:37:12.998Z</time></trkpt><trkpt lat="45.101446857151736" lon="9.980397216198106"><ele>38.833333333333336</ele><time>2026-04-26T08:37:13.998Z</time></trkpt><trkpt lat="45.10152582996401" lon="9.98043474353193"><ele>39.0</ele><time>2026-04-26T08:37:14.998Z</time></trkpt><trkpt lat="45.10160732962094" lon="9.980472894907646"><ele>39.0</ele><time>2026-04-26T08:37:15.998Z</time></trkpt><trkpt lat="45.10168567170298" lon="9.980509363047878"><ele>39.0</ele><time>2026-04-26T08:37:16.998Z</time></trkpt><trkpt lat="45.101764255471984" lon="9.980547498671932"><ele>39.0</ele><time>2026-04-26T08:37:17.998Z</time></trkpt><trkpt lat="45.10184262469934" lon="9.98059100352273"><ele>39.0</ele><time>2026-04-26T08:37:18.998Z</time></trkpt><trkpt lat="45.1019222972397" lon="9.980635763501004"><ele>39.0</ele><time>2026-04-26T08:37:19.998Z</time></trkpt><trkpt lat="45.10199851288572" lon="9.980683213336107"><ele>39.0</ele><time>2026-04-26T08:37:20.998Z</time></trkpt><trkpt lat="45.102074200230554" lon="9.98073694469258"><ele>39.0</ele><time>2026-04-26T08:37:21.998Z</time></trkpt><trkpt lat="45.102149525877365" lon="9.98078898671463"><ele>39.0</ele><time>2026-04-26T08:37:22.998Z</time></trkpt><trkpt lat="45.102224017180845" lon="9.980849133577438"><ele>39.0</ele><time>2026-04-26T08:37:23.998Z</time></trkpt><trkpt lat="45.10229908686075" lon="9.98090666928284"><ele>39.0</ele><time>2026-04-26T08:37:24.998Z</time></trkpt><trkpt lat="45.10236996889772" lon="9.980974904158446"><ele>39.0</ele><time>2026-04-26T08:37:25.998Z</time></trkpt><trkpt lat="45.10244014517605" lon="9.981046246340075"><ele>39.0</ele><time>2026-04-26T08:37:26.998Z</time></trkpt><trkpt lat="45.102506001147304" lon="9.98112119361168"><ele>39.166666666666664</ele><time>2026-04-26T08:37:27.998Z</time></trkpt><trkpt lat="45.102572502375345" lon="9.981200550093623"><ele>39.333333333333336</ele><time>2026-04-26T08:37:28.998Z</time></trkpt><trkpt lat="45.102639401483586" lon="9.981279164306148"><ele>39.5</ele><time>2026-04-26T08:37:29.998Z</time></trkpt><trkpt lat="45.10270308152653" lon="9.98136170063307"><ele>39.66666666666667</ele><time>2026-04-26T08:37:30.998Z</time></trkpt><trkpt lat="45.102765409682405" lon="9.981446628297935"><ele>39.833333333333336</ele><time>2026-04-26T08:37:31.998Z</time></trkpt><trkpt lat="45.102824127216" lon="9.981537534935896"><ele>40.0</ele><time>2026-04-26T08:37:32.998Z</time></trkpt><trkpt lat="45.102881629061116" lon="9.981627989824963"><ele>39.833333333333336</ele><time>2026-04-26T08:37:33.998Z</time></trkpt><trkpt lat="45.10293764064626" lon="9.981718834113641"><ele>39.66666666666667</ele><time>2026-04-26T08:37:34.998Z</time></trkpt><trkpt lat="45.1029898503795" lon="9.981815137645226"><ele>39.5</ele><time>2026-04-26T08:37:35.998Z</time></trkpt><trkpt lat="45.10304167832737" lon="9.981914924930624"><ele>39.333333333333336</ele><time>2026-04-26T08:37:36.998Z</time></trkpt><trkpt lat="45.103088298658804" lon="9.982014884797298"><ele>39.166666666666664</ele><time>2026-04-26T08:37:37.998Z</time></trkpt><trkpt lat="45.10313490814685" lon="9.982117455526721"><ele>39.0</ele><time>2026-04-26T08:37:38.998Z</time></trkpt><trkpt lat="45.10318061111513" lon="9.98222434530742"><ele>39.0</ele><time>2026-04-26T08:37:39.998Z</time></trkpt><trkpt lat="45.10322476366251" lon="9.982330463266594"><ele>39.0</ele><time>2026-04-26T08:37:40.998Z</time></trkpt><trkpt lat="45.103266495274106" lon="9.982437867798032"><ele>39.0</ele><time>2026-04-26T08:37:41.998Z</time></trkpt><trkpt lat="45.10330672152591" lon="9.982540581786822"><ele>39.0</ele><time>2026-04-26T08:37:42.998Z</time></trkpt><trkpt lat="45.103345321750545" lon="9.982640926487896"><ele>39.0</ele><time>2026-04-26T08:37:43.998Z</time></trkpt><trkpt lat="45.103384751636156" lon="9.982741776372746"><ele>39.0</ele><time>2026-04-26T08:37:45Z</time></trkpt><trkpt lat="45.10342624953828" lon="9.982838211897649"><ele>39.0</ele><time>2026-04-26T08:37:46Z</time></trkpt><trkpt lat="45.10346826544132" lon="9.982935688416903"><ele>39.0</ele><time>2026-04-26T08:37:47Z</time></trkpt><trkpt lat="45.10350696161907" lon="9.98303528406517"><ele>39.0</ele><time>2026-04-26T08:37:48Z</time></trkpt><trkpt lat="45.103547049484796" lon="9.98313289927574"><ele>39.0</ele><time>2026-04-26T08:37:49Z</time></trkpt><trkpt lat="45.10358792081031" lon="9.983229307476703"><ele>39.0</ele><time>2026-04-26T08:37:50Z</time></trkpt><trkpt lat="45.103627857213986" lon="9.983330560000555"><ele>39.0</ele><time>2026-04-26T08:37:51Z</time></trkpt><trkpt lat="45.1036694921693" lon="9.983431851750135"><ele>39.0</ele><time>2026-04-26T08:37:52Z</time></trkpt><trkpt lat="45.10371019539091" lon="9.983534353057028"><ele>39.0</ele><time>2026-04-26T08:37:53Z</time></trkpt><trkpt lat="45.10375246436829" lon="9.98363532291425"><ele>39.0</ele><time>2026-04-26T08:37:54Z</time></trkpt><trkpt lat="45.10379395485518" lon="9.983736803599294"><ele>39.0</ele><time>2026-04-26T08:37:55Z</time></trkpt><trkpt lat="45.103834371688194" lon="9.983841726932"><ele>39.0</ele><time>2026-04-26T08:37:56Z</time></trkpt><trkpt lat="45.10387510560472" lon="9.983941673574648"><ele>39.0</ele><time>2026-04-26T08:37:57Z</time></trkpt><trkpt lat="45.10391696509735" lon="9.9840427060445"><ele>39.0</ele><time>2026-04-26T08:37:58Z</time></trkpt><trkpt lat="45.10395819703489" lon="9.984143677839494"><ele>39.0</ele><time>2026-04-26T08:37:59Z</time></trkpt><trkpt lat="45.10399929152371" lon="9.984246187013186"><ele>39.0</ele><time>2026-04-26T08:38:00Z</time></trkpt><trkpt lat="45.10404072694865" lon="9.984345481638893"><ele>39.0</ele><time>2026-04-26T08:38:01Z</time></trkpt><trkpt lat="45.10408326740417" lon="9.984448198817278"><ele>39.0</ele><time>2026-04-26T08:38:02Z</time></trkpt><trkpt lat="45.104126099823596" lon="9.984551578690438"><ele>39.0</ele><time>2026-04-26T08:38:02.999Z</time></trkpt><trkpt lat="45.1041695876258" lon="9.984658912299754"><ele>38.666666666666664</ele><time>2026-04-26T08:38:03.999Z</time></trkpt><trkpt lat="45.1042136798822" lon="9.984765840726997"><ele>38.333333333333336</ele><time>2026-04-26T08:38:04.999Z</time></trkpt><trkpt lat="45.10425927469455" lon="9.984871385110718"><ele>38.0</ele><time>2026-04-26T08:38:05.999Z</time></trkpt><trkpt lat="45.10430313974015" lon="9.98497885838685"><ele>37.66666666666667</ele><time>2026-04-26T08:38:06.999Z</time></trkpt><trkpt lat="45.1043467989766" lon="9.985086610805956"><ele>37.333333333333336</ele><time>2026-04-26T08:38:07.999Z</time></trkpt><trkpt lat="45.104390949132565" lon="9.98519582711291"><ele>37.0</ele><time>2026-04-26T08:38:08.999Z</time></trkpt><trkpt lat="45.10443503897383" lon="9.985304670783188"><ele>37.0</ele><time>2026-04-26T08:38:09.999Z</time></trkpt><trkpt lat="45.10447917803268" lon="9.985414200240243"><ele>37.0</ele><time>2026-04-26T08:38:10.999Z</time></trkpt><trkpt lat="45.104522381296704" lon="9.985523673729208"><ele>37.0</ele><time>2026-04-26T08:38:11.999Z</time></trkpt><trkpt lat="45.104567298310535" lon="9.985633438310883"><ele>37.0</ele><time>2026-04-26T08:38:12.999Z</time></trkpt><trkpt lat="45.104611467788466" lon="9.985742183932217"><ele>37.0</ele><time>2026-04-26T08:38:13.999Z</time></trkpt><trkpt lat="45.10465459732411" lon="9.985851880949252"><ele>37.0</ele><time>2026-04-26T08:38:14.999Z</time></trkpt><trkpt lat="45.10469697557627" lon="9.98596064872108"><ele>37.16666666666667</ele><time>2026-04-26T08:38:15.999Z</time></trkpt><trkpt lat="45.10473868053228" lon="9.986068987213413"><ele>37.333333333333336</ele><time>2026-04-26T08:38:16.999Z</time></trkpt><trkpt lat="45.104783728366755" lon="9.986174361453553"><ele>37.5</ele><time>2026-04-26T08:38:17.999Z</time></trkpt><trkpt lat="45.104826426546914" lon="9.986281441336581"><ele>37.666666666666664</ele><time>2026-04-26T08:38:18.999Z</time></trkpt><trkpt lat="45.10487173323364" lon="9.986389664752165"><ele>37.83333333333333</ele><time>2026-04-26T08:38:19.999Z</time></trkpt><trkpt lat="45.104915162810144" lon="9.986495171933921"><ele>38.0</ele><time>2026-04-26T08:38:20.999Z</time></trkpt><trkpt lat="45.10495758404777" lon="9.986605628254075"><ele>38.0</ele><time>2026-04-26T08:38:21.999Z</time></trkpt><trkpt lat="45.10500589004486" lon="9.98671415355235"><ele>38.0</ele><time>2026-04-26T08:38:22.999Z</time></trkpt><trkpt lat="45.1050579828995" lon="9.98681625017223"><ele>38.0</ele><time>2026-04-26T08:38:23.999Z</time></trkpt><trkpt lat="45.105112395454285" lon="9.986918250301919"><ele>38.0</ele><time>2026-04-26T08:38:24.999Z</time></trkpt><trkpt lat="45.10517097775205" lon="9.987014645392685"><ele>38.0</ele><time>2026-04-26T08:38:25.999Z</time></trkpt><trkpt lat="45.1052366000032" lon="9.987100331172178"><ele>38.0</ele><time>2026-04-26T08:38:26.999Z</time></trkpt><trkpt lat="45.10530671607126" lon="9.987179457936383"><ele>38.0</ele><time>2026-04-26T08:38:27.999Z</time></trkpt><trkpt lat="45.10537984330747" lon="9.987254266951465"><ele>38.0</ele><time>2026-04-26T08:38:28.999Z</time></trkpt><trkpt lat="45.10545171164135" lon="9.987334988846094"><ele>38.0</ele><time>2026-04-26T08:38:29.999Z</time></trkpt><trkpt lat="45.10552228723789" lon="9.987412835635112"><ele>38.0</ele><time>2026-04-26T08:38:30.999Z</time></trkpt><trkpt lat="45.10559627591657" lon="9.987494225050174"><ele>38.0</ele><time>2026-04-26T08:38:31.999Z</time></trkpt><trkpt lat="45.105668157843134" lon="9.987579014014136"><ele>38.0</ele><time>2026-04-26T08:38:32.999Z</time></trkpt><trkpt lat="45.10574183448748" lon="9.987666153677548"><ele>38.0</ele><time>2026-04-26T08:38:33.999Z</time></trkpt><trkpt lat="45.105813926102115" lon="9.987750612258786"><ele>38.0</ele><time>2026-04-26T08:38:34.999Z</time></trkpt><trkpt lat="45.10588840986405" lon="9.987831854690628"><ele>38.0</ele><time>2026-04-26T08:38:35.999Z</time></trkpt><trkpt lat="45.105958205661054" lon="9.987910643997148"><ele>38.0</ele><time>2026-04-26T08:38:36.999Z</time></trkpt><trkpt lat="45.106028199726026" lon="9.987988807149371"><ele>38.199999999999996</ele><time>2026-04-26T08:38:37.999Z</time></trkpt><trkpt lat="45.106098423979084" lon="9.988064890873757"><ele>38.4</ele><time>2026-04-26T08:38:38.999Z</time></trkpt><trkpt lat="45.106167708816756" lon="9.988144075909517"><ele>38.599999999999994</ele><time>2026-04-26T08:38:39.999Z</time></trkpt><trkpt lat="45.10623997772453" lon="9.988221549804672"><ele>38.8</ele><time>2026-04-26T08:38:40.999Z</time></trkpt><trkpt lat="45.10631095091948" lon="9.988300227696566"><ele>39.0</ele><time>2026-04-26T08:38:41.999Z</time></trkpt><trkpt lat="45.10638317157237" lon="9.9883799374053"><ele>39.0</ele><time>2026-04-26T08:38:42.999Z</time></trkpt><trkpt lat="45.10645516315521" lon="9.988457690426669"><ele>39.0</ele><time>2026-04-26T08:38:43.999Z</time></trkpt><trkpt lat="45.106528642570446" lon="9.988536083174289"><ele>39.0</ele><time>2026-04-26T08:38:44.999Z</time></trkpt><trkpt lat="45.10660177926594" lon="9.988615421130909"><ele>39.0</ele><time>2026-04-26T08:38:45.999Z</time></trkpt><trkpt lat="45.106674659814466" lon="9.988693417606425"><ele>39.0</ele><time>2026-04-26T08:38:46.999Z</time></trkpt><trkpt lat="45.106746876962525" lon="9.988767691501097"><ele>39.4</ele><time>2026-04-26T08:38:47.999Z</time></trkpt><trkpt lat="45.10682003288326" lon="9.988843252215522"><ele>39.8</ele><time>2026-04-26T08:38:48.999Z</time></trkpt><trkpt lat="45.10689165573996" lon="9.988919844314943"><ele>40.199999999999996</ele><time>2026-04-26T08:38:49.999Z</time></trkpt><trkpt lat="45.106962255674475" lon="9.989006676828424"><ele>40.599999999999994</ele><time>2026-04-26T08:38:50.999Z</time></trkpt><trkpt lat="45.10703728286868" lon="9.989080899665458"><ele>41.0</ele><time>2026-04-26T08:38:51.999Z</time></trkpt><trkpt lat="45.107103710668504" lon="9.98916527083422"><ele>40.8</ele><time>2026-04-26T08:38:52.999Z</time></trkpt><trkpt lat="45.10717480474783" lon="9.989247240989997"><ele>40.599999999999994</ele><time>2026-04-26T08:38:53.999Z</time></trkpt><trkpt lat="45.107246742809366" lon="9.98932645125722"><ele>40.4</ele><time>2026-04-26T08:38:54.999Z</time></trkpt><trkpt lat="45.10732268641219" lon="9.989403200316325"><ele>40.2</ele><time>2026-04-26T08:38:55.999Z</time></trkpt><trkpt lat="45.10739691015437" lon="9.989482112858825"><ele>40.0</ele><time>2026-04-26T08:38:56.999Z</time></trkpt><trkpt lat="45.107465666237196" lon="9.989565578836498"><ele>39.833333333333336</ele><time>2026-04-26T08:38:57.998Z</time></trkpt><trkpt lat="45.10753276352316" lon="9.989650090073535"><ele>39.66666666666667</ele><time>2026-04-26T08:38:58.998Z</time></trkpt><trkpt lat="45.1076028081484" lon="9.989733268496499"><ele>39.5</ele><time>2026-04-26T08:38:59.998Z</time></trkpt><trkpt lat="45.107670429746804" lon="9.989809629059938"><ele>39.333333333333336</ele><time>2026-04-26T08:39:00.998Z</time></trkpt><trkpt lat="45.10774146971636" lon="9.989893637124945"><ele>39.166666666666664</ele><time>2026-04-26T08:39:01.998Z</time></trkpt><trkpt lat="45.107808554644194" lon="9.989972455886926"><ele>39.0</ele><time>2026-04-26T08:39:02.998Z</time></trkpt><trkpt lat="45.10787398440281" lon="9.99004724421797"><ele>39.0</ele><time>2026-04-26T08:39:03.998Z</time></trkpt><trkpt lat="45.10794024766402" lon="9.990130033798144"><ele>39.0</ele><time>2026-04-26T08:39:04.998Z</time></trkpt><trkpt lat="45.108008745454455" lon="9.990205061971288"><ele>39.0</ele><time>2026-04-26T08:39:05.998Z</time></trkpt><trkpt lat="45.108089005300315" lon="9.990266870276029"><ele>39.0</ele><time>2026-04-26T08:39:06.998Z</time></trkpt><trkpt lat="45.10815445055231" lon="9.990346793818707"><ele>39.0</ele><time>2026-04-26T08:39:07.998Z</time></trkpt><trkpt lat="45.108220988655724" lon="9.990427670850199"><ele>39.0</ele><time>2026-04-26T08:39:08.998Z</time></trkpt><trkpt lat="45.108289094473086" lon="9.990506125764574"><ele>39.0</ele><time>2026-04-26T08:39:09.998Z</time></trkpt><trkpt lat="45.108359170353914" lon="9.990584930395919"><ele>39.0</ele><time>2026-04-26T08:39:10.998Z</time></trkpt><trkpt lat="45.10842823424871" lon="9.990659638842569"><ele>39.0</ele><time>2026-04-26T08:39:11.998Z</time></trkpt><trkpt lat="45.10849414958855" lon="9.990737635159478"><ele>39.0</ele><time>2026-04-26T08:39:12.998Z</time></trkpt><trkpt lat="45.10855791630511" lon="9.990818975913246"><ele>39.0</ele><time>2026-04-26T08:39:13.998Z</time></trkpt><trkpt lat="45.108625975594514" lon="9.990898203902066"><ele>39.0</ele><time>2026-04-26T08:39:14.998Z</time></trkpt><trkpt lat="45.10869481749726" lon="9.990982822387728"><ele>39.0</ele><time>2026-04-26T08:39:15.998Z</time></trkpt><trkpt lat="45.108764015864026" lon="9.991061147347908"><ele>39.0</ele><time>2026-04-26T08:39:16.998Z</time></trkpt><trkpt lat="45.10883011289541" lon="9.991142134146338"><ele>39.0</ele><time>2026-04-26T08:39:17.998Z</time></trkpt><trkpt lat="45.108897133131194" lon="9.991222827529018"><ele>39.0</ele><time>2026-04-26T08:39:18.998Z</time></trkpt><trkpt lat="45.10896683403933" lon="9.99130466552607"><ele>39.0</ele><time>2026-04-26T08:39:19.998Z</time></trkpt><trkpt lat="45.10903644106409" lon="9.991384307460944"><ele>39.0</ele><time>2026-04-26T08:39:20.998Z</time></trkpt><trkpt lat="45.109103592189" lon="9.991464118262824"><ele>39.0</ele><time>2026-04-26T08:39:21.998Z</time></trkpt><trkpt lat="45.10916914624281" lon="9.991539648182611"><ele>39.0</ele><time>2026-04-26T08:39:22.998Z</time></trkpt><trkpt lat="45.109234335650385" lon="9.99161735836246"><ele>39.0</ele><time>2026-04-26T08:39:23.998Z</time></trkpt><trkpt lat="45.10929936826937" lon="9.991692883210902"><ele>39.0</ele><time>2026-04-26T08:39:24.998Z</time></trkpt><trkpt lat="45.10936391717958" lon="9.991771580134102"><ele>39.0</ele><time>2026-04-26T08:39:25.998Z</time></trkpt><trkpt lat="45.109425996874435" lon="9.991843195371766"><ele>39.0</ele><time>2026-04-26T08:39:26.998Z</time></trkpt><trkpt lat="45.10949205955567" lon="9.991915198890954"><ele>38.5</ele><time>2026-04-26T08:39:27.998Z</time></trkpt><trkpt lat="45.109555277151664" lon="9.991985738343631"><ele>38.0</ele><time>2026-04-26T08:39:28.998Z</time></trkpt><trkpt lat="45.10961817197731" lon="9.992059704005639"><ele>37.5</ele><time>2026-04-26T08:39:29.998Z</time></trkpt><trkpt lat="45.109682036093005" lon="9.992134383433264"><ele>37.0</ele><time>2026-04-26T08:39:30.998Z</time></trkpt><trkpt lat="45.109751179317" lon="9.992209150100509"><ele>36.5</ele><time>2026-04-26T08:39:31.998Z</time></trkpt><trkpt lat="45.10981957808397" lon="9.992286385749907"><ele>36.0</ele><time>2026-04-26T08:39:32.998Z</time></trkpt><trkpt lat="45.10989040375075" lon="9.992366368206003"><ele>36.2</ele><time>2026-04-26T08:39:33.998Z</time></trkpt><trkpt lat="45.10996258571819" lon="9.992448672296558"><ele>36.400000000000006</ele><time>2026-04-26T08:39:34.998Z</time></trkpt><trkpt lat="45.11003410393482" lon="9.992528223794181"><ele>36.6</ele><time>2026-04-26T08:39:35.998Z</time></trkpt><trkpt lat="45.11010607786106" lon="9.992607951260203"><ele>36.800000000000004</ele><time>2026-04-26T08:39:36.998Z</time></trkpt><trkpt lat="45.11017863023907" lon="9.992685964530885"><ele>37.0</ele><time>2026-04-26T08:39:37.998Z</time></trkpt><trkpt lat="45.11024949493543" lon="9.992762930908745"><ele>37.0</ele><time>2026-04-26T08:39:38.998Z</time></trkpt><trkpt lat="45.11031900234329" lon="9.992844207016"><ele>37.0</ele><time>2026-04-26T08:39:39.998Z</time></trkpt><trkpt lat="45.110389898467275" lon="9.992929234457572"><ele>37.0</ele><time>2026-04-26T08:39:40.998Z</time></trkpt><trkpt lat="45.11046564667209" lon="9.993011321085177"><ele>37.0</ele><time>2026-04-26T08:39:41.998Z</time></trkpt><trkpt lat="45.11054207338893" lon="9.993092784555527"><ele>37.0</ele><time>2026-04-26T08:39:42.998Z</time></trkpt><trkpt lat="45.11061855225323" lon="9.993174385994388"><ele>37.0</ele><time>2026-04-26T08:39:43.998Z</time></trkpt><trkpt lat="45.11069436021295" lon="9.993256092470354"><ele>37.0</ele><time>2026-04-26T08:39:44.998Z</time></trkpt><trkpt lat="45.11076703507983" lon="9.99334131044684"><ele>37.0</ele><time>2026-04-26T08:39:45.998Z</time></trkpt><trkpt lat="45.11084006905044" lon="9.993425316504545"><ele>37.0</ele><time>2026-04-26T08:39:46.998Z</time></trkpt><trkpt lat="45.11091180258759" lon="9.993505751927113"><ele>37.0</ele><time>2026-04-26T08:39:47.998Z</time></trkpt><trkpt lat="45.11098593318438" lon="9.99358724301519"><ele>37.0</ele><time>2026-04-26T08:39:48.998Z</time></trkpt><trkpt lat="45.11106085650133" lon="9.993667789110082"><ele>37.0</ele><time>2026-04-26T08:39:49.998Z</time></trkpt><trkpt lat="45.11113604523187" lon="9.993745687855204"><ele>37.0</ele><time>2026-04-26T08:39:51Z</time></trkpt><trkpt lat="45.1112060575074" lon="9.993822463621495"><ele>37.0</ele><time>2026-04-26T08:39:52Z</time></trkpt><trkpt lat="45.11127688101554" lon="9.993898421621125"><ele>37.0</ele><time>2026-04-26T08:39:53Z</time></trkpt><trkpt lat="45.11134111072591" lon="9.993966878032776"><ele>37.0</ele><time>2026-04-26T08:39:54Z</time></trkpt><trkpt lat="45.11140241857124" lon="9.994034518352365"><ele>37.0</ele><time>2026-04-26T08:39:55Z</time></trkpt><trkpt lat="45.11146375735526" lon="9.994098787121754"><ele>37.0</ele><time>2026-04-26T08:39:56Z</time></trkpt><trkpt lat="45.1115243808412" lon="9.99416592015466"><ele>37.0</ele><time>2026-04-26T08:39:57Z</time></trkpt><trkpt lat="45.11158572477172" lon="9.994232983212825"><ele>37.0</ele><time>2026-04-26T08:39:58Z</time></trkpt><trkpt lat="45.111645862492715" lon="9.994300063335492"><ele>37.0</ele><time>2026-04-26T08:39:59Z</time></trkpt><trkpt lat="45.11170981336835" lon="9.99436563910767"><ele>37.0</ele><time>2026-04-26T08:40:00Z</time></trkpt><trkpt lat="45.11177402979906" lon="9.994439486615734"><ele>37.333333333333336</ele><time>2026-04-26T08:40:01Z</time></trkpt><trkpt lat="45.11184504886818" lon="9.994509015058958"><ele>37.66666666666667</ele><time>2026-04-26T08:40:02Z</time></trkpt><trkpt lat="45.11191899746208" lon="9.994570796221554"><ele>38.0</ele><time>2026-04-26T08:40:03Z</time></trkpt><trkpt lat="45.111996352327765" lon="9.99463297165213"><ele>38.333333333333336</ele><time>2026-04-26T08:40:04Z</time></trkpt><trkpt lat="45.1120750507151" lon="9.994684503826798"><ele>38.666666666666664</ele><time>2026-04-26T08:40:05Z</time></trkpt><trkpt lat="45.112157560558174" lon="9.994719407313452"><ele>39.0</ele><time>2026-04-26T08:40:05.999Z</time></trkpt><trkpt lat="45.11224652447953" lon="9.994736624555443"><ele>39.0</ele><time>2026-04-26T08:40:06.999Z</time></trkpt><trkpt lat="45.11233160400236" lon="9.99474749624912"><ele>39.0</ele><time>2026-04-26T08:40:07.999Z</time></trkpt><trkpt lat="45.112417548762764" lon="9.994742392815937"><ele>39.0</ele><time>2026-04-26T08:40:08.999Z</time></trkpt><trkpt lat="45.112502344065476" lon="9.994720090821719"><ele>39.0</ele><time>2026-04-26T08:40:09.999Z</time></trkpt><trkpt lat="45.11258735972123" lon="9.994689570410682"><ele>39.0</ele><time>2026-04-26T08:40:10.999Z</time></trkpt><trkpt lat="45.11267150731089" lon="9.994643464717505"><ele>39.0</ele><time>2026-04-26T08:40:11.999Z</time></trkpt><trkpt lat="45.11275114735409" lon="9.99458906367218"><ele>39.166666666666664</ele><time>2026-04-26T08:40:12.999Z</time></trkpt><trkpt lat="45.11282997476557" lon="9.994535213480573"><ele>39.333333333333336</ele><time>2026-04-26T08:40:13.999Z</time></trkpt><trkpt lat="45.112909719201475" lon="9.994485911017753"><ele>39.5</ele><time>2026-04-26T08:40:14.999Z</time></trkpt><trkpt lat="45.1129907967168" lon="9.99443560071036"><ele>39.66666666666667</ele><time>2026-04-26T08:40:15.999Z</time></trkpt><trkpt lat="45.113073837385876" lon="9.99438568235372"><ele>39.833333333333336</ele><time>2026-04-26T08:40:16.999Z</time></trkpt><trkpt lat="45.11315558869227" lon="9.994335025730173"><ele>40.0</ele><time>2026-04-26T08:40:17.999Z</time></trkpt><trkpt lat="45.11324055429858" lon="9.994288543561545"><ele>40.0</ele><time>2026-04-26T08:40:18.999Z</time></trkpt><trkpt lat="45.113325517386315" lon="9.99424265671017"><ele>40.0</ele><time>2026-04-26T08:40:19.999Z</time></trkpt><trkpt lat="45.113406722865534" lon="9.99418756128003"><ele>40.0</ele><time>2026-04-26T08:40:20.999Z</time></trkpt><trkpt lat="45.113486363881876" lon="9.994135175738823"><ele>40.0</ele><time>2026-04-26T08:40:21.999Z</time></trkpt><trkpt lat="45.11356618000584" lon="9.994079576531703"><ele>40.0</ele><time>2026-04-26T08:40:22.999Z</time></trkpt><trkpt lat="45.113645696059386" lon="9.994029718381132"><ele>40.0</ele><time>2026-04-26T08:40:23.999Z</time></trkpt><trkpt lat="45.11372731706413" lon="9.99397952793786"><ele>39.833333333333336</ele><time>2026-04-26T08:40:24.999Z</time></trkpt><trkpt lat="45.11380452884446" lon="9.99392785277142"><ele>39.66666666666667</ele><time>2026-04-26T08:40:25.999Z</time></trkpt><trkpt lat="45.11387941463937" lon="9.993877916747692"><ele>39.5</ele><time>2026-04-26T08:40:26.999Z</time></trkpt><trkpt lat="45.11395156429769" lon="9.993834927806438"><ele>39.333333333333336</ele><time>2026-04-26T08:40:27.999Z</time></trkpt><trkpt lat="45.11401997282834" lon="9.993796154867615"><ele>39.166666666666664</ele><time>2026-04-26T08:40:28.999Z</time></trkpt><trkpt lat="45.11408774917062" lon="9.993756111486107"><ele>39.0</ele><time>2026-04-26T08:40:29.999Z</time></trkpt><trkpt lat="45.114152928131205" lon="9.993717319146135"><ele>39.0</ele><time>2026-04-26T08:40:30.999Z</time></trkpt><trkpt lat="45.114217987709154" lon="9.993677420562781"><ele>39.0</ele><time>2026-04-26T08:40:31.999Z</time></trkpt><trkpt lat="45.11427961712456" lon="9.99363850568297"><ele>39.0</ele><time>2026-04-26T08:40:32.999Z</time></trkpt><trkpt lat="45.114341519263505" lon="9.993601737123969"><ele>39.0</ele><time>2026-04-26T08:40:33.999Z</time></trkpt><trkpt lat="45.11440719869641" lon="9.9935661925908"><ele>39.0</ele><time>2026-04-26T08:40:34.999Z</time></trkpt><trkpt lat="45.1144770760382" lon="9.993530443435048"><ele>39.0</ele><time>2026-04-26T08:40:35.999Z</time></trkpt><trkpt lat="45.11454804116622" lon="9.993495733545169"><ele>39.0</ele><time>2026-04-26T08:40:36.999Z</time></trkpt><trkpt lat="45.11461900430143" lon="9.993457084995232"><ele>39.0</ele><time>2026-04-26T08:40:37.999Z</time></trkpt><trkpt lat="45.11469063670101" lon="9.993414935999978"><ele>39.0</ele><time>2026-04-26T08:40:38.999Z</time></trkpt><trkpt lat="45.11475935943553" lon="9.993368620703233"><ele>39.0</ele><time>2026-04-26T08:40:39.999Z</time></trkpt><trkpt lat="45.1148334857838" lon="9.9933274058994"><ele>39.0</ele><time>2026-04-26T08:40:40.999Z</time></trkpt><trkpt lat="45.11490910833648" lon="9.993288240540963"><ele>39.0</ele><time>2026-04-26T08:40:41.999Z</time></trkpt><trkpt lat="45.1149851823535" lon="9.993243664242787"><ele>39.0</ele><time>2026-04-26T08:40:42.999Z</time></trkpt><trkpt lat="45.11506054702837" lon="9.993200721141676"><ele>39.166666666666664</ele><time>2026-04-26T08:40:43.999Z</time></trkpt><trkpt lat="45.1151328659922" lon="9.993156574775444"><ele>39.333333333333336</ele><time>2026-04-26T08:40:44.999Z</time></trkpt><trkpt lat="45.1152099239648" lon="9.993108021342879"><ele>39.5</ele><time>2026-04-26T08:40:45.999Z</time></trkpt><trkpt lat="45.11528618755962" lon="9.993057270002"><ele>39.66666666666667</ele><time>2026-04-26T08:40:46.999Z</time></trkpt><trkpt lat="45.11536902258864" lon="9.993010136873467"><ele>39.833333333333336</ele><time>2026-04-26T08:40:47.999Z</time></trkpt><trkpt lat="45.115449524577244" lon="9.992959713277772"><ele>40.0</ele><time>2026-04-26T08:40:48.999Z</time></trkpt><trkpt lat="45.11552584836722" lon="9.992916877362807"><ele>40.0</ele><time>2026-04-26T08:40:49.999Z</time></trkpt><trkpt lat="45.11560614905997" lon="9.992868988311214"><ele>40.0</ele><time>2026-04-26T08:40:50.999Z</time></trkpt><trkpt lat="45.115685107592334" lon="9.992818120441534"><ele>40.0</ele><time>2026-04-26T08:40:51.999Z</time></trkpt><trkpt lat="45.115763980129856" lon="9.992770135472442"><ele>40.0</ele><time>2026-04-26T08:40:52.999Z</time></trkpt><trkpt lat="45.11584249588097" lon="9.99272298107089"><ele>40.0</ele><time>2026-04-26T08:40:53.999Z</time></trkpt><trkpt lat="45.11592069767899" lon="9.992678337067238"><ele>40.0</ele><time>2026-04-26T08:40:54.999Z</time></trkpt><trkpt lat="45.11599553064688" lon="9.992629903393672"><ele>39.833333333333336</ele><time>2026-04-26T08:40:55.999Z</time></trkpt><trkpt lat="45.116074369651976" lon="9.992581832472915"><ele>39.66666666666667</ele><time>2026-04-26T08:40:56.999Z</time></trkpt><trkpt lat="45.11615499330209" lon="9.992535159323046"><ele>39.5</ele><time>2026-04-26T08:40:57.999Z</time></trkpt><trkpt lat="45.11623366098436" lon="9.992486556598667"><ele>39.333333333333336</ele><time>2026-04-26T08:40:58.999Z</time></trkpt><trkpt lat="45.11631330772183" lon="9.992437542127737"><ele>39.166666666666664</ele><time>2026-04-26T08:40:59.999Z</time></trkpt><trkpt lat="45.116392725965" lon="9.992390621152904"><ele>39.0</ele><time>2026-04-26T08:41:00.999Z</time></trkpt><trkpt lat="45.11647204372119" lon="9.99234355973079"><ele>39.0</ele><time>2026-04-26T08:41:01.998Z</time></trkpt><trkpt lat="45.11655036606559" lon="9.992293635540896"><ele>39.0</ele><time>2026-04-26T08:41:02.998Z</time></trkpt><trkpt lat="45.1166281851421" lon="9.992247128610417"><ele>39.0</ele><time>2026-04-26T08:41:03.998Z</time></trkpt><trkpt lat="45.11670763000543" lon="9.99220052482669"><ele>39.0</ele><time>2026-04-26T08:41:04.998Z</time></trkpt><trkpt lat="45.11678669778745" lon="9.992152863082087"><ele>39.0</ele><time>2026-04-26T08:41:05.998Z</time></trkpt><trkpt lat="45.11686557316338" lon="9.992106500343501"><ele>39.0</ele><time>2026-04-26T08:41:06.998Z</time></trkpt><trkpt lat="45.11694146245465" lon="9.99206016964157"><ele>39.0</ele><time>2026-04-26T08:41:07.998Z</time></trkpt><trkpt lat="45.117019412484034" lon="9.992015157898539"><ele>39.0</ele><time>2026-04-26T08:41:08.998Z</time></trkpt><trkpt lat="45.11709936448614" lon="9.991970108580611"><ele>39.0</ele><time>2026-04-26T08:41:09.998Z</time></trkpt><trkpt lat="45.117177379871" lon="9.991922599075968"><ele>39.0</ele><time>2026-04-26T08:41:10.998Z</time></trkpt><trkpt lat="45.11725713639642" lon="9.991869542100131"><ele>39.0</ele><time>2026-04-26T08:41:11.998Z</time></trkpt><trkpt lat="45.11733701312599" lon="9.991819962435532"><ele>39.0</ele><time>2026-04-26T08:41:12.998Z</time></trkpt><trkpt lat="45.117417383789565" lon="9.99177224104009"><ele>39.0</ele><time>2026-04-26T08:41:13.998Z</time></trkpt><trkpt lat="45.11749645708749" lon="9.991724792241271"><ele>39.0</ele><time>2026-04-26T08:41:14.998Z</time></trkpt><trkpt lat="45.11757566155123" lon="9.99167470734139"><ele>39.0</ele><time>2026-04-26T08:41:15.998Z</time></trkpt><trkpt lat="45.11765496618945" lon="9.991626574181053"><ele>39.0</ele><time>2026-04-26T08:41:16.998Z</time></trkpt><trkpt lat="45.11773353739978" lon="9.991580683128031"><ele>39.0</ele><time>2026-04-26T08:41:17.998Z</time></trkpt><trkpt lat="45.117811060703794" lon="9.991532767912352"><ele>39.0</ele><time>2026-04-26T08:41:18.998Z</time></trkpt><trkpt lat="45.11788974460942" lon="9.99148400294221"><ele>39.0</ele><time>2026-04-26T08:41:19.998Z</time></trkpt><trkpt lat="45.11796751476884" lon="9.991433876829353"><ele>39.0</ele><time>2026-04-26T08:41:20.998Z</time></trkpt><trkpt lat="45.11804675415012" lon="9.991388805004854"><ele>39.0</ele><time>2026-04-26T08:41:21.998Z</time></trkpt><trkpt lat="45.118127400800375" lon="9.991341449415668"><ele>39.0</ele><time>2026-04-26T08:41:22.998Z</time></trkpt><trkpt lat="45.11820365948932" lon="9.99129483673549"><ele>39.0</ele><time>2026-04-26T08:41:23.998Z</time></trkpt><trkpt lat="45.11828337179417" lon="9.991243835696913"><ele>39.0</ele><time>2026-04-26T08:41:24.998Z</time></trkpt><trkpt lat="45.11836271380292" lon="9.991198900299551"><ele>38.166666666666664</ele><time>2026-04-26T08:41:25.998Z</time></trkpt><trkpt lat="45.11844480946074" lon="9.991150352710337"><ele>37.333333333333336</ele><time>2026-04-26T08:41:26.998Z</time></trkpt><trkpt lat="45.11852361633523" lon="9.991102145944895"><ele>36.5</ele><time>2026-04-26T08:41:27.998Z</time></trkpt><trkpt lat="45.11860517040642" lon="9.991054350541681"><ele>35.66666666666667</ele><time>2026-04-26T08:41:28.998Z</time></trkpt><trkpt lat="45.118687712592106" lon="9.991004689457672"><ele>34.833333333333336</ele><time>2026-04-26T08:41:29.998Z</time></trkpt><trkpt lat="45.11876742707781" lon="9.990956074983877"><ele>34.0</ele><time>2026-04-26T08:41:30.998Z</time></trkpt><trkpt lat="45.118850311724096" lon="9.990903781324635"><ele>34.0</ele><time>2026-04-26T08:41:31.998Z</time></trkpt><trkpt lat="45.118929819555646" lon="9.990852053584026"><ele>34.0</ele><time>2026-04-26T08:41:32.998Z</time></trkpt><trkpt lat="45.119012197791626" lon="9.99080622450666"><ele>34.0</ele><time>2026-04-26T08:41:33.998Z</time></trkpt><trkpt lat="45.11909244608039" lon="9.990757374334732"><ele>34.0</ele><time>2026-04-26T08:41:34.998Z</time></trkpt><trkpt lat="45.119174071477715" lon="9.990710426234227"><ele>34.0</ele><time>2026-04-26T08:41:35.998Z</time></trkpt><trkpt lat="45.11925486378285" lon="9.990662075167172"><ele>34.0</ele><time>2026-04-26T08:41:36.998Z</time></trkpt><trkpt lat="45.119335839163455" lon="9.990613682739975"><ele>34.4</ele><time>2026-04-26T08:41:37.998Z</time></trkpt><trkpt lat="45.11941752034059" lon="9.990565128277385"><ele>34.8</ele><time>2026-04-26T08:41:38.998Z</time></trkpt><trkpt lat="45.11950107838877" lon="9.990518201056663"><ele>35.2</ele><time>2026-04-26T08:41:39.998Z</time></trkpt><trkpt lat="45.11958323220691" lon="9.990467360295357"><ele>35.6</ele><time>2026-04-26T08:41:40.998Z</time></trkpt><trkpt lat="45.119666391273306" lon="9.99041572163331"><ele>36.0</ele><time>2026-04-26T08:41:41.998Z</time></trkpt><trkpt lat="45.11975231703213" lon="9.990356010860545"><ele>36.0</ele><time>2026-04-26T08:41:42.998Z</time></trkpt><trkpt lat="45.11984426302689" lon="9.99029695746483"><ele>36.0</ele><time>2026-04-26T08:41:43.998Z</time></trkpt><trkpt lat="45.11994145444706" lon="9.990243653322311"><ele>36.0</ele><time>2026-04-26T08:41:44.998Z</time></trkpt><trkpt lat="45.12004128956097" lon="9.990194983704548"><ele>36.0</ele><time>2026-04-26T08:41:45.998Z</time></trkpt><trkpt lat="45.12014041708162" lon="9.99013841822225"><ele>36.0</ele><time>2026-04-26T08:41:46.998Z</time></trkpt><trkpt lat="45.12024347632564" lon="9.990079411169386"><ele>36.0</ele><time>2026-04-26T08:41:47.998Z</time></trkpt><trkpt lat="45.12034554778198" lon="9.990018017425816"><ele>36.0</ele><time>2026-04-26T08:41:48.998Z</time></trkpt><trkpt lat="45.1204491260682" lon="9.989958043448945"><ele>36.0</ele><time>2026-04-26T08:41:49.998Z</time></trkpt><trkpt lat="45.12054985314988" lon="9.989895335466386"><ele>36.0</ele><time>2026-04-26T08:41:50.998Z</time></trkpt><trkpt lat="45.12064756624721" lon="9.989836252986063"><ele>36.0</ele><time>2026-04-26T08:41:51.998Z</time></trkpt><trkpt lat="45.12073980579468" lon="9.989779549287547"><ele>36.0</ele><time>2026-04-26T08:41:52.998Z</time></trkpt><trkpt lat="45.120826748230314" lon="9.989724255016593"><ele>36.0</ele><time>2026-04-26T08:41:53.998Z</time></trkpt><trkpt lat="45.120909717708074" lon="9.989686137858982"><ele>36.0</ele><time>2026-04-26T08:41:54.998Z</time></trkpt><trkpt lat="45.12099546329555" lon="9.989680773142203"><ele>36.0</ele><time>2026-04-26T08:41:55.997Z</time></trkpt><trkpt lat="45.121070383459504" lon="9.989625409068259"><ele>36.0</ele><time>2026-04-26T08:41:56.999Z</time></trkpt><trkpt lat="45.12114936855792" lon="9.989590352900295"><ele>36.0</ele><time>2026-04-26T08:41:57.999Z</time></trkpt><trkpt lat="45.12122046957373" lon="9.989540648020185"><ele>36.0</ele><time>2026-04-26T08:41:58.999Z</time></trkpt><trkpt lat="45.121291266231324" lon="9.989494854431188"><ele>36.0</ele><time>2026-04-26T08:41:59.999Z</time></trkpt><trkpt lat="45.121358888143135" lon="9.989451347694274"><ele>36.0</ele><time>2026-04-26T08:42:00.999Z</time></trkpt><trkpt lat="45.12142549107095" lon="9.989414226695164"><ele>36.0</ele><time>2026-04-26T08:42:01.999Z</time></trkpt><trkpt lat="45.12148902859496" lon="9.989378995013686"><ele>36.0</ele><time>2026-04-26T08:42:02.999Z</time></trkpt><trkpt lat="45.1215498012367" lon="9.989346369201883"><ele>36.0</ele><time>2026-04-26T08:42:03.999Z</time></trkpt><trkpt lat="45.121662610309656" lon="9.989314204834953"><ele>36.2</ele><time>2026-04-26T08:42:05.999Z</time></trkpt><trkpt lat="45.12177242723399" lon="9.9893060261566"><ele>36.400000000000006</ele><time>2026-04-26T08:42:07.999Z</time></trkpt><trkpt lat="45.12188077954131" lon="9.989327759287278"><ele>36.6</ele><time>2026-04-26T08:42:09.999Z</time></trkpt><trkpt lat="45.12198269319088" lon="9.989366813903837"><ele>36.800000000000004</ele><time>2026-04-26T08:42:11.999Z</time></trkpt><trkpt lat="45.12208051636029" lon="9.989410682728124"><ele>37.0</ele><time>2026-04-26T08:42:13.999Z</time></trkpt><trkpt lat="45.122169550485694" lon="9.989464150272974"><ele>37.0</ele><time>2026-04-26T08:42:15.999Z</time></trkpt><trkpt lat="45.12224762155476" lon="9.989532149987047"><ele>37.0</ele><time>2026-04-26T08:42:17.999Z</time></trkpt><trkpt lat="45.12232700193614" lon="9.98960735025123"><ele>37.0</ele><time>2026-04-26T08:42:19.999Z</time></trkpt><trkpt lat="45.1224083987088" lon="9.989690441259313"><ele>37.0</ele><time>2026-04-26T08:42:21.999Z</time></trkpt><trkpt lat="45.12249892578885" lon="9.98976519314846"><ele>37.0</ele><time>2026-04-26T08:42:23.999Z</time></trkpt><trkpt lat="45.12258783290208" lon="9.989848447949726"><ele>37.16666666666667</ele><time>2026-04-26T08:42:25.999Z</time></trkpt><trkpt lat="45.122690097469125" lon="9.989930712269635"><ele>37.333333333333336</ele><time>2026-04-26T08:42:27.999Z</time></trkpt><trkpt lat="45.12279663150453" lon="9.990021087613663"><ele>37.5</ele><time>2026-04-26T08:42:29.999Z</time></trkpt><trkpt lat="45.122852708114955" lon="9.990071017936632"><ele>37.666666666666664</ele><time>2026-04-26T08:42:30.999Z</time></trkpt><trkpt lat="45.122910521503954" lon="9.990123584124083"><ele>37.83333333333333</ele><time>2026-04-26T08:42:31.999Z</time></trkpt><trkpt lat="45.12296641189777" lon="9.99017562516708"><ele>38.0</ele><time>2026-04-26T08:42:32.999Z</time></trkpt><trkpt lat="45.12302734760959" lon="9.990225821404927"><ele>38.0</ele><time>2026-04-26T08:42:33.999Z</time></trkpt><trkpt lat="45.12308624434146" lon="9.990280308866174"><ele>38.0</ele><time>2026-04-26T08:42:34.999Z</time></trkpt><trkpt lat="45.123146649722514" lon="9.990334516458864"><ele>38.0</ele><time>2026-04-26T08:42:35.999Z</time></trkpt><trkpt lat="45.12320495998697" lon="9.990390723578912"><ele>38.0</ele><time>2026-04-26T08:42:36.999Z</time></trkpt><trkpt lat="45.12326504968256" lon="9.990442269191261"><ele>38.0</ele><time>2026-04-26T08:42:37.999Z</time></trkpt><trkpt lat="45.123324321453474" lon="9.990493797020441"><ele>38.0</ele><time>2026-04-26T08:42:38.999Z</time></trkpt><trkpt lat="45.12338356056669" lon="9.990547533997827"><ele>38.0</ele><time>2026-04-26T08:42:39.999Z</time></trkpt><trkpt lat="45.123442564449036" lon="9.990599321345027"><ele>37.857142857142854</ele><time>2026-04-26T08:42:40.999Z</time></trkpt><trkpt lat="45.12350302163444" lon="9.990650561856178"><ele>37.714285714285715</ele><time>2026-04-26T08:42:41.999Z</time></trkpt><trkpt lat="45.12356340498369" lon="9.990703525118157"><ele>37.57142857142857</ele><time>2026-04-26T08:42:42.999Z</time></trkpt><trkpt lat="45.12362375919278" lon="9.990758989237529"><ele>37.42857142857143</ele><time>2026-04-26T08:42:43.999Z</time></trkpt><trkpt lat="45.12368679781351" lon="9.990811538805573"><ele>37.285714285714285</ele><time>2026-04-26T08:42:44.999Z</time></trkpt><trkpt lat="45.12374869107109" lon="9.99086344195143"><ele>37.142857142857146</ele><time>2026-04-26T08:42:45.999Z</time></trkpt><trkpt lat="45.1238110817858" lon="9.99091470660262"><ele>37.0</ele><time>2026-04-26T08:42:46.999Z</time></trkpt><trkpt lat="45.12387460812163" lon="9.990968054031907"><ele>37.0</ele><time>2026-04-26T08:42:47.999Z</time></trkpt><trkpt lat="45.12393808476559" lon="9.991020308465206"><ele>37.0</ele><time>2026-04-26T08:42:48.999Z</time></trkpt><trkpt lat="45.12399905232537" lon="9.991074651236639"><ele>37.0</ele><time>2026-04-26T08:42:49.999Z</time></trkpt><trkpt lat="45.1240587093961" lon="9.991128181274355"><ele>37.0</ele><time>2026-04-26T08:42:50.999Z</time></trkpt><trkpt lat="45.124119048714356" lon="9.99118501061511"><ele>37.0</ele><time>2026-04-26T08:42:51.999Z</time></trkpt><trkpt lat="45.1241793256102" lon="9.991236482271653"><ele>37.0</ele><time>2026-04-26T08:42:52.999Z</time></trkpt><trkpt lat="45.12424085271411" lon="9.991289053353155"><ele>37.0</ele><time>2026-04-26T08:42:53.999Z</time></trkpt><trkpt lat="45.12430195593761" lon="9.99134405884801"><ele>37.142857142857146</ele><time>2026-04-26T08:42:54.999Z</time></trkpt><trkpt lat="45.124360562745046" lon="9.991395416068972"><ele>37.285714285714285</ele><time>2026-04-26T08:42:55.999Z</time></trkpt><trkpt lat="45.12441760386995" lon="9.991445772348587"><ele>37.42857142857143</ele><time>2026-04-26T08:42:56.999Z</time></trkpt><trkpt lat="45.12447435360729" lon="9.991496986257353"><ele>37.57142857142857</ele><time>2026-04-26T08:42:57.999Z</time></trkpt><trkpt lat="45.12453069330704" lon="9.991544764483855"><ele>37.714285714285715</ele><time>2026-04-26T08:42:58.999Z</time></trkpt><trkpt lat="45.12458666490407" lon="9.991593231157585"><ele>37.857142857142854</ele><time>2026-04-26T08:42:59.999Z</time></trkpt><trkpt lat="45.124642698511636" lon="9.991641139879977"><ele>38.0</ele><time>2026-04-26T08:43:00.999Z</time></trkpt><trkpt lat="45.124699605961695" lon="9.99169072036405"><ele>38.0</ele><time>2026-04-26T08:43:01.999Z</time></trkpt><trkpt lat="45.12475877102435" lon="9.991743841111028"><ele>38.0</ele><time>2026-04-26T08:43:02.999Z</time></trkpt><trkpt lat="45.12482136817864" lon="9.991797454153522"><ele>38.0</ele><time>2026-04-26T08:43:03.999Z</time></trkpt><trkpt lat="45.12488683717886" lon="9.991847045375884"><ele>38.0</ele><time>2026-04-26T08:43:04.998Z</time></trkpt><trkpt lat="45.1249545987876" lon="9.991901258974796"><ele>38.0</ele><time>2026-04-26T08:43:05.998Z</time></trkpt><trkpt lat="45.12502219847437" lon="9.991954749421282"><ele>38.0</ele><time>2026-04-26T08:43:06.998Z</time></trkpt><trkpt lat="45.125090392974876" lon="9.992015295501577"><ele>38.5</ele><time>2026-04-26T08:43:07.998Z</time></trkpt><trkpt lat="45.12515818751358" lon="9.992072281815485"><ele>39.0</ele><time>2026-04-26T08:43:08.998Z</time></trkpt><trkpt lat="45.125227338494255" lon="9.992128921846552"><ele>39.5</ele><time>2026-04-26T08:43:09.998Z</time></trkpt><trkpt lat="45.12529471210906" lon="9.992187447888139"><ele>40.0</ele><time>2026-04-26T08:43:10.998Z</time></trkpt><trkpt lat="45.12536201238599" lon="9.992244991201423"><ele>40.5</ele><time>2026-04-26T08:43:11.998Z</time></trkpt><trkpt lat="45.125428743770186" lon="9.99230113275698"><ele>41.0</ele><time>2026-04-26T08:43:12.998Z</time></trkpt><trkpt lat="45.125494375446856" lon="9.992357886172016"><ele>41.0</ele><time>2026-04-26T08:43:13.998Z</time></trkpt><trkpt lat="45.12556062478734" lon="9.992420112315624"><ele>41.0</ele><time>2026-04-26T08:43:14.998Z</time></trkpt><trkpt lat="45.12562717709964" lon="9.992477101765356"><ele>41.0</ele><time>2026-04-26T08:43:15.998Z</time></trkpt><trkpt lat="45.12569458771607" lon="9.992533942671194"><ele>41.0</ele><time>2026-04-26T08:43:16.998Z</time></trkpt><trkpt lat="45.125761870084204" lon="9.992589692315851"><ele>41.0</ele><time>2026-04-26T08:43:17.998Z</time></trkpt><trkpt lat="45.12582833291483" lon="9.99264827157745"><ele>41.0</ele><time>2026-04-26T08:43:18.998Z</time></trkpt><trkpt lat="45.125894951609226" lon="9.99270588197412"><ele>40.666666666666664</ele><time>2026-04-26T08:43:19.998Z</time></trkpt><trkpt lat="45.12596131897018" lon="9.992762898799908"><ele>40.33333333333333</ele><time>2026-04-26T08:43:20.998Z</time></trkpt><trkpt lat="45.12602820091372" lon="9.99282225999934"><ele>40.0</ele><time>2026-04-26T08:43:21.998Z</time></trkpt><trkpt lat="45.12609529845141" lon="9.992881317562103"><ele>39.666666666666664</ele><time>2026-04-26T08:43:22.998Z</time></trkpt><trkpt lat="45.12615945254131" lon="9.99293977526126"><ele>39.333333333333336</ele><time>2026-04-26T08:43:23.998Z</time></trkpt><trkpt lat="45.126223986323744" lon="9.993001308406742"><ele>39.0</ele><time>2026-04-26T08:43:24.998Z</time></trkpt><trkpt lat="45.12629047347264" lon="9.993061274471867"><ele>39.0</ele><time>2026-04-26T08:43:25.998Z</time></trkpt><trkpt lat="45.126356646376586" lon="9.993117908807486"><ele>39.0</ele><time>2026-04-26T08:43:26.998Z</time></trkpt><trkpt lat="45.12642518936899" lon="9.993174617099621"><ele>39.0</ele><time>2026-04-26T08:43:27.998Z</time></trkpt><trkpt lat="45.12649143274045" lon="9.993232595615552"><ele>39.0</ele><time>2026-04-26T08:43:28.998Z</time></trkpt><trkpt lat="45.12655946906552" lon="9.99329348635345"><ele>39.0</ele><time>2026-04-26T08:43:29.998Z</time></trkpt><trkpt lat="45.12662663966792" lon="9.99335583599586"><ele>39.0</ele><time>2026-04-26T08:43:30.998Z</time></trkpt><trkpt lat="45.12669378955191" lon="9.993411954248877"><ele>38.666666666666664</ele><time>2026-04-26T08:43:31.998Z</time></trkpt><trkpt lat="45.12676395019878" lon="9.993467168853883"><ele>38.333333333333336</ele><time>2026-04-26T08:43:32.998Z</time></trkpt><trkpt lat="45.126832304957404" lon="9.993523522608607"><ele>38.0</ele><time>2026-04-26T08:43:33.998Z</time></trkpt><trkpt lat="45.12690165300051" lon="9.993583753136187"><ele>37.66666666666667</ele><time>2026-04-26T08:43:34.998Z</time></trkpt><trkpt lat="45.1269688651465" lon="9.993641986659606"><ele>37.333333333333336</ele><time>2026-04-26T08:43:35.998Z</time></trkpt><trkpt lat="45.12703508610504" lon="9.993701831255914"><ele>37.0</ele><time>2026-04-26T08:43:36.998Z</time></trkpt><trkpt lat="45.12710412294633" lon="9.993755112484555"><ele>37.0</ele><time>2026-04-26T08:43:37.998Z</time></trkpt><trkpt lat="45.12717207777549" lon="9.993810852602545"><ele>37.0</ele><time>2026-04-26T08:43:38.998Z</time></trkpt><trkpt lat="45.12723993636329" lon="9.993868278710886"><ele>37.0</ele><time>2026-04-26T08:43:39.998Z</time></trkpt><trkpt lat="45.12730577452453" lon="9.993927238284439"><ele>37.0</ele><time>2026-04-26T08:43:40.998Z</time></trkpt><trkpt lat="45.12737338302157" lon="9.993983846760159"><ele>37.0</ele><time>2026-04-26T08:43:41.998Z</time></trkpt><trkpt lat="45.12743995132804" lon="9.994040260266155"><ele>37.0</ele><time>2026-04-26T08:43:42.998Z</time></trkpt><trkpt lat="45.12750691692339" lon="9.99409346284116"><ele>35.5</ele><time>2026-04-26T08:43:43.998Z</time></trkpt><trkpt lat="45.12757336697537" lon="9.994147813566046"><ele>34.0</ele><time>2026-04-26T08:43:44.998Z</time></trkpt><trkpt lat="45.12764116911627" lon="9.994204985749208"><ele>32.5</ele><time>2026-04-26T08:43:45.998Z</time></trkpt><trkpt lat="45.12770693834316" lon="9.99426112912526"><ele>31.0</ele><time>2026-04-26T08:43:46.998Z</time></trkpt><trkpt lat="45.127771948851255" lon="9.994320577605512"><ele>29.500000000000004</ele><time>2026-04-26T08:43:47.998Z</time></trkpt><trkpt lat="45.12783824291541" lon="9.994376593607162"><ele>28.0</ele><time>2026-04-26T08:43:48.998Z</time></trkpt><trkpt lat="45.12790355693001" lon="9.994432732013689"><ele>28.000000000000004</ele><time>2026-04-26T08:43:49.998Z</time></trkpt><trkpt lat="45.12796619517724" lon="9.994494306857638"><ele>28.0</ele><time>2026-04-26T08:43:50.998Z</time></trkpt><trkpt lat="45.128029549629716" lon="9.994554130818655"><ele>28.0</ele><time>2026-04-26T08:43:51.998Z</time></trkpt><trkpt lat="45.12809336291396" lon="9.994611837814976"><ele>28.0</ele><time>2026-04-26T08:43:52.998Z</time></trkpt><trkpt lat="45.128156847255006" lon="9.994665671844055"><ele>28.000000000000004</ele><time>2026-04-26T08:43:53.998Z</time></trkpt><trkpt lat="45.12822309929937" lon="9.994720179361565"><ele>28.0</ele><time>2026-04-26T08:43:54.998Z</time></trkpt><trkpt lat="45.12828852056888" lon="9.994773778370327"><ele>28.000000000000004</ele><time>2026-04-26T08:43:55.998Z</time></trkpt><trkpt lat="45.128352612753936" lon="9.994829269454025"><ele>28.0</ele><time>2026-04-26T08:43:56.998Z</time></trkpt><trkpt lat="45.12841661870374" lon="9.994879896574497"><ele>28.0</ele><time>2026-04-26T08:43:57.998Z</time></trkpt><trkpt lat="45.12848258350774" lon="9.994934691085675"><ele>28.0</ele><time>2026-04-26T08:43:58.998Z</time></trkpt><trkpt lat="45.128545344769826" lon="9.994992282103336"><ele>28.000000000000004</ele><time>2026-04-26T08:43:59.997Z</time></trkpt><trkpt lat="45.128609614212" lon="9.99504748880704"><ele>28.0</ele><time>2026-04-26T08:44:00.997Z</time></trkpt><trkpt lat="45.12867466638913" lon="9.995102563558907"><ele>28.833333333333336</ele><time>2026-04-26T08:44:01.997Z</time></trkpt><trkpt lat="45.128739915964864" lon="9.99516086868862"><ele>29.666666666666668</ele><time>2026-04-26T08:44:02.999Z</time></trkpt><trkpt lat="45.1288058758591" lon="9.995215554036175"><ele>30.5</ele><time>2026-04-26T08:44:03.999Z</time></trkpt><trkpt lat="45.12887006572114" lon="9.99526831024329"><ele>31.333333333333336</ele><time>2026-04-26T08:44:04.999Z</time></trkpt><trkpt lat="45.128934788137144" lon="9.995321462050164"><ele>32.166666666666664</ele><time>2026-04-26T08:44:05.999Z</time></trkpt><trkpt lat="45.12900013444139" lon="9.995374493356568"><ele>33.0</ele><time>2026-04-26T08:44:06.999Z</time></trkpt><trkpt lat="45.12906436184592" lon="9.995429979275272"><ele>33.285714285714285</ele><time>2026-04-26T08:44:07.999Z</time></trkpt><trkpt lat="45.129127667110204" lon="9.995485218875261"><ele>33.57142857142857</ele><time>2026-04-26T08:44:08.999Z</time></trkpt><trkpt lat="45.12919149922446" lon="9.99553942018861"><ele>33.85714285714286</ele><time>2026-04-26T08:44:09.999Z</time></trkpt><trkpt lat="45.12925509307034" lon="9.995594930183607"><ele>34.14285714285714</ele><time>2026-04-26T08:44:10.999Z</time></trkpt><trkpt lat="45.12931667488494" lon="9.995646959932563"><ele>34.42857142857143</ele><time>2026-04-26T08:44:11.999Z</time></trkpt><trkpt lat="45.129375411989166" lon="9.995700877290496"><ele>34.714285714285715</ele><time>2026-04-26T08:44:12.999Z</time></trkpt><trkpt lat="45.12943349911518" lon="9.995752888704658"><ele>35.0</ele><time>2026-04-26T08:44:13.999Z</time></trkpt><trkpt lat="45.129490815338634" lon="9.995802925030716"><ele>35.5</ele><time>2026-04-26T08:44:14.999Z</time></trkpt><trkpt lat="45.12955026351737" lon="9.995856165973693"><ele>36.0</ele><time>2026-04-26T08:44:15.999Z</time></trkpt><trkpt lat="45.12960807355313" lon="9.995904856517578"><ele>36.5</ele><time>2026-04-26T08:44:16.999Z</time></trkpt><trkpt lat="45.12966508231783" lon="9.995949534760245"><ele>37.0</ele><time>2026-04-26T08:44:17.999Z</time></trkpt><trkpt lat="45.12977552993634" lon="9.996042198698046"><ele>37.5</ele><time>2026-04-26T08:44:19.999Z</time></trkpt><trkpt lat="45.12982770483676" lon="9.996101272761509"><ele>38.0</ele><time>2026-04-26T08:44:20.999Z</time></trkpt><trkpt lat="45.12986631691827" lon="9.99618370792454"><ele>38.0</ele><time>2026-04-26T08:44:21.999Z</time></trkpt><trkpt lat="45.12990417005271" lon="9.996273045171339"><ele>38.0</ele><time>2026-04-26T08:44:22.999Z</time></trkpt><trkpt lat="45.129942248408184" lon="9.99635730727093"><ele>38.0</ele><time>2026-04-26T08:44:23.999Z</time></trkpt><trkpt lat="45.12997119263261" lon="9.996443298822955"><ele>38.0</ele><time>2026-04-26T08:44:24.999Z</time></trkpt><trkpt lat="45.129992168601305" lon="9.996536077877836"><ele>38.0</ele><time>2026-04-26T08:44:25.999Z</time></trkpt><trkpt lat="45.130005204562956" lon="9.996628507898501"><ele>38.0</ele><time>2026-04-26T08:44:26.999Z</time></trkpt><trkpt lat="45.13001453497274" lon="9.99672148177192"><ele>38.0</ele><time>2026-04-26T08:44:27.999Z</time></trkpt><trkpt lat="45.130035171240884" lon="9.996886485196205"><ele>38.4</ele><time>2026-04-26T08:44:29.999Z</time></trkpt><trkpt lat="45.130052478806995" lon="9.997044703579895"><ele>38.8</ele><time>2026-04-26T08:44:31.999Z</time></trkpt><trkpt lat="45.13007661374454" lon="9.99720476290193"><ele>39.2</ele><time>2026-04-26T08:44:34Z</time></trkpt><trkpt lat="45.130109180843114" lon="9.99735190522784"><ele>39.6</ele><time>2026-04-26T08:44:36Z</time></trkpt><trkpt lat="45.13012396657785" lon="9.997507307663382"><ele>40.0</ele><time>2026-04-26T08:44:38Z</time></trkpt><trkpt lat="45.13014746386523" lon="9.99767573472537"><ele>40.0</ele><time>2026-04-26T08:44:40Z</time></trkpt><trkpt lat="45.13015049688284" lon="9.997764871769231"><ele>40.0</ele><time>2026-04-26T08:44:41Z</time></trkpt><trkpt lat="45.130161941434984" lon="9.997855447283438"><ele>40.0</ele><time>2026-04-26T08:44:42Z</time></trkpt><trkpt lat="45.13018494375277" lon="9.998025285881516"><ele>40.0</ele><time>2026-04-26T08:44:44Z</time></trkpt><trkpt lat="45.13019263707729" lon="9.998119853065619"><ele>40.0</ele><time>2026-04-26T08:44:45Z</time></trkpt><trkpt lat="45.13020037110429" lon="9.998209621581795"><ele>40.0</ele><time>2026-04-26T08:44:46Z</time></trkpt><trkpt lat="45.13020790143254" lon="9.998304877906952"><ele>40.0</ele><time>2026-04-26T08:44:47Z</time></trkpt><trkpt lat="45.13021551354081" lon="9.998397082869221"><ele>40.16666666666667</ele><time>2026-04-26T08:44:48Z</time></trkpt><trkpt lat="45.13022747746404" lon="9.998485229917497"><ele>40.333333333333336</ele><time>2026-04-26T08:44:49Z</time></trkpt><trkpt lat="45.130248739888394" lon="9.998659803784506"><ele>40.5</ele><time>2026-04-26T08:44:51Z</time></trkpt><trkpt lat="45.13025815817414" lon="9.998754670873424"><ele>40.666666666666664</ele><time>2026-04-26T08:44:52Z</time></trkpt><trkpt lat="45.13027061787531" lon="9.998846733297196"><ele>40.83333333333333</ele><time>2026-04-26T08:44:53Z</time></trkpt><trkpt lat="45.13027985920229" lon="9.998940126788362"><ele>41.0</ele><time>2026-04-26T08:44:54Z</time></trkpt><trkpt lat="45.130289292973806" lon="9.999031397820195"><ele>40.99999999999999</ele><time>2026-04-26T08:44:55Z</time></trkpt><trkpt lat="45.13029628450369" lon="9.999121852513962"><ele>41.0</ele><time>2026-04-26T08:44:56Z</time></trkpt><trkpt lat="45.1303048304645" lon="9.999212577717707"><ele>41.0</ele><time>2026-04-26T08:44:57Z</time></trkpt><trkpt lat="45.13031563710684" lon="9.999303842302417"><ele>41.0</ele><time>2026-04-26T08:44:58Z</time></trkpt><trkpt lat="45.13032580261536" lon="9.999394816501011"><ele>41.0</ele><time>2026-04-26T08:44:59Z</time></trkpt><trkpt lat="45.13033448177252" lon="9.99948659093368"><ele>40.99999999999999</ele><time>2026-04-26T08:45:00Z</time></trkpt><trkpt lat="45.13034269277848" lon="9.999576371802764"><ele>41.0</ele><time>2026-04-26T08:45:01Z</time></trkpt><trkpt lat="45.13035052239244" lon="9.999666180096485"><ele>41.0</ele><time>2026-04-26T08:45:02Z</time></trkpt><trkpt lat="45.13036305461427" lon="9.999754658888603"><ele>41.0</ele><time>2026-04-26T08:45:03Z</time></trkpt><trkpt lat="45.13037471068281" lon="9.999843193663352"><ele>41.0</ele><time>2026-04-26T08:45:04Z</time></trkpt><trkpt lat="45.1303958432607" lon="10.000018219186407"><ele>41.0</ele><time>2026-04-26T08:45:06Z</time></trkpt><trkpt lat="45.130416887178946" lon="10.000190329925491"><ele>41.0</ele><time>2026-04-26T08:45:08Z</time></trkpt><trkpt lat="45.130430551552486" lon="10.000357770302385"><ele>41.0</ele><time>2026-04-26T08:45:10Z</time></trkpt><trkpt lat="45.130449292022945" lon="10.000446653280557"><ele>41.0</ele><time>2026-04-26T08:45:10.999Z</time></trkpt><trkpt lat="45.13041929062891" lon="10.000611014952083"><ele>41.0</ele><time>2026-04-26T08:45:12.999Z</time></trkpt><trkpt lat="45.1304034212752" lon="10.000777066357006"><ele>41.0</ele><time>2026-04-26T08:45:14.999Z</time></trkpt><trkpt lat="45.13036088738945" lon="10.000922929605196"><ele>41.0</ele><time>2026-04-26T08:45:16.999Z</time></trkpt><trkpt lat="45.13031807036617" lon="10.001064172219358"><ele>40.83333333333333</ele><time>2026-04-26T08:45:18.999Z</time></trkpt><trkpt lat="45.13026368066271" lon="10.001182213254387"><ele>40.666666666666664</ele><time>2026-04-26T08:45:20.999Z</time></trkpt><trkpt lat="45.13022860585418" lon="10.001276058673515"><ele>40.5</ele><time>2026-04-26T08:45:22.999Z</time></trkpt><trkpt lat="45.13015578410082" lon="10.001306311795428"><ele>40.333333333333336</ele><time>2026-04-26T08:45:24.999Z</time></trkpt><trkpt lat="45.13008372640065" lon="10.001342792763523"><ele>40.16666666666667</ele><time>2026-04-26T08:45:27.999Z</time></trkpt><trkpt lat="45.13002031057911" lon="10.001352618803129"><ele>40.0</ele><time>2026-04-26T08:45:30.999Z</time></trkpt><trkpt lat="45.12995357508155" lon="10.00135954359588"><ele>40.0</ele><time>2026-04-26T08:45:34.999Z</time></trkpt><trkpt lat="45.12990760215143" lon="10.001421327693825"><ele>40.0</ele><time>2026-04-26T08:51:20Z</time></trkpt><trkpt lat="45.12986691965051" lon="10.001786792672494"><ele>40.0</ele><time>2026-04-26T08:51:44.999Z</time></trkpt><trkpt lat="45.12991797491136" lon="10.001716224791076"><ele>40.0</ele><time>2026-04-26T08:56:32.998Z</time></trkpt><trkpt lat="45.12991067353106" lon="10.001590839653419"><ele>40.0</ele><time>2026-04-26T08:56:34.998Z</time></trkpt><trkpt lat="45.13000611288544" lon="10.001518472611718"><ele>40.0</ele><time>2026-04-26T08:56:48Z</time></trkpt><trkpt lat="45.1300209955519" lon="10.001632776037601"><ele>40.0</ele><time>2026-04-26T08:56:51Z</time></trkpt><trkpt lat="45.130014371401735" lon="10.001743496346768"><ele>40.0</ele><time>2026-04-26T08:56:53Z</time></trkpt><trkpt lat="45.129975292860195" lon="10.001850988544405"><ele>40.0</ele><time>2026-04-26T08:56:55Z</time></trkpt><trkpt lat="45.12992857985963" lon="10.001965317862894"><ele>40.0</ele><time>2026-04-26T08:56:57Z</time></trkpt><trkpt lat="45.12987112900282" lon="10.002090078447102"><ele>39.4</ele><time>2026-04-26T08:56:59Z</time></trkpt><trkpt lat="45.12981376120261" lon="10.00223401599595"><ele>38.8</ele><time>2026-04-26T08:57:01Z</time></trkpt><trkpt lat="45.12975553565802" lon="10.002378238840155"><ele>38.2</ele><time>2026-04-26T08:57:03Z</time></trkpt><trkpt lat="45.12969208575411" lon="10.002526629367752"><ele>37.6</ele><time>2026-04-26T08:57:05Z</time></trkpt><trkpt lat="45.12965920225031" lon="10.002609775902569"><ele>37.0</ele><time>2026-04-26T08:57:06Z</time></trkpt><trkpt lat="45.12962524563005" lon="10.002689819066594"><ele>37.0</ele><time>2026-04-26T08:57:07Z</time></trkpt><trkpt lat="45.129566462192116" lon="10.00285053350551"><ele>37.0</ele><time>2026-04-26T08:57:09Z</time></trkpt><trkpt lat="45.12953459432972" lon="10.002927808313721"><ele>37.0</ele><time>2026-04-26T08:57:10Z</time></trkpt><trkpt lat="45.12950013214998" lon="10.003005149871603"><ele>37.0</ele><time>2026-04-26T08:57:11Z</time></trkpt><trkpt lat="45.12946305073431" lon="10.003085545500877"><ele>37.0</ele><time>2026-04-26T08:57:12Z</time></trkpt><trkpt lat="45.12942980570443" lon="10.003162632375318"><ele>37.0</ele><time>2026-04-26T08:57:13Z</time></trkpt><trkpt lat="45.1293959124954" lon="10.00324157669644"><ele>37.0</ele><time>2026-04-26T08:57:14Z</time></trkpt><trkpt lat="45.12936416633293" lon="10.00332626547532"><ele>37.0</ele><time>2026-04-26T08:57:15Z</time></trkpt><trkpt lat="45.129330609225" lon="10.003403759283385"><ele>37.0</ele><time>2026-04-26T08:57:16Z</time></trkpt><trkpt lat="45.1292949966743" lon="10.003485214213068"><ele>37.0</ele><time>2026-04-26T08:57:17Z</time></trkpt><trkpt lat="45.129263266779134" lon="10.003568279315937"><ele>37.0</ele><time>2026-04-26T08:57:18Z</time></trkpt><trkpt lat="45.1292287255633" lon="10.003649809912728"><ele>37.0</ele><time>2026-04-26T08:57:19Z</time></trkpt><trkpt lat="45.129195402371074" lon="10.00372601708275"><ele>37.0</ele><time>2026-04-26T08:57:20Z</time></trkpt><trkpt lat="45.12916086231325" lon="10.00381094931541"><ele>36.714285714285715</ele><time>2026-04-26T08:57:21Z</time></trkpt><trkpt lat="45.129128194591786" lon="10.003893324496964"><ele>36.42857142857143</ele><time>2026-04-26T08:57:22Z</time></trkpt><trkpt lat="45.129094361786024" lon="10.00397372859556"><ele>36.14285714285714</ele><time>2026-04-26T08:57:23Z</time></trkpt><trkpt lat="45.12906436342079" lon="10.004056986090921"><ele>35.85714285714286</ele><time>2026-04-26T08:57:24Z</time></trkpt><trkpt lat="45.12902882748314" lon="10.004136634375644"><ele>35.57142857142857</ele><time>2026-04-26T08:57:25Z</time></trkpt><trkpt lat="45.12899468523579" lon="10.004218631918768"><ele>35.285714285714285</ele><time>2026-04-26T08:57:26Z</time></trkpt><trkpt lat="45.128961332024424" lon="10.004298279978869"><ele>35.0</ele><time>2026-04-26T08:57:27Z</time></trkpt><trkpt lat="45.12892965428693" lon="10.004379248254235"><ele>34.666666666666664</ele><time>2026-04-26T08:57:28Z</time></trkpt><trkpt lat="45.128897140534335" lon="10.004459663410648"><ele>34.33333333333333</ele><time>2026-04-26T08:57:29Z</time></trkpt><trkpt lat="45.128838802333895" lon="10.004609764228169"><ele>34.0</ele><time>2026-04-26T08:57:31Z</time></trkpt><trkpt lat="45.12880828809981" lon="10.004691430610556"><ele>33.666666666666664</ele><time>2026-04-26T08:57:32Z</time></trkpt><trkpt lat="45.12877223392504" lon="10.00477559858537"><ele>33.333333333333336</ele><time>2026-04-26T08:57:33Z</time></trkpt><trkpt lat="45.12874749238643" lon="10.004859537400455"><ele>33.0</ele><time>2026-04-26T08:57:34Z</time></trkpt><trkpt lat="45.12872064438414" lon="10.004943386154313"><ele>33.14285714285714</ele><time>2026-04-26T08:57:35Z</time></trkpt><trkpt lat="45.128686493205684" lon="10.005022675740143"><ele>33.285714285714285</ele><time>2026-04-26T08:57:36Z</time></trkpt><trkpt lat="45.12865306627255" lon="10.00510242539782"><ele>33.42857142857143</ele><time>2026-04-26T08:57:37Z</time></trkpt><trkpt lat="45.12862510651636" lon="10.005191768481403"><ele>33.57142857142857</ele><time>2026-04-26T08:57:38Z</time></trkpt><trkpt lat="45.128594757513056" lon="10.005279317339978"><ele>33.714285714285715</ele><time>2026-04-26T08:57:38.999Z</time></trkpt><trkpt lat="45.128562088269874" lon="10.005369010750869"><ele>33.857142857142854</ele><time>2026-04-26T08:57:39.999Z</time></trkpt><trkpt lat="45.128531890846695" lon="10.00545919183868"><ele>34.0</ele><time>2026-04-26T08:57:40.999Z</time></trkpt><trkpt lat="45.12850036298605" lon="10.005550750132262"><ele>33.99999999999999</ele><time>2026-04-26T08:57:41.999Z</time></trkpt><trkpt lat="45.128467431806804" lon="10.005640215380952"><ele>34.0</ele><time>2026-04-26T08:57:42.999Z</time></trkpt><trkpt lat="45.12843418674948" lon="10.005731612275959"><ele>34.0</ele><time>2026-04-26T08:57:43.999Z</time></trkpt><trkpt lat="45.128402378285294" lon="10.005824032395635"><ele>34.0</ele><time>2026-04-26T08:57:44.999Z</time></trkpt><trkpt lat="45.12837136907832" lon="10.005914939947123"><ele>34.0</ele><time>2026-04-26T08:57:45.999Z</time></trkpt><trkpt lat="45.12833940953778" lon="10.006007868451881"><ele>33.99999999999999</ele><time>2026-04-26T08:57:46.999Z</time></trkpt><trkpt lat="45.128309909196034" lon="10.006099551924184"><ele>34.0</ele><time>2026-04-26T08:57:47.999Z</time></trkpt><trkpt lat="45.12828148656389" lon="10.006191766165696"><ele>34.285714285714285</ele><time>2026-04-26T08:57:48.999Z</time></trkpt><trkpt lat="45.12825057539609" lon="10.006285483255331"><ele>34.57142857142857</ele><time>2026-04-26T08:57:49.999Z</time></trkpt><trkpt lat="45.12821617045809" lon="10.00637610137181"><ele>34.85714285714286</ele><time>2026-04-26T08:57:50.999Z</time></trkpt><trkpt lat="45.12818028870527" lon="10.006467698758104"><ele>35.14285714285714</ele><time>2026-04-26T08:57:51.999Z</time></trkpt><trkpt lat="45.128148795745076" lon="10.006561618244227"><ele>35.42857142857143</ele><time>2026-04-26T08:57:52.999Z</time></trkpt><trkpt lat="45.12811630184691" lon="10.006654906742652"><ele>35.714285714285715</ele><time>2026-04-26T08:57:53.999Z</time></trkpt><trkpt lat="45.128083693675975" lon="10.006749483882167"><ele>36.0</ele><time>2026-04-26T08:57:54.999Z</time></trkpt><trkpt lat="45.12805015204342" lon="10.006844616161947"><ele>36.00000000000001</ele><time>2026-04-26T08:57:55.999Z</time></trkpt><trkpt lat="45.12801805698173" lon="10.006938415151529"><ele>36.0</ele><time>2026-04-26T08:57:56.999Z</time></trkpt><trkpt lat="45.12798603305323" lon="10.007033584809363"><ele>36.0</ele><time>2026-04-26T08:57:57.999Z</time></trkpt><trkpt lat="45.12795517296311" lon="10.007124993799279"><ele>36.0</ele><time>2026-04-26T08:57:58.999Z</time></trkpt><trkpt lat="45.127921440600446" lon="10.00721656967517"><ele>36.0</ele><time>2026-04-26T08:57:59.999Z</time></trkpt><trkpt lat="45.127888185894236" lon="10.007308376663227"><ele>36.00000000000001</ele><time>2026-04-26T08:58:00.999Z</time></trkpt><trkpt lat="45.127856759225" lon="10.007400835191905"><ele>36.0</ele><time>2026-04-26T08:58:01.999Z</time></trkpt><trkpt lat="45.12782465043319" lon="10.007496911059079"><ele>36.00000000000001</ele><time>2026-04-26T08:58:02.999Z</time></trkpt><trkpt lat="45.12779499320575" lon="10.007588196450614"><ele>36.0</ele><time>2026-04-26T08:58:03.999Z</time></trkpt><trkpt lat="45.1277632426543" lon="10.007681237473601"><ele>36.0</ele><time>2026-04-26T08:58:04.999Z</time></trkpt><trkpt lat="45.1277299669643" lon="10.007775908352782"><ele>36.0</ele><time>2026-04-26T08:58:05.999Z</time></trkpt><trkpt lat="45.127698783878444" lon="10.007871339471658"><ele>36.0</ele><time>2026-04-26T08:58:06.999Z</time></trkpt><trkpt lat="45.12766559418008" lon="10.007965242145712"><ele>36.00000000000001</ele><time>2026-04-26T08:58:07.999Z</time></trkpt><trkpt lat="45.12763421493262" lon="10.00806008470383"><ele>36.0</ele><time>2026-04-26T08:58:08.999Z</time></trkpt><trkpt lat="45.12760251552371" lon="10.008154199717113"><ele>36.00000000000001</ele><time>2026-04-26T08:58:09.999Z</time></trkpt><trkpt lat="45.12757017855511" lon="10.008248751804192"><ele>36.0</ele><time>2026-04-26T08:58:10.999Z</time></trkpt><trkpt lat="45.127538702144165" lon="10.008344798432878"><ele>36.0</ele><time>2026-04-26T08:58:11.999Z</time></trkpt><trkpt lat="45.12750438763077" lon="10.008438816833584"><ele>36.0</ele><time>2026-04-26T08:58:12.999Z</time></trkpt><trkpt lat="45.127469475047185" lon="10.00852984161047"><ele>36.0</ele><time>2026-04-26T08:58:13.999Z</time></trkpt><trkpt lat="45.12743717348684" lon="10.008626425892157"><ele>36.00000000000001</ele><time>2026-04-26T08:58:14.999Z</time></trkpt><trkpt lat="45.127402229107894" lon="10.008720028769995"><ele>36.0</ele><time>2026-04-26T08:58:15.999Z</time></trkpt><trkpt lat="45.127369953584164" lon="10.008815735258636"><ele>36.0</ele><time>2026-04-26T08:58:16.999Z</time></trkpt><trkpt lat="45.127339341712094" lon="10.008911349283277"><ele>36.0</ele><time>2026-04-26T08:58:17.999Z</time></trkpt><trkpt lat="45.127308069558076" lon="10.009006533423923"><ele>36.0</ele><time>2026-04-26T08:58:18.999Z</time></trkpt><trkpt lat="45.127277871496275" lon="10.009098159866097"><ele>36.0</ele><time>2026-04-26T08:58:19.999Z</time></trkpt><trkpt lat="45.12724697819291" lon="10.009186593667291"><ele>36.0</ele><time>2026-04-26T08:58:20.999Z</time></trkpt><trkpt lat="45.1272165813365" lon="10.00927109170966"><ele>36.0</ele><time>2026-04-26T08:58:21.999Z</time></trkpt><trkpt lat="45.12717262566226" lon="10.009415592396916"><ele>36.2</ele><time>2026-04-26T08:58:23.999Z</time></trkpt><trkpt lat="45.12710399269999" lon="10.009520870514894"><ele>36.400000000000006</ele><time>2026-04-26T08:58:25.999Z</time></trkpt><trkpt lat="45.12698525283258" lon="10.00945861268657"><ele>36.6</ele><time>2026-04-26T08:58:27.999Z</time></trkpt><trkpt lat="45.126901534833166" lon="10.009366592811984"><ele>36.800000000000004</ele><time>2026-04-26T08:58:29.999Z</time></trkpt><trkpt lat="45.12681709602808" lon="10.00927524401923"><ele>37.0</ele><time>2026-04-26T08:58:31.999Z</time></trkpt><trkpt lat="45.126734509246596" lon="10.009185898844482"><ele>36.800000000000004</ele><time>2026-04-26T08:58:33.999Z</time></trkpt><trkpt lat="45.12666630730179" lon="10.009112390573216"><ele>36.6</ele><time>2026-04-26T08:58:35.998Z</time></trkpt><trkpt lat="45.12659584926157" lon="10.00903645449242"><ele>36.400000000000006</ele><time>2026-04-26T08:58:37.998Z</time></trkpt><trkpt lat="45.1265272556168" lon="10.008962527672793"><ele>36.2</ele><time>2026-04-26T08:58:39.998Z</time></trkpt><trkpt lat="45.12645912398891" lon="10.008889935232348"><ele>36.0</ele><time>2026-04-26T08:58:41.998Z</time></trkpt><trkpt lat="45.12637227560218" lon="10.008798082576238"><ele>36.166666666666664</ele><time>2026-04-26T08:58:44Z</time></trkpt><trkpt lat="45.12627617446904" lon="10.008696443999474"><ele>36.333333333333336</ele><time>2026-04-26T08:58:46Z</time></trkpt><trkpt lat="45.12617571320691" lon="10.008590194036202"><ele>36.5</ele><time>2026-04-26T08:58:48Z</time></trkpt><trkpt lat="45.12612493626452" lon="10.008536522945198"><ele>36.66666666666667</ele><time>2026-04-26T08:58:49Z</time></trkpt><trkpt lat="45.12607301581934" lon="10.008480541644557"><ele>36.833333333333336</ele><time>2026-04-26T08:58:50Z</time></trkpt><trkpt lat="45.12601990899005" lon="10.008424557931502"><ele>37.0</ele><time>2026-04-26T08:58:51Z</time></trkpt><trkpt lat="45.12591899790428" lon="10.008318180267889"><ele>37.0</ele><time>2026-04-26T08:58:53Z</time></trkpt><trkpt lat="45.12586777198728" lon="10.008264179396969"><ele>37.0</ele><time>2026-04-26T08:58:54Z</time></trkpt><trkpt lat="45.12581618107177" lon="10.008209793708792"><ele>37.0</ele><time>2026-04-26T08:58:55Z</time></trkpt><trkpt lat="45.125764326162326" lon="10.008155129671021"><ele>37.0</ele><time>2026-04-26T08:58:56Z</time></trkpt><trkpt lat="45.12571154569609" lon="10.008099490060193"><ele>37.0</ele><time>2026-04-26T08:58:57Z</time></trkpt><trkpt lat="45.1256605348112" lon="10.008045772265776"><ele>37.0</ele><time>2026-04-26T08:58:58Z</time></trkpt><trkpt lat="45.12560957534605" lon="10.007992170789452"><ele>37.0</ele><time>2026-04-26T08:58:59Z</time></trkpt><trkpt lat="45.12551264636145" lon="10.007890216478344"><ele>36.5</ele><time>2026-04-26T08:59:01Z</time></trkpt><trkpt lat="45.1254186987714" lon="10.007791398074232"><ele>36.0</ele><time>2026-04-26T08:59:03Z</time></trkpt><trkpt lat="45.125323185173976" lon="10.007690932611789"><ele>35.5</ele><time>2026-04-26T08:59:05Z</time></trkpt><trkpt lat="45.125229800018836" lon="10.00759270593844"><ele>35.0</ele><time>2026-04-26T08:59:07Z</time></trkpt><trkpt lat="45.12513650698895" lon="10.007495147774684"><ele>34.5</ele><time>2026-04-26T08:59:09Z</time></trkpt><trkpt lat="45.12504012239421" lon="10.007394530588087"><ele>34.0</ele><time>2026-04-26T08:59:11Z</time></trkpt><trkpt lat="45.12493904557986" lon="10.00728898246895"><ele>33.5</ele><time>2026-04-26T08:59:13Z</time></trkpt><trkpt lat="45.124844374898444" lon="10.00718905061271"><ele>33.0</ele><time>2026-04-26T08:59:15Z</time></trkpt><trkpt lat="45.12475502610514" lon="10.007094736355684"><ele>33.666666666666664</ele><time>2026-04-26T08:59:17Z</time></trkpt><trkpt lat="45.12468075380391" lon="10.007016336513402"><ele>34.333333333333336</ele><time>2026-04-26T08:59:19Z</time></trkpt><trkpt lat="45.12461409354164" lon="10.007015283740532"><ele>35.0</ele><time>2026-04-26T08:59:21Z</time></trkpt><trkpt lat="45.12457278887082" lon="10.007098251709586"><ele>35.66666666666667</ele><time>2026-04-26T08:59:23Z</time></trkpt><trkpt lat="45.124528351518244" lon="10.007211847448648"><ele>36.333333333333336</ele><time>2026-04-26T08:59:25Z</time></trkpt><trkpt lat="45.124478784979495" lon="10.007353932784257"><ele>37.0</ele><time>2026-04-26T08:59:27Z</time></trkpt><trkpt lat="45.124429101286815" lon="10.007500488837557"><ele>37.0</ele><time>2026-04-26T08:59:29Z</time></trkpt><trkpt lat="45.12436870643892" lon="10.007650139623882"><ele>37.0</ele><time>2026-04-26T08:59:31Z</time></trkpt><trkpt lat="45.12433866434869" lon="10.007732638419364"><ele>37.0</ele><time>2026-04-26T08:59:32Z</time></trkpt><trkpt lat="45.124308462755444" lon="10.007812561009127"><ele>37.0</ele><time>2026-04-26T08:59:33Z</time></trkpt><trkpt lat="45.12425148846202" lon="10.007981056256721"><ele>37.0</ele><time>2026-04-26T08:59:35Z</time></trkpt><trkpt lat="45.12422182993848" lon="10.008060632130336"><ele>37.0</ele><time>2026-04-26T08:59:36Z</time></trkpt><trkpt lat="45.124192145704484" lon="10.008151634404982"><ele>37.0</ele><time>2026-04-26T08:59:37Z</time></trkpt><trkpt lat="45.12415425616453" lon="10.008260615101115"><ele>37.0</ele><time>2026-04-26T08:59:38Z</time></trkpt><trkpt lat="45.124132523178375" lon="10.008349147169792"><ele>37.0</ele><time>2026-04-26T08:59:39Z</time></trkpt><trkpt lat="45.1241042349821" lon="10.008438770505775"><ele>37.0</ele><time>2026-04-26T08:59:40Z</time></trkpt><trkpt lat="45.124076504002204" lon="10.00853029428735"><ele>37.0</ele><time>2026-04-26T08:59:41Z</time></trkpt><trkpt lat="45.1240452947547" lon="10.008625769154504"><ele>37.0</ele><time>2026-04-26T08:59:42Z</time></trkpt><trkpt lat="45.12401442929052" lon="10.008718485164014"><ele>37.0</ele><time>2026-04-26T08:59:42.999Z</time></trkpt><trkpt lat="45.12398411917337" lon="10.008812776197644"><ele>36.714285714285715</ele><time>2026-04-26T08:59:43.999Z</time></trkpt><trkpt lat="45.123954376180755" lon="10.008906576841161"><ele>36.42857142857143</ele><time>2026-04-26T08:59:44.999Z</time></trkpt><trkpt lat="45.12392377177734" lon="10.009001111175893"><ele>36.14285714285714</ele><time>2026-04-26T08:59:45.999Z</time></trkpt><trkpt lat="45.123892925415674" lon="10.009093042946748"><ele>35.85714285714286</ele><time>2026-04-26T08:59:46.999Z</time></trkpt><trkpt lat="45.12386278784986" lon="10.009188581196485"><ele>35.57142857142857</ele><time>2026-04-26T08:59:47.999Z</time></trkpt><trkpt lat="45.123832307320086" lon="10.009280546297186"><ele>35.285714285714285</ele><time>2026-04-26T08:59:48.999Z</time></trkpt><trkpt lat="45.12380000868156" lon="10.009372811094112"><ele>35.0</ele><time>2026-04-26T08:59:49.999Z</time></trkpt><trkpt lat="45.1237668652629" lon="10.009466987744933"><ele>35.0</ele><time>2026-04-26T08:59:50.999Z</time></trkpt><trkpt lat="45.12373741522829" lon="10.009562664867502"><ele>35.0</ele><time>2026-04-26T08:59:51.999Z</time></trkpt><trkpt lat="45.12370809612354" lon="10.009658988318314"><ele>35.0</ele><time>2026-04-26T08:59:52.999Z</time></trkpt><trkpt lat="45.12367813332858" lon="10.00975527579192"><ele>35.0</ele><time>2026-04-26T08:59:53.999Z</time></trkpt><trkpt lat="45.123646430169295" lon="10.00985133430616"><ele>35.0</ele><time>2026-04-26T08:59:54.999Z</time></trkpt><trkpt lat="45.12361303716631" lon="10.009945045727418"><ele>35.0</ele><time>2026-04-26T08:59:55.999Z</time></trkpt><trkpt lat="45.1235819843499" lon="10.010042637759565"><ele>35.0</ele><time>2026-04-26T08:59:56.999Z</time></trkpt><trkpt lat="45.12355110099354" lon="10.01013963397196"><ele>34.83333333333333</ele><time>2026-04-26T08:59:57.999Z</time></trkpt><trkpt lat="45.12352025188315" lon="10.010236185481347"><ele>34.666666666666664</ele><time>2026-04-26T08:59:58.999Z</time></trkpt><trkpt lat="45.12348975356912" lon="10.010332892659285"><ele>34.5</ele><time>2026-04-26T08:59:59.999Z</time></trkpt><trkpt lat="45.123456976401634" lon="10.010428054589015"><ele>34.333333333333336</ele><time>2026-04-26T09:00:00.999Z</time></trkpt><trkpt lat="45.123422523757355" lon="10.010523587095856"><ele>34.16666666666667</ele><time>2026-04-26T09:00:01.999Z</time></trkpt><trkpt lat="45.12338797677026" lon="10.010618917525159"><ele>34.0</ele><time>2026-04-26T09:00:02.999Z</time></trkpt><trkpt lat="45.12335496355332" lon="10.010713866638401"><ele>34.0</ele><time>2026-04-26T09:00:03.999Z</time></trkpt><trkpt lat="45.12332034183666" lon="10.010809790028489"><ele>34.0</ele><time>2026-04-26T09:00:04.999Z</time></trkpt><trkpt lat="45.12328664176844" lon="10.010906395864941"><ele>34.0</ele><time>2026-04-26T09:00:05.999Z</time></trkpt><trkpt lat="45.123256047795536" lon="10.011004698741687"><ele>34.0</ele><time>2026-04-26T09:00:06.999Z</time></trkpt><trkpt lat="45.12322482290159" lon="10.011101270971976"><ele>34.0</ele><time>2026-04-26T09:00:07.999Z</time></trkpt><trkpt lat="45.12319084744559" lon="10.011198255150799"><ele>34.0</ele><time>2026-04-26T09:00:08.999Z</time></trkpt><trkpt lat="45.12315320527836" lon="10.011290332252273"><ele>34.0</ele><time>2026-04-26T09:00:09.999Z</time></trkpt><trkpt lat="45.12311914607945" lon="10.011386032338393"><ele>34.0</ele><time>2026-04-26T09:00:10.999Z</time></trkpt><trkpt lat="45.12308909123061" lon="10.011484658582317"><ele>34.0</ele><time>2026-04-26T09:00:11.999Z</time></trkpt><trkpt lat="45.1230577676747" lon="10.011581703578045"><ele>34.0</ele><time>2026-04-26T09:00:12.999Z</time></trkpt><trkpt lat="45.12302520560376" lon="10.011677857473801"><ele>34.0</ele><time>2026-04-26T09:00:13.999Z</time></trkpt><trkpt lat="45.122992981094946" lon="10.01177292767675"><ele>34.0</ele><time>2026-04-26T09:00:14.999Z</time></trkpt><trkpt lat="45.12296087046826" lon="10.011870712973558"><ele>33.99999999999999</ele><time>2026-04-26T09:00:15.999Z</time></trkpt><trkpt lat="45.12292984295667" lon="10.011964691873752"><ele>34.0</ele><time>2026-04-26T09:00:16.999Z</time></trkpt><trkpt lat="45.12289860148318" lon="10.012059729663518"><ele>34.0</ele><time>2026-04-26T09:00:17.999Z</time></trkpt><trkpt lat="45.122867587364645" lon="10.012155050224465"><ele>34.0</ele><time>2026-04-26T09:00:18.999Z</time></trkpt><trkpt lat="45.12283673301537" lon="10.012249988527717"><ele>34.0</ele><time>2026-04-26T09:00:19.999Z</time></trkpt><trkpt lat="45.12280441593513" lon="10.012346969285808"><ele>33.99999999999999</ele><time>2026-04-26T09:00:20.999Z</time></trkpt><trkpt lat="45.1227728240873" lon="10.012442763888194"><ele>34.0</ele><time>2026-04-26T09:00:21.999Z</time></trkpt><trkpt lat="45.12274119119436" lon="10.012538038762541"><ele>33.5</ele><time>2026-04-26T09:00:22.999Z</time></trkpt><trkpt lat="45.12270742531694" lon="10.012630863610758"><ele>33.0</ele><time>2026-04-26T09:00:23.999Z</time></trkpt><trkpt lat="45.12266822181316" lon="10.012723934769022"><ele>32.5</ele><time>2026-04-26T09:00:24.999Z</time></trkpt><trkpt lat="45.12262759263145" lon="10.012815410312099"><ele>32.0</ele><time>2026-04-26T09:00:25.999Z</time></trkpt><trkpt lat="45.12258572827278" lon="10.012905311005763"><ele>31.500000000000004</ele><time>2026-04-26T09:00:26.999Z</time></trkpt><trkpt lat="45.12254517591374" lon="10.01299587447074"><ele>31.0</ele><time>2026-04-26T09:00:27.999Z</time></trkpt><trkpt lat="45.12250304584566" lon="10.01308526140733"><ele>31.000000000000004</ele><time>2026-04-26T09:00:28.999Z</time></trkpt><trkpt lat="45.12245909182154" lon="10.013174044606968"><ele>31.0</ele><time>2026-04-26T09:00:29.999Z</time></trkpt><trkpt lat="45.12241198259078" lon="10.013258239217182"><ele>31.0</ele><time>2026-04-26T09:00:30.999Z</time></trkpt><trkpt lat="45.122361982345254" lon="10.013340499884942"><ele>31.0</ele><time>2026-04-26T09:00:31.999Z</time></trkpt><trkpt lat="45.1223122701976" lon="10.013423282334262"><ele>31.000000000000004</ele><time>2026-04-26T09:00:32.999Z</time></trkpt><trkpt lat="45.12226134271027" lon="10.01350473637762"><ele>31.0</ele><time>2026-04-26T09:00:33.999Z</time></trkpt><trkpt lat="45.12221152459294" lon="10.013586940071821"><ele>31.166666666666668</ele><time>2026-04-26T09:00:34.999Z</time></trkpt><trkpt lat="45.122160428546486" lon="10.013669318801893"><ele>31.333333333333336</ele><time>2026-04-26T09:00:35.999Z</time></trkpt><trkpt lat="45.12210884911984" lon="10.013749597315831"><ele>31.5</ele><time>2026-04-26T09:00:36.999Z</time></trkpt><trkpt lat="45.12205484096771" lon="10.01382960412788"><ele>31.666666666666664</ele><time>2026-04-26T09:00:37.999Z</time></trkpt><trkpt lat="45.12200422611488" lon="10.013911625876819"><ele>31.833333333333332</ele><time>2026-04-26T09:00:38.998Z</time></trkpt><trkpt lat="45.12195323004206" lon="10.013994024455378"><ele>32.0</ele><time>2026-04-26T09:00:39.998Z</time></trkpt><trkpt lat="45.12190258606787" lon="10.014075095838498"><ele>32.83333333333333</ele><time>2026-04-26T09:00:40.998Z</time></trkpt><trkpt lat="45.12185348992876" lon="10.014157318546976"><ele>33.666666666666664</ele><time>2026-04-26T09:00:41.998Z</time></trkpt><trkpt lat="45.12180282444154" lon="10.014239730643695"><ele>34.5</ele><time>2026-04-26T09:00:42.998Z</time></trkpt><trkpt lat="45.12175267395603" lon="10.014321547144963"><ele>35.333333333333336</ele><time>2026-04-26T09:00:43.998Z</time></trkpt><trkpt lat="45.12170311473276" lon="10.01440382819697"><ele>36.16666666666667</ele><time>2026-04-26T09:00:44.998Z</time></trkpt><trkpt lat="45.12165372127902" lon="10.014483888170094"><ele>37.0</ele><time>2026-04-26T09:00:45.998Z</time></trkpt><trkpt lat="45.12160151455069" lon="10.014563846305224"><ele>36.833333333333336</ele><time>2026-04-26T09:00:46.998Z</time></trkpt><trkpt lat="45.121551156409744" lon="10.014645290865126"><ele>36.66666666666667</ele><time>2026-04-26T09:00:47.998Z</time></trkpt><trkpt lat="45.12150105845217" lon="10.01472742316041"><ele>36.5</ele><time>2026-04-26T09:00:49Z</time></trkpt><trkpt lat="45.12145076013189" lon="10.014810817271321"><ele>36.333333333333336</ele><time>2026-04-26T09:00:50Z</time></trkpt><trkpt lat="45.121399639721304" lon="10.01489326197512"><ele>36.166666666666664</ele><time>2026-04-26T09:00:51Z</time></trkpt><trkpt lat="45.12135025406699" lon="10.014978616750572"><ele>36.0</ele><time>2026-04-26T09:00:52Z</time></trkpt><trkpt lat="45.12130279664532" lon="10.015063563175449"><ele>36.0</ele><time>2026-04-26T09:00:53Z</time></trkpt><trkpt lat="45.121255888296" lon="10.015151450394574"><ele>36.0</ele><time>2026-04-26T09:00:54Z</time></trkpt><trkpt lat="45.1212071450476" lon="10.015234758707253"><ele>36.0</ele><time>2026-04-26T09:00:55Z</time></trkpt><trkpt lat="45.121158501221146" lon="10.015323128157007"><ele>36.0</ele><time>2026-04-26T09:00:56Z</time></trkpt><trkpt lat="45.121110319544776" lon="10.015411054879136"><ele>36.0</ele><time>2026-04-26T09:00:57Z</time></trkpt><trkpt lat="45.12106414886156" lon="10.015498111899436"><ele>36.0</ele><time>2026-04-26T09:00:58Z</time></trkpt><trkpt lat="45.121014821245815" lon="10.015584085485603"><ele>36.0</ele><time>2026-04-26T09:00:59Z</time></trkpt><trkpt lat="45.1209672185658" lon="10.01566868146376"><ele>36.0</ele><time>2026-04-26T09:01:00Z</time></trkpt><trkpt lat="45.12091995660514" lon="10.01575423027061"><ele>36.0</ele><time>2026-04-26T09:01:01Z</time></trkpt><trkpt lat="45.12087290063762" lon="10.015842870714355"><ele>36.0</ele><time>2026-04-26T09:01:02Z</time></trkpt><trkpt lat="45.12082588245358" lon="10.015928310155756"><ele>36.0</ele><time>2026-04-26T09:01:03Z</time></trkpt><trkpt lat="45.120779300485516" lon="10.016016000336682"><ele>36.0</ele><time>2026-04-26T09:01:04Z</time></trkpt><trkpt lat="45.12073245406091" lon="10.016104168202894"><ele>35.333333333333336</ele><time>2026-04-26T09:01:05Z</time></trkpt><trkpt lat="45.120688225046024" lon="10.016192175924557"><ele>34.666666666666664</ele><time>2026-04-26T09:01:06Z</time></trkpt><trkpt lat="45.12064210433758" lon="10.016279911171925"><ele>34.0</ele><time>2026-04-26T09:01:07Z</time></trkpt><trkpt lat="45.12059843247165" lon="10.016369125553716"><ele>33.33333333333333</ele><time>2026-04-26T09:01:08Z</time></trkpt><trkpt lat="45.120555309433115" lon="10.016457848333818"><ele>32.666666666666664</ele><time>2026-04-26T09:01:09Z</time></trkpt><trkpt lat="45.12051534753883" lon="10.016548880400297"><ele>32.0</ele><time>2026-04-26T09:01:10Z</time></trkpt><trkpt lat="45.12047550259238" lon="10.016639288212627"><ele>32.33333333333333</ele><time>2026-04-26T09:01:11Z</time></trkpt><trkpt lat="45.12043671206644" lon="10.016732166451721"><ele>32.666666666666664</ele><time>2026-04-26T09:01:12Z</time></trkpt><trkpt lat="45.120398255958776" lon="10.01682523417401"><ele>33.0</ele><time>2026-04-26T09:01:13Z</time></trkpt><trkpt lat="45.12035923815619" lon="10.016917347275294"><ele>33.333333333333336</ele><time>2026-04-26T09:01:14Z</time></trkpt><trkpt lat="45.12032150513564" lon="10.017010465658743"><ele>33.66666666666667</ele><time>2026-04-26T09:01:15Z</time></trkpt><trkpt lat="45.12028215307544" lon="10.017104446312306"><ele>34.0</ele><time>2026-04-26T09:01:16Z</time></trkpt><trkpt lat="45.12024459904159" lon="10.01719700781007"><ele>34.0</ele><time>2026-04-26T09:01:17Z</time></trkpt><trkpt lat="45.12020552638614" lon="10.017289358016233"><ele>34.0</ele><time>2026-04-26T09:01:18Z</time></trkpt><trkpt lat="45.12015273497367" lon="10.01736876982962"><ele>34.0</ele><time>2026-04-26T09:01:19Z</time></trkpt><trkpt lat="45.12012479314076" lon="10.017470191731089"><ele>34.0</ele><time>2026-04-26T09:01:20Z</time></trkpt><trkpt lat="45.12008296152536" lon="10.017558834794237"><ele>34.0</ele><time>2026-04-26T09:01:21Z</time></trkpt><trkpt lat="45.12004323165832" lon="10.017652830681948"><ele>34.0</ele><time>2026-04-26T09:01:22Z</time></trkpt><trkpt lat="45.12000488276435" lon="10.01774728454132"><ele>34.0</ele><time>2026-04-26T09:01:23Z</time></trkpt><trkpt lat="45.11996563881081" lon="10.017840121359807"><ele>34.0</ele><time>2026-04-26T09:01:24Z</time></trkpt><trkpt lat="45.11992694162688" lon="10.017932627311778"><ele>34.0</ele><time>2026-04-26T09:01:25Z</time></trkpt><trkpt lat="45.11988782984301" lon="10.018023667506409"><ele>34.0</ele><time>2026-04-26T09:01:26Z</time></trkpt><trkpt lat="45.11984989744978" lon="10.01811714407647"><ele>34.0</ele><time>2026-04-26T09:01:27Z</time></trkpt><trkpt lat="45.11981187579259" lon="10.018210656207192"><ele>34.0</ele><time>2026-04-26T09:01:28Z</time></trkpt><trkpt lat="45.119759252028054" lon="10.01829175599856"><ele>33.66666666666667</ele><time>2026-04-26T09:01:29Z</time></trkpt><trkpt lat="45.11972047223697" lon="10.018383993201052"><ele>33.333333333333336</ele><time>2026-04-26T09:01:30Z</time></trkpt><trkpt lat="45.11968161996862" lon="10.01847601106151"><ele>33.0</ele><time>2026-04-26T09:01:31Z</time></trkpt><trkpt lat="45.11964296629001" lon="10.018567416913001"><ele>32.666666666666664</ele><time>2026-04-26T09:01:32Z</time></trkpt><trkpt lat="45.11961636032129" lon="10.018670716026158"><ele>32.33333333333333</ele><time>2026-04-26T09:01:33Z</time></trkpt><trkpt lat="45.11957319619447" lon="10.018761713884455"><ele>32.0</ele><time>2026-04-26T09:01:34Z</time></trkpt><trkpt lat="45.119534975721734" lon="10.018854737305348"><ele>31.999999999999996</ele><time>2026-04-26T09:01:35Z</time></trkpt><trkpt lat="45.119499552728186" lon="10.01894872175174"><ele>32.0</ele><time>2026-04-26T09:01:36Z</time></trkpt><trkpt lat="45.119460966285594" lon="10.019042347777916"><ele>32.0</ele><time>2026-04-26T09:01:37Z</time></trkpt><trkpt lat="45.119420432214994" lon="10.019134036228591"><ele>32.0</ele><time>2026-04-26T09:01:38Z</time></trkpt><trkpt lat="45.11938042175761" lon="10.01922728275552"><ele>31.999999999999996</ele><time>2026-04-26T09:01:39Z</time></trkpt><trkpt lat="45.11934172021898" lon="10.019321174103544"><ele>32.0</ele><time>2026-04-26T09:01:40Z</time></trkpt><trkpt lat="45.1193002135972" lon="10.019412356115224"><ele>31.999999999999996</ele><time>2026-04-26T09:01:41Z</time></trkpt><trkpt lat="45.11925671240099" lon="10.01950133612361"><ele>32.0</ele><time>2026-04-26T09:01:42Z</time></trkpt><trkpt lat="45.11920900451792" lon="10.0195875333109"><ele>32.0</ele><time>2026-04-26T09:01:43Z</time></trkpt><trkpt lat="45.119148160146615" lon="10.019655107089681"><ele>32.0</ele><time>2026-04-26T09:01:44Z</time></trkpt><trkpt lat="45.11909745793353" lon="10.019734732705999"><ele>31.999999999999996</ele><time>2026-04-26T09:01:45Z</time></trkpt><trkpt lat="45.11904673099536" lon="10.019813310738625"><ele>32.0</ele><time>2026-04-26T09:01:45.999Z</time></trkpt><trkpt lat="45.11899469105204" lon="10.019892745582236"><ele>31.999999999999996</ele><time>2026-04-26T09:01:46.999Z</time></trkpt><trkpt lat="45.11894284387795" lon="10.019971327468756"><ele>32.0</ele><time>2026-04-26T09:01:47.999Z</time></trkpt><trkpt lat="45.11888869962748" lon="10.020050946918614"><ele>32.0</ele><time>2026-04-26T09:01:48.999Z</time></trkpt><trkpt lat="45.11883527485451" lon="10.020129508448967"><ele>32.0</ele><time>2026-04-26T09:01:49.999Z</time></trkpt><trkpt lat="45.118792654946546" lon="10.020223757128974"><ele>31.999999999999996</ele><time>2026-04-26T09:01:50.999Z</time></trkpt><trkpt lat="45.1187378580128" lon="10.02030232374668"><ele>32.0</ele><time>2026-04-26T09:01:51.999Z</time></trkpt><trkpt lat="45.11868405296659" lon="10.020383140640572"><ele>32.166666666666664</ele><time>2026-04-26T09:01:52.999Z</time></trkpt><trkpt lat="45.11861969646613" lon="10.020446449924451"><ele>32.33333333333333</ele><time>2026-04-26T09:01:53.999Z</time></trkpt><trkpt lat="45.11856476068208" lon="10.020527082494729"><ele>32.5</ele><time>2026-04-26T09:01:54.999Z</time></trkpt><trkpt lat="45.11851201380077" lon="10.020604505091626"><ele>32.666666666666664</ele><time>2026-04-26T09:01:55.999Z</time></trkpt><trkpt lat="45.118470247042545" lon="10.020697464262659"><ele>32.833333333333336</ele><time>2026-04-26T09:01:56.999Z</time></trkpt><trkpt lat="45.11841270294251" lon="10.020768905688815"><ele>33.0</ele><time>2026-04-26T09:01:57.999Z</time></trkpt><trkpt lat="45.118357198897115" lon="10.020842382461309"><ele>33.0</ele><time>2026-04-26T09:01:58.999Z</time></trkpt><trkpt lat="45.11830333687788" lon="10.02092065888906"><ele>33.0</ele><time>2026-04-26T09:01:59.999Z</time></trkpt><trkpt lat="45.11825059800886" lon="10.020996506270134"><ele>33.0</ele><time>2026-04-26T09:02:00.999Z</time></trkpt><trkpt lat="45.11819559504098" lon="10.021070590620806"><ele>33.0</ele><time>2026-04-26T09:02:01.999Z</time></trkpt><trkpt lat="45.11813911148655" lon="10.021141862370992"><ele>33.0</ele><time>2026-04-26T09:02:02.999Z</time></trkpt><trkpt lat="45.11808088201526" lon="10.021210411569037"><ele>33.0</ele><time>2026-04-26T09:02:03.999Z</time></trkpt><trkpt lat="45.118023605773956" lon="10.021278413229622"><ele>33.0</ele><time>2026-04-26T09:02:04.999Z</time></trkpt><trkpt lat="45.11796420505781" lon="10.021345720387448"><ele>33.0</ele><time>2026-04-26T09:02:05.999Z</time></trkpt><trkpt lat="45.117905996534546" lon="10.021415511957288"><ele>33.0</ele><time>2026-04-26T09:02:06.999Z</time></trkpt><trkpt lat="45.117846301293994" lon="10.021485069380144"><ele>33.0</ele><time>2026-04-26T09:02:07.999Z</time></trkpt><trkpt lat="45.117788522112825" lon="10.021552928141025"><ele>33.0</ele><time>2026-04-26T09:02:08.999Z</time></trkpt><trkpt lat="45.11772929709963" lon="10.02162050344729"><ele>33.0</ele><time>2026-04-26T09:02:09.999Z</time></trkpt><trkpt lat="45.117670749333215" lon="10.021688288128763"><ele>33.0</ele><time>2026-04-26T09:02:10.999Z</time></trkpt><trkpt lat="45.11761250861854" lon="10.02175703773979"><ele>33.0</ele><time>2026-04-26T09:02:11.999Z</time></trkpt><trkpt lat="45.117553746570714" lon="10.021823905422044"><ele>33.0</ele><time>2026-04-26T09:02:12.999Z</time></trkpt><trkpt lat="45.117495414037485" lon="10.02189317557351"><ele>33.0</ele><time>2026-04-26T09:02:13.999Z</time></trkpt><trkpt lat="45.117436366804974" lon="10.021962620300645"><ele>33.0</ele><time>2026-04-26T09:02:14.999Z</time></trkpt><trkpt lat="45.117378285392306" lon="10.022032313044326"><ele>33.0</ele><time>2026-04-26T09:02:15.999Z</time></trkpt><trkpt lat="45.1173201955169" lon="10.022098969785521"><ele>33.0</ele><time>2026-04-26T09:02:16.999Z</time></trkpt><trkpt lat="45.11726036486194" lon="10.022167295232181"><ele>33.0</ele><time>2026-04-26T09:02:17.999Z</time></trkpt><trkpt lat="45.11720205773683" lon="10.022234286646896"><ele>33.0</ele><time>2026-04-26T09:02:18.999Z</time></trkpt><trkpt lat="45.11714620335945" lon="10.022304344549987"><ele>33.0</ele><time>2026-04-26T09:02:19.999Z</time></trkpt><trkpt lat="45.117087998991174" lon="10.02237505148428"><ele>33.0</ele><time>2026-04-26T09:02:20.999Z</time></trkpt><trkpt lat="45.11703230233211" lon="10.022443797979482"><ele>33.0</ele><time>2026-04-26T09:02:21.999Z</time></trkpt><trkpt lat="45.11697415529887" lon="10.022511779382947"><ele>33.0</ele><time>2026-04-26T09:02:22.999Z</time></trkpt><trkpt lat="45.116918527622296" lon="10.022583291901729"><ele>33.0</ele><time>2026-04-26T09:02:23.999Z</time></trkpt><trkpt lat="45.11686656566503" lon="10.022661250071042"><ele>33.0</ele><time>2026-04-26T09:02:24.999Z</time></trkpt><trkpt lat="45.116817346246734" lon="10.02274477430435"><ele>33.0</ele><time>2026-04-26T09:02:25.999Z</time></trkpt><trkpt lat="45.11676922354469" lon="10.02282735682526"><ele>33.0</ele><time>2026-04-26T09:02:26.999Z</time></trkpt><trkpt lat="45.116721768669976" lon="10.022913617814456"><ele>33.0</ele><time>2026-04-26T09:02:27.999Z</time></trkpt><trkpt lat="45.11667489471398" lon="10.02300071083078"><ele>33.0</ele><time>2026-04-26T09:02:28.999Z</time></trkpt><trkpt lat="45.11662924801237" lon="10.023087819888055"><ele>33.0</ele><time>2026-04-26T09:02:29.999Z</time></trkpt><trkpt lat="45.11658126657264" lon="10.023171813199742"><ele>33.0</ele><time>2026-04-26T09:02:30.999Z</time></trkpt><trkpt lat="45.11653435804008" lon="10.023258457622932"><ele>33.0</ele><time>2026-04-26T09:02:31.999Z</time></trkpt><trkpt lat="45.11648841336164" lon="10.023346282224836"><ele>33.0</ele><time>2026-04-26T09:02:32.999Z</time></trkpt><trkpt lat="45.11644274705938" lon="10.023434330621765"><ele>33.0</ele><time>2026-04-26T09:02:33.999Z</time></trkpt><trkpt lat="45.1163976586283" lon="10.02352242644836"><ele>32.833333333333336</ele><time>2026-04-26T09:02:34.999Z</time></trkpt><trkpt lat="45.11635645177114" lon="10.023614698561541"><ele>32.666666666666664</ele><time>2026-04-26T09:02:35.999Z</time></trkpt><trkpt lat="45.11631745517504" lon="10.023710053556623"><ele>32.5</ele><time>2026-04-26T09:02:36.999Z</time></trkpt><trkpt lat="45.116281012688496" lon="10.023807310983065"><ele>32.33333333333333</ele><time>2026-04-26T09:02:37.999Z</time></trkpt><trkpt lat="45.116244083911134" lon="10.023901865663232"><ele>32.166666666666664</ele><time>2026-04-26T09:02:38.999Z</time></trkpt><trkpt lat="45.11620852123026" lon="10.023999012464246"><ele>32.0</ele><time>2026-04-26T09:02:39.999Z</time></trkpt><trkpt lat="45.11617334711913" lon="10.024098268287444"><ele>31.999999999999996</ele><time>2026-04-26T09:02:40.998Z</time></trkpt><trkpt lat="45.11613861313275" lon="10.024196371864006"><ele>32.0</ele><time>2026-04-26T09:02:41.998Z</time></trkpt><trkpt lat="45.11610428852051" lon="10.024293650322294"><ele>32.0</ele><time>2026-04-26T09:02:42.998Z</time></trkpt><trkpt lat="45.11606717396613" lon="10.024390661914502"><ele>32.0</ele><time>2026-04-26T09:02:43.998Z</time></trkpt><trkpt lat="45.116031134405986" lon="10.02448895651469"><ele>31.999999999999996</ele><time>2026-04-26T09:02:44.998Z</time></trkpt><trkpt lat="45.1159943273664" lon="10.024585519863807"><ele>32.0</ele><time>2026-04-26T09:02:45.998Z</time></trkpt><trkpt lat="45.115957871846945" lon="10.024680564292588"><ele>31.999999999999996</ele><time>2026-04-26T09:02:46.998Z</time></trkpt><trkpt lat="45.11592086544191" lon="10.024774363299457"><ele>32.0</ele><time>2026-04-26T09:02:47.998Z</time></trkpt><trkpt lat="45.1158829634011" lon="10.024868045476241"><ele>32.0</ele><time>2026-04-26T09:02:48.998Z</time></trkpt><trkpt lat="45.11584258063415" lon="10.024959197113239"><ele>32.0</ele><time>2026-04-26T09:02:49.998Z</time></trkpt><trkpt lat="45.11577403143943" lon="10.02501851115112"><ele>31.999999999999996</ele><time>2026-04-26T09:02:50.998Z</time></trkpt><trkpt lat="45.1157247120097" lon="10.025100438210028"><ele>32.0</ele><time>2026-04-26T09:02:51.998Z</time></trkpt><trkpt lat="45.115653407336865" lon="10.025145413882747"><ele>31.833333333333332</ele><time>2026-04-26T09:02:52.998Z</time></trkpt><trkpt lat="45.11557857863253" lon="10.025179452543611"><ele>31.666666666666664</ele><time>2026-04-26T09:02:53.998Z</time></trkpt><trkpt lat="45.115504292099494" lon="10.025209934632223"><ele>31.5</ele><time>2026-04-26T09:02:55Z</time></trkpt><trkpt lat="45.11542880997895" lon="10.02524232401151"><ele>31.333333333333336</ele><time>2026-04-26T09:02:56Z</time></trkpt><trkpt lat="45.11535327574532" lon="10.025269881683622"><ele>31.166666666666668</ele><time>2026-04-26T09:02:57Z</time></trkpt><trkpt lat="45.115278582536206" lon="10.02529915727444"><ele>31.0</ele><time>2026-04-26T09:02:58Z</time></trkpt><trkpt lat="45.11520701763293" lon="10.025330930222747"><ele>31.000000000000004</ele><time>2026-04-26T09:02:59Z</time></trkpt><trkpt lat="45.115134676414286" lon="10.025363622789989"><ele>31.0</ele><time>2026-04-26T09:03:00Z</time></trkpt><trkpt lat="45.11506151776456" lon="10.025395694763002"><ele>31.0</ele><time>2026-04-26T09:03:01Z</time></trkpt><trkpt lat="45.11498778442064" lon="10.025425367319132"><ele>31.0</ele><time>2026-04-26T09:03:02Z</time></trkpt><trkpt lat="45.1149145548221" lon="10.02545356285549"><ele>31.000000000000004</ele><time>2026-04-26T09:03:03Z</time></trkpt><trkpt lat="45.1148408111391" lon="10.025482163898795"><ele>31.0</ele><time>2026-04-26T09:03:04Z</time></trkpt><trkpt lat="45.114764974166505" lon="10.025508519414327"><ele>31.000000000000004</ele><time>2026-04-26T09:03:05Z</time></trkpt><trkpt lat="45.114691748746054" lon="10.025534376179435"><ele>31.0</ele><time>2026-04-26T09:03:06Z</time></trkpt><trkpt lat="45.11461888103498" lon="10.025561663214697"><ele>31.0</ele><time>2026-04-26T09:03:07Z</time></trkpt><trkpt lat="45.11454597289574" lon="10.025588553339741"><ele>31.0</ele><time>2026-04-26T09:03:08Z</time></trkpt><trkpt lat="45.11447212260299" lon="10.025613633938036"><ele>31.000000000000004</ele><time>2026-04-26T09:03:09Z</time></trkpt><trkpt lat="45.11439134849454" lon="10.0256151107081"><ele>31.0</ele><time>2026-04-26T09:03:10Z</time></trkpt><trkpt lat="45.11431913813272" lon="10.025653716383982"><ele>31.000000000000004</ele><time>2026-04-26T09:03:11Z</time></trkpt><trkpt lat="45.11424145300218" lon="10.025659489377695"><ele>31.0</ele><time>2026-04-26T09:03:12Z</time></trkpt><trkpt lat="45.11416541468952" lon="10.025679518638738"><ele>31.0</ele><time>2026-04-26T09:03:13Z</time></trkpt><trkpt lat="45.114090775781726" lon="10.025707023186275"><ele>31.0</ele><time>2026-04-26T09:03:14Z</time></trkpt><trkpt lat="45.114017093479454" lon="10.025734502226756"><ele>31.000000000000004</ele><time>2026-04-26T09:03:15Z</time></trkpt><trkpt lat="45.11394268939569" lon="10.025757396004135"><ele>31.0</ele><time>2026-04-26T09:03:16Z</time></trkpt><trkpt lat="45.11386696656603" lon="10.025781031729982"><ele>31.333333333333336</ele><time>2026-04-26T09:03:17Z</time></trkpt><trkpt lat="45.11379207777148" lon="10.025803129456008"><ele>31.666666666666668</ele><time>2026-04-26T09:03:18Z</time></trkpt><trkpt lat="45.113718212912836" lon="10.02582566752478"><ele>32.0</ele><time>2026-04-26T09:03:19Z</time></trkpt><trkpt lat="45.11364478827415" lon="10.025848621440668"><ele>32.333333333333336</ele><time>2026-04-26T09:03:20Z</time></trkpt><trkpt lat="45.113573174088394" lon="10.025873239473677"><ele>32.666666666666664</ele><time>2026-04-26T09:03:21Z</time></trkpt><trkpt lat="45.11350019301087" lon="10.025899082310689"><ele>33.0</ele><time>2026-04-26T09:03:22Z</time></trkpt><trkpt lat="45.11342379086785" lon="10.025920309520103"><ele>33.0</ele><time>2026-04-26T09:03:23Z</time></trkpt><trkpt lat="45.11334484895232" lon="10.02594739007969"><ele>33.0</ele><time>2026-04-26T09:03:24Z</time></trkpt><trkpt lat="45.113267306221026" lon="10.0259745333734"><ele>33.0</ele><time>2026-04-26T09:03:25Z</time></trkpt><trkpt lat="45.11319347926439" lon="10.025999130919182"><ele>33.0</ele><time>2026-04-26T09:03:26Z</time></trkpt><trkpt lat="45.113118411976124" lon="10.026024871268762"><ele>33.0</ele><time>2026-04-26T09:03:27Z</time></trkpt><trkpt lat="45.11304238954315" lon="10.026052085279519"><ele>33.0</ele><time>2026-04-26T09:03:28Z</time></trkpt><trkpt lat="45.112970591836074" lon="10.026078633257965"><ele>32.833333333333336</ele><time>2026-04-26T09:03:29Z</time></trkpt><trkpt lat="45.112896858536615" lon="10.026105809116816"><ele>32.666666666666664</ele><time>2026-04-26T09:03:30Z</time></trkpt><trkpt lat="45.11282108186241" lon="10.026123724221161"><ele>32.5</ele><time>2026-04-26T09:03:31Z</time></trkpt><trkpt lat="45.112745352964126" lon="10.026146344636963"><ele>32.33333333333333</ele><time>2026-04-26T09:03:32Z</time></trkpt><trkpt lat="45.11267086500928" lon="10.026180566277501"><ele>32.166666666666664</ele><time>2026-04-26T09:03:33Z</time></trkpt><trkpt lat="45.11260063930798" lon="10.026216447060687"><ele>32.0</ele><time>2026-04-26T09:03:34Z</time></trkpt><trkpt lat="45.11253077713313" lon="10.026253230950555"><ele>31.999999999999996</ele><time>2026-04-26T09:03:35Z</time></trkpt><trkpt lat="45.112459355912556" lon="10.02629002767385"><ele>32.0</ele><time>2026-04-26T09:03:36Z</time></trkpt><trkpt lat="45.112385400264714" lon="10.02632937128223"><ele>32.0</ele><time>2026-04-26T09:03:37Z</time></trkpt><trkpt lat="45.112315364670664" lon="10.026369812186042"><ele>32.0</ele><time>2026-04-26T09:03:38Z</time></trkpt><trkpt lat="45.11224319698207" lon="10.026407660804255"><ele>31.999999999999996</ele><time>2026-04-26T09:03:39Z</time></trkpt><trkpt lat="45.112170268727795" lon="10.02644792399415"><ele>32.0</ele><time>2026-04-26T09:03:40Z</time></trkpt><trkpt lat="45.11209840646553" lon="10.026488182532788"><ele>31.999999999999996</ele><time>2026-04-26T09:03:41Z</time></trkpt><trkpt lat="45.112025561826066" lon="10.02652677954582"><ele>32.0</ele><time>2026-04-26T09:03:42Z</time></trkpt><trkpt lat="45.111954273621464" lon="10.026564541692554"><ele>32.0</ele><time>2026-04-26T09:03:43Z</time></trkpt><trkpt lat="45.11188299435837" lon="10.026604353029038"><ele>32.0</ele><time>2026-04-26T09:03:44Z</time></trkpt><trkpt lat="45.11181237069246" lon="10.026647353020037"><ele>31.999999999999996</ele><time>2026-04-26T09:03:45Z</time></trkpt><trkpt lat="45.1117419800086" lon="10.026686186072311"><ele>32.0</ele><time>2026-04-26T09:03:46Z</time></trkpt><trkpt lat="45.111670913559266" lon="10.026727455644343"><ele>31.833333333333332</ele><time>2026-04-26T09:03:47Z</time></trkpt><trkpt lat="45.111598403691254" lon="10.026767274874015"><ele>31.666666666666664</ele><time>2026-04-26T09:03:48Z</time></trkpt><trkpt lat="45.11152647176653" lon="10.026808410157855"><ele>31.5</ele><time>2026-04-26T09:03:49Z</time></trkpt><trkpt lat="45.111453522574045" lon="10.02684930259942"><ele>31.333333333333336</ele><time>2026-04-26T09:03:49.999Z</time></trkpt><trkpt lat="45.11138079938483" lon="10.02689031335232"><ele>31.166666666666668</ele><time>2026-04-26T09:03:50.999Z</time></trkpt><trkpt lat="45.111308689067926" lon="10.026929614096575"><ele>31.0</ele><time>2026-04-26T09:03:51.999Z</time></trkpt><trkpt lat="45.11123545467182" lon="10.026971481097242"><ele>31.666666666666668</ele><time>2026-04-26T09:03:52.999Z</time></trkpt><trkpt lat="45.11116110809565" lon="10.027008404816929"><ele>32.333333333333336</ele><time>2026-04-26T09:03:53.999Z</time></trkpt><trkpt lat="45.1110871252364" lon="10.027046565720854"><ele>33.0</ele><time>2026-04-26T09:03:54.999Z</time></trkpt><trkpt lat="45.11101532977855" lon="10.027088058632796"><ele>33.666666666666664</ele><time>2026-04-26T09:03:55.999Z</time></trkpt><trkpt lat="45.110941634895624" lon="10.027128576892041"><ele>34.33333333333333</ele><time>2026-04-26T09:03:56.999Z</time></trkpt><trkpt lat="45.11086292175966" lon="10.027145283490063"><ele>35.0</ele><time>2026-04-26T09:03:57.999Z</time></trkpt><trkpt lat="45.11078987266187" lon="10.027181107318434"><ele>34.666666666666664</ele><time>2026-04-26T09:03:58.999Z</time></trkpt><trkpt lat="45.11071550508129" lon="10.027215610277334"><ele>34.33333333333333</ele><time>2026-04-26T09:03:59.999Z</time></trkpt><trkpt lat="45.11064085155912" lon="10.027248543382786"><ele>34.0</ele><time>2026-04-26T09:04:00.999Z</time></trkpt><trkpt lat="45.11056602314479" lon="10.027279193418192"><ele>33.666666666666664</ele><time>2026-04-26T09:04:01.999Z</time></trkpt><trkpt lat="45.11048889605769" lon="10.027309197645057"><ele>33.333333333333336</ele><time>2026-04-26T09:04:02.999Z</time></trkpt><trkpt lat="45.11041865086327" lon="10.027356038985817"><ele>33.0</ele><time>2026-04-26T09:04:03.999Z</time></trkpt><trkpt lat="45.110341990206294" lon="10.027378443567626"><ele>33.0</ele><time>2026-04-26T09:04:04.999Z</time></trkpt><trkpt lat="45.11026592657082" lon="10.027403462933998"><ele>33.0</ele><time>2026-04-26T09:04:05.999Z</time></trkpt><trkpt lat="45.11018918193709" lon="10.027429293623033"><ele>33.0</ele><time>2026-04-26T09:04:06.999Z</time></trkpt><trkpt lat="45.110113962334935" lon="10.02745730578881"><ele>33.0</ele><time>2026-04-26T09:04:07.999Z</time></trkpt><trkpt lat="45.110039740209295" lon="10.02748628004166"><ele>33.0</ele><time>2026-04-26T09:04:08.999Z</time></trkpt><trkpt lat="45.10996584614765" lon="10.027513875263493"><ele>33.0</ele><time>2026-04-26T09:04:09.999Z</time></trkpt><trkpt lat="45.10989188577568" lon="10.02754187352291"><ele>32.833333333333336</ele><time>2026-04-26T09:04:10.999Z</time></trkpt><trkpt lat="45.109818256215085" lon="10.027568879767692"><ele>32.666666666666664</ele><time>2026-04-26T09:04:11.999Z</time></trkpt><trkpt lat="45.10974388485897" lon="10.027589555675215"><ele>32.5</ele><time>2026-04-26T09:04:12.999Z</time></trkpt><trkpt lat="45.10966637789069" lon="10.027600144544444"><ele>32.33333333333333</ele><time>2026-04-26T09:04:13.999Z</time></trkpt><trkpt lat="45.109592538687004" lon="10.027622042210009"><ele>32.166666666666664</ele><time>2026-04-26T09:04:14.999Z</time></trkpt><trkpt lat="45.1095178656373" lon="10.027652311869437"><ele>32.0</ele><time>2026-04-26T09:04:15.999Z</time></trkpt><trkpt lat="45.10944483098945" lon="10.027682570087991"><ele>31.999999999999996</ele><time>2026-04-26T09:04:16.999Z</time></trkpt><trkpt lat="45.10937005176679" lon="10.02771453877139"><ele>32.0</ele><time>2026-04-26T09:04:17.999Z</time></trkpt><trkpt lat="45.10929638133288" lon="10.027743584810475"><ele>32.0</ele><time>2026-04-26T09:04:18.999Z</time></trkpt><trkpt lat="45.1092209105528" lon="10.027770816697943"><ele>32.0</ele><time>2026-04-26T09:04:19.999Z</time></trkpt><trkpt lat="45.109145255702146" lon="10.027795681270963"><ele>31.999999999999996</ele><time>2026-04-26T09:04:20.999Z</time></trkpt><trkpt lat="45.109068036630404" lon="10.027818871911249"><ele>32.0</ele><time>2026-04-26T09:04:21.999Z</time></trkpt><trkpt lat="45.108992165623796" lon="10.027841099653873"><ele>32.166666666666664</ele><time>2026-04-26T09:04:22.999Z</time></trkpt><trkpt lat="45.108914726102284" lon="10.027865802047383"><ele>32.33333333333333</ele><time>2026-04-26T09:04:23.999Z</time></trkpt><trkpt lat="45.10883858335006" lon="10.02788823702991"><ele>32.5</ele><time>2026-04-26T09:04:24.999Z</time></trkpt><trkpt lat="45.10876447173638" lon="10.027911150803806"><ele>32.666666666666664</ele><time>2026-04-26T09:04:25.999Z</time></trkpt><trkpt lat="45.10868562121878" lon="10.02793006158221"><ele>32.833333333333336</ele><time>2026-04-26T09:04:26.999Z</time></trkpt><trkpt lat="45.10860788946672" lon="10.02794868893335"><ele>33.0</ele><time>2026-04-26T09:04:27.999Z</time></trkpt><trkpt lat="45.10853344473241" lon="10.027968181277055"><ele>33.0</ele><time>2026-04-26T09:04:28.999Z</time></trkpt><trkpt lat="45.10845695999762" lon="10.027981718806434"><ele>33.0</ele><time>2026-04-26T09:04:29.999Z</time></trkpt><trkpt lat="45.108381143881644" lon="10.027995726474524"><ele>33.0</ele><time>2026-04-26T09:04:30.999Z</time></trkpt><trkpt lat="45.10830536402109" lon="10.028008729123238"><ele>33.0</ele><time>2026-04-26T09:04:31.999Z</time></trkpt><trkpt lat="45.10822899247362" lon="10.028008869258477"><ele>33.0</ele><time>2026-04-26T09:04:32.999Z</time></trkpt><trkpt lat="45.10815044131048" lon="10.028004677647928"><ele>33.0</ele><time>2026-04-26T09:04:33.999Z</time></trkpt><trkpt lat="45.10807415310957" lon="10.02800247018117"><ele>32.833333333333336</ele><time>2026-04-26T09:04:34.999Z</time></trkpt><trkpt lat="45.107998719984955" lon="10.028004376294227"><ele>32.666666666666664</ele><time>2026-04-26T09:04:35.999Z</time></trkpt><trkpt lat="45.107923789220514" lon="10.028005923562999"><ele>32.5</ele><time>2026-04-26T09:04:36.999Z</time></trkpt><trkpt lat="45.107848800374484" lon="10.028002353597365"><ele>32.33333333333333</ele><time>2026-04-26T09:04:37.999Z</time></trkpt><trkpt lat="45.10777222144623" lon="10.028002298103617"><ele>32.166666666666664</ele><time>2026-04-26T09:04:38.999Z</time></trkpt><trkpt lat="45.10769546576015" lon="10.027999652020437"><ele>32.0</ele><time>2026-04-26T09:04:39.999Z</time></trkpt><trkpt lat="45.107618531456296" lon="10.027995164941373"><ele>31.999999999999996</ele><time>2026-04-26T09:04:40.999Z</time></trkpt><trkpt lat="45.107541892928495" lon="10.027992109551212"><ele>32.0</ele><time>2026-04-26T09:04:41.999Z</time></trkpt><trkpt lat="45.10746360235406" lon="10.027991764765309"><ele>32.0</ele><time>2026-04-26T09:04:42.999Z</time></trkpt><trkpt lat="45.10738782004958" lon="10.027987894136109"><ele>32.0</ele><time>2026-04-26T09:04:43.999Z</time></trkpt><trkpt lat="45.10730988891558" lon="10.027985979155645"><ele>31.999999999999996</ele><time>2026-04-26T09:04:44.998Z</time></trkpt><trkpt lat="45.10723427424482" lon="10.027986143461893"><ele>32.0</ele><time>2026-04-26T09:04:45.998Z</time></trkpt><trkpt lat="45.1071570660634" lon="10.027987940347543"><ele>32.5</ele><time>2026-04-26T09:04:46.998Z</time></trkpt><trkpt lat="45.1070812306724" lon="10.027968539474172"><ele>33.0</ele><time>2026-04-26T09:04:47.998Z</time></trkpt><trkpt lat="45.10700533176892" lon="10.027965579965919"><ele>33.5</ele><time>2026-04-26T09:04:48.998Z</time></trkpt><trkpt lat="45.10692807633975" lon="10.027979665821489"><ele>34.0</ele><time>2026-04-26T09:04:49.998Z</time></trkpt><trkpt lat="45.10685010740236" lon="10.027964985002939"><ele>34.5</ele><time>2026-04-26T09:04:50.998Z</time></trkpt><trkpt lat="45.10677059721182" lon="10.02796372429986"><ele>35.0</ele><time>2026-04-26T09:04:51.998Z</time></trkpt><trkpt lat="45.106690916806826" lon="10.027965222706674"><ele>35.0</ele><time>2026-04-26T09:04:52.998Z</time></trkpt><trkpt lat="45.10661365991592" lon="10.027963925989717"><ele>35.0</ele><time>2026-04-26T09:04:53.998Z</time></trkpt><trkpt lat="45.10653388651234" lon="10.027963443984843"><ele>35.0</ele><time>2026-04-26T09:04:54.998Z</time></trkpt><trkpt lat="45.106455484029176" lon="10.027958352431257"><ele>35.0</ele><time>2026-04-26T09:04:55.998Z</time></trkpt><trkpt lat="45.10637634678636" lon="10.027955356157904"><ele>35.0</ele><time>2026-04-26T09:04:56.998Z</time></trkpt><trkpt lat="45.106296021405655" lon="10.027956647490688"><ele>35.0</ele><time>2026-04-26T09:04:57.998Z</time></trkpt><trkpt lat="45.106215924969" lon="10.027955330977566"><ele>34.666666666666664</ele><time>2026-04-26T09:04:58.998Z</time></trkpt><trkpt lat="45.1061372222643" lon="10.027955890298589"><ele>34.33333333333333</ele><time>2026-04-26T09:05:00Z</time></trkpt><trkpt lat="45.106057358877635" lon="10.027956596313743"><ele>34.0</ele><time>2026-04-26T09:05:01Z</time></trkpt><trkpt lat="45.10597855064699" lon="10.027961546290335"><ele>33.666666666666664</ele><time>2026-04-26T09:05:02Z</time></trkpt><trkpt lat="45.10590193904602" lon="10.027979130875693"><ele>33.333333333333336</ele><time>2026-04-26T09:05:03Z</time></trkpt><trkpt lat="45.10582488413553" lon="10.028012419059838"><ele>33.0</ele><time>2026-04-26T09:05:04Z</time></trkpt><trkpt lat="45.1057520205493" lon="10.028050883128177"><ele>32.666666666666664</ele><time>2026-04-26T09:05:05Z</time></trkpt><trkpt lat="45.10567562409024" lon="10.028090554124173"><ele>32.333333333333336</ele><time>2026-04-26T09:05:06Z</time></trkpt><trkpt lat="45.10560234142225" lon="10.028132907757165"><ele>32.0</ele><time>2026-04-26T09:05:07Z</time></trkpt><trkpt lat="45.10552874912738" lon="10.02817640989986"><ele>31.666666666666668</ele><time>2026-04-26T09:05:08Z</time></trkpt><trkpt lat="45.105447018427995" lon="10.028196810232208"><ele>31.333333333333336</ele><time>2026-04-26T09:05:09Z</time></trkpt><trkpt lat="45.10537235949674" lon="10.028236851714713"><ele>31.0</ele><time>2026-04-26T09:05:10Z</time></trkpt><trkpt lat="45.105304403444585" lon="10.028296569112097"><ele>31.666666666666668</ele><time>2026-04-26T09:05:11Z</time></trkpt><trkpt lat="45.105228709710204" lon="10.028329649977302"><ele>32.333333333333336</ele><time>2026-04-26T09:05:12Z</time></trkpt><trkpt lat="45.105154156794825" lon="10.02836699965029"><ele>33.0</ele><time>2026-04-26T09:05:13Z</time></trkpt><trkpt lat="45.10508092736967" lon="10.028406823569984"><ele>33.666666666666664</ele><time>2026-04-26T09:05:14Z</time></trkpt><trkpt lat="45.10500772416354" lon="10.028449722912452"><ele>34.33333333333333</ele><time>2026-04-26T09:05:15Z</time></trkpt><trkpt lat="45.10493547291883" lon="10.028493208647337"><ele>35.0</ele><time>2026-04-26T09:05:16Z</time></trkpt><trkpt lat="45.104864869064116" lon="10.02854313343374"><ele>35.33333333333333</ele><time>2026-04-26T09:05:17Z</time></trkpt><trkpt lat="45.10479720440202" lon="10.02860133087652"><ele>35.666666666666664</ele><time>2026-04-26T09:05:18Z</time></trkpt><trkpt lat="45.104731072838476" lon="10.028661129211736"><ele>36.0</ele><time>2026-04-26T09:05:19Z</time></trkpt><trkpt lat="45.10466413618235" lon="10.028718380489407"><ele>36.333333333333336</ele><time>2026-04-26T09:05:20Z</time></trkpt><trkpt lat="45.10459847870673" lon="10.028775115344837"><ele>36.66666666666667</ele><time>2026-04-26T09:05:21Z</time></trkpt><trkpt lat="45.10453479324496" lon="10.02883043470751"><ele>37.0</ele><time>2026-04-26T09:05:22Z</time></trkpt><trkpt lat="45.104472976164715" lon="10.028883725511953"><ele>37.0</ele><time>2026-04-26T09:05:23Z</time></trkpt><trkpt lat="45.10441319057287" lon="10.028940406097137"><ele>37.0</ele><time>2026-04-26T09:05:24Z</time></trkpt><trkpt lat="45.104362529553995" lon="10.02900600782653"><ele>37.0</ele><time>2026-04-26T09:05:25Z</time></trkpt><trkpt lat="45.104328513296686" lon="10.029092025160281"><ele>37.0</ele><time>2026-04-26T09:05:26Z</time></trkpt><trkpt lat="45.104303980576375" lon="10.029188953350085"><ele>37.0</ele><time>2026-04-26T09:05:27Z</time></trkpt><trkpt lat="45.10428261146586" lon="10.029290300198149"><ele>37.0</ele><time>2026-04-26T09:05:28Z</time></trkpt><trkpt lat="45.104263944931915" lon="10.029399646102524"><ele>37.0</ele><time>2026-04-26T09:05:29Z</time></trkpt><trkpt lat="45.10424904651504" lon="10.029512949643527"><ele>37.16666666666667</ele><time>2026-04-26T09:05:30Z</time></trkpt><trkpt lat="45.10424100409882" lon="10.029628379025576"><ele>37.333333333333336</ele><time>2026-04-26T09:05:31Z</time></trkpt><trkpt lat="45.10424184106801" lon="10.029750182233943"><ele>37.5</ele><time>2026-04-26T09:05:32Z</time></trkpt><trkpt lat="45.1042487614786" lon="10.029873663454323"><ele>37.666666666666664</ele><time>2026-04-26T09:05:33Z</time></trkpt><trkpt lat="45.104250559062415" lon="10.029998270115778"><ele>37.83333333333333</ele><time>2026-04-26T09:05:34Z</time></trkpt><trkpt lat="45.10422469754442" lon="10.030117981965777"><ele>38.0</ele><time>2026-04-26T09:05:35Z</time></trkpt><trkpt lat="45.104191403043615" lon="10.030220875540005"><ele>38.0</ele><time>2026-04-26T09:05:36Z</time></trkpt><trkpt lat="45.104137094389685" lon="10.030299860454699"><ele>38.0</ele><time>2026-04-26T09:05:37Z</time></trkpt><trkpt lat="45.10407896982726" lon="10.030360743400855"><ele>38.0</ele><time>2026-04-26T09:05:38Z</time></trkpt><trkpt lat="45.10401494006892" lon="10.030432689132581"><ele>38.0</ele><time>2026-04-26T09:05:39Z</time></trkpt><trkpt lat="45.10394434896944" lon="10.030502731999029"><ele>38.0</ele><time>2026-04-26T09:05:40Z</time></trkpt><trkpt lat="45.10386855762645" lon="10.030564339058508"><ele>38.0</ele><time>2026-04-26T09:05:41Z</time></trkpt><trkpt lat="45.10380012663545" lon="10.030641361933498"><ele>38.4</ele><time>2026-04-26T09:05:42Z</time></trkpt><trkpt lat="45.10372179531231" lon="10.030692801534306"><ele>38.8</ele><time>2026-04-26T09:05:43Z</time></trkpt><trkpt lat="45.103598479775215" lon="10.030788375085331"><ele>39.2</ele><time>2026-04-26T09:05:45Z</time></trkpt><trkpt lat="45.10350408903896" lon="10.030916812246664"><ele>39.6</ele><time>2026-04-26T09:05:47Z</time></trkpt><trkpt lat="45.103462525872395" lon="10.03098538245059"><ele>40.0</ele><time>2026-04-26T09:05:48Z</time></trkpt><trkpt lat="45.103421073583725" lon="10.031057894938241"><ele>39.333333333333336</ele><time>2026-04-26T09:05:49Z</time></trkpt><trkpt lat="45.103381654239875" lon="10.031127698162607"><ele>38.66666666666667</ele><time>2026-04-26T09:05:50Z</time></trkpt><trkpt lat="45.103341766057895" lon="10.03119833158615"><ele>38.0</ele><time>2026-04-26T09:05:51Z</time></trkpt><trkpt lat="45.103302366155425" lon="10.031268100456646"><ele>37.333333333333336</ele><time>2026-04-26T09:05:52Z</time></trkpt><trkpt lat="45.1032239127663" lon="10.031404179799793"><ele>36.666666666666664</ele><time>2026-04-26T09:05:53.999Z</time></trkpt><trkpt lat="45.103145278239936" lon="10.031536995944586"><ele>36.0</ele><time>2026-04-26T09:05:55.999Z</time></trkpt><trkpt lat="45.10310310427973" lon="10.031604347322913"><ele>35.666666666666664</ele><time>2026-04-26T09:05:56.999Z</time></trkpt><trkpt lat="45.10306009903105" lon="10.031672071551114"><ele>35.333333333333336</ele><time>2026-04-26T09:05:57.999Z</time></trkpt><trkpt lat="45.10297890221606" lon="10.031823980191543"><ele>35.0</ele><time>2026-04-26T09:05:59.999Z</time></trkpt><trkpt lat="45.102949648312254" lon="10.031920689915303"><ele>34.66666666666667</ele><time>2026-04-26T09:06:00.999Z</time></trkpt><trkpt lat="45.10291111630713" lon="10.0319956341224"><ele>34.333333333333336</ele><time>2026-04-26T09:06:01.999Z</time></trkpt><trkpt lat="45.10285744719967" lon="10.032052409177485"><ele>34.0</ele><time>2026-04-26T09:06:02.999Z</time></trkpt><trkpt lat="45.10281588898223" lon="10.032119808351153"><ele>33.99999999999999</ele><time>2026-04-26T09:06:03.999Z</time></trkpt><trkpt lat="45.102771960279966" lon="10.03218899024244"><ele>34.0</ele><time>2026-04-26T09:06:04.999Z</time></trkpt><trkpt lat="45.10272726574755" lon="10.03225953005578"><ele>34.0</ele><time>2026-04-26T09:06:05.999Z</time></trkpt><trkpt lat="45.10267988755696" lon="10.032334112524389"><ele>34.0</ele><time>2026-04-26T09:06:06.999Z</time></trkpt><trkpt lat="45.10263304973668" lon="10.032407804474415"><ele>34.0</ele><time>2026-04-26T09:06:07.999Z</time></trkpt><trkpt lat="45.102585038941626" lon="10.032482988818728"><ele>33.99999999999999</ele><time>2026-04-26T09:06:08.999Z</time></trkpt><trkpt lat="45.10253728593267" lon="10.032556986054907"><ele>34.0</ele><time>2026-04-26T09:06:09.999Z</time></trkpt><trkpt lat="45.10248848494405" lon="10.032632693261514"><ele>33.99999999999999</ele><time>2026-04-26T09:06:10.999Z</time></trkpt><trkpt lat="45.10245305470656" lon="10.032728243730519"><ele>34.0</ele><time>2026-04-26T09:06:11.999Z</time></trkpt><trkpt lat="45.1024058506813" lon="10.032806197097642"><ele>34.0</ele><time>2026-04-26T09:06:12.999Z</time></trkpt><trkpt lat="45.102337825092434" lon="10.032855463256723"><ele>34.0</ele><time>2026-04-26T09:06:13.999Z</time></trkpt><trkpt lat="45.10228577933392" lon="10.032922759380334"><ele>34.0</ele><time>2026-04-26T09:06:14.999Z</time></trkpt><trkpt lat="45.10223379849803" lon="10.032982047824968"><ele>33.99999999999999</ele><time>2026-04-26T09:06:15.999Z</time></trkpt><trkpt lat="45.102175501223904" lon="10.033044185420698"><ele>34.0</ele><time>2026-04-26T09:06:16.999Z</time></trkpt><trkpt lat="45.10211865284953" lon="10.033092197517611"><ele>33.99999999999999</ele><time>2026-04-26T09:06:17.999Z</time></trkpt><trkpt lat="45.102055463340946" lon="10.033138864852774"><ele>34.0</ele><time>2026-04-26T09:06:18.999Z</time></trkpt><trkpt lat="45.10199330547376" lon="10.033179501752363"><ele>34.0</ele><time>2026-04-26T09:06:19.999Z</time></trkpt><trkpt lat="45.10192822426327" lon="10.033219436291377"><ele>34.0</ele><time>2026-04-26T09:06:20.999Z</time></trkpt><trkpt lat="45.10186415201053" lon="10.033258080846766"><ele>34.0</ele><time>2026-04-26T09:06:21.999Z</time></trkpt><trkpt lat="45.10179856999357" lon="10.03329763602233"><ele>33.99999999999999</ele><time>2026-04-26T09:06:22.999Z</time></trkpt><trkpt lat="45.10173442466669" lon="10.033336324686003"><ele>34.0</ele><time>2026-04-26T09:06:23.999Z</time></trkpt><trkpt lat="45.10166881245345" lon="10.033375898086234"><ele>34.0</ele><time>2026-04-26T09:06:24.999Z</time></trkpt><trkpt lat="45.10160520543389" lon="10.033414262080825"><ele>34.0</ele><time>2026-04-26T09:06:25.999Z</time></trkpt><trkpt lat="45.101542777438766" lon="10.0334518891001"><ele>34.0</ele><time>2026-04-26T09:06:26.999Z</time></trkpt><trkpt lat="45.10148222996939" lon="10.033488287350986"><ele>34.0</ele><time>2026-04-26T09:06:27.999Z</time></trkpt><trkpt lat="45.10142356565177" lon="10.033523553532142"><ele>34.0</ele><time>2026-04-26T09:06:28.999Z</time></trkpt><trkpt lat="45.1013647509196" lon="10.033559564032279"><ele>34.0</ele><time>2026-04-26T09:06:29.999Z</time></trkpt><trkpt lat="45.101253479622976" lon="10.033628549164714"><ele>33.8</ele><time>2026-04-26T09:06:31.999Z</time></trkpt><trkpt lat="45.101153367235824" lon="10.033713681161155"><ele>33.599999999999994</ele><time>2026-04-26T09:06:33.999Z</time></trkpt><trkpt lat="45.101045389219706" lon="10.033781123347376"><ele>33.4</ele><time>2026-04-26T09:06:35.999Z</time></trkpt><trkpt lat="45.10093060083556" lon="10.033850654618643"><ele>33.199999999999996</ele><time>2026-04-26T09:06:37.999Z</time></trkpt><trkpt lat="45.10086470752655" lon="10.03386855086707"><ele>33.0</ele><time>2026-04-26T09:06:38.999Z</time></trkpt><trkpt lat="45.100805449278326" lon="10.033905674114626"><ele>33.0</ele><time>2026-04-26T09:06:39.999Z</time></trkpt><trkpt lat="45.10069122397426" lon="10.033977232240726"><ele>33.0</ele><time>2026-04-26T09:06:41.999Z</time></trkpt><trkpt lat="45.10057275990375" lon="10.034051445820143"><ele>33.0</ele><time>2026-04-26T09:06:43.999Z</time></trkpt><trkpt lat="45.10050887890792" lon="10.034091465005458"><ele>33.0</ele><time>2026-04-26T09:06:44.999Z</time></trkpt><trkpt lat="45.1004468052489" lon="10.034130351975982"><ele>33.0</ele><time>2026-04-26T09:06:45.999Z</time></trkpt><trkpt lat="45.100384752684135" lon="10.034169225727338"><ele>33.14285714285714</ele><time>2026-04-26T09:06:46.999Z</time></trkpt><trkpt lat="45.100322635821435" lon="10.034208139746807"><ele>33.285714285714285</ele><time>2026-04-26T09:06:47.998Z</time></trkpt><trkpt lat="45.10026330994855" lon="10.034245305320756"><ele>33.42857142857143</ele><time>2026-04-26T09:06:48.998Z</time></trkpt><trkpt lat="45.1002005122007" lon="10.034285586258324"><ele>33.57142857142857</ele><time>2026-04-26T09:06:49.998Z</time></trkpt><trkpt lat="45.10014306648396" lon="10.034348022979202"><ele>33.714285714285715</ele><time>2026-04-26T09:06:50.998Z</time></trkpt><trkpt lat="45.10007804007278" lon="10.03438685219573"><ele>33.857142857142854</ele><time>2026-04-26T09:06:51.998Z</time></trkpt><trkpt lat="45.10001000756145" lon="10.034425339633179"><ele>34.0</ele><time>2026-04-26T09:06:52.998Z</time></trkpt><trkpt lat="45.09994260989988" lon="10.034469033992346"><ele>33.5</ele><time>2026-04-26T09:06:53.998Z</time></trkpt><trkpt lat="45.099874258320156" lon="10.034510196595443"><ele>33.0</ele><time>2026-04-26T09:06:54.998Z</time></trkpt><trkpt lat="45.09980794349023" lon="10.034548975351255"><ele>32.5</ele><time>2026-04-26T09:06:55.998Z</time></trkpt><trkpt lat="45.09973833082256" lon="10.034558702431728"><ele>32.0</ele><time>2026-04-26T09:06:56.998Z</time></trkpt><trkpt lat="45.099609250764814" lon="10.03458267645742"><ele>31.500000000000004</ele><time>2026-04-26T09:06:58.998Z</time></trkpt><trkpt lat="45.099540157784595" lon="10.034591274195295"><ele>31.0</ele><time>2026-04-26T09:06:59.998Z</time></trkpt><trkpt lat="45.09947026742721" lon="10.034599971196007"><ele>31.0</ele><time>2026-04-26T09:07:00.998Z</time></trkpt><trkpt lat="45.099397944328565" lon="10.03460897089017"><ele>31.000000000000004</ele><time>2026-04-26T09:07:01.998Z</time></trkpt><trkpt lat="45.09932727979028" lon="10.034617764207567"><ele>31.0</ele><time>2026-04-26T09:07:02.998Z</time></trkpt><trkpt lat="45.09925267863821" lon="10.034627391289014"><ele>31.0</ele><time>2026-04-26T09:07:03.998Z</time></trkpt><trkpt lat="45.099178291747656" lon="10.034638472785483"><ele>31.000000000000004</ele><time>2026-04-26T09:07:05Z</time></trkpt><trkpt lat="45.09910312281697" lon="10.034649672767138"><ele>31.0</ele><time>2026-04-26T09:07:06Z</time></trkpt><trkpt lat="45.09902889252698" lon="10.034662770886545"><ele>31.0</ele><time>2026-04-26T09:07:07Z</time></trkpt><trkpt lat="45.09895616274976" lon="10.034676183270848"><ele>31.333333333333336</ele><time>2026-04-26T09:07:08Z</time></trkpt><trkpt lat="45.0988835452383" lon="10.034689574950487"><ele>31.666666666666668</ele><time>2026-04-26T09:07:09Z</time></trkpt><trkpt lat="45.09880965458814" lon="10.034703201417223"><ele>32.0</ele><time>2026-04-26T09:07:10Z</time></trkpt><trkpt lat="45.0987351823971" lon="10.034716935125246"><ele>32.333333333333336</ele><time>2026-04-26T09:07:11Z</time></trkpt><trkpt lat="45.09866164982649" lon="10.034752968031663"><ele>32.666666666666664</ele><time>2026-04-26T09:07:12Z</time></trkpt><trkpt lat="45.09858548728574" lon="10.034740691974555"><ele>33.0</ele><time>2026-04-26T09:07:13Z</time></trkpt><trkpt lat="45.09851092987466" lon="10.034736223908746"><ele>33.0</ele><time>2026-04-26T09:07:14Z</time></trkpt><trkpt lat="45.09844305090503" lon="10.03471344880254"><ele>33.0</ele><time>2026-04-26T09:07:15Z</time></trkpt><trkpt lat="45.09835985008446" lon="10.034799630840173"><ele>33.0</ele><time>2026-04-26T09:07:16Z</time></trkpt><trkpt lat="45.098283278880785" lon="10.034783690303584"><ele>33.0</ele><time>2026-04-26T09:07:17Z</time></trkpt><trkpt lat="45.09820812425975" lon="10.034782450992287"><ele>33.0</ele><time>2026-04-26T09:07:18Z</time></trkpt><trkpt lat="45.09813330334298" lon="10.034785760023793"><ele>33.0</ele><time>2026-04-26T09:07:19Z</time></trkpt><trkpt lat="45.098058380763675" lon="10.034789704793154"><ele>33.5</ele><time>2026-04-26T09:07:20Z</time></trkpt><trkpt lat="45.09798045442996" lon="10.03479305673643"><ele>34.0</ele><time>2026-04-26T09:07:21Z</time></trkpt><trkpt lat="45.097904437009994" lon="10.034804751704261"><ele>34.5</ele><time>2026-04-26T09:07:22Z</time></trkpt><trkpt lat="45.09782931885304" lon="10.034819671084534"><ele>35.0</ele><time>2026-04-26T09:07:23Z</time></trkpt><trkpt lat="45.09775712355551" lon="10.034835958332842"><ele>35.5</ele><time>2026-04-26T09:07:24Z</time></trkpt><trkpt lat="45.0976837048123" lon="10.034852932053118"><ele>36.0</ele><time>2026-04-26T09:07:25Z</time></trkpt><trkpt lat="45.09761091842858" lon="10.034866541830928"><ele>36.00000000000001</ele><time>2026-04-26T09:07:26Z</time></trkpt><trkpt lat="45.09753795198862" lon="10.034879442901296"><ele>36.0</ele><time>2026-04-26T09:07:27Z</time></trkpt><trkpt lat="45.0974658158433" lon="10.03489219716777"><ele>36.0</ele><time>2026-04-26T09:07:28Z</time></trkpt><trkpt lat="45.09739799102787" lon="10.034925041645739"><ele>36.0</ele><time>2026-04-26T09:07:29Z</time></trkpt><trkpt lat="45.097329764499335" lon="10.034931113311618"><ele>36.0</ele><time>2026-04-26T09:07:30Z</time></trkpt><trkpt lat="45.09726370189928" lon="10.03494342134509"><ele>36.00000000000001</ele><time>2026-04-26T09:07:31Z</time></trkpt><trkpt lat="45.09719952063998" lon="10.034954754073246"><ele>36.0</ele><time>2026-04-26T09:07:32Z</time></trkpt><trkpt lat="45.09709453697338" lon="10.034962354408027"><ele>35.8</ele><time>2026-04-26T09:07:34Z</time></trkpt><trkpt lat="45.097022160668764" lon="10.034997484588125"><ele>35.6</ele><time>2026-04-26T09:07:36Z</time></trkpt><trkpt lat="45.09703559430721" lon="10.035199160154873"><ele>35.4</ele><time>2026-04-26T09:07:39Z</time></trkpt><trkpt lat="45.09708480162443" lon="10.035317408648254"><ele>35.2</ele><time>2026-04-26T09:07:41Z</time></trkpt><trkpt lat="45.097152320774875" lon="10.035455608353484"><ele>35.0</ele><time>2026-04-26T09:07:43Z</time></trkpt><trkpt lat="45.09718693110142" lon="10.035532961184561"><ele>35.0</ele><time>2026-04-26T09:07:44Z</time></trkpt><trkpt lat="45.09721960044107" lon="10.0356127834251"><ele>35.0</ele><time>2026-04-26T09:07:45Z</time></trkpt><trkpt lat="45.09725221937595" lon="10.03569369857805"><ele>35.0</ele><time>2026-04-26T09:07:46Z</time></trkpt><trkpt lat="45.097293575724734" lon="10.035772637485866"><ele>35.0</ele><time>2026-04-26T09:07:47Z</time></trkpt><trkpt lat="45.09734007256027" lon="10.035847928032052"><ele>35.0</ele><time>2026-04-26T09:07:48Z</time></trkpt><trkpt lat="45.0973880897013" lon="10.03591901550466"><ele>35.0</ele><time>2026-04-26T09:07:49Z</time></trkpt><trkpt lat="45.097432214905126" lon="10.035985082359387"><ele>35.0</ele><time>2026-04-26T09:07:50Z</time></trkpt><trkpt lat="45.0974769834826" lon="10.036049403713685"><ele>35.42857142857143</ele><time>2026-04-26T09:07:51Z</time></trkpt><trkpt lat="45.097524528837894" lon="10.036114686566068"><ele>35.85714285714286</ele><time>2026-04-26T09:07:52Z</time></trkpt><trkpt lat="45.097572361420575" lon="10.036182227964698"><ele>36.285714285714285</ele><time>2026-04-26T09:07:53Z</time></trkpt><trkpt lat="45.097621920282684" lon="10.03625477876697"><ele>36.714285714285715</ele><time>2026-04-26T09:07:54Z</time></trkpt><trkpt lat="45.09767268278449" lon="10.036323577099964"><ele>37.142857142857146</ele><time>2026-04-26T09:07:55Z</time></trkpt><trkpt lat="45.09772742024798" lon="10.036389312875862"><ele>37.57142857142857</ele><time>2026-04-26T09:07:55.999Z</time></trkpt><trkpt lat="45.097786734759595" lon="10.03645121291478"><ele>38.0</ele><time>2026-04-26T09:07:56.999Z</time></trkpt><trkpt lat="45.09784979908069" lon="10.036505815757181"><ele>38.0</ele><time>2026-04-26T09:07:57.999Z</time></trkpt><trkpt lat="45.097915572364684" lon="10.036554556571051"><ele>38.0</ele><time>2026-04-26T09:07:58.999Z</time></trkpt><trkpt lat="45.09798598893134" lon="10.03659474493166"><ele>38.0</ele><time>2026-04-26T09:07:59.999Z</time></trkpt><trkpt lat="45.098059637447655" lon="10.036634077066111"><ele>38.0</ele><time>2026-04-26T09:08:00.999Z</time></trkpt><trkpt lat="45.09813036524302" lon="10.036680398716843"><ele>38.0</ele><time>2026-04-26T09:08:01.999Z</time></trkpt><trkpt lat="45.098203031306056" lon="10.036727672733788"><ele>38.0</ele><time>2026-04-26T09:08:02.999Z</time></trkpt><trkpt lat="45.098271546495525" lon="10.03678020619657"><ele>37.33333333333333</ele><time>2026-04-26T09:08:03.999Z</time></trkpt><trkpt lat="45.098340863034245" lon="10.03684010953095"><ele>36.666666666666664</ele><time>2026-04-26T09:08:04.999Z</time></trkpt><trkpt lat="45.098406189224185" lon="10.036905319400608"><ele>36.0</ele><time>2026-04-26T09:08:05.999Z</time></trkpt><trkpt lat="45.098467464213584" lon="10.036975520694916"><ele>35.333333333333336</ele><time>2026-04-26T09:08:06.999Z</time></trkpt><trkpt lat="45.0985270163066" lon="10.03704428964353"><ele>34.66666666666667</ele><time>2026-04-26T09:08:07.999Z</time></trkpt><trkpt lat="45.098583734238375" lon="10.037113275329192"><ele>34.0</ele><time>2026-04-26T09:08:08.999Z</time></trkpt><trkpt lat="45.09864254453098" lon="10.037179457308309"><ele>34.0</ele><time>2026-04-26T09:08:09.999Z</time></trkpt><trkpt lat="45.098700191941255" lon="10.03724683450071"><ele>34.0</ele><time>2026-04-26T09:08:10.999Z</time></trkpt><trkpt lat="45.09875816687334" lon="10.03731534585361"><ele>34.0</ele><time>2026-04-26T09:08:11.999Z</time></trkpt><trkpt lat="45.09881800314361" lon="10.037383651200697"><ele>34.0</ele><time>2026-04-26T09:08:12.999Z</time></trkpt><trkpt lat="45.09887000836145" lon="10.037455372766667"><ele>34.0</ele><time>2026-04-26T09:08:13.999Z</time></trkpt><trkpt lat="45.09892907859112" lon="10.037525874985215"><ele>34.0</ele><time>2026-04-26T09:08:14.999Z</time></trkpt><trkpt lat="45.09898664651046" lon="10.037595846144187"><ele>33.857142857142854</ele><time>2026-04-26T09:08:15.999Z</time></trkpt><trkpt lat="45.09904640274179" lon="10.037658444439119"><ele>33.714285714285715</ele><time>2026-04-26T09:08:16.999Z</time></trkpt><trkpt lat="45.09910551919081" lon="10.037724847238104"><ele>33.57142857142857</ele><time>2026-04-26T09:08:17.999Z</time></trkpt><trkpt lat="45.09915990840699" lon="10.03778467608832"><ele>33.42857142857143</ele><time>2026-04-26T09:08:18.999Z</time></trkpt><trkpt lat="45.099220133537784" lon="10.037841547729666"><ele>33.285714285714285</ele><time>2026-04-26T09:08:19.999Z</time></trkpt><trkpt lat="45.09928428631883" lon="10.037892358687278"><ele>33.14285714285714</ele><time>2026-04-26T09:08:20.999Z</time></trkpt><trkpt lat="45.0993455548119" lon="10.037944889283535"><ele>33.0</ele><time>2026-04-26T09:08:21.999Z</time></trkpt><trkpt lat="45.09940841874514" lon="10.038002569795957"><ele>33.42857142857143</ele><time>2026-04-26T09:08:22.999Z</time></trkpt><trkpt lat="45.09946522745736" lon="10.038061528154811"><ele>33.85714285714286</ele><time>2026-04-26T09:08:23.999Z</time></trkpt><trkpt lat="45.09952563988424" lon="10.038123162667167"><ele>34.28571428571429</ele><time>2026-04-26T09:08:24.999Z</time></trkpt><trkpt lat="45.09958878255244" lon="10.038178443119588"><ele>34.714285714285715</ele><time>2026-04-26T09:08:25.999Z</time></trkpt><trkpt lat="45.09965456793335" lon="10.03823245613644"><ele>35.142857142857146</ele><time>2026-04-26T09:08:26.999Z</time></trkpt><trkpt lat="45.09971958900519" lon="10.038288090613305"><ele>35.57142857142858</ele><time>2026-04-26T09:08:27.999Z</time></trkpt><trkpt lat="45.09978202148324" lon="10.038345930769834"><ele>36.0</ele><time>2026-04-26T09:08:28.999Z</time></trkpt><trkpt lat="45.099846224171166" lon="10.0384051680176"><ele>36.333333333333336</ele><time>2026-04-26T09:08:29.999Z</time></trkpt><trkpt lat="45.09991286338503" lon="10.038463341378812"><ele>36.666666666666664</ele><time>2026-04-26T09:08:30.999Z</time></trkpt><trkpt lat="45.099980377325814" lon="10.038516297834576"><ele>37.0</ele><time>2026-04-26T09:08:31.999Z</time></trkpt><trkpt lat="45.10004545194982" lon="10.038572243368929"><ele>37.33333333333333</ele><time>2026-04-26T09:08:32.999Z</time></trkpt><trkpt lat="45.10011354304938" lon="10.038622483471492"><ele>37.666666666666664</ele><time>2026-04-26T09:08:33.999Z</time></trkpt><trkpt lat="45.10017864291866" lon="10.03867530223396"><ele>38.0</ele><time>2026-04-26T09:08:34.999Z</time></trkpt><trkpt lat="45.100239440659024" lon="10.038728101655396"><ele>38.0</ele><time>2026-04-26T09:08:35.999Z</time></trkpt><trkpt lat="45.10030301478574" lon="10.03876632916777"><ele>38.0</ele><time>2026-04-26T09:08:36.999Z</time></trkpt><trkpt lat="45.10036880104287" lon="10.038803621997173"><ele>38.0</ele><time>2026-04-26T09:08:37.999Z</time></trkpt><trkpt lat="45.10044059657047" lon="10.038851472201085"><ele>38.0</ele><time>2026-04-26T09:08:38.999Z</time></trkpt><trkpt lat="45.1005131247417" lon="10.038896256538038"><ele>38.0</ele><time>2026-04-26T09:08:39.999Z</time></trkpt><trkpt lat="45.10058789877061" lon="10.038947775002214"><ele>38.0</ele><time>2026-04-26T09:08:40.999Z</time></trkpt><trkpt lat="45.10066084070437" lon="10.038992832934223"><ele>38.0</ele><time>2026-04-26T09:08:41.999Z</time></trkpt><trkpt lat="45.10073241928215" lon="10.039039065478924"><ele>38.0</ele><time>2026-04-26T09:08:42.999Z</time></trkpt><trkpt lat="45.100804285433746" lon="10.039082972249872"><ele>38.0</ele><time>2026-04-26T09:08:43.999Z</time></trkpt><trkpt lat="45.10087647262463" lon="10.03912567506944"><ele>38.0</ele><time>2026-04-26T09:08:44.999Z</time></trkpt><trkpt lat="45.100948737945735" lon="10.03916900237453"><ele>38.0</ele><time>2026-04-26T09:08:45.999Z</time></trkpt><trkpt lat="45.101019340561386" lon="10.039208610710547"><ele>38.0</ele><time>2026-04-26T09:08:46.999Z</time></trkpt><trkpt lat="45.10109511240343" lon="10.039252548807267"><ele>37.83333333333333</ele><time>2026-04-26T09:08:47.999Z</time></trkpt><trkpt lat="45.101166710085636" lon="10.039297844634012"><ele>37.666666666666664</ele><time>2026-04-26T09:08:48.999Z</time></trkpt><trkpt lat="45.10124091786731" lon="10.03934071121559"><ele>37.5</ele><time>2026-04-26T09:08:49.998Z</time></trkpt><trkpt lat="45.10131203291439" lon="10.039385690312285"><ele>37.333333333333336</ele><time>2026-04-26T09:08:50.998Z</time></trkpt><trkpt lat="45.10138573965243" lon="10.039429749042288"><ele>37.16666666666667</ele><time>2026-04-26T09:08:51.998Z</time></trkpt><trkpt lat="45.101456582436995" lon="10.039474708998354"><ele>37.0</ele><time>2026-04-26T09:08:52.998Z</time></trkpt><trkpt lat="45.101528883442505" lon="10.039514992212467"><ele>36.833333333333336</ele><time>2026-04-26T09:08:53.998Z</time></trkpt><trkpt lat="45.10159867988204" lon="10.03956237061648"><ele>36.66666666666667</ele><time>2026-04-26T09:08:54.998Z</time></trkpt><trkpt lat="45.1016696256434" lon="10.039605689415342"><ele>36.5</ele><time>2026-04-26T09:08:55.998Z</time></trkpt><trkpt lat="45.10173858431852" lon="10.039649214835299"><ele>36.333333333333336</ele><time>2026-04-26T09:08:56.998Z</time></trkpt><trkpt lat="45.10180515344883" lon="10.039695310645632"><ele>36.166666666666664</ele><time>2026-04-26T09:08:57.998Z</time></trkpt><trkpt lat="45.10187387754827" lon="10.039736186732352"><ele>36.0</ele><time>2026-04-26T09:08:58.998Z</time></trkpt><trkpt lat="45.10194527027332" lon="10.039776502772458"><ele>36.0</ele><time>2026-04-26T09:08:59.998Z</time></trkpt><trkpt lat="45.10201548435023" lon="10.039815931431352"><ele>36.0</ele><time>2026-04-26T09:09:00.998Z</time></trkpt><trkpt lat="45.10209133172956" lon="10.0398550942665"><ele>36.0</ele><time>2026-04-26T09:09:01.998Z</time></trkpt><trkpt lat="45.10216323945642" lon="10.039890252766886"><ele>36.0</ele><time>2026-04-26T09:09:02.998Z</time></trkpt><trkpt lat="45.10223787924002" lon="10.039923965791399"><ele>36.0</ele><time>2026-04-26T09:09:03.998Z</time></trkpt><trkpt lat="45.10231122408876" lon="10.039955702088958"><ele>36.0</ele><time>2026-04-26T09:09:04.998Z</time></trkpt><trkpt lat="45.102383374945404" lon="10.039991746800998"><ele>35.833333333333336</ele><time>2026-04-26T09:09:05.998Z</time></trkpt><trkpt lat="45.10245492349875" lon="10.040027294442364"><ele>35.666666666666664</ele><time>2026-04-26T09:09:06.998Z</time></trkpt><trkpt lat="45.102528099429165" lon="10.040058907279091"><ele>35.5</ele><time>2026-04-26T09:09:07.998Z</time></trkpt><trkpt lat="45.10260170750695" lon="10.040090443681205"><ele>35.33333333333333</ele><time>2026-04-26T09:09:08.998Z</time></trkpt><trkpt lat="45.1026754123874" lon="10.040119831027114"><ele>35.166666666666664</ele><time>2026-04-26T09:09:10Z</time></trkpt><trkpt lat="45.102748146535475" lon="10.0401515240484"><ele>35.0</ele><time>2026-04-26T09:09:11Z</time></trkpt><trkpt lat="45.102819992839834" lon="10.04018225859154"><ele>35.0</ele><time>2026-04-26T09:09:12Z</time></trkpt><trkpt lat="45.10289217299139" lon="10.04021589961818"><ele>35.0</ele><time>2026-04-26T09:09:13Z</time></trkpt><trkpt lat="45.102964582149646" lon="10.040249318377562"><ele>35.0</ele><time>2026-04-26T09:09:14Z</time></trkpt><trkpt lat="45.10303824628198" lon="10.040281630960404"><ele>35.0</ele><time>2026-04-26T09:09:15Z</time></trkpt><trkpt lat="45.10311131207119" lon="10.040311161953712"><ele>35.0</ele><time>2026-04-26T09:09:16Z</time></trkpt><trkpt lat="45.10318455010806" lon="10.040342764266605"><ele>35.0</ele><time>2026-04-26T09:09:17Z</time></trkpt><trkpt lat="45.10325804562408" lon="10.040375383427865"><ele>35.33333333333333</ele><time>2026-04-26T09:09:18Z</time></trkpt><trkpt lat="45.103333256928025" lon="10.040407494294906"><ele>35.666666666666664</ele><time>2026-04-26T09:09:19Z</time></trkpt><trkpt lat="45.1034091077171" lon="10.040436879347727"><ele>36.0</ele><time>2026-04-26T09:09:20Z</time></trkpt><trkpt lat="45.10348486927043" lon="10.040464359816216"><ele>36.333333333333336</ele><time>2026-04-26T09:09:21Z</time></trkpt><trkpt lat="45.10356285077523" lon="10.04048674562673"><ele>36.66666666666667</ele><time>2026-04-26T09:09:22Z</time></trkpt><trkpt lat="45.10364027151253" lon="10.040507240706233"><ele>37.0</ele><time>2026-04-26T09:09:23Z</time></trkpt><trkpt lat="45.10371596494956" lon="10.040525365304825"><ele>37.0</ele><time>2026-04-26T09:09:24Z</time></trkpt><trkpt lat="45.10379335025391" lon="10.040547416077212"><ele>37.0</ele><time>2026-04-26T09:09:25Z</time></trkpt><trkpt lat="45.10387132907337" lon="10.040573950538707"><ele>37.0</ele><time>2026-04-26T09:09:26Z</time></trkpt><trkpt lat="45.10394620316926" lon="10.040599515119094"><ele>37.0</ele><time>2026-04-26T09:09:27Z</time></trkpt><trkpt lat="45.104024774649865" lon="10.040626746341315"><ele>37.0</ele><time>2026-04-26T09:09:28Z</time></trkpt><trkpt lat="45.10409974365941" lon="10.040656352282943"><ele>37.0</ele><time>2026-04-26T09:09:29Z</time></trkpt><trkpt lat="45.104174634084124" lon="10.040683777831656"><ele>37.333333333333336</ele><time>2026-04-26T09:09:30Z</time></trkpt><trkpt lat="45.104251605313856" lon="10.040711042346746"><ele>37.66666666666667</ele><time>2026-04-26T09:09:31Z</time></trkpt><trkpt lat="45.104325901700975" lon="10.040735462541148"><ele>38.0</ele><time>2026-04-26T09:09:32Z</time></trkpt><trkpt lat="45.10440083498537" lon="10.040763798580794"><ele>38.333333333333336</ele><time>2026-04-26T09:09:33Z</time></trkpt><trkpt lat="45.10447476604287" lon="10.040790331990603"><ele>38.666666666666664</ele><time>2026-04-26T09:09:34Z</time></trkpt><trkpt lat="45.10454616018487" lon="10.040811593213801"><ele>39.0</ele><time>2026-04-26T09:09:35Z</time></trkpt><trkpt lat="45.10461718723857" lon="10.040835876203767"><ele>39.0</ele><time>2026-04-26T09:09:36Z</time></trkpt><trkpt lat="45.104684177763275" lon="10.040863979832624"><ele>39.0</ele><time>2026-04-26T09:09:37Z</time></trkpt><trkpt lat="45.10474809308185" lon="10.040881000495627"><ele>39.0</ele><time>2026-04-26T09:09:38Z</time></trkpt><trkpt lat="45.10481709542875" lon="10.040905952097923"><ele>39.0</ele><time>2026-04-26T09:09:39Z</time></trkpt><trkpt lat="45.104884136566014" lon="10.040928019134565"><ele>39.0</ele><time>2026-04-26T09:09:40Z</time></trkpt><trkpt lat="45.104945034763496" lon="10.04095751099493"><ele>39.0</ele><time>2026-04-26T09:09:41Z</time></trkpt><trkpt lat="45.10500715963144" lon="10.040984307185912"><ele>39.0</ele><time>2026-04-26T09:09:42Z</time></trkpt><trkpt lat="45.10511432313834" lon="10.041012998282257"><ele>39.0</ele><time>2026-04-26T09:09:44Z</time></trkpt><trkpt lat="45.105175942433625" lon="10.041038171691321"><ele>39.0</ele><time>2026-04-26T09:09:46Z</time></trkpt><trkpt lat="45.105103120914" lon="10.041220651043458"><ele>39.0</ele><time>2026-04-26T09:09:47Z</time></trkpt><trkpt lat="45.10504642881096" lon="10.04135313978945"><ele>39.0</ele><time>2026-04-26T09:09:49Z</time></trkpt><trkpt lat="45.1049842849196" lon="10.041464540988361"><ele>39.0</ele><time>2026-04-26T09:09:51Z</time></trkpt><trkpt lat="45.10490484470987" lon="10.041569044030851"><ele>38.714285714285715</ele><time>2026-04-26T09:09:53Z</time></trkpt><trkpt lat="45.10486333130831" lon="10.041640111657085"><ele>38.42857142857142</ele><time>2026-04-26T09:09:54Z</time></trkpt><trkpt lat="45.10481678620449" lon="10.041719664228696"><ele>38.14285714285714</ele><time>2026-04-26T09:09:55Z</time></trkpt><trkpt lat="45.104783767553656" lon="10.041810738490513"><ele>37.85714285714286</ele><time>2026-04-26T09:09:56Z</time></trkpt><trkpt lat="45.10473060340404" lon="10.04189542692206"><ele>37.57142857142857</ele><time>2026-04-26T09:09:57Z</time></trkpt><trkpt lat="45.10468567330093" lon="10.041968616397094"><ele>37.285714285714285</ele><time>2026-04-26T09:09:57.999Z</time></trkpt><trkpt lat="45.10464231360522" lon="10.042036879119514"><ele>37.0</ele><time>2026-04-26T09:09:58.999Z</time></trkpt><trkpt lat="45.1045954038108" lon="10.042101061992994"><ele>37.0</ele><time>2026-04-26T09:09:59.999Z</time></trkpt><trkpt lat="45.104552575887546" lon="10.042169051754833"><ele>37.0</ele><time>2026-04-26T09:10:00.999Z</time></trkpt><trkpt lat="45.10451153427865" lon="10.042240541781775"><ele>37.0</ele><time>2026-04-26T09:10:01.999Z</time></trkpt><trkpt lat="45.1044730451392" lon="10.042312465770488"><ele>37.0</ele><time>2026-04-26T09:10:02.999Z</time></trkpt><trkpt lat="45.10443273193724" lon="10.042388094754209"><ele>37.0</ele><time>2026-04-26T09:10:03.999Z</time></trkpt><trkpt lat="45.10439038780525" lon="10.042459297063813"><ele>37.0</ele><time>2026-04-26T09:10:04.999Z</time></trkpt><trkpt lat="45.1043461331293" lon="10.042527387445329"><ele>37.0</ele><time>2026-04-26T09:10:05.999Z</time></trkpt><trkpt lat="45.10426097916426" lon="10.04265546285198"><ele>37.0</ele><time>2026-04-26T09:10:07.999Z</time></trkpt><trkpt lat="45.10418072716474" lon="10.04280034928126"><ele>37.0</ele><time>2026-04-26T09:10:09.999Z</time></trkpt><trkpt lat="45.10414226926552" lon="10.042872930311205"><ele>37.0</ele><time>2026-04-26T09:10:10.999Z</time></trkpt><trkpt lat="45.104100535440594" lon="10.042943796974962"><ele>37.0</ele><time>2026-04-26T09:10:11.999Z</time></trkpt><trkpt lat="45.104056267044925" lon="10.043012946139639"><ele>37.0</ele><time>2026-04-26T09:10:12.999Z</time></trkpt><trkpt lat="45.1040155689462" lon="10.043081758326725"><ele>37.0</ele><time>2026-04-26T09:10:13.999Z</time></trkpt><trkpt lat="45.103935054249625" lon="10.043208760673181"><ele>36.833333333333336</ele><time>2026-04-26T09:10:15.999Z</time></trkpt><trkpt lat="45.10390236200298" lon="10.043285072295832"><ele>36.66666666666667</ele><time>2026-04-26T09:10:16.999Z</time></trkpt><trkpt lat="45.1039039078034" lon="10.043456177396676"><ele>36.5</ele><time>2026-04-26T09:10:18.999Z</time></trkpt><trkpt lat="45.103923696882404" lon="10.043544327432267"><ele>36.333333333333336</ele><time>2026-04-26T09:10:19.999Z</time></trkpt><trkpt lat="45.103959806267326" lon="10.04363275514028"><ele>36.166666666666664</ele><time>2026-04-26T09:10:20.999Z</time></trkpt><trkpt lat="45.10399527785307" lon="10.04371770265484"><ele>36.0</ele><time>2026-04-26T09:10:21.999Z</time></trkpt><trkpt lat="45.1040306846286" lon="10.043803026449112"><ele>36.00000000000001</ele><time>2026-04-26T09:10:22.999Z</time></trkpt><trkpt lat="45.10406378165921" lon="10.043892045303625"><ele>36.0</ele><time>2026-04-26T09:10:23.999Z</time></trkpt><trkpt lat="45.104094788426124" lon="10.043988591386594"><ele>36.0</ele><time>2026-04-26T09:10:24.999Z</time></trkpt><trkpt lat="45.104125027868655" lon="10.044083939317579"><ele>36.0</ele><time>2026-04-26T09:10:25.999Z</time></trkpt><trkpt lat="45.10415621208327" lon="10.044179949270596"><ele>36.0</ele><time>2026-04-26T09:10:26.999Z</time></trkpt><trkpt lat="45.10418785228874" lon="10.04427856891744"><ele>36.00000000000001</ele><time>2026-04-26T09:10:27.999Z</time></trkpt><trkpt lat="45.104217495990945" lon="10.044375631633937"><ele>36.0</ele><time>2026-04-26T09:10:28.999Z</time></trkpt><trkpt lat="45.104242017887145" lon="10.044476424335246"><ele>36.00000000000001</ele><time>2026-04-26T09:10:29.999Z</time></trkpt><trkpt lat="45.10426176535312" lon="10.04457593671777"><ele>36.0</ele><time>2026-04-26T09:10:30.999Z</time></trkpt><trkpt lat="45.10428030218511" lon="10.044674792268452"><ele>36.0</ele><time>2026-04-26T09:10:31.999Z</time></trkpt><trkpt lat="45.10430486235838" lon="10.044773304808002"><ele>36.0</ele><time>2026-04-26T09:10:32.999Z</time></trkpt><trkpt lat="45.10432730157303" lon="10.04486936372072"><ele>36.0</ele><time>2026-04-26T09:10:33.999Z</time></trkpt><trkpt lat="45.10434674725566" lon="10.04496518303437"><ele>36.00000000000001</ele><time>2026-04-26T09:10:34.999Z</time></trkpt><trkpt lat="45.10436961389662" lon="10.045059504755573"><ele>36.0</ele><time>2026-04-26T09:10:35.999Z</time></trkpt><trkpt lat="45.104391161444326" lon="10.045152894072922"><ele>35.833333333333336</ele><time>2026-04-26T09:10:36.999Z</time></trkpt><trkpt lat="45.10441217870501" lon="10.045249102073587"><ele>35.666666666666664</ele><time>2026-04-26T09:10:37.999Z</time></trkpt><trkpt lat="45.10443374278027" lon="10.045351132079295"><ele>35.5</ele><time>2026-04-26T09:10:38.999Z</time></trkpt><trkpt lat="45.10445635693739" lon="10.04545379347467"><ele>35.33333333333333</ele><time>2026-04-26T09:10:39.999Z</time></trkpt><trkpt lat="45.10447903771975" lon="10.045559261616932"><ele>35.166666666666664</ele><time>2026-04-26T09:10:40.999Z</time></trkpt><trkpt lat="45.10450100218545" lon="10.045666215622413"><ele>35.0</ele><time>2026-04-26T09:10:41.999Z</time></trkpt><trkpt lat="45.104521883078725" lon="10.04577366870843"><ele>34.666666666666664</ele><time>2026-04-26T09:10:42.999Z</time></trkpt><trkpt lat="45.104546829801635" lon="10.045880836989474"><ele>34.33333333333333</ele><time>2026-04-26T09:10:43.999Z</time></trkpt><trkpt lat="45.10457293253315" lon="10.045986707122998"><ele>34.0</ele><time>2026-04-26T09:10:44.999Z</time></trkpt><trkpt lat="45.104598370508256" lon="10.04609269537723"><ele>33.666666666666664</ele><time>2026-04-26T09:10:45.999Z</time></trkpt><trkpt lat="45.1046226000328" lon="10.04619855660248"><ele>33.333333333333336</ele><time>2026-04-26T09:10:46.999Z</time></trkpt><trkpt lat="45.104646661048776" lon="10.046303519916094"><ele>33.0</ele><time>2026-04-26T09:10:47.999Z</time></trkpt><trkpt lat="45.10467185866648" lon="10.04640922806865"><ele>33.0</ele><time>2026-04-26T09:10:48.999Z</time></trkpt><trkpt lat="45.10469446384463" lon="10.04651406121871"><ele>33.0</ele><time>2026-04-26T09:10:49.999Z</time></trkpt><trkpt lat="45.10471821088845" lon="10.046620074254552"><ele>33.0</ele><time>2026-04-26T09:10:50.998Z</time></trkpt><trkpt lat="45.10474195286682" lon="10.046723104108464"><ele>33.0</ele><time>2026-04-26T09:10:51.998Z</time></trkpt><trkpt lat="45.10476543977328" lon="10.046829372080957"><ele>33.0</ele><time>2026-04-26T09:10:52.998Z</time></trkpt><trkpt lat="45.10478874331005" lon="10.046933921297436"><ele>33.0</ele><time>2026-04-26T09:10:53.998Z</time></trkpt><trkpt lat="45.10481481233875" lon="10.047036121876909"><ele>33.0</ele><time>2026-04-26T09:10:54.998Z</time></trkpt><trkpt lat="45.10483885245965" lon="10.047138380882933"><ele>33.0</ele><time>2026-04-26T09:10:55.998Z</time></trkpt><trkpt lat="45.10486116439947" lon="10.047241588867076"><ele>33.0</ele><time>2026-04-26T09:10:56.998Z</time></trkpt><trkpt lat="45.104885320771196" lon="10.047348549747978"><ele>33.0</ele><time>2026-04-26T09:10:57.998Z</time></trkpt><trkpt lat="45.10491113694457" lon="10.047451838749454"><ele>33.0</ele><time>2026-04-26T09:10:58.998Z</time></trkpt><trkpt lat="45.10493555880014" lon="10.047554881537035"><ele>33.0</ele><time>2026-04-26T09:10:59.998Z</time></trkpt><trkpt lat="45.104965252408086" lon="10.047657811781303"><ele>33.333333333333336</ele><time>2026-04-26T09:11:00.998Z</time></trkpt><trkpt lat="45.10499479403651" lon="10.04776406765193"><ele>33.666666666666664</ele><time>2026-04-26T09:11:01.998Z</time></trkpt><trkpt lat="45.10502283274735" lon="10.047869891423058"><ele>34.0</ele><time>2026-04-26T09:11:02.998Z</time></trkpt><trkpt lat="45.105045507243005" lon="10.047979548259004"><ele>34.33333333333333</ele><time>2026-04-26T09:11:03.998Z</time></trkpt><trkpt lat="45.10506113188498" lon="10.048095162324003"><ele>34.666666666666664</ele><time>2026-04-26T09:11:04.998Z</time></trkpt><trkpt lat="45.10507075978944" lon="10.04820831330418"><ele>35.0</ele><time>2026-04-26T09:11:05.998Z</time></trkpt><trkpt lat="45.10507870599688" lon="10.04832485265653"><ele>35.0</ele><time>2026-04-26T09:11:06.998Z</time></trkpt><trkpt lat="45.10509030396035" lon="10.04843868775356"><ele>35.0</ele><time>2026-04-26T09:11:07.998Z</time></trkpt><trkpt lat="45.1051037569171" lon="10.048548593792539"><ele>35.0</ele><time>2026-04-26T09:11:08.998Z</time></trkpt><trkpt lat="45.10511950697306" lon="10.04866034905976"><ele>35.0</ele><time>2026-04-26T09:11:09.998Z</time></trkpt><trkpt lat="45.10513281929913" lon="10.048770633022148"><ele>35.0</ele><time>2026-04-26T09:11:10.998Z</time></trkpt><trkpt lat="45.10514493518328" lon="10.048884055125757"><ele>35.0</ele><time>2026-04-26T09:11:11.998Z</time></trkpt><trkpt lat="45.10515449480246" lon="10.048996893750797"><ele>35.0</ele><time>2026-04-26T09:11:12.998Z</time></trkpt><trkpt lat="45.1051597843124" lon="10.049106423819651"><ele>35.0</ele><time>2026-04-26T09:11:13.998Z</time></trkpt><trkpt lat="45.10516680908086" lon="10.049216562898486"><ele>35.0</ele><time>2026-04-26T09:11:14.998Z</time></trkpt><trkpt lat="45.10517522546956" lon="10.049327364672978"><ele>35.0</ele><time>2026-04-26T09:11:16Z</time></trkpt><trkpt lat="45.10518080709886" lon="10.04943573379245"><ele>35.0</ele><time>2026-04-26T09:11:17Z</time></trkpt><trkpt lat="45.10518387762359" lon="10.049548574484295"><ele>35.0</ele><time>2026-04-26T09:11:18Z</time></trkpt><trkpt lat="45.10518433534844" lon="10.049658744994561"><ele>34.83333333333333</ele><time>2026-04-26T09:11:19Z</time></trkpt><trkpt lat="45.10518761581138" lon="10.04976749695228"><ele>34.666666666666664</ele><time>2026-04-26T09:11:20Z</time></trkpt><trkpt lat="45.1051903639809" lon="10.049876786971844"><ele>34.5</ele><time>2026-04-26T09:11:21Z</time></trkpt><trkpt lat="45.10519152642456" lon="10.049987922773873"><ele>34.333333333333336</ele><time>2026-04-26T09:11:22Z</time></trkpt><trkpt lat="45.10519159094711" lon="10.050094863306908"><ele>34.16666666666667</ele><time>2026-04-26T09:11:23Z</time></trkpt><trkpt lat="45.105193785256304" lon="10.050203546399333"><ele>34.0</ele><time>2026-04-26T09:11:24Z</time></trkpt><trkpt lat="45.10519428493416" lon="10.05031283944142"><ele>34.0</ele><time>2026-04-26T09:11:25Z</time></trkpt><trkpt lat="45.1051946692169" lon="10.050422255607353"><ele>34.0</ele><time>2026-04-26T09:11:26Z</time></trkpt><trkpt lat="45.105194879552265" lon="10.050531407509494"><ele>34.0</ele><time>2026-04-26T09:11:27Z</time></trkpt><trkpt lat="45.10519396810048" lon="10.0506414767356"><ele>34.0</ele><time>2026-04-26T09:11:28Z</time></trkpt><trkpt lat="45.10519386203313" lon="10.050750615662668"><ele>34.0</ele><time>2026-04-26T09:11:29Z</time></trkpt><trkpt lat="45.105194774280484" lon="10.05086246054064"><ele>34.0</ele><time>2026-04-26T09:11:30Z</time></trkpt><trkpt lat="45.105196875263175" lon="10.050968840803382"><ele>33.857142857142854</ele><time>2026-04-26T09:11:31Z</time></trkpt><trkpt lat="45.10519893238265" lon="10.05107475455028"><ele>33.714285714285715</ele><time>2026-04-26T09:11:32Z</time></trkpt><trkpt lat="45.10520171863524" lon="10.05117525055025"><ele>33.57142857142857</ele><time>2026-04-26T09:11:33Z</time></trkpt><trkpt lat="45.10520775560383" lon="10.051269427068975"><ele>33.42857142857143</ele><time>2026-04-26T09:11:34Z</time></trkpt><trkpt lat="45.105207575109496" lon="10.051360380898208"><ele>33.285714285714285</ele><time>2026-04-26T09:11:35Z</time></trkpt><trkpt lat="45.105168028943325" lon="10.051435612819878"><ele>33.14285714285714</ele><time>2026-04-26T09:11:36Z</time></trkpt><trkpt lat="45.10510441595312" lon="10.051479321298707"><ele>33.0</ele><time>2026-04-26T09:11:37Z</time></trkpt><trkpt lat="45.10503055559653" lon="10.051482181302028"><ele>33.0</ele><time>2026-04-26T09:11:38Z</time></trkpt><trkpt lat="45.104958905907125" lon="10.051476473415455"><ele>33.0</ele><time>2026-04-26T09:11:39Z</time></trkpt><trkpt lat="45.104885919462355" lon="10.051464734558479"><ele>33.0</ele><time>2026-04-26T09:11:40Z</time></trkpt><trkpt lat="45.10481352201918" lon="10.051430194397215"><ele>33.0</ele><time>2026-04-26T09:11:41Z</time></trkpt><trkpt lat="45.10473924179761" lon="10.051429544444554"><ele>33.0</ele><time>2026-04-26T09:11:42Z</time></trkpt><trkpt lat="45.10466536126357" lon="10.051424192366845"><ele>33.0</ele><time>2026-04-26T09:11:43Z</time></trkpt><trkpt lat="45.10458898860358" lon="10.051417079675954"><ele>33.0</ele><time>2026-04-26T09:11:44Z</time></trkpt><trkpt lat="45.1045148678151" lon="10.051406517287107"><ele>33.0</ele><time>2026-04-26T09:11:45Z</time></trkpt><trkpt lat="45.104438504988394" lon="10.051392216013772"><ele>33.0</ele><time>2026-04-26T09:11:46Z</time></trkpt><trkpt lat="45.10436266431111" lon="10.051377599212753"><ele>33.0</ele><time>2026-04-26T09:11:47Z</time></trkpt><trkpt lat="45.1042859619211" lon="10.051362816335416"><ele>33.0</ele><time>2026-04-26T09:11:48Z</time></trkpt><trkpt lat="45.10420941652371" lon="10.051348308500366"><ele>33.0</ele><time>2026-04-26T09:11:49Z</time></trkpt><trkpt lat="45.10413539522699" lon="10.051334867050427"><ele>33.0</ele><time>2026-04-26T09:11:50Z</time></trkpt><trkpt lat="45.10405671148363" lon="10.051320578959716"><ele>33.166666666666664</ele><time>2026-04-26T09:11:51Z</time></trkpt><trkpt lat="45.10398037277215" lon="10.051306716695297"><ele>33.333333333333336</ele><time>2026-04-26T09:11:52Z</time></trkpt><trkpt lat="45.103904173042665" lon="10.051292879700064"><ele>33.5</ele><time>2026-04-26T09:11:53Z</time></trkpt><trkpt lat="45.10382972880613" lon="10.05127959765823"><ele>33.66666666666667</ele><time>2026-04-26T09:11:54Z</time></trkpt><trkpt lat="45.10375156515213" lon="10.051265622844348"><ele>33.833333333333336</ele><time>2026-04-26T09:11:55Z</time></trkpt><trkpt lat="45.103675296145894" lon="10.051251986773092"><ele>34.0</ele><time>2026-04-26T09:11:56Z</time></trkpt><trkpt lat="45.103600472529905" lon="10.051238609117034"><ele>34.0</ele><time>2026-04-26T09:11:57Z</time></trkpt><trkpt lat="45.103524285674766" lon="10.051224987737427"><ele>34.0</ele><time>2026-04-26T09:11:58Z</time></trkpt><trkpt lat="45.103447933352676" lon="10.051211336768784"><ele>34.0</ele><time>2026-04-26T09:11:59Z</time></trkpt><trkpt lat="45.1033707031684" lon="10.051197528848975"><ele>34.0</ele><time>2026-04-26T09:12:00Z</time></trkpt><trkpt lat="45.10329353019041" lon="10.05118373115682"><ele>34.0</ele><time>2026-04-26T09:12:01Z</time></trkpt><trkpt lat="45.103215453542134" lon="10.051169771897795"><ele>34.0</ele><time>2026-04-26T09:12:02Z</time></trkpt><trkpt lat="45.1031372450902" lon="10.051156840837542"><ele>34.16666666666667</ele><time>2026-04-26T09:12:02.999Z</time></trkpt><trkpt lat="45.10306009239662" lon="10.051144182301197"><ele>34.333333333333336</ele><time>2026-04-26T09:12:03.999Z</time></trkpt><trkpt lat="45.10298295703199" lon="10.051131997661876"><ele>34.5</ele><time>2026-04-26T09:12:04.999Z</time></trkpt><trkpt lat="45.10290686806852" lon="10.051120296144607"><ele>34.666666666666664</ele><time>2026-04-26T09:12:05.999Z</time></trkpt><trkpt lat="45.10282843574656" lon="10.051110846357842"><ele>34.83333333333333</ele><time>2026-04-26T09:12:06.999Z</time></trkpt><trkpt lat="45.10274833348104" lon="10.051101544837152"><ele>35.0</ele><time>2026-04-26T09:12:07.999Z</time></trkpt><trkpt lat="45.1026720525627" lon="10.051092687052545"><ele>35.0</ele><time>2026-04-26T09:12:08.999Z</time></trkpt><trkpt lat="45.10259449595557" lon="10.05108368113399"><ele>35.0</ele><time>2026-04-26T09:12:09.999Z</time></trkpt><trkpt lat="45.10251728583366" lon="10.05107471545168"><ele>35.0</ele><time>2026-04-26T09:12:10.999Z</time></trkpt><trkpt lat="45.10243905296742" lon="10.051066823659001"><ele>35.0</ele><time>2026-04-26T09:12:11.999Z</time></trkpt><trkpt lat="45.10236288560178" lon="10.051059160030212"><ele>35.0</ele><time>2026-04-26T09:12:12.999Z</time></trkpt><trkpt lat="45.10228587517452" lon="10.051051411580728"><ele>35.0</ele><time>2026-04-26T09:12:13.999Z</time></trkpt><trkpt lat="45.102210183238554" lon="10.051043795788907"><ele>35.285714285714285</ele><time>2026-04-26T09:12:14.999Z</time></trkpt><trkpt lat="45.102132124013174" lon="10.051035941811861"><ele>35.57142857142857</ele><time>2026-04-26T09:12:15.999Z</time></trkpt><trkpt lat="45.102057710650165" lon="10.051028454662516"><ele>35.85714285714286</ele><time>2026-04-26T09:12:16.999Z</time></trkpt><trkpt lat="45.10198358570761" lon="10.051020515558115"><ele>36.14285714285714</ele><time>2026-04-26T09:12:17.999Z</time></trkpt><trkpt lat="45.10191279147578" lon="10.051010715266088"><ele>36.42857142857143</ele><time>2026-04-26T09:12:18.999Z</time></trkpt><trkpt lat="45.10184436509458" lon="10.051001242758971"><ele>36.714285714285715</ele><time>2026-04-26T09:12:19.999Z</time></trkpt><trkpt lat="45.10177568511979" lon="10.050993442622216"><ele>37.0</ele><time>2026-04-26T09:12:20.999Z</time></trkpt><trkpt lat="45.10171235506934" lon="10.050986607967928"><ele>37.0</ele><time>2026-04-26T09:12:21.999Z</time></trkpt><trkpt lat="45.10157478313983" lon="10.051049052105288"><ele>37.0</ele><time>2026-04-26T09:12:23.999Z</time></trkpt><trkpt lat="45.101546209553774" lon="10.051300584549587"><ele>37.0</ele><time>2026-04-26T09:12:25.999Z</time></trkpt><trkpt lat="45.101543770973485" lon="10.051404786475981"><ele>37.0</ele><time>2026-04-26T09:12:26.999Z</time></trkpt><trkpt lat="45.10154232048348" lon="10.051505434447034"><ele>37.0</ele><time>2026-04-26T09:12:27.999Z</time></trkpt><trkpt lat="45.10153591510322" lon="10.051611166686712"><ele>37.0</ele><time>2026-04-26T09:12:28.999Z</time></trkpt><trkpt lat="45.10152605755809" lon="10.05171374068401"><ele>37.0</ele><time>2026-04-26T09:12:29.999Z</time></trkpt><trkpt lat="45.10151444557271" lon="10.051819972535982"><ele>37.0</ele><time>2026-04-26T09:12:30.999Z</time></trkpt><trkpt lat="45.101503317921825" lon="10.051924709011155"><ele>37.0</ele><time>2026-04-26T09:12:31.999Z</time></trkpt><trkpt lat="45.10149277315469" lon="10.05202631152507"><ele>37.0</ele><time>2026-04-26T09:12:32.999Z</time></trkpt><trkpt lat="45.10148429918975" lon="10.052125917912148"><ele>37.0</ele><time>2026-04-26T09:12:33.999Z</time></trkpt><trkpt lat="45.101475267100845" lon="10.052224850995154"><ele>36.833333333333336</ele><time>2026-04-26T09:12:34.999Z</time></trkpt><trkpt lat="45.101465520904135" lon="10.05232692259143"><ele>36.66666666666667</ele><time>2026-04-26T09:12:35.999Z</time></trkpt><trkpt lat="45.101456327795596" lon="10.052432196179087"><ele>36.5</ele><time>2026-04-26T09:12:36.999Z</time></trkpt><trkpt lat="45.10144740931375" lon="10.052540712720761"><ele>36.333333333333336</ele><time>2026-04-26T09:12:37.999Z</time></trkpt><trkpt lat="45.10143846670375" lon="10.05264736439456"><ele>36.166666666666664</ele><time>2026-04-26T09:12:38.999Z</time></trkpt><trkpt lat="45.10142858367543" lon="10.052754648769874"><ele>36.0</ele><time>2026-04-26T09:12:39.999Z</time></trkpt><trkpt lat="45.10141698826843" lon="10.052862743043693"><ele>35.833333333333336</ele><time>2026-04-26T09:12:40.999Z</time></trkpt><trkpt lat="45.10140713469189" lon="10.052970876513534"><ele>35.666666666666664</ele><time>2026-04-26T09:12:41.999Z</time></trkpt><trkpt lat="45.10139875459901" lon="10.053078081815364"><ele>35.5</ele><time>2026-04-26T09:12:42.999Z</time></trkpt><trkpt lat="45.10138701082905" lon="10.053184656313215"><ele>35.33333333333333</ele><time>2026-04-26T09:12:43.999Z</time></trkpt><trkpt lat="45.101376825995615" lon="10.053290238906532"><ele>35.166666666666664</ele><time>2026-04-26T09:12:44.999Z</time></trkpt><trkpt lat="45.10136749233917" lon="10.053398348842334"><ele>35.0</ele><time>2026-04-26T09:12:45.999Z</time></trkpt><trkpt lat="45.10136007818933" lon="10.05350503620505"><ele>35.0</ele><time>2026-04-26T09:12:46.999Z</time></trkpt><trkpt lat="45.1013536469327" lon="10.0536133183891"><ele>35.0</ele><time>2026-04-26T09:12:47.999Z</time></trkpt><trkpt lat="45.10134987891671" lon="10.053721625433164"><ele>35.0</ele><time>2026-04-26T09:12:48.999Z</time></trkpt><trkpt lat="45.101347476823285" lon="10.053830859433834"><ele>35.0</ele><time>2026-04-26T09:12:49.999Z</time></trkpt><trkpt lat="45.10134441024553" lon="10.05393886304647"><ele>35.0</ele><time>2026-04-26T09:12:50.999Z</time></trkpt><trkpt lat="45.10134046844361" lon="10.054046998683424"><ele>35.0</ele><time>2026-04-26T09:12:51.999Z</time></trkpt><trkpt lat="45.1013446524068" lon="10.054153683303005"><ele>35.0</ele><time>2026-04-26T09:12:52.999Z</time></trkpt><trkpt lat="45.10135136792619" lon="10.054261832232271"><ele>35.0</ele><time>2026-04-26T09:12:53.999Z</time></trkpt><trkpt lat="45.1013739597138" lon="10.054373733581087"><ele>35.0</ele><time>2026-04-26T09:12:54.999Z</time></trkpt><trkpt lat="45.10140635452627" lon="10.054474496182108"><ele>35.0</ele><time>2026-04-26T09:12:55.999Z</time></trkpt><trkpt lat="45.10144009244081" lon="10.054572857616456"><ele>35.0</ele><time>2026-04-26T09:12:56.998Z</time></trkpt><trkpt lat="45.10146911884481" lon="10.05467543703992"><ele>35.0</ele><time>2026-04-26T09:12:57.998Z</time></trkpt><trkpt lat="45.10149929618612" lon="10.054778107639786"><ele>35.0</ele><time>2026-04-26T09:12:58.998Z</time></trkpt><trkpt lat="45.10152964217493" lon="10.054875045306947"><ele>35.0</ele><time>2026-04-26T09:12:59.998Z</time></trkpt><trkpt lat="45.101560928632516" lon="10.054971651464465"><ele>35.0</ele><time>2026-04-26T09:13:00.998Z</time></trkpt><trkpt lat="45.10159313849247" lon="10.05506955261212"><ele>35.0</ele><time>2026-04-26T09:13:01.998Z</time></trkpt><trkpt lat="45.10162585088629" lon="10.055166137487321"><ele>35.0</ele><time>2026-04-26T09:13:02.998Z</time></trkpt><trkpt lat="45.10165909737081" lon="10.05526314801655"><ele>35.0</ele><time>2026-04-26T09:13:03.998Z</time></trkpt><trkpt lat="45.101689670477974" lon="10.05536185451713"><ele>34.83333333333333</ele><time>2026-04-26T09:13:04.998Z</time></trkpt><trkpt lat="45.101721013132135" lon="10.05546033687479"><ele>34.666666666666664</ele><time>2026-04-26T09:13:05.998Z</time></trkpt><trkpt lat="45.10175251233188" lon="10.055556273059894"><ele>34.5</ele><time>2026-04-26T09:13:06.998Z</time></trkpt><trkpt lat="45.10178527802097" lon="10.055652689184857"><ele>34.333333333333336</ele><time>2026-04-26T09:13:07.998Z</time></trkpt><trkpt lat="45.10181711469714" lon="10.055748306132923"><ele>34.16666666666667</ele><time>2026-04-26T09:13:08.998Z</time></trkpt><trkpt lat="45.101849397797515" lon="10.05584441594724"><ele>34.0</ele><time>2026-04-26T09:13:09.998Z</time></trkpt><trkpt lat="45.10188030669225" lon="10.055942026387473"><ele>34.285714285714285</ele><time>2026-04-26T09:13:10.998Z</time></trkpt><trkpt lat="45.10191098842339" lon="10.056038291355549"><ele>34.57142857142857</ele><time>2026-04-26T09:13:11.998Z</time></trkpt><trkpt lat="45.101940960126896" lon="10.056134111427609"><ele>34.85714285714286</ele><time>2026-04-26T09:13:12.998Z</time></trkpt><trkpt lat="45.101972259854655" lon="10.056227289581793"><ele>35.14285714285714</ele><time>2026-04-26T09:13:13.998Z</time></trkpt><trkpt lat="45.102007303079496" lon="10.056321118715946"><ele>35.42857142857143</ele><time>2026-04-26T09:13:14.998Z</time></trkpt><trkpt lat="45.10203692482588" lon="10.056416964128767"><ele>35.714285714285715</ele><time>2026-04-26T09:13:15.998Z</time></trkpt><trkpt lat="45.10206588108575" lon="10.056512444697203"><ele>36.0</ele><time>2026-04-26T09:13:16.998Z</time></trkpt><trkpt lat="45.1020976785832" lon="10.056606608973917"><ele>36.28571428571429</ele><time>2026-04-26T09:13:17.998Z</time></trkpt><trkpt lat="45.10213002252706" lon="10.056701242849007"><ele>36.57142857142857</ele><time>2026-04-26T09:13:18.998Z</time></trkpt><trkpt lat="45.102161120797795" lon="10.056797335058814"><ele>36.85714285714286</ele><time>2026-04-26T09:13:19.998Z</time></trkpt><trkpt lat="45.10219136756904" lon="10.056892860351166"><ele>37.142857142857146</ele><time>2026-04-26T09:13:20.998Z</time></trkpt><trkpt lat="45.10222491679557" lon="10.056987636073305"><ele>37.42857142857143</ele><time>2026-04-26T09:13:22Z</time></trkpt><trkpt lat="45.10225926385532" lon="10.057082761913387"><ele>37.714285714285715</ele><time>2026-04-26T09:13:23Z</time></trkpt><trkpt lat="45.10229149309947" lon="10.057179443891213"><ele>38.0</ele><time>2026-04-26T09:13:24Z</time></trkpt><trkpt lat="45.102322685048556" lon="10.057279335923639"><ele>38.0</ele><time>2026-04-26T09:13:25Z</time></trkpt><trkpt lat="45.10235409211668" lon="10.057376799968226"><ele>38.0</ele><time>2026-04-26T09:13:26Z</time></trkpt><trkpt lat="45.102387764034965" lon="10.057474666639907"><ele>38.0</ele><time>2026-04-26T09:13:27Z</time></trkpt><trkpt lat="45.102424089731485" lon="10.057573577109531"><ele>38.0</ele><time>2026-04-26T09:13:28Z</time></trkpt><trkpt lat="45.10245750648171" lon="10.057673087872168"><ele>38.0</ele><time>2026-04-26T09:13:29Z</time></trkpt><trkpt lat="45.10248834237121" lon="10.057773019159699"><ele>38.0</ele><time>2026-04-26T09:13:30Z</time></trkpt><trkpt lat="45.10251838158488" lon="10.05787343029377"><ele>37.83333333333333</ele><time>2026-04-26T09:13:31Z</time></trkpt><trkpt lat="45.102549236716115" lon="10.057975167433026"><ele>37.666666666666664</ele><time>2026-04-26T09:13:32Z</time></trkpt><trkpt lat="45.10257563082257" lon="10.058078418097521"><ele>37.5</ele><time>2026-04-26T09:13:33Z</time></trkpt><trkpt lat="45.10260083330713" lon="10.058180148401833"><ele>37.333333333333336</ele><time>2026-04-26T09:13:34Z</time></trkpt><trkpt lat="45.10262293836537" lon="10.058286334581465"><ele>37.16666666666667</ele><time>2026-04-26T09:13:35Z</time></trkpt><trkpt lat="45.10264007774322" lon="10.058394467770553"><ele>37.0</ele><time>2026-04-26T09:13:36Z</time></trkpt><trkpt lat="45.102662800530084" lon="10.058501232515837"><ele>37.0</ele><time>2026-04-26T09:13:37Z</time></trkpt><trkpt lat="45.10267972284787" lon="10.05861127122579"><ele>37.0</ele><time>2026-04-26T09:13:38Z</time></trkpt><trkpt lat="45.10269868863463" lon="10.058717248917278"><ele>37.0</ele><time>2026-04-26T09:13:39Z</time></trkpt><trkpt lat="45.102717799924775" lon="10.05882125541487"><ele>37.0</ele><time>2026-04-26T09:13:40Z</time></trkpt><trkpt lat="45.10273769267068" lon="10.058924698924775"><ele>37.0</ele><time>2026-04-26T09:13:41Z</time></trkpt><trkpt lat="45.10276602729432" lon="10.059021275425465"><ele>37.0</ele><time>2026-04-26T09:13:42Z</time></trkpt><trkpt lat="45.10281295059273" lon="10.05910531694465"><ele>36.833333333333336</ele><time>2026-04-26T09:13:43Z</time></trkpt><trkpt lat="45.102882749176246" lon="10.059160621116824"><ele>36.66666666666667</ele><time>2026-04-26T09:13:44Z</time></trkpt><trkpt lat="45.102963543339335" lon="10.05918335506286"><ele>36.5</ele><time>2026-04-26T09:13:45Z</time></trkpt><trkpt lat="45.10304328294397" lon="10.059189727406872"><ele>36.333333333333336</ele><time>2026-04-26T09:13:46Z</time></trkpt><trkpt lat="45.10311953536586" lon="10.05920793262764"><ele>36.166666666666664</ele><time>2026-04-26T09:13:47Z</time></trkpt><trkpt lat="45.10319126185434" lon="10.059257081500332"><ele>36.0</ele><time>2026-04-26T09:13:48Z</time></trkpt><trkpt lat="45.10324926611876" lon="10.05933364472462"><ele>35.833333333333336</ele><time>2026-04-26T09:13:49Z</time></trkpt><trkpt lat="45.10328156509752" lon="10.059438223364875"><ele>35.666666666666664</ele><time>2026-04-26T09:13:50Z</time></trkpt><trkpt lat="45.10329709920001" lon="10.059555508855333"><ele>35.5</ele><time>2026-04-26T09:13:51Z</time></trkpt><trkpt lat="45.10329236739117" lon="10.059670397454656"><ele>35.33333333333333</ele><time>2026-04-26T09:13:52Z</time></trkpt><trkpt lat="45.103285191212265" lon="10.059780603687688"><ele>35.166666666666664</ele><time>2026-04-26T09:13:53Z</time></trkpt><trkpt lat="45.10327636294954" lon="10.05989254675567"><ele>35.0</ele><time>2026-04-26T09:13:54Z</time></trkpt><trkpt lat="45.103272938321396" lon="10.0600021179859"><ele>34.83333333333333</ele><time>2026-04-26T09:13:55Z</time></trkpt><trkpt lat="45.1032708987217" lon="10.060112555099145"><ele>34.666666666666664</ele><time>2026-04-26T09:13:56Z</time></trkpt><trkpt lat="45.103272828370365" lon="10.060221984017824"><ele>34.5</ele><time>2026-04-26T09:13:57Z</time></trkpt><trkpt lat="45.10327631279083" lon="10.060334263830528"><ele>34.333333333333336</ele><time>2026-04-26T09:13:58Z</time></trkpt><trkpt lat="45.10326921989024" lon="10.060440223544902"><ele>34.16666666666667</ele><time>2026-04-26T09:13:59Z</time></trkpt><trkpt lat="45.1032693072441" lon="10.060549255186027"><ele>34.0</ele><time>2026-04-26T09:14:00Z</time></trkpt><trkpt lat="45.103261376805044" lon="10.06065748026239"><ele>34.0</ele><time>2026-04-26T09:14:01Z</time></trkpt><trkpt lat="45.10326384845531" lon="10.060769042796954"><ele>34.0</ele><time>2026-04-26T09:14:02Z</time></trkpt><trkpt lat="45.103264598237025" lon="10.060873422140958"><ele>34.0</ele><time>2026-04-26T09:14:03Z</time></trkpt><trkpt lat="45.10325673038811" lon="10.060980936024828"><ele>34.0</ele><time>2026-04-26T09:14:04Z</time></trkpt><trkpt lat="45.1032503584173" lon="10.061087337045336"><ele>34.0</ele><time>2026-04-26T09:14:05Z</time></trkpt><trkpt lat="45.10324804983885" lon="10.061192409914055"><ele>34.0</ele><time>2026-04-26T09:14:05.999Z</time></trkpt><trkpt lat="45.10324396647047" lon="10.061299609007946"><ele>34.333333333333336</ele><time>2026-04-26T09:14:06.999Z</time></trkpt><trkpt lat="45.10324138572948" lon="10.061405311251642"><ele>34.66666666666667</ele><time>2026-04-26T09:14:07.999Z</time></trkpt><trkpt lat="45.10323656035417" lon="10.061513349255208"><ele>35.0</ele><time>2026-04-26T09:14:08.999Z</time></trkpt><trkpt lat="45.1032368672381" lon="10.061621803777744"><ele>35.333333333333336</ele><time>2026-04-26T09:14:09.999Z</time></trkpt><trkpt lat="45.10323780707714" lon="10.061732560295363"><ele>35.666666666666664</ele><time>2026-04-26T09:14:10.999Z</time></trkpt><trkpt lat="45.10323869375245" lon="10.06184297987299"><ele>36.0</ele><time>2026-04-26T09:14:11.999Z</time></trkpt><trkpt lat="45.1032358750648" lon="10.061952454847408"><ele>36.166666666666664</ele><time>2026-04-26T09:14:12.999Z</time></trkpt><trkpt lat="45.10323223920469" lon="10.062063694490826"><ele>36.333333333333336</ele><time>2026-04-26T09:14:13.999Z</time></trkpt><trkpt lat="45.103230661008226" lon="10.06217312305139"><ele>36.5</ele><time>2026-04-26T09:14:14.999Z</time></trkpt><trkpt lat="45.10322573571106" lon="10.062283025295095"><ele>36.66666666666667</ele><time>2026-04-26T09:14:15.999Z</time></trkpt><trkpt lat="45.10321812280629" lon="10.062393078084753"><ele>36.833333333333336</ele><time>2026-04-26T09:14:16.999Z</time></trkpt><trkpt lat="45.103211137803186" lon="10.062501970540584"><ele>37.0</ele><time>2026-04-26T09:14:17.999Z</time></trkpt><trkpt lat="45.10320851562334" lon="10.062602059120193"><ele>36.66666666666667</ele><time>2026-04-26T09:14:18.999Z</time></trkpt><trkpt lat="45.1032228856563" lon="10.062700356711446"><ele>36.333333333333336</ele><time>2026-04-26T09:14:19.999Z</time></trkpt><trkpt lat="45.103275913298894" lon="10.06277538624624"><ele>36.0</ele><time>2026-04-26T09:14:20.999Z</time></trkpt><trkpt lat="45.1033533030373" lon="10.062802768205088"><ele>35.666666666666664</ele><time>2026-04-26T09:14:21.999Z</time></trkpt><trkpt lat="45.103429655131556" lon="10.0627703575329"><ele>35.33333333333333</ele><time>2026-04-26T09:14:22.999Z</time></trkpt><trkpt lat="45.10350014727384" lon="10.062712368604751"><ele>35.0</ele><time>2026-04-26T09:14:23.999Z</time></trkpt><trkpt lat="45.10356991387733" lon="10.062667521618176"><ele>35.0</ele><time>2026-04-26T09:14:24.999Z</time></trkpt><trkpt lat="45.10364268036655" lon="10.062623377185124"><ele>35.0</ele><time>2026-04-26T09:14:25.999Z</time></trkpt><trkpt lat="45.10371575068869" lon="10.0625842169358"><ele>35.0</ele><time>2026-04-26T09:14:26.999Z</time></trkpt><trkpt lat="45.10378796446843" lon="10.062541836488325"><ele>35.0</ele><time>2026-04-26T09:14:27.999Z</time></trkpt><trkpt lat="45.103857121241695" lon="10.062503264139583"><ele>35.0</ele><time>2026-04-26T09:14:28.999Z</time></trkpt><trkpt lat="45.10392677520575" lon="10.062461983887216"><ele>35.0</ele><time>2026-04-26T09:14:29.999Z</time></trkpt><trkpt lat="45.103998391096084" lon="10.062418355720684"><ele>35.0</ele><time>2026-04-26T09:14:30.999Z</time></trkpt><trkpt lat="45.10406986384018" lon="10.06237721815535"><ele>35.0</ele><time>2026-04-26T09:14:31.999Z</time></trkpt><trkpt lat="45.10414155314012" lon="10.062337283568747"><ele>35.0</ele><time>2026-04-26T09:14:32.999Z</time></trkpt><trkpt lat="45.10421414298335" lon="10.062298447575335"><ele>35.0</ele><time>2026-04-26T09:14:33.999Z</time></trkpt><trkpt lat="45.10428590982178" lon="10.062259228459618"><ele>35.0</ele><time>2026-04-26T09:14:34.999Z</time></trkpt><trkpt lat="45.104358393323714" lon="10.062218359921609"><ele>35.0</ele><time>2026-04-26T09:14:35.999Z</time></trkpt><trkpt lat="45.10442939769885" lon="10.06217513399849"><ele>34.5</ele><time>2026-04-26T09:14:36.999Z</time></trkpt><trkpt lat="45.10450057013502" lon="10.062133117463272"><ele>34.0</ele><time>2026-04-26T09:14:37.999Z</time></trkpt><trkpt lat="45.10457560332028" lon="10.062094080735731"><ele>33.5</ele><time>2026-04-26T09:14:38.999Z</time></trkpt><trkpt lat="45.10464917272403" lon="10.062055942212096"><ele>33.0</ele><time>2026-04-26T09:14:39.999Z</time></trkpt><trkpt lat="45.1047265851428" lon="10.06202477544905"><ele>32.5</ele><time>2026-04-26T09:14:40.999Z</time></trkpt><trkpt lat="45.10480680087802" lon="10.062008717349821"><ele>32.0</ele><time>2026-04-26T09:14:41.999Z</time></trkpt><trkpt lat="45.10489075390962" lon="10.062012585226435"><ele>31.999999999999996</ele><time>2026-04-26T09:14:42.999Z</time></trkpt><trkpt lat="45.104975444696045" lon="10.06203061726201"><ele>32.0</ele><time>2026-04-26T09:14:43.999Z</time></trkpt><trkpt lat="45.10505576273781" lon="10.062065427922281"><ele>32.0</ele><time>2026-04-26T09:14:44.999Z</time></trkpt><trkpt lat="45.10513189522707" lon="10.062117430750279"><ele>32.0</ele><time>2026-04-26T09:14:45.999Z</time></trkpt><trkpt lat="45.10520750003964" lon="10.062174118449429"><ele>31.999999999999996</ele><time>2026-04-26T09:14:46.999Z</time></trkpt><trkpt lat="45.10527969897689" lon="10.062230388052011"><ele>32.0</ele><time>2026-04-26T09:14:47.999Z</time></trkpt><trkpt lat="45.10534634946369" lon="10.06229306517913"><ele>32.0</ele><time>2026-04-26T09:14:48.999Z</time></trkpt><trkpt lat="45.105407884697875" lon="10.06236297247347"><ele>31.999999999999996</ele><time>2026-04-26T09:14:49.999Z</time></trkpt><trkpt lat="45.105462992580726" lon="10.062435747062823"><ele>32.0</ele><time>2026-04-26T09:14:50.999Z</time></trkpt><trkpt lat="45.105513555803924" lon="10.062511785402666"><ele>32.0</ele><time>2026-04-26T09:14:51.999Z</time></trkpt><trkpt lat="45.10556134730205" lon="10.06258481509756"><ele>31.999999999999996</ele><time>2026-04-26T09:14:52.999Z</time></trkpt><trkpt lat="45.105611023231575" lon="10.06266180285031"><ele>32.0</ele><time>2026-04-26T09:14:53.999Z</time></trkpt><trkpt lat="45.10565803069092" lon="10.06273361132757"><ele>32.0</ele><time>2026-04-26T09:14:54.999Z</time></trkpt><trkpt lat="45.105706815314306" lon="10.062807980296869"><ele>32.285714285714285</ele><time>2026-04-26T09:14:55.999Z</time></trkpt><trkpt lat="45.105753918535164" lon="10.06287837464065"><ele>32.57142857142857</ele><time>2026-04-26T09:14:56.999Z</time></trkpt><trkpt lat="45.10580009030376" lon="10.062949148665334"><ele>32.857142857142854</ele><time>2026-04-26T09:14:57.999Z</time></trkpt><trkpt lat="45.105844969324025" lon="10.063023084570023"><ele>33.14285714285714</ele><time>2026-04-26T09:14:58.998Z</time></trkpt><trkpt lat="45.105891423801005" lon="10.063096396921507"><ele>33.42857142857143</ele><time>2026-04-26T09:14:59.998Z</time></trkpt><trkpt lat="45.10593773712339" lon="10.063169715395215"><ele>33.71428571428571</ele><time>2026-04-26T09:15:00.998Z</time></trkpt><trkpt lat="45.105984737062634" lon="10.063246789820381"><ele>34.0</ele><time>2026-04-26T09:15:01.998Z</time></trkpt><trkpt lat="45.10603555000873" lon="10.063320222095088"><ele>34.16666666666667</ele><time>2026-04-26T09:15:02.998Z</time></trkpt><trkpt lat="45.10608636566013" lon="10.063392807221069"><ele>34.333333333333336</ele><time>2026-04-26T09:15:03.998Z</time></trkpt><trkpt lat="45.10613841681954" lon="10.063469486340814"><ele>34.5</ele><time>2026-04-26T09:15:04.998Z</time></trkpt><trkpt lat="45.106190243857185" lon="10.063550900154167"><ele>34.666666666666664</ele><time>2026-04-26T09:15:05.998Z</time></trkpt><trkpt lat="45.106240063467965" lon="10.063638067534455"><ele>34.83333333333333</ele><time>2026-04-26T09:15:06.998Z</time></trkpt><trkpt lat="45.10628965090605" lon="10.063725402459362"><ele>35.0</ele><time>2026-04-26T09:15:07.998Z</time></trkpt><trkpt lat="45.10634402839506" lon="10.063811689140891"><ele>35.0</ele><time>2026-04-26T09:15:08.998Z</time></trkpt><trkpt lat="45.10640128193094" lon="10.063899255143657"><ele>35.0</ele><time>2026-04-26T09:15:09.998Z</time></trkpt><trkpt lat="45.10645862409538" lon="10.063984283348054"><ele>35.0</ele><time>2026-04-26T09:15:10.998Z</time></trkpt><trkpt lat="45.10651416757406" lon="10.064073428339794"><ele>35.0</ele><time>2026-04-26T09:15:11.998Z</time></trkpt><trkpt lat="45.10656767539223" lon="10.064165888377923"><ele>35.0</ele><time>2026-04-26T09:15:12.998Z</time></trkpt><trkpt lat="45.10662122288927" lon="10.064264126676084"><ele>35.0</ele><time>2026-04-26T09:15:13.998Z</time></trkpt><trkpt lat="45.1066784490478" lon="10.064357467428534"><ele>34.666666666666664</ele><time>2026-04-26T09:15:14.998Z</time></trkpt><trkpt lat="45.106736673576435" lon="10.064446347041299"><ele>34.33333333333333</ele><time>2026-04-26T09:15:15.998Z</time></trkpt><trkpt lat="45.10679255971189" lon="10.0645354094499"><ele>34.0</ele><time>2026-04-26T09:15:16.998Z</time></trkpt><trkpt lat="45.10684686919485" lon="10.0646244955872"><ele>33.666666666666664</ele><time>2026-04-26T09:15:17.998Z</time></trkpt><trkpt lat="45.106900762428" lon="10.06471268035338"><ele>33.333333333333336</ele><time>2026-04-26T09:15:18.998Z</time></trkpt><trkpt lat="45.10695331820491" lon="10.064797874435211"><ele>33.0</ele><time>2026-04-26T09:15:19.998Z</time></trkpt><trkpt lat="45.107006165516935" lon="10.064880979705217"><ele>32.833333333333336</ele><time>2026-04-26T09:15:20.998Z</time></trkpt><trkpt lat="45.10705932742706" lon="10.064965191412167"><ele>32.666666666666664</ele><time>2026-04-26T09:15:21.998Z</time></trkpt><trkpt lat="45.10711181495632" lon="10.065049566661555"><ele>32.5</ele><time>2026-04-26T09:15:22.998Z</time></trkpt><trkpt lat="45.10716335110795" lon="10.065134910605641"><ele>32.33333333333333</ele><time>2026-04-26T09:15:23.998Z</time></trkpt><trkpt lat="45.10721639560348" lon="10.065222687654853"><ele>32.166666666666664</ele><time>2026-04-26T09:15:24.998Z</time></trkpt><trkpt lat="45.107268202976385" lon="10.065307747514609"><ele>32.0</ele><time>2026-04-26T09:15:25.998Z</time></trkpt><trkpt lat="45.10732264251406" lon="10.06539299024935"><ele>31.999999999999996</ele><time>2026-04-26T09:15:26.998Z</time></trkpt><trkpt lat="45.10737611788828" lon="10.065478586489583"><ele>32.0</ele><time>2026-04-26T09:15:28Z</time></trkpt><trkpt lat="45.10742831777269" lon="10.06556543153342"><ele>32.0</ele><time>2026-04-26T09:15:29Z</time></trkpt><trkpt lat="45.10748278290859" lon="10.065649949138624"><ele>32.0</ele><time>2026-04-26T09:15:30Z</time></trkpt><trkpt lat="45.107533817398036" lon="10.065732441241941"><ele>31.999999999999996</ele><time>2026-04-26T09:15:31Z</time></trkpt><trkpt lat="45.10758389952872" lon="10.065817072845551"><ele>32.0</ele><time>2026-04-26T09:15:32Z</time></trkpt><trkpt lat="45.107634561931775" lon="10.065900333510955"><ele>32.166666666666664</ele><time>2026-04-26T09:15:33Z</time></trkpt><trkpt lat="45.10768578365176" lon="10.065982802267687"><ele>32.33333333333333</ele><time>2026-04-26T09:15:34Z</time></trkpt><trkpt lat="45.107735594282346" lon="10.066064547603753"><ele>32.5</ele><time>2026-04-26T09:15:35Z</time></trkpt><trkpt lat="45.107785090935344" lon="10.06614844668964"><ele>32.666666666666664</ele><time>2026-04-26T09:15:36Z</time></trkpt><trkpt lat="45.10783562208823" lon="10.066231570896603"><ele>32.833333333333336</ele><time>2026-04-26T09:15:37Z</time></trkpt><trkpt lat="45.107886825928496" lon="10.066316694786517"><ele>33.0</ele><time>2026-04-26T09:15:38Z</time></trkpt><trkpt lat="45.107937403038804" lon="10.06640402778785"><ele>33.0</ele><time>2026-04-26T09:15:39Z</time></trkpt><trkpt lat="45.10799076423789" lon="10.066489209993218"><ele>33.0</ele><time>2026-04-26T09:15:40Z</time></trkpt><trkpt lat="45.10804311425978" lon="10.066573486082225"><ele>33.0</ele><time>2026-04-26T09:15:41Z</time></trkpt><trkpt lat="45.10809427603135" lon="10.066658595395312"><ele>33.0</ele><time>2026-04-26T09:15:42Z</time></trkpt><trkpt lat="45.10814572121096" lon="10.066744677435793"><ele>33.0</ele><time>2026-04-26T09:15:43Z</time></trkpt><trkpt lat="45.10819759296914" lon="10.06682734597395"><ele>33.0</ele><time>2026-04-26T09:15:44Z</time></trkpt><trkpt lat="45.10824932910712" lon="10.066910628725648"><ele>33.0</ele><time>2026-04-26T09:15:45Z</time></trkpt><trkpt lat="45.108301234263294" lon="10.066994863235513"><ele>33.0</ele><time>2026-04-26T09:15:46Z</time></trkpt><trkpt lat="45.108350240208864" lon="10.067078792617739"><ele>33.0</ele><time>2026-04-26T09:15:47Z</time></trkpt><trkpt lat="45.10839939320796" lon="10.067161698827007"><ele>33.0</ele><time>2026-04-26T09:15:48Z</time></trkpt><trkpt lat="45.108448627982455" lon="10.067242985403999"><ele>33.0</ele><time>2026-04-26T09:15:49Z</time></trkpt><trkpt lat="45.10849796796507" lon="10.067325799732503"><ele>33.0</ele><time>2026-04-26T09:15:50Z</time></trkpt><trkpt lat="45.10854848457149" lon="10.067409808931172"><ele>33.166666666666664</ele><time>2026-04-26T09:15:51Z</time></trkpt><trkpt lat="45.10860010956572" lon="10.067494097690888"><ele>33.333333333333336</ele><time>2026-04-26T09:15:52Z</time></trkpt><trkpt lat="45.10865081568978" lon="10.067578035846248"><ele>33.5</ele><time>2026-04-26T09:15:53Z</time></trkpt><trkpt lat="45.10870051686496" lon="10.06766225688472"><ele>33.66666666666667</ele><time>2026-04-26T09:15:54Z</time></trkpt><trkpt lat="45.10875139810966" lon="10.067746844404189"><ele>33.833333333333336</ele><time>2026-04-26T09:15:55Z</time></trkpt><trkpt lat="45.108801047053575" lon="10.067829897950569"><ele>34.0</ele><time>2026-04-26T09:15:56Z</time></trkpt><trkpt lat="45.108850652343705" lon="10.067916845763376"><ele>34.0</ele><time>2026-04-26T09:15:57Z</time></trkpt><trkpt lat="45.10890158230687" lon="10.068005691038493"><ele>34.0</ele><time>2026-04-26T09:15:58Z</time></trkpt><trkpt lat="45.10895159119007" lon="10.068092208361035"><ele>34.0</ele><time>2026-04-26T09:15:59Z</time></trkpt><trkpt lat="45.10900481201074" lon="10.068180350757356"><ele>34.0</ele><time>2026-04-26T09:16:00Z</time></trkpt><trkpt lat="45.10905815382137" lon="10.068268072986154"><ele>34.0</ele><time>2026-04-26T09:16:01Z</time></trkpt><trkpt lat="45.10910991716424" lon="10.068354386551862"><ele>34.0</ele><time>2026-04-26T09:16:02Z</time></trkpt><trkpt lat="45.10916439992866" lon="10.068442153257845"><ele>33.833333333333336</ele><time>2026-04-26T09:16:03Z</time></trkpt><trkpt lat="45.10921562681667" lon="10.068528686572002"><ele>33.66666666666667</ele><time>2026-04-26T09:16:04Z</time></trkpt><trkpt lat="45.109266264611335" lon="10.068615801666303"><ele>33.5</ele><time>2026-04-26T09:16:05Z</time></trkpt><trkpt lat="45.10931821042049" lon="10.06870055553545"><ele>33.333333333333336</ele><time>2026-04-26T09:16:06Z</time></trkpt><trkpt lat="45.10937032679247" lon="10.06878487802477"><ele>33.166666666666664</ele><time>2026-04-26T09:16:07Z</time></trkpt><trkpt lat="45.10942342542587" lon="10.068872943771305"><ele>33.0</ele><time>2026-04-26T09:16:08Z</time></trkpt><trkpt lat="45.10947517179279" lon="10.068958958818007"><ele>33.0</ele><time>2026-04-26T09:16:08.999Z</time></trkpt><trkpt lat="45.109527067680546" lon="10.069044345617428"><ele>33.0</ele><time>2026-04-26T09:16:09.999Z</time></trkpt><trkpt lat="45.10957850738658" lon="10.069134110118979"><ele>33.0</ele><time>2026-04-26T09:16:10.999Z</time></trkpt><trkpt lat="45.10962069039788" lon="10.069228466188742"><ele>33.0</ele><time>2026-04-26T09:16:11.999Z</time></trkpt><trkpt lat="45.10965738053311" lon="10.069327014007305"><ele>33.0</ele><time>2026-04-26T09:16:12.999Z</time></trkpt><trkpt lat="45.10969394986823" lon="10.0694329328817"><ele>33.0</ele><time>2026-04-26T09:16:13.999Z</time></trkpt><trkpt lat="45.10972810309869" lon="10.069533047355018"><ele>33.0</ele><time>2026-04-26T09:16:14.999Z</time></trkpt><trkpt lat="45.109765252356674" lon="10.069637000197"><ele>33.0</ele><time>2026-04-26T09:16:15.999Z</time></trkpt><trkpt lat="45.109800193500575" lon="10.069740467723985"><ele>33.0</ele><time>2026-04-26T09:16:16.999Z</time></trkpt><trkpt lat="45.10983546436018" lon="10.06984246988107"><ele>33.0</ele><time>2026-04-26T09:16:17.999Z</time></trkpt><trkpt lat="45.10986962697048" lon="10.069944449459145"><ele>33.0</ele><time>2026-04-26T09:16:18.999Z</time></trkpt><trkpt lat="45.10990218686323" lon="10.070047303490556"><ele>33.0</ele><time>2026-04-26T09:16:19.999Z</time></trkpt><trkpt lat="45.109934751698454" lon="10.07014974886684"><ele>33.666666666666664</ele><time>2026-04-26T09:16:20.999Z</time></trkpt><trkpt lat="45.10996930195518" lon="10.070250855447552"><ele>34.333333333333336</ele><time>2026-04-26T09:16:21.999Z</time></trkpt><trkpt lat="45.11000807838578" lon="10.07034152164445"><ele>35.0</ele><time>2026-04-26T09:16:22.999Z</time></trkpt><trkpt lat="45.110040292077585" lon="10.070434579856428"><ele>35.66666666666667</ele><time>2026-04-26T09:16:23.999Z</time></trkpt><trkpt lat="45.11009238889321" lon="10.070521726861287"><ele>36.333333333333336</ele><time>2026-04-26T09:16:24.999Z</time></trkpt><trkpt lat="45.11015160845457" lon="10.070596483981308"><ele>37.0</ele><time>2026-04-26T09:16:25.999Z</time></trkpt><trkpt lat="45.110217292538785" lon="10.070662252639195"><ele>37.0</ele><time>2026-04-26T09:16:26.999Z</time></trkpt><trkpt lat="45.11027807802133" lon="10.070710610761116"><ele>37.0</ele><time>2026-04-26T09:16:27.999Z</time></trkpt><trkpt lat="45.11034377130805" lon="10.070760237277737"><ele>37.0</ele><time>2026-04-26T09:16:28.999Z</time></trkpt><trkpt lat="45.11040633407187" lon="10.07079784630865"><ele>37.0</ele><time>2026-04-26T09:16:29.999Z</time></trkpt><trkpt lat="45.110467188313635" lon="10.070839199289702"><ele>37.0</ele><time>2026-04-26T09:16:30.999Z</time></trkpt><trkpt lat="45.11052628886656" lon="10.070876530232788"><ele>37.0</ele><time>2026-04-26T09:16:31.999Z</time></trkpt><trkpt lat="45.11064138531983" lon="10.070931880805693"><ele>38.75</ele><time>2026-04-26T09:16:33.999Z</time></trkpt><trkpt lat="45.11071287136662" lon="10.071038518570587"><ele>40.5</ele><time>2026-04-26T09:16:35.999Z</time></trkpt><trkpt lat="45.11066252365083" lon="10.07121371477231"><ele>42.25</ele><time>2026-04-26T09:16:38.999Z</time></trkpt><trkpt lat="45.110607188482334" lon="10.071336640404082"><ele>44.0</ele><time>2026-04-26T09:16:40.999Z</time></trkpt><trkpt lat="45.11054655209206" lon="10.071486347973606"><ele>44.0</ele><time>2026-04-26T09:16:42.999Z</time></trkpt><trkpt lat="45.110519453907614" lon="10.071567695054673"><ele>44.0</ele><time>2026-04-26T09:16:43.999Z</time></trkpt><trkpt lat="45.110487065763856" lon="10.071653497577586"><ele>44.0</ele><time>2026-04-26T09:16:44.999Z</time></trkpt><trkpt lat="45.11045280256937" lon="10.071740374321319"><ele>44.0</ele><time>2026-04-26T09:16:45.999Z</time></trkpt><trkpt lat="45.110424684416905" lon="10.071825534689467"><ele>44.0</ele><time>2026-04-26T09:16:46.999Z</time></trkpt><trkpt lat="45.110394961760285" lon="10.071909208660871"><ele>44.0</ele><time>2026-04-26T09:16:47.999Z</time></trkpt><trkpt lat="45.11036490088771" lon="10.071994758544935"><ele>44.0</ele><time>2026-04-26T09:16:48.999Z</time></trkpt><trkpt lat="45.11033587691652" lon="10.072084214059949"><ele>43.57142857142857</ele><time>2026-04-26T09:16:49.999Z</time></trkpt><trkpt lat="45.11030653372367" lon="10.07217076527606"><ele>43.14285714285714</ele><time>2026-04-26T09:16:50.999Z</time></trkpt><trkpt lat="45.11027687177383" lon="10.072258205869465"><ele>42.71428571428571</ele><time>2026-04-26T09:16:51.999Z</time></trkpt><trkpt lat="45.110241502940106" lon="10.072346893928692"><ele>42.285714285714285</ele><time>2026-04-26T09:16:52.999Z</time></trkpt><trkpt lat="45.11020247238437" lon="10.07243324227147"><ele>41.857142857142854</ele><time>2026-04-26T09:16:53.999Z</time></trkpt><trkpt lat="45.11016103019628" lon="10.072519361045467"><ele>41.42857142857142</ele><time>2026-04-26T09:16:54.999Z</time></trkpt><trkpt lat="45.11011959263863" lon="10.072608555028681"><ele>41.0</ele><time>2026-04-26T09:16:55.999Z</time></trkpt><trkpt lat="45.11007550015326" lon="10.072700685378424"><ele>41.0</ele><time>2026-04-26T09:16:56.999Z</time></trkpt><trkpt lat="45.11002986880083" lon="10.07278553936868"><ele>41.0</ele><time>2026-04-26T09:16:57.999Z</time></trkpt><trkpt lat="45.10998316942806" lon="10.072870855160957"><ele>41.0</ele><time>2026-04-26T09:16:58.999Z</time></trkpt><trkpt lat="45.10993612184412" lon="10.072957490834886"><ele>41.0</ele><time>2026-04-26T09:16:59.999Z</time></trkpt><trkpt lat="45.10988978216592" lon="10.073044219469287"><ele>41.0</ele><time>2026-04-26T09:17:00.999Z</time></trkpt><trkpt lat="45.109843377267026" lon="10.073127970715705"><ele>41.0</ele><time>2026-04-26T09:17:01.999Z</time></trkpt><trkpt lat="45.109798283208086" lon="10.073212578091342"><ele>41.0</ele><time>2026-04-26T09:17:02.998Z</time></trkpt><trkpt lat="45.10975090905931" lon="10.073302003901107"><ele>41.0</ele><time>2026-04-26T09:17:03.998Z</time></trkpt><trkpt lat="45.109704395292646" lon="10.073391358917123"><ele>41.0</ele><time>2026-04-26T09:17:04.998Z</time></trkpt><trkpt lat="45.10965618524041" lon="10.07347854409271"><ele>41.0</ele><time>2026-04-26T09:17:05.998Z</time></trkpt><trkpt lat="45.10960881160869" lon="10.073564002997289"><ele>41.0</ele><time>2026-04-26T09:17:06.998Z</time></trkpt><trkpt lat="45.10956060460076" lon="10.073645930130215"><ele>41.0</ele><time>2026-04-26T09:17:07.998Z</time></trkpt><trkpt lat="45.10950985497275" lon="10.073731029159527"><ele>41.0</ele><time>2026-04-26T09:17:08.998Z</time></trkpt><trkpt lat="45.10946539535025" lon="10.07381781141991"><ele>41.0</ele><time>2026-04-26T09:17:09.998Z</time></trkpt><trkpt lat="45.10941416800692" lon="10.073906882283499"><ele>41.0</ele><time>2026-04-26T09:17:10.998Z</time></trkpt><trkpt lat="45.109365248921094" lon="10.073995017963854"><ele>41.0</ele><time>2026-04-26T09:17:11.998Z</time></trkpt><trkpt lat="45.109323771228844" lon="10.074090587100336"><ele>41.0</ele><time>2026-04-26T09:17:12.998Z</time></trkpt><trkpt lat="45.10928120043045" lon="10.07417669450314"><ele>41.0</ele><time>2026-04-26T09:17:13.998Z</time></trkpt><trkpt lat="45.10923609246945" lon="10.074272924872538"><ele>40.666666666666664</ele><time>2026-04-26T09:17:14.998Z</time></trkpt><trkpt lat="45.10919279675121" lon="10.074362271340169"><ele>40.33333333333333</ele><time>2026-04-26T09:17:15.998Z</time></trkpt><trkpt lat="45.1091498616977" lon="10.074453631917862"><ele>40.0</ele><time>2026-04-26T09:17:16.998Z</time></trkpt><trkpt lat="45.10910430831054" lon="10.074549920979134"><ele>39.666666666666664</ele><time>2026-04-26T09:17:17.998Z</time></trkpt><trkpt lat="45.109075232352524" lon="10.074654548479055"><ele>39.333333333333336</ele><time>2026-04-26T09:17:18.998Z</time></trkpt><trkpt lat="45.109050031020814" lon="10.074766262066118"><ele>39.0</ele><time>2026-04-26T09:17:19.998Z</time></trkpt><trkpt lat="45.1090209331164" lon="10.07487375966929"><ele>38.666666666666664</ele><time>2026-04-26T09:17:20.998Z</time></trkpt><trkpt lat="45.10898863163659" lon="10.07497971422084"><ele>38.333333333333336</ele><time>2026-04-26T09:17:21.998Z</time></trkpt><trkpt lat="45.10896190957012" lon="10.075084026824515"><ele>38.0</ele><time>2026-04-26T09:17:22.998Z</time></trkpt><trkpt lat="45.10893170297097" lon="10.075189350645942"><ele>37.66666666666667</ele><time>2026-04-26T09:17:23.998Z</time></trkpt><trkpt lat="45.10890234787619" lon="10.075291301402991"><ele>37.333333333333336</ele><time>2026-04-26T09:17:24.998Z</time></trkpt><trkpt lat="45.10887252363589" lon="10.07539397269318"><ele>37.0</ele><time>2026-04-26T09:17:25.998Z</time></trkpt><trkpt lat="45.108840429829776" lon="10.075493317393033"><ele>37.0</ele><time>2026-04-26T09:17:26.998Z</time></trkpt><trkpt lat="45.10880256975201" lon="10.075589093579245"><ele>37.0</ele><time>2026-04-26T09:17:27.998Z</time></trkpt><trkpt lat="45.108758913767154" lon="10.075682711309867"><ele>37.0</ele><time>2026-04-26T09:17:28.998Z</time></trkpt><trkpt lat="45.10871094505352" lon="10.075766848916476"><ele>37.0</ele><time>2026-04-26T09:17:29.998Z</time></trkpt><trkpt lat="45.10865616012233" lon="10.075844534274484"><ele>37.0</ele><time>2026-04-26T09:17:30.998Z</time></trkpt><trkpt lat="45.10859175619712" lon="10.075913034264774"><ele>37.0</ele><time>2026-04-26T09:17:31.998Z</time></trkpt><trkpt lat="45.108525006701946" lon="10.075975692676424"><ele>37.16666666666667</ele><time>2026-04-26T09:17:33Z</time></trkpt><trkpt lat="45.10845630925015" lon="10.076031496813815"><ele>37.333333333333336</ele><time>2026-04-26T09:17:34Z</time></trkpt><trkpt lat="45.10838398062736" lon="10.07607519665651"><ele>37.5</ele><time>2026-04-26T09:17:35Z</time></trkpt><trkpt lat="45.10830885726482" lon="10.076113772689524"><ele>37.666666666666664</ele><time>2026-04-26T09:17:36Z</time></trkpt><trkpt lat="45.108232510863246" lon="10.076155100395352"><ele>37.83333333333333</ele><time>2026-04-26T09:17:37Z</time></trkpt><trkpt lat="45.108159400256426" lon="10.076200076276569"><ele>38.0</ele><time>2026-04-26T09:17:38Z</time></trkpt><trkpt lat="45.10808675696975" lon="10.076245612780344"><ele>38.0</ele><time>2026-04-26T09:17:39Z</time></trkpt><trkpt lat="45.108013461573265" lon="10.076293734942164"><ele>38.0</ele><time>2026-04-26T09:17:40Z</time></trkpt><trkpt lat="45.107943564525186" lon="10.076345286899228"><ele>38.0</ele><time>2026-04-26T09:17:41Z</time></trkpt><trkpt lat="45.10787414574378" lon="10.0764009986234"><ele>38.0</ele><time>2026-04-26T09:17:42Z</time></trkpt><trkpt lat="45.107808115181754" lon="10.07645867798128"><ele>38.0</ele><time>2026-04-26T09:17:43Z</time></trkpt><trkpt lat="45.10774494738485" lon="10.076524009712553"><ele>38.0</ele><time>2026-04-26T09:17:44Z</time></trkpt><trkpt lat="45.107686344892194" lon="10.07659657486315"><ele>38.166666666666664</ele><time>2026-04-26T09:17:45Z</time></trkpt><trkpt lat="45.107631979852144" lon="10.076674550919428"><ele>38.33333333333333</ele><time>2026-04-26T09:17:46Z</time></trkpt><trkpt lat="45.10757921955172" lon="10.076757264167245"><ele>38.5</ele><time>2026-04-26T09:17:47Z</time></trkpt><trkpt lat="45.10752806387408" lon="10.076833398079366"><ele>38.666666666666664</ele><time>2026-04-26T09:17:48Z</time></trkpt><trkpt lat="45.10747670181829" lon="10.076911278627543"><ele>38.833333333333336</ele><time>2026-04-26T09:17:49Z</time></trkpt><trkpt lat="45.107428630177914" lon="10.076989652679847"><ele>39.0</ele><time>2026-04-26T09:17:50Z</time></trkpt><trkpt lat="45.107380670119404" lon="10.077064215704201"><ele>39.0</ele><time>2026-04-26T09:17:51Z</time></trkpt><trkpt lat="45.10733567467231" lon="10.077139738567809"><ele>39.0</ele><time>2026-04-26T09:17:52Z</time></trkpt><trkpt lat="45.107287704441895" lon="10.077212015460555"><ele>39.0</ele><time>2026-04-26T09:17:53Z</time></trkpt><trkpt lat="45.107242788189104" lon="10.077281742296597"><ele>39.0</ele><time>2026-04-26T09:17:54Z</time></trkpt><trkpt lat="45.107197233569245" lon="10.077345568812705"><ele>39.0</ele><time>2026-04-26T09:17:55Z</time></trkpt><trkpt lat="45.10714095850186" lon="10.077434769989257"><ele>39.0</ele><time>2026-04-26T09:17:57Z</time></trkpt><trkpt lat="45.10725388991594" lon="10.07750294712043"><ele>38.8</ele><time>2026-04-26T09:17:58Z</time></trkpt><trkpt lat="45.10731408723866" lon="10.07753526430677"><ele>38.599999999999994</ele><time>2026-04-26T09:17:59Z</time></trkpt><trkpt lat="45.107419045177814" lon="10.07759150057311"><ele>38.4</ele><time>2026-04-26T09:18:01Z</time></trkpt><trkpt lat="45.10751914962089" lon="10.077642797433834"><ele>38.199999999999996</ele><time>2026-04-26T09:18:03Z</time></trkpt><trkpt lat="45.10761421525408" lon="10.077702929795562"><ele>38.0</ele><time>2026-04-26T09:18:05Z</time></trkpt><trkpt lat="45.10771524742038" lon="10.07772044172279"><ele>38.599999999999994</ele><time>2026-04-26T09:18:07Z</time></trkpt><trkpt lat="45.10781911734683" lon="10.077752156179223"><ele>39.199999999999996</ele><time>2026-04-26T09:18:09Z</time></trkpt><trkpt lat="45.107919575641304" lon="10.077781942524155"><ele>39.8</ele><time>2026-04-26T09:18:11Z</time></trkpt><trkpt lat="45.10801943552799" lon="10.077811551438582"><ele>40.4</ele><time>2026-04-26T09:18:12.999Z</time></trkpt><trkpt lat="45.10811916301706" lon="10.077839837249353"><ele>41.0</ele><time>2026-04-26T09:18:14.999Z</time></trkpt><trkpt lat="45.10821774684022" lon="10.077888474093314"><ele>41.199999999999996</ele><time>2026-04-26T09:18:16.999Z</time></trkpt><trkpt lat="45.10831686519299" lon="10.077909196014584"><ele>41.4</ele><time>2026-04-26T09:18:18.999Z</time></trkpt><trkpt lat="45.10841431836011" lon="10.077926279193862"><ele>41.6</ele><time>2026-04-26T09:18:20.999Z</time></trkpt><trkpt lat="45.10851090520345" lon="10.077930389023246"><ele>41.8</ele><time>2026-04-26T09:18:22.999Z</time></trkpt><trkpt lat="45.10860758404612" lon="10.07793843467821"><ele>42.0</ele><time>2026-04-26T09:18:24.999Z</time></trkpt><trkpt lat="45.10869917143929" lon="10.077924722433385"><ele>42.0</ele><time>2026-04-26T09:18:26.999Z</time></trkpt><trkpt lat="45.10877319608811" lon="10.077859927382427"><ele>42.0</ele><time>2026-04-26T09:18:28.999Z</time></trkpt><trkpt lat="45.10879579190513" lon="10.077739901918155"><ele>42.0</ele><time>2026-04-26T09:18:30.999Z</time></trkpt><trkpt lat="45.108804434692836" lon="10.077627984532723"><ele>42.0</ele><time>2026-04-26T09:18:32.999Z</time></trkpt><trkpt lat="45.10881932269841" lon="10.077519781178438"><ele>42.0</ele><time>2026-04-26T09:18:34.999Z</time></trkpt><trkpt lat="45.10882831622443" lon="10.077408659032963"><ele>42.0</ele><time>2026-04-26T09:18:36.999Z</time></trkpt><trkpt lat="45.10883465231191" lon="10.077296958351432"><ele>41.833333333333336</ele><time>2026-04-26T09:18:38.999Z</time></trkpt><trkpt lat="45.10884047654873" lon="10.077184604518393"><ele>41.666666666666664</ele><time>2026-04-26T09:18:40.999Z</time></trkpt><trkpt lat="45.10883639097301" lon="10.077072874198208"><ele>41.5</ele><time>2026-04-26T09:18:42.999Z</time></trkpt><trkpt lat="45.108810278188756" lon="10.076971525920522"><ele>41.33333333333333</ele><time>2026-04-26T09:18:44.999Z</time></trkpt><trkpt lat="45.10876567804944" lon="10.076876328731304"><ele>41.166666666666664</ele><time>2026-04-26T09:18:46.999Z</time></trkpt><trkpt lat="45.10870307162155" lon="10.076802445207566"><ele>41.0</ele><time>2026-04-26T09:18:48.999Z</time></trkpt><trkpt lat="45.10863475059805" lon="10.076758197661125"><ele>40.99999999999999</ele><time>2026-04-26T09:18:50.999Z</time></trkpt><trkpt lat="45.10856624288831" lon="10.076717911663856"><ele>41.0</ele><time>2026-04-26T09:18:52.999Z</time></trkpt><trkpt lat="45.108487986819014" lon="10.076709588905643"><ele>41.0</ele><time>2026-04-26T09:18:54.999Z</time></trkpt><trkpt lat="45.108429947021385" lon="10.07679273513288"><ele>41.0</ele><time>2026-04-26T09:18:56.999Z</time></trkpt><trkpt lat="45.10836926462963" lon="10.076846775637636"><ele>41.0</ele><time>2026-04-26T09:18:58.999Z</time></trkpt><trkpt lat="45.10830122895627" lon="10.076829600645612"><ele>40.99999999999999</ele><time>2026-04-26T09:19:00.999Z</time></trkpt><trkpt lat="45.10823836617253" lon="10.076864149347351"><ele>41.0</ele><time>2026-04-26T09:19:03.999Z</time></trkpt><trkpt lat="45.108153784321544" lon="10.076864072788329"><ele>40.857142857142854</ele><time>2026-04-26T09:20:38.999Z</time></trkpt><trkpt lat="45.10809551199632" lon="10.076901914429888"><ele>40.714285714285715</ele><time>2026-04-26T09:20:41.999Z</time></trkpt><trkpt lat="45.10804831213575" lon="10.076967956520114"><ele>40.57142857142857</ele><time>2026-04-26T09:20:44.999Z</time></trkpt><trkpt lat="45.10801831831007" lon="10.077060977837284"><ele>40.42857142857143</ele><time>2026-04-26T09:20:48.999Z</time></trkpt><trkpt lat="45.10797384676676" lon="10.0771337325131"><ele>40.285714285714285</ele><time>2026-04-26T09:20:52.999Z</time></trkpt><trkpt lat="45.107918379639706" lon="10.077060594183173"><ele>40.14285714285714</ele><time>2026-04-26T09:20:54.999Z</time></trkpt><trkpt lat="45.107870166247" lon="10.076993475393648"><ele>40.0</ele><time>2026-04-26T09:20:57.999Z</time></trkpt><trkpt lat="45.10781987540798" lon="10.076937449901582"><ele>40.0</ele><time>2026-04-26T09:21:09.998Z</time></trkpt><trkpt lat="45.107806573562755" lon="10.076849638015169"><ele>40.0</ele><time>2026-04-26T09:21:26.028Z</time></trkpt><trkpt lat="45.10788479191539" lon="10.07673727787337"><ele>40.0</ele><time>2026-04-26T09:21:45.023Z</time></trkpt><trkpt lat="45.107868211640046" lon="10.076625662780076"><ele>40.0</ele><time>2026-04-26T09:21:50.02Z</time></trkpt><trkpt lat="45.10789440608459" lon="10.076750395240502"><ele>40.0</ele><time>2026-04-26T09:21:59.959Z</time></trkpt><trkpt lat="45.107882215188546" lon="10.07712347258336"><ele>40.0</ele><time>2026-04-26T09:22:07.483Z</time></trkpt><trkpt lat="45.1078495929807" lon="10.076957525036326"><ele>40.0</ele><time>2026-04-26T09:24:03.399Z</time></trkpt><trkpt lat="45.107836156838815" lon="10.07685750815726"><ele>40.0</ele><time>2026-04-26T09:34:19.984Z</time></trkpt><trkpt lat="45.10788024320668" lon="10.076928695974898"><ele>40.0</ele><time>2026-04-26T09:34:27Z</time></trkpt><trkpt lat="45.107937297396774" lon="10.076979883524846"><ele>40.0</ele><time>2026-04-26T09:34:31Z</time></trkpt><trkpt lat="45.10799277313437" lon="10.077042629132254"><ele>40.0</ele><time>2026-04-26T09:34:37Z</time></trkpt><trkpt lat="45.10804930886946" lon="10.0770025099097"><ele>40.0</ele><time>2026-04-26T09:34:50.999Z</time></trkpt><trkpt lat="45.108050277869104" lon="10.076864745542263"><ele>40.0</ele><time>2026-04-26T09:36:23.998Z</time></trkpt><trkpt lat="45.1080803455389" lon="10.076764715509073"><ele>40.0</ele><time>2026-04-26T09:36:25.998Z</time></trkpt><trkpt lat="45.10813295595431" lon="10.076693794090488"><ele>40.0</ele><time>2026-04-26T09:36:32Z</time></trkpt><trkpt lat="45.10819909782615" lon="10.07666870364271"><ele>40.0</ele><time>2026-04-26T09:36:39Z</time></trkpt><trkpt lat="45.108050277869104" lon="10.076864745542263"><ele>40.0</ele><time>2026-04-26T09:36:23.998Z</time></trkpt><trkpt lat="45.1080803455389" lon="10.076764715509073"><ele>40.0</ele><time>2026-04-26T09:36:25.998Z</time></trkpt><trkpt lat="45.10813295595431" lon="10.076693794090488"><ele>40.0</ele><time>2026-04-26T09:36:32Z</time></trkpt><trkpt lat="45.10819909782615" lon="10.07666870364271"><ele>40.0</ele><time>2026-04-26T09:36:39Z</time></trkpt><trkpt lat="45.108225516753116" lon="10.076760239097467"><ele>40.0</ele><time>2026-04-26T09:36:43Z</time></trkpt><trkpt lat="45.10816446362108" lon="10.076792779360586"><ele>40.0</ele><time>2026-04-26T09:36:47Z</time></trkpt><trkpt lat="45.10810823208904" lon="10.07684640683298"><ele>40.0</ele><time>2026-04-26T09:36:53Z</time></trkpt><trkpt lat="45.10805513413622" lon="10.076914823958715"><ele>40.0</ele><time>2026-04-26T09:37:02.999Z</time></trkpt><trkpt lat="45.10803717290648" lon="10.07701066660481"><ele>40.0</ele><time>2026-04-26T09:37:09.999Z</time></trkpt><trkpt lat="45.10797428749266" lon="10.077069574656294"><ele>40.0</ele><time>2026-04-26T09:37:18.999Z</time></trkpt><trkpt lat="45.1079084864452" lon="10.077046887147816"><ele>40.0</ele><time>2026-04-26T09:37:23.999Z</time></trkpt><trkpt lat="45.10785119585734" lon="10.076996752407585"><ele>40.0</ele><time>2026-04-26T09:37:29.999Z</time></trkpt><trkpt lat="45.10786795246209" lon="10.07689989963634"><ele>40.0</ele><time>2026-04-26T09:37:53.998Z</time></trkpt><trkpt lat="45.10792164901839" lon="10.07685201176091"><ele>40.0</ele><time>2026-04-26T09:37:58.998Z</time></trkpt><trkpt lat="45.10790661742675" lon="10.076953755804789"><ele>40.0</ele><time>2026-04-26T09:38:30.064Z</time></trkpt><trkpt lat="45.10793656305526" lon="10.07684989210907"><ele>40.0</ele><time>2026-04-26T09:38:41.039Z</time></trkpt><trkpt lat="45.10787334095474" lon="10.076843878350688"><ele>40.0</ele><time>2026-04-26T09:40:11.996Z</time></trkpt><trkpt lat="45.10787346075733" lon="10.076933266802023"><ele>40.0</ele><time>2026-04-26T09:40:15Z</time></trkpt><trkpt lat="45.10791716694827" lon="10.077028288853995"><ele>40.0</ele><time>2026-04-26T09:40:37.999Z</time></trkpt><trkpt lat="45.107986193315064" lon="10.077042358593866"><ele>40.0</ele><time>2026-04-26T09:40:54.999Z</time></trkpt><trkpt lat="45.10806429533643" lon="10.07702088219419"><ele>40.0</ele><time>2026-04-26T09:41:19.999Z</time></trkpt><trkpt lat="45.10801847800772" lon="10.076954450009023"><ele>40.0</ele><time>2026-04-26T09:41:23.999Z</time></trkpt><trkpt lat="45.10808124876116" lon="10.076931735248172"><ele>40.0</ele><time>2026-04-26T09:41:31.998Z</time></trkpt><trkpt lat="45.10810312760258" lon="10.076836163417836"><ele>40.0</ele><time>2026-04-26T09:41:34.998Z</time></trkpt><trkpt lat="45.108167355566245" lon="10.0767725939942"><ele>40.0</ele><time>2026-04-26T09:41:37.998Z</time></trkpt><trkpt lat="45.10825013500149" lon="10.076775562667546"><ele>40.0</ele><time>2026-04-26T09:41:41.998Z</time></trkpt><trkpt lat="45.1083129905576" lon="10.07678939394564"><ele>40.0</ele><time>2026-04-26T09:41:44.998Z</time></trkpt><trkpt lat="45.108393171980794" lon="10.076771049146501"><ele>40.0</ele><time>2026-04-26T09:41:47.998Z</time></trkpt><trkpt lat="45.108458825280444" lon="10.076729458351629"><ele>40.16666666666667</ele><time>2026-04-26T09:41:50.998Z</time></trkpt><trkpt lat="45.10853095711708" lon="10.076708667963198"><ele>40.333333333333336</ele><time>2026-04-26T09:41:53.998Z</time></trkpt><trkpt lat="45.10861054030753" lon="10.076701083198124"><ele>40.5</ele><time>2026-04-26T09:41:57.998Z</time></trkpt><trkpt lat="45.10867636987915" lon="10.076733979808491"><ele>40.666666666666664</ele><time>2026-04-26T09:42:21Z</time></trkpt><trkpt lat="45.108740198374846" lon="10.07679572441784"><ele>40.83333333333333</ele><time>2026-04-26T09:43:01.999Z</time></trkpt><trkpt lat="45.10879896175913" lon="10.076872628775826"><ele>41.0</ele><time>2026-04-26T09:43:05.999Z</time></trkpt><trkpt lat="45.108842910882984" lon="10.076951051590695"><ele>41.0</ele><time>2026-04-26T09:43:08.999Z</time></trkpt><trkpt lat="45.1088615110237" lon="10.077059140502625"><ele>41.0</ele><time>2026-04-26T09:43:11.999Z</time></trkpt><trkpt lat="45.10885775557026" lon="10.077184174855308"><ele>41.0</ele><time>2026-04-26T09:43:14.999Z</time></trkpt><trkpt lat="45.10884621586145" lon="10.077314834686597"><ele>41.0</ele><time>2026-04-26T09:43:17.999Z</time></trkpt><trkpt lat="45.10882299162726" lon="10.077445863858562"><ele>41.0</ele><time>2026-04-26T09:43:20.999Z</time></trkpt><trkpt lat="45.108815108372106" lon="10.07756589665348"><ele>41.0</ele><time>2026-04-26T09:43:23.999Z</time></trkpt><trkpt lat="45.108793332666096" lon="10.077674544560983"><ele>41.166666666666664</ele><time>2026-04-26T09:43:26.999Z</time></trkpt><trkpt lat="45.108767733837766" lon="10.077787642161164"><ele>41.33333333333333</ele><time>2026-04-26T09:43:29.999Z</time></trkpt><trkpt lat="45.10875607428656" lon="10.077903549694073"><ele>41.5</ele><time>2026-04-26T09:43:32.998Z</time></trkpt><trkpt lat="45.10873488130516" lon="10.078024560426673"><ele>41.666666666666664</ele><time>2026-04-26T09:43:35.998Z</time></trkpt><trkpt lat="45.10874177849902" lon="10.078126409039509"><ele>41.833333333333336</ele><time>2026-04-26T09:43:38.998Z</time></trkpt><trkpt lat="45.108801201632" lon="10.078055763027766"><ele>42.0</ele><time>2026-04-26T09:43:41.998Z</time></trkpt><trkpt lat="45.10886824083582" lon="10.077997806563145"><ele>42.0</ele><time>2026-04-26T09:43:44.998Z</time></trkpt><trkpt lat="45.10892649243668" lon="10.078038764979041"><ele>42.0</ele><time>2026-04-26T09:43:46.998Z</time></trkpt><trkpt lat="45.10900906105461" lon="10.078064279694214"><ele>42.0</ele><time>2026-04-26T09:43:49.998Z</time></trkpt><trkpt lat="45.109072668355694" lon="10.078087238290696"><ele>42.0</ele><time>2026-04-26T09:43:51.998Z</time></trkpt><trkpt lat="45.10913850112978" lon="10.07810742932109"><ele>42.0</ele><time>2026-04-26T09:43:53.998Z</time></trkpt><trkpt lat="45.109202461463646" lon="10.078127579894925"><ele>42.0</ele><time>2026-04-26T09:43:55.998Z</time></trkpt><trkpt lat="45.10926944924668" lon="10.078148711642479"><ele>42.0</ele><time>2026-04-26T09:43:57.998Z</time></trkpt><trkpt lat="45.109334065854945" lon="10.078163542305978"><ele>41.333333333333336</ele><time>2026-04-26T09:44:00.998Z</time></trkpt><trkpt lat="45.109419872120014" lon="10.078181501366442"><ele>40.666666666666664</ele><time>2026-04-26T09:44:03.998Z</time></trkpt><trkpt lat="45.10950878160287" lon="10.078213387172738"><ele>40.0</ele><time>2026-04-26T09:44:06.998Z</time></trkpt><trkpt lat="45.10959841516025" lon="10.07824426939185"><ele>39.33333333333333</ele><time>2026-04-26T09:44:09.998Z</time></trkpt><trkpt lat="45.10966335685265" lon="10.07826347157305"><ele>38.666666666666664</ele><time>2026-04-26T09:44:11.998Z</time></trkpt><trkpt lat="45.109726967741985" lon="10.078284653641397"><ele>38.0</ele><time>2026-04-26T09:44:13.998Z</time></trkpt><trkpt lat="45.10979277987796" lon="10.078304509173535"><ele>38.0</ele><time>2026-04-26T09:44:15.998Z</time></trkpt><trkpt lat="45.109855475547434" lon="10.078326016899451"><ele>38.0</ele><time>2026-04-26T09:44:17.998Z</time></trkpt><trkpt lat="45.1099483290926" lon="10.07834766414189"><ele>38.0</ele><time>2026-04-26T09:44:20.998Z</time></trkpt><trkpt lat="45.110011070279725" lon="10.078362410606827"><ele>38.0</ele><time>2026-04-26T09:44:22.998Z</time></trkpt><trkpt lat="45.110074525198804" lon="10.078371863413421"><ele>38.0</ele><time>2026-04-26T09:44:24.998Z</time></trkpt><trkpt lat="45.11014048354161" lon="10.078359574712229"><ele>38.0</ele><time>2026-04-26T09:44:27Z</time></trkpt><trkpt lat="45.11020265954182" lon="10.078329229710633"><ele>38.0</ele><time>2026-04-26T09:44:29Z</time></trkpt><trkpt lat="45.11026810765847" lon="10.078311265570399"><ele>38.0</ele><time>2026-04-26T09:44:31Z</time></trkpt><trkpt lat="45.11033601878693" lon="10.078298188852077"><ele>38.0</ele><time>2026-04-26T09:44:33Z</time></trkpt><trkpt lat="45.11039833796756" lon="10.078278472897612"><ele>38.0</ele><time>2026-04-26T09:44:35Z</time></trkpt><trkpt lat="45.11046393076782" lon="10.078252577375219"><ele>38.0</ele><time>2026-04-26T09:44:37Z</time></trkpt><trkpt lat="45.11052629443707" lon="10.078226553886019"><ele>38.0</ele><time>2026-04-26T09:44:39Z</time></trkpt><trkpt lat="45.11058972192254" lon="10.078213138377343"><ele>38.0</ele><time>2026-04-26T09:44:40.999Z</time></trkpt><trkpt lat="45.11065604147168" lon="10.078210108518597"><ele>38.0</ele><time>2026-04-26T09:44:42.999Z</time></trkpt><trkpt lat="45.11072082028369" lon="10.07821289172464"><ele>37.857142857142854</ele><time>2026-04-26T09:44:44.999Z</time></trkpt><trkpt lat="45.11081067403106" lon="10.078209574489502"><ele>37.714285714285715</ele><time>2026-04-26T09:44:47.999Z</time></trkpt><trkpt lat="45.11087483701514" lon="10.078196441656317"><ele>37.57142857142857</ele><time>2026-04-26T09:44:49.999Z</time></trkpt><trkpt lat="45.11094245072332" lon="10.078184213366171"><ele>37.42857142857143</ele><time>2026-04-26T09:44:51.999Z</time></trkpt><trkpt lat="45.11101899972955" lon="10.078187408798932"><ele>37.285714285714285</ele><time>2026-04-26T09:44:53.999Z</time></trkpt><trkpt lat="45.11108780919144" lon="10.078216747647494"><ele>37.142857142857146</ele><time>2026-04-26T09:44:55.999Z</time></trkpt><trkpt lat="45.11115315461452" lon="10.078252612153406"><ele>37.0</ele><time>2026-04-26T09:44:57.999Z</time></trkpt><trkpt lat="45.11121999888985" lon="10.07828669011834"><ele>37.285714285714285</ele><time>2026-04-26T09:44:59.999Z</time></trkpt><trkpt lat="45.11128345996448" lon="10.078311204828381"><ele>37.57142857142857</ele><time>2026-04-26T09:45:01.999Z</time></trkpt><trkpt lat="45.11134573048501" lon="10.078327046489674"><ele>37.85714285714286</ele><time>2026-04-26T09:45:03.999Z</time></trkpt><trkpt lat="45.111411660100124" lon="10.078351199299817"><ele>38.14285714285714</ele><time>2026-04-26T09:45:05.999Z</time></trkpt><trkpt lat="45.11149720898734" lon="10.078366277626614"><ele>38.42857142857142</ele><time>2026-04-26T09:45:07.999Z</time></trkpt><trkpt lat="45.11157025285711" lon="10.078393797346235"><ele>38.714285714285715</ele><time>2026-04-26T09:45:09.999Z</time></trkpt><trkpt lat="45.11164260868343" lon="10.078422087893822"><ele>39.0</ele><time>2026-04-26T09:45:11.999Z</time></trkpt><trkpt lat="45.111712040665346" lon="10.078443347681382"><ele>39.0</ele><time>2026-04-26T09:45:13.999Z</time></trkpt><trkpt lat="45.111779261580956" lon="10.078472884620409"><ele>39.0</ele><time>2026-04-26T09:45:15.999Z</time></trkpt><trkpt lat="45.111845419568276" lon="10.078489695184548"><ele>39.0</ele><time>2026-04-26T09:45:17.999Z</time></trkpt><trkpt lat="45.111919195685026" lon="10.078510740837455"><ele>39.0</ele><time>2026-04-26T09:45:19.999Z</time></trkpt><trkpt lat="45.11198709030068" lon="10.078528659580364"><ele>39.0</ele><time>2026-04-26T09:45:21.999Z</time></trkpt><trkpt lat="45.11205664887565" lon="10.078551894532197"><ele>39.0</ele><time>2026-04-26T09:45:23.999Z</time></trkpt><trkpt lat="45.112136620136745" lon="10.07857072319415"><ele>39.0</ele><time>2026-04-26T09:45:26.999Z</time></trkpt><trkpt lat="45.112221264716005" lon="10.078550201617245"><ele>39.0</ele><time>2026-04-26T09:45:29.999Z</time></trkpt><trkpt lat="45.112290405874525" lon="10.07850574300483"><ele>39.0</ele><time>2026-04-26T09:45:32.999Z</time></trkpt><trkpt lat="45.11236570744249" lon="10.078514251595255"><ele>39.0</ele><time>2026-04-26T09:45:35.998Z</time></trkpt><trkpt lat="45.11244272342589" lon="10.0785433332691"><ele>39.0</ele><time>2026-04-26T09:45:38.998Z</time></trkpt><trkpt lat="45.11253050668359" lon="10.07858477781503"><ele>39.0</ele><time>2026-04-26T09:45:41.998Z</time></trkpt><trkpt lat="45.112611835913945" lon="10.078638840009601"><ele>39.0</ele><time>2026-04-26T09:45:44.998Z</time></trkpt><trkpt lat="45.11270039174067" lon="10.078686727040846"><ele>39.333333333333336</ele><time>2026-04-26T09:45:46.998Z</time></trkpt><trkpt lat="45.11277199659622" lon="10.078720216841901"><ele>39.666666666666664</ele><time>2026-04-26T09:45:48.998Z</time></trkpt><trkpt lat="45.112856935291184" lon="10.078764331930977"><ele>40.0</ele><time>2026-04-26T09:45:51.998Z</time></trkpt><trkpt lat="45.112926067030166" lon="10.078801134786435"><ele>40.33333333333333</ele><time>2026-04-26T09:45:53.998Z</time></trkpt><trkpt lat="45.11298796300813" lon="10.07883147086236"><ele>40.666666666666664</ele><time>2026-04-26T09:45:55.998Z</time></trkpt><trkpt lat="45.11306135995199" lon="10.078871694400778"><ele>41.0</ele><time>2026-04-26T09:45:58.998Z</time></trkpt><trkpt lat="45.113132559289525" lon="10.07889840677615"><ele>41.0</ele><time>2026-04-26T09:46:02.998Z</time></trkpt><trkpt lat="45.11317882760776" lon="10.078819075413513"><ele>41.0</ele><time>2026-04-26T09:46:05.998Z</time></trkpt><trkpt lat="45.11321374353617" lon="10.078713592611825"><ele>41.0</ele><time>2026-04-26T09:46:08.998Z</time></trkpt><trkpt lat="45.113263782760775" lon="10.078603711909116"><ele>41.0</ele><time>2026-04-26T09:46:11.998Z</time></trkpt><trkpt lat="45.11330104554008" lon="10.078482417838696"><ele>41.0</ele><time>2026-04-26T09:46:14.998Z</time></trkpt><trkpt lat="45.11334372478453" lon="10.078411331225112"><ele>41.0</ele><time>2026-04-26T09:46:16.998Z</time></trkpt><trkpt lat="45.113367636363684" lon="10.078318945103263"><ele>41.0</ele><time>2026-04-26T09:46:18.998Z</time></trkpt><trkpt lat="45.11340006911783" lon="10.078233187573609"><ele>41.0</ele><time>2026-04-26T09:46:20.998Z</time></trkpt><trkpt lat="45.11344122127127" lon="10.078149191604918"><ele>41.0</ele><time>2026-04-26T09:46:22.998Z</time></trkpt><trkpt lat="45.11347121394014" lon="10.078063991719443"><ele>41.0</ele><time>2026-04-26T09:46:25.998Z</time></trkpt><trkpt lat="45.113503280892125" lon="10.077947077202479"><ele>41.0</ele><time>2026-04-26T09:46:28.998Z</time></trkpt><trkpt lat="45.1135400011345" lon="10.07782458786266"><ele>41.0</ele><time>2026-04-26T09:46:31.999Z</time></trkpt><trkpt lat="45.11356897111388" lon="10.07774101103117"><ele>40.99999999999999</ele><time>2026-04-26T09:46:33.999Z</time></trkpt><trkpt lat="45.11359564355587" lon="10.077659635995278"><ele>41.0</ele><time>2026-04-26T09:46:35.999Z</time></trkpt><trkpt lat="45.11362099147615" lon="10.077572452843667"><ele>41.0</ele><time>2026-04-26T09:46:37.999Z</time></trkpt><trkpt lat="45.1136490143884" lon="10.077481433627765"><ele>41.0</ele><time>2026-04-26T09:46:39.999Z</time></trkpt><trkpt lat="45.11366975680926" lon="10.077393011090066"><ele>41.0</ele><time>2026-04-26T09:46:41.999Z</time></trkpt><trkpt lat="45.113697614404224" lon="10.077293303385977"><ele>40.99999999999999</ele><time>2026-04-26T09:46:43.999Z</time></trkpt><trkpt lat="45.113718256454064" lon="10.07720843062683"><ele>41.0</ele><time>2026-04-26T09:46:44.999Z</time></trkpt><trkpt lat="45.113745544336766" lon="10.07712109646041"><ele>40.83333333333333</ele><time>2026-04-26T09:46:46.999Z</time></trkpt><trkpt lat="45.11377146803838" lon="10.077029772933345"><ele>40.666666666666664</ele><time>2026-04-26T09:46:48.999Z</time></trkpt><trkpt lat="45.113798444180375" lon="10.076943468246649"><ele>40.5</ele><time>2026-04-26T09:46:50.999Z</time></trkpt><trkpt lat="45.11383445269802" lon="10.076840498091181"><ele>40.333333333333336</ele><time>2026-04-26T09:46:53.999Z</time></trkpt><trkpt lat="45.113868919016674" lon="10.076702759993301"><ele>40.16666666666667</ele><time>2026-04-26T09:46:56.999Z</time></trkpt><trkpt lat="45.11388978431536" lon="10.07659512953795"><ele>40.0</ele><time>2026-04-26T09:46:58.999Z</time></trkpt><trkpt lat="45.11390945098321" lon="10.076505528912142"><ele>39.833333333333336</ele><time>2026-04-26T09:47:00.999Z</time></trkpt><trkpt lat="45.11393062253047" lon="10.076409430089928"><ele>39.66666666666667</ele><time>2026-04-26T09:47:03.999Z</time></trkpt><trkpt lat="45.113951900361286" lon="10.07632078346114"><ele>39.5</ele><time>2026-04-26T09:47:04.999Z</time></trkpt><trkpt lat="45.113975035099294" lon="10.076225829255778"><ele>39.333333333333336</ele><time>2026-04-26T09:47:07.999Z</time></trkpt><trkpt lat="45.11399172415155" lon="10.076130708871725"><ele>39.166666666666664</ele><time>2026-04-26T09:47:09.999Z</time></trkpt><trkpt lat="45.114029919063746" lon="10.075975686908462"><ele>39.0</ele><time>2026-04-26T09:47:11.999Z</time></trkpt><trkpt lat="45.114052460830635" lon="10.075883693775086"><ele>38.85714285714286</ele><time>2026-04-26T09:47:13.999Z</time></trkpt><trkpt lat="45.11407425888849" lon="10.075785531150775"><ele>38.71428571428571</ele><time>2026-04-26T09:47:15.999Z</time></trkpt><trkpt lat="45.11409876988881" lon="10.075685397810535"><ele>38.57142857142857</ele><time>2026-04-26T09:47:17.999Z</time></trkpt><trkpt lat="45.114120713889584" lon="10.075583450670281"><ele>38.42857142857143</ele><time>2026-04-26T09:47:19.999Z</time></trkpt><trkpt lat="45.11413661525104" lon="10.07548198279807"><ele>38.28571428571429</ele><time>2026-04-26T09:47:21.999Z</time></trkpt><trkpt lat="45.11415562430709" lon="10.075393097268616"><ele>38.14285714285714</ele><time>2026-04-26T09:47:23.999Z</time></trkpt><trkpt lat="45.1141776900067" lon="10.075299510124102"><ele>38.0</ele><time>2026-04-26T09:47:25.999Z</time></trkpt><trkpt lat="45.114201040839376" lon="10.075210001883546"><ele>38.0</ele><time>2026-04-26T09:47:27.999Z</time></trkpt><trkpt lat="45.11420746134336" lon="10.07508526059974"><ele>38.0</ele><time>2026-04-26T09:47:30.999Z</time></trkpt><trkpt lat="45.11422368871115" lon="10.074969102340141"><ele>38.0</ele><time>2026-04-26T09:47:33.999Z</time></trkpt><trkpt lat="45.11424970148671" lon="10.074882909478404"><ele>38.0</ele><time>2026-04-26T09:47:35.999Z</time></trkpt><trkpt lat="45.11426746259509" lon="10.07479668006836"><ele>38.0</ele><time>2026-04-26T09:47:37.999Z</time></trkpt><trkpt lat="45.114284678194515" lon="10.074707217968527"><ele>38.0</ele><time>2026-04-26T09:47:39.998Z</time></trkpt><trkpt lat="45.11430559720073" lon="10.074622335918365"><ele>38.0</ele><time>2026-04-26T09:47:41.998Z</time></trkpt><trkpt lat="45.1143267524864" lon="10.074534038122877"><ele>38.0</ele><time>2026-04-26T09:47:43.998Z</time></trkpt><trkpt lat="45.1143470342788" lon="10.074418854441602"><ele>38.0</ele><time>2026-04-26T09:47:46.998Z</time></trkpt><trkpt lat="45.114377816330006" lon="10.074292250593691"><ele>38.0</ele><time>2026-04-26T09:47:49.998Z</time></trkpt><trkpt lat="45.114405961913654" lon="10.074194826883565"><ele>38.0</ele><time>2026-04-26T09:47:51.998Z</time></trkpt><trkpt lat="45.11443354204751" lon="10.074092189578508"><ele>38.0</ele><time>2026-04-26T09:47:53.998Z</time></trkpt><trkpt lat="45.11445231832177" lon="10.073999955899014"><ele>38.0</ele><time>2026-04-26T09:47:55.998Z</time></trkpt><trkpt lat="45.11448164357879" lon="10.073892580290115"><ele>38.0</ele><time>2026-04-26T09:47:57.998Z</time></trkpt><trkpt lat="45.114516168381286" lon="10.073802968909781"><ele>38.0</ele><time>2026-04-26T09:47:59.998Z</time></trkpt><trkpt lat="45.11453349824452" lon="10.073712753179784"><ele>38.0</ele><time>2026-04-26T09:48:01.998Z</time></trkpt><trkpt lat="45.11455499471219" lon="10.073614589940172"><ele>38.0</ele><time>2026-04-26T09:48:03.998Z</time></trkpt><trkpt lat="45.114574959147376" lon="10.07351707140008"><ele>38.0</ele><time>2026-04-26T09:48:05.998Z</time></trkpt><trkpt lat="45.11460243279069" lon="10.073430647888753"><ele>38.0</ele><time>2026-04-26T09:48:07.998Z</time></trkpt><trkpt lat="45.11462968417781" lon="10.073342612634129"><ele>38.0</ele><time>2026-04-26T09:48:09.998Z</time></trkpt><trkpt lat="45.114683392796124" lon="10.073268926598951"><ele>38.0</ele><time>2026-04-26T09:48:11.998Z</time></trkpt><trkpt lat="45.11474958729008" lon="10.073237858906538"><ele>38.0</ele><time>2026-04-26T09:48:13.998Z</time></trkpt><trkpt lat="45.114818523863214" lon="10.073232349311242"><ele>38.0</ele><time>2026-04-26T09:48:15.998Z</time></trkpt><trkpt lat="45.11488184460533" lon="10.073226279409695"><ele>38.0</ele><time>2026-04-26T09:48:17.998Z</time></trkpt><trkpt lat="45.11495813031525" lon="10.073236207174762"><ele>38.0</ele><time>2026-04-26T09:48:19.998Z</time></trkpt><trkpt lat="45.115044160610545" lon="10.073239912280393"><ele>38.0</ele><time>2026-04-26T09:48:22.998Z</time></trkpt><trkpt lat="45.11513210288695" lon="10.073223390369135"><ele>38.57142857142857</ele><time>2026-04-26T09:48:24.998Z</time></trkpt><trkpt lat="45.11517564083608" lon="10.07315837830901"><ele>39.142857142857146</ele><time>2026-04-26T09:48:26.998Z</time></trkpt><trkpt lat="45.115215115992896" lon="10.073082405428654"><ele>39.714285714285715</ele><time>2026-04-26T09:48:28.998Z</time></trkpt><trkpt lat="45.115240270625875" lon="10.072997926010677"><ele>40.285714285714285</ele><time>2026-04-26T09:48:30.998Z</time></trkpt><trkpt lat="45.115267017093096" lon="10.07290735399686"><ele>40.85714285714286</ele><time>2026-04-26T09:48:32.998Z</time></trkpt><trkpt lat="45.11529962804215" lon="10.072827506264963"><ele>41.42857142857143</ele><time>2026-04-26T09:48:34.997Z</time></trkpt><trkpt lat="45.11532848906411" lon="10.072727132333572"><ele>42.0</ele><time>2026-04-26T09:48:36.999Z</time></trkpt><trkpt lat="45.11535564437735" lon="10.0726445587214"><ele>42.0</ele><time>2026-04-26T09:48:38.999Z</time></trkpt><trkpt lat="45.1153741665337" lon="10.072536110639078"><ele>42.0</ele><time>2026-04-26T09:48:40.999Z</time></trkpt><trkpt lat="45.11539785958556" lon="10.07243204038589"><ele>42.0</ele><time>2026-04-26T09:48:42.999Z</time></trkpt><trkpt lat="45.11542997581824" lon="10.072299772398253"><ele>42.0</ele><time>2026-04-26T09:48:44.999Z</time></trkpt><trkpt lat="45.11544785819851" lon="10.072206978600898"><ele>42.0</ele><time>2026-04-26T09:48:46.999Z</time></trkpt><trkpt lat="45.115477290135246" lon="10.07211985745245"><ele>42.0</ele><time>2026-04-26T09:48:48.999Z</time></trkpt><trkpt lat="45.11553478948229" lon="10.072070446367093"><ele>41.5</ele><time>2026-04-26T09:48:50.999Z</time></trkpt><trkpt lat="45.11559923669023" lon="10.072063746302145"><ele>41.0</ele><time>2026-04-26T09:48:52.999Z</time></trkpt><trkpt lat="45.11569113942852" lon="10.072077166558696"><ele>40.5</ele><time>2026-04-26T09:48:55.999Z</time></trkpt><trkpt lat="45.11578069642503" lon="10.072086827598591"><ele>40.0</ele><time>2026-04-26T09:48:57.999Z</time></trkpt><trkpt lat="45.115844744219686" lon="10.072105133845662"><ele>39.5</ele><time>2026-04-26T09:48:59.999Z</time></trkpt><trkpt lat="45.11591314049066" lon="10.072133403216172"><ele>39.0</ele><time>2026-04-26T09:49:01.999Z</time></trkpt><trkpt lat="45.115981859499556" lon="10.072161914765328"><ele>39.0</ele><time>2026-04-26T09:49:03.999Z</time></trkpt><trkpt lat="45.1160496636631" lon="10.072191436897095"><ele>39.0</ele><time>2026-04-26T09:49:05.999Z</time></trkpt><trkpt lat="45.116120763922275" lon="10.072209997550909"><ele>39.0</ele><time>2026-04-26T09:49:07.999Z</time></trkpt><trkpt lat="45.11618942691655" lon="10.072220323876873"><ele>39.0</ele><time>2026-04-26T09:49:09.999Z</time></trkpt><trkpt lat="45.1162519103418" lon="10.072189795777387"><ele>39.0</ele><time>2026-04-26T09:49:11.999Z</time></trkpt><trkpt lat="45.11629843953883" lon="10.07212221272645"><ele>39.0</ele><time>2026-04-26T09:49:13.999Z</time></trkpt><trkpt lat="45.116330473616614" lon="10.072037352456439"><ele>39.0</ele><time>2026-04-26T09:49:15.999Z</time></trkpt><trkpt lat="45.116354946919486" lon="10.071948256085395"><ele>39.0</ele><time>2026-04-26T09:49:17.999Z</time></trkpt><trkpt lat="45.11636945327898" lon="10.071851657228237"><ele>39.0</ele><time>2026-04-26T09:49:19.999Z</time></trkpt><trkpt lat="45.1163879126807" lon="10.071754900190552"><ele>39.0</ele><time>2026-04-26T09:49:21.999Z</time></trkpt><trkpt lat="45.11642854551746" lon="10.071625536268442"><ele>39.0</ele><time>2026-04-26T09:49:24.999Z</time></trkpt><trkpt lat="45.116446863591705" lon="10.071514292432013"><ele>39.0</ele><time>2026-04-26T09:49:26.999Z</time></trkpt><trkpt lat="45.11646601670798" lon="10.071406953745978"><ele>39.0</ele><time>2026-04-26T09:49:28.999Z</time></trkpt><trkpt lat="45.11652450769378" lon="10.071229056692067"><ele>39.0</ele><time>2026-04-26T09:49:30.999Z</time></trkpt><trkpt lat="45.11654027825443" lon="10.071123446605997"><ele>39.0</ele><time>2026-04-26T09:49:32.999Z</time></trkpt><trkpt lat="45.116551487034336" lon="10.071021565551968"><ele>39.0</ele><time>2026-04-26T09:49:35Z</time></trkpt><trkpt lat="45.11656356390535" lon="10.070920752829625"><ele>39.0</ele><time>2026-04-26T09:49:37Z</time></trkpt><trkpt lat="45.11657907872533" lon="10.07081351573797"><ele>39.0</ele><time>2026-04-26T09:49:39Z</time></trkpt><trkpt lat="45.11659489327735" lon="10.070710982909867"><ele>39.0</ele><time>2026-04-26T09:49:41Z</time></trkpt><trkpt lat="45.11661725863443" lon="10.070610282103148"><ele>39.0</ele><time>2026-04-26T09:49:42.999Z</time></trkpt><trkpt lat="45.11663326293405" lon="10.070509476942844"><ele>39.0</ele><time>2026-04-26T09:49:44.999Z</time></trkpt><trkpt lat="45.11664919852218" lon="10.07041208174382"><ele>39.0</ele><time>2026-04-26T09:49:46.999Z</time></trkpt><trkpt lat="45.11665638951951" lon="10.07030871810593"><ele>39.0</ele><time>2026-04-26T09:49:48.999Z</time></trkpt><trkpt lat="45.11665841831145" lon="10.070187005227774"><ele>39.0</ele><time>2026-04-26T09:49:51.999Z</time></trkpt><trkpt lat="45.11667181948065" lon="10.07007882001905"><ele>39.0</ele><time>2026-04-26T09:49:53.999Z</time></trkpt><trkpt lat="45.11669251308609" lon="10.069959026196043"><ele>39.0</ele><time>2026-04-26T09:49:55.999Z</time></trkpt><trkpt lat="45.116711730457816" lon="10.069855304349296"><ele>39.0</ele><time>2026-04-26T09:49:57.999Z</time></trkpt><trkpt lat="45.11672713222925" lon="10.069754280059"><ele>39.0</ele><time>2026-04-26T09:49:59.999Z</time></trkpt><trkpt lat="45.11674550571155" lon="10.069648522002533"><ele>39.0</ele><time>2026-04-26T09:50:01.999Z</time></trkpt><trkpt lat="45.11676415135826" lon="10.069549823312368"><ele>39.0</ele><time>2026-04-26T09:50:03.999Z</time></trkpt><trkpt lat="45.11677832736282" lon="10.06944380135201"><ele>39.0</ele><time>2026-04-26T09:50:05.999Z</time></trkpt><trkpt lat="45.11679644997038" lon="10.069336134859885"><ele>39.0</ele><time>2026-04-26T09:50:07.999Z</time></trkpt><trkpt lat="45.116814531030194" lon="10.069234584281448"><ele>39.0</ele><time>2026-04-26T09:50:09.999Z</time></trkpt><trkpt lat="45.11682593100675" lon="10.069129727075152"><ele>39.0</ele><time>2026-04-26T09:50:11.999Z</time></trkpt><trkpt lat="45.116841684342255" lon="10.069025141806375"><ele>39.0</ele><time>2026-04-26T09:50:13.999Z</time></trkpt><trkpt lat="45.11685883305476" lon="10.068917624601541"><ele>39.0</ele><time>2026-04-26T09:50:15.999Z</time></trkpt><trkpt lat="45.116875848893116" lon="10.068813266955807"><ele>39.0</ele><time>2026-04-26T09:50:18.999Z</time></trkpt><trkpt lat="45.116891797505225" lon="10.068669667699162"><ele>39.0</ele><time>2026-04-26T09:50:20.999Z</time></trkpt><trkpt lat="45.11690703689369" lon="10.068561116407004"><ele>39.0</ele><time>2026-04-26T09:50:22.999Z</time></trkpt><trkpt lat="45.116924185525676" lon="10.068469933757388"><ele>39.0</ele><time>2026-04-26T09:50:24.999Z</time></trkpt><trkpt lat="45.116942077672526" lon="10.068369271031827"><ele>39.0</ele><time>2026-04-26T09:50:26.999Z</time></trkpt><trkpt lat="45.11696516194034" lon="10.068271665666545"><ele>39.0</ele><time>2026-04-26T09:50:28.999Z</time></trkpt><trkpt lat="45.11697555042204" lon="10.06816464734334"><ele>39.0</ele><time>2026-04-26T09:50:30.999Z</time></trkpt><trkpt lat="45.11699364555786" lon="10.068070962434044"><ele>39.0</ele><time>2026-04-26T09:50:32.999Z</time></trkpt><trkpt lat="45.1170048717811" lon="10.06797119634617"><ele>39.0</ele><time>2026-04-26T09:50:34.999Z</time></trkpt><trkpt lat="45.11701603713091" lon="10.067878374536047"><ele>39.0</ele><time>2026-04-26T09:50:36.999Z</time></trkpt><trkpt lat="45.117032744579554" lon="10.067779603312136"><ele>39.0</ele><time>2026-04-26T09:50:38.998Z</time></trkpt><trkpt lat="45.11704109777229" lon="10.0676835425114"><ele>39.0</ele><time>2026-04-26T09:50:40.998Z</time></trkpt><trkpt lat="45.117052171798285" lon="10.067588795459194"><ele>39.0</ele><time>2026-04-26T09:50:43Z</time></trkpt><trkpt lat="45.11706641202745" lon="10.067483476100469"><ele>39.0</ele><time>2026-04-26T09:50:45Z</time></trkpt><trkpt lat="45.117065933131606" lon="10.067383316645477"><ele>39.0</ele><time>2026-04-26T09:50:47Z</time></trkpt><trkpt lat="45.11707010159921" lon="10.067274557438939"><ele>39.0</ele><time>2026-04-26T09:50:49Z</time></trkpt><trkpt lat="45.11708398800244" lon="10.067168307452867"><ele>39.285714285714285</ele><time>2026-04-26T09:50:51Z</time></trkpt><trkpt lat="45.1170922938763" lon="10.06706545906615"><ele>39.57142857142857</ele><time>2026-04-26T09:50:53Z</time></trkpt><trkpt lat="45.11709324485319" lon="10.06695567058168"><ele>39.857142857142854</ele><time>2026-04-26T09:50:55Z</time></trkpt><trkpt lat="45.11709678616082" lon="10.066848855205555"><ele>40.14285714285714</ele><time>2026-04-26T09:50:57Z</time></trkpt><trkpt lat="45.11709821810805" lon="10.066745118330308"><ele>40.42857142857143</ele><time>2026-04-26T09:50:59Z</time></trkpt><trkpt lat="45.11710540856642" lon="10.066647316928098"><ele>40.71428571428571</ele><time>2026-04-26T09:51:01Z</time></trkpt><trkpt lat="45.1171052707597" lon="10.066540928723631"><ele>41.0</ele><time>2026-04-26T09:51:03Z</time></trkpt><trkpt lat="45.117111918756095" lon="10.066430197488975"><ele>40.33333333333333</ele><time>2026-04-26T09:51:05Z</time></trkpt><trkpt lat="45.117110133840214" lon="10.066316779576026"><ele>39.666666666666664</ele><time>2026-04-26T09:51:07Z</time></trkpt><trkpt lat="45.117116177892655" lon="10.066202971978873"><ele>39.0</ele><time>2026-04-26T09:51:09Z</time></trkpt><trkpt lat="45.11712336044157" lon="10.066085639503799"><ele>38.333333333333336</ele><time>2026-04-26T09:51:11Z</time></trkpt><trkpt lat="45.11714650389294" lon="10.065970360191109"><ele>37.66666666666667</ele><time>2026-04-26T09:51:13Z</time></trkpt><trkpt lat="45.117194643912576" lon="10.065879857649303"><ele>37.0</ele><time>2026-04-26T09:51:15Z</time></trkpt><trkpt lat="45.11723472514475" lon="10.06578158400521"><ele>36.66666666666667</ele><time>2026-04-26T09:51:17Z</time></trkpt><trkpt lat="45.11727135393219" lon="10.06570256267275"><ele>36.333333333333336</ele><time>2026-04-26T09:51:19Z</time></trkpt><trkpt lat="45.117314436161045" lon="10.06560712394722"><ele>36.0</ele><time>2026-04-26T09:51:21Z</time></trkpt><trkpt lat="45.117362997565564" lon="10.06552047951081"><ele>35.666666666666664</ele><time>2026-04-26T09:51:23Z</time></trkpt><trkpt lat="45.11740735292035" lon="10.065426843995846"><ele>35.33333333333333</ele><time>2026-04-26T09:51:25Z</time></trkpt><trkpt lat="45.117455654164196" lon="10.065331508254797"><ele>35.0</ele><time>2026-04-26T09:51:27Z</time></trkpt><trkpt lat="45.11750289640753" lon="10.065238188811476"><ele>35.5</ele><time>2026-04-26T09:51:29Z</time></trkpt><trkpt lat="45.11754696431643" lon="10.065149987836998"><ele>36.0</ele><time>2026-04-26T09:51:31Z</time></trkpt><trkpt lat="45.11759441830885" lon="10.065062121143809"><ele>36.5</ele><time>2026-04-26T09:51:33Z</time></trkpt><trkpt lat="45.11763800887928" lon="10.064969841179474"><ele>37.0</ele><time>2026-04-26T09:51:35Z</time></trkpt><trkpt lat="45.11768618232502" lon="10.064882556666081"><ele>37.5</ele><time>2026-04-26T09:51:37Z</time></trkpt><trkpt lat="45.117732320937904" lon="10.064796416036513"><ele>38.0</ele><time>2026-04-26T09:51:39Z</time></trkpt><trkpt lat="45.11777481560005" lon="10.064710303242467"><ele>38.0</ele><time>2026-04-26T09:51:41Z</time></trkpt><trkpt lat="45.11782096515015" lon="10.064623343074723"><ele>38.0</ele><time>2026-04-26T09:51:43Z</time></trkpt><trkpt lat="45.11786439073774" lon="10.064530303399843"><ele>38.0</ele><time>2026-04-26T09:51:45Z</time></trkpt><trkpt lat="45.117903040151006" lon="10.06443416649764"><ele>38.0</ele><time>2026-04-26T09:51:47Z</time></trkpt><trkpt lat="45.11794998283437" lon="10.064341360285018"><ele>38.0</ele><time>2026-04-26T09:51:48.999Z</time></trkpt><trkpt lat="45.11800411983047" lon="10.064259387783336"><ele>38.0</ele><time>2026-04-26T09:51:50.999Z</time></trkpt><trkpt lat="45.118050088325205" lon="10.064169472231095"><ele>38.0</ele><time>2026-04-26T09:51:52.999Z</time></trkpt><trkpt lat="45.118096356285406" lon="10.064085245131094"><ele>38.0</ele><time>2026-04-26T09:51:54.999Z</time></trkpt><trkpt lat="45.11813759875767" lon="10.064005311012803"><ele>38.0</ele><time>2026-04-26T09:51:56.999Z</time></trkpt><trkpt lat="45.11819562646583" lon="10.063893338594184"><ele>38.0</ele><time>2026-04-26T09:51:59.999Z</time></trkpt><trkpt lat="45.118239984092064" lon="10.063812586009231"><ele>38.0</ele><time>2026-04-26T09:52:01.999Z</time></trkpt><trkpt lat="45.118279676673765" lon="10.063726717383375"><ele>38.0</ele><time>2026-04-26T09:52:03.999Z</time></trkpt><trkpt lat="45.118320601086" lon="10.063643587760524"><ele>38.0</ele><time>2026-04-26T09:52:05.999Z</time></trkpt><trkpt lat="45.11836377628886" lon="10.063561646413476"><ele>38.0</ele><time>2026-04-26T09:52:07.999Z</time></trkpt><trkpt lat="45.11840611902322" lon="10.06348044238451"><ele>38.0</ele><time>2026-04-26T09:52:09.999Z</time></trkpt><trkpt lat="45.11844845199185" lon="10.063391127564035"><ele>38.0</ele><time>2026-04-26T09:52:11.999Z</time></trkpt><trkpt lat="45.118484521567865" lon="10.063308182778963"><ele>38.0</ele><time>2026-04-26T09:52:13.999Z</time></trkpt><trkpt lat="45.11852472532358" lon="10.063222658291822"><ele>38.0</ele><time>2026-04-26T09:52:15.999Z</time></trkpt><trkpt lat="45.11857601809763" lon="10.063109956022032"><ele>38.0</ele><time>2026-04-26T09:52:18.999Z</time></trkpt><trkpt lat="45.118659691343034" lon="10.062957240902511"><ele>38.0</ele><time>2026-04-26T09:52:20.999Z</time></trkpt><trkpt lat="45.118693458801424" lon="10.062872348001958"><ele>38.0</ele><time>2026-04-26T09:52:22.999Z</time></trkpt><trkpt lat="45.118722129559075" lon="10.06277808175324"><ele>38.0</ele><time>2026-04-26T09:52:24.999Z</time></trkpt><trkpt lat="45.11874693094654" lon="10.062683179234728"><ele>38.0</ele><time>2026-04-26T09:52:26.999Z</time></trkpt><trkpt lat="45.11877629759549" lon="10.062587730524001"><ele>38.0</ele><time>2026-04-26T09:52:28.999Z</time></trkpt><trkpt lat="45.11880603994309" lon="10.06249084733538"><ele>38.0</ele><time>2026-04-26T09:52:30.999Z</time></trkpt><trkpt lat="45.11882735249826" lon="10.062399121278506"><ele>38.0</ele><time>2026-04-26T09:52:32.999Z</time></trkpt><trkpt lat="45.118857281863264" lon="10.062315324948937"><ele>38.0</ele><time>2026-04-26T09:52:34.999Z</time></trkpt><trkpt lat="45.11888315518483" lon="10.062225820663915"><ele>38.0</ele><time>2026-04-26T09:52:36.999Z</time></trkpt><trkpt lat="45.11890543461514" lon="10.062132585367953"><ele>38.0</ele><time>2026-04-26T09:52:38.999Z</time></trkpt><trkpt lat="45.11889843959416" lon="10.062041544519001"><ele>38.0</ele><time>2026-04-26T09:52:40.999Z</time></trkpt><trkpt lat="45.11893927966606" lon="10.06194394053509"><ele>38.0</ele><time>2026-04-26T09:52:42.999Z</time></trkpt><trkpt lat="45.11896568738362" lon="10.061850244885228"><ele>38.0</ele><time>2026-04-26T09:52:44.998Z</time></trkpt><trkpt lat="45.1189983845799" lon="10.061754887797603"><ele>38.0</ele><time>2026-04-26T09:52:46.998Z</time></trkpt><trkpt lat="45.11902753098939" lon="10.061660021259831"><ele>38.0</ele><time>2026-04-26T09:52:50Z</time></trkpt><trkpt lat="45.11905574858164" lon="10.061579660633171"><ele>38.0</ele><time>2026-04-26T09:52:52Z</time></trkpt><trkpt lat="45.11909286567422" lon="10.061504901514477"><ele>38.0</ele><time>2026-04-26T09:52:54Z</time></trkpt><trkpt lat="45.11917797081214" lon="10.061428590492795"><ele>38.0</ele><time>2026-04-26T09:52:57Z</time></trkpt><trkpt lat="45.11920789612747" lon="10.061325956952844"><ele>38.0</ele><time>2026-04-26T09:53:01Z</time></trkpt><trkpt lat="45.11926022612677" lon="10.061216875938149"><ele>38.0</ele><time>2026-04-26T09:53:04Z</time></trkpt><trkpt lat="45.11929566980506" lon="10.061106943353755"><ele>38.0</ele><time>2026-04-26T09:53:06Z</time></trkpt><trkpt lat="45.11935174975348" lon="10.06098371464929"><ele>38.0</ele><time>2026-04-26T09:53:08Z</time></trkpt><trkpt lat="45.1193965386146" lon="10.060901683982353"><ele>38.0</ele><time>2026-04-26T09:53:10Z</time></trkpt><trkpt lat="45.11943272655229" lon="10.060804114394708"><ele>38.0</ele><time>2026-04-26T09:53:12Z</time></trkpt><trkpt lat="45.11946074777223" lon="10.06069030269104"><ele>37.8</ele><time>2026-04-26T09:53:14.068Z</time></trkpt><trkpt lat="45.11956716951471" lon="10.060652945647064"><ele>37.599999999999994</ele><time>2026-04-26T09:53:15.07Z</time></trkpt><trkpt lat="45.11967635782074" lon="10.060518470619021"><ele>37.400000000000006</ele><time>2026-04-26T09:53:17.07Z</time></trkpt><trkpt lat="45.11973159628059" lon="10.060443804074868"><ele>37.2</ele><time>2026-04-26T09:53:19.044Z</time></trkpt><trkpt lat="45.11973063363924" lon="10.060300418663171"><ele>37.0</ele><time>2026-04-26T09:53:22Z</time></trkpt><trkpt lat="45.11965944008598" lon="10.060154366611483"><ele>37.0</ele><time>2026-04-26T09:53:23Z</time></trkpt><trkpt lat="45.119693980412364" lon="10.060028414890843"><ele>37.0</ele><time>2026-04-26T09:53:26Z</time></trkpt><trkpt lat="45.119716560700276" lon="10.059926354073136"><ele>37.0</ele><time>2026-04-26T09:53:29Z</time></trkpt><trkpt lat="45.11969718356435" lon="10.059805310751571"><ele>37.0</ele><time>2026-04-26T09:53:33Z</time></trkpt><trkpt lat="45.119713552071765" lon="10.05969856831052"><ele>37.0</ele><time>2026-04-26T09:53:36Z</time></trkpt><trkpt lat="45.119752009760056" lon="10.05961674639398"><ele>37.0</ele><time>2026-04-26T09:53:39Z</time></trkpt><trkpt lat="45.11979335705635" lon="10.059508498377008"><ele>36.85714285714286</ele><time>2026-04-26T09:53:41Z</time></trkpt><trkpt lat="45.11983548307416" lon="10.05943326216508"><ele>36.714285714285715</ele><time>2026-04-26T09:53:43Z</time></trkpt><trkpt lat="45.11987109038694" lon="10.059346647911726"><ele>36.57142857142857</ele><time>2026-04-26T09:53:45Z</time></trkpt><trkpt lat="45.11990955907556" lon="10.05925849132885"><ele>36.42857142857143</ele><time>2026-04-26T09:53:47Z</time></trkpt><trkpt lat="45.11994443762556" lon="10.059166071752296"><ele>36.285714285714285</ele><time>2026-04-26T09:53:49Z</time></trkpt><trkpt lat="45.11998719967895" lon="10.059075690694048"><ele>36.142857142857146</ele><time>2026-04-26T09:53:50.999Z</time></trkpt><trkpt lat="45.120027479885806" lon="10.058985024251736"><ele>36.0</ele><time>2026-04-26T09:53:52.999Z</time></trkpt><trkpt lat="45.120065988044395" lon="10.058892614765393"><ele>36.5</ele><time>2026-04-26T09:53:54.999Z</time></trkpt><trkpt lat="45.12011286591058" lon="10.058814398532625"><ele>37.0</ele><time>2026-04-26T09:53:56.999Z</time></trkpt><trkpt lat="45.1201523734131" lon="10.058722437131651"><ele>37.5</ele><time>2026-04-26T09:53:58.999Z</time></trkpt><trkpt lat="45.12020096097875" lon="10.05863611493645"><ele>38.0</ele><time>2026-04-26T09:54:00.999Z</time></trkpt><trkpt lat="45.12024921177871" lon="10.05855908397267"><ele>38.5</ele><time>2026-04-26T09:54:02.999Z</time></trkpt><trkpt lat="45.12030121675045" lon="10.058481599884388"><ele>39.0</ele><time>2026-04-26T09:54:04.999Z</time></trkpt><trkpt lat="45.12035272927087" lon="10.058399954740617"><ele>39.0</ele><time>2026-04-26T09:54:06.999Z</time></trkpt><trkpt lat="45.12040773339062" lon="10.058329096137864"><ele>39.0</ele><time>2026-04-26T09:54:08.999Z</time></trkpt><trkpt lat="45.1204726541878" lon="10.058278844121812"><ele>39.0</ele><time>2026-04-26T09:54:10.999Z</time></trkpt><trkpt lat="45.12052732740811" lon="10.05821621051766"><ele>39.0</ele><time>2026-04-26T09:54:12.999Z</time></trkpt><trkpt lat="45.12058476112989" lon="10.058159923316667"><ele>39.0</ele><time>2026-04-26T09:54:14.999Z</time></trkpt><trkpt lat="45.120645514031466" lon="10.0581157078597"><ele>39.0</ele><time>2026-04-26T09:54:16.999Z</time></trkpt><trkpt lat="45.120708395298365" lon="10.058070345031418"><ele>39.0</ele><time>2026-04-26T09:54:18.999Z</time></trkpt><trkpt lat="45.120771988813075" lon="10.05802800354032"><ele>38.57142857142858</ele><time>2026-04-26T09:54:20.999Z</time></trkpt><trkpt lat="45.120835661164854" lon="10.057981171679355"><ele>38.14285714285714</ele><time>2026-04-26T09:54:22.999Z</time></trkpt><trkpt lat="45.120899857152196" lon="10.057933277615271"><ele>37.714285714285715</ele><time>2026-04-26T09:54:24.999Z</time></trkpt><trkpt lat="45.12096212228041" lon="10.057891596756022"><ele>37.28571428571429</ele><time>2026-04-26T09:54:26.999Z</time></trkpt><trkpt lat="45.12103087319078" lon="10.057880285982346"><ele>36.85714285714286</ele><time>2026-04-26T09:54:28.999Z</time></trkpt><trkpt lat="45.1211031787932" lon="10.057856702999995"><ele>36.42857142857143</ele><time>2026-04-26T09:54:30.999Z</time></trkpt><trkpt lat="45.121173712712576" lon="10.057828496397471"><ele>36.0</ele><time>2026-04-26T09:54:32.999Z</time></trkpt><trkpt lat="45.121244317033145" lon="10.05781103321724"><ele>36.00000000000001</ele><time>2026-04-26T09:54:34.999Z</time></trkpt><trkpt lat="45.12131379689748" lon="10.057795233929335"><ele>36.0</ele><time>2026-04-26T09:54:36.999Z</time></trkpt><trkpt lat="45.12138642057152" lon="10.057779776072307"><ele>36.0</ele><time>2026-04-26T09:54:38.999Z</time></trkpt><trkpt lat="45.12145939914905" lon="10.05776514339207"><ele>36.0</ele><time>2026-04-26T09:54:40.999Z</time></trkpt><trkpt lat="45.12153362417302" lon="10.057756440185813"><ele>36.0</ele><time>2026-04-26T09:54:42.999Z</time></trkpt><trkpt lat="45.121605489930204" lon="10.057740205133738"><ele>36.00000000000001</ele><time>2026-04-26T09:54:44.999Z</time></trkpt><trkpt lat="45.12167794377474" lon="10.057728248742405"><ele>36.0</ele><time>2026-04-26T09:54:46.998Z</time></trkpt><trkpt lat="45.121750876055344" lon="10.057713814158062"><ele>36.0</ele><time>2026-04-26T09:54:48.998Z</time></trkpt><trkpt lat="45.12182648415546" lon="10.0577003393025"><ele>36.0</ele><time>2026-04-26T09:54:50.998Z</time></trkpt><trkpt lat="45.121915073242434" lon="10.057687083538447"><ele>36.0</ele><time>2026-04-26T09:54:54Z</time></trkpt><trkpt lat="45.12199296101674" lon="10.057665689445923"><ele>36.0</ele><time>2026-04-26T09:54:56Z</time></trkpt><trkpt lat="45.12206959237452" lon="10.057644396006616"><ele>36.0</ele><time>2026-04-26T09:54:58Z</time></trkpt><trkpt lat="45.12213686790763" lon="10.057615756491051"><ele>36.0</ele><time>2026-04-26T09:55:00Z</time></trkpt><trkpt lat="45.122207314660436" lon="10.057585582549965"><ele>36.0</ele><time>2026-04-26T09:55:02Z</time></trkpt><trkpt lat="45.12226894688259" lon="10.057550159045652"><ele>36.0</ele><time>2026-04-26T09:55:04Z</time></trkpt><trkpt lat="45.12234256094684" lon="10.057513366305562"><ele>36.0</ele><time>2026-04-26T09:55:06Z</time></trkpt><trkpt lat="45.122416337663594" lon="10.057479901650597"><ele>36.0</ele><time>2026-04-26T09:55:09Z</time></trkpt><trkpt lat="45.122494688427494" lon="10.057439713533311"><ele>36.0</ele><time>2026-04-26T09:55:11Z</time></trkpt><trkpt lat="45.12257806787916" lon="10.057392776454419"><ele>36.0</ele><time>2026-04-26T09:55:13Z</time></trkpt><trkpt lat="45.122638577090314" lon="10.057353526609957"><ele>36.0</ele><time>2026-04-26T09:55:15Z</time></trkpt><trkpt lat="45.122702269198555" lon="10.057311873989491"><ele>36.0</ele><time>2026-04-26T09:55:17Z</time></trkpt><trkpt lat="45.12276383346416" lon="10.05725963268667"><ele>36.0</ele><time>2026-04-26T09:55:19Z</time></trkpt><trkpt lat="45.12282558634193" lon="10.057212231085943"><ele>36.0</ele><time>2026-04-26T09:55:21Z</time></trkpt><trkpt lat="45.12288402872619" lon="10.057156458810882"><ele>36.0</ele><time>2026-04-26T09:55:23Z</time></trkpt></trkseg></trk></gpx>